<?xml version='1.0' encoding='UTF-8'?><gpx version="1.1" creator="JPX - https://github.com/jenetics/jpx" xmlns="http://www.topografix.com/GPX/1/1"><trk><trkseg><trkpt lat="42.21157155375159" lon="13.824469625621582"><ele>324.0</ele><time>2026-04-27T08:18:51.996Z</time></trkpt><trkpt lat="42.21163387802888" lon="13.82439287820954"><ele>324.0</ele><time>2026-04-27T08:19:06.999Z</time></trkpt><trkpt lat="42.211665701027684" lon="13.824284665428245"><ele>324.0</ele><time>2026-04-27T08:19:08.999Z</time></trkpt><trkpt lat="42.21172647609193" lon="13.824161286865337"><ele>324.0</ele><time>2026-04-27T08:19:12.999Z</time></trkpt><trkpt lat="42.21178556601462" lon="13.824108338524237"><ele>324.0</ele><time>2026-04-27T08:19:14.999Z</time></trkpt><trkpt lat="42.21178298451963" lon="13.823949968221454"><ele>322.8571428571429</ele><time>2026-04-27T08:19:16.999Z</time></trkpt><trkpt lat="42.21175794484031" lon="13.823871408908053"><ele>321.7142857142857</ele><time>2026-04-27T08:19:17.999Z</time></trkpt><trkpt lat="42.21173371738617" lon="13.8237815699762"><ele>320.57142857142856</ele><time>2026-04-27T08:19:18.999Z</time></trkpt><trkpt lat="42.211714031019895" lon="13.823685731873367"><ele>319.42857142857144</ele><time>2026-04-27T08:19:19.999Z</time></trkpt><trkpt lat="42.21169793353906" lon="13.823591078499234"><ele>318.2857142857143</ele><time>2026-04-27T08:19:20.999Z</time></trkpt><trkpt lat="42.21168443899123" lon="13.823493102822187"><ele>317.14285714285717</ele><time>2026-04-27T08:19:21.999Z</time></trkpt><trkpt lat="42.211661814759715" lon="13.823394849864629"><ele>316.0</ele><time>2026-04-27T08:19:22.999Z</time></trkpt><trkpt lat="42.2116434675577" lon="13.82329976148112"><ele>315.66666666666663</ele><time>2026-04-27T08:19:23.999Z</time></trkpt><trkpt lat="42.21162658716512" lon="13.82320004440249"><ele>315.3333333333333</ele><time>2026-04-27T08:19:24.999Z</time></trkpt><trkpt lat="42.21160418943858" lon="13.823054361985971"><ele>315.0</ele><time>2026-04-27T08:19:26.999Z</time></trkpt><trkpt lat="42.211591133800326" lon="13.822954044600696"><ele>314.6666666666667</ele><time>2026-04-27T08:19:28.999Z</time></trkpt><trkpt lat="42.21159571897401" lon="13.822834898337607"><ele>314.33333333333337</ele><time>2026-04-27T08:19:36.999Z</time></trkpt><trkpt lat="42.21166579526502" lon="13.822815292225151"><ele>314.0</ele><time>2026-04-27T08:19:38.999Z</time></trkpt><trkpt lat="42.211737814991096" lon="13.822791869127057"><ele>314.0</ele><time>2026-04-27T08:19:39.999Z</time></trkpt><trkpt lat="42.21180566375981" lon="13.82276843661634"><ele>314.0</ele><time>2026-04-27T08:19:40.999Z</time></trkpt><trkpt lat="42.211876437354" lon="13.822744805398493"><ele>314.0</ele><time>2026-04-27T08:19:41.999Z</time></trkpt><trkpt lat="42.21195388985424" lon="13.822718944103404"><ele>314.0</ele><time>2026-04-27T08:19:42.999Z</time></trkpt><trkpt lat="42.212030230825306" lon="13.822693707861236"><ele>314.0</ele><time>2026-04-27T08:19:43.999Z</time></trkpt><trkpt lat="42.21210556703224" lon="13.822669225117563"><ele>314.0</ele><time>2026-04-27T08:19:44.999Z</time></trkpt><trkpt lat="42.21218608216682" lon="13.822643059325529"><ele>314.2</ele><time>2026-04-27T08:19:45.999Z</time></trkpt><trkpt lat="42.212276486583164" lon="13.822614411745203"><ele>314.4</ele><time>2026-04-27T08:19:46.999Z</time></trkpt><trkpt lat="42.21238065118478" lon="13.822581546830765"><ele>314.6</ele><time>2026-04-27T08:19:47.999Z</time></trkpt><trkpt lat="42.21247401914687" lon="13.822552367664287"><ele>314.8</ele><time>2026-04-27T08:19:48.999Z</time></trkpt><trkpt lat="42.212583110456734" lon="13.822517198609727"><ele>315.0</ele><time>2026-04-27T08:19:49.999Z</time></trkpt><trkpt lat="42.2126885254525" lon="13.822481749979763"><ele>315.0</ele><time>2026-04-27T08:19:50.999Z</time></trkpt><trkpt lat="42.21279091640882" lon="13.822447318261874"><ele>315.0</ele><time>2026-04-27T08:19:51.999Z</time></trkpt><trkpt lat="42.21288705226928" lon="13.822393522583242"><ele>315.0</ele><time>2026-04-27T08:19:52.999Z</time></trkpt><trkpt lat="42.212985211046345" lon="13.822373163459394"><ele>315.0</ele><time>2026-04-27T08:19:53.999Z</time></trkpt><trkpt lat="42.213082187115305" lon="13.822344068357497"><ele>315.0</ele><time>2026-04-27T08:19:54.999Z</time></trkpt><trkpt lat="42.213175651063985" lon="13.82230310846907"><ele>315.3333333333333</ele><time>2026-04-27T08:19:55.999Z</time></trkpt><trkpt lat="42.21327522548808" lon="13.822291369496188"><ele>315.6666666666667</ele><time>2026-04-27T08:19:56.999Z</time></trkpt><trkpt lat="42.213355725411" lon="13.822243379330644"><ele>316.0</ele><time>2026-04-27T08:19:57.999Z</time></trkpt><trkpt lat="42.213437191609664" lon="13.82223909223204"><ele>316.33333333333337</ele><time>2026-04-27T08:19:58.999Z</time></trkpt><trkpt lat="42.21352158130361" lon="13.82221240498893"><ele>316.6666666666667</ele><time>2026-04-27T08:19:59.999Z</time></trkpt><trkpt lat="42.21361239592261" lon="13.822185008230823"><ele>317.0</ele><time>2026-04-27T08:20:00.999Z</time></trkpt><trkpt lat="42.21368691758247" lon="13.822162526694022"><ele>317.0</ele><time>2026-04-27T08:20:01.999Z</time></trkpt><trkpt lat="42.213797639705625" lon="13.82212912427723"><ele>317.0</ele><time>2026-04-27T08:20:03.999Z</time></trkpt><trkpt lat="42.2138781261477" lon="13.822104332789742"><ele>317.0</ele><time>2026-04-27T08:20:05.999Z</time></trkpt><trkpt lat="42.213944745578424" lon="13.822124880503571"><ele>317.0</ele><time>2026-04-27T08:20:07.999Z</time></trkpt><trkpt lat="42.21396476913274" lon="13.822344372411258"><ele>317.0</ele><time>2026-04-27T08:20:10.999Z</time></trkpt><trkpt lat="42.214097064368104" lon="13.822398931253417"><ele>317.0</ele><time>2026-04-27T08:20:11.999Z</time></trkpt><trkpt lat="42.2141447121567" lon="13.822488862354477"><ele>317.0</ele><time>2026-04-27T08:20:12.999Z</time></trkpt><trkpt lat="42.214213704417546" lon="13.822577031990642"><ele>317.0</ele><time>2026-04-27T08:20:13.999Z</time></trkpt><trkpt lat="42.21427241740985" lon="13.822665781862673"><ele>317.0</ele><time>2026-04-27T08:20:14.999Z</time></trkpt><trkpt lat="42.214339721676126" lon="13.822728339803266"><ele>317.0</ele><time>2026-04-27T08:20:15.999Z</time></trkpt><trkpt lat="42.21443580855136" lon="13.822806736903964"><ele>317.0</ele><time>2026-04-27T08:20:17.999Z</time></trkpt><trkpt lat="42.21447939782479" lon="13.822892583885546"><ele>317.0</ele><time>2026-04-27T08:20:31.999Z</time></trkpt><trkpt lat="42.214509940978196" lon="13.822811887122961"><ele>317.0</ele><time>2026-04-27T08:20:35.999Z</time></trkpt><trkpt lat="42.21455826197818" lon="13.822709997281974"><ele>317.0</ele><time>2026-04-27T08:20:36.999Z</time></trkpt><trkpt lat="42.214431069516316" lon="13.822636723967028"><ele>317.0</ele><time>2026-04-27T08:20:37.999Z</time></trkpt><trkpt lat="42.214376366576175" lon="13.822580078897355"><ele>317.0</ele><time>2026-04-27T08:20:38.999Z</time></trkpt><trkpt lat="42.21427060901345" lon="13.822612530726458"><ele>317.0</ele><time>2026-04-27T08:20:39.999Z</time></trkpt><trkpt lat="42.21418153648827" lon="13.82250466911333"><ele>317.0</ele><time>2026-04-27T08:20:41.999Z</time></trkpt><trkpt lat="42.21413707547823" lon="13.822429275917385"><ele>317.0</ele><time>2026-04-27T08:20:42.999Z</time></trkpt><trkpt lat="42.21409853711761" lon="13.822354190745745"><ele>317.0</ele><time>2026-04-27T08:20:43.999Z</time></trkpt><trkpt lat="42.214064566542824" lon="13.82228060369205"><ele>317.0</ele><time>2026-04-27T08:20:44.999Z</time></trkpt><trkpt lat="42.21404049980048" lon="13.822197404555153"><ele>317.0</ele><time>2026-04-27T08:20:45.999Z</time></trkpt><trkpt lat="42.21404211148557" lon="13.822087998709623"><ele>317.0</ele><time>2026-04-27T08:20:47.999Z</time></trkpt><trkpt lat="42.21412909887331" lon="13.821969862292082"><ele>317.0</ele><time>2026-04-27T08:20:50.999Z</time></trkpt><trkpt lat="42.2142369809289" lon="13.821849605404788"><ele>317.0</ele><time>2026-04-27T08:20:52.999Z</time></trkpt><trkpt lat="42.21430681278502" lon="13.821757358441584"><ele>317.0</ele><time>2026-04-27T08:20:53.999Z</time></trkpt><trkpt lat="42.214380048079185" lon="13.821680751632016"><ele>317.4</ele><time>2026-04-27T08:20:54.999Z</time></trkpt><trkpt lat="42.21446079285634" lon="13.821588691726337"><ele>317.79999999999995</ele><time>2026-04-27T08:20:55.999Z</time></trkpt><trkpt lat="42.2145333547752" lon="13.821483976812274"><ele>318.2</ele><time>2026-04-27T08:20:56.999Z</time></trkpt><trkpt lat="42.214598584687536" lon="13.821385056873948"><ele>318.59999999999997</ele><time>2026-04-27T08:20:57.999Z</time></trkpt><trkpt lat="42.214674350473466" lon="13.821270433079876"><ele>319.0</ele><time>2026-04-27T08:20:58.999Z</time></trkpt><trkpt lat="42.214747532069936" lon="13.821164182329436"><ele>319.0</ele><time>2026-04-27T08:20:59.999Z</time></trkpt><trkpt lat="42.21482127230428" lon="13.821046477632455"><ele>319.0</ele><time>2026-04-27T08:21:00.999Z</time></trkpt><trkpt lat="42.214892860659894" lon="13.820926559595096"><ele>319.0</ele><time>2026-04-27T08:21:01.999Z</time></trkpt><trkpt lat="42.21497103137773" lon="13.820807253808685"><ele>319.0</ele><time>2026-04-27T08:21:02.999Z</time></trkpt><trkpt lat="42.21505073016611" lon="13.820686265891926"><ele>319.0</ele><time>2026-04-27T08:21:03.999Z</time></trkpt><trkpt lat="42.21513848331583" lon="13.820564031631633"><ele>319.0</ele><time>2026-04-27T08:21:04.999Z</time></trkpt><trkpt lat="42.21522084334907" lon="13.820442104995802"><ele>319.0</ele><time>2026-04-27T08:21:05.999Z</time></trkpt><trkpt lat="42.215303114057846" lon="13.820320610427668"><ele>319.0</ele><time>2026-04-27T08:21:06.999Z</time></trkpt><trkpt lat="42.2153874360769" lon="13.82019122763456"><ele>319.0</ele><time>2026-04-27T08:21:07.999Z</time></trkpt><trkpt lat="42.21547699521295" lon="13.820061793647026"><ele>319.0</ele><time>2026-04-27T08:21:08.999Z</time></trkpt><trkpt lat="42.215567062492376" lon="13.819930773996461"><ele>319.0</ele><time>2026-04-27T08:21:09.999Z</time></trkpt><trkpt lat="42.21565426343327" lon="13.819797670456634"><ele>319.0</ele><time>2026-04-27T08:21:10.999Z</time></trkpt><trkpt lat="42.21574063220603" lon="13.819664713673838"><ele>319.0</ele><time>2026-04-27T08:21:11.999Z</time></trkpt><trkpt lat="42.21582872347703" lon="13.81953531138119"><ele>319.0</ele><time>2026-04-27T08:21:12.999Z</time></trkpt><trkpt lat="42.215914044862835" lon="13.819408966184886"><ele>319.0</ele><time>2026-04-27T08:21:13.999Z</time></trkpt><trkpt lat="42.215991561702964" lon="13.819288140899818"><ele>319.0</ele><time>2026-04-27T08:21:14.999Z</time></trkpt><trkpt lat="42.216068975795935" lon="13.819171712832084"><ele>319.2</ele><time>2026-04-27T08:21:15.999Z</time></trkpt><trkpt lat="42.21614360736547" lon="13.819064099531163"><ele>319.4</ele><time>2026-04-27T08:21:16.999Z</time></trkpt><trkpt lat="42.21620325114937" lon="13.818959302447308"><ele>319.6</ele><time>2026-04-27T08:21:17.999Z</time></trkpt><trkpt lat="42.216242796850416" lon="13.818845379635846"><ele>319.8</ele><time>2026-04-27T08:21:18.999Z</time></trkpt><trkpt lat="42.216243358558415" lon="13.818713437806103"><ele>320.0</ele><time>2026-04-27T08:21:19.999Z</time></trkpt><trkpt lat="42.21621722272106" lon="13.818589423925273"><ele>320.5</ele><time>2026-04-27T08:21:20.999Z</time></trkpt><trkpt lat="42.21619594786233" lon="13.818471799831558"><ele>321.0</ele><time>2026-04-27T08:21:21.999Z</time></trkpt><trkpt lat="42.216205677623606" lon="13.818383341008085"><ele>321.5</ele><time>2026-04-27T08:21:22.999Z</time></trkpt><trkpt lat="42.21624002123063" lon="13.818293532678046"><ele>322.0</ele><time>2026-04-27T08:21:23.999Z</time></trkpt><trkpt lat="42.21625827514434" lon="13.81818816717827"><ele>322.5</ele><time>2026-04-27T08:21:24.999Z</time></trkpt><trkpt lat="42.216373637576766" lon="13.818122765804251"><ele>323.0</ele><time>2026-04-27T08:21:25.999Z</time></trkpt><trkpt lat="42.216465633220984" lon="13.818035067590845"><ele>321.75</ele><time>2026-04-27T08:21:26.999Z</time></trkpt><trkpt lat="42.21656252622515" lon="13.817945840816183"><ele>320.5</ele><time>2026-04-27T08:21:27.999Z</time></trkpt><trkpt lat="42.216664776736835" lon="13.817853737727894"><ele>319.25</ele><time>2026-04-27T08:21:28.999Z</time></trkpt><trkpt lat="42.21677203996883" lon="13.81776438007453"><ele>318.0</ele><time>2026-04-27T08:21:29.999Z</time></trkpt><trkpt lat="42.216885649453836" lon="13.817683384992582"><ele>318.25</ele><time>2026-04-27T08:21:30.999Z</time></trkpt><trkpt lat="42.21700488590882" lon="13.817608810334116"><ele>318.5</ele><time>2026-04-27T08:21:31.999Z</time></trkpt><trkpt lat="42.2171282721429" lon="13.81754360869989"><ele>318.75</ele><time>2026-04-27T08:21:32.999Z</time></trkpt><trkpt lat="42.217254611402936" lon="13.817484037223158"><ele>319.0</ele><time>2026-04-27T08:21:33.999Z</time></trkpt><trkpt lat="42.21738459543513" lon="13.81743385087289"><ele>319.0</ele><time>2026-04-27T08:21:34.999Z</time></trkpt><trkpt lat="42.217521476734895" lon="13.817391992028424"><ele>319.0</ele><time>2026-04-27T08:21:35.999Z</time></trkpt><trkpt lat="42.21765887342016" lon="13.817360922572824"><ele>319.0</ele><time>2026-04-27T08:21:36.999Z</time></trkpt><trkpt lat="42.21779618742766" lon="13.817337366870818"><ele>319.0</ele><time>2026-04-27T08:21:37.999Z</time></trkpt><trkpt lat="42.21794105525646" lon="13.817312771596802"><ele>319.0</ele><time>2026-04-27T08:21:38.999Z</time></trkpt><trkpt lat="42.218086956723894" lon="13.817280336686006"><ele>319.0</ele><time>2026-04-27T08:21:39.999Z</time></trkpt><trkpt lat="42.2182377596967" lon="13.817248556882028"><ele>319.0</ele><time>2026-04-27T08:21:40.999Z</time></trkpt><trkpt lat="42.218390129716944" lon="13.817217331005082"><ele>318.66666666666663</ele><time>2026-04-27T08:21:41.999Z</time></trkpt><trkpt lat="42.218539907225804" lon="13.817191065506428"><ele>318.3333333333333</ele><time>2026-04-27T08:21:42.999Z</time></trkpt><trkpt lat="42.21869888888543" lon="13.817161123039133"><ele>318.0</ele><time>2026-04-27T08:21:43.999Z</time></trkpt><trkpt lat="42.218857926713" lon="13.817137786307246"><ele>318.3333333333333</ele><time>2026-04-27T08:21:44.999Z</time></trkpt><trkpt lat="42.219019912343576" lon="13.817113014686434"><ele>318.66666666666663</ele><time>2026-04-27T08:21:45.999Z</time></trkpt><trkpt lat="42.219177666588315" lon="13.817091309688571"><ele>319.0</ele><time>2026-04-27T08:21:46.999Z</time></trkpt><trkpt lat="42.21932461694042" lon="13.81706552773279"><ele>319.0</ele><time>2026-04-27T08:21:47.999Z</time></trkpt><trkpt lat="42.21946270670044" lon="13.817044526275952"><ele>319.0</ele><time>2026-04-27T08:21:48.999Z</time></trkpt><trkpt lat="42.219600283801206" lon="13.81703515578624"><ele>319.0</ele><time>2026-04-27T08:21:49.999Z</time></trkpt><trkpt lat="42.21973478729936" lon="13.817032563916602"><ele>319.0</ele><time>2026-04-27T08:21:50.999Z</time></trkpt><trkpt lat="42.2198757449994" lon="13.81703633416283"><ele>318.75</ele><time>2026-04-27T08:21:51.999Z</time></trkpt><trkpt lat="42.22001658210816" lon="13.817054156985577"><ele>318.5</ele><time>2026-04-27T08:21:52.999Z</time></trkpt><trkpt lat="42.2201646230881" lon="13.817084651043393"><ele>318.25</ele><time>2026-04-27T08:21:53.999Z</time></trkpt><trkpt lat="42.22031061103491" lon="13.817122636196615"><ele>318.0</ele><time>2026-04-27T08:21:54.999Z</time></trkpt><trkpt lat="42.22046572146216" lon="13.81716857258698"><ele>318.0</ele><time>2026-04-27T08:21:55.999Z</time></trkpt><trkpt lat="42.22061627623615" lon="13.81721140835315"><ele>318.0</ele><time>2026-04-27T08:21:56.999Z</time></trkpt><trkpt lat="42.22076845252062" lon="13.817253937050392"><ele>318.0</ele><time>2026-04-27T08:21:57.999Z</time></trkpt><trkpt lat="42.22092356279969" lon="13.817293974125704"><ele>317.6666666666667</ele><time>2026-04-27T08:21:58.999Z</time></trkpt><trkpt lat="42.22108217983456" lon="13.817332811281336"><ele>317.33333333333337</ele><time>2026-04-27T08:21:59.999Z</time></trkpt><trkpt lat="42.221236167175874" lon="13.817378241698679"><ele>317.0</ele><time>2026-04-27T08:22:00.999Z</time></trkpt><trkpt lat="42.22139379466827" lon="13.817418909307648"><ele>317.0</ele><time>2026-04-27T08:22:01.999Z</time></trkpt><trkpt lat="42.2215517533735" lon="13.817452433064322"><ele>317.0</ele><time>2026-04-27T08:22:02.999Z</time></trkpt><trkpt lat="42.22170490238386" lon="13.81747001107143"><ele>317.0</ele><time>2026-04-27T08:22:03.999Z</time></trkpt><trkpt lat="42.221868579751096" lon="13.817464693346762"><ele>317.0</ele><time>2026-04-27T08:22:04.999Z</time></trkpt><trkpt lat="42.222029743955936" lon="13.817452568421324"><ele>317.0</ele><time>2026-04-27T08:22:05.999Z</time></trkpt><trkpt lat="42.22218574425136" lon="13.81743915284269"><ele>317.0</ele><time>2026-04-27T08:22:06.999Z</time></trkpt><trkpt lat="42.22234428328025" lon="13.8174077197354"><ele>318.0</ele><time>2026-04-27T08:22:07.999Z</time></trkpt><trkpt lat="42.222502154496524" lon="13.817357694205551"><ele>319.0</ele><time>2026-04-27T08:22:08.999Z</time></trkpt><trkpt lat="42.22265717672234" lon="13.81729706837311"><ele>320.0</ele><time>2026-04-27T08:22:09.999Z</time></trkpt><trkpt lat="42.222807890984555" lon="13.81722424707109"><ele>320.0</ele><time>2026-04-27T08:22:10.999Z</time></trkpt><trkpt lat="42.222961801732694" lon="13.81713405093415"><ele>320.0</ele><time>2026-04-27T08:22:11.999Z</time></trkpt><trkpt lat="42.22310614257874" lon="13.81704209024309"><ele>320.0</ele><time>2026-04-27T08:22:12.999Z</time></trkpt><trkpt lat="42.223250070199576" lon="13.81693630325758"><ele>320.33333333333337</ele><time>2026-04-27T08:22:13.999Z</time></trkpt><trkpt lat="42.22339066756506" lon="13.816819458883119"><ele>320.6666666666667</ele><time>2026-04-27T08:22:14.999Z</time></trkpt><trkpt lat="42.223526651772175" lon="13.816709250563978"><ele>321.0</ele><time>2026-04-27T08:22:15.999Z</time></trkpt><trkpt lat="42.22366646443894" lon="13.816598226179682"><ele>321.0</ele><time>2026-04-27T08:22:16.999Z</time></trkpt><trkpt lat="42.223803352560154" lon="13.816493236762499"><ele>321.0</ele><time>2026-04-27T08:22:17.999Z</time></trkpt><trkpt lat="42.22394056970053" lon="13.81637092376902"><ele>321.0</ele><time>2026-04-27T08:22:18.999Z</time></trkpt><trkpt lat="42.22407652445846" lon="13.816258666330372"><ele>320.6666666666667</ele><time>2026-04-27T08:22:19.999Z</time></trkpt><trkpt lat="42.224218856584784" lon="13.81613679609088"><ele>320.33333333333337</ele><time>2026-04-27T08:22:20.999Z</time></trkpt><trkpt lat="42.22435815981441" lon="13.816027368254215"><ele>320.0</ele><time>2026-04-27T08:22:21.999Z</time></trkpt><trkpt lat="42.22450353148031" lon="13.81590301019771"><ele>320.0</ele><time>2026-04-27T08:22:22.999Z</time></trkpt><trkpt lat="42.22464850378791" lon="13.815799419070885"><ele>320.0</ele><time>2026-04-27T08:22:23.999Z</time></trkpt><trkpt lat="42.22478972284437" lon="13.815692790869624"><ele>320.0</ele><time>2026-04-27T08:22:24.999Z</time></trkpt><trkpt lat="42.22493243418594" lon="13.815609805048842"><ele>319.0</ele><time>2026-04-27T08:22:25.999Z</time></trkpt><trkpt lat="42.2250887189421" lon="13.815528341704605"><ele>318.0</ele><time>2026-04-27T08:22:26.999Z</time></trkpt><trkpt lat="42.22524138544078" lon="13.815470655018034"><ele>317.0</ele><time>2026-04-27T08:22:27.999Z</time></trkpt><trkpt lat="42.22539834913462" lon="13.81541609803981"><ele>317.0</ele><time>2026-04-27T08:22:28.999Z</time></trkpt><trkpt lat="42.22556346381087" lon="13.815353945220876"><ele>317.0</ele><time>2026-04-27T08:22:29.999Z</time></trkpt><trkpt lat="42.225726979794196" lon="13.815308042665196"><ele>317.0</ele><time>2026-04-27T08:22:30.999Z</time></trkpt><trkpt lat="42.22588810496153" lon="13.815271056676046"><ele>317.0</ele><time>2026-04-27T08:22:31.999Z</time></trkpt><trkpt lat="42.22605246534952" lon="13.815228499014143"><ele>317.0</ele><time>2026-04-27T08:22:32.999Z</time></trkpt><trkpt lat="42.22621287361976" lon="13.8151970888191"><ele>317.0</ele><time>2026-04-27T08:22:33.999Z</time></trkpt><trkpt lat="42.226376716146675" lon="13.815150645701102"><ele>319.0</ele><time>2026-04-27T08:22:34.999Z</time></trkpt><trkpt lat="42.22653918910599" lon="13.815103884590672"><ele>321.0</ele><time>2026-04-27T08:22:35.999Z</time></trkpt><trkpt lat="42.22670010468106" lon="13.81505146525516"><ele>323.0</ele><time>2026-04-27T08:22:36.999Z</time></trkpt><trkpt lat="42.22685987919033" lon="13.81500777495745"><ele>323.0</ele><time>2026-04-27T08:22:37.999Z</time></trkpt><trkpt lat="42.227030412543854" lon="13.814984423344606"><ele>323.0</ele><time>2026-04-27T08:22:38.999Z</time></trkpt><trkpt lat="42.22718753249235" lon="13.81493247602933"><ele>323.0</ele><time>2026-04-27T08:22:39.999Z</time></trkpt><trkpt lat="42.22734932882689" lon="13.814910524127255"><ele>321.6666666666667</ele><time>2026-04-27T08:22:40.999Z</time></trkpt><trkpt lat="42.227517023937125" lon="13.814876149895637"><ele>320.3333333333333</ele><time>2026-04-27T08:22:41.999Z</time></trkpt><trkpt lat="42.22767531815372" lon="13.814863661587736"><ele>319.0</ele><time>2026-04-27T08:22:42.999Z</time></trkpt><trkpt lat="42.227837854764516" lon="13.814855104183394"><ele>319.0</ele><time>2026-04-27T08:22:43.999Z</time></trkpt><trkpt lat="42.22799509184935" lon="13.814845733501778"><ele>319.0</ele><time>2026-04-27T08:22:44.999Z</time></trkpt><trkpt lat="42.22815429281149" lon="13.814819686628613"><ele>319.0</ele><time>2026-04-27T08:22:45.999Z</time></trkpt><trkpt lat="42.22830540906707" lon="13.814803263250024"><ele>319.0</ele><time>2026-04-27T08:22:46.999Z</time></trkpt><trkpt lat="42.22845176927457" lon="13.81479041564549"><ele>319.0</ele><time>2026-04-27T08:22:47.999Z</time></trkpt><trkpt lat="42.22858519567694" lon="13.814771248875374"><ele>319.0</ele><time>2026-04-27T08:22:48.999Z</time></trkpt><trkpt lat="42.22867830691708" lon="13.814770197721124"><ele>319.0</ele><time>2026-04-27T08:22:49.999Z</time></trkpt><trkpt lat="42.22874498292784" lon="13.81478533004984"><ele>319.0</ele><time>2026-04-27T08:22:51.999Z</time></trkpt><trkpt lat="42.22881422253275" lon="13.81487089842763"><ele>319.0</ele><time>2026-04-27T08:22:56.998Z</time></trkpt><trkpt lat="42.228887148482066" lon="13.814905713389352"><ele>319.0</ele><time>2026-04-27T08:22:57.998Z</time></trkpt><trkpt lat="42.228969935236876" lon="13.814935064069447"><ele>319.0</ele><time>2026-04-27T08:22:58.998Z</time></trkpt><trkpt lat="42.22905309348322" lon="13.81496892021602"><ele>319.0</ele><time>2026-04-27T08:22:59.998Z</time></trkpt><trkpt lat="42.2291539847038" lon="13.815056779157748"><ele>319.0</ele><time>2026-04-27T08:23:00.999Z</time></trkpt><trkpt lat="42.22925918759947" lon="13.815106069268918"><ele>318.8</ele><time>2026-04-27T08:23:01.999Z</time></trkpt><trkpt lat="42.22934054977234" lon="13.815144979313606"><ele>318.59999999999997</ele><time>2026-04-27T08:23:02.999Z</time></trkpt><trkpt lat="42.22941595688035" lon="13.81516335633842"><ele>318.4</ele><time>2026-04-27T08:23:03.999Z</time></trkpt><trkpt lat="42.22948409963598" lon="13.815176095939334"><ele>318.2</ele><time>2026-04-27T08:23:04.999Z</time></trkpt><trkpt lat="42.22956753716084" lon="13.815201442461724"><ele>318.0</ele><time>2026-04-27T08:23:06.999Z</time></trkpt><trkpt lat="42.229600555971764" lon="13.815391999465806"><ele>318.0</ele><time>2026-04-27T08:23:07.999Z</time></trkpt><trkpt lat="42.22966277443815" lon="13.815489830961353"><ele>318.0</ele><time>2026-04-27T08:23:08.999Z</time></trkpt><trkpt lat="42.22974197174627" lon="13.815584827114634"><ele>318.0</ele><time>2026-04-27T08:23:09.999Z</time></trkpt><trkpt lat="42.229799746461296" lon="13.81569808810642"><ele>318.0</ele><time>2026-04-27T08:23:10.999Z</time></trkpt><trkpt lat="42.229859814857306" lon="13.81578312838639"><ele>318.0</ele><time>2026-04-27T08:23:11.999Z</time></trkpt><trkpt lat="42.229907153666744" lon="13.815873224906616"><ele>317.6</ele><time>2026-04-27T08:23:12.999Z</time></trkpt><trkpt lat="42.229950932596694" lon="13.815989940031155"><ele>317.20000000000005</ele><time>2026-04-27T08:23:13.999Z</time></trkpt><trkpt lat="42.22996362805857" lon="13.816107536256611"><ele>316.8</ele><time>2026-04-27T08:23:14.999Z</time></trkpt><trkpt lat="42.22992166436992" lon="13.816223074168638"><ele>316.40000000000003</ele><time>2026-04-27T08:23:15.999Z</time></trkpt><trkpt lat="42.229898200188416" lon="13.816358451869634"><ele>316.0</ele><time>2026-04-27T08:23:16.999Z</time></trkpt><trkpt lat="42.2298752172032" lon="13.816497733159071"><ele>316.0</ele><time>2026-04-27T08:23:17.999Z</time></trkpt><trkpt lat="42.22987661250327" lon="13.816640024633607"><ele>316.0</ele><time>2026-04-27T08:23:18.999Z</time></trkpt><trkpt lat="42.22989991778137" lon="13.816768540048253"><ele>316.0</ele><time>2026-04-27T08:23:19.999Z</time></trkpt><trkpt lat="42.22991924911663" lon="13.816898053790627"><ele>316.0</ele><time>2026-04-27T08:23:20.999Z</time></trkpt><trkpt lat="42.22993796034733" lon="13.817029696895139"><ele>316.0</ele><time>2026-04-27T08:23:21.999Z</time></trkpt><trkpt lat="42.22995657989928" lon="13.817181110440405"><ele>315.75</ele><time>2026-04-27T08:23:22.999Z</time></trkpt><trkpt lat="42.2299717982492" lon="13.817352379735599"><ele>315.5</ele><time>2026-04-27T08:23:23.999Z</time></trkpt><trkpt lat="42.22998276808757" lon="13.817490800964237"><ele>315.25</ele><time>2026-04-27T08:23:24.999Z</time></trkpt><trkpt lat="42.22999542230724" lon="13.817650476198923"><ele>315.0</ele><time>2026-04-27T08:23:25.999Z</time></trkpt><trkpt lat="42.230013199107084" lon="13.81781742742037"><ele>315.0</ele><time>2026-04-27T08:23:26.999Z</time></trkpt><trkpt lat="42.23003273121148" lon="13.817996495220697"><ele>315.0</ele><time>2026-04-27T08:23:27.999Z</time></trkpt><trkpt lat="42.23006006281916" lon="13.818184296060243"><ele>315.0</ele><time>2026-04-27T08:23:28.999Z</time></trkpt><trkpt lat="42.23007642783323" lon="13.81836663353938"><ele>315.0</ele><time>2026-04-27T08:23:29.999Z</time></trkpt><trkpt lat="42.23007344463772" lon="13.818563409118816"><ele>315.0</ele><time>2026-04-27T08:23:30.999Z</time></trkpt><trkpt lat="42.2300718458286" lon="13.818765801132404"><ele>315.0</ele><time>2026-04-27T08:23:31.999Z</time></trkpt><trkpt lat="42.23007243284012" lon="13.818943645413169"><ele>315.0</ele><time>2026-04-27T08:23:32.999Z</time></trkpt><trkpt lat="42.23007742083733" lon="13.819108947757842"><ele>315.0</ele><time>2026-04-27T08:23:33.999Z</time></trkpt><trkpt lat="42.23008607354035" lon="13.819258986728139"><ele>315.6</ele><time>2026-04-27T08:23:34.999Z</time></trkpt><trkpt lat="42.23011145338843" lon="13.819389569536423"><ele>316.2</ele><time>2026-04-27T08:23:35.999Z</time></trkpt><trkpt lat="42.23011775306366" lon="13.819500114772726"><ele>316.8</ele><time>2026-04-27T08:23:36.999Z</time></trkpt><trkpt lat="42.23011496249902" lon="13.819635146168872"><ele>317.4</ele><time>2026-04-27T08:23:38.999Z</time></trkpt><trkpt lat="42.23027185955246" lon="13.819663888041593"><ele>318.0</ele><time>2026-04-27T08:23:41.999Z</time></trkpt><trkpt lat="42.230365899904626" lon="13.819641957818408"><ele>318.0</ele><time>2026-04-27T08:23:42.999Z</time></trkpt><trkpt lat="42.2304555552552" lon="13.819615675105284"><ele>318.0</ele><time>2026-04-27T08:23:43.999Z</time></trkpt><trkpt lat="42.230559378574306" lon="13.819602155537817"><ele>318.0</ele><time>2026-04-27T08:23:44.999Z</time></trkpt><trkpt lat="42.230656151741016" lon="13.819592541450616"><ele>318.0</ele><time>2026-04-27T08:23:45.999Z</time></trkpt><trkpt lat="42.23075604102647" lon="13.819584646733558"><ele>318.0</ele><time>2026-04-27T08:23:46.999Z</time></trkpt><trkpt lat="42.230865565816586" lon="13.81957373887474"><ele>319.75</ele><time>2026-04-27T08:23:47.999Z</time></trkpt><trkpt lat="42.23098525821978" lon="13.819547453238593"><ele>321.5</ele><time>2026-04-27T08:23:48.999Z</time></trkpt><trkpt lat="42.231110039035386" lon="13.819492610047034"><ele>323.25</ele><time>2026-04-27T08:23:49.999Z</time></trkpt><trkpt lat="42.23122923942007" lon="13.819416164799653"><ele>325.0</ele><time>2026-04-27T08:23:50.999Z</time></trkpt><trkpt lat="42.23134292755669" lon="13.819334699414044"><ele>323.75</ele><time>2026-04-27T08:23:51.999Z</time></trkpt><trkpt lat="42.23147116842071" lon="13.81925671670803"><ele>322.5</ele><time>2026-04-27T08:23:52.999Z</time></trkpt><trkpt lat="42.23161059226335" lon="13.819180964909915"><ele>321.25</ele><time>2026-04-27T08:23:53.999Z</time></trkpt><trkpt lat="42.23176089831691" lon="13.819131690909343"><ele>320.0</ele><time>2026-04-27T08:23:54.999Z</time></trkpt><trkpt lat="42.23192175463786" lon="13.819100089051497"><ele>320.0</ele><time>2026-04-27T08:23:55.999Z</time></trkpt><trkpt lat="42.23208625600623" lon="13.819076248451147"><ele>320.0</ele><time>2026-04-27T08:23:56.999Z</time></trkpt><trkpt lat="42.23225439858062" lon="13.819064510762118"><ele>320.0</ele><time>2026-04-27T08:23:57.999Z</time></trkpt><trkpt lat="42.23242722816203" lon="13.81905676802449"><ele>320.33333333333337</ele><time>2026-04-27T08:23:58.999Z</time></trkpt><trkpt lat="42.23260007759747" lon="13.819046406742164"><ele>320.6666666666667</ele><time>2026-04-27T08:23:59.999Z</time></trkpt><trkpt lat="42.23276802055911" lon="13.81903376325938"><ele>321.0</ele><time>2026-04-27T08:24:00.999Z</time></trkpt><trkpt lat="42.232930633014725" lon="13.819000431861962"><ele>321.0</ele><time>2026-04-27T08:24:01.999Z</time></trkpt><trkpt lat="42.23308362475253" lon="13.818938937549776"><ele>321.0</ele><time>2026-04-27T08:24:02.999Z</time></trkpt><trkpt lat="42.233248077238976" lon="13.818859984311429"><ele>321.0</ele><time>2026-04-27T08:24:03.999Z</time></trkpt><trkpt lat="42.23339616771125" lon="13.818790630789046"><ele>324.3333333333333</ele><time>2026-04-27T08:24:04.999Z</time></trkpt><trkpt lat="42.2335475557865" lon="13.818713480349217"><ele>327.66666666666663</ele><time>2026-04-27T08:24:05.999Z</time></trkpt><trkpt lat="42.233717722694536" lon="13.81861674836257"><ele>331.0</ele><time>2026-04-27T08:24:06.999Z</time></trkpt><trkpt lat="42.23388006409161" lon="13.81851652828227"><ele>329.3333333333333</ele><time>2026-04-27T08:24:07.999Z</time></trkpt><trkpt lat="42.234046746002285" lon="13.818411497545776"><ele>327.6666666666667</ele><time>2026-04-27T08:24:08.999Z</time></trkpt><trkpt lat="42.2342084692584" lon="13.81829931387631"><ele>326.0</ele><time>2026-04-27T08:24:09.999Z</time></trkpt><trkpt lat="42.23436584073194" lon="13.818173717638478"><ele>326.0</ele><time>2026-04-27T08:24:10.999Z</time></trkpt><trkpt lat="42.234522359755005" lon="13.818017891234438"><ele>326.0</ele><time>2026-04-27T08:24:11.999Z</time></trkpt><trkpt lat="42.23466374369963" lon="13.817849567087366"><ele>326.0</ele><time>2026-04-27T08:24:12.999Z</time></trkpt><trkpt lat="42.23479949395541" lon="13.81765900873673"><ele>324.33333333333337</ele><time>2026-04-27T08:24:13.999Z</time></trkpt><trkpt lat="42.23493138096241" lon="13.81745157324552"><ele>322.6666666666667</ele><time>2026-04-27T08:24:14.999Z</time></trkpt><trkpt lat="42.235045780527216" lon="13.81723115183491"><ele>321.0</ele><time>2026-04-27T08:24:15.999Z</time></trkpt><trkpt lat="42.2351470650094" lon="13.817009241738283"><ele>321.0</ele><time>2026-04-27T08:24:16.999Z</time></trkpt><trkpt lat="42.23522903449623" lon="13.816822773679805"><ele>321.0</ele><time>2026-04-27T08:24:17.999Z</time></trkpt><trkpt lat="42.235300111466756" lon="13.816660131362825"><ele>321.0</ele><time>2026-04-27T08:24:18.999Z</time></trkpt><trkpt lat="42.23536907306504" lon="13.816518089933355"><ele>321.0</ele><time>2026-04-27T08:24:19.999Z</time></trkpt><trkpt lat="42.235460820774534" lon="13.816411480142323"><ele>321.25</ele><time>2026-04-27T08:24:20.999Z</time></trkpt><trkpt lat="42.23555249893703" lon="13.816301791316082"><ele>321.5</ele><time>2026-04-27T08:24:21.999Z</time></trkpt><trkpt lat="42.23568238543195" lon="13.816257913068542"><ele>321.75</ele><time>2026-04-27T08:24:22.999Z</time></trkpt><trkpt lat="42.23581242061324" lon="13.81622214598574"><ele>322.0</ele><time>2026-04-27T08:24:23.999Z</time></trkpt><trkpt lat="42.235948285307984" lon="13.816241390196396"><ele>322.0</ele><time>2026-04-27T08:24:24.999Z</time></trkpt><trkpt lat="42.23607842708804" lon="13.816297173916366"><ele>322.0</ele><time>2026-04-27T08:24:25.999Z</time></trkpt><trkpt lat="42.23620399874866" lon="13.81642178249299"><ele>322.0</ele><time>2026-04-27T08:24:26.999Z</time></trkpt><trkpt lat="42.236342127223764" lon="13.816536589865835"><ele>321.3333333333333</ele><time>2026-04-27T08:24:27.999Z</time></trkpt><trkpt lat="42.23649785095727" lon="13.816627487411163"><ele>320.6666666666667</ele><time>2026-04-27T08:24:28.999Z</time></trkpt><trkpt lat="42.2366609563247" lon="13.816719321915201"><ele>320.0</ele><time>2026-04-27T08:24:29.999Z</time></trkpt><trkpt lat="42.23682218576009" lon="13.816759527897705"><ele>320.0</ele><time>2026-04-27T08:24:30.999Z</time></trkpt><trkpt lat="42.23697343163048" lon="13.81676081872717"><ele>320.0</ele><time>2026-04-27T08:24:31.999Z</time></trkpt><trkpt lat="42.23712289767182" lon="13.816741608978862"><ele>320.0</ele><time>2026-04-27T08:24:32.999Z</time></trkpt><trkpt lat="42.237288470235306" lon="13.816700273096568"><ele>319.6666666666667</ele><time>2026-04-27T08:24:33.999Z</time></trkpt><trkpt lat="42.23744069993471" lon="13.81662881161149"><ele>319.3333333333333</ele><time>2026-04-27T08:24:34.999Z</time></trkpt><trkpt lat="42.237603646819736" lon="13.816536495512679"><ele>319.0</ele><time>2026-04-27T08:24:35.999Z</time></trkpt><trkpt lat="42.23777019310012" lon="13.816443352603308"><ele>319.0</ele><time>2026-04-27T08:24:36.999Z</time></trkpt><trkpt lat="42.23793542972397" lon="13.816365324326638"><ele>319.0</ele><time>2026-04-27T08:24:37.999Z</time></trkpt><trkpt lat="42.238100803511756" lon="13.816289508008817"><ele>319.0</ele><time>2026-04-27T08:24:38.999Z</time></trkpt><trkpt lat="42.23826400014248" lon="13.816215486541891"><ele>319.0</ele><time>2026-04-27T08:24:39.999Z</time></trkpt><trkpt lat="42.23839918665497" lon="13.8161523826001"><ele>319.0</ele><time>2026-04-27T08:24:40.999Z</time></trkpt><trkpt lat="42.23852350432556" lon="13.816096560901947"><ele>319.0</ele><time>2026-04-27T08:24:41.999Z</time></trkpt><trkpt lat="42.238645127243544" lon="13.816100668266214"><ele>319.0</ele><time>2026-04-27T08:24:42.999Z</time></trkpt><trkpt lat="42.238778897329304" lon="13.816116200380149"><ele>319.0</ele><time>2026-04-27T08:24:43.999Z</time></trkpt><trkpt lat="42.23891257478462" lon="13.816143890236928"><ele>319.0</ele><time>2026-04-27T08:24:44.999Z</time></trkpt><trkpt lat="42.23903911501998" lon="13.816158347319453"><ele>319.0</ele><time>2026-04-27T08:24:45.999Z</time></trkpt><trkpt lat="42.23914121996659" lon="13.816173038008886"><ele>319.0</ele><time>2026-04-27T08:24:46.999Z</time></trkpt><trkpt lat="42.23922505440725" lon="13.816182915457022"><ele>319.0</ele><time>2026-04-27T08:24:47.999Z</time></trkpt><trkpt lat="42.23929441627638" lon="13.816190938334753"><ele>319.66666666666663</ele><time>2026-04-27T08:24:48.999Z</time></trkpt><trkpt lat="42.2394013157207" lon="13.816234894827668"><ele>320.3333333333333</ele><time>2026-04-27T08:24:50.999Z</time></trkpt><trkpt lat="42.23939873726641" lon="13.816386851486646"><ele>321.0</ele><time>2026-04-27T08:24:51.999Z</time></trkpt><trkpt lat="42.239444410455874" lon="13.816466204437722"><ele>321.6666666666667</ele><time>2026-04-27T08:24:52.999Z</time></trkpt><trkpt lat="42.23949343320376" lon="13.816526695389207"><ele>322.33333333333337</ele><time>2026-04-27T08:24:53.999Z</time></trkpt><trkpt lat="42.23956601859857" lon="13.816550722257261"><ele>323.0</ele><time>2026-04-27T08:24:54.999Z</time></trkpt><trkpt lat="42.23964633547638" lon="13.816505099349909"><ele>323.0</ele><time>2026-04-27T08:24:55.999Z</time></trkpt><trkpt lat="42.2397498716697" lon="13.816486877193219"><ele>323.0</ele><time>2026-04-27T08:24:56.999Z</time></trkpt><trkpt lat="42.239861994149855" lon="13.816448750579923"><ele>323.0</ele><time>2026-04-27T08:24:57.999Z</time></trkpt><trkpt lat="42.239976765472406" lon="13.816387611521895"><ele>323.0</ele><time>2026-04-27T08:24:58.999Z</time></trkpt><trkpt lat="42.24010284241123" lon="13.816328605313817"><ele>324.0</ele><time>2026-04-27T08:24:59.999Z</time></trkpt><trkpt lat="42.2402301676535" lon="13.816340305453057"><ele>325.0</ele><time>2026-04-27T08:25:00.999Z</time></trkpt><trkpt lat="42.24037103666025" lon="13.816316733251922"><ele>326.0</ele><time>2026-04-27T08:25:01.999Z</time></trkpt><trkpt lat="42.240516551813855" lon="13.816318940417414"><ele>327.0</ele><time>2026-04-27T08:25:02.999Z</time></trkpt><trkpt lat="42.24066720283631" lon="13.816308819419767"><ele>327.6666666666667</ele><time>2026-04-27T08:25:03.999Z</time></trkpt><trkpt lat="42.24082821428375" lon="13.816301681753169"><ele>328.33333333333337</ele><time>2026-04-27T08:25:04.999Z</time></trkpt><trkpt lat="42.24099102790201" lon="13.816295643929042"><ele>329.0</ele><time>2026-04-27T08:25:05.999Z</time></trkpt><trkpt lat="42.241117015517645" lon="13.816275713803986"><ele>329.0</ele><time>2026-04-27T08:25:06.999Z</time></trkpt><trkpt lat="42.241223110246786" lon="13.816253082105606"><ele>329.0</ele><time>2026-04-27T08:25:07.999Z</time></trkpt><trkpt lat="42.241320150727255" lon="13.816217538667466"><ele>329.0</ele><time>2026-04-27T08:25:08.999Z</time></trkpt><trkpt lat="42.24142114908382" lon="13.816152469755659"><ele>329.0</ele><time>2026-04-27T08:25:09.999Z</time></trkpt><trkpt lat="42.24151939069667" lon="13.81605229870944"><ele>329.0</ele><time>2026-04-27T08:25:10.999Z</time></trkpt><trkpt lat="42.241611726268175" lon="13.815933630474634"><ele>327.4</ele><time>2026-04-27T08:25:11.999Z</time></trkpt><trkpt lat="42.24166675175468" lon="13.815828256882227"><ele>325.79999999999995</ele><time>2026-04-27T08:25:12.999Z</time></trkpt><trkpt lat="42.241682070448746" lon="13.815739729736482"><ele>324.20000000000005</ele><time>2026-04-27T08:25:13.999Z</time></trkpt><trkpt lat="42.24168134850628" lon="13.81562504027983"><ele>322.6</ele><time>2026-04-27T08:25:14.999Z</time></trkpt><trkpt lat="42.24167843743647" lon="13.815485790941988"><ele>321.0</ele><time>2026-04-27T08:25:15.999Z</time></trkpt><trkpt lat="42.24169952645497" lon="13.815327249226906"><ele>321.0</ele><time>2026-04-27T08:25:16.999Z</time></trkpt><trkpt lat="42.241767707883334" lon="13.815199726901643"><ele>321.0</ele><time>2026-04-27T08:25:17.999Z</time></trkpt><trkpt lat="42.24182846337044" lon="13.815093486096915"><ele>321.0</ele><time>2026-04-27T08:25:18.999Z</time></trkpt><trkpt lat="42.2418817314138" lon="13.815007716350982"><ele>321.0</ele><time>2026-04-27T08:25:19.999Z</time></trkpt><trkpt lat="42.24192879348672" lon="13.814930446241132"><ele>321.0</ele><time>2026-04-27T08:25:20.999Z</time></trkpt><trkpt lat="42.241939971151446" lon="13.814765100865104"><ele>320.6666666666667</ele><time>2026-04-27T08:25:21.999Z</time></trkpt><trkpt lat="42.241963061761886" lon="13.81466196198513"><ele>320.3333333333333</ele><time>2026-04-27T08:25:22.999Z</time></trkpt><trkpt lat="42.24199445020945" lon="13.814575851337016"><ele>320.0</ele><time>2026-04-27T08:25:23.999Z</time></trkpt><trkpt lat="42.24209153758261" lon="13.814531090416347"><ele>319.66666666666663</ele><time>2026-04-27T08:25:25.999Z</time></trkpt><trkpt lat="42.24216397991345" lon="13.814512827132802"><ele>319.3333333333333</ele><time>2026-04-27T08:25:26.999Z</time></trkpt><trkpt lat="42.24226006695844" lon="13.814469523848432"><ele>319.0</ele><time>2026-04-27T08:25:27.999Z</time></trkpt><trkpt lat="42.24235194112499" lon="13.814426235476711"><ele>319.25</ele><time>2026-04-27T08:25:28.999Z</time></trkpt><trkpt lat="42.24244811184871" lon="13.814336720464203"><ele>319.5</ele><time>2026-04-27T08:25:29.999Z</time></trkpt><trkpt lat="42.2425481500914" lon="13.814224832418383"><ele>319.75</ele><time>2026-04-27T08:25:30.999Z</time></trkpt><trkpt lat="42.24267476638843" lon="13.814122140489681"><ele>320.0</ele><time>2026-04-27T08:25:31.999Z</time></trkpt><trkpt lat="42.24278873455056" lon="13.813981788393306"><ele>320.0</ele><time>2026-04-27T08:25:32.999Z</time></trkpt><trkpt lat="42.24289858510348" lon="13.813855919325462"><ele>320.0</ele><time>2026-04-27T08:25:33.999Z</time></trkpt><trkpt lat="42.243013538460765" lon="13.813744617033368"><ele>320.0</ele><time>2026-04-27T08:25:34.999Z</time></trkpt><trkpt lat="42.243124058720376" lon="13.813615820836276"><ele>320.0</ele><time>2026-04-27T08:25:35.999Z</time></trkpt><trkpt lat="42.24322128522172" lon="13.813469073698151"><ele>321.25</ele><time>2026-04-27T08:25:36.999Z</time></trkpt><trkpt lat="42.24333356847398" lon="13.813314397191496"><ele>322.5</ele><time>2026-04-27T08:25:37.999Z</time></trkpt><trkpt lat="42.24343905036987" lon="13.813183715420251"><ele>323.75</ele><time>2026-04-27T08:25:38.999Z</time></trkpt><trkpt lat="42.24354374635761" lon="13.813071428916485"><ele>325.0</ele><time>2026-04-27T08:25:39.999Z</time></trkpt><trkpt lat="42.24364162777421" lon="13.812991124115127"><ele>325.0</ele><time>2026-04-27T08:25:40.999Z</time></trkpt><trkpt lat="42.24373438776314" lon="13.81295499004541"><ele>325.0</ele><time>2026-04-27T08:25:41.999Z</time></trkpt><trkpt lat="42.24383224538399" lon="13.812921446755245"><ele>325.0</ele><time>2026-04-27T08:25:42.999Z</time></trkpt><trkpt lat="42.243954434292206" lon="13.812866065653862"><ele>325.0</ele><time>2026-04-27T08:25:43.999Z</time></trkpt><trkpt lat="42.24408231041785" lon="13.812817577736316"><ele>324.0</ele><time>2026-04-27T08:25:44.999Z</time></trkpt><trkpt lat="42.24420658962206" lon="13.812781496994573"><ele>323.0</ele><time>2026-04-27T08:25:45.999Z</time></trkpt><trkpt lat="42.244322154844" lon="13.812737206870413"><ele>322.0</ele><time>2026-04-27T08:25:46.999Z</time></trkpt><trkpt lat="42.24443435437754" lon="13.812693152344979"><ele>321.0</ele><time>2026-04-27T08:25:47.999Z</time></trkpt><trkpt lat="42.244563725899404" lon="13.812642353069194"><ele>321.0</ele><time>2026-04-27T08:25:48.999Z</time></trkpt><trkpt lat="42.2446709860855" lon="13.812583992505896"><ele>321.0</ele><time>2026-04-27T08:25:49.999Z</time></trkpt><trkpt lat="42.24477449101786" lon="13.812534636149556"><ele>321.0</ele><time>2026-04-27T08:25:50.999Z</time></trkpt><trkpt lat="42.24485489474425" lon="13.812459113616205"><ele>321.0</ele><time>2026-04-27T08:25:51.999Z</time></trkpt><trkpt lat="42.2449304578099" lon="13.81235691502797"><ele>321.0</ele><time>2026-04-27T08:25:52.999Z</time></trkpt><trkpt lat="42.245001795949236" lon="13.81222132267594"><ele>321.75</ele><time>2026-04-27T08:25:53.999Z</time></trkpt><trkpt lat="42.24504732979172" lon="13.812071606907997"><ele>322.5</ele><time>2026-04-27T08:25:54.999Z</time></trkpt><trkpt lat="42.24506778836992" lon="13.811903309548148"><ele>323.25</ele><time>2026-04-27T08:25:55.999Z</time></trkpt><trkpt lat="42.24508290658472" lon="13.811717021582032"><ele>324.0</ele><time>2026-04-27T08:25:56.999Z</time></trkpt><trkpt lat="42.24514096357707" lon="13.811592772240873"><ele>324.0</ele><time>2026-04-27T08:25:57.999Z</time></trkpt><trkpt lat="42.24520519241075" lon="13.811484135535718"><ele>324.0</ele><time>2026-04-27T08:25:58.999Z</time></trkpt><trkpt lat="42.24528383668632" lon="13.811390950154482"><ele>324.0</ele><time>2026-04-27T08:25:59.999Z</time></trkpt><trkpt lat="42.24538789662526" lon="13.811281194268345"><ele>324.0</ele><time>2026-04-27T08:26:00.999Z</time></trkpt><trkpt lat="42.24551001110833" lon="13.811167688836212"><ele>324.0</ele><time>2026-04-27T08:26:01.999Z</time></trkpt><trkpt lat="42.24562419577389" lon="13.811032310563052"><ele>324.0</ele><time>2026-04-27T08:26:02.999Z</time></trkpt><trkpt lat="42.24573951339261" lon="13.810921468076852"><ele>324.0</ele><time>2026-04-27T08:26:03.999Z</time></trkpt><trkpt lat="42.2458412986367" lon="13.810792996970317"><ele>324.0</ele><time>2026-04-27T08:26:04.999Z</time></trkpt><trkpt lat="42.24594063031055" lon="13.810676646944918"><ele>324.25</ele><time>2026-04-27T08:26:05.999Z</time></trkpt><trkpt lat="42.24605132160501" lon="13.810545140766969"><ele>324.5</ele><time>2026-04-27T08:26:06.999Z</time></trkpt><trkpt lat="42.24615712382746" lon="13.810417257000676"><ele>324.75</ele><time>2026-04-27T08:26:07.999Z</time></trkpt><trkpt lat="42.24623270734006" lon="13.810282304947973"><ele>325.0</ele><time>2026-04-27T08:26:08.999Z</time></trkpt><trkpt lat="42.246310622122664" lon="13.810168558924856"><ele>325.0</ele><time>2026-04-27T08:26:09.999Z</time></trkpt><trkpt lat="42.24638282644627" lon="13.810054470233174"><ele>325.0</ele><time>2026-04-27T08:26:10.999Z</time></trkpt><trkpt lat="42.246443805111646" lon="13.80991658790357"><ele>325.0</ele><time>2026-04-27T08:26:11.999Z</time></trkpt><trkpt lat="42.24648562685229" lon="13.809735782433721"><ele>325.0</ele><time>2026-04-27T08:26:12.999Z</time></trkpt><trkpt lat="42.24653882203534" lon="13.80954543321544"><ele>325.0</ele><time>2026-04-27T08:26:13.999Z</time></trkpt><trkpt lat="42.24659038873708" lon="13.809327298574706"><ele>325.0</ele><time>2026-04-27T08:26:14.999Z</time></trkpt><trkpt lat="42.24665649268944" lon="13.809146306454705"><ele>325.0</ele><time>2026-04-27T08:26:15.999Z</time></trkpt><trkpt lat="42.246700914462544" lon="13.808991174209599"><ele>325.0</ele><time>2026-04-27T08:26:16.999Z</time></trkpt><trkpt lat="42.24673142244701" lon="13.808805501607868"><ele>325.0</ele><time>2026-04-27T08:26:17.999Z</time></trkpt><trkpt lat="42.24677800484171" lon="13.808612963413294"><ele>325.0</ele><time>2026-04-27T08:26:18.999Z</time></trkpt><trkpt lat="42.2468096378835" lon="13.808439565454465"><ele>325.0</ele><time>2026-04-27T08:26:19.999Z</time></trkpt><trkpt lat="42.24684245836435" lon="13.808273737538213"><ele>325.0</ele><time>2026-04-27T08:26:20.999Z</time></trkpt><trkpt lat="42.24688560126656" lon="13.80814465523168"><ele>325.0</ele><time>2026-04-27T08:26:21.999Z</time></trkpt><trkpt lat="42.2469257843142" lon="13.808028921174428"><ele>325.0</ele><time>2026-04-27T08:26:22.999Z</time></trkpt><trkpt lat="42.246993970698206" lon="13.807925988284325"><ele>325.0</ele><time>2026-04-27T08:26:23.999Z</time></trkpt><trkpt lat="42.24709620767301" lon="13.807800618792083"><ele>325.0</ele><time>2026-04-27T08:26:24.999Z</time></trkpt><trkpt lat="42.24720845383201" lon="13.807679791075655"><ele>325.75</ele><time>2026-04-27T08:26:25.999Z</time></trkpt><trkpt lat="42.24732738932996" lon="13.807597612863168"><ele>326.5</ele><time>2026-04-27T08:26:26.999Z</time></trkpt><trkpt lat="42.24743989621868" lon="13.807512001726113"><ele>327.25</ele><time>2026-04-27T08:26:27.999Z</time></trkpt><trkpt lat="42.247546869811686" lon="13.807429818660978"><ele>328.0</ele><time>2026-04-27T08:26:28.999Z</time></trkpt><trkpt lat="42.247620816521135" lon="13.80732753561818"><ele>328.0</ele><time>2026-04-27T08:26:29.999Z</time></trkpt><trkpt lat="42.24768458125097" lon="13.807226057909576"><ele>328.0</ele><time>2026-04-27T08:26:30.999Z</time></trkpt><trkpt lat="42.247726939646356" lon="13.807121728965093"><ele>328.0</ele><time>2026-04-27T08:26:31.999Z</time></trkpt><trkpt lat="42.24775324836417" lon="13.806994980491808"><ele>328.0</ele><time>2026-04-27T08:26:32.999Z</time></trkpt><trkpt lat="42.24776018787229" lon="13.806839098062808"><ele>328.0</ele><time>2026-04-27T08:26:33.999Z</time></trkpt><trkpt lat="42.24777043630322" lon="13.806669537662364"><ele>327.5</ele><time>2026-04-27T08:26:34.999Z</time></trkpt><trkpt lat="42.24782216092037" lon="13.806528411682883"><ele>327.0</ele><time>2026-04-27T08:26:35.999Z</time></trkpt><trkpt lat="42.24786603280653" lon="13.806418313717902"><ele>326.5</ele><time>2026-04-27T08:26:36.999Z</time></trkpt><trkpt lat="42.24793277867097" lon="13.806296901078621"><ele>326.0</ele><time>2026-04-27T08:26:37.999Z</time></trkpt><trkpt lat="42.24800776697205" lon="13.806148117467846"><ele>326.5</ele><time>2026-04-27T08:26:38.999Z</time></trkpt><trkpt lat="42.24807829885778" lon="13.805979568176953"><ele>327.0</ele><time>2026-04-27T08:26:39.999Z</time></trkpt><trkpt lat="42.24815354175536" lon="13.805824440109546"><ele>327.5</ele><time>2026-04-27T08:26:40.999Z</time></trkpt><trkpt lat="42.248241222550455" lon="13.805679938877853"><ele>328.0</ele><time>2026-04-27T08:26:41.999Z</time></trkpt><trkpt lat="42.24832444545003" lon="13.805552353721287"><ele>329.4</ele><time>2026-04-27T08:26:42.999Z</time></trkpt><trkpt lat="42.24840344260506" lon="13.805430973999504"><ele>330.79999999999995</ele><time>2026-04-27T08:26:43.999Z</time></trkpt><trkpt lat="42.24848322694631" lon="13.805366395624194"><ele>332.2</ele><time>2026-04-27T08:26:44.999Z</time></trkpt><trkpt lat="42.24856816094379" lon="13.805307082894616"><ele>333.6</ele><time>2026-04-27T08:26:45.999Z</time></trkpt><trkpt lat="42.2486536488151" lon="13.8052392526956"><ele>335.0</ele><time>2026-04-27T08:26:46.999Z</time></trkpt><trkpt lat="42.24876776247283" lon="13.805227394026279"><ele>335.0</ele><time>2026-04-27T08:26:47.999Z</time></trkpt><trkpt lat="42.24889407255698" lon="13.80518963225049"><ele>335.0</ele><time>2026-04-27T08:26:48.999Z</time></trkpt><trkpt lat="42.249019005698706" lon="13.805162508087477"><ele>335.0</ele><time>2026-04-27T08:26:49.999Z</time></trkpt><trkpt lat="42.249121065478654" lon="13.805101435733171"><ele>335.0</ele><time>2026-04-27T08:26:50.999Z</time></trkpt><trkpt lat="42.249208279998" lon="13.805001902575016"><ele>335.4</ele><time>2026-04-27T08:26:51.999Z</time></trkpt><trkpt lat="42.2492798789055" lon="13.80490266841826"><ele>335.8</ele><time>2026-04-27T08:26:52.999Z</time></trkpt><trkpt lat="42.24934641305802" lon="13.804846053337918"><ele>336.20000000000005</ele><time>2026-04-27T08:26:53.999Z</time></trkpt><trkpt lat="42.24943957597394" lon="13.804764306736994"><ele>336.6</ele><time>2026-04-27T08:26:55.999Z</time></trkpt><trkpt lat="42.24955651008723" lon="13.80489110415679"><ele>337.0</ele><time>2026-04-27T08:26:57.999Z</time></trkpt><trkpt lat="42.24964134078478" lon="13.804959657868915"><ele>337.0</ele><time>2026-04-27T08:26:58.999Z</time></trkpt><trkpt lat="42.24974027111074" lon="13.805006353961602"><ele>337.0</ele><time>2026-04-27T08:26:59.999Z</time></trkpt><trkpt lat="42.24984999624864" lon="13.805045670160549"><ele>337.0</ele><time>2026-04-27T08:27:00.999Z</time></trkpt><trkpt lat="42.249964272778236" lon="13.805043454368782"><ele>337.0</ele><time>2026-04-27T08:27:01.999Z</time></trkpt><trkpt lat="42.25008379075145" lon="13.805025283104865"><ele>337.40000000000003</ele><time>2026-04-27T08:27:02.999Z</time></trkpt><trkpt lat="42.25020120187914" lon="13.805008282587306"><ele>337.8</ele><time>2026-04-27T08:27:03.999Z</time></trkpt><trkpt lat="42.25031756328857" lon="13.804996354463515"><ele>338.2</ele><time>2026-04-27T08:27:04.999Z</time></trkpt><trkpt lat="42.25042051238955" lon="13.804986959479697"><ele>338.6</ele><time>2026-04-27T08:27:05.999Z</time></trkpt><trkpt lat="42.25050171968358" lon="13.804987758533626"><ele>339.0</ele><time>2026-04-27T08:27:06.999Z</time></trkpt><trkpt lat="42.25057051296008" lon="13.804982920097444"><ele>341.0</ele><time>2026-04-27T08:27:07.999Z</time></trkpt><trkpt lat="42.25068940277959" lon="13.80497875808834"><ele>343.0</ele><time>2026-04-27T08:27:09.999Z</time></trkpt><trkpt lat="42.25079917334308" lon="13.804967740822885"><ele>345.0</ele><time>2026-04-27T08:27:11.999Z</time></trkpt><trkpt lat="42.25086327186604" lon="13.804957380514205"><ele>347.0</ele><time>2026-04-27T08:27:13.999Z</time></trkpt><trkpt lat="42.250950119526344" lon="13.804976243484557"><ele>349.0</ele><time>2026-04-27T08:27:16.999Z</time></trkpt><trkpt lat="42.25102135845788" lon="13.805027146214327"><ele>349.0</ele><time>2026-04-27T08:27:18.999Z</time></trkpt><trkpt lat="42.25109733490436" lon="13.80509634381694"><ele>349.0</ele><time>2026-04-27T08:27:20.999Z</time></trkpt><trkpt lat="42.251161575507815" lon="13.805240982836516"><ele>349.0</ele><time>2026-04-27T08:27:22.999Z</time></trkpt><trkpt lat="42.251166389369615" lon="13.805340716451735"><ele>349.0</ele><time>2026-04-27T08:27:23.999Z</time></trkpt><trkpt lat="42.25117560615788" lon="13.80546842866778"><ele>349.0</ele><time>2026-04-27T08:27:24.999Z</time></trkpt><trkpt lat="42.251188051330026" lon="13.805593053228794"><ele>349.0</ele><time>2026-04-27T08:27:25.999Z</time></trkpt><trkpt lat="42.251201085790534" lon="13.80572357883435"><ele>349.0</ele><time>2026-04-27T08:27:26.999Z</time></trkpt><trkpt lat="42.2512220442413" lon="13.80586386384104"><ele>349.0</ele><time>2026-04-27T08:27:27.999Z</time></trkpt><trkpt lat="42.251270731252646" lon="13.80600702487598"><ele>349.0</ele><time>2026-04-27T08:27:28.999Z</time></trkpt><trkpt lat="42.25131872422926" lon="13.806160305016911"><ele>349.0</ele><time>2026-04-27T08:27:29.999Z</time></trkpt><trkpt lat="42.25138349194869" lon="13.80631263914479"><ele>349.0</ele><time>2026-04-27T08:27:30.999Z</time></trkpt><trkpt lat="42.251452008378614" lon="13.806465555999951"><ele>349.0</ele><time>2026-04-27T08:27:31.999Z</time></trkpt><trkpt lat="42.251521826725345" lon="13.806602403600344"><ele>349.0</ele><time>2026-04-27T08:27:32.999Z</time></trkpt><trkpt lat="42.25158100693735" lon="13.806744467282272"><ele>349.0</ele><time>2026-04-27T08:27:33.999Z</time></trkpt><trkpt lat="42.25164402375221" lon="13.806892909554808"><ele>351.0</ele><time>2026-04-27T08:27:34.999Z</time></trkpt><trkpt lat="42.25171305377493" lon="13.807047771266102"><ele>353.0</ele><time>2026-04-27T08:27:35.999Z</time></trkpt><trkpt lat="42.25178536159756" lon="13.807209802564781"><ele>355.0</ele><time>2026-04-27T08:27:36.999Z</time></trkpt><trkpt lat="42.25186433848283" lon="13.807382605998917"><ele>357.0</ele><time>2026-04-27T08:27:37.999Z</time></trkpt><trkpt lat="42.25193900811236" lon="13.807547142249875"><ele>357.0</ele><time>2026-04-27T08:27:38.999Z</time></trkpt><trkpt lat="42.25202208935885" lon="13.807742776146398"><ele>357.0</ele><time>2026-04-27T08:27:39.999Z</time></trkpt><trkpt lat="42.25209284309079" lon="13.807920154699191"><ele>357.0</ele><time>2026-04-27T08:27:40.999Z</time></trkpt><trkpt lat="42.252178087580575" lon="13.808079214428851"><ele>357.0</ele><time>2026-04-27T08:27:41.999Z</time></trkpt><trkpt lat="42.25228752521145" lon="13.808237828641506"><ele>357.0</ele><time>2026-04-27T08:27:42.999Z</time></trkpt><trkpt lat="42.25238149862658" lon="13.80840011665405"><ele>357.0</ele><time>2026-04-27T08:27:43.999Z</time></trkpt><trkpt lat="42.25247413237874" lon="13.808556785788586"><ele>359.25</ele><time>2026-04-27T08:27:44.999Z</time></trkpt><trkpt lat="42.252554678211055" lon="13.808684969006366"><ele>361.5</ele><time>2026-04-27T08:27:45.999Z</time></trkpt><trkpt lat="42.25262819110804" lon="13.808804372060429"><ele>363.75</ele><time>2026-04-27T08:27:46.999Z</time></trkpt><trkpt lat="42.252693914395" lon="13.808931043720074"><ele>366.0</ele><time>2026-04-27T08:27:47.999Z</time></trkpt><trkpt lat="42.25275149233536" lon="13.809038622907169"><ele>366.0</ele><time>2026-04-27T08:27:48.999Z</time></trkpt><trkpt lat="42.25277257380037" lon="13.809175353347987"><ele>366.0</ele><time>2026-04-27T08:27:49.999Z</time></trkpt><trkpt lat="42.25284038169345" lon="13.809287185814046"><ele>366.0</ele><time>2026-04-27T08:27:50.999Z</time></trkpt><trkpt lat="42.25292812492565" lon="13.80941414746624"><ele>366.0</ele><time>2026-04-27T08:27:51.999Z</time></trkpt><trkpt lat="42.25303439455616" lon="13.809553059345017"><ele>369.0</ele><time>2026-04-27T08:27:52.999Z</time></trkpt><trkpt lat="42.25315697115496" lon="13.809683402136056"><ele>372.0</ele><time>2026-04-27T08:27:53.999Z</time></trkpt><trkpt lat="42.25325808073405" lon="13.809834608457312"><ele>375.0</ele><time>2026-04-27T08:27:54.999Z</time></trkpt><trkpt lat="42.25336846071815" lon="13.809964730363333"><ele>375.0</ele><time>2026-04-27T08:27:55.999Z</time></trkpt><trkpt lat="42.253502714862435" lon="13.810073972908844"><ele>375.0</ele><time>2026-04-27T08:27:56.999Z</time></trkpt><trkpt lat="42.25362201038381" lon="13.81018109414123"><ele>375.0</ele><time>2026-04-27T08:27:57.999Z</time></trkpt><trkpt lat="42.25374980203553" lon="13.81029197589622"><ele>374.75</ele><time>2026-04-27T08:27:58.999Z</time></trkpt><trkpt lat="42.2538385843642" lon="13.810443961064433"><ele>374.5</ele><time>2026-04-27T08:27:59.999Z</time></trkpt><trkpt lat="42.25394488477888" lon="13.810595648374496"><ele>374.25</ele><time>2026-04-27T08:28:00.999Z</time></trkpt><trkpt lat="42.25404898345149" lon="13.8107381769493"><ele>374.0</ele><time>2026-04-27T08:28:01.999Z</time></trkpt><trkpt lat="42.2541664000072" lon="13.810870522086569"><ele>376.0</ele><time>2026-04-27T08:28:02.999Z</time></trkpt><trkpt lat="42.25430949326435" lon="13.810973164311672"><ele>378.0</ele><time>2026-04-27T08:28:03.999Z</time></trkpt><trkpt lat="42.25440524118414" lon="13.811130847720312"><ele>380.0</ele><time>2026-04-27T08:28:04.999Z</time></trkpt><trkpt lat="42.25449086375537" lon="13.811278575936914"><ele>380.2</ele><time>2026-04-27T08:28:05.999Z</time></trkpt><trkpt lat="42.25455922281978" lon="13.81142276889027"><ele>380.4</ele><time>2026-04-27T08:28:06.999Z</time></trkpt><trkpt lat="42.254596292826506" lon="13.811582205643886"><ele>380.6</ele><time>2026-04-27T08:28:07.999Z</time></trkpt><trkpt lat="42.25463057861652" lon="13.811709187486317"><ele>380.8</ele><time>2026-04-27T08:28:08.999Z</time></trkpt><trkpt lat="42.254659717460626" lon="13.811812510566687"><ele>381.0</ele><time>2026-04-27T08:28:10.999Z</time></trkpt><trkpt lat="42.25483649397149" lon="13.811683671130186"><ele>383.0</ele><time>2026-04-27T08:28:13.999Z</time></trkpt><trkpt lat="42.25488738670196" lon="13.811572861433465"><ele>385.0</ele><time>2026-04-27T08:28:14.999Z</time></trkpt><trkpt lat="42.25495417200845" lon="13.811451187859058"><ele>387.0</ele><time>2026-04-27T08:28:15.999Z</time></trkpt><trkpt lat="42.25503787556337" lon="13.81129005876664"><ele>389.0</ele><time>2026-04-27T08:28:16.999Z</time></trkpt><trkpt lat="42.255133389548085" lon="13.811141699345898"><ele>388.5</ele><time>2026-04-27T08:28:17.999Z</time></trkpt><trkpt lat="42.25521068158776" lon="13.810990716372963"><ele>388.0</ele><time>2026-04-27T08:28:18.999Z</time></trkpt><trkpt lat="42.25528012186283" lon="13.81082223205502"><ele>387.5</ele><time>2026-04-27T08:28:19.999Z</time></trkpt><trkpt lat="42.25533407392641" lon="13.810652194701609"><ele>387.0</ele><time>2026-04-27T08:28:20.999Z</time></trkpt><trkpt lat="42.255400566771044" lon="13.810481716413152"><ele>387.0</ele><time>2026-04-27T08:28:21.999Z</time></trkpt><trkpt lat="42.255470181962195" lon="13.81034887984243"><ele>387.0</ele><time>2026-04-27T08:28:22.999Z</time></trkpt><trkpt lat="42.25558434781469" lon="13.810223873968424"><ele>387.0</ele><time>2026-04-27T08:28:23.999Z</time></trkpt><trkpt lat="42.25568642146505" lon="13.81005744491481"><ele>387.0</ele><time>2026-04-27T08:28:24.999Z</time></trkpt><trkpt lat="42.255791761877624" lon="13.809911226027104"><ele>387.33333333333337</ele><time>2026-04-27T08:28:25.999Z</time></trkpt><trkpt lat="42.2558834157308" lon="13.809745845300592"><ele>387.6666666666667</ele><time>2026-04-27T08:28:26.999Z</time></trkpt><trkpt lat="42.25598003189369" lon="13.809561143001263"><ele>388.0</ele><time>2026-04-27T08:28:27.999Z</time></trkpt><trkpt lat="42.25607501983206" lon="13.809383549184089"><ele>387.75</ele><time>2026-04-27T08:28:28.999Z</time></trkpt><trkpt lat="42.25615763072348" lon="13.80922773346229"><ele>387.5</ele><time>2026-04-27T08:28:29.999Z</time></trkpt><trkpt lat="42.2562407799802" lon="13.809085168567048"><ele>387.25</ele><time>2026-04-27T08:28:30.999Z</time></trkpt><trkpt lat="42.25635323148612" lon="13.80898160638079"><ele>387.0</ele><time>2026-04-27T08:28:31.999Z</time></trkpt><trkpt lat="42.25646822163536" lon="13.808859918906547"><ele>387.0</ele><time>2026-04-27T08:28:32.999Z</time></trkpt><trkpt lat="42.25656302984041" lon="13.808718601475075"><ele>387.0</ele><time>2026-04-27T08:28:33.999Z</time></trkpt><trkpt lat="42.25666012597945" lon="13.808627843209136"><ele>387.0</ele><time>2026-04-27T08:28:34.999Z</time></trkpt><trkpt lat="42.25674497162863" lon="13.808559925420994"><ele>387.0</ele><time>2026-04-27T08:28:35.999Z</time></trkpt><trkpt lat="42.25682369468148" lon="13.808511035946147"><ele>387.0</ele><time>2026-04-27T08:28:36.999Z</time></trkpt><trkpt lat="42.25690877369584" lon="13.80844653046504"><ele>386.25</ele><time>2026-04-27T08:28:37.999Z</time></trkpt><trkpt lat="42.25701507243082" lon="13.808353239909742"><ele>385.5</ele><time>2026-04-27T08:28:38.999Z</time></trkpt><trkpt lat="42.25713237908571" lon="13.80824570538101"><ele>384.75</ele><time>2026-04-27T08:28:39.999Z</time></trkpt><trkpt lat="42.25725317242554" lon="13.808129602674313"><ele>384.0</ele><time>2026-04-27T08:28:40.999Z</time></trkpt><trkpt lat="42.257369365533705" lon="13.808016957795434"><ele>384.0</ele><time>2026-04-27T08:28:41.999Z</time></trkpt><trkpt lat="42.25750625723667" lon="13.80791864359868"><ele>384.0</ele><time>2026-04-27T08:28:42.999Z</time></trkpt><trkpt lat="42.2576404455884" lon="13.807826894115415"><ele>384.0</ele><time>2026-04-27T08:28:43.999Z</time></trkpt><trkpt lat="42.25779206635709" lon="13.80771551238752"><ele>382.5</ele><time>2026-04-27T08:28:44.999Z</time></trkpt><trkpt lat="42.257907580549706" lon="13.807599050408914"><ele>381.0</ele><time>2026-04-27T08:28:45.999Z</time></trkpt><trkpt lat="42.25802082063833" lon="13.80749276584648"><ele>379.5</ele><time>2026-04-27T08:28:46.999Z</time></trkpt><trkpt lat="42.258122710008365" lon="13.807403020300068"><ele>378.0</ele><time>2026-04-27T08:28:47.999Z</time></trkpt><trkpt lat="42.25824676417487" lon="13.807319428600634"><ele>378.0</ele><time>2026-04-27T08:28:48.999Z</time></trkpt><trkpt lat="42.25838125295416" lon="13.807253362988451"><ele>378.0</ele><time>2026-04-27T08:28:49.999Z</time></trkpt><trkpt lat="42.25852519502603" lon="13.807208054907255"><ele>378.0</ele><time>2026-04-27T08:28:50.999Z</time></trkpt><trkpt lat="42.258669175186576" lon="13.807181767414278"><ele>378.0</ele><time>2026-04-27T08:28:51.999Z</time></trkpt><trkpt lat="42.258801042345546" lon="13.807134721322326"><ele>378.0</ele><time>2026-04-27T08:28:52.999Z</time></trkpt><trkpt lat="42.25892948839794" lon="13.807079211293365"><ele>378.0</ele><time>2026-04-27T08:28:53.999Z</time></trkpt><trkpt lat="42.25905407239413" lon="13.807024137607021"><ele>378.0</ele><time>2026-04-27T08:28:54.999Z</time></trkpt><trkpt lat="42.25917459754285" lon="13.806961075140464"><ele>378.0</ele><time>2026-04-27T08:28:55.999Z</time></trkpt><trkpt lat="42.259311196539194" lon="13.806853155872407"><ele>377.75</ele><time>2026-04-27T08:28:56.999Z</time></trkpt><trkpt lat="42.25944971616961" lon="13.806754394501501"><ele>377.5</ele><time>2026-04-27T08:28:57.999Z</time></trkpt><trkpt lat="42.259587122083815" lon="13.806684204047237"><ele>377.25</ele><time>2026-04-27T08:28:58.999Z</time></trkpt><trkpt lat="42.25971005707491" lon="13.806628350844159"><ele>377.0</ele><time>2026-04-27T08:28:59.999Z</time></trkpt><trkpt lat="42.25984176795748" lon="13.806564026749909"><ele>377.0</ele><time>2026-04-27T08:29:00.999Z</time></trkpt><trkpt lat="42.25997260820991" lon="13.80649161520091"><ele>377.0</ele><time>2026-04-27T08:29:01.999Z</time></trkpt><trkpt lat="42.260089517117535" lon="13.80641705596231"><ele>377.0</ele><time>2026-04-27T08:29:02.999Z</time></trkpt><trkpt lat="42.260186299458404" lon="13.806327547154716"><ele>377.0</ele><time>2026-04-27T08:29:03.999Z</time></trkpt><trkpt lat="42.26031069405495" lon="13.806207666902404"><ele>377.0</ele><time>2026-04-27T08:29:04.999Z</time></trkpt><trkpt lat="42.26044804876596" lon="13.806120434841743"><ele>377.0</ele><time>2026-04-27T08:29:05.999Z</time></trkpt><trkpt lat="42.26058605061651" lon="13.806033306469628"><ele>377.0</ele><time>2026-04-27T08:29:06.999Z</time></trkpt><trkpt lat="42.26071676974478" lon="13.805947022220554"><ele>376.40000000000003</ele><time>2026-04-27T08:29:07.999Z</time></trkpt><trkpt lat="42.260828109579485" lon="13.80587548805386"><ele>375.8</ele><time>2026-04-27T08:29:08.999Z</time></trkpt><trkpt lat="42.26091913304631" lon="13.805822579155638"><ele>375.2</ele><time>2026-04-27T08:29:09.999Z</time></trkpt><trkpt lat="42.26099730847917" lon="13.805786483855744"><ele>374.6</ele><time>2026-04-27T08:29:10.999Z</time></trkpt><trkpt lat="42.26105622082766" lon="13.80573889910343"><ele>374.0</ele><time>2026-04-27T08:29:11.999Z</time></trkpt><trkpt lat="42.26114392912835" lon="13.805722644093368"><ele>374.0</ele><time>2026-04-27T08:29:12.999Z</time></trkpt><trkpt lat="42.2612309366716" lon="13.805677300477416"><ele>374.0</ele><time>2026-04-27T08:29:13.999Z</time></trkpt><trkpt lat="42.261347377329855" lon="13.805627096145612"><ele>374.0</ele><time>2026-04-27T08:29:14.999Z</time></trkpt><trkpt lat="42.261469231274354" lon="13.805570422122198"><ele>374.0</ele><time>2026-04-27T08:29:15.999Z</time></trkpt><trkpt lat="42.26160323203607" lon="13.805511409376185"><ele>373.25</ele><time>2026-04-27T08:29:16.999Z</time></trkpt><trkpt lat="42.26174110748215" lon="13.805457719261609"><ele>372.5</ele><time>2026-04-27T08:29:17.999Z</time></trkpt><trkpt lat="42.2618858452611" lon="13.80538051134343"><ele>371.75</ele><time>2026-04-27T08:29:18.999Z</time></trkpt><trkpt lat="42.26201888764886" lon="13.805354683481108"><ele>371.0</ele><time>2026-04-27T08:29:19.999Z</time></trkpt><trkpt lat="42.26212536429168" lon="13.805320871863707"><ele>371.0</ele><time>2026-04-27T08:29:20.999Z</time></trkpt><trkpt lat="42.262218777567355" lon="13.805296980026068"><ele>371.0</ele><time>2026-04-27T08:29:21.999Z</time></trkpt><trkpt lat="42.26228794564487" lon="13.80529608822454"><ele>371.0</ele><time>2026-04-27T08:29:22.999Z</time></trkpt><trkpt lat="42.262360334934215" lon="13.805318855429093"><ele>371.0</ele><time>2026-04-27T08:29:25.999Z</time></trkpt><trkpt lat="42.26250918890278" lon="13.805319162023856"><ele>371.0</ele><time>2026-04-27T08:29:27.999Z</time></trkpt><trkpt lat="42.26261466702541" lon="13.8053156275247"><ele>370.75</ele><time>2026-04-27T08:29:28.999Z</time></trkpt><trkpt lat="42.2627415208719" lon="13.805306405729809"><ele>370.5</ele><time>2026-04-27T08:29:29.999Z</time></trkpt><trkpt lat="42.262881043308234" lon="13.805272406959547"><ele>370.25</ele><time>2026-04-27T08:29:30.999Z</time></trkpt><trkpt lat="42.263039158028455" lon="13.805238674886654"><ele>370.0</ele><time>2026-04-27T08:29:31.999Z</time></trkpt><trkpt lat="42.263212110692216" lon="13.805202076829442"><ele>368.66666666666663</ele><time>2026-04-27T08:29:32.999Z</time></trkpt><trkpt lat="42.263380351956634" lon="13.805163877889706"><ele>367.3333333333333</ele><time>2026-04-27T08:29:33.999Z</time></trkpt><trkpt lat="42.26353427743946" lon="13.805125886668561"><ele>366.0</ele><time>2026-04-27T08:29:34.999Z</time></trkpt><trkpt lat="42.26368788205916" lon="13.805069787450677"><ele>365.75</ele><time>2026-04-27T08:29:35.999Z</time></trkpt><trkpt lat="42.263838073976714" lon="13.8050464839629"><ele>365.5</ele><time>2026-04-27T08:29:36.999Z</time></trkpt><trkpt lat="42.26398955977315" lon="13.805051799032872"><ele>365.25</ele><time>2026-04-27T08:29:37.999Z</time></trkpt><trkpt lat="42.2641302176045" lon="13.805052063161291"><ele>365.0</ele><time>2026-04-27T08:29:38.999Z</time></trkpt><trkpt lat="42.26427242781684" lon="13.805049277945741"><ele>364.0</ele><time>2026-04-27T08:29:39.999Z</time></trkpt><trkpt lat="42.264428109635766" lon="13.805025367028925"><ele>363.0</ele><time>2026-04-27T08:29:40.999Z</time></trkpt><trkpt lat="42.26459720715419" lon="13.804994828321387"><ele>362.0</ele><time>2026-04-27T08:29:41.999Z</time></trkpt><trkpt lat="42.264758141092784" lon="13.804954306495857"><ele>361.0</ele><time>2026-04-27T08:29:42.999Z</time></trkpt><trkpt lat="42.26490853295138" lon="13.80491722637377"><ele>360.0</ele><time>2026-04-27T08:29:43.999Z</time></trkpt><trkpt lat="42.26504490053372" lon="13.804875922412657"><ele>359.0</ele><time>2026-04-27T08:29:44.999Z</time></trkpt><trkpt lat="42.26517169641606" lon="13.804833655482776"><ele>358.0</ele><time>2026-04-27T08:29:45.999Z</time></trkpt><trkpt lat="42.26528840898004" lon="13.804789182102615"><ele>358.0</ele><time>2026-04-27T08:29:46.999Z</time></trkpt><trkpt lat="42.265411883452074" lon="13.804740812206623"><ele>358.0</ele><time>2026-04-27T08:29:47.999Z</time></trkpt><trkpt lat="42.26554436102803" lon="13.804692664527673"><ele>358.0</ele><time>2026-04-27T08:29:48.999Z</time></trkpt><trkpt lat="42.26568681956044" lon="13.804641178271602"><ele>358.0</ele><time>2026-04-27T08:29:49.999Z</time></trkpt><trkpt lat="42.265830378307" lon="13.804579648677162"><ele>357.5</ele><time>2026-04-27T08:29:50.999Z</time></trkpt><trkpt lat="42.26598198075264" lon="13.804522090341722"><ele>357.0</ele><time>2026-04-27T08:29:51.999Z</time></trkpt><trkpt lat="42.26612446343619" lon="13.804473515200051"><ele>356.5</ele><time>2026-04-27T08:29:52.999Z</time></trkpt><trkpt lat="42.266249405487166" lon="13.804430157324578"><ele>356.0</ele><time>2026-04-27T08:29:53.999Z</time></trkpt><trkpt lat="42.2663739530966" lon="13.804362542176086"><ele>355.75</ele><time>2026-04-27T08:29:54.999Z</time></trkpt><trkpt lat="42.2664902269177" lon="13.804257139073433"><ele>355.5</ele><time>2026-04-27T08:29:55.999Z</time></trkpt><trkpt lat="42.266619280692396" lon="13.804148123185781"><ele>355.25</ele><time>2026-04-27T08:29:56.999Z</time></trkpt><trkpt lat="42.2667396313824" lon="13.804041361885055"><ele>355.0</ele><time>2026-04-27T08:29:57.999Z</time></trkpt><trkpt lat="42.26683619919866" lon="13.803934022319561"><ele>355.0</ele><time>2026-04-27T08:29:58.999Z</time></trkpt><trkpt lat="42.2669303176266" lon="13.80383201718058"><ele>355.0</ele><time>2026-04-27T08:29:59.999Z</time></trkpt><trkpt lat="42.26701211202386" lon="13.803705507288887"><ele>355.0</ele><time>2026-04-27T08:30:00.999Z</time></trkpt><trkpt lat="42.26707995270815" lon="13.803591184823958"><ele>355.0</ele><time>2026-04-27T08:30:01.999Z</time></trkpt><trkpt lat="42.2671438674687" lon="13.80346926343437"><ele>355.4</ele><time>2026-04-27T08:30:02.999Z</time></trkpt><trkpt lat="42.2672050338962" lon="13.803340218934629"><ele>355.8</ele><time>2026-04-27T08:30:03.999Z</time></trkpt><trkpt lat="42.267262274217344" lon="13.803215705235676"><ele>356.20000000000005</ele><time>2026-04-27T08:30:04.999Z</time></trkpt><trkpt lat="42.267315776738045" lon="13.803097095877222"><ele>356.6</ele><time>2026-04-27T08:30:05.999Z</time></trkpt><trkpt lat="42.2673692324324" lon="13.802989906954918"><ele>357.0</ele><time>2026-04-27T08:30:06.999Z</time></trkpt><trkpt lat="42.26741156759779" lon="13.802905016846635"><ele>357.0</ele><time>2026-04-27T08:30:07.999Z</time></trkpt><trkpt lat="42.26745181554535" lon="13.802820145570676"><ele>357.0</ele><time>2026-04-27T08:30:08.999Z</time></trkpt><trkpt lat="42.267494711190906" lon="13.802729662005461"><ele>357.0</ele><time>2026-04-27T08:30:10.999Z</time></trkpt><trkpt lat="42.26752262000813" lon="13.802591208233356"><ele>357.0</ele><time>2026-04-27T08:30:13.999Z</time></trkpt><trkpt lat="42.26753372660717" lon="13.802498699633434"><ele>357.0</ele><time>2026-04-27T08:30:14.999Z</time></trkpt><trkpt lat="42.267647783614144" lon="13.802315242676674"><ele>356.25</ele><time>2026-04-27T08:30:16.999Z</time></trkpt><trkpt lat="42.267725556139105" lon="13.802213771909848"><ele>355.5</ele><time>2026-04-27T08:30:17.999Z</time></trkpt><trkpt lat="42.267807380807916" lon="13.802121796701796"><ele>354.75</ele><time>2026-04-27T08:30:18.999Z</time></trkpt><trkpt lat="42.26792641906046" lon="13.80198646945884"><ele>354.0</ele><time>2026-04-27T08:30:19.999Z</time></trkpt><trkpt lat="42.26803972291708" lon="13.80185498218719"><ele>353.6666666666667</ele><time>2026-04-27T08:30:20.999Z</time></trkpt><trkpt lat="42.268151290821066" lon="13.801703854248919"><ele>353.33333333333337</ele><time>2026-04-27T08:30:21.999Z</time></trkpt><trkpt lat="42.26827930662146" lon="13.801591643999723"><ele>353.0</ele><time>2026-04-27T08:30:22.999Z</time></trkpt><trkpt lat="42.2683830560253" lon="13.801450370027291"><ele>353.0</ele><time>2026-04-27T08:30:23.999Z</time></trkpt><trkpt lat="42.268510887356456" lon="13.801319053782956"><ele>353.0</ele><time>2026-04-27T08:30:24.999Z</time></trkpt><trkpt lat="42.26863248350537" lon="13.801189267353305"><ele>353.0</ele><time>2026-04-27T08:30:25.999Z</time></trkpt><trkpt lat="42.268769176106346" lon="13.801041838056701"><ele>352.75</ele><time>2026-04-27T08:30:26.999Z</time></trkpt><trkpt lat="42.268896334101534" lon="13.800940791507037"><ele>352.5</ele><time>2026-04-27T08:30:27.999Z</time></trkpt><trkpt lat="42.269004681884354" lon="13.800841942650115"><ele>352.25</ele><time>2026-04-27T08:30:28.999Z</time></trkpt><trkpt lat="42.26912089315908" lon="13.800750171293608"><ele>352.0</ele><time>2026-04-27T08:30:29.999Z</time></trkpt><trkpt lat="42.26924278721464" lon="13.8006762092909"><ele>352.0</ele><time>2026-04-27T08:30:30.999Z</time></trkpt><trkpt lat="42.26935810450035" lon="13.800627466231234"><ele>352.0</ele><time>2026-04-27T08:30:31.999Z</time></trkpt><trkpt lat="42.269467939014824" lon="13.80058568754964"><ele>352.0</ele><time>2026-04-27T08:30:32.999Z</time></trkpt><trkpt lat="42.26957850514544" lon="13.80054583251453"><ele>352.0</ele><time>2026-04-27T08:30:33.999Z</time></trkpt><trkpt lat="42.26968269221008" lon="13.800443638161187"><ele>352.0</ele><time>2026-04-27T08:30:34.999Z</time></trkpt><trkpt lat="42.26978840394461" lon="13.800327057692911"><ele>352.0</ele><time>2026-04-27T08:30:35.999Z</time></trkpt><trkpt lat="42.269903453409206" lon="13.80020765997489"><ele>352.0</ele><time>2026-04-27T08:30:36.999Z</time></trkpt><trkpt lat="42.27003126669562" lon="13.800058212940096"><ele>350.75</ele><time>2026-04-27T08:30:37.999Z</time></trkpt><trkpt lat="42.27015498466341" lon="13.799918628821056"><ele>349.5</ele><time>2026-04-27T08:30:38.999Z</time></trkpt><trkpt lat="42.270271391301236" lon="13.799814397490664"><ele>348.25</ele><time>2026-04-27T08:30:39.999Z</time></trkpt><trkpt lat="42.270391017272054" lon="13.799713613390422"><ele>347.0</ele><time>2026-04-27T08:30:40.999Z</time></trkpt><trkpt lat="42.270514115185335" lon="13.799599272919842"><ele>347.75</ele><time>2026-04-27T08:30:41.999Z</time></trkpt><trkpt lat="42.27065123170292" lon="13.799512990704635"><ele>348.5</ele><time>2026-04-27T08:30:42.999Z</time></trkpt><trkpt lat="42.270788704665335" lon="13.79947227286909"><ele>349.25</ele><time>2026-04-27T08:30:43.999Z</time></trkpt><trkpt lat="42.270930196894994" lon="13.799425460968864"><ele>350.0</ele><time>2026-04-27T08:30:44.999Z</time></trkpt><trkpt lat="42.27107930601643" lon="13.799355039470969"><ele>349.33333333333337</ele><time>2026-04-27T08:30:45.999Z</time></trkpt><trkpt lat="42.27125151644312" lon="13.799294275153782"><ele>348.6666666666667</ele><time>2026-04-27T08:30:46.999Z</time></trkpt><trkpt lat="42.27140536026804" lon="13.799217803249807"><ele>348.0</ele><time>2026-04-27T08:30:47.999Z</time></trkpt><trkpt lat="42.2715394635556" lon="13.79914651940994"><ele>348.0</ele><time>2026-04-27T08:30:48.999Z</time></trkpt><trkpt lat="42.27169319028344" lon="13.799061963183403"><ele>348.0</ele><time>2026-04-27T08:30:49.999Z</time></trkpt><trkpt lat="42.2718410097348" lon="13.799002698497135"><ele>348.0</ele><time>2026-04-27T08:30:50.999Z</time></trkpt><trkpt lat="42.27199747463298" lon="13.798888429714257"><ele>348.0</ele><time>2026-04-27T08:30:51.999Z</time></trkpt><trkpt lat="42.27214429126873" lon="13.798797614375221"><ele>348.0</ele><time>2026-04-27T08:30:52.999Z</time></trkpt><trkpt lat="42.272271230640605" lon="13.798730417556001"><ele>348.0</ele><time>2026-04-27T08:30:54Z</time></trkpt><trkpt lat="42.27239411067793" lon="13.7986459839238"><ele>348.0</ele><time>2026-04-27T08:30:55Z</time></trkpt><trkpt lat="42.27251559294775" lon="13.79853334021933"><ele>347.6666666666667</ele><time>2026-04-27T08:30:56Z</time></trkpt><trkpt lat="42.2726512630315" lon="13.798443518353265"><ele>347.33333333333337</ele><time>2026-04-27T08:30:57Z</time></trkpt><trkpt lat="42.27278324521104" lon="13.798311786237731"><ele>347.0</ele><time>2026-04-27T08:30:58Z</time></trkpt><trkpt lat="42.27290567275022" lon="13.79821347667383"><ele>347.0</ele><time>2026-04-27T08:30:59Z</time></trkpt><trkpt lat="42.27301920321993" lon="13.798123159006893"><ele>347.0</ele><time>2026-04-27T08:31:00Z</time></trkpt><trkpt lat="42.273140517409026" lon="13.798067487409753"><ele>347.0</ele><time>2026-04-27T08:31:01Z</time></trkpt><trkpt lat="42.27327069572559" lon="13.797977326836563"><ele>347.0</ele><time>2026-04-27T08:31:02Z</time></trkpt><trkpt lat="42.27340461528169" lon="13.797901196990802"><ele>347.0</ele><time>2026-04-27T08:31:03Z</time></trkpt><trkpt lat="42.27353817279693" lon="13.797812728478942"><ele>347.0</ele><time>2026-04-27T08:31:04Z</time></trkpt><trkpt lat="42.27367165301233" lon="13.797720533353191"><ele>347.0</ele><time>2026-04-27T08:31:05Z</time></trkpt><trkpt lat="42.27380384463379" lon="13.797635785886422"><ele>347.0</ele><time>2026-04-27T08:31:06Z</time></trkpt><trkpt lat="42.27394270842435" lon="13.797532327286897"><ele>347.0</ele><time>2026-04-27T08:31:07Z</time></trkpt><trkpt lat="42.27408646243687" lon="13.797443766046683"><ele>347.0</ele><time>2026-04-27T08:31:08Z</time></trkpt><trkpt lat="42.274197383370996" lon="13.797341685249544"><ele>347.0</ele><time>2026-04-27T08:31:09Z</time></trkpt><trkpt lat="42.274301667308954" lon="13.797249154742357"><ele>347.0</ele><time>2026-04-27T08:31:10Z</time></trkpt><trkpt lat="42.27440282651907" lon="13.797116244362801"><ele>347.0</ele><time>2026-04-27T08:31:11Z</time></trkpt><trkpt lat="42.2745300247721" lon="13.79702646829483"><ele>347.0</ele><time>2026-04-27T08:31:12Z</time></trkpt><trkpt lat="42.27464096099045" lon="13.796950693002154"><ele>347.0</ele><time>2026-04-27T08:31:13Z</time></trkpt><trkpt lat="42.274753632379735" lon="13.796846606049893"><ele>347.0</ele><time>2026-04-27T08:31:14Z</time></trkpt><trkpt lat="42.27488937324843" lon="13.7967444047938"><ele>347.0</ele><time>2026-04-27T08:31:15Z</time></trkpt><trkpt lat="42.27500711186706" lon="13.79666188957179"><ele>347.0</ele><time>2026-04-27T08:31:16Z</time></trkpt><trkpt lat="42.27510045736708" lon="13.7965954602033"><ele>347.0</ele><time>2026-04-27T08:31:17Z</time></trkpt><trkpt lat="42.27518209855641" lon="13.796499802448762"><ele>347.0</ele><time>2026-04-27T08:31:18Z</time></trkpt><trkpt lat="42.27526624244298" lon="13.796376088720152"><ele>347.0</ele><time>2026-04-27T08:31:19Z</time></trkpt><trkpt lat="42.27537225345737" lon="13.79630698748724"><ele>347.0</ele><time>2026-04-27T08:31:20Z</time></trkpt><trkpt lat="42.275471600305416" lon="13.796236809518545"><ele>347.0</ele><time>2026-04-27T08:31:21Z</time></trkpt><trkpt lat="42.27559963519071" lon="13.796205377263636"><ele>347.0</ele><time>2026-04-27T08:31:22Z</time></trkpt><trkpt lat="42.275720146469894" lon="13.796172381565183"><ele>347.0</ele><time>2026-04-27T08:31:23Z</time></trkpt><trkpt lat="42.27581854931569" lon="13.796107131647446"><ele>347.0</ele><time>2026-04-27T08:31:24Z</time></trkpt><trkpt lat="42.27591937624728" lon="13.795996276292392"><ele>347.0</ele><time>2026-04-27T08:31:25Z</time></trkpt><trkpt lat="42.276043847744695" lon="13.795865876012545"><ele>347.0</ele><time>2026-04-27T08:31:26Z</time></trkpt><trkpt lat="42.276171625467576" lon="13.795732883306469"><ele>347.0</ele><time>2026-04-27T08:31:27Z</time></trkpt><trkpt lat="42.2762738046032" lon="13.79559233628021"><ele>347.0</ele><time>2026-04-27T08:31:28Z</time></trkpt><trkpt lat="42.27638476829655" lon="13.795467984308614"><ele>347.0</ele><time>2026-04-27T08:31:29Z</time></trkpt><trkpt lat="42.27650042638092" lon="13.795398034858614"><ele>347.0</ele><time>2026-04-27T08:31:30Z</time></trkpt><trkpt lat="42.27660762686984" lon="13.795327113261934"><ele>347.25</ele><time>2026-04-27T08:31:31Z</time></trkpt><trkpt lat="42.27673059729134" lon="13.795275006140358"><ele>347.5</ele><time>2026-04-27T08:31:32Z</time></trkpt><trkpt lat="42.276853146836814" lon="13.795209512210926"><ele>347.75</ele><time>2026-04-27T08:31:33Z</time></trkpt><trkpt lat="42.27698029756542" lon="13.795192515919222"><ele>348.0</ele><time>2026-04-27T08:31:34Z</time></trkpt><trkpt lat="42.27711026657721" lon="13.79516127610343"><ele>348.0</ele><time>2026-04-27T08:31:35Z</time></trkpt><trkpt lat="42.27724299242057" lon="13.795147217313817"><ele>348.0</ele><time>2026-04-27T08:31:36.001Z</time></trkpt><trkpt lat="42.27739032212639" lon="13.795136914563932"><ele>348.0</ele><time>2026-04-27T08:31:37.001Z</time></trkpt><trkpt lat="42.27753460503805" lon="13.795085380584757"><ele>348.0</ele><time>2026-04-27T08:31:38.001Z</time></trkpt><trkpt lat="42.277651761591045" lon="13.795085060559808"><ele>348.25</ele><time>2026-04-27T08:31:39.001Z</time></trkpt><trkpt lat="42.27777339978471" lon="13.795102489742638"><ele>348.5</ele><time>2026-04-27T08:31:40.001Z</time></trkpt><trkpt lat="42.277897361953364" lon="13.795130903659066"><ele>348.75</ele><time>2026-04-27T08:31:41.001Z</time></trkpt><trkpt lat="42.27801734285313" lon="13.795172843611212"><ele>349.0</ele><time>2026-04-27T08:31:42.001Z</time></trkpt><trkpt lat="42.27814807754289" lon="13.79520277237846"><ele>350.5</ele><time>2026-04-27T08:31:43.001Z</time></trkpt><trkpt lat="42.27830783391165" lon="13.79523539614845"><ele>352.0</ele><time>2026-04-27T08:31:44.001Z</time></trkpt><trkpt lat="42.27844943183605" lon="13.795261887473352"><ele>353.5</ele><time>2026-04-27T08:31:45.001Z</time></trkpt><trkpt lat="42.27857595212693" lon="13.795297770965385"><ele>355.0</ele><time>2026-04-27T08:31:46.001Z</time></trkpt><trkpt lat="42.2786896615592" lon="13.795327453107664"><ele>355.0</ele><time>2026-04-27T08:31:47.001Z</time></trkpt><trkpt lat="42.278794536054704" lon="13.795309574776278"><ele>355.0</ele><time>2026-04-27T08:31:48.001Z</time></trkpt><trkpt lat="42.27888851556514" lon="13.795285207619962"><ele>355.0</ele><time>2026-04-27T08:31:49.001Z</time></trkpt><trkpt lat="42.27899130370908" lon="13.795236572933225"><ele>355.0</ele><time>2026-04-27T08:31:50.001Z</time></trkpt><trkpt lat="42.27909693844381" lon="13.79521737163659"><ele>355.0</ele><time>2026-04-27T08:31:51.001Z</time></trkpt><trkpt lat="42.27921281269197" lon="13.795194728811264"><ele>351.75</ele><time>2026-04-27T08:31:52.001Z</time></trkpt><trkpt lat="42.27932235637436" lon="13.795142932078324"><ele>348.5</ele><time>2026-04-27T08:31:53.001Z</time></trkpt><trkpt lat="42.27942706007523" lon="13.795089115215182"><ele>345.25</ele><time>2026-04-27T08:31:54.001Z</time></trkpt><trkpt lat="42.27952278506161" lon="13.79501627654043"><ele>342.0</ele><time>2026-04-27T08:31:55.001Z</time></trkpt><trkpt lat="42.279618499755756" lon="13.794936847577766"><ele>342.0</ele><time>2026-04-27T08:31:56.001Z</time></trkpt><trkpt lat="42.27971698238955" lon="13.794849624537543"><ele>342.0</ele><time>2026-04-27T08:31:57.001Z</time></trkpt><trkpt lat="42.279820255535576" lon="13.794753721811501"><ele>342.0</ele><time>2026-04-27T08:31:58.001Z</time></trkpt><trkpt lat="42.27992387884696" lon="13.794655181194976"><ele>342.0</ele><time>2026-04-27T08:31:59.001Z</time></trkpt><trkpt lat="42.280036108968524" lon="13.794546667856293"><ele>342.0</ele><time>2026-04-27T08:32:00.001Z</time></trkpt><trkpt lat="42.28014774020665" lon="13.794441966811723"><ele>342.0</ele><time>2026-04-27T08:32:01.001Z</time></trkpt><trkpt lat="42.28026467448131" lon="13.79434228075938"><ele>342.0</ele><time>2026-04-27T08:32:02.001Z</time></trkpt><trkpt lat="42.28039198370343" lon="13.794231246223204"><ele>342.0</ele><time>2026-04-27T08:32:03.001Z</time></trkpt><trkpt lat="42.280518770634856" lon="13.794123290762082"><ele>342.0</ele><time>2026-04-27T08:32:04.001Z</time></trkpt><trkpt lat="42.28065284596095" lon="13.79401676535341"><ele>342.0</ele><time>2026-04-27T08:32:05.001Z</time></trkpt><trkpt lat="42.28079442306539" lon="13.793939790535823"><ele>342.0</ele><time>2026-04-27T08:32:06.001Z</time></trkpt><trkpt lat="42.28093577457776" lon="13.79384985116909"><ele>342.0</ele><time>2026-04-27T08:32:07.001Z</time></trkpt><trkpt lat="42.281070823632874" lon="13.793775333801621"><ele>342.0</ele><time>2026-04-27T08:32:08.001Z</time></trkpt><trkpt lat="42.28121040500505" lon="13.79370334045795"><ele>342.0</ele><time>2026-04-27T08:32:09.001Z</time></trkpt><trkpt lat="42.28135031939201" lon="13.793635048151552"><ele>342.0</ele><time>2026-04-27T08:32:10.001Z</time></trkpt><trkpt lat="42.281477902906246" lon="13.793565012687887"><ele>342.0</ele><time>2026-04-27T08:32:11.001Z</time></trkpt><trkpt lat="42.28160559607" lon="13.793484181519931"><ele>342.0</ele><time>2026-04-27T08:32:12.001Z</time></trkpt><trkpt lat="42.281710924810504" lon="13.793391875725389"><ele>342.0</ele><time>2026-04-27T08:32:13.001Z</time></trkpt><trkpt lat="42.281821898264084" lon="13.79331250768166"><ele>342.0</ele><time>2026-04-27T08:32:14.001Z</time></trkpt><trkpt lat="42.28193250348624" lon="13.793222953070128"><ele>342.0</ele><time>2026-04-27T08:32:15.001Z</time></trkpt><trkpt lat="42.28204879404575" lon="13.793124707265823"><ele>342.0</ele><time>2026-04-27T08:32:16.001Z</time></trkpt><trkpt lat="42.28216888223032" lon="13.79303127186934"><ele>342.0</ele><time>2026-04-27T08:32:17.001Z</time></trkpt><trkpt lat="42.28227911598356" lon="13.792919563916284"><ele>342.0</ele><time>2026-04-27T08:32:18.001Z</time></trkpt><trkpt lat="42.28239394386531" lon="13.79279147473235"><ele>342.25</ele><time>2026-04-27T08:32:19.001Z</time></trkpt><trkpt lat="42.28249031060863" lon="13.792653556439866"><ele>342.5</ele><time>2026-04-27T08:32:20.001Z</time></trkpt><trkpt lat="42.2825811204004" lon="13.79252213225716"><ele>342.75</ele><time>2026-04-27T08:32:21.001Z</time></trkpt><trkpt lat="42.282614871907576" lon="13.792380640659616"><ele>343.0</ele><time>2026-04-27T08:32:22.001Z</time></trkpt><trkpt lat="42.28264222840394" lon="13.7922666367184"><ele>343.0</ele><time>2026-04-27T08:32:23.001Z</time></trkpt><trkpt lat="42.282732735355026" lon="13.7921560298412"><ele>343.0</ele><time>2026-04-27T08:32:25.001Z</time></trkpt><trkpt lat="42.28279050055193" lon="13.792095852343463"><ele>343.0</ele><time>2026-04-27T08:32:26.001Z</time></trkpt><trkpt lat="42.28284186248126" lon="13.792045357934217"><ele>343.0</ele><time>2026-04-27T08:32:27Z</time></trkpt><trkpt lat="42.282924509864806" lon="13.791967166287865"><ele>343.0</ele><time>2026-04-27T08:32:29Z</time></trkpt><trkpt lat="42.28301777370581" lon="13.791861922503905"><ele>342.4</ele><time>2026-04-27T08:32:31Z</time></trkpt><trkpt lat="42.28307376974207" lon="13.791813220569498"><ele>341.79999999999995</ele><time>2026-04-27T08:32:32Z</time></trkpt><trkpt lat="42.28318203027388" lon="13.791738635415374"><ele>341.2</ele><time>2026-04-27T08:32:34Z</time></trkpt><trkpt lat="42.28328433777214" lon="13.791655098950285"><ele>340.6</ele><time>2026-04-27T08:32:36Z</time></trkpt><trkpt lat="42.28338613840578" lon="13.791572070762905"><ele>340.0</ele><time>2026-04-27T08:32:38Z</time></trkpt><trkpt lat="42.28344838343646" lon="13.791521303966837"><ele>341.4</ele><time>2026-04-27T08:32:40Z</time></trkpt><trkpt lat="42.28353351694012" lon="13.79145186948321"><ele>342.8</ele><time>2026-04-27T08:32:42Z</time></trkpt><trkpt lat="42.2836139364468" lon="13.791372610530745"><ele>344.20000000000005</ele><time>2026-04-27T08:32:44Z</time></trkpt><trkpt lat="42.283685611342115" lon="13.791319231808917"><ele>345.6</ele><time>2026-04-27T08:32:47Z</time></trkpt><trkpt lat="42.28375265955321" lon="13.791274627055735"><ele>347.0</ele><time>2026-04-27T08:32:49Z</time></trkpt><trkpt lat="42.283661211420615" lon="13.79109628545023"><ele>347.0</ele><time>2026-04-27T08:32:51Z</time></trkpt><trkpt lat="42.283583985314486" lon="13.791046907990696"><ele>347.0</ele><time>2026-04-27T08:32:52Z</time></trkpt><trkpt lat="42.283504325207474" lon="13.790947108980586"><ele>347.0</ele><time>2026-04-27T08:32:53Z</time></trkpt><trkpt lat="42.28341496285589" lon="13.790856282177288"><ele>347.0</ele><time>2026-04-27T08:32:54Z</time></trkpt><trkpt lat="42.28331099221923" lon="13.790767185784237"><ele>347.0</ele><time>2026-04-27T08:32:55Z</time></trkpt><trkpt lat="42.28322693943833" lon="13.790651189546463"><ele>347.20000000000005</ele><time>2026-04-27T08:32:56Z</time></trkpt><trkpt lat="42.2831603005227" lon="13.790547293640847"><ele>347.4</ele><time>2026-04-27T08:32:57Z</time></trkpt><trkpt lat="42.28310638209593" lon="13.79046137064263"><ele>347.6</ele><time>2026-04-27T08:32:58Z</time></trkpt><trkpt lat="42.28306365154628" lon="13.790380738710441"><ele>347.79999999999995</ele><time>2026-04-27T08:32:59Z</time></trkpt><trkpt lat="42.28305900747315" lon="13.790234775163768"><ele>348.0</ele><time>2026-04-27T08:33:01Z</time></trkpt><trkpt lat="42.28305727189844" lon="13.790120085657984"><ele>348.0</ele><time>2026-04-27T08:33:02Z</time></trkpt><trkpt lat="42.28307238823364" lon="13.790011631031199"><ele>348.0</ele><time>2026-04-27T08:33:03Z</time></trkpt><trkpt lat="42.28307980202228" lon="13.789916202839692"><ele>348.0</ele><time>2026-04-27T08:33:04Z</time></trkpt><trkpt lat="42.28308759639155" lon="13.789829745612186"><ele>348.0</ele><time>2026-04-27T08:33:05Z</time></trkpt><trkpt lat="42.28306921720307" lon="13.789673744491214"><ele>348.0</ele><time>2026-04-27T08:33:07Z</time></trkpt><trkpt lat="42.28308760098223" lon="13.789543802461981"><ele>348.0</ele><time>2026-04-27T08:33:08Z</time></trkpt><trkpt lat="42.283215451249006" lon="13.789421397065087"><ele>347.4</ele><time>2026-04-27T08:33:09Z</time></trkpt><trkpt lat="42.283227162536456" lon="13.789326346424664"><ele>346.79999999999995</ele><time>2026-04-27T08:33:10Z</time></trkpt><trkpt lat="42.283242912032684" lon="13.789158204271988"><ele>346.2</ele><time>2026-04-27T08:33:12Z</time></trkpt><trkpt lat="42.28326530989959" lon="13.789057025285475"><ele>345.6</ele><time>2026-04-27T08:33:13Z</time></trkpt><trkpt lat="42.2832911172141" lon="13.788958199771445"><ele>345.0</ele><time>2026-04-27T08:33:14Z</time></trkpt><trkpt lat="42.28333221764866" lon="13.788837143381414"><ele>345.0</ele><time>2026-04-27T08:33:15Z</time></trkpt><trkpt lat="42.28336353604619" lon="13.78869872745777"><ele>345.0</ele><time>2026-04-27T08:33:16Z</time></trkpt><trkpt lat="42.28338725089732" lon="13.78855655295259"><ele>345.0</ele><time>2026-04-27T08:33:17Z</time></trkpt><trkpt lat="42.2833979912985" lon="13.788456869226795"><ele>345.0</ele><time>2026-04-27T08:33:18Z</time></trkpt><trkpt lat="42.28340528826046" lon="13.78832250646919"><ele>345.0</ele><time>2026-04-27T08:33:19Z</time></trkpt><trkpt lat="42.28340428637748" lon="13.788180096828462"><ele>344.0</ele><time>2026-04-27T08:33:20Z</time></trkpt><trkpt lat="42.283383396752825" lon="13.788021379880917"><ele>343.0</ele><time>2026-04-27T08:33:21Z</time></trkpt><trkpt lat="42.28334122816429" lon="13.787864410000482"><ele>342.0</ele><time>2026-04-27T08:33:22Z</time></trkpt><trkpt lat="42.28327809025322" lon="13.787695910368601"><ele>341.0</ele><time>2026-04-27T08:33:23Z</time></trkpt><trkpt lat="42.283213716763335" lon="13.787573717033526"><ele>341.0</ele><time>2026-04-27T08:33:24.001Z</time></trkpt><trkpt lat="42.28315227032795" lon="13.787482343937166"><ele>341.0</ele><time>2026-04-27T08:33:25.001Z</time></trkpt><trkpt lat="42.28309249362101" lon="13.787400813435005"><ele>341.0</ele><time>2026-04-27T08:33:26.001Z</time></trkpt><trkpt lat="42.28304224460559" lon="13.787314672048337"><ele>341.0</ele><time>2026-04-27T08:33:27.001Z</time></trkpt><trkpt lat="42.28299757026044" lon="13.787231656477555"><ele>341.0</ele><time>2026-04-27T08:33:28.001Z</time></trkpt><trkpt lat="42.2829356691044" lon="13.787113545506452"><ele>341.0</ele><time>2026-04-27T08:33:29.001Z</time></trkpt><trkpt lat="42.282875022630975" lon="13.78698838265092"><ele>341.0</ele><time>2026-04-27T08:33:30.001Z</time></trkpt><trkpt lat="42.282801496678" lon="13.786854332153851"><ele>341.0</ele><time>2026-04-27T08:33:31.001Z</time></trkpt><trkpt lat="42.282733631425536" lon="13.786697419375813"><ele>341.0</ele><time>2026-04-27T08:33:32.001Z</time></trkpt><trkpt lat="42.28267994466109" lon="13.786560030248742"><ele>341.0</ele><time>2026-04-27T08:33:33.001Z</time></trkpt><trkpt lat="42.2826239860256" lon="13.786418642607877"><ele>341.0</ele><time>2026-04-27T08:33:34.001Z</time></trkpt><trkpt lat="42.282570145416045" lon="13.78626567767541"><ele>341.0</ele><time>2026-04-27T08:33:35.001Z</time></trkpt><trkpt lat="42.28251334686001" lon="13.786101944732378"><ele>341.0</ele><time>2026-04-27T08:33:36.001Z</time></trkpt><trkpt lat="42.28246004724768" lon="13.785912876215965"><ele>341.0</ele><time>2026-04-27T08:33:37.001Z</time></trkpt><trkpt lat="42.2824005722804" lon="13.785746291100635"><ele>340.6666666666667</ele><time>2026-04-27T08:33:38.001Z</time></trkpt><trkpt lat="42.28233540867868" lon="13.785546591005994"><ele>340.3333333333333</ele><time>2026-04-27T08:33:39.001Z</time></trkpt><trkpt lat="42.28227727292782" lon="13.785336547025024"><ele>340.0</ele><time>2026-04-27T08:33:40.001Z</time></trkpt><trkpt lat="42.282220191343384" lon="13.78511024284799"><ele>340.0</ele><time>2026-04-27T08:33:41.001Z</time></trkpt><trkpt lat="42.28215957999535" lon="13.784874692645452"><ele>340.0</ele><time>2026-04-27T08:33:42.001Z</time></trkpt><trkpt lat="42.2820935613292" lon="13.784621555966325"><ele>340.0</ele><time>2026-04-27T08:33:43.001Z</time></trkpt><trkpt lat="42.28202680777725" lon="13.784359816285583"><ele>340.0</ele><time>2026-04-27T08:33:44.001Z</time></trkpt><trkpt lat="42.28198320555395" lon="13.784123309349779"><ele>340.0</ele><time>2026-04-27T08:33:45.001Z</time></trkpt><trkpt lat="42.28192549584741" lon="13.783891258032165"><ele>340.0</ele><time>2026-04-27T08:33:46.001Z</time></trkpt><trkpt lat="42.2818704441761" lon="13.783680971760674"><ele>339.66666666666663</ele><time>2026-04-27T08:33:47.001Z</time></trkpt><trkpt lat="42.28181362905867" lon="13.78345705099435"><ele>339.3333333333333</ele><time>2026-04-27T08:33:48.001Z</time></trkpt><trkpt lat="42.28175364032743" lon="13.783228444782202"><ele>339.0</ele><time>2026-04-27T08:33:49.001Z</time></trkpt><trkpt lat="42.28168382409281" lon="13.783006507566784"><ele>339.0</ele><time>2026-04-27T08:33:50.001Z</time></trkpt><trkpt lat="42.28161401292523" lon="13.782790545613684"><ele>339.0</ele><time>2026-04-27T08:33:51.001Z</time></trkpt><trkpt lat="42.281533088227036" lon="13.782568122639791"><ele>339.0</ele><time>2026-04-27T08:33:52.001Z</time></trkpt><trkpt lat="42.281443453703666" lon="13.782345625998348"><ele>340.0</ele><time>2026-04-27T08:33:53.001Z</time></trkpt><trkpt lat="42.281364223003514" lon="13.782122235627403"><ele>341.0</ele><time>2026-04-27T08:33:54.001Z</time></trkpt><trkpt lat="42.281284615843" lon="13.781876281651375"><ele>342.0</ele><time>2026-04-27T08:33:55.001Z</time></trkpt><trkpt lat="42.28120926372348" lon="13.781645446414231"><ele>342.0</ele><time>2026-04-27T08:33:56.001Z</time></trkpt><trkpt lat="42.281138298953074" lon="13.781424230678876"><ele>342.0</ele><time>2026-04-27T08:33:57.001Z</time></trkpt><trkpt lat="42.281072395988126" lon="13.781220080727566"><ele>342.0</ele><time>2026-04-27T08:33:58.001Z</time></trkpt><trkpt lat="42.281002077778375" lon="13.780994906622624"><ele>341.6666666666667</ele><time>2026-04-27T08:33:59.001Z</time></trkpt><trkpt lat="42.28095065190289" lon="13.780772492973638"><ele>341.33333333333337</ele><time>2026-04-27T08:34:00.001Z</time></trkpt><trkpt lat="42.28089511912088" lon="13.780542676977264"><ele>341.0</ele><time>2026-04-27T08:34:01.001Z</time></trkpt><trkpt lat="42.28084426307969" lon="13.78035165372889"><ele>341.75</ele><time>2026-04-27T08:34:02.001Z</time></trkpt><trkpt lat="42.28080658706897" lon="13.780175905843103"><ele>342.5</ele><time>2026-04-27T08:34:03.001Z</time></trkpt><trkpt lat="42.28077210819023" lon="13.780002778674346"><ele>343.25</ele><time>2026-04-27T08:34:04.001Z</time></trkpt><trkpt lat="42.280715957091864" lon="13.779823882175041"><ele>344.0</ele><time>2026-04-27T08:34:05.001Z</time></trkpt><trkpt lat="42.28064319727089" lon="13.779620806479963"><ele>344.0</ele><time>2026-04-27T08:34:06.001Z</time></trkpt><trkpt lat="42.280560085383236" lon="13.77943994682903"><ele>344.0</ele><time>2026-04-27T08:34:07.001Z</time></trkpt><trkpt lat="42.280486439894254" lon="13.77926033074966"><ele>344.0</ele><time>2026-04-27T08:34:08.001Z</time></trkpt><trkpt lat="42.28043423145602" lon="13.779100929466507"><ele>344.0</ele><time>2026-04-27T08:34:09.001Z</time></trkpt><trkpt lat="42.280399068241415" lon="13.778930476898815"><ele>344.33333333333337</ele><time>2026-04-27T08:34:10.001Z</time></trkpt><trkpt lat="42.280374346965715" lon="13.778745872602247"><ele>344.6666666666667</ele><time>2026-04-27T08:34:11.001Z</time></trkpt><trkpt lat="42.28035206782817" lon="13.778546279161624"><ele>345.0</ele><time>2026-04-27T08:34:12.001Z</time></trkpt><trkpt lat="42.28032742602813" lon="13.778304715903392"><ele>345.0</ele><time>2026-04-27T08:34:13.001Z</time></trkpt><trkpt lat="42.28030361778354" lon="13.778060895647831"><ele>345.0</ele><time>2026-04-27T08:34:14.001Z</time></trkpt><trkpt lat="42.28027296133263" lon="13.777808379362646"><ele>345.0</ele><time>2026-04-27T08:34:15.001Z</time></trkpt><trkpt lat="42.28023411301145" lon="13.77755426998951"><ele>345.3333333333333</ele><time>2026-04-27T08:34:16.001Z</time></trkpt><trkpt lat="42.28020375185059" lon="13.777331368868838"><ele>345.66666666666663</ele><time>2026-04-27T08:34:17.001Z</time></trkpt><trkpt lat="42.280172134084005" lon="13.777137043978088"><ele>346.0</ele><time>2026-04-27T08:34:18.001Z</time></trkpt><trkpt lat="42.28013101620399" lon="13.776926071655192"><ele>346.0</ele><time>2026-04-27T08:34:19.001Z</time></trkpt><trkpt lat="42.28008547761037" lon="13.776694208582844"><ele>346.0</ele><time>2026-04-27T08:34:20.001Z</time></trkpt><trkpt lat="42.28003445868036" lon="13.776445787775053"><ele>346.0</ele><time>2026-04-27T08:34:21.001Z</time></trkpt><trkpt lat="42.28000005849701" lon="13.776227383905708"><ele>346.0</ele><time>2026-04-27T08:34:22.001Z</time></trkpt><trkpt lat="42.27998050883597" lon="13.776030210223038"><ele>346.0</ele><time>2026-04-27T08:34:23.001Z</time></trkpt><trkpt lat="42.27996222517173" lon="13.775840271310392"><ele>346.0</ele><time>2026-04-27T08:34:24Z</time></trkpt><trkpt lat="42.27996106679721" lon="13.775664498113816"><ele>346.0</ele><time>2026-04-27T08:34:25Z</time></trkpt><trkpt lat="42.27997044566916" lon="13.775523301703338"><ele>346.0</ele><time>2026-04-27T08:34:26Z</time></trkpt><trkpt lat="42.28001175183281" lon="13.775392824757848"><ele>346.0</ele><time>2026-04-27T08:34:28Z</time></trkpt><trkpt lat="42.2801492324202" lon="13.775308434378193"><ele>346.0</ele><time>2026-04-27T08:34:30Z</time></trkpt><trkpt lat="42.28024088992556" lon="13.775260561484899"><ele>346.0</ele><time>2026-04-27T08:34:31Z</time></trkpt><trkpt lat="42.28035764361892" lon="13.775181202388437"><ele>346.0</ele><time>2026-04-27T08:34:32Z</time></trkpt><trkpt lat="42.280476903872405" lon="13.775099834965296"><ele>346.0</ele><time>2026-04-27T08:34:33Z</time></trkpt><trkpt lat="42.28059761968686" lon="13.775013677309797"><ele>346.0</ele><time>2026-04-27T08:34:34Z</time></trkpt><trkpt lat="42.28073338692171" lon="13.774923251179889"><ele>346.0</ele><time>2026-04-27T08:34:35Z</time></trkpt><trkpt lat="42.280881642686246" lon="13.774825123566611"><ele>346.25</ele><time>2026-04-27T08:34:36Z</time></trkpt><trkpt lat="42.281015678036916" lon="13.774733685890485"><ele>346.5</ele><time>2026-04-27T08:34:37Z</time></trkpt><trkpt lat="42.2811339589438" lon="13.774653127377983"><ele>346.75</ele><time>2026-04-27T08:34:38Z</time></trkpt><trkpt lat="42.281242242346444" lon="13.774578155776767"><ele>347.0</ele><time>2026-04-27T08:34:39Z</time></trkpt><trkpt lat="42.281343037729584" lon="13.774521782441386"><ele>347.40000000000003</ele><time>2026-04-27T08:34:40Z</time></trkpt><trkpt lat="42.28143741381376" lon="13.774471305880475"><ele>347.8</ele><time>2026-04-27T08:34:41Z</time></trkpt><trkpt lat="42.28152023097121" lon="13.7744200162226"><ele>348.2</ele><time>2026-04-27T08:34:42Z</time></trkpt><trkpt lat="42.28162310503625" lon="13.774384688654397"><ele>348.6</ele><time>2026-04-27T08:34:44Z</time></trkpt><trkpt lat="42.281731026704854" lon="13.774523331071078"><ele>349.0</ele><time>2026-04-27T08:34:46Z</time></trkpt><trkpt lat="42.281836503369064" lon="13.774551627214795"><ele>349.0</ele><time>2026-04-27T08:34:47Z</time></trkpt><trkpt lat="42.28195723960428" lon="13.774596298397297"><ele>349.0</ele><time>2026-04-27T08:34:48Z</time></trkpt><trkpt lat="42.28207553912103" lon="13.774612238125565"><ele>349.0</ele><time>2026-04-27T08:34:49Z</time></trkpt><trkpt lat="42.28217977323859" lon="13.774626048467162"><ele>349.0</ele><time>2026-04-27T08:34:50Z</time></trkpt><trkpt lat="42.28227497488657" lon="13.774648538260161"><ele>349.0</ele><time>2026-04-27T08:34:51Z</time></trkpt><trkpt lat="42.28236931244484" lon="13.774677651240255"><ele>348.8333333333333</ele><time>2026-04-27T08:34:52Z</time></trkpt><trkpt lat="42.282455660360014" lon="13.774708993500862"><ele>348.66666666666663</ele><time>2026-04-27T08:34:53Z</time></trkpt><trkpt lat="42.28250904632723" lon="13.774755001656061"><ele>348.5</ele><time>2026-04-27T08:34:54Z</time></trkpt><trkpt lat="42.282629066048834" lon="13.77466237577279"><ele>348.3333333333333</ele><time>2026-04-27T08:34:56Z</time></trkpt><trkpt lat="42.282698972071394" lon="13.774607715984715"><ele>348.1666666666667</ele><time>2026-04-27T08:34:57Z</time></trkpt><trkpt lat="42.28276631838102" lon="13.77456191344553"><ele>348.0</ele><time>2026-04-27T08:34:58Z</time></trkpt><trkpt lat="42.28282747827054" lon="13.7745211249681"><ele>348.0</ele><time>2026-04-27T08:34:59Z</time></trkpt><trkpt lat="42.282926213350706" lon="13.77444226389535"><ele>348.0</ele><time>2026-04-27T08:35:01Z</time></trkpt><trkpt lat="42.282984392613386" lon="13.774399357581094"><ele>348.0</ele><time>2026-04-27T08:35:03Z</time></trkpt><trkpt lat="42.28305148804225" lon="13.774377872129888"><ele>348.0</ele><time>2026-04-27T08:35:05Z</time></trkpt><trkpt lat="42.283114799908" lon="13.774336645963107"><ele>348.0</ele><time>2026-04-27T08:35:07Z</time></trkpt><trkpt lat="42.283184496850694" lon="13.774202491089204"><ele>348.0</ele><time>2026-04-27T08:35:08Z</time></trkpt><trkpt lat="42.28322994472076" lon="13.774134322113762"><ele>348.5</ele><time>2026-04-27T08:35:09Z</time></trkpt><trkpt lat="42.283280500281975" lon="13.774049375067593"><ele>349.0</ele><time>2026-04-27T08:35:11Z</time></trkpt><trkpt lat="42.28332110360961" lon="13.773982470589463"><ele>349.5</ele><time>2026-04-27T08:35:15Z</time></trkpt><trkpt lat="42.28337484412537" lon="13.773886467494671"><ele>350.0</ele><time>2026-04-27T08:35:17Z</time></trkpt><trkpt lat="42.2834352492501" lon="13.773765043468876"><ele>350.5</ele><time>2026-04-27T08:35:19Z</time></trkpt><trkpt lat="42.28347414120214" lon="13.77368686437104"><ele>351.0</ele><time>2026-04-27T08:35:20Z</time></trkpt><trkpt lat="42.28351919817032" lon="13.77359629166413"><ele>354.0</ele><time>2026-04-27T08:35:21Z</time></trkpt><trkpt lat="42.283611216979175" lon="13.773448413367337"><ele>357.0</ele><time>2026-04-27T08:35:23Z</time></trkpt><trkpt lat="42.28366110998229" lon="13.77336164503697"><ele>360.0</ele><time>2026-04-27T08:35:24Z</time></trkpt><trkpt lat="42.28371582581127" lon="13.773266489340944"><ele>363.0</ele><time>2026-04-27T08:35:25Z</time></trkpt><trkpt lat="42.28377224021131" lon="13.773168379697168"><ele>366.0</ele><time>2026-04-27T08:35:26Z</time></trkpt><trkpt lat="42.28382650267733" lon="13.773074012464097"><ele>366.0</ele><time>2026-04-27T08:35:27Z</time></trkpt><trkpt lat="42.28386964184288" lon="13.772998989394745"><ele>366.0</ele><time>2026-04-27T08:35:28Z</time></trkpt><trkpt lat="42.283913447171635" lon="13.772924385046535"><ele>366.0</ele><time>2026-04-27T08:35:29Z</time></trkpt><trkpt lat="42.28397024329627" lon="13.77282733642597"><ele>366.0</ele><time>2026-04-27T08:35:30Z</time></trkpt><trkpt lat="42.28399403096623" lon="13.772721702395213"><ele>366.0</ele><time>2026-04-27T08:35:31Z</time></trkpt><trkpt lat="42.28403576623534" lon="13.77261447076531"><ele>366.0</ele><time>2026-04-27T08:35:32Z</time></trkpt><trkpt lat="42.28412719858558" lon="13.772298355482855"><ele>365.5</ele><time>2026-04-27T08:35:33Z</time></trkpt><trkpt lat="42.28411852934838" lon="13.772173080346516"><ele>365.0</ele><time>2026-04-27T08:35:34Z</time></trkpt><trkpt lat="42.28410596100235" lon="13.772053495362252"><ele>364.5</ele><time>2026-04-27T08:35:35Z</time></trkpt><trkpt lat="42.284094274420234" lon="13.77192963489843"><ele>364.0</ele><time>2026-04-27T08:35:36Z</time></trkpt><trkpt lat="42.2835797177186" lon="13.771570053241991"><ele>367.2</ele><time>2026-04-27T08:35:37Z</time></trkpt><trkpt lat="42.28355123341727" lon="13.771379859359579"><ele>370.4</ele><time>2026-04-27T08:35:39Z</time></trkpt><trkpt lat="42.28353138988646" lon="13.771241973981416"><ele>373.6</ele><time>2026-04-27T08:35:40Z</time></trkpt><trkpt lat="42.28351083199327" lon="13.771104720494627"><ele>376.8</ele><time>2026-04-27T08:35:41Z</time></trkpt><trkpt lat="42.283504172280985" lon="13.770994785427789"><ele>380.0</ele><time>2026-04-27T08:35:42Z</time></trkpt><trkpt lat="42.283487550296684" lon="13.770883483438789"><ele>380.0</ele><time>2026-04-27T08:35:43Z</time></trkpt><trkpt lat="42.28346947903019" lon="13.770787096076837"><ele>380.0</ele><time>2026-04-27T08:35:44Z</time></trkpt><trkpt lat="42.283465103437265" lon="13.770627399274936"><ele>380.0</ele><time>2026-04-27T08:35:46Z</time></trkpt><trkpt lat="42.28348892058587" lon="13.770475059488628"><ele>380.0</ele><time>2026-04-27T08:35:48Z</time></trkpt><trkpt lat="42.2834915392741" lon="13.770363157910474"><ele>380.0</ele><time>2026-04-27T08:35:49Z</time></trkpt><trkpt lat="42.28349163886168" lon="13.770248450108019"><ele>379.6666666666667</ele><time>2026-04-27T08:35:50Z</time></trkpt><trkpt lat="42.2834752786161" lon="13.770141853036806"><ele>379.33333333333337</ele><time>2026-04-27T08:35:51Z</time></trkpt><trkpt lat="42.28344335493024" lon="13.770055815838345"><ele>379.0</ele><time>2026-04-27T08:35:52Z</time></trkpt><trkpt lat="42.283406959425285" lon="13.769971752990955"><ele>378.6666666666667</ele><time>2026-04-27T08:35:53Z</time></trkpt><trkpt lat="42.28338954354793" lon="13.769882034788024"><ele>378.3333333333333</ele><time>2026-04-27T08:35:54Z</time></trkpt><trkpt lat="42.283401272694796" lon="13.769769324508943"><ele>378.0</ele><time>2026-04-27T08:35:55Z</time></trkpt><trkpt lat="42.28340753778744" lon="13.769655917195303"><ele>378.0</ele><time>2026-04-27T08:35:56Z</time></trkpt><trkpt lat="42.28339708196431" lon="13.76953216058555"><ele>378.0</ele><time>2026-04-27T08:35:57Z</time></trkpt><trkpt lat="42.28337957085113" lon="13.769404299866494"><ele>378.0</ele><time>2026-04-27T08:35:58Z</time></trkpt><trkpt lat="42.28337370979966" lon="13.769285227412093"><ele>378.0</ele><time>2026-04-27T08:35:59Z</time></trkpt><trkpt lat="42.28336803643872" lon="13.76916240646418"><ele>378.0</ele><time>2026-04-27T08:36:00Z</time></trkpt><trkpt lat="42.28336728746382" lon="13.769060705152118"><ele>378.0</ele><time>2026-04-27T08:36:01Z</time></trkpt><trkpt lat="42.28335874567801" lon="13.768962933180621"><ele>379.6666666666667</ele><time>2026-04-27T08:36:02Z</time></trkpt><trkpt lat="42.28333888674469" lon="13.76887383169148"><ele>381.33333333333337</ele><time>2026-04-27T08:36:03Z</time></trkpt><trkpt lat="42.28331556049925" lon="13.768788077799522"><ele>383.0</ele><time>2026-04-27T08:36:05Z</time></trkpt><trkpt lat="42.28331948973677" lon="13.768621386089947"><ele>384.6666666666667</ele><time>2026-04-27T08:36:07Z</time></trkpt><trkpt lat="42.283318443210014" lon="13.768524522845002"><ele>386.33333333333337</ele><time>2026-04-27T08:36:08Z</time></trkpt><trkpt lat="42.28331591256326" lon="13.768419593828575"><ele>388.0</ele><time>2026-04-27T08:36:09Z</time></trkpt><trkpt lat="42.28329041955769" lon="13.768260934079686"><ele>390.59999999999997</ele><time>2026-04-27T08:36:11Z</time></trkpt><trkpt lat="42.28329543737264" lon="13.768144657254492"><ele>393.2</ele><time>2026-04-27T08:36:12Z</time></trkpt><trkpt lat="42.28330633779378" lon="13.768027650032987"><ele>395.8</ele><time>2026-04-27T08:36:13Z</time></trkpt><trkpt lat="42.283318286635826" lon="13.767892130108491"><ele>398.4</ele><time>2026-04-27T08:36:14Z</time></trkpt><trkpt lat="42.28333203363102" lon="13.767748449788241"><ele>401.0</ele><time>2026-04-27T08:36:15Z</time></trkpt><trkpt lat="42.28335451042489" lon="13.767589146808152"><ele>402.0</ele><time>2026-04-27T08:36:16Z</time></trkpt><trkpt lat="42.28338391639185" lon="13.767432517648546"><ele>403.0</ele><time>2026-04-27T08:36:17Z</time></trkpt><trkpt lat="42.283408986855235" lon="13.767258176217297"><ele>404.0</ele><time>2026-04-27T08:36:18Z</time></trkpt><trkpt lat="42.283428799408505" lon="13.767082755425353"><ele>405.0</ele><time>2026-04-27T08:36:19Z</time></trkpt><trkpt lat="42.283447676358314" lon="13.766933101932285"><ele>403.8</ele><time>2026-04-27T08:36:20Z</time></trkpt><trkpt lat="42.28346402332038" lon="13.76680207718756"><ele>402.6</ele><time>2026-04-27T08:36:21Z</time></trkpt><trkpt lat="42.283496019738266" lon="13.766671682328218"><ele>401.4</ele><time>2026-04-27T08:36:22Z</time></trkpt><trkpt lat="42.28351274523534" lon="13.766533400434685"><ele>400.2</ele><time>2026-04-27T08:36:23Z</time></trkpt><trkpt lat="42.28352632326809" lon="13.766384160984828"><ele>399.0</ele><time>2026-04-27T08:36:24Z</time></trkpt><trkpt lat="42.28354103085102" lon="13.766223665160378"><ele>399.0</ele><time>2026-04-27T08:36:25Z</time></trkpt><trkpt lat="42.28355132711981" lon="13.766059066151534"><ele>399.0</ele><time>2026-04-27T08:36:26Z</time></trkpt><trkpt lat="42.28356534093286" lon="13.765890485804709"><ele>399.0</ele><time>2026-04-27T08:36:27Z</time></trkpt><trkpt lat="42.28356924073969" lon="13.765732273440122"><ele>399.0</ele><time>2026-04-27T08:36:28Z</time></trkpt><trkpt lat="42.283581162543214" lon="13.765577328164696"><ele>397.2</ele><time>2026-04-27T08:36:29Z</time></trkpt><trkpt lat="42.28359303313946" lon="13.765419705877795"><ele>395.4</ele><time>2026-04-27T08:36:30Z</time></trkpt><trkpt lat="42.28361071742122" lon="13.765302477454197"><ele>393.6</ele><time>2026-04-27T08:36:31Z</time></trkpt><trkpt lat="42.283631656398384" lon="13.76518508464043"><ele>391.8</ele><time>2026-04-27T08:36:32Z</time></trkpt><trkpt lat="42.28366205103548" lon="13.765099921887721"><ele>390.0</ele><time>2026-04-27T08:36:33Z</time></trkpt><trkpt lat="42.28366054040881" lon="13.76496512808695"><ele>388.75</ele><time>2026-04-27T08:36:34Z</time></trkpt><trkpt lat="42.28369126830512" lon="13.764800337038691"><ele>387.5</ele><time>2026-04-27T08:36:35Z</time></trkpt><trkpt lat="42.283753039956764" lon="13.764727626561129"><ele>386.25</ele><time>2026-04-27T08:36:36Z</time></trkpt><trkpt lat="42.28377752248881" lon="13.764542286640806"><ele>385.0</ele><time>2026-04-27T08:36:37Z</time></trkpt><trkpt lat="42.283865141216836" lon="13.764411696480062"><ele>385.5</ele><time>2026-04-27T08:36:38Z</time></trkpt><trkpt lat="42.28396145351083" lon="13.764265589973496"><ele>386.0</ele><time>2026-04-27T08:36:39Z</time></trkpt><trkpt lat="42.28404087642869" lon="13.764139763918607"><ele>386.5</ele><time>2026-04-27T08:36:40Z</time></trkpt><trkpt lat="42.28410333852346" lon="13.764039189193518"><ele>387.0</ele><time>2026-04-27T08:36:41Z</time></trkpt><trkpt lat="42.284162147592795" lon="13.763943237527137"><ele>387.0</ele><time>2026-04-27T08:36:42Z</time></trkpt><trkpt lat="42.28420734445247" lon="13.763868453602505"><ele>387.0</ele><time>2026-04-27T08:36:43Z</time></trkpt><trkpt lat="42.28415511599626" lon="13.76378929767495"><ele>387.0</ele><time>2026-04-27T08:36:48Z</time></trkpt><trkpt lat="42.284069320128545" lon="13.763796855192858"><ele>387.0</ele><time>2026-04-27T08:36:49Z</time></trkpt><trkpt lat="42.28397795576187" lon="13.763800040539422"><ele>387.0</ele><time>2026-04-27T08:36:50Z</time></trkpt><trkpt lat="42.28387553914355" lon="13.763796030205723"><ele>387.0</ele><time>2026-04-27T08:36:51Z</time></trkpt><trkpt lat="42.2837540931613" lon="13.76376205298519"><ele>387.0</ele><time>2026-04-27T08:36:52Z</time></trkpt><trkpt lat="42.28362825934032" lon="13.763766903647117"><ele>387.0</ele><time>2026-04-27T08:36:53Z</time></trkpt><trkpt lat="42.28348913262148" lon="13.763742056601687"><ele>387.0</ele><time>2026-04-27T08:36:54Z</time></trkpt><trkpt lat="42.283360958423856" lon="13.763734487359262"><ele>387.0</ele><time>2026-04-27T08:36:55Z</time></trkpt><trkpt lat="42.28325489798668" lon="13.763724310295604"><ele>387.0</ele><time>2026-04-27T08:36:56Z</time></trkpt><trkpt lat="42.28314747946924" lon="13.763718787442142"><ele>387.0</ele><time>2026-04-27T08:36:57Z</time></trkpt><trkpt lat="42.28303100499816" lon="13.763687547275781"><ele>387.0</ele><time>2026-04-27T08:36:58Z</time></trkpt><trkpt lat="42.28291948350876" lon="13.763692432745623"><ele>387.0</ele><time>2026-04-27T08:36:59Z</time></trkpt><trkpt lat="42.28283175104629" lon="13.763717478045654"><ele>387.0</ele><time>2026-04-27T08:37:00Z</time></trkpt><trkpt lat="42.282754260229375" lon="13.763750993335778"><ele>388.0</ele><time>2026-04-27T08:37:01Z</time></trkpt><trkpt lat="42.2826489590724" lon="13.76382729806856"><ele>389.0</ele><time>2026-04-27T08:37:03Z</time></trkpt><trkpt lat="42.28253958529801" lon="13.763775720988047"><ele>390.0</ele><time>2026-04-27T08:37:04Z</time></trkpt><trkpt lat="42.282514261316976" lon="13.763859064477513"><ele>391.0</ele><time>2026-04-27T08:37:05Z</time></trkpt><trkpt lat="42.282253304393265" lon="13.763508985489509"><ele>393.33333333333337</ele><time>2026-04-27T08:37:07Z</time></trkpt><trkpt lat="42.282164635337445" lon="13.763514902139706"><ele>395.6666666666667</ele><time>2026-04-27T08:37:08Z</time></trkpt><trkpt lat="42.28208616940667" lon="13.763544489958736"><ele>398.0</ele><time>2026-04-27T08:37:09Z</time></trkpt><trkpt lat="42.281999969515034" lon="13.763580970988155"><ele>400.33333333333337</ele><time>2026-04-27T08:37:10Z</time></trkpt><trkpt lat="42.281906107181065" lon="13.763603048508742"><ele>402.6666666666667</ele><time>2026-04-27T08:37:11Z</time></trkpt><trkpt lat="42.2818319885228" lon="13.76359241726779"><ele>405.0</ele><time>2026-04-27T08:37:12Z</time></trkpt><trkpt lat="42.281748225064256" lon="13.763563314708843"><ele>405.0</ele><time>2026-04-27T08:37:13Z</time></trkpt><trkpt lat="42.28167279002263" lon="13.763547755523541"><ele>405.0</ele><time>2026-04-27T08:37:14Z</time></trkpt><trkpt lat="42.281589308788114" lon="13.763564798529307"><ele>405.0</ele><time>2026-04-27T08:37:15Z</time></trkpt><trkpt lat="42.28148741515124" lon="13.763590469692769"><ele>405.0</ele><time>2026-04-27T08:37:16Z</time></trkpt><trkpt lat="42.281391288571946" lon="13.763627822486368"><ele>405.0</ele><time>2026-04-27T08:37:17Z</time></trkpt><trkpt lat="42.28127483608785" lon="13.763658014466158"><ele>408.1666666666667</ele><time>2026-04-27T08:37:18Z</time></trkpt><trkpt lat="42.2811928185662" lon="13.76367660598807"><ele>411.33333333333337</ele><time>2026-04-27T08:37:19Z</time></trkpt><trkpt lat="42.281109699673245" lon="13.76366444047532"><ele>414.5</ele><time>2026-04-27T08:37:20Z</time></trkpt><trkpt lat="42.28102883729874" lon="13.763631145572994"><ele>417.6666666666667</ele><time>2026-04-27T08:37:21Z</time></trkpt><trkpt lat="42.280946990610346" lon="13.763585701117588"><ele>420.83333333333337</ele><time>2026-04-27T08:37:22Z</time></trkpt><trkpt lat="42.28085991109599" lon="13.763557269046087"><ele>424.0</ele><time>2026-04-27T08:37:23Z</time></trkpt><trkpt lat="42.28079037974416" lon="13.76354067301922"><ele>422.83333333333337</ele><time>2026-04-27T08:37:24Z</time></trkpt><trkpt lat="42.28069450137292" lon="13.76350494621582"><ele>421.6666666666667</ele><time>2026-04-27T08:37:25Z</time></trkpt><trkpt lat="42.280621399054596" lon="13.763480825935273"><ele>420.5</ele><time>2026-04-27T08:37:26Z</time></trkpt><trkpt lat="42.28054732267857" lon="13.763453719628888"><ele>419.33333333333337</ele><time>2026-04-27T08:37:27Z</time></trkpt><trkpt lat="42.28046936516519" lon="13.76341610684698"><ele>418.1666666666667</ele><time>2026-04-27T08:37:28Z</time></trkpt><trkpt lat="42.280381409334964" lon="13.763395381127049"><ele>417.0</ele><time>2026-04-27T08:37:29Z</time></trkpt><trkpt lat="42.28030795507797" lon="13.763379261661726"><ele>422.40000000000003</ele><time>2026-04-27T08:37:30Z</time></trkpt><trkpt lat="42.280208882409426" lon="13.763338637031428"><ele>427.8</ele><time>2026-04-27T08:37:31Z</time></trkpt><trkpt lat="42.280124389462586" lon="13.76326332718519"><ele>433.2</ele><time>2026-04-27T08:37:32Z</time></trkpt><trkpt lat="42.28004053233613" lon="13.763153199550775"><ele>438.6</ele><time>2026-04-27T08:37:33Z</time></trkpt><trkpt lat="42.279974703558196" lon="13.763070648457145"><ele>444.0</ele><time>2026-04-27T08:37:34Z</time></trkpt><trkpt lat="42.27991847770405" lon="13.76300619896684"><ele>444.0</ele><time>2026-04-27T08:37:35Z</time></trkpt><trkpt lat="42.27984746130519" lon="13.762922225882308"><ele>444.0</ele><time>2026-04-27T08:37:36Z</time></trkpt><trkpt lat="42.27977431542218" lon="13.762835785369026"><ele>444.0</ele><time>2026-04-27T08:37:37Z</time></trkpt><trkpt lat="42.2796989433678" lon="13.762751512222517"><ele>444.0</ele><time>2026-04-27T08:37:38Z</time></trkpt><trkpt lat="42.27962747423324" lon="13.762678522067064"><ele>444.0</ele><time>2026-04-27T08:37:39Z</time></trkpt><trkpt lat="42.27953590010245" lon="13.76260349527982"><ele>448.0</ele><time>2026-04-27T08:37:40Z</time></trkpt><trkpt lat="42.279438498017136" lon="13.762545597819445"><ele>452.0</ele><time>2026-04-27T08:37:41Z</time></trkpt><trkpt lat="42.27932988601722" lon="13.76249952752407"><ele>456.0</ele><time>2026-04-27T08:37:42Z</time></trkpt><trkpt lat="42.27921574215989" lon="13.762487063195572"><ele>460.0</ele><time>2026-04-27T08:37:43Z</time></trkpt><trkpt lat="42.27909036417043" lon="13.762441616481553"><ele>460.0</ele><time>2026-04-27T08:37:44Z</time></trkpt><trkpt lat="42.27897939868868" lon="13.762386955167253"><ele>460.0</ele><time>2026-04-27T08:37:45Z</time></trkpt><trkpt lat="42.27886687024509" lon="13.762316568212364"><ele>460.0</ele><time>2026-04-27T08:37:46Z</time></trkpt><trkpt lat="42.278781389873814" lon="13.762279617551346"><ele>460.0</ele><time>2026-04-27T08:37:47Z</time></trkpt><trkpt lat="42.27866567913924" lon="13.762243002405631"><ele>461.8</ele><time>2026-04-27T08:37:48Z</time></trkpt><trkpt lat="42.278534162738886" lon="13.762188554087185"><ele>463.6</ele><time>2026-04-27T08:37:49Z</time></trkpt><trkpt lat="42.27843829416495" lon="13.762143444368986"><ele>465.4</ele><time>2026-04-27T08:37:50Z</time></trkpt><trkpt lat="42.278361996723206" lon="13.762077586801563"><ele>467.2</ele><time>2026-04-27T08:37:51Z</time></trkpt><trkpt lat="42.27830884789508" lon="13.76199214149023"><ele>469.0</ele><time>2026-04-27T08:37:52Z</time></trkpt><trkpt lat="42.27823384287538" lon="13.761888387615583"><ele>469.0</ele><time>2026-04-27T08:37:53Z</time></trkpt><trkpt lat="42.278170006908525" lon="13.761818456992545"><ele>469.0</ele><time>2026-04-27T08:37:54Z</time></trkpt><trkpt lat="42.2780827698207" lon="13.761779379247145"><ele>469.0</ele><time>2026-04-27T08:37:55Z</time></trkpt><trkpt lat="42.277976282361095" lon="13.761746389212485"><ele>469.0</ele><time>2026-04-27T08:37:56Z</time></trkpt><trkpt lat="42.27787018328351" lon="13.761729477777028"><ele>469.0</ele><time>2026-04-27T08:37:57Z</time></trkpt><trkpt lat="42.27775843760569" lon="13.76170639970009"><ele>470.6</ele><time>2026-04-27T08:37:58Z</time></trkpt><trkpt lat="42.27767150799576" lon="13.761695056727305"><ele>472.2</ele><time>2026-04-27T08:37:59Z</time></trkpt><trkpt lat="42.27758480747224" lon="13.761714118116721"><ele>473.80000000000007</ele><time>2026-04-27T08:38:00Z</time></trkpt><trkpt lat="42.277472802116634" lon="13.761757871440564"><ele>475.40000000000003</ele><time>2026-04-27T08:38:01Z</time></trkpt><trkpt lat="42.277348513604856" lon="13.761797161534213"><ele>477.0</ele><time>2026-04-27T08:38:02Z</time></trkpt><trkpt lat="42.27720066424079" lon="13.761800102280159"><ele>479.25</ele><time>2026-04-27T08:38:03Z</time></trkpt><trkpt lat="42.27706528406403" lon="13.761775227049394"><ele>481.5</ele><time>2026-04-27T08:38:04Z</time></trkpt><trkpt lat="42.27692963689661" lon="13.761747723582051"><ele>483.75</ele><time>2026-04-27T08:38:05Z</time></trkpt><trkpt lat="42.27680443358979" lon="13.76175020909967"><ele>486.0</ele><time>2026-04-27T08:38:06Z</time></trkpt><trkpt lat="42.27669264499291" lon="13.761754385420353"><ele>486.0</ele><time>2026-04-27T08:38:07Z</time></trkpt><trkpt lat="42.276593175293435" lon="13.761742719764039"><ele>486.0</ele><time>2026-04-27T08:38:08Z</time></trkpt><trkpt lat="42.276499859526304" lon="13.761695059867533"><ele>486.0</ele><time>2026-04-27T08:38:09Z</time></trkpt><trkpt lat="42.27641200201137" lon="13.761633377397581"><ele>486.0</ele><time>2026-04-27T08:38:10Z</time></trkpt><trkpt lat="42.276297585346725" lon="13.761568135453308"><ele>486.0</ele><time>2026-04-27T08:38:11Z</time></trkpt><trkpt lat="42.276171935077485" lon="13.761501125242575"><ele>489.25</ele><time>2026-04-27T08:38:12Z</time></trkpt><trkpt lat="42.27604160157814" lon="13.761429313509263"><ele>492.5</ele><time>2026-04-27T08:38:13Z</time></trkpt><trkpt lat="42.27591798837856" lon="13.761339985962476"><ele>495.75</ele><time>2026-04-27T08:38:14Z</time></trkpt><trkpt lat="42.2758171232701" lon="13.761245708733384"><ele>499.0</ele><time>2026-04-27T08:38:15Z</time></trkpt><trkpt lat="42.27573236568767" lon="13.761161605646972"><ele>499.0</ele><time>2026-04-27T08:38:16Z</time></trkpt><trkpt lat="42.27562065140885" lon="13.761082454079197"><ele>499.0</ele><time>2026-04-27T08:38:17Z</time></trkpt><trkpt lat="42.275493171442925" lon="13.76100229388406"><ele>499.0</ele><time>2026-04-27T08:38:18Z</time></trkpt><trkpt lat="42.27536215040638" lon="13.760909363463563"><ele>499.0</ele><time>2026-04-27T08:38:19Z</time></trkpt><trkpt lat="42.27521751463609" lon="13.760816734040668"><ele>500.0</ele><time>2026-04-27T08:38:20Z</time></trkpt><trkpt lat="42.27508812765105" lon="13.760739433657545"><ele>501.0</ele><time>2026-04-27T08:38:21Z</time></trkpt><trkpt lat="42.2749878566728" lon="13.76067697208073"><ele>502.0</ele><time>2026-04-27T08:38:22Z</time></trkpt><trkpt lat="42.274888006789226" lon="13.760618787731287"><ele>503.0</ele><time>2026-04-27T08:38:23Z</time></trkpt><trkpt lat="42.27479888358591" lon="13.760573805585175"><ele>502.99999999999994</ele><time>2026-04-27T08:38:24Z</time></trkpt><trkpt lat="42.274725064931786" lon="13.760525657835519"><ele>503.0</ele><time>2026-04-27T08:38:25Z</time></trkpt><trkpt lat="42.2746993330767" lon="13.760436565483241"><ele>503.0</ele><time>2026-04-27T08:38:28Z</time></trkpt><trkpt lat="42.27477494375427" lon="13.760365409512492"><ele>503.0</ele><time>2026-04-27T08:38:31Z</time></trkpt><trkpt lat="42.27486000379151" lon="13.760242816897021"><ele>502.99999999999994</ele><time>2026-04-27T08:39:02Z</time></trkpt><trkpt lat="42.27491707807173" lon="13.760166999039456"><ele>503.0</ele><time>2026-04-27T08:39:03Z</time></trkpt><trkpt lat="42.27498603464131" lon="13.760073358432404"><ele>503.0</ele><time>2026-04-27T08:39:04Z</time></trkpt><trkpt lat="42.27505494721571" lon="13.759981879638183"><ele>502.99999999999994</ele><time>2026-04-27T08:39:05Z</time></trkpt><trkpt lat="42.275127610456735" lon="13.759874968583626"><ele>502.99999999999994</ele><time>2026-04-27T08:39:06Z</time></trkpt><trkpt lat="42.2752046200226" lon="13.759756712660112"><ele>503.0</ele><time>2026-04-27T08:39:07Z</time></trkpt><trkpt lat="42.27528121727431" lon="13.759628776681557"><ele>503.0</ele><time>2026-04-27T08:39:08Z</time></trkpt><trkpt lat="42.27535601846402" lon="13.759498489678927"><ele>503.0</ele><time>2026-04-27T08:39:09Z</time></trkpt><trkpt lat="42.27542832538021" lon="13.75937559087304"><ele>503.0</ele><time>2026-04-27T08:39:10Z</time></trkpt><trkpt lat="42.27550722860775" lon="13.759249961559743"><ele>503.0</ele><time>2026-04-27T08:39:11Z</time></trkpt><trkpt lat="42.27558929188077" lon="13.759129691634621"><ele>503.0</ele><time>2026-04-27T08:39:12Z</time></trkpt><trkpt lat="42.27567126940164" lon="13.759017001323373"><ele>500.99999999999994</ele><time>2026-04-27T08:39:13Z</time></trkpt><trkpt lat="42.275751408377765" lon="13.75891520374348"><ele>499.0</ele><time>2026-04-27T08:39:14Z</time></trkpt><trkpt lat="42.27582824791661" lon="13.758819159218035"><ele>497.0</ele><time>2026-04-27T08:39:15Z</time></trkpt><trkpt lat="42.27588653385643" lon="13.758748936324064"><ele>495.0</ele><time>2026-04-27T08:39:16Z</time></trkpt><trkpt lat="42.275917590762816" lon="13.758668408389015"><ele>492.99999999999994</ele><time>2026-04-27T08:39:18Z</time></trkpt><trkpt lat="42.275859591331326" lon="13.758736631286231"><ele>491.0</ele><time>2026-04-27T08:39:21Z</time></trkpt><trkpt lat="42.27569645567377" lon="13.758641529387232"><ele>491.0</ele><time>2026-04-27T08:39:22Z</time></trkpt><trkpt lat="42.27561379390904" lon="13.758662317655986"><ele>491.0</ele><time>2026-04-27T08:39:23Z</time></trkpt><trkpt lat="42.2755496036355" lon="13.758673687250463"><ele>491.0</ele><time>2026-04-27T08:39:24Z</time></trkpt><trkpt lat="42.275419451640964" lon="13.758715171389282"><ele>491.0</ele><time>2026-04-27T08:39:26Z</time></trkpt><trkpt lat="42.27533299253644" lon="13.758749076979534"><ele>491.0</ele><time>2026-04-27T08:39:27Z</time></trkpt><trkpt lat="42.27524586709427" lon="13.75876948873321"><ele>494.0</ele><time>2026-04-27T08:39:28Z</time></trkpt><trkpt lat="42.2751465259406" lon="13.758785059731656"><ele>497.0</ele><time>2026-04-27T08:39:29Z</time></trkpt><trkpt lat="42.27503286335588" lon="13.758809166843553"><ele>500.0</ele><time>2026-04-27T08:39:30Z</time></trkpt><trkpt lat="42.274926022971584" lon="13.758836422071127"><ele>503.0</ele><time>2026-04-27T08:39:31Z</time></trkpt><trkpt lat="42.27481648692047" lon="13.758852277163824"><ele>506.0</ele><time>2026-04-27T08:39:32Z</time></trkpt><trkpt lat="42.27471439231801" lon="13.75886620849639"><ele>507.49999999999994</ele><time>2026-04-27T08:39:33Z</time></trkpt><trkpt lat="42.27463053188408" lon="13.758889948323866"><ele>509.0</ele><time>2026-04-27T08:39:34Z</time></trkpt><trkpt lat="42.27454146554518" lon="13.75892081294579"><ele>510.5</ele><time>2026-04-27T08:39:35Z</time></trkpt><trkpt lat="42.27445690967703" lon="13.75894527207588"><ele>512.0</ele><time>2026-04-27T08:39:36Z</time></trkpt><trkpt lat="42.274383499524035" lon="13.75895377190131"><ele>513.5</ele><time>2026-04-27T08:39:37Z</time></trkpt><trkpt lat="42.27430760334953" lon="13.75895999005001"><ele>515.0</ele><time>2026-04-27T08:39:38Z</time></trkpt><trkpt lat="42.274232017186094" lon="13.758979670726099"><ele>515.0</ele><time>2026-04-27T08:39:39Z</time></trkpt><trkpt lat="42.27414212143018" lon="13.759016207893584"><ele>515.0</ele><time>2026-04-27T08:39:40Z</time></trkpt><trkpt lat="42.274061601877605" lon="13.759070786566522"><ele>515.0</ele><time>2026-04-27T08:39:41Z</time></trkpt><trkpt lat="42.273989965213836" lon="13.759136395230293"><ele>515.0</ele><time>2026-04-27T08:39:42Z</time></trkpt><trkpt lat="42.273912692830706" lon="13.759165979718032"><ele>515.0</ele><time>2026-04-27T08:39:44Z</time></trkpt><trkpt lat="42.27395434662318" lon="13.759231272895821"><ele>515.0</ele><time>2026-04-27T08:39:56Z</time></trkpt><trkpt lat="42.27396331965744" lon="13.75934661431412"><ele>516.8</ele><time>2026-04-27T08:39:59Z</time></trkpt><trkpt lat="42.27390539344855" lon="13.759476554389046"><ele>518.6</ele><time>2026-04-27T08:40:01Z</time></trkpt><trkpt lat="42.273870247106835" lon="13.759563312317834"><ele>520.4</ele><time>2026-04-27T08:40:02Z</time></trkpt><trkpt lat="42.27382187158092" lon="13.759667129799864"><ele>522.2</ele><time>2026-04-27T08:40:03Z</time></trkpt><trkpt lat="42.273731988156996" lon="13.75975453260278"><ele>524.0</ele><time>2026-04-27T08:40:05Z</time></trkpt><trkpt lat="42.273661209356696" lon="13.759759154105787"><ele>524.0</ele><time>2026-04-27T08:40:06Z</time></trkpt><trkpt lat="42.27358378986709" lon="13.759754409651705"><ele>524.0</ele><time>2026-04-27T08:40:07Z</time></trkpt><trkpt lat="42.27349047932423" lon="13.759730152853075"><ele>524.0</ele><time>2026-04-27T08:40:08Z</time></trkpt><trkpt lat="42.27337125836063" lon="13.759705680846029"><ele>524.0</ele><time>2026-04-27T08:40:09Z</time></trkpt><trkpt lat="42.27326679642509" lon="13.759711943242962"><ele>524.0</ele><time>2026-04-27T08:40:10Z</time></trkpt><trkpt lat="42.27318672419218" lon="13.759710633438672"><ele>524.0</ele><time>2026-04-27T08:40:11Z</time></trkpt><trkpt lat="42.27311034229757" lon="13.75973440710913"><ele>524.0</ele><time>2026-04-27T08:40:12Z</time></trkpt><trkpt lat="42.27304594763389" lon="13.759750751221606"><ele>524.0</ele><time>2026-04-27T08:40:13Z</time></trkpt><trkpt lat="42.27297373147477" lon="13.759766148372382"><ele>524.0</ele><time>2026-04-27T08:40:14Z</time></trkpt><trkpt lat="42.272878751542464" lon="13.759757289815447"><ele>524.0</ele><time>2026-04-27T08:40:15Z</time></trkpt><trkpt lat="42.27277350822977" lon="13.75971954847175"><ele>524.0</ele><time>2026-04-27T08:40:16Z</time></trkpt><trkpt lat="42.272651314984884" lon="13.759669077702728"><ele>524.75</ele><time>2026-04-27T08:40:17Z</time></trkpt><trkpt lat="42.27252210292835" lon="13.759611224778492"><ele>525.5</ele><time>2026-04-27T08:40:18Z</time></trkpt><trkpt lat="42.272384908638244" lon="13.759549797938783"><ele>526.25</ele><time>2026-04-27T08:40:19Z</time></trkpt><trkpt lat="42.272240318328706" lon="13.75949310924495"><ele>527.0</ele><time>2026-04-27T08:40:20Z</time></trkpt><trkpt lat="42.272119035155065" lon="13.759433732725174"><ele>528.5</ele><time>2026-04-27T08:40:21Z</time></trkpt><trkpt lat="42.27202247052732" lon="13.759354610434382"><ele>530.0</ele><time>2026-04-27T08:40:22Z</time></trkpt><trkpt lat="42.27195189627469" lon="13.759249579373124"><ele>531.5</ele><time>2026-04-27T08:40:23Z</time></trkpt><trkpt lat="42.271935264995065" lon="13.759094991385266"><ele>533.0</ele><time>2026-04-27T08:40:24Z</time></trkpt><trkpt lat="42.27185676831261" lon="13.75896339008002"><ele>533.0</ele><time>2026-04-27T08:40:25Z</time></trkpt><trkpt lat="42.2717668620856" lon="13.758860082668184"><ele>533.0</ele><time>2026-04-27T08:40:26Z</time></trkpt><trkpt lat="42.27163126433725" lon="13.75879981560511"><ele>533.0</ele><time>2026-04-27T08:40:27Z</time></trkpt><trkpt lat="42.2714755549588" lon="13.758749932554007"><ele>533.0</ele><time>2026-04-27T08:40:28Z</time></trkpt><trkpt lat="42.27132239380765" lon="13.758700068969711"><ele>532.3333333333333</ele><time>2026-04-27T08:40:29Z</time></trkpt><trkpt lat="42.271165798926965" lon="13.758688081776276"><ele>531.6666666666666</ele><time>2026-04-27T08:40:30Z</time></trkpt><trkpt lat="42.271024296504855" lon="13.75868301377229"><ele>531.0</ele><time>2026-04-27T08:40:31Z</time></trkpt><trkpt lat="42.270868648985044" lon="13.758681675943103"><ele>531.0</ele><time>2026-04-27T08:40:32Z</time></trkpt><trkpt lat="42.27071616689112" lon="13.758707370816868"><ele>531.0</ele><time>2026-04-27T08:40:33Z</time></trkpt><trkpt lat="42.27054630252047" lon="13.758713532408512"><ele>531.0</ele><time>2026-04-27T08:40:34Z</time></trkpt><trkpt lat="42.27038046428723" lon="13.758728128821579"><ele>531.3333333333334</ele><time>2026-04-27T08:40:35Z</time></trkpt><trkpt lat="42.27022604244573" lon="13.75874074487523"><ele>531.6666666666667</ele><time>2026-04-27T08:40:36Z</time></trkpt><trkpt lat="42.27007099084382" lon="13.758791199556706"><ele>532.0</ele><time>2026-04-27T08:40:37Z</time></trkpt><trkpt lat="42.26991685508285" lon="13.758843360119"><ele>532.3333333333334</ele><time>2026-04-27T08:40:38Z</time></trkpt><trkpt lat="42.269760663505544" lon="13.75888250776441"><ele>532.6666666666666</ele><time>2026-04-27T08:40:39Z</time></trkpt><trkpt lat="42.26959941407004" lon="13.758960122675116"><ele>533.0</ele><time>2026-04-27T08:40:40Z</time></trkpt><trkpt lat="42.26945173896167" lon="13.759078835653817"><ele>533.0</ele><time>2026-04-27T08:40:41Z</time></trkpt><trkpt lat="42.269300141756375" lon="13.759125365434665"><ele>533.0</ele><time>2026-04-27T08:40:42Z</time></trkpt><trkpt lat="42.26915696988729" lon="13.759184909237945"><ele>533.0</ele><time>2026-04-27T08:40:43Z</time></trkpt><trkpt lat="42.269053795594225" lon="13.759227858530732"><ele>533.0</ele><time>2026-04-27T08:40:44Z</time></trkpt><trkpt lat="42.268971880051126" lon="13.759283655269572"><ele>532.6666666666666</ele><time>2026-04-27T08:40:45Z</time></trkpt><trkpt lat="42.26889190126079" lon="13.759312870527587"><ele>532.3333333333333</ele><time>2026-04-27T08:40:46Z</time></trkpt><trkpt lat="42.26883180171364" lon="13.759339374614374"><ele>532.0</ele><time>2026-04-27T08:40:47Z</time></trkpt><trkpt lat="42.26875487660391" lon="13.759358943288024"><ele>531.6666666666666</ele><time>2026-04-27T08:40:49Z</time></trkpt><trkpt lat="42.268669107505694" lon="13.759411230064993"><ele>531.3333333333334</ele><time>2026-04-27T08:40:51Z</time></trkpt><trkpt lat="42.26860883480773" lon="13.75944228317128"><ele>531.0</ele><time>2026-04-27T08:40:52Z</time></trkpt><trkpt lat="42.2688577938502" lon="13.759759348480562"><ele>532.2</ele><time>2026-04-27T08:40:53Z</time></trkpt><trkpt lat="42.2688225776662" lon="13.759899348638529"><ele>533.4000000000001</ele><time>2026-04-27T08:40:54Z</time></trkpt><trkpt lat="42.2687971807304" lon="13.759993485369243"><ele>534.6</ele><time>2026-04-27T08:40:55Z</time></trkpt><trkpt lat="42.26877458945056" lon="13.760075266373839"><ele>535.8000000000001</ele><time>2026-04-27T08:40:56Z</time></trkpt><trkpt lat="42.26875231594007" lon="13.76015589702816"><ele>537.0</ele><time>2026-04-27T08:40:57Z</time></trkpt><trkpt lat="42.26869724825021" lon="13.760355243549903"><ele>537.0</ele><time>2026-04-27T08:40:59Z</time></trkpt><trkpt lat="42.268661880855014" lon="13.760483274307802"><ele>537.0</ele><time>2026-04-27T08:41:00Z</time></trkpt><trkpt lat="42.26815699196757" lon="13.76038910071713"><ele>538.25</ele><time>2026-04-27T08:41:01Z</time></trkpt><trkpt lat="42.26806119662701" lon="13.760516114029288"><ele>539.5</ele><time>2026-04-27T08:41:02Z</time></trkpt><trkpt lat="42.267955226247075" lon="13.760643277114879"><ele>540.75</ele><time>2026-04-27T08:41:03Z</time></trkpt><trkpt lat="42.267868782461555" lon="13.760749892138323"><ele>542.0</ele><time>2026-04-27T08:41:04Z</time></trkpt><trkpt lat="42.267777231986535" lon="13.760859724446513"><ele>542.0</ele><time>2026-04-27T08:41:05Z</time></trkpt><trkpt lat="42.267700435564315" lon="13.760965098112052"><ele>542.0</ele><time>2026-04-27T08:41:06Z</time></trkpt><trkpt lat="42.26762660411947" lon="13.761062887888894"><ele>542.0</ele><time>2026-04-27T08:41:07Z</time></trkpt><trkpt lat="42.267563647452484" lon="13.76116689607662"><ele>542.0</ele><time>2026-04-27T08:41:08Z</time></trkpt><trkpt lat="42.26750034446316" lon="13.761289018703408"><ele>542.0</ele><time>2026-04-27T08:41:09Z</time></trkpt><trkpt lat="42.26743721086988" lon="13.761419194662977"><ele>541.8333333333333</ele><time>2026-04-27T08:41:10Z</time></trkpt><trkpt lat="42.26737803943722" lon="13.761512797011049"><ele>541.6666666666666</ele><time>2026-04-27T08:41:11Z</time></trkpt><trkpt lat="42.267315523362186" lon="13.761586649458062"><ele>541.5</ele><time>2026-04-27T08:41:12Z</time></trkpt><trkpt lat="42.267242605000654" lon="13.761642203963865"><ele>541.3333333333334</ele><time>2026-04-27T08:41:13Z</time></trkpt><trkpt lat="42.267163470982794" lon="13.761686239600587"><ele>541.1666666666667</ele><time>2026-04-27T08:41:14Z</time></trkpt><trkpt lat="42.26708574345061" lon="13.761741682558446"><ele>541.0</ele><time>2026-04-27T08:41:15Z</time></trkpt><trkpt lat="42.26702488931952" lon="13.76178685042259"><ele>540.75</ele><time>2026-04-27T08:41:16Z</time></trkpt><trkpt lat="42.26695959278091" lon="13.761833222957113"><ele>540.5</ele><time>2026-04-27T08:41:18Z</time></trkpt><trkpt lat="42.26685761103603" lon="13.761763573687949"><ele>540.25</ele><time>2026-04-27T08:41:19Z</time></trkpt><trkpt lat="42.26690665418708" lon="13.761988704626873"><ele>540.0</ele><time>2026-04-27T08:41:23Z</time></trkpt><trkpt lat="42.26685059095333" lon="13.762144703765781"><ele>541.3333333333334</ele><time>2026-04-27T08:41:25Z</time></trkpt><trkpt lat="42.26680758613468" lon="13.76223926317302"><ele>542.6666666666666</ele><time>2026-04-27T08:41:26Z</time></trkpt><trkpt lat="42.26672152140545" lon="13.762315918914101"><ele>544.0</ele><time>2026-04-27T08:41:27Z</time></trkpt><trkpt lat="42.26666608892877" lon="13.762431251605195"><ele>545.3333333333333</ele><time>2026-04-27T08:41:28Z</time></trkpt><trkpt lat="42.26661405919472" lon="13.762520835754051"><ele>546.6666666666666</ele><time>2026-04-27T08:41:29Z</time></trkpt><trkpt lat="42.26655149339261" lon="13.762582176225726"><ele>548.0</ele><time>2026-04-27T08:41:30Z</time></trkpt><trkpt lat="42.266474327105335" lon="13.762633488444417"><ele>549.4</ele><time>2026-04-27T08:41:31Z</time></trkpt><trkpt lat="42.2663982720449" lon="13.762706914820424"><ele>550.8</ele><time>2026-04-27T08:41:32Z</time></trkpt><trkpt lat="42.26630287288933" lon="13.76284124165081"><ele>552.2</ele><time>2026-04-27T08:41:33Z</time></trkpt><trkpt lat="42.26623295119601" lon="13.762928189435556"><ele>553.6</ele><time>2026-04-27T08:41:34Z</time></trkpt><trkpt lat="42.26615404921544" lon="13.762982936797545"><ele>555.0</ele><time>2026-04-27T08:41:35Z</time></trkpt><trkpt lat="42.26605308435229" lon="13.763034114652982"><ele>555.0</ele><time>2026-04-27T08:41:36Z</time></trkpt><trkpt lat="42.265945483593775" lon="13.763066437442667"><ele>555.0</ele><time>2026-04-27T08:41:37Z</time></trkpt><trkpt lat="42.265835874068735" lon="13.763090659699877"><ele>555.0</ele><time>2026-04-27T08:41:38Z</time></trkpt><trkpt lat="42.26570908204937" lon="13.763117456505011"><ele>555.0</ele><time>2026-04-27T08:41:39Z</time></trkpt><trkpt lat="42.26558730986341" lon="13.76319056243486"><ele>557.0</ele><time>2026-04-27T08:41:40Z</time></trkpt><trkpt lat="42.26547706812351" lon="13.76326735400026"><ele>559.0</ele><time>2026-04-27T08:41:41Z</time></trkpt><trkpt lat="42.265367432418884" lon="13.763324370074988"><ele>561.0</ele><time>2026-04-27T08:41:42Z</time></trkpt><trkpt lat="42.26525582567624" lon="13.763353937282524"><ele>563.0</ele><time>2026-04-27T08:41:43Z</time></trkpt><trkpt lat="42.26512473670558" lon="13.76334088449561"><ele>563.0</ele><time>2026-04-27T08:41:44Z</time></trkpt><trkpt lat="42.2649764262488" lon="13.76332613785169"><ele>563.0</ele><time>2026-04-27T08:41:45Z</time></trkpt><trkpt lat="42.264840589854465" lon="13.763312331650683"><ele>563.0</ele><time>2026-04-27T08:41:46Z</time></trkpt><trkpt lat="42.264726119982996" lon="13.763323417584642"><ele>563.0</ele><time>2026-04-27T08:41:47Z</time></trkpt><trkpt lat="42.26460321001412" lon="13.763310259784962"><ele>563.25</ele><time>2026-04-27T08:41:48Z</time></trkpt><trkpt lat="42.264479314164014" lon="13.763374897666608"><ele>563.5</ele><time>2026-04-27T08:41:49Z</time></trkpt><trkpt lat="42.26434561758695" lon="13.763439015086057"><ele>563.75</ele><time>2026-04-27T08:41:50Z</time></trkpt><trkpt lat="42.26420958282058" lon="13.76349892483662"><ele>564.0</ele><time>2026-04-27T08:41:51Z</time></trkpt><trkpt lat="42.26407976932396" lon="13.763571427518684"><ele>567.25</ele><time>2026-04-27T08:41:52Z</time></trkpt><trkpt lat="42.26395110402667" lon="13.763639234915022"><ele>570.5</ele><time>2026-04-27T08:41:53Z</time></trkpt><trkpt lat="42.26381926487514" lon="13.763741117470424"><ele>573.75</ele><time>2026-04-27T08:41:54Z</time></trkpt><trkpt lat="42.263687842292725" lon="13.76386041319627"><ele>577.0</ele><time>2026-04-27T08:41:55Z</time></trkpt><trkpt lat="42.26355274731748" lon="13.763955193585465"><ele>577.0</ele><time>2026-04-27T08:41:56Z</time></trkpt><trkpt lat="42.26343533794087" lon="13.764054296007256"><ele>577.0</ele><time>2026-04-27T08:41:57Z</time></trkpt><trkpt lat="42.263310471741235" lon="13.764146733596899"><ele>577.0</ele><time>2026-04-27T08:41:58Z</time></trkpt><trkpt lat="42.2631776603783" lon="13.764237725094219"><ele>577.0</ele><time>2026-04-27T08:41:59Z</time></trkpt><trkpt lat="42.26304738690318" lon="13.764330857340823"><ele>580.75</ele><time>2026-04-27T08:42:00Z</time></trkpt><trkpt lat="42.262914589213096" lon="13.764423856777595"><ele>584.5</ele><time>2026-04-27T08:42:01Z</time></trkpt><trkpt lat="42.26278040126047" lon="13.764502162039433"><ele>588.25</ele><time>2026-04-27T08:42:02Z</time></trkpt><trkpt lat="42.26265109753749" lon="13.764564543077428"><ele>592.0</ele><time>2026-04-27T08:42:03Z</time></trkpt><trkpt lat="42.26252225691105" lon="13.764590182190195"><ele>592.0</ele><time>2026-04-27T08:42:04Z</time></trkpt><trkpt lat="42.2623835515263" lon="13.764610681264971"><ele>592.0</ele><time>2026-04-27T08:42:05Z</time></trkpt><trkpt lat="42.26224918907697" lon="13.764667810669119"><ele>592.0</ele><time>2026-04-27T08:42:06Z</time></trkpt><trkpt lat="42.26210925062907" lon="13.764712976327697"><ele>592.0</ele><time>2026-04-27T08:42:07Z</time></trkpt><trkpt lat="42.261971107728876" lon="13.76476888515797"><ele>592.25</ele><time>2026-04-27T08:42:08Z</time></trkpt><trkpt lat="42.26183398176604" lon="13.764836755863172"><ele>592.5</ele><time>2026-04-27T08:42:09Z</time></trkpt><trkpt lat="42.26169221497981" lon="13.764899049207338"><ele>592.75</ele><time>2026-04-27T08:42:10Z</time></trkpt><trkpt lat="42.26154663329953" lon="13.764931219185288"><ele>593.0</ele><time>2026-04-27T08:42:11Z</time></trkpt><trkpt lat="42.26140738279857" lon="13.76496571340368"><ele>591.0</ele><time>2026-04-27T08:42:12Z</time></trkpt><trkpt lat="42.261253097771444" lon="13.765007352691088"><ele>589.0</ele><time>2026-04-27T08:42:13Z</time></trkpt><trkpt lat="42.26110299274467" lon="13.765048024931374"><ele>587.0</ele><time>2026-04-27T08:42:14Z</time></trkpt><trkpt lat="42.260962927616674" lon="13.76508521166309"><ele>587.0</ele><time>2026-04-27T08:42:15Z</time></trkpt><trkpt lat="42.26081832913002" lon="13.765124064143677"><ele>587.0</ele><time>2026-04-27T08:42:16Z</time></trkpt><trkpt lat="42.260670648132034" lon="13.765180065568881"><ele>587.0</ele><time>2026-04-27T08:42:17Z</time></trkpt><trkpt lat="42.260517323406994" lon="13.765246434493017"><ele>595.0</ele><time>2026-04-27T08:42:18Z</time></trkpt><trkpt lat="42.260364883085664" lon="13.765279786571554"><ele>603.0</ele><time>2026-04-27T08:42:19Z</time></trkpt><trkpt lat="42.2602030633368" lon="13.765336607674966"><ele>611.0</ele><time>2026-04-27T08:42:20Z</time></trkpt><trkpt lat="42.26005844934795" lon="13.765399994746668"><ele>611.0</ele><time>2026-04-27T08:42:21Z</time></trkpt><trkpt lat="42.25993406019114" lon="13.765461896107459"><ele>611.0</ele><time>2026-04-27T08:42:22Z</time></trkpt><trkpt lat="42.25981991224536" lon="13.765521907229024"><ele>611.0</ele><time>2026-04-27T08:42:23Z</time></trkpt><trkpt lat="42.259696539139966" lon="13.765575164654951"><ele>611.0</ele><time>2026-04-27T08:42:24Z</time></trkpt><trkpt lat="42.25957871300579" lon="13.765607150457944"><ele>610.5</ele><time>2026-04-27T08:42:25Z</time></trkpt><trkpt lat="42.25947352709456" lon="13.765613804657596"><ele>610.0</ele><time>2026-04-27T08:42:26Z</time></trkpt><trkpt lat="42.259368208905414" lon="13.76558609898209"><ele>609.5</ele><time>2026-04-27T08:42:27Z</time></trkpt><trkpt lat="42.25925393826723" lon="13.765542241985454"><ele>609.0</ele><time>2026-04-27T08:42:28Z</time></trkpt><trkpt lat="42.259121414698285" lon="13.765518017845292"><ele>609.0</ele><time>2026-04-27T08:42:29Z</time></trkpt><trkpt lat="42.25899554294548" lon="13.765468621404262"><ele>609.0</ele><time>2026-04-27T08:42:30Z</time></trkpt><trkpt lat="42.25886014263071" lon="13.765439251365695"><ele>609.0</ele><time>2026-04-27T08:42:31Z</time></trkpt><trkpt lat="42.25872318875864" lon="13.765421095374125"><ele>609.0</ele><time>2026-04-27T08:42:32Z</time></trkpt><trkpt lat="42.25860756892326" lon="13.765394120235959"><ele>608.8</ele><time>2026-04-27T08:42:33Z</time></trkpt><trkpt lat="42.25850280684808" lon="13.76537664551103"><ele>608.5999999999999</ele><time>2026-04-27T08:42:34Z</time></trkpt><trkpt lat="42.2584012701313" lon="13.765367439439917"><ele>608.4</ele><time>2026-04-27T08:42:35Z</time></trkpt><trkpt lat="42.2583101356307" lon="13.765356697703732"><ele>608.1999999999999</ele><time>2026-04-27T08:42:36Z</time></trkpt><trkpt lat="42.258230701779674" lon="13.765331564566369"><ele>608.0</ele><time>2026-04-27T08:42:37Z</time></trkpt><trkpt lat="42.25815144154869" lon="13.765297599796988"><ele>608.0</ele><time>2026-04-27T08:42:38Z</time></trkpt><trkpt lat="42.258061645758005" lon="13.765245781769721"><ele>608.0</ele><time>2026-04-27T08:42:39Z</time></trkpt><trkpt lat="42.257957711382495" lon="13.76516107166248"><ele>608.0</ele><time>2026-04-27T08:42:40Z</time></trkpt><trkpt lat="42.257837137867504" lon="13.765073888170987"><ele>608.0</ele><time>2026-04-27T08:42:41Z</time></trkpt><trkpt lat="42.25770104531371" lon="13.764993449993575"><ele>609.6</ele><time>2026-04-27T08:42:42Z</time></trkpt><trkpt lat="42.25757768382809" lon="13.764932210415674"><ele>611.1999999999999</ele><time>2026-04-27T08:42:43Z</time></trkpt><trkpt lat="42.25746990784485" lon="13.764882679260833"><ele>612.8</ele><time>2026-04-27T08:42:44Z</time></trkpt><trkpt lat="42.25737321577068" lon="13.764840266471587"><ele>614.4</ele><time>2026-04-27T08:42:45Z</time></trkpt><trkpt lat="42.25728028150681" lon="13.7648034194539"><ele>616.0</ele><time>2026-04-27T08:42:46Z</time></trkpt><trkpt lat="42.25718026545343" lon="13.76477921385347"><ele>616.8</ele><time>2026-04-27T08:42:47Z</time></trkpt><trkpt lat="42.25708542171242" lon="13.764720705273898"><ele>617.6</ele><time>2026-04-27T08:42:48Z</time></trkpt><trkpt lat="42.25699156371829" lon="13.764662890425464"><ele>618.4</ele><time>2026-04-27T08:42:49Z</time></trkpt><trkpt lat="42.25691060978916" lon="13.764633857388443"><ele>619.2</ele><time>2026-04-27T08:42:50Z</time></trkpt><trkpt lat="42.25682955067281" lon="13.764646229104848"><ele>620.0</ele><time>2026-04-27T08:42:51Z</time></trkpt><trkpt lat="42.25673885027314" lon="13.764700836616093"><ele>620.0</ele><time>2026-04-27T08:42:52Z</time></trkpt><trkpt lat="42.256634777325026" lon="13.764748101123539"><ele>620.0</ele><time>2026-04-27T08:42:53Z</time></trkpt><trkpt lat="42.256538110425865" lon="13.764774379537432"><ele>620.0</ele><time>2026-04-27T08:42:54Z</time></trkpt><trkpt lat="42.256458124996826" lon="13.76479304486842"><ele>620.0</ele><time>2026-04-27T08:42:55Z</time></trkpt><trkpt lat="42.25637606768925" lon="13.764791788693522"><ele>620.0</ele><time>2026-04-27T08:42:56Z</time></trkpt><trkpt lat="42.25628141410541" lon="13.764799972914727"><ele>621.6</ele><time>2026-04-27T08:42:57Z</time></trkpt><trkpt lat="42.25620349673488" lon="13.764796996157783"><ele>623.2</ele><time>2026-04-27T08:42:58Z</time></trkpt><trkpt lat="42.256113842640076" lon="13.764785938960324"><ele>624.8</ele><time>2026-04-27T08:42:59Z</time></trkpt><trkpt lat="42.25600910795781" lon="13.76475599524154"><ele>626.4</ele><time>2026-04-27T08:43:00Z</time></trkpt><trkpt lat="42.25588098057936" lon="13.764739476196457"><ele>628.0</ele><time>2026-04-27T08:43:01Z</time></trkpt><trkpt lat="42.255743380995824" lon="13.764716141064385"><ele>629.25</ele><time>2026-04-27T08:43:02Z</time></trkpt><trkpt lat="42.25560667187707" lon="13.764693184241693"><ele>630.5</ele><time>2026-04-27T08:43:03Z</time></trkpt><trkpt lat="42.255490182846394" lon="13.764683558844627"><ele>631.75</ele><time>2026-04-27T08:43:04Z</time></trkpt><trkpt lat="42.25539251523176" lon="13.764664594009945"><ele>633.0</ele><time>2026-04-27T08:43:05Z</time></trkpt><trkpt lat="42.255299471106305" lon="13.764623850429846"><ele>633.0</ele><time>2026-04-27T08:43:06Z</time></trkpt><trkpt lat="42.255200826332086" lon="13.7645691386295"><ele>633.0</ele><time>2026-04-27T08:43:07Z</time></trkpt><trkpt lat="42.2550907661785" lon="13.764507703177285"><ele>633.0</ele><time>2026-04-27T08:43:08Z</time></trkpt><trkpt lat="42.255000334782075" lon="13.764499699411427"><ele>633.0</ele><time>2026-04-27T08:43:09Z</time></trkpt><trkpt lat="42.25491264381473" lon="13.764546647594651"><ele>633.0</ele><time>2026-04-27T08:43:10Z</time></trkpt><trkpt lat="42.254812011897094" lon="13.764582440323432"><ele>635.2</ele><time>2026-04-27T08:43:11Z</time></trkpt><trkpt lat="42.25470359669366" lon="13.764575490069861"><ele>637.4</ele><time>2026-04-27T08:43:12Z</time></trkpt><trkpt lat="42.25460726065471" lon="13.764553274255263"><ele>639.6</ele><time>2026-04-27T08:43:13Z</time></trkpt><trkpt lat="42.25451447586061" lon="13.764504133845934"><ele>641.8000000000001</ele><time>2026-04-27T08:43:14Z</time></trkpt><trkpt lat="42.25440685503056" lon="13.764474535138142"><ele>644.0</ele><time>2026-04-27T08:43:15Z</time></trkpt><trkpt lat="42.25428404541777" lon="13.76447700297691"><ele>644.0</ele><time>2026-04-27T08:43:16Z</time></trkpt><trkpt lat="42.254171435585995" lon="13.764476536328413"><ele>644.0</ele><time>2026-04-27T08:43:17Z</time></trkpt><trkpt lat="42.25408446703618" lon="13.764431740469862"><ele>644.0</ele><time>2026-04-27T08:43:18Z</time></trkpt><trkpt lat="42.25399406408069" lon="13.764402213410067"><ele>644.0</ele><time>2026-04-27T08:43:19Z</time></trkpt><trkpt lat="42.25391669430935" lon="13.764374703456538"><ele>644.0</ele><time>2026-04-27T08:43:20Z</time></trkpt><trkpt lat="42.253827984868884" lon="13.76433546243705"><ele>645.1666666666666</ele><time>2026-04-27T08:43:21Z</time></trkpt><trkpt lat="42.25372186890899" lon="13.7643002521377"><ele>646.3333333333333</ele><time>2026-04-27T08:43:22Z</time></trkpt><trkpt lat="42.25364902501345" lon="13.764234839078277"><ele>647.5</ele><time>2026-04-27T08:43:23Z</time></trkpt><trkpt lat="42.25357632382384" lon="13.764192663957115"><ele>648.6666666666666</ele><time>2026-04-27T08:43:24Z</time></trkpt><trkpt lat="42.253524529966825" lon="13.764113321332438"><ele>649.8333333333334</ele><time>2026-04-27T08:43:25Z</time></trkpt><trkpt lat="42.25348696106243" lon="13.764002316036523"><ele>651.0</ele><time>2026-04-27T08:43:26Z</time></trkpt><trkpt lat="42.253402215614756" lon="13.76388320392457"><ele>651.0</ele><time>2026-04-27T08:43:27Z</time></trkpt><trkpt lat="42.25333764819548" lon="13.763775319053956"><ele>651.0</ele><time>2026-04-27T08:43:28Z</time></trkpt><trkpt lat="42.25326839247507" lon="13.763687011133184"><ele>651.0</ele><time>2026-04-27T08:43:29Z</time></trkpt><trkpt lat="42.253178888716306" lon="13.763619702788096"><ele>651.0</ele><time>2026-04-27T08:43:30Z</time></trkpt><trkpt lat="42.253086150762975" lon="13.763541962929557"><ele>651.0</ele><time>2026-04-27T08:43:31Z</time></trkpt><trkpt lat="42.252970175431756" lon="13.76348851589824"><ele>652.75</ele><time>2026-04-27T08:43:32Z</time></trkpt><trkpt lat="42.25284078714445" lon="13.763446217790737"><ele>654.5</ele><time>2026-04-27T08:43:33Z</time></trkpt><trkpt lat="42.252717808613234" lon="13.763421379359475"><ele>656.25</ele><time>2026-04-27T08:43:34Z</time></trkpt><trkpt lat="42.252616192982096" lon="13.76341002019332"><ele>658.0</ele><time>2026-04-27T08:43:35Z</time></trkpt><trkpt lat="42.25252328951678" lon="13.76340131234249"><ele>658.0</ele><time>2026-04-27T08:43:36Z</time></trkpt><trkpt lat="42.252432812200254" lon="13.763387274621733"><ele>658.0</ele><time>2026-04-27T08:43:37Z</time></trkpt><trkpt lat="42.25233041443804" lon="13.763364070879021"><ele>658.0</ele><time>2026-04-27T08:43:38Z</time></trkpt><trkpt lat="42.25222421976993" lon="13.763329457908961"><ele>658.0</ele><time>2026-04-27T08:43:39Z</time></trkpt><trkpt lat="42.252129673066285" lon="13.763279920721441"><ele>658.0</ele><time>2026-04-27T08:43:40Z</time></trkpt><trkpt lat="42.25203269395472" lon="13.763224652142105"><ele>657.4</ele><time>2026-04-27T08:43:41Z</time></trkpt><trkpt lat="42.251935073554435" lon="13.763163930961545"><ele>656.8</ele><time>2026-04-27T08:43:42Z</time></trkpt><trkpt lat="42.25186071728809" lon="13.763100842697584"><ele>656.2</ele><time>2026-04-27T08:43:43Z</time></trkpt><trkpt lat="42.2517788780223" lon="13.763026004400551"><ele>655.6</ele><time>2026-04-27T08:43:44Z</time></trkpt><trkpt lat="42.25171010613321" lon="13.762926745773175"><ele>655.0</ele><time>2026-04-27T08:43:45Z</time></trkpt><trkpt lat="42.25165617731145" lon="13.762821309746059"><ele>655.0</ele><time>2026-04-27T08:43:46Z</time></trkpt><trkpt lat="42.251579242432484" lon="13.762722023958155"><ele>655.0</ele><time>2026-04-27T08:43:47Z</time></trkpt><trkpt lat="42.251472889584385" lon="13.762627228784062"><ele>655.0</ele><time>2026-04-27T08:43:48Z</time></trkpt><trkpt lat="42.25135254056972" lon="13.762525529351205"><ele>655.0</ele><time>2026-04-27T08:43:49Z</time></trkpt><trkpt lat="42.251254596674826" lon="13.762440507245959"><ele>658.6</ele><time>2026-04-27T08:43:50Z</time></trkpt><trkpt lat="42.251169482254326" lon="13.76237834100279"><ele>662.2</ele><time>2026-04-27T08:43:51Z</time></trkpt><trkpt lat="42.25108403254891" lon="13.762306677695138"><ele>665.8</ele><time>2026-04-27T08:43:52Z</time></trkpt><trkpt lat="42.250977384582" lon="13.762255898156893"><ele>669.4</ele><time>2026-04-27T08:43:53Z</time></trkpt><trkpt lat="42.25087212774476" lon="13.762217000539826"><ele>673.0</ele><time>2026-04-27T08:43:54Z</time></trkpt><trkpt lat="42.25078288946554" lon="13.762195628503191"><ele>673.0</ele><time>2026-04-27T08:43:55Z</time></trkpt><trkpt lat="42.25071024678313" lon="13.762201996358044"><ele>673.0</ele><time>2026-04-27T08:43:56Z</time></trkpt><trkpt lat="42.25064506365201" lon="13.762326418425339"><ele>673.0</ele><time>2026-04-27T08:43:58Z</time></trkpt><trkpt lat="42.2506291897385" lon="13.762414878112324"><ele>673.0</ele><time>2026-04-27T08:43:59Z</time></trkpt><trkpt lat="42.250602677662826" lon="13.762503760588134"><ele>673.0</ele><time>2026-04-27T08:44:00Z</time></trkpt><trkpt lat="42.25055597560818" lon="13.762574793638091"><ele>673.0</ele><time>2026-04-27T08:44:01Z</time></trkpt><trkpt lat="42.25048730551788" lon="13.762629521154663"><ele>672.2</ele><time>2026-04-27T08:44:02Z</time></trkpt><trkpt lat="42.25040219517635" lon="13.762675977273773"><ele>671.4</ele><time>2026-04-27T08:44:03Z</time></trkpt><trkpt lat="42.250294060401146" lon="13.76270754067313"><ele>670.6</ele><time>2026-04-27T08:44:04Z</time></trkpt><trkpt lat="42.25019779137531" lon="13.762723175100502"><ele>669.8000000000001</ele><time>2026-04-27T08:44:05Z</time></trkpt><trkpt lat="42.250084536841996" lon="13.76273742719262"><ele>669.0</ele><time>2026-04-27T08:44:06Z</time></trkpt><trkpt lat="42.24996485355758" lon="13.762768046966569"><ele>669.0</ele><time>2026-04-27T08:44:07Z</time></trkpt><trkpt lat="42.24985116533841" lon="13.762806920697232"><ele>669.0</ele><time>2026-04-27T08:44:08Z</time></trkpt><trkpt lat="42.24975400210949" lon="13.762850818327822"><ele>669.0</ele><time>2026-04-27T08:44:09Z</time></trkpt><trkpt lat="42.2496666476008" lon="13.762906478805931"><ele>669.0</ele><time>2026-04-27T08:44:10Z</time></trkpt><trkpt lat="42.24957966535905" lon="13.762992866753732"><ele>669.0</ele><time>2026-04-27T08:44:11Z</time></trkpt><trkpt lat="42.249494498518835" lon="13.763091058180345"><ele>672.0</ele><time>2026-04-27T08:44:12Z</time></trkpt><trkpt lat="42.24941709449384" lon="13.763184069002527"><ele>675.0</ele><time>2026-04-27T08:44:13Z</time></trkpt><trkpt lat="42.24934113375634" lon="13.763263188084462"><ele>678.0</ele><time>2026-04-27T08:44:14Z</time></trkpt><trkpt lat="42.24924097219941" lon="13.76331292778252"><ele>681.0</ele><time>2026-04-27T08:44:15Z</time></trkpt><trkpt lat="42.249152928888876" lon="13.763389230552605"><ele>684.0</ele><time>2026-04-27T08:44:16Z</time></trkpt><trkpt lat="42.24903783220847" lon="13.763449747783989"><ele>685.0</ele><time>2026-04-27T08:44:17Z</time></trkpt><trkpt lat="42.24893310288051" lon="13.763510684425746"><ele>686.0</ele><time>2026-04-27T08:44:18Z</time></trkpt><trkpt lat="42.248839807344446" lon="13.763568583323769"><ele>687.0</ele><time>2026-04-27T08:44:19Z</time></trkpt><trkpt lat="42.24872896956143" lon="13.763654889170773"><ele>688.0</ele><time>2026-04-27T08:44:20Z</time></trkpt><trkpt lat="42.24863379198939" lon="13.763748314098496"><ele>688.0</ele><time>2026-04-27T08:44:21Z</time></trkpt><trkpt lat="42.24854401546473" lon="13.763844775745591"><ele>688.0</ele><time>2026-04-27T08:44:22Z</time></trkpt><trkpt lat="42.24844884736895" lon="13.76396265189929"><ele>688.0</ele><time>2026-04-27T08:44:23Z</time></trkpt><trkpt lat="42.24835684597551" lon="13.764078201598359"><ele>688.0</ele><time>2026-04-27T08:44:24Z</time></trkpt><trkpt lat="42.24826560007412" lon="13.764181466255051"><ele>688.0</ele><time>2026-04-27T08:44:25Z</time></trkpt><trkpt lat="42.24817625325969" lon="13.76427930439732"><ele>688.0</ele><time>2026-04-27T08:44:26Z</time></trkpt><trkpt lat="42.24808932084737" lon="13.764375181091179"><ele>688.0</ele><time>2026-04-27T08:44:27Z</time></trkpt><trkpt lat="42.248002670235785" lon="13.764466407231048"><ele>688.0</ele><time>2026-04-27T08:44:28Z</time></trkpt><trkpt lat="42.24791307312768" lon="13.76456739600314"><ele>689.3333333333334</ele><time>2026-04-27T08:44:29Z</time></trkpt><trkpt lat="42.24783108399598" lon="13.76466405865698"><ele>690.6666666666667</ele><time>2026-04-27T08:44:30Z</time></trkpt><trkpt lat="42.24777695190099" lon="13.764755874337494"><ele>692.0</ele><time>2026-04-27T08:44:31Z</time></trkpt><trkpt lat="42.247728467848354" lon="13.764855794759793"><ele>693.3333333333334</ele><time>2026-04-27T08:44:32Z</time></trkpt><trkpt lat="42.247685607016194" lon="13.76495976767632"><ele>694.6666666666666</ele><time>2026-04-27T08:44:33Z</time></trkpt><trkpt lat="42.24763720441976" lon="13.76503071434459"><ele>696.0</ele><time>2026-04-27T08:44:34Z</time></trkpt><trkpt lat="42.24760073735306" lon="13.76510821380784"><ele>696.0</ele><time>2026-04-27T08:44:35Z</time></trkpt><trkpt lat="42.247524810861144" lon="13.765172065367127"><ele>696.0</ele><time>2026-04-27T08:44:36Z</time></trkpt><trkpt lat="42.24745147624353" lon="13.765235715344314"><ele>696.0</ele><time>2026-04-27T08:44:37Z</time></trkpt><trkpt lat="42.24736882145004" lon="13.765286788442404"><ele>696.0</ele><time>2026-04-27T08:44:38Z</time></trkpt><trkpt lat="42.247273106890994" lon="13.765362363615646"><ele>696.0</ele><time>2026-04-27T08:44:39Z</time></trkpt><trkpt lat="42.247189190856176" lon="13.76542054610224"><ele>698.6666666666666</ele><time>2026-04-27T08:44:40Z</time></trkpt><trkpt lat="42.24712348001373" lon="13.765451556589866"><ele>701.3333333333334</ele><time>2026-04-27T08:44:41Z</time></trkpt><trkpt lat="42.2470598703676" lon="13.765457517486984"><ele>704.0</ele><time>2026-04-27T08:44:42Z</time></trkpt><trkpt lat="42.24697634964904" lon="13.76549240059296"><ele>706.6666666666667</ele><time>2026-04-27T08:44:43Z</time></trkpt><trkpt lat="42.24691333329108" lon="13.76553680751438"><ele>709.3333333333334</ele><time>2026-04-27T08:44:44Z</time></trkpt><trkpt lat="42.246802247414465" lon="13.765633600881406"><ele>712.0</ele><time>2026-04-27T08:44:46Z</time></trkpt><trkpt lat="42.246708060652324" lon="13.76570399385976"><ele>712.0</ele><time>2026-04-27T08:44:47Z</time></trkpt><trkpt lat="42.246640588958535" lon="13.765761237775283"><ele>712.0</ele><time>2026-04-27T08:44:48Z</time></trkpt><trkpt lat="42.24657134637758" lon="13.765827554738449"><ele>712.0</ele><time>2026-04-27T08:44:49Z</time></trkpt><trkpt lat="42.246507917952144" lon="13.765866976201048"><ele>712.0</ele><time>2026-04-27T08:44:50Z</time></trkpt><trkpt lat="42.2464426368296" lon="13.765934204511312"><ele>712.0</ele><time>2026-04-27T08:44:51Z</time></trkpt><trkpt lat="42.24637795352387" lon="13.766040243606032"><ele>712.0</ele><time>2026-04-27T08:44:52Z</time></trkpt><trkpt lat="42.24631887343317" lon="13.766150675776228"><ele>713.6</ele><time>2026-04-27T08:44:53Z</time></trkpt><trkpt lat="42.246251878573155" lon="13.766253078985775"><ele>715.2</ele><time>2026-04-27T08:44:54Z</time></trkpt><trkpt lat="42.246180784307356" lon="13.766349410539764"><ele>716.8</ele><time>2026-04-27T08:44:55Z</time></trkpt><trkpt lat="42.246100209198566" lon="13.766437595022392"><ele>718.4</ele><time>2026-04-27T08:44:56Z</time></trkpt><trkpt lat="42.24604168378775" lon="13.766507079649108"><ele>720.0</ele><time>2026-04-27T08:44:57Z</time></trkpt><trkpt lat="42.24593528744085" lon="13.766531683635254"><ele>720.0</ele><time>2026-04-27T08:44:59Z</time></trkpt><trkpt lat="42.2458089450226" lon="13.766542622639697"><ele>720.0</ele><time>2026-04-27T08:45:01Z</time></trkpt><trkpt lat="42.24572332547331" lon="13.766569893526931"><ele>720.0</ele><time>2026-04-27T08:45:02Z</time></trkpt><trkpt lat="42.245638827321244" lon="13.76662639625783"><ele>720.0</ele><time>2026-04-27T08:45:03Z</time></trkpt><trkpt lat="42.24552814412268" lon="13.76666755210684"><ele>720.0</ele><time>2026-04-27T08:45:04Z</time></trkpt><trkpt lat="42.24542557398745" lon="13.766735486681506"><ele>719.8</ele><time>2026-04-27T08:45:05Z</time></trkpt><trkpt lat="42.24532958539712" lon="13.766782910641421"><ele>719.6</ele><time>2026-04-27T08:45:06Z</time></trkpt><trkpt lat="42.245252053960094" lon="13.766821158307692"><ele>719.4000000000001</ele><time>2026-04-27T08:45:07Z</time></trkpt><trkpt lat="42.24517967314009" lon="13.766844674139112"><ele>719.2</ele><time>2026-04-27T08:45:08Z</time></trkpt><trkpt lat="42.2450780735543" lon="13.766874259685725"><ele>719.0</ele><time>2026-04-27T08:45:09Z</time></trkpt><trkpt lat="42.2449786126199" lon="13.766893185477183"><ele>719.0</ele><time>2026-04-27T08:45:10Z</time></trkpt><trkpt lat="42.24486389197823" lon="13.766931228305033"><ele>719.0</ele><time>2026-04-27T08:45:11Z</time></trkpt><trkpt lat="42.244784042161776" lon="13.766942543458235"><ele>719.0</ele><time>2026-04-27T08:45:12Z</time></trkpt><trkpt lat="42.244688688386454" lon="13.766966349014849"><ele>719.0</ele><time>2026-04-27T08:45:13Z</time></trkpt><trkpt lat="42.24459190544861" lon="13.766988993972111"><ele>719.0</ele><time>2026-04-27T08:45:14Z</time></trkpt><trkpt lat="42.24448953383344" lon="13.767006335204487"><ele>721.0</ele><time>2026-04-27T08:45:15Z</time></trkpt><trkpt lat="42.24438428558483" lon="13.767021688924473"><ele>723.0</ele><time>2026-04-27T08:45:16Z</time></trkpt><trkpt lat="42.24430288222461" lon="13.767031913748175"><ele>725.0</ele><time>2026-04-27T08:45:17Z</time></trkpt><trkpt lat="42.24419242912135" lon="13.76704860054204"><ele>727.0</ele><time>2026-04-27T08:45:18Z</time></trkpt><trkpt lat="42.24408431747768" lon="13.76707570338315"><ele>729.0</ele><time>2026-04-27T08:45:19Z</time></trkpt><trkpt lat="42.24398692554304" lon="13.767102785857496"><ele>731.5</ele><time>2026-04-27T08:45:20Z</time></trkpt><trkpt lat="42.24389960943312" lon="13.767126808274698"><ele>734.0</ele><time>2026-04-27T08:45:21Z</time></trkpt><trkpt lat="42.24380826929691" lon="13.767150697799714"><ele>736.5</ele><time>2026-04-27T08:45:22Z</time></trkpt><trkpt lat="42.24372127450792" lon="13.767173450814473"><ele>739.0</ele><time>2026-04-27T08:45:23Z</time></trkpt><trkpt lat="42.24364482312398" lon="13.767192850446117"><ele>741.5</ele><time>2026-04-27T08:45:24Z</time></trkpt><trkpt lat="42.243564394374076" lon="13.767211426135109"><ele>744.0</ele><time>2026-04-27T08:45:25Z</time></trkpt><trkpt lat="42.243474691530494" lon="13.767230773655227"><ele>744.0</ele><time>2026-04-27T08:45:26Z</time></trkpt><trkpt lat="42.243384483005926" lon="13.767264139420561"><ele>744.0</ele><time>2026-04-27T08:45:27Z</time></trkpt><trkpt lat="42.243281060045895" lon="13.767264265326256"><ele>744.0</ele><time>2026-04-27T08:45:28Z</time></trkpt><trkpt lat="42.243188052459715" lon="13.767278363193451"><ele>744.0</ele><time>2026-04-27T08:45:29Z</time></trkpt><trkpt lat="42.24310445189942" lon="13.767290107829655"><ele>744.0</ele><time>2026-04-27T08:45:30Z</time></trkpt><trkpt lat="42.243007655726764" lon="13.767302139134452"><ele>746.1666666666666</ele><time>2026-04-27T08:45:31Z</time></trkpt><trkpt lat="42.24292961066026" lon="13.767309628248816"><ele>748.3333333333334</ele><time>2026-04-27T08:45:32Z</time></trkpt><trkpt lat="42.24284130915727" lon="13.767333845152411"><ele>750.5</ele><time>2026-04-27T08:45:33Z</time></trkpt><trkpt lat="42.24275649003123" lon="13.767338792684976"><ele>752.6666666666667</ele><time>2026-04-27T08:45:34Z</time></trkpt><trkpt lat="42.242667461400885" lon="13.76734636546933"><ele>754.8333333333334</ele><time>2026-04-27T08:45:35Z</time></trkpt><trkpt lat="42.24256779065829" lon="13.767374717052368"><ele>757.0</ele><time>2026-04-27T08:45:36Z</time></trkpt><trkpt lat="42.242461291531555" lon="13.767407332729052"><ele>757.0</ele><time>2026-04-27T08:45:37Z</time></trkpt><trkpt lat="42.24235324047627" lon="13.767440672463755"><ele>757.0</ele><time>2026-04-27T08:45:38Z</time></trkpt><trkpt lat="42.24224354806889" lon="13.767474518664844"><ele>757.0</ele><time>2026-04-27T08:45:39Z</time></trkpt><trkpt lat="42.24215259493438" lon="13.767505286109104"><ele>757.0</ele><time>2026-04-27T08:45:40Z</time></trkpt><trkpt lat="42.24206293353275" lon="13.767549586147641"><ele>757.0</ele><time>2026-04-27T08:45:41Z</time></trkpt><trkpt lat="42.241964487958164" lon="13.767610781542283"><ele>757.0</ele><time>2026-04-27T08:45:42Z</time></trkpt><trkpt lat="42.241857769228666" lon="13.767683484535917"><ele>757.0</ele><time>2026-04-27T08:45:43Z</time></trkpt><trkpt lat="42.24175000659715" lon="13.767767140887038"><ele>757.0</ele><time>2026-04-27T08:45:44Z</time></trkpt><trkpt lat="42.241654967039565" lon="13.767853277148662"><ele>757.0</ele><time>2026-04-27T08:45:45Z</time></trkpt><trkpt lat="42.24156148398354" lon="13.7679589556668"><ele>757.0</ele><time>2026-04-27T08:45:46Z</time></trkpt><trkpt lat="42.24148500836553" lon="13.768062118835823"><ele>757.0</ele><time>2026-04-27T08:45:47Z</time></trkpt><trkpt lat="42.24140722474711" lon="13.76818004142972"><ele>757.0</ele><time>2026-04-27T08:45:48Z</time></trkpt><trkpt lat="42.241329289136274" lon="13.7683181592447"><ele>757.0</ele><time>2026-04-27T08:45:49Z</time></trkpt><trkpt lat="42.24125461329507" lon="13.768444097892353"><ele>761.5</ele><time>2026-04-27T08:45:50Z</time></trkpt><trkpt lat="42.241179361468255" lon="13.768560965826438"><ele>766.0</ele><time>2026-04-27T08:45:51Z</time></trkpt><trkpt lat="42.24109688020898" lon="13.768676586902806"><ele>770.5</ele><time>2026-04-27T08:45:52Z</time></trkpt><trkpt lat="42.24100912999211" lon="13.768801390957329"><ele>775.0</ele><time>2026-04-27T08:45:53Z</time></trkpt><trkpt lat="42.24094316837462" lon="13.768904971064329"><ele>775.0</ele><time>2026-04-27T08:45:54Z</time></trkpt><trkpt lat="42.24090419585813" lon="13.769004643449492"><ele>775.0</ele><time>2026-04-27T08:45:55Z</time></trkpt><trkpt lat="42.240857968006694" lon="13.769118882170865"><ele>775.0</ele><time>2026-04-27T08:45:56Z</time></trkpt><trkpt lat="42.24081329247201" lon="13.769224087615374"><ele>775.0</ele><time>2026-04-27T08:45:57Z</time></trkpt><trkpt lat="42.2407401486321" lon="13.769323050757986"><ele>775.0</ele><time>2026-04-27T08:45:59Z</time></trkpt><trkpt lat="42.24060617830281" lon="13.769331388699502"><ele>777.8</ele><time>2026-04-27T08:46:01Z</time></trkpt><trkpt lat="42.24052823535128" lon="13.769307741804049"><ele>780.6</ele><time>2026-04-27T08:46:02Z</time></trkpt><trkpt lat="42.240445885247226" lon="13.769272173418916"><ele>783.4000000000001</ele><time>2026-04-27T08:46:03Z</time></trkpt><trkpt lat="42.240356418429045" lon="13.769245295729556"><ele>786.2</ele><time>2026-04-27T08:46:04Z</time></trkpt><trkpt lat="42.24025652477637" lon="13.769206493852362"><ele>789.0</ele><time>2026-04-27T08:46:05Z</time></trkpt><trkpt lat="42.24014719061053" lon="13.769199570148382"><ele>789.0</ele><time>2026-04-27T08:46:06Z</time></trkpt><trkpt lat="42.24004517974407" lon="13.769202065303778"><ele>789.0</ele><time>2026-04-27T08:46:07Z</time></trkpt><trkpt lat="42.23993280292492" lon="13.769191454611889"><ele>789.0</ele><time>2026-04-27T08:46:08Z</time></trkpt><trkpt lat="42.239820814447526" lon="13.76916619092679"><ele>789.0</ele><time>2026-04-27T08:46:09Z</time></trkpt><trkpt lat="42.23972333509855" lon="13.769143178930216"><ele>789.0</ele><time>2026-04-27T08:46:10Z</time></trkpt><trkpt lat="42.23964866344403" lon="13.769116742555758"><ele>791.6666666666666</ele><time>2026-04-27T08:46:11Z</time></trkpt><trkpt lat="42.239577869860014" lon="13.76909435101483"><ele>794.3333333333333</ele><time>2026-04-27T08:46:12Z</time></trkpt><trkpt lat="42.239506220810775" lon="13.769088466477687"><ele>797.0</ele><time>2026-04-27T08:46:13Z</time></trkpt><trkpt lat="42.23941285382259" lon="13.769074703954422"><ele>799.6666666666666</ele><time>2026-04-27T08:46:14Z</time></trkpt><trkpt lat="42.23934228196483" lon="13.769097465250926"><ele>802.3333333333333</ele><time>2026-04-27T08:46:15Z</time></trkpt><trkpt lat="42.23928643027472" lon="13.769149146896531"><ele>805.0</ele><time>2026-04-27T08:46:16Z</time></trkpt><trkpt lat="42.23921980194378" lon="13.769186389110354"><ele>805.0</ele><time>2026-04-27T08:46:17Z</time></trkpt><trkpt lat="42.239163423615736" lon="13.769234330392644"><ele>805.0</ele><time>2026-04-27T08:46:18Z</time></trkpt><trkpt lat="42.239044540967996" lon="13.76932570706667"><ele>805.0</ele><time>2026-04-27T08:46:20Z</time></trkpt><trkpt lat="42.238978778193" lon="13.769356289633906"><ele>805.0</ele><time>2026-04-27T08:46:21Z</time></trkpt><trkpt lat="42.23885101122305" lon="13.769378256349167"><ele>805.0</ele><time>2026-04-27T08:46:23Z</time></trkpt><trkpt lat="42.23878729166707" lon="13.769380521516954"><ele>804.8333333333333</ele><time>2026-04-27T08:46:24Z</time></trkpt><trkpt lat="42.23870830429477" lon="13.769385248464356"><ele>804.6666666666666</ele><time>2026-04-27T08:46:25Z</time></trkpt><trkpt lat="42.23862396643489" lon="13.769410705779094"><ele>804.5</ele><time>2026-04-27T08:46:26Z</time></trkpt><trkpt lat="42.23852820873671" lon="13.769400885371054"><ele>804.3333333333333</ele><time>2026-04-27T08:46:27Z</time></trkpt><trkpt lat="42.23842757968223" lon="13.769426239489254"><ele>804.1666666666666</ele><time>2026-04-27T08:46:28Z</time></trkpt><trkpt lat="42.23834538660372" lon="13.769454259381927"><ele>804.0</ele><time>2026-04-27T08:46:29Z</time></trkpt><trkpt lat="42.23824905241711" lon="13.769491277326171"><ele>804.0</ele><time>2026-04-27T08:46:30Z</time></trkpt><trkpt lat="42.23814499552121" lon="13.769536688333435"><ele>804.0</ele><time>2026-04-27T08:46:31Z</time></trkpt><trkpt lat="42.23805366888759" lon="13.76958976512007"><ele>804.0</ele><time>2026-04-27T08:46:32Z</time></trkpt><trkpt lat="42.23794633642327" lon="13.769668083873494"><ele>804.0</ele><time>2026-04-27T08:46:33Z</time></trkpt><trkpt lat="42.23783369644782" lon="13.769741989807962"><ele>807.4000000000001</ele><time>2026-04-27T08:46:34Z</time></trkpt><trkpt lat="42.23773798110502" lon="13.76979402799053"><ele>810.8</ele><time>2026-04-27T08:46:35Z</time></trkpt><trkpt lat="42.23765342090813" lon="13.769827463610088"><ele>814.2</ele><time>2026-04-27T08:46:36Z</time></trkpt><trkpt lat="42.23756567290489" lon="13.769854217282399"><ele>817.5999999999999</ele><time>2026-04-27T08:46:37Z</time></trkpt><trkpt lat="42.2374684299523" lon="13.76987076597081"><ele>821.0</ele><time>2026-04-27T08:46:38Z</time></trkpt><trkpt lat="42.23736361039612" lon="13.769893590354233"><ele>822.1666666666667</ele><time>2026-04-27T08:46:39Z</time></trkpt><trkpt lat="42.23727120965811" lon="13.769922093008885"><ele>823.3333333333334</ele><time>2026-04-27T08:46:40Z</time></trkpt><trkpt lat="42.23719367033865" lon="13.769948038435386"><ele>824.5</ele><time>2026-04-27T08:46:41Z</time></trkpt><trkpt lat="42.237114972418624" lon="13.769977793380418"><ele>825.6666666666667</ele><time>2026-04-27T08:46:42Z</time></trkpt><trkpt lat="42.237043810355296" lon="13.77003467275822"><ele>826.8333333333334</ele><time>2026-04-27T08:46:43Z</time></trkpt><trkpt lat="42.236964676673935" lon="13.770117089056331"><ele>828.0</ele><time>2026-04-27T08:46:44Z</time></trkpt><trkpt lat="42.236895383765734" lon="13.77021374873918"><ele>828.0</ele><time>2026-04-27T08:46:45Z</time></trkpt><trkpt lat="42.23682308475556" lon="13.770301728915873"><ele>828.0</ele><time>2026-04-27T08:46:46Z</time></trkpt><trkpt lat="42.236752537912004" lon="13.770360109177588"><ele>828.0</ele><time>2026-04-27T08:46:47Z</time></trkpt><trkpt lat="42.23665489905313" lon="13.770419862236006"><ele>828.0</ele><time>2026-04-27T08:46:48Z</time></trkpt><trkpt lat="42.23655386430772" lon="13.77045857793521"><ele>828.0</ele><time>2026-04-27T08:46:49Z</time></trkpt><trkpt lat="42.236450858541474" lon="13.770488649081631"><ele>829.75</ele><time>2026-04-27T08:46:50Z</time></trkpt><trkpt lat="42.23635128724942" lon="13.770515941377237"><ele>831.5</ele><time>2026-04-27T08:46:51Z</time></trkpt><trkpt lat="42.23623013709895" lon="13.770547815578402"><ele>833.25</ele><time>2026-04-27T08:46:52Z</time></trkpt><trkpt lat="42.236105746933234" lon="13.770581434346756"><ele>835.0</ele><time>2026-04-27T08:46:53Z</time></trkpt><trkpt lat="42.236004944743286" lon="13.770616726300243"><ele>835.0</ele><time>2026-04-27T08:46:54Z</time></trkpt><trkpt lat="42.235935203361976" lon="13.770643472139433"><ele>835.0</ele><time>2026-04-27T08:46:55Z</time></trkpt><trkpt lat="42.23585555549474" lon="13.77067541683129"><ele>835.0</ele><time>2026-04-27T08:46:57Z</time></trkpt><trkpt lat="42.23584630207481" lon="13.770823993678983"><ele>835.0</ele><time>2026-04-27T08:47:05Z</time></trkpt><trkpt lat="42.235850206731385" lon="13.770997581580527"><ele>835.0</ele><time>2026-04-27T08:47:07Z</time></trkpt><trkpt lat="42.2358754108288" lon="13.771169996509729"><ele>834.8333333333333</ele><time>2026-04-27T08:47:09Z</time></trkpt><trkpt lat="42.23589093959332" lon="13.771275404462264"><ele>834.6666666666666</ele><time>2026-04-27T08:47:10Z</time></trkpt><trkpt lat="42.23589965073234" lon="13.771410110417873"><ele>834.5</ele><time>2026-04-27T08:47:11Z</time></trkpt><trkpt lat="42.23590443202623" lon="13.771550898148515"><ele>834.3333333333333</ele><time>2026-04-27T08:47:12Z</time></trkpt><trkpt lat="42.235914287990354" lon="13.771657118908676"><ele>834.1666666666666</ele><time>2026-04-27T08:47:13Z</time></trkpt><trkpt lat="42.235913019009374" lon="13.771761971138424"><ele>834.0</ele><time>2026-04-27T08:47:14Z</time></trkpt><trkpt lat="42.23589793075432" lon="13.771861374162016"><ele>834.0</ele><time>2026-04-27T08:47:15Z</time></trkpt><trkpt lat="42.235864747624" lon="13.771974957354317"><ele>834.0</ele><time>2026-04-27T08:47:16Z</time></trkpt><trkpt lat="42.23581877410127" lon="13.772084887743803"><ele>834.0</ele><time>2026-04-27T08:47:17Z</time></trkpt><trkpt lat="42.23576166385735" lon="13.772195062116356"><ele>834.0</ele><time>2026-04-27T08:47:18Z</time></trkpt><trkpt lat="42.235691128961854" lon="13.772298034470161"><ele>834.0</ele><time>2026-04-27T08:47:19Z</time></trkpt><trkpt lat="42.235602968784896" lon="13.772395962544952"><ele>835.2</ele><time>2026-04-27T08:47:20Z</time></trkpt><trkpt lat="42.2355382611227" lon="13.772504764035428"><ele>836.4000000000001</ele><time>2026-04-27T08:47:21Z</time></trkpt><trkpt lat="42.23549106300323" lon="13.772626312244475"><ele>837.6</ele><time>2026-04-27T08:47:22Z</time></trkpt><trkpt lat="42.235450414336256" lon="13.772733836528568"><ele>838.8</ele><time>2026-04-27T08:47:23Z</time></trkpt><trkpt lat="42.23538299348262" lon="13.772821308137702"><ele>840.0</ele><time>2026-04-27T08:47:24Z</time></trkpt><trkpt lat="42.23528442443185" lon="13.772914484584254"><ele>840.0</ele><time>2026-04-27T08:47:25Z</time></trkpt><trkpt lat="42.235172574077694" lon="13.773019231188593"><ele>840.0</ele><time>2026-04-27T08:47:26Z</time></trkpt><trkpt lat="42.235093926330556" lon="13.773130373279045"><ele>840.0</ele><time>2026-04-27T08:47:27Z</time></trkpt><trkpt lat="42.23504276509364" lon="13.773248861759631"><ele>840.0</ele><time>2026-04-27T08:47:28Z</time></trkpt><trkpt lat="42.235018582243534" lon="13.773350049392604"><ele>840.0</ele><time>2026-04-27T08:47:29Z</time></trkpt><trkpt lat="42.23501509241631" lon="13.773451034307012"><ele>840.8</ele><time>2026-04-27T08:47:30Z</time></trkpt><trkpt lat="42.235026523564876" lon="13.773548996000535"><ele>841.6</ele><time>2026-04-27T08:47:31Z</time></trkpt><trkpt lat="42.23505978962469" lon="13.773685406547536"><ele>842.4000000000001</ele><time>2026-04-27T08:47:32Z</time></trkpt><trkpt lat="42.23509927535464" lon="13.773855011765715"><ele>843.2</ele><time>2026-04-27T08:47:33Z</time></trkpt><trkpt lat="42.23514738255035" lon="13.773962390171022"><ele>844.0</ele><time>2026-04-27T08:47:34Z</time></trkpt><trkpt lat="42.23520015082054" lon="13.774028647369775"><ele>844.0</ele><time>2026-04-27T08:47:35Z</time></trkpt><trkpt lat="42.23529192026047" lon="13.774119092948222"><ele>844.0</ele><time>2026-04-27T08:47:36Z</time></trkpt><trkpt lat="42.2353857024525" lon="13.774208086634374"><ele>844.0</ele><time>2026-04-27T08:47:37Z</time></trkpt><trkpt lat="42.23544739837966" lon="13.774293168964407"><ele>844.0</ele><time>2026-04-27T08:47:38Z</time></trkpt><trkpt lat="42.23546499458157" lon="13.774386886378311"><ele>844.0</ele><time>2026-04-27T08:47:39Z</time></trkpt><trkpt lat="42.23548586592376" lon="13.774512779640785"><ele>845.25</ele><time>2026-04-27T08:47:40Z</time></trkpt><trkpt lat="42.23550195968417" lon="13.774663630929984"><ele>846.5</ele><time>2026-04-27T08:47:41Z</time></trkpt><trkpt lat="42.23553045856115" lon="13.774841419020108"><ele>847.75</ele><time>2026-04-27T08:47:42Z</time></trkpt><trkpt lat="42.23555321685231" lon="13.774989683286435"><ele>849.0</ele><time>2026-04-27T08:47:43Z</time></trkpt><trkpt lat="42.23554590982993" lon="13.775135149455702"><ele>847.25</ele><time>2026-04-27T08:47:44Z</time></trkpt><trkpt lat="42.23551458252347" lon="13.775293381060324"><ele>845.5</ele><time>2026-04-27T08:47:45Z</time></trkpt><trkpt lat="42.235480208747646" lon="13.775453931315857"><ele>843.75</ele><time>2026-04-27T08:47:46Z</time></trkpt><trkpt lat="42.23545896434154" lon="13.775595934280013"><ele>842.0</ele><time>2026-04-27T08:47:47Z</time></trkpt><trkpt lat="42.23540485834072" lon="13.775723485404496"><ele>842.0</ele><time>2026-04-27T08:47:48Z</time></trkpt><trkpt lat="42.23533707585753" lon="13.775844032398496"><ele>842.0</ele><time>2026-04-27T08:47:49Z</time></trkpt><trkpt lat="42.23525709967603" lon="13.775936827806765"><ele>842.0</ele><time>2026-04-27T08:47:50Z</time></trkpt><trkpt lat="42.23516351588091" lon="13.776017740500318"><ele>842.0</ele><time>2026-04-27T08:47:51Z</time></trkpt><trkpt lat="42.23505971982395" lon="13.776077725052184"><ele>842.0</ele><time>2026-04-27T08:47:52Z</time></trkpt><trkpt lat="42.23495059092835" lon="13.776115318368413"><ele>844.0</ele><time>2026-04-27T08:47:53Z</time></trkpt><trkpt lat="42.2348382251251" lon="13.776143307879838"><ele>846.0</ele><time>2026-04-27T08:47:54Z</time></trkpt><trkpt lat="42.23471020336494" lon="13.776182666615766"><ele>848.0</ele><time>2026-04-27T08:47:55Z</time></trkpt><trkpt lat="42.23459783838691" lon="13.776214640469508"><ele>850.0</ele><time>2026-04-27T08:47:56Z</time></trkpt><trkpt lat="42.23451224202707" lon="13.776228593426442"><ele>852.0</ele><time>2026-04-27T08:47:57Z</time></trkpt><trkpt lat="42.23444275489608" lon="13.776264916586724"><ele>852.0</ele><time>2026-04-27T08:47:58Z</time></trkpt><trkpt lat="42.234394204205124" lon="13.77632651967977"><ele>852.0</ele><time>2026-04-27T08:47:59Z</time></trkpt><trkpt lat="42.23436840005303" lon="13.776415301524088"><ele>852.0</ele><time>2026-04-27T08:48:00Z</time></trkpt><trkpt lat="42.23437413573586" lon="13.776510010022578"><ele>852.0</ele><time>2026-04-27T08:48:01Z</time></trkpt><trkpt lat="42.23440656987559" lon="13.776606625349277"><ele>852.0</ele><time>2026-04-27T08:48:02Z</time></trkpt><trkpt lat="42.234463701924234" lon="13.776702761831224"><ele>852.0</ele><time>2026-04-27T08:48:03Z</time></trkpt><trkpt lat="42.23453189058011" lon="13.77681951528696"><ele>853.0</ele><time>2026-04-27T08:48:04Z</time></trkpt><trkpt lat="42.23459854824503" lon="13.776934555128564"><ele>854.0</ele><time>2026-04-27T08:48:05Z</time></trkpt><trkpt lat="42.23463784346792" lon="13.7770304925592"><ele>855.0</ele><time>2026-04-27T08:48:06Z</time></trkpt><trkpt lat="42.23467891936001" lon="13.77711375032256"><ele>856.0</ele><time>2026-04-27T08:48:07Z</time></trkpt><trkpt lat="42.23473900420048" lon="13.777193873314005"><ele>857.0</ele><time>2026-04-27T08:48:08Z</time></trkpt><trkpt lat="42.234792487029445" lon="13.77726406122434"><ele>858.0</ele><time>2026-04-27T08:48:09Z</time></trkpt><trkpt lat="42.23484811793426" lon="13.77732812999264"><ele>856.4</ele><time>2026-04-27T08:48:10Z</time></trkpt><trkpt lat="42.23490764450889" lon="13.777387979429427"><ele>854.8</ele><time>2026-04-27T08:48:11Z</time></trkpt><trkpt lat="42.23496842291241" lon="13.77747009497664"><ele>853.2</ele><time>2026-04-27T08:48:12Z</time></trkpt><trkpt lat="42.23502075724496" lon="13.777562534635926"><ele>851.6</ele><time>2026-04-27T08:48:13Z</time></trkpt><trkpt lat="42.23510343568221" lon="13.777660853888342"><ele>850.0</ele><time>2026-04-27T08:48:14Z</time></trkpt><trkpt lat="42.235175762063704" lon="13.777759497975934"><ele>849.9999999999999</ele><time>2026-04-27T08:48:15Z</time></trkpt><trkpt lat="42.23523970858855" lon="13.777853676031304"><ele>850.0</ele><time>2026-04-27T08:48:16Z</time></trkpt><trkpt lat="42.2352828220759" lon="13.777951962055148"><ele>850.0</ele><time>2026-04-27T08:48:17Z</time></trkpt><trkpt lat="42.23532604422536" lon="13.778061113502176"><ele>850.0</ele><time>2026-04-27T08:48:18Z</time></trkpt><trkpt lat="42.235338718071084" lon="13.77816859580121"><ele>849.9999999999999</ele><time>2026-04-27T08:48:19Z</time></trkpt><trkpt lat="42.23533739351736" lon="13.778283507633452"><ele>850.0</ele><time>2026-04-27T08:48:20Z</time></trkpt><trkpt lat="42.235330749783074" lon="13.77840026584583"><ele>849.8</ele><time>2026-04-27T08:48:21Z</time></trkpt><trkpt lat="42.235322207532285" lon="13.778573909830106"><ele>849.6</ele><time>2026-04-27T08:48:22Z</time></trkpt><trkpt lat="42.235291535969964" lon="13.778696257915307"><ele>849.4000000000001</ele><time>2026-04-27T08:48:23Z</time></trkpt><trkpt lat="42.235246926272865" lon="13.778805332797976"><ele>849.2</ele><time>2026-04-27T08:48:24Z</time></trkpt><trkpt lat="42.235181066515125" lon="13.778921082234891"><ele>849.0</ele><time>2026-04-27T08:48:25Z</time></trkpt><trkpt lat="42.235102795187835" lon="13.779032092779675"><ele>849.0</ele><time>2026-04-27T08:48:26Z</time></trkpt><trkpt lat="42.23501317063258" lon="13.779133268210648"><ele>849.0</ele><time>2026-04-27T08:48:27Z</time></trkpt><trkpt lat="42.23490249971968" lon="13.779249435805175"><ele>849.0</ele><time>2026-04-27T08:48:28Z</time></trkpt><trkpt lat="42.2347875333385" lon="13.779371348405258"><ele>849.0</ele><time>2026-04-27T08:48:29Z</time></trkpt><trkpt lat="42.234646625701565" lon="13.77950067433093"><ele>848.75</ele><time>2026-04-27T08:48:30Z</time></trkpt><trkpt lat="42.2345121944796" lon="13.779610248231586"><ele>848.5</ele><time>2026-04-27T08:48:31Z</time></trkpt><trkpt lat="42.2343966039175" lon="13.779705854211885"><ele>848.25</ele><time>2026-04-27T08:48:32Z</time></trkpt><trkpt lat="42.23429603627588" lon="13.779798086832212"><ele>848.0</ele><time>2026-04-27T08:48:33Z</time></trkpt><trkpt lat="42.234212435187544" lon="13.779857978684618"><ele>848.0</ele><time>2026-04-27T08:48:34Z</time></trkpt><trkpt lat="42.23412347688658" lon="13.779898936143624"><ele>848.0</ele><time>2026-04-27T08:48:35Z</time></trkpt><trkpt lat="42.23402950223955" lon="13.779930322087587"><ele>848.0</ele><time>2026-04-27T08:48:36Z</time></trkpt><trkpt lat="42.23394901984001" lon="13.779966773571088"><ele>848.0</ele><time>2026-04-27T08:48:37Z</time></trkpt><trkpt lat="42.23387847852602" lon="13.780095849624"><ele>848.0</ele><time>2026-04-27T08:48:39Z</time></trkpt><trkpt lat="42.23387868122586" lon="13.78019279356323"><ele>847.1666666666667</ele><time>2026-04-27T08:48:40Z</time></trkpt><trkpt lat="42.233909694916214" lon="13.780280397184276"><ele>846.3333333333334</ele><time>2026-04-27T08:48:41Z</time></trkpt><trkpt lat="42.233967492515546" lon="13.78037752491551"><ele>845.5</ele><time>2026-04-27T08:48:42Z</time></trkpt><trkpt lat="42.23400910726129" lon="13.780479041156276"><ele>844.6666666666667</ele><time>2026-04-27T08:48:43Z</time></trkpt><trkpt lat="42.23402838591545" lon="13.78060942663388"><ele>843.8333333333334</ele><time>2026-04-27T08:48:44Z</time></trkpt><trkpt lat="42.234026288096864" lon="13.780731619537743"><ele>843.0</ele><time>2026-04-27T08:48:45Z</time></trkpt><trkpt lat="42.23402869858731" lon="13.78086539009163"><ele>842.5</ele><time>2026-04-27T08:48:46Z</time></trkpt><trkpt lat="42.23401251614344" lon="13.781024134184788"><ele>842.0</ele><time>2026-04-27T08:48:47Z</time></trkpt><trkpt lat="42.23400795069342" lon="13.781193757474972"><ele>841.5</ele><time>2026-04-27T08:48:48Z</time></trkpt><trkpt lat="42.234002508579806" lon="13.78136506033996"><ele>841.0</ele><time>2026-04-27T08:48:49Z</time></trkpt><trkpt lat="42.234012807772466" lon="13.781483098030463"><ele>840.9999999999999</ele><time>2026-04-27T08:48:50Z</time></trkpt><trkpt lat="42.23403655359099" lon="13.781580147999458"><ele>841.0</ele><time>2026-04-27T08:48:51Z</time></trkpt><trkpt lat="42.234049585541314" lon="13.781696666513568"><ele>841.0</ele><time>2026-04-27T08:48:53Z</time></trkpt><trkpt lat="42.233982449693656" lon="13.781687839099702"><ele>841.0</ele><time>2026-04-27T08:48:56Z</time></trkpt><trkpt lat="42.23392779069153" lon="13.781566809411753"><ele>840.9999999999999</ele><time>2026-04-27T08:48:58Z</time></trkpt><trkpt lat="42.233910375297334" lon="13.78145566864169"><ele>841.0</ele><time>2026-04-27T08:48:59Z</time></trkpt><trkpt lat="42.233877790690556" lon="13.781358981321699"><ele>841.5999999999999</ele><time>2026-04-27T08:49:00Z</time></trkpt><trkpt lat="42.23382876348928" lon="13.781264861926113"><ele>842.2</ele><time>2026-04-27T08:49:01Z</time></trkpt><trkpt lat="42.233767795000304" lon="13.781167006743726"><ele>842.8</ele><time>2026-04-27T08:49:02Z</time></trkpt><trkpt lat="42.233706595927586" lon="13.781072382991418"><ele>843.4000000000001</ele><time>2026-04-27T08:49:03Z</time></trkpt><trkpt lat="42.23363254214053" lon="13.780968862314843"><ele>844.0</ele><time>2026-04-27T08:49:04Z</time></trkpt><trkpt lat="42.23354848988422" lon="13.780847868177108"><ele>846.75</ele><time>2026-04-27T08:49:05Z</time></trkpt><trkpt lat="42.233464330392" lon="13.780708051918513"><ele>849.5</ele><time>2026-04-27T08:49:06Z</time></trkpt><trkpt lat="42.23337418730717" lon="13.78058029697255"><ele>852.25</ele><time>2026-04-27T08:49:07Z</time></trkpt><trkpt lat="42.23327355493862" lon="13.780474737083564"><ele>855.0</ele><time>2026-04-27T08:49:08Z</time></trkpt><trkpt lat="42.23317086084014" lon="13.780373822442051"><ele>856.8</ele><time>2026-04-27T08:49:09Z</time></trkpt><trkpt lat="42.23309972410628" lon="13.78028293168216"><ele>858.6</ele><time>2026-04-27T08:49:10Z</time></trkpt><trkpt lat="42.233046991483555" lon="13.780173326989233"><ele>860.4000000000001</ele><time>2026-04-27T08:49:11Z</time></trkpt><trkpt lat="42.23300632649047" lon="13.780077190893406"><ele>862.2</ele><time>2026-04-27T08:49:12Z</time></trkpt><trkpt lat="42.23294612842769" lon="13.779950993607686"><ele>864.0</ele><time>2026-04-27T08:49:13Z</time></trkpt><trkpt lat="42.23287271136054" lon="13.779857186836079"><ele>865.6</ele><time>2026-04-27T08:49:14Z</time></trkpt><trkpt lat="42.23279609382059" lon="13.779761185032799"><ele>867.2</ele><time>2026-04-27T08:49:15Z</time></trkpt><trkpt lat="42.232706362233756" lon="13.779681850604925"><ele>868.8000000000001</ele><time>2026-04-27T08:49:16Z</time></trkpt><trkpt lat="42.232630393592075" lon="13.779614861778395"><ele>870.4000000000001</ele><time>2026-04-27T08:49:17Z</time></trkpt><trkpt lat="42.23253649429974" lon="13.77954971772041"><ele>872.0</ele><time>2026-04-27T08:49:18Z</time></trkpt><trkpt lat="42.23244585383203" lon="13.779495598994377"><ele>872.0</ele><time>2026-04-27T08:49:19Z</time></trkpt><trkpt lat="42.23234184208272" lon="13.779464366513297"><ele>872.0</ele><time>2026-04-27T08:49:20Z</time></trkpt><trkpt lat="42.232218840105794" lon="13.779413199609612"><ele>872.0</ele><time>2026-04-27T08:49:21Z</time></trkpt><trkpt lat="42.23208286874609" lon="13.779363912439186"><ele>872.0</ele><time>2026-04-27T08:49:22Z</time></trkpt><trkpt lat="42.231946584665096" lon="13.779318692827069"><ele>875.75</ele><time>2026-04-27T08:49:23Z</time></trkpt><trkpt lat="42.231838695517546" lon="13.779280797234213"><ele>879.5</ele><time>2026-04-27T08:49:24Z</time></trkpt><trkpt lat="42.23173603080816" lon="13.77922870131341"><ele>883.25</ele><time>2026-04-27T08:49:25Z</time></trkpt><trkpt lat="42.23163424581259" lon="13.779146090952203"><ele>887.0</ele><time>2026-04-27T08:49:26Z</time></trkpt><trkpt lat="42.23152446142708" lon="13.779041702016524"><ele>888.1666666666667</ele><time>2026-04-27T08:49:27Z</time></trkpt><trkpt lat="42.23143555548453" lon="13.778958419663715"><ele>889.3333333333334</ele><time>2026-04-27T08:49:28Z</time></trkpt><trkpt lat="42.23135712254163" lon="13.778902286511464"><ele>890.5</ele><time>2026-04-27T08:49:29Z</time></trkpt><trkpt lat="42.23130831039497" lon="13.778832968765041"><ele>891.6666666666667</ele><time>2026-04-27T08:49:30Z</time></trkpt><trkpt lat="42.23126649692726" lon="13.778758365390395"><ele>892.8333333333334</ele><time>2026-04-27T08:49:31Z</time></trkpt><trkpt lat="42.231209717378725" lon="13.778658162150624"><ele>894.0</ele><time>2026-04-27T08:49:32Z</time></trkpt><trkpt lat="42.23113860119377" lon="13.778550726477215"><ele>894.0</ele><time>2026-04-27T08:49:33Z</time></trkpt><trkpt lat="42.23105448744517" lon="13.778488119631717"><ele>894.0000000000001</ele><time>2026-04-27T08:49:34Z</time></trkpt><trkpt lat="42.230979208102084" lon="13.778492047570188"><ele>894.0000000000001</ele><time>2026-04-27T08:49:35Z</time></trkpt><trkpt lat="42.230905927026406" lon="13.778530380791446"><ele>894.0</ele><time>2026-04-27T08:49:36Z</time></trkpt><trkpt lat="42.23083944828521" lon="13.778583059291503"><ele>894.0</ele><time>2026-04-27T08:49:37Z</time></trkpt><trkpt lat="42.230698826173764" lon="13.778532634977683"><ele>898.0</ele><time>2026-04-27T08:49:39Z</time></trkpt><trkpt lat="42.23062414863729" lon="13.778475550619707"><ele>902.0000000000001</ele><time>2026-04-27T08:49:40Z</time></trkpt><trkpt lat="42.2305541354948" lon="13.778424117273698"><ele>906.0000000000001</ele><time>2026-04-27T08:49:41Z</time></trkpt><trkpt lat="42.230481086341804" lon="13.778375434501111"><ele>910.0</ele><time>2026-04-27T08:49:42Z</time></trkpt><trkpt lat="42.23037427917094" lon="13.77832666746595"><ele>914.0</ele><time>2026-04-27T08:49:43Z</time></trkpt><trkpt lat="42.2302889010084" lon="13.778286223757824"><ele>914.0</ele><time>2026-04-27T08:49:44Z</time></trkpt><trkpt lat="42.230210746956224" lon="13.778264175642905"><ele>914.0000000000001</ele><time>2026-04-27T08:49:45Z</time></trkpt><trkpt lat="42.23007694337372" lon="13.77827215994493"><ele>914.0000000000001</ele><time>2026-04-27T08:49:47Z</time></trkpt><trkpt lat="42.23000651667026" lon="13.77828107029572"><ele>914.0</ele><time>2026-04-27T08:49:48Z</time></trkpt><trkpt lat="42.22987221983829" lon="13.778239707708796"><ele>914.0</ele><time>2026-04-27T08:49:50Z</time></trkpt><trkpt lat="42.229798560500704" lon="13.778190278226099"><ele>914.6</ele><time>2026-04-27T08:49:51Z</time></trkpt><trkpt lat="42.22971234154686" lon="13.778116473086905"><ele>915.2</ele><time>2026-04-27T08:49:52Z</time></trkpt><trkpt lat="42.22962864116535" lon="13.778046579133852"><ele>915.8000000000001</ele><time>2026-04-27T08:49:53Z</time></trkpt><trkpt lat="42.22952565506776" lon="13.777974149014875"><ele>916.4000000000001</ele><time>2026-04-27T08:49:54Z</time></trkpt><trkpt lat="42.22943584626281" lon="13.777910618865901"><ele>917.0</ele><time>2026-04-27T08:49:55Z</time></trkpt><trkpt lat="42.22935740578896" lon="13.77787582197175"><ele>917.0000000000001</ele><time>2026-04-27T08:49:56Z</time></trkpt><trkpt lat="42.22925489961348" lon="13.777882639735468"><ele>917.0</ele><time>2026-04-27T08:49:58Z</time></trkpt><trkpt lat="42.229195957796826" lon="13.77792411618824"><ele>917.0</ele><time>2026-04-27T08:49:59Z</time></trkpt><trkpt lat="42.229111807931034" lon="13.77795853436789"><ele>917.0</ele><time>2026-04-27T08:50:00Z</time></trkpt><trkpt lat="42.22902991740925" lon="13.77797198682896"><ele>917.0000000000001</ele><time>2026-04-27T08:50:01Z</time></trkpt><trkpt lat="42.22893800638583" lon="13.77796532785382"><ele>917.0</ele><time>2026-04-27T08:50:02Z</time></trkpt><trkpt lat="42.22885974598447" lon="13.777917451702287"><ele>917.2</ele><time>2026-04-27T08:50:03Z</time></trkpt><trkpt lat="42.228796762013445" lon="13.777847120766072"><ele>917.4000000000001</ele><time>2026-04-27T08:50:04Z</time></trkpt><trkpt lat="42.228733121428746" lon="13.777736083129282"><ele>917.5999999999999</ele><time>2026-04-27T08:50:05Z</time></trkpt><trkpt lat="42.228673103447946" lon="13.77762990273454"><ele>917.8</ele><time>2026-04-27T08:50:06Z</time></trkpt><trkpt lat="42.22860468895488" lon="13.777518530935696"><ele>918.0</ele><time>2026-04-27T08:50:07Z</time></trkpt><trkpt lat="42.22848597951383" lon="13.777473525156864"><ele>918.0</ele><time>2026-04-27T08:50:09Z</time></trkpt><trkpt lat="42.22837286263747" lon="13.777481231158136"><ele>918.0</ele><time>2026-04-27T08:50:10Z</time></trkpt><trkpt lat="42.22825479032941" lon="13.777494599556599"><ele>918.0</ele><time>2026-04-27T08:50:11Z</time></trkpt><trkpt lat="42.22811146559126" lon="13.777517360938349"><ele>918.0</ele><time>2026-04-27T08:50:12Z</time></trkpt><trkpt lat="42.22799457947359" lon="13.777555972319536"><ele>918.0</ele><time>2026-04-27T08:50:13Z</time></trkpt><trkpt lat="42.227881611600665" lon="13.777619193464547"><ele>918.0</ele><time>2026-04-27T08:50:14Z</time></trkpt><trkpt lat="42.22778050878211" lon="13.777687100351013"><ele>918.0</ele><time>2026-04-27T08:50:15Z</time></trkpt><trkpt lat="42.22768608158767" lon="13.777764244525406"><ele>918.0</ele><time>2026-04-27T08:50:16Z</time></trkpt><trkpt lat="42.22756389981364" lon="13.777818053202065"><ele>918.25</ele><time>2026-04-27T08:50:17Z</time></trkpt><trkpt lat="42.22745461075827" lon="13.77791465663553"><ele>918.5</ele><time>2026-04-27T08:50:18Z</time></trkpt><trkpt lat="42.22733530244532" lon="13.778025035397071"><ele>918.75</ele><time>2026-04-27T08:50:19Z</time></trkpt><trkpt lat="42.22722736377795" lon="13.77813113657293"><ele>919.0</ele><time>2026-04-27T08:50:20Z</time></trkpt><trkpt lat="42.22710719695746" lon="13.778249257684708"><ele>919.0</ele><time>2026-04-27T08:50:21Z</time></trkpt><trkpt lat="42.226985514953334" lon="13.778362109354848"><ele>919.0</ele><time>2026-04-27T08:50:22Z</time></trkpt><trkpt lat="42.22685981412124" lon="13.77846567951744"><ele>919.0</ele><time>2026-04-27T08:50:23Z</time></trkpt><trkpt lat="42.22672867984205" lon="13.778575124803007"><ele>919.0</ele><time>2026-04-27T08:50:24Z</time></trkpt><trkpt lat="42.2266173800654" lon="13.77867136863326"><ele>919.5</ele><time>2026-04-27T08:50:25Z</time></trkpt><trkpt lat="42.2265093168024" lon="13.778768539454143"><ele>920.0</ele><time>2026-04-27T08:50:26Z</time></trkpt><trkpt lat="42.22639813110058" lon="13.778871883835432"><ele>920.5</ele><time>2026-04-27T08:50:27Z</time></trkpt><trkpt lat="42.22628060474802" lon="13.778996721020372"><ele>921.0</ele><time>2026-04-27T08:50:28Z</time></trkpt><trkpt lat="42.22616965274848" lon="13.779129091399186"><ele>920.0</ele><time>2026-04-27T08:50:29Z</time></trkpt><trkpt lat="42.22606054154915" lon="13.779269765373812"><ele>919.0</ele><time>2026-04-27T08:50:30Z</time></trkpt><trkpt lat="42.22596060862282" lon="13.779416928823572"><ele>918.0</ele><time>2026-04-27T08:50:31Z</time></trkpt><trkpt lat="42.22586923710789" lon="13.779567268516775"><ele>917.0</ele><time>2026-04-27T08:50:32Z</time></trkpt><trkpt lat="42.22578056379345" lon="13.779704886027854"><ele>917.0</ele><time>2026-04-27T08:50:33Z</time></trkpt><trkpt lat="42.225697532678" lon="13.779827398851396"><ele>917.0</ele><time>2026-04-27T08:50:34Z</time></trkpt><trkpt lat="42.225608612363416" lon="13.779956946575014"><ele>917.0</ele><time>2026-04-27T08:50:35Z</time></trkpt><trkpt lat="42.22552020095613" lon="13.780081416525428"><ele>917.0</ele><time>2026-04-27T08:50:36Z</time></trkpt><trkpt lat="42.22543339955369" lon="13.780210421506137"><ele>914.5</ele><time>2026-04-27T08:50:37Z</time></trkpt><trkpt lat="42.22534893063645" lon="13.780355757402422"><ele>912.0</ele><time>2026-04-27T08:50:38Z</time></trkpt><trkpt lat="42.2252738557283" lon="13.78049825912272"><ele>909.5</ele><time>2026-04-27T08:50:39Z</time></trkpt><trkpt lat="42.22519711846804" lon="13.780653956721574"><ele>907.0</ele><time>2026-04-27T08:50:40Z</time></trkpt><trkpt lat="42.22511540212204" lon="13.780812536370643"><ele>907.0</ele><time>2026-04-27T08:50:41Z</time></trkpt><trkpt lat="42.22502126125812" lon="13.780939111813488"><ele>907.0</ele><time>2026-04-27T08:50:42Z</time></trkpt><trkpt lat="42.22493367968555" lon="13.78104930072865"><ele>907.0</ele><time>2026-04-27T08:50:43Z</time></trkpt><trkpt lat="42.22484507908434" lon="13.781159637486203"><ele>907.0</ele><time>2026-04-27T08:50:44Z</time></trkpt><trkpt lat="42.22476774135656" lon="13.781259657701469"><ele>903.2</ele><time>2026-04-27T08:50:45Z</time></trkpt><trkpt lat="42.224705223395375" lon="13.781350360144142"><ele>899.4000000000001</ele><time>2026-04-27T08:50:46Z</time></trkpt><trkpt lat="42.224661010319295" lon="13.781466085017723"><ele>895.5999999999999</ele><time>2026-04-27T08:50:47Z</time></trkpt><trkpt lat="42.22464374852789" lon="13.781607726229641"><ele>891.8</ele><time>2026-04-27T08:50:48Z</time></trkpt><trkpt lat="42.2246153076071" lon="13.781771282412677"><ele>888.0</ele><time>2026-04-27T08:50:49Z</time></trkpt><trkpt lat="42.22455809864418" lon="13.781926008980816"><ele>887.5</ele><time>2026-04-27T08:50:50Z</time></trkpt><trkpt lat="42.224480744039276" lon="13.782047397404668"><ele>887.0</ele><time>2026-04-27T08:50:51Z</time></trkpt><trkpt lat="42.224415900902066" lon="13.782189967652805"><ele>886.5</ele><time>2026-04-27T08:50:52Z</time></trkpt><trkpt lat="42.224362205437274" lon="13.782325162147117"><ele>886.0</ele><time>2026-04-27T08:50:53Z</time></trkpt><trkpt lat="42.224318908034356" lon="13.782460338157769"><ele>886.0</ele><time>2026-04-27T08:50:54Z</time></trkpt><trkpt lat="42.224286347039744" lon="13.782602669509599"><ele>885.9999999999999</ele><time>2026-04-27T08:50:55Z</time></trkpt><trkpt lat="42.224270218700724" lon="13.782733718829963"><ele>885.9999999999999</ele><time>2026-04-27T08:50:56Z</time></trkpt><trkpt lat="42.22426684502003" lon="13.782841164326044"><ele>886.0</ele><time>2026-04-27T08:50:57Z</time></trkpt><trkpt lat="42.22424496302363" lon="13.78296037149938"><ele>886.0</ele><time>2026-04-27T08:50:59Z</time></trkpt><trkpt lat="42.22417440588161" lon="13.782911562806193"><ele>886.0</ele><time>2026-04-27T08:51:01Z</time></trkpt><trkpt lat="42.22414773341498" lon="13.782833807775292"><ele>885.9999999999999</ele><time>2026-04-27T08:51:02Z</time></trkpt><trkpt lat="42.22408838401511" lon="13.782743188801433"><ele>885.9999999999999</ele><time>2026-04-27T08:51:03Z</time></trkpt><trkpt lat="42.224028775744095" lon="13.782619757417539"><ele>886.0</ele><time>2026-04-27T08:51:04Z</time></trkpt><trkpt lat="42.22396117875401" lon="13.782476663862093"><ele>886.0</ele><time>2026-04-27T08:51:05Z</time></trkpt><trkpt lat="42.22390098300524" lon="13.782314658362411"><ele>880.4</ele><time>2026-04-27T08:51:06Z</time></trkpt><trkpt lat="42.223854801508615" lon="13.7821619567268"><ele>874.8</ele><time>2026-04-27T08:51:07Z</time></trkpt><trkpt lat="42.223817867125774" lon="13.782039196471578"><ele>869.1999999999999</ele><time>2026-04-27T08:51:08Z</time></trkpt><trkpt lat="42.223782342042895" lon="13.781950899917844"><ele>863.5999999999999</ele><time>2026-04-27T08:51:09Z</time></trkpt><trkpt lat="42.223719760381286" lon="13.781853472291473"><ele>858.0</ele><time>2026-04-27T08:51:11Z</time></trkpt><trkpt lat="42.2236153334059" lon="13.781924306884349"><ele>858.0</ele><time>2026-04-27T08:51:13Z</time></trkpt><trkpt lat="42.22362348327604" lon="13.782042882048673"><ele>858.0</ele><time>2026-04-27T08:51:14Z</time></trkpt><trkpt lat="42.22360619128267" lon="13.782160273339011"><ele>858.0</ele><time>2026-04-27T08:51:15Z</time></trkpt><trkpt lat="42.22358257395463" lon="13.782309078734675"><ele>858.0</ele><time>2026-04-27T08:51:16Z</time></trkpt><trkpt lat="42.223569846224834" lon="13.782460426934158"><ele>858.0</ele><time>2026-04-27T08:51:17Z</time></trkpt><trkpt lat="42.22355589133136" lon="13.78257188601338"><ele>858.0</ele><time>2026-04-27T08:51:18Z</time></trkpt><trkpt lat="42.223525072685916" lon="13.782658163449407"><ele>858.0</ele><time>2026-04-27T08:51:20Z</time></trkpt><trkpt lat="42.223482921517196" lon="13.782573616432117"><ele>858.0</ele><time>2026-04-27T08:51:22Z</time></trkpt><trkpt lat="42.223444590115015" lon="13.782470780394483"><ele>858.0</ele><time>2026-04-27T08:51:23Z</time></trkpt><trkpt lat="42.22338769804636" lon="13.782329142136314"><ele>858.0</ele><time>2026-04-27T08:51:24Z</time></trkpt><trkpt lat="42.22334516598899" lon="13.782228911437484"><ele>858.0</ele><time>2026-04-27T08:51:25Z</time></trkpt><trkpt lat="42.2233103922134" lon="13.782114384348878"><ele>858.0</ele><time>2026-04-27T08:51:26Z</time></trkpt><trkpt lat="42.22327939764103" lon="13.782030616500569"><ele>858.0</ele><time>2026-04-27T08:51:27Z</time></trkpt><trkpt lat="42.22321279893616" lon="13.78194603965413"><ele>858.0</ele><time>2026-04-27T08:51:29Z</time></trkpt><trkpt lat="42.22310660923791" lon="13.782016073412692"><ele>858.0</ele><time>2026-04-27T08:51:30Z</time></trkpt><trkpt lat="42.22305288292728" lon="13.78220084023679"><ele>858.0</ele><time>2026-04-27T08:51:31Z</time></trkpt><trkpt lat="42.222979544270075" lon="13.782323990334005"><ele>856.8</ele><time>2026-04-27T08:51:32Z</time></trkpt><trkpt lat="42.22290859969425" lon="13.782441462361085"><ele>855.5999999999999</ele><time>2026-04-27T08:51:33Z</time></trkpt><trkpt lat="42.2228621648048" lon="13.782510004468616"><ele>854.4000000000001</ele><time>2026-04-27T08:51:34Z</time></trkpt><trkpt lat="42.222737150191755" lon="13.782459526410639"><ele>853.2</ele><time>2026-04-27T08:51:36Z</time></trkpt><trkpt lat="42.22265409814501" lon="13.78242536346853"><ele>852.0</ele><time>2026-04-27T08:51:37Z</time></trkpt><trkpt lat="42.22258282835483" lon="13.782354325550784"><ele>852.0</ele><time>2026-04-27T08:51:38Z</time></trkpt><trkpt lat="42.22251066847228" lon="13.782260210141574"><ele>852.0</ele><time>2026-04-27T08:51:39Z</time></trkpt><trkpt lat="42.22242550481193" lon="13.78216077788275"><ele>852.0</ele><time>2026-04-27T08:51:40Z</time></trkpt><trkpt lat="42.222333663630735" lon="13.782072364958957"><ele>852.0</ele><time>2026-04-27T08:51:41Z</time></trkpt><trkpt lat="42.22224166774502" lon="13.781986107131875"><ele>852.0</ele><time>2026-04-27T08:51:42Z</time></trkpt><trkpt lat="42.222157724294085" lon="13.781894218328148"><ele>852.8333333333334</ele><time>2026-04-27T08:51:43Z</time></trkpt><trkpt lat="42.22208060601733" lon="13.781812904753814"><ele>853.6666666666667</ele><time>2026-04-27T08:51:44Z</time></trkpt><trkpt lat="42.222020282126806" lon="13.78173004368066"><ele>854.5</ele><time>2026-04-27T08:51:45Z</time></trkpt><trkpt lat="42.22197275702324" lon="13.78163802506567"><ele>855.3333333333334</ele><time>2026-04-27T08:51:46Z</time></trkpt><trkpt lat="42.22193955145788" lon="13.781534095723181"><ele>856.1666666666667</ele><time>2026-04-27T08:51:47Z</time></trkpt><trkpt lat="42.221905702989595" lon="13.781415734042094"><ele>857.0</ele><time>2026-04-27T08:51:48Z</time></trkpt><trkpt lat="42.22186843258862" lon="13.781315335748168"><ele>857.0000000000001</ele><time>2026-04-27T08:51:49Z</time></trkpt><trkpt lat="42.221830844012096" lon="13.781206179209816"><ele>857.0</ele><time>2026-04-27T08:51:50Z</time></trkpt><trkpt lat="42.221800158843315" lon="13.781106406255425"><ele>857.0</ele><time>2026-04-27T08:51:51Z</time></trkpt><trkpt lat="42.221773150294126" lon="13.78098710326752"><ele>857.0</ele><time>2026-04-27T08:51:52Z</time></trkpt><trkpt lat="42.22175008873833" lon="13.780870667464438"><ele>857.0000000000001</ele><time>2026-04-27T08:51:53Z</time></trkpt><trkpt lat="42.22173188398637" lon="13.780747035323824"><ele>857.0</ele><time>2026-04-27T08:51:54Z</time></trkpt><trkpt lat="42.22170515960986" lon="13.780631199715685"><ele>856.3333333333334</ele><time>2026-04-27T08:51:55Z</time></trkpt><trkpt lat="42.22166914785733" lon="13.780519340281975"><ele>855.6666666666667</ele><time>2026-04-27T08:51:56Z</time></trkpt><trkpt lat="42.22163526084219" lon="13.780414709042478"><ele>855.0</ele><time>2026-04-27T08:51:57Z</time></trkpt><trkpt lat="42.22160257666843" lon="13.780318440714783"><ele>854.3333333333333</ele><time>2026-04-27T08:51:58Z</time></trkpt><trkpt lat="42.2215721690192" lon="13.780229158914727"><ele>853.6666666666666</ele><time>2026-04-27T08:51:59Z</time></trkpt><trkpt lat="42.22153943846443" lon="13.780143830158666"><ele>853.0</ele><time>2026-04-27T08:52:00Z</time></trkpt><trkpt lat="42.221508644467754" lon="13.780060536931815"><ele>850.4999999999999</ele><time>2026-04-27T08:52:01Z</time></trkpt><trkpt lat="42.22147706723115" lon="13.779977707311684"><ele>848.0</ele><time>2026-04-27T08:52:02Z</time></trkpt><trkpt lat="42.22144384835878" lon="13.779887766215513"><ele>845.5</ele><time>2026-04-27T08:52:03Z</time></trkpt><trkpt lat="42.22140345635244" lon="13.779795404461808"><ele>843.0</ele><time>2026-04-27T08:52:04Z</time></trkpt><trkpt lat="42.22137552606309" lon="13.7796786385151"><ele>840.4999999999999</ele><time>2026-04-27T08:52:06Z</time></trkpt><trkpt lat="42.221256304465946" lon="13.779754329252619"><ele>838.0</ele><time>2026-04-27T08:52:07Z</time></trkpt><trkpt lat="42.22118646093009" lon="13.779812597330112"><ele>838.0</ele><time>2026-04-27T08:52:08Z</time></trkpt><trkpt lat="42.221102445634585" lon="13.779864149848612"><ele>838.0</ele><time>2026-04-27T08:52:09Z</time></trkpt><trkpt lat="42.22100724697941" lon="13.779941109484335"><ele>838.0</ele><time>2026-04-27T08:52:10Z</time></trkpt><trkpt lat="42.22090656784872" lon="13.780024819865872"><ele>838.0</ele><time>2026-04-27T08:52:11Z</time></trkpt><trkpt lat="42.22081368140152" lon="13.780098869242595"><ele>838.0</ele><time>2026-04-27T08:52:12Z</time></trkpt><trkpt lat="42.220712964016634" lon="13.780177026070566"><ele>837.75</ele><time>2026-04-27T08:52:13Z</time></trkpt><trkpt lat="42.22060898715026" lon="13.780256489162518"><ele>837.5</ele><time>2026-04-27T08:52:14Z</time></trkpt><trkpt lat="42.22050430721585" lon="13.780332824881357"><ele>837.25</ele><time>2026-04-27T08:52:15Z</time></trkpt><trkpt lat="42.2203939031101" lon="13.780395833312095"><ele>837.0</ele><time>2026-04-27T08:52:16Z</time></trkpt><trkpt lat="42.22028495986724" lon="13.780443373609243"><ele>837.0</ele><time>2026-04-27T08:52:17Z</time></trkpt><trkpt lat="42.22017277921725" lon="13.780471805831114"><ele>837.0</ele><time>2026-04-27T08:52:18Z</time></trkpt><trkpt lat="42.220073715545595" lon="13.780498214972908"><ele>837.0</ele><time>2026-04-27T08:52:19Z</time></trkpt><trkpt lat="42.21997293349959" lon="13.780474787637022"><ele>837.0</ele><time>2026-04-27T08:52:20Z</time></trkpt><trkpt lat="42.21988333619544" lon="13.780415238103384"><ele>837.0</ele><time>2026-04-27T08:52:21Z</time></trkpt><trkpt lat="42.219776539105645" lon="13.780386636301186"><ele>835.2</ele><time>2026-04-27T08:52:22Z</time></trkpt><trkpt lat="42.2196730940533" lon="13.780344216646911"><ele>833.4000000000001</ele><time>2026-04-27T08:52:23Z</time></trkpt><trkpt lat="42.219574310553355" lon="13.7802874169765"><ele>831.5999999999999</ele><time>2026-04-27T08:52:24Z</time></trkpt><trkpt lat="42.21947794964144" lon="13.78021351583855"><ele>829.8</ele><time>2026-04-27T08:52:25Z</time></trkpt><trkpt lat="42.219395102594845" lon="13.780115598958368"><ele>828.0</ele><time>2026-04-27T08:52:26Z</time></trkpt><trkpt lat="42.219316200502654" lon="13.780010714382922"><ele>823.5999999999999</ele><time>2026-04-27T08:52:27Z</time></trkpt><trkpt lat="42.219225319302716" lon="13.779923421317303"><ele>819.1999999999999</ele><time>2026-04-27T08:52:28Z</time></trkpt><trkpt lat="42.21915000177697" lon="13.779825869152555"><ele>814.8</ele><time>2026-04-27T08:52:29Z</time></trkpt><trkpt lat="42.219077118400826" lon="13.779741162319514"><ele>810.4</ele><time>2026-04-27T08:52:30Z</time></trkpt><trkpt lat="42.21897954656116" lon="13.779666475849554"><ele>806.0</ele><time>2026-04-27T08:52:31Z</time></trkpt><trkpt lat="42.218874825256" lon="13.779595588467805"><ele>802.5</ele><time>2026-04-27T08:52:32Z</time></trkpt><trkpt lat="42.2187485297025" lon="13.779573372657987"><ele>799.0</ele><time>2026-04-27T08:52:33Z</time></trkpt><trkpt lat="42.21862741727326" lon="13.779588550589875"><ele>795.5</ele><time>2026-04-27T08:52:34Z</time></trkpt><trkpt lat="42.21851464980213" lon="13.779632682493219"><ele>792.0</ele><time>2026-04-27T08:52:35Z</time></trkpt><trkpt lat="42.218398428582965" lon="13.779692523200671"><ele>792.0</ele><time>2026-04-27T08:52:36Z</time></trkpt><trkpt lat="42.218275090817784" lon="13.77973720566376"><ele>792.0</ele><time>2026-04-27T08:52:37Z</time></trkpt><trkpt lat="42.21815044582875" lon="13.779784761279103"><ele>792.0</ele><time>2026-04-27T08:52:38Z</time></trkpt><trkpt lat="42.21802243522979" lon="13.779831048009994"><ele>792.0</ele><time>2026-04-27T08:52:39Z</time></trkpt><trkpt lat="42.21790713518243" lon="13.779871731797517"><ele>791.0</ele><time>2026-04-27T08:52:40Z</time></trkpt><trkpt lat="42.21781572579734" lon="13.77990069460262"><ele>790.0</ele><time>2026-04-27T08:52:41Z</time></trkpt><trkpt lat="42.217742963603804" lon="13.779901896538874"><ele>789.0</ele><time>2026-04-27T08:52:42Z</time></trkpt><trkpt lat="42.21765834274587" lon="13.779885594373651"><ele>788.0</ele><time>2026-04-27T08:52:43Z</time></trkpt><trkpt lat="42.21759717740405" lon="13.779789800440557"><ele>787.0</ele><time>2026-04-27T08:52:44Z</time></trkpt><trkpt lat="42.2175360487038" lon="13.779697056320867"><ele>786.0</ele><time>2026-04-27T08:52:45Z</time></trkpt><trkpt lat="42.21749550223372" lon="13.779587800895538"><ele>786.0</ele><time>2026-04-27T08:52:46Z</time></trkpt><trkpt lat="42.217486807980805" lon="13.779441196325818"><ele>786.0</ele><time>2026-04-27T08:52:47Z</time></trkpt><trkpt lat="42.217460664417914" lon="13.779270847412485"><ele>786.0</ele><time>2026-04-27T08:52:48Z</time></trkpt><trkpt lat="42.2174162520482" lon="13.77909668287449"><ele>786.0</ele><time>2026-04-27T08:52:49Z</time></trkpt><trkpt lat="42.217396478149894" lon="13.778924178593817"><ele>783.0</ele><time>2026-04-27T08:52:50Z</time></trkpt><trkpt lat="42.217355796527656" lon="13.778763200611074"><ele>780.0</ele><time>2026-04-27T08:52:51Z</time></trkpt><trkpt lat="42.217303250039365" lon="13.778615242723617"><ele>777.0</ele><time>2026-04-27T08:52:52Z</time></trkpt><trkpt lat="42.21723982510958" lon="13.778466626570838"><ele>774.0</ele><time>2026-04-27T08:52:53Z</time></trkpt><trkpt lat="42.21717287841685" lon="13.778316788687432"><ele>769.5</ele><time>2026-04-27T08:52:54Z</time></trkpt><trkpt lat="42.217109788597874" lon="13.778165786607135"><ele>765.0</ele><time>2026-04-27T08:52:55Z</time></trkpt><trkpt lat="42.21704361937729" lon="13.77801264833666"><ele>760.5</ele><time>2026-04-27T08:52:56Z</time></trkpt><trkpt lat="42.2169800077893" lon="13.777860464354719"><ele>756.0</ele><time>2026-04-27T08:52:57Z</time></trkpt><trkpt lat="42.21691917140932" lon="13.77774479066308"><ele>751.5</ele><time>2026-04-27T08:52:58Z</time></trkpt><trkpt lat="42.21685000631332" lon="13.777659733469253"><ele>747.0</ele><time>2026-04-27T08:52:59Z</time></trkpt><trkpt lat="42.21676134085264" lon="13.777585096697827"><ele>742.5</ele><time>2026-04-27T08:53:00Z</time></trkpt><trkpt lat="42.21665060617777" lon="13.777514328438647"><ele>738.0</ele><time>2026-04-27T08:53:01Z</time></trkpt><trkpt lat="42.21651747913058" lon="13.777452882776043"><ele>735.0</ele><time>2026-04-27T08:53:02Z</time></trkpt><trkpt lat="42.216381370935046" lon="13.777367553897777"><ele>732.0</ele><time>2026-04-27T08:53:03Z</time></trkpt><trkpt lat="42.216235604338095" lon="13.77727788483826"><ele>729.0</ele><time>2026-04-27T08:53:04Z</time></trkpt><trkpt lat="42.21609133483323" lon="13.777179624388253"><ele>729.0</ele><time>2026-04-27T08:53:05Z</time></trkpt><trkpt lat="42.215948767341914" lon="13.777079989226536"><ele>729.0</ele><time>2026-04-27T08:53:06Z</time></trkpt><trkpt lat="42.21580629369121" lon="13.776981360636697"><ele>729.0</ele><time>2026-04-27T08:53:07Z</time></trkpt><trkpt lat="42.215670806169825" lon="13.776895708651393"><ele>724.0</ele><time>2026-04-27T08:53:08Z</time></trkpt><trkpt lat="42.21553363179089" lon="13.776848841186707"><ele>719.0</ele><time>2026-04-27T08:53:09Z</time></trkpt><trkpt lat="42.21541168451132" lon="13.776785559895245"><ele>714.0</ele><time>2026-04-27T08:53:10Z</time></trkpt><trkpt lat="42.215297067790594" lon="13.776741301304968"><ele>709.0</ele><time>2026-04-27T08:53:11Z</time></trkpt><trkpt lat="42.2151854343973" lon="13.77671254771765"><ele>709.0</ele><time>2026-04-27T08:53:12Z</time></trkpt><trkpt lat="42.21508271611842" lon="13.776679024342636"><ele>709.0</ele><time>2026-04-27T08:53:13Z</time></trkpt><trkpt lat="42.21499304219583" lon="13.776690274544531"><ele>709.0</ele><time>2026-04-27T08:53:14Z</time></trkpt><trkpt lat="42.2149146099644" lon="13.776757482630007"><ele>709.0</ele><time>2026-04-27T08:53:15Z</time></trkpt><trkpt lat="42.214892726592694" lon="13.776891668591459"><ele>709.0</ele><time>2026-04-27T08:53:16Z</time></trkpt><trkpt lat="42.21483864638827" lon="13.77697155703198"><ele>709.0</ele><time>2026-04-27T08:53:17Z</time></trkpt><trkpt lat="42.21480388408606" lon="13.777054911456032"><ele>709.0</ele><time>2026-04-27T08:53:18Z</time></trkpt><trkpt lat="42.214748587230304" lon="13.777111798650989"><ele>709.0</ele><time>2026-04-27T08:53:21Z</time></trkpt><trkpt lat="42.21478363493306" lon="13.776949015742852"><ele>709.0</ele><time>2026-04-27T08:53:23Z</time></trkpt><trkpt lat="42.21480703116621" lon="13.776846574583448"><ele>709.0</ele><time>2026-04-27T08:53:24Z</time></trkpt><trkpt lat="42.2148624017589" lon="13.77673468425943"><ele>709.0</ele><time>2026-04-27T08:53:25Z</time></trkpt><trkpt lat="42.21489737681852" lon="13.776618149756148"><ele>709.0</ele><time>2026-04-27T08:53:26Z</time></trkpt><trkpt lat="42.21492461320101" lon="13.77651550208623"><ele>709.0</ele><time>2026-04-27T08:53:27Z</time></trkpt><trkpt lat="42.214925527279746" lon="13.776423515767997"><ele>709.0</ele><time>2026-04-27T08:53:28Z</time></trkpt><trkpt lat="42.21488675356598" lon="13.776347449497896"><ele>709.0</ele><time>2026-04-27T08:53:29Z</time></trkpt><trkpt lat="42.21481794835911" lon="13.776323206823442"><ele>709.0</ele><time>2026-04-27T08:53:30Z</time></trkpt><trkpt lat="42.21474928847806" lon="13.776366475569109"><ele>709.0</ele><time>2026-04-27T08:53:31Z</time></trkpt><trkpt lat="42.21469921198667" lon="13.776461893223358"><ele>707.0</ele><time>2026-04-27T08:53:32Z</time></trkpt><trkpt lat="42.214660955644206" lon="13.776581035314353"><ele>705.0</ele><time>2026-04-27T08:53:33Z</time></trkpt><trkpt lat="42.21461275654835" lon="13.776718029734733"><ele>703.0</ele><time>2026-04-27T08:53:34Z</time></trkpt><trkpt lat="42.21455262100844" lon="13.776852710829909"><ele>701.0</ele><time>2026-04-27T08:53:35Z</time></trkpt><trkpt lat="42.21448652608084" lon="13.776996272600826"><ele>701.0</ele><time>2026-04-27T08:53:36Z</time></trkpt><trkpt lat="42.21442334913031" lon="13.777137283562299"><ele>701.0</ele><time>2026-04-27T08:53:37Z</time></trkpt><trkpt lat="42.21436861932844" lon="13.77726546223937"><ele>701.0</ele><time>2026-04-27T08:53:38Z</time></trkpt><trkpt lat="42.2143164602897" lon="13.777381457193624"><ele>701.0</ele><time>2026-04-27T08:53:39Z</time></trkpt><trkpt lat="42.214262860416845" lon="13.777476060562387"><ele>701.0</ele><time>2026-04-27T08:53:40Z</time></trkpt><trkpt lat="42.21416141005119" lon="13.777496267995401"><ele>701.0</ele><time>2026-04-27T08:53:42Z</time></trkpt><trkpt lat="42.21414815279495" lon="13.777317148594928"><ele>701.0</ele><time>2026-04-27T08:53:44Z</time></trkpt><trkpt lat="42.214179939448336" lon="13.777194765182504"><ele>701.0</ele><time>2026-04-27T08:53:45Z</time></trkpt><trkpt lat="42.214223547327464" lon="13.777062921438187"><ele>701.0</ele><time>2026-04-27T08:53:46Z</time></trkpt><trkpt lat="42.2142603046822" lon="13.776925253426226"><ele>701.0</ele><time>2026-04-27T08:53:47Z</time></trkpt><trkpt lat="42.21429543461094" lon="13.776780822680134"><ele>700.0</ele><time>2026-04-27T08:53:48Z</time></trkpt><trkpt lat="42.2143230763909" lon="13.77665105574775"><ele>699.0</ele><time>2026-04-27T08:53:49Z</time></trkpt><trkpt lat="42.21433833899532" lon="13.776564596544938"><ele>698.0</ele><time>2026-04-27T08:53:50Z</time></trkpt><trkpt lat="42.21426114914655" lon="13.776488479950093"><ele>697.0</ele><time>2026-04-27T08:53:53Z</time></trkpt><trkpt lat="42.21416922011724" lon="13.776609511757645"><ele>696.0</ele><time>2026-04-27T08:53:55Z</time></trkpt><trkpt lat="42.21409970193675" lon="13.776673806684562"><ele>696.0</ele><time>2026-04-27T08:53:56Z</time></trkpt><trkpt lat="42.21403843988482" lon="13.776708986349755"><ele>696.0</ele><time>2026-04-27T08:53:57Z</time></trkpt><trkpt lat="42.21396797470452" lon="13.776723218937553"><ele>696.0</ele><time>2026-04-27T08:53:58Z</time></trkpt><trkpt lat="42.2138833322431" lon="13.776706491902596"><ele>696.0</ele><time>2026-04-27T08:53:59Z</time></trkpt><trkpt lat="42.21377257280524" lon="13.776710547210634"><ele>696.0</ele><time>2026-04-27T08:54:00Z</time></trkpt><trkpt lat="42.21365848129855" lon="13.776705799054238"><ele>696.0</ele><time>2026-04-27T08:54:01Z</time></trkpt><trkpt lat="42.213558380655556" lon="13.776689330797364"><ele>694.8</ele><time>2026-04-27T08:54:02Z</time></trkpt><trkpt lat="42.213475791673716" lon="13.776643444697596"><ele>693.5999999999999</ele><time>2026-04-27T08:54:03Z</time></trkpt><trkpt lat="42.21338881771002" lon="13.77658781296666"><ele>692.4</ele><time>2026-04-27T08:54:04Z</time></trkpt><trkpt lat="42.21328259947172" lon="13.77651043440124"><ele>691.2</ele><time>2026-04-27T08:54:05Z</time></trkpt><trkpt lat="42.21315906948054" lon="13.77643863384821"><ele>690.0</ele><time>2026-04-27T08:54:06Z</time></trkpt><trkpt lat="42.21306332143805" lon="13.776359375869298"><ele>690.0</ele><time>2026-04-27T08:54:07Z</time></trkpt><trkpt lat="42.212983897851096" lon="13.77632747823536"><ele>690.0</ele><time>2026-04-27T08:54:08Z</time></trkpt><trkpt lat="42.21287523429826" lon="13.776362930652718"><ele>690.0</ele><time>2026-04-27T08:54:10Z</time></trkpt><trkpt lat="42.21279123806266" lon="13.776391285236173"><ele>690.0</ele><time>2026-04-27T08:54:11Z</time></trkpt><trkpt lat="42.21269776446116" lon="13.77649175458701"><ele>690.0</ele><time>2026-04-27T08:54:12Z</time></trkpt><trkpt lat="42.212585982127436" lon="13.776574996912133"><ele>690.0</ele><time>2026-04-27T08:54:13Z</time></trkpt><trkpt lat="42.21249314060541" lon="13.776707374682239"><ele>690.0</ele><time>2026-04-27T08:54:14Z</time></trkpt><trkpt lat="42.21238107645215" lon="13.776821627019862"><ele>690.0</ele><time>2026-04-27T08:54:15Z</time></trkpt><trkpt lat="42.212267411480944" lon="13.776921317224316"><ele>690.0</ele><time>2026-04-27T08:54:16Z</time></trkpt><trkpt lat="42.21215680614093" lon="13.77701265292747"><ele>688.4</ele><time>2026-04-27T08:54:17Z</time></trkpt><trkpt lat="42.212044439590684" lon="13.777091150636993"><ele>686.8</ele><time>2026-04-27T08:54:18Z</time></trkpt><trkpt lat="42.21195225434848" lon="13.777148658023693"><ele>685.2</ele><time>2026-04-27T08:54:19Z</time></trkpt><trkpt lat="42.21187895828792" lon="13.777184597382549"><ele>683.6</ele><time>2026-04-27T08:54:20Z</time></trkpt><trkpt lat="42.21180645257484" lon="13.777190117174978"><ele>682.0</ele><time>2026-04-27T08:54:21Z</time></trkpt><trkpt lat="42.21173127367788" lon="13.777174191319258"><ele>682.0</ele><time>2026-04-27T08:54:22Z</time></trkpt><trkpt lat="42.21163187121021" lon="13.777147032219744"><ele>682.0</ele><time>2026-04-27T08:54:23Z</time></trkpt><trkpt lat="42.21152327315437" lon="13.777101100890695"><ele>682.0</ele><time>2026-04-27T08:54:24Z</time></trkpt><trkpt lat="42.21141965538027" lon="13.777016219313085"><ele>682.0</ele><time>2026-04-27T08:54:25Z</time></trkpt><trkpt lat="42.21131630601315" lon="13.77691352554676"><ele>681.75</ele><time>2026-04-27T08:54:26Z</time></trkpt><trkpt lat="42.21119692051505" lon="13.776807902699383"><ele>681.5</ele><time>2026-04-27T08:54:27Z</time></trkpt><trkpt lat="42.21109495464942" lon="13.776671648123271"><ele>681.25</ele><time>2026-04-27T08:54:28Z</time></trkpt><trkpt lat="42.21099098919941" lon="13.77655559022564"><ele>681.0</ele><time>2026-04-27T08:54:29Z</time></trkpt><trkpt lat="42.21090251110095" lon="13.776453496677163"><ele>681.0</ele><time>2026-04-27T08:54:30Z</time></trkpt><trkpt lat="42.210824487385054" lon="13.77634923590205"><ele>681.0</ele><time>2026-04-27T08:54:31Z</time></trkpt><trkpt lat="42.21074068279554" lon="13.776229899761551"><ele>681.0</ele><time>2026-04-27T08:54:32Z</time></trkpt><trkpt lat="42.21060889526099" lon="13.776190742532734"><ele>681.0</ele><time>2026-04-27T08:54:33Z</time></trkpt><trkpt lat="42.210471619059646" lon="13.776258481959745"><ele>680.3333333333334</ele><time>2026-04-27T08:54:34Z</time></trkpt><trkpt lat="42.210344773314674" lon="13.776025105046175"><ele>679.6666666666667</ele><time>2026-04-27T08:54:35Z</time></trkpt><trkpt lat="42.21019711787796" lon="13.775968468067463"><ele>679.0</ele><time>2026-04-27T08:54:36Z</time></trkpt><trkpt lat="42.21004778518475" lon="13.77588736792401"><ele>679.0</ele><time>2026-04-27T08:54:37Z</time></trkpt><trkpt lat="42.209909487390604" lon="13.775821449556872"><ele>679.0</ele><time>2026-04-27T08:54:38Z</time></trkpt><trkpt lat="42.2097765346522" lon="13.775758203960198"><ele>679.0</ele><time>2026-04-27T08:54:39Z</time></trkpt><trkpt lat="42.20964852379825" lon="13.775703520171486"><ele>679.0</ele><time>2026-04-27T08:54:40Z</time></trkpt><trkpt lat="42.20951607199029" lon="13.775649210876532"><ele>679.0</ele><time>2026-04-27T08:54:41Z</time></trkpt><trkpt lat="42.20937714638782" lon="13.775597818994429"><ele>679.0</ele><time>2026-04-27T08:54:42Z</time></trkpt><trkpt lat="42.20922665358222" lon="13.775544248212432"><ele>679.0</ele><time>2026-04-27T08:54:43Z</time></trkpt><trkpt lat="42.20908310681894" lon="13.775506311817095"><ele>679.0</ele><time>2026-04-27T08:54:44Z</time></trkpt><trkpt lat="42.20895746365268" lon="13.775490834729759"><ele>678.75</ele><time>2026-04-27T08:54:45Z</time></trkpt><trkpt lat="42.208844766799835" lon="13.775502334097466"><ele>678.5</ele><time>2026-04-27T08:54:46Z</time></trkpt><trkpt lat="42.20872290139041" lon="13.77554650152775"><ele>678.25</ele><time>2026-04-27T08:54:47Z</time></trkpt><trkpt lat="42.208604868836176" lon="13.77559403699597"><ele>678.0</ele><time>2026-04-27T08:54:48Z</time></trkpt><trkpt lat="42.20851750944271" lon="13.775620552089421"><ele>678.0</ele><time>2026-04-27T08:54:49Z</time></trkpt><trkpt lat="42.20845259485076" lon="13.775620008380658"><ele>678.0</ele><time>2026-04-27T08:54:50Z</time></trkpt><trkpt lat="42.20837785207601" lon="13.775604924663364"><ele>678.0</ele><time>2026-04-27T08:54:51Z</time></trkpt><trkpt lat="42.20831112769418" lon="13.775551409062574"><ele>678.0</ele><time>2026-04-27T08:54:52Z</time></trkpt><trkpt lat="42.2082270338549" lon="13.775462884976992"><ele>678.0</ele><time>2026-04-27T08:54:53Z</time></trkpt><trkpt lat="42.2081284328501" lon="13.775365862337198"><ele>678.0</ele><time>2026-04-27T08:54:54Z</time></trkpt><trkpt lat="42.208004951869796" lon="13.775269573274665"><ele>678.0</ele><time>2026-04-27T08:54:55Z</time></trkpt><trkpt lat="42.20788212581384" lon="13.775159580131499"><ele>678.0</ele><time>2026-04-27T08:54:56Z</time></trkpt><trkpt lat="42.20775391591653" lon="13.775038583282202"><ele>678.0</ele><time>2026-04-27T08:54:57Z</time></trkpt><trkpt lat="42.20763151737018" lon="13.7749300928174"><ele>678.0</ele><time>2026-04-27T08:54:58Z</time></trkpt><trkpt lat="42.207525039487436" lon="13.774831281994903"><ele>678.0</ele><time>2026-04-27T08:54:59Z</time></trkpt><trkpt lat="42.20742592823737" lon="13.77473879656877"><ele>678.0</ele><time>2026-04-27T08:55:00Z</time></trkpt><trkpt lat="42.20734682032961" lon="13.774658168812984"><ele>678.0</ele><time>2026-04-27T08:55:01Z</time></trkpt><trkpt lat="42.20728832233415" lon="13.774602487834937"><ele>678.0</ele><time>2026-04-27T08:55:02Z</time></trkpt><trkpt lat="42.20723094794759" lon="13.774548555617118"><ele>678.5</ele><time>2026-04-27T08:55:03Z</time></trkpt><trkpt lat="42.207171754761326" lon="13.77449092416361"><ele>679.0</ele><time>2026-04-27T08:55:04Z</time></trkpt><trkpt lat="42.20707672906379" lon="13.774519724918237"><ele>679.5</ele><time>2026-04-27T08:55:08Z</time></trkpt><trkpt lat="42.207003048248495" lon="13.774570175122477"><ele>680.0</ele><time>2026-04-27T08:55:09Z</time></trkpt><trkpt lat="42.206930380457095" lon="13.774637983489939"><ele>680.5</ele><time>2026-04-27T08:55:10Z</time></trkpt><trkpt lat="42.20683073832673" lon="13.774672295710364"><ele>681.0</ele><time>2026-04-27T08:55:11Z</time></trkpt><trkpt lat="42.206723309995695" lon="13.77473255420079"><ele>681.0</ele><time>2026-04-27T08:55:12Z</time></trkpt><trkpt lat="42.206609189973214" lon="13.774807503923691"><ele>681.0</ele><time>2026-04-27T08:55:13Z</time></trkpt><trkpt lat="42.2064834234307" lon="13.774880663852652"><ele>681.0</ele><time>2026-04-27T08:55:14Z</time></trkpt><trkpt lat="42.206356985901415" lon="13.77495495773156"><ele>681.0</ele><time>2026-04-27T08:55:15Z</time></trkpt><trkpt lat="42.20622363956474" lon="13.77502992150705"><ele>681.0</ele><time>2026-04-27T08:55:16Z</time></trkpt><trkpt lat="42.2060882218513" lon="13.775107056673022"><ele>681.0</ele><time>2026-04-27T08:55:17Z</time></trkpt><trkpt lat="42.20594730293773" lon="13.775185080801771"><ele>681.0</ele><time>2026-04-27T08:55:18Z</time></trkpt><trkpt lat="42.20580116141316" lon="13.775263729334347"><ele>682.0</ele><time>2026-04-27T08:55:19Z</time></trkpt><trkpt lat="42.20565427862044" lon="13.775344209860505"><ele>683.0</ele><time>2026-04-27T08:55:20Z</time></trkpt><trkpt lat="42.205498552727065" lon="13.775430337020474"><ele>684.0</ele><time>2026-04-27T08:55:21Z</time></trkpt><trkpt lat="42.205341624724674" lon="13.77551953755493"><ele>684.0</ele><time>2026-04-27T08:55:22Z</time></trkpt><trkpt lat="42.205191083998834" lon="13.77560290867415"><ele>684.0</ele><time>2026-04-27T08:55:23Z</time></trkpt><trkpt lat="42.20504102341182" lon="13.77569262739314"><ele>684.0</ele><time>2026-04-27T08:55:24Z</time></trkpt><trkpt lat="42.204885356545056" lon="13.77578420360972"><ele>684.3333333333334</ele><time>2026-04-27T08:55:25Z</time></trkpt><trkpt lat="42.204730300967356" lon="13.77587342977324"><ele>684.6666666666667</ele><time>2026-04-27T08:55:26Z</time></trkpt><trkpt lat="42.20457320225487" lon="13.775964571497992"><ele>685.0</ele><time>2026-04-27T08:55:27Z</time></trkpt><trkpt lat="42.20441525479702" lon="13.776052459991437"><ele>685.0</ele><time>2026-04-27T08:55:28Z</time></trkpt><trkpt lat="42.20425160144768" lon="13.776124528351403"><ele>685.0</ele><time>2026-04-27T08:55:29Z</time></trkpt><trkpt lat="42.20409256345848" lon="13.776213238214767"><ele>685.0</ele><time>2026-04-27T08:55:30Z</time></trkpt><trkpt lat="42.20393556961568" lon="13.776322108995753"><ele>686.6666666666667</ele><time>2026-04-27T08:55:31Z</time></trkpt><trkpt lat="42.203780509884446" lon="13.776411768470128"><ele>688.3333333333334</ele><time>2026-04-27T08:55:32Z</time></trkpt><trkpt lat="42.20362062834144" lon="13.776499975778988"><ele>690.0</ele><time>2026-04-27T08:55:33Z</time></trkpt><trkpt lat="42.20345492086258" lon="13.776588497232915"><ele>690.0</ele><time>2026-04-27T08:55:34Z</time></trkpt><trkpt lat="42.20329966569834" lon="13.77667907394878"><ele>690.0</ele><time>2026-04-27T08:55:35Z</time></trkpt><trkpt lat="42.20313784061263" lon="13.776766531782448"><ele>690.0</ele><time>2026-04-27T08:55:36Z</time></trkpt><trkpt lat="42.202987747018405" lon="13.776852496172662"><ele>694.6666666666666</ele><time>2026-04-27T08:55:37Z</time></trkpt><trkpt lat="42.202826420703765" lon="13.776936436716207"><ele>699.3333333333333</ele><time>2026-04-27T08:55:38Z</time></trkpt><trkpt lat="42.20267740802497" lon="13.777025293052715"><ele>704.0</ele><time>2026-04-27T08:55:39Z</time></trkpt><trkpt lat="42.20253428257041" lon="13.777105860984191"><ele>704.0</ele><time>2026-04-27T08:55:40Z</time></trkpt><trkpt lat="42.202417051265606" lon="13.777177868326737"><ele>704.0</ele><time>2026-04-27T08:55:41Z</time></trkpt><trkpt lat="42.20231899059055" lon="13.777272750975323"><ele>704.0</ele><time>2026-04-27T08:55:42Z</time></trkpt><trkpt lat="42.20226065971762" lon="13.777393152114021"><ele>704.0</ele><time>2026-04-27T08:55:43Z</time></trkpt><trkpt lat="42.20222983903138" lon="13.777545692802109"><ele>703.25</ele><time>2026-04-27T08:55:44Z</time></trkpt><trkpt lat="42.20221711993977" lon="13.777706325359008"><ele>702.5</ele><time>2026-04-27T08:55:45Z</time></trkpt><trkpt lat="42.20219314569912" lon="13.777854168163476"><ele>701.75</ele><time>2026-04-27T08:55:46Z</time></trkpt><trkpt lat="42.20213978107862" lon="13.778024966764985"><ele>701.0</ele><time>2026-04-27T08:55:47Z</time></trkpt><trkpt lat="42.20210030310107" lon="13.77821584636237"><ele>701.0</ele><time>2026-04-27T08:55:48Z</time></trkpt><trkpt lat="42.202072835889176" lon="13.778426422642475"><ele>701.0</ele><time>2026-04-27T08:55:49Z</time></trkpt><trkpt lat="42.20202085697799" lon="13.778634951678935"><ele>701.0</ele><time>2026-04-27T08:55:50Z</time></trkpt><trkpt lat="42.20197523903236" lon="13.77886065158921"><ele>703.0</ele><time>2026-04-27T08:55:51Z</time></trkpt><trkpt lat="42.20192739299541" lon="13.779094608787842"><ele>705.0</ele><time>2026-04-27T08:55:52Z</time></trkpt><trkpt lat="42.201879544208445" lon="13.779329716628093"><ele>707.0</ele><time>2026-04-27T08:55:53Z</time></trkpt><trkpt lat="42.201831412501015" lon="13.779564555180409"><ele>710.0</ele><time>2026-04-27T08:55:54Z</time></trkpt><trkpt lat="42.20178713590703" lon="13.779810235519287"><ele>713.0</ele><time>2026-04-27T08:55:55Z</time></trkpt><trkpt lat="42.20174027144936" lon="13.780046767014063"><ele>716.0</ele><time>2026-04-27T08:55:56Z</time></trkpt><trkpt lat="42.20170278681381" lon="13.780290287948073"><ele>718.0</ele><time>2026-04-27T08:55:57Z</time></trkpt><trkpt lat="42.20167517676258" lon="13.780532485819958"><ele>720.0</ele><time>2026-04-27T08:55:58Z</time></trkpt><trkpt lat="42.20165814005483" lon="13.780774787027415"><ele>722.0</ele><time>2026-04-27T08:55:59Z</time></trkpt><trkpt lat="42.201661300547265" lon="13.781012843883621"><ele>723.3333333333333</ele><time>2026-04-27T08:56:00Z</time></trkpt><trkpt lat="42.20167349321522" lon="13.781254710796977"><ele>724.6666666666666</ele><time>2026-04-27T08:56:01Z</time></trkpt><trkpt lat="42.201680918897196" lon="13.781496293331939"><ele>726.0</ele><time>2026-04-27T08:56:02Z</time></trkpt><trkpt lat="42.20170563981252" lon="13.781736924533126"><ele>728.6666666666666</ele><time>2026-04-27T08:56:03Z</time></trkpt><trkpt lat="42.20171415566753" lon="13.781956338776295"><ele>731.3333333333333</ele><time>2026-04-27T08:56:04Z</time></trkpt><trkpt lat="42.20169039966326" lon="13.782154528738754"><ele>734.0</ele><time>2026-04-27T08:56:05Z</time></trkpt><trkpt lat="42.201632834750285" lon="13.78232616276751"><ele>734.0</ele><time>2026-04-27T08:56:06Z</time></trkpt><trkpt lat="42.20157612190473" lon="13.782530109957287"><ele>734.0</ele><time>2026-04-27T08:56:07Z</time></trkpt><trkpt lat="42.201498320249385" lon="13.782733513340874"><ele>734.0</ele><time>2026-04-27T08:56:08Z</time></trkpt><trkpt lat="42.20142796030133" lon="13.782939675019325"><ele>733.3333333333333</ele><time>2026-04-27T08:56:09Z</time></trkpt><trkpt lat="42.201356096685565" lon="13.783146721175656"><ele>732.6666666666666</ele><time>2026-04-27T08:56:10Z</time></trkpt><trkpt lat="42.201274153017344" lon="13.783355573395479"><ele>732.0</ele><time>2026-04-27T08:56:11Z</time></trkpt><trkpt lat="42.20118786262705" lon="13.783559280190781"><ele>737.0</ele><time>2026-04-27T08:56:12Z</time></trkpt><trkpt lat="42.20109220498256" lon="13.783767743969806"><ele>742.0</ele><time>2026-04-27T08:56:13Z</time></trkpt><trkpt lat="42.200996286770746" lon="13.783968759757885"><ele>747.0</ele><time>2026-04-27T08:56:14Z</time></trkpt><trkpt lat="42.20090299915495" lon="13.784156330343755"><ele>747.0</ele><time>2026-04-27T08:56:15Z</time></trkpt><trkpt lat="42.200827494058714" lon="13.784315685124213"><ele>747.0</ele><time>2026-04-27T08:56:16Z</time></trkpt><trkpt lat="42.200747965426785" lon="13.784473513317069"><ele>747.0</ele><time>2026-04-27T08:56:17Z</time></trkpt><trkpt lat="42.20066528307498" lon="13.784633463512863"><ele>747.0</ele><time>2026-04-27T08:56:18Z</time></trkpt><trkpt lat="42.20056935537209" lon="13.784793918093238"><ele>748.4000000000001</ele><time>2026-04-27T08:56:19Z</time></trkpt><trkpt lat="42.20048205954361" lon="13.78492226340672"><ele>749.8000000000001</ele><time>2026-04-27T08:56:20Z</time></trkpt><trkpt lat="42.20040408618724" lon="13.785030409164165"><ele>751.2</ele><time>2026-04-27T08:56:21Z</time></trkpt><trkpt lat="42.200332925972525" lon="13.785129074530186"><ele>752.6</ele><time>2026-04-27T08:56:22Z</time></trkpt><trkpt lat="42.200274820462006" lon="13.785204224570345"><ele>754.0</ele><time>2026-04-27T08:56:23Z</time></trkpt><trkpt lat="42.200198768805784" lon="13.785216810113411"><ele>754.4000000000001</ele><time>2026-04-27T08:56:25Z</time></trkpt><trkpt lat="42.2001676531093" lon="13.785058682761417"><ele>754.8</ele><time>2026-04-27T08:56:27Z</time></trkpt><trkpt lat="42.20016165050527" lon="13.784962141094557"><ele>755.2</ele><time>2026-04-27T08:56:28Z</time></trkpt><trkpt lat="42.2001645888176" lon="13.784853463641788"><ele>755.5999999999999</ele><time>2026-04-27T08:56:29Z</time></trkpt><trkpt lat="42.20014219564937" lon="13.784727186755292"><ele>756.0</ele><time>2026-04-27T08:56:30Z</time></trkpt><trkpt lat="42.200103461724474" lon="13.784583819515696"><ele>756.0</ele><time>2026-04-27T08:56:31Z</time></trkpt><trkpt lat="42.20005550436957" lon="13.784426095726376"><ele>756.0</ele><time>2026-04-27T08:56:32Z</time></trkpt><trkpt lat="42.199998397097616" lon="13.784264200276262"><ele>756.0</ele><time>2026-04-27T08:56:33Z</time></trkpt><trkpt lat="42.19993706719256" lon="13.784106949825109"><ele>756.0</ele><time>2026-04-27T08:56:34Z</time></trkpt><trkpt lat="42.19986903412955" lon="13.783946170642896"><ele>759.0</ele><time>2026-04-27T08:56:35Z</time></trkpt><trkpt lat="42.19980039678772" lon="13.783781938281592"><ele>762.0</ele><time>2026-04-27T08:56:36Z</time></trkpt><trkpt lat="42.199772903999694" lon="13.78360784129316"><ele>765.0</ele><time>2026-04-27T08:56:37Z</time></trkpt><trkpt lat="42.19975629923659" lon="13.783442664393768"><ele>768.0</ele><time>2026-04-27T08:56:38Z</time></trkpt><trkpt lat="42.199758655962846" lon="13.783285243917105"><ele>768.0</ele><time>2026-04-27T08:56:39Z</time></trkpt><trkpt lat="42.19971878769625" lon="13.783154004044052"><ele>768.0</ele><time>2026-04-27T08:56:40Z</time></trkpt><trkpt lat="42.19963418068564" lon="13.783055683376533"><ele>768.0</ele><time>2026-04-27T08:56:41Z</time></trkpt><trkpt lat="42.19952147824396" lon="13.782981927267699"><ele>768.0</ele><time>2026-04-27T08:56:42Z</time></trkpt><trkpt lat="42.199407124970506" lon="13.78291936406583"><ele>768.0</ele><time>2026-04-27T08:56:43Z</time></trkpt><trkpt lat="42.19928840435378" lon="13.782871942410518"><ele>768.0</ele><time>2026-04-27T08:56:44Z</time></trkpt><trkpt lat="42.199160442648385" lon="13.782854768036628"><ele>768.0</ele><time>2026-04-27T08:56:45Z</time></trkpt><trkpt lat="42.19902187432785" lon="13.782872203447923"><ele>768.0</ele><time>2026-04-27T08:56:46Z</time></trkpt><trkpt lat="42.198885027493354" lon="13.782877155123034"><ele>769.25</ele><time>2026-04-27T08:56:47Z</time></trkpt><trkpt lat="42.198744118687856" lon="13.782853336933432"><ele>770.5</ele><time>2026-04-27T08:56:48Z</time></trkpt><trkpt lat="42.19860320720259" lon="13.782798666412663"><ele>771.75</ele><time>2026-04-27T08:56:49Z</time></trkpt><trkpt lat="42.198463507363485" lon="13.782733568486403"><ele>773.0</ele><time>2026-04-27T08:56:50Z</time></trkpt><trkpt lat="42.19831702511786" lon="13.782690642974693"><ele>774.3333333333334</ele><time>2026-04-27T08:56:51Z</time></trkpt><trkpt lat="42.19815787748648" lon="13.782678622940283"><ele>775.6666666666667</ele><time>2026-04-27T08:56:52Z</time></trkpt><trkpt lat="42.19799920718075" lon="13.782692657366123"><ele>777.0</ele><time>2026-04-27T08:56:53Z</time></trkpt><trkpt lat="42.197837449561426" lon="13.782719105312744"><ele>777.0</ele><time>2026-04-27T08:56:54Z</time></trkpt><trkpt lat="42.19768285265344" lon="13.78274500809403"><ele>777.0</ele><time>2026-04-27T08:56:55Z</time></trkpt><trkpt lat="42.19752940731369" lon="13.782737923215278"><ele>777.0</ele><time>2026-04-27T08:56:56Z</time></trkpt><trkpt lat="42.19737129252661" lon="13.782727887692266"><ele>776.25</ele><time>2026-04-27T08:56:57Z</time></trkpt><trkpt lat="42.197224179684966" lon="13.782703745038832"><ele>775.5</ele><time>2026-04-27T08:56:58Z</time></trkpt><trkpt lat="42.197090360582486" lon="13.782626131603369"><ele>774.75</ele><time>2026-04-27T08:56:59Z</time></trkpt><trkpt lat="42.19698690272288" lon="13.782489991786194"><ele>774.0</ele><time>2026-04-27T08:57:00Z</time></trkpt><trkpt lat="42.196905831885864" lon="13.782341664419112"><ele>774.0</ele><time>2026-04-27T08:57:01Z</time></trkpt><trkpt lat="42.196813054844135" lon="13.782208802466227"><ele>774.0</ele><time>2026-04-27T08:57:02Z</time></trkpt><trkpt lat="42.19672807005725" lon="13.782084422001402"><ele>774.0</ele><time>2026-04-27T08:57:03Z</time></trkpt><trkpt lat="42.196615740935165" lon="13.782012643555461"><ele>774.0</ele><time>2026-04-27T08:57:04Z</time></trkpt><trkpt lat="42.196479102282375" lon="13.781980301494858"><ele>777.0</ele><time>2026-04-27T08:57:05Z</time></trkpt><trkpt lat="42.19633393778455" lon="13.781959744005873"><ele>780.0</ele><time>2026-04-27T08:57:06Z</time></trkpt><trkpt lat="42.196187387136" lon="13.781931600524384"><ele>783.0</ele><time>2026-04-27T08:57:07Z</time></trkpt><trkpt lat="42.196035924001016" lon="13.781897931115413"><ele>786.0</ele><time>2026-04-27T08:57:08Z</time></trkpt><trkpt lat="42.19588144638148" lon="13.781863176771916"><ele>784.3333333333333</ele><time>2026-04-27T08:57:09Z</time></trkpt><trkpt lat="42.195726085826664" lon="13.781831609299768"><ele>782.6666666666666</ele><time>2026-04-27T08:57:10Z</time></trkpt><trkpt lat="42.19557741634126" lon="13.781797025328784"><ele>781.0</ele><time>2026-04-27T08:57:11Z</time></trkpt><trkpt lat="42.19542083396067" lon="13.78175759514821"><ele>781.0</ele><time>2026-04-27T08:57:12Z</time></trkpt><trkpt lat="42.195268355425036" lon="13.781721272604926"><ele>781.0</ele><time>2026-04-27T08:57:13Z</time></trkpt><trkpt lat="42.1951220651709" lon="13.781697893417398"><ele>781.0</ele><time>2026-04-27T08:57:14Z</time></trkpt><trkpt lat="42.19497182583954" lon="13.781692959871064"><ele>782.5</ele><time>2026-04-27T08:57:15Z</time></trkpt><trkpt lat="42.19482420271351" lon="13.781712754423245"><ele>784.0</ele><time>2026-04-27T08:57:16Z</time></trkpt><trkpt lat="42.194672730377604" lon="13.781737887312746"><ele>785.5</ele><time>2026-04-27T08:57:17Z</time></trkpt><trkpt lat="42.194533711426736" lon="13.781744261398702"><ele>787.0</ele><time>2026-04-27T08:57:18Z</time></trkpt><trkpt lat="42.19439155236556" lon="13.781722350859901"><ele>787.0</ele><time>2026-04-27T08:57:19Z</time></trkpt><trkpt lat="42.1942600176812" lon="13.78166278324597"><ele>787.0</ele><time>2026-04-27T08:57:20Z</time></trkpt><trkpt lat="42.194141326175306" lon="13.781570388983335"><ele>787.0</ele><time>2026-04-27T08:57:21Z</time></trkpt><trkpt lat="42.19405242163594" lon="13.781453433138115"><ele>787.0</ele><time>2026-04-27T08:57:22Z</time></trkpt><trkpt lat="42.194016558656024" lon="13.781283423255644"><ele>790.5</ele><time>2026-04-27T08:57:23Z</time></trkpt><trkpt lat="42.19397385864571" lon="13.781111720455195"><ele>794.0</ele><time>2026-04-27T08:57:24Z</time></trkpt><trkpt lat="42.19396703922175" lon="13.780923844047056"><ele>797.5</ele><time>2026-04-27T08:57:25Z</time></trkpt><trkpt lat="42.1939573640202" lon="13.780725199140022"><ele>801.0</ele><time>2026-04-27T08:57:26Z</time></trkpt><trkpt lat="42.19395622098437" lon="13.780536747801538"><ele>802.0</ele><time>2026-04-27T08:57:27Z</time></trkpt><trkpt lat="42.19397166003606" lon="13.780339573970176"><ele>803.0</ele><time>2026-04-27T08:57:28Z</time></trkpt><trkpt lat="42.194001187197514" lon="13.780150327760422"><ele>804.0</ele><time>2026-04-27T08:57:29Z</time></trkpt><trkpt lat="42.194039604790845" lon="13.779963867528364"><ele>805.0</ele><time>2026-04-27T08:57:30Z</time></trkpt><trkpt lat="42.19407997976948" lon="13.779781413550715"><ele>802.75</ele><time>2026-04-27T08:57:31Z</time></trkpt><trkpt lat="42.194119379428564" lon="13.779600918403311"><ele>800.5</ele><time>2026-04-27T08:57:32Z</time></trkpt><trkpt lat="42.19415280577201" lon="13.779423695622102"><ele>798.25</ele><time>2026-04-27T08:57:33Z</time></trkpt><trkpt lat="42.194177830283024" lon="13.779248322949266"><ele>796.0</ele><time>2026-04-27T08:57:34Z</time></trkpt><trkpt lat="42.19418249929949" lon="13.779065937032458"><ele>796.0</ele><time>2026-04-27T08:57:35Z</time></trkpt><trkpt lat="42.19416494946176" lon="13.778878808182963"><ele>796.0</ele><time>2026-04-27T08:57:36Z</time></trkpt><trkpt lat="42.19413393528349" lon="13.77868701168352"><ele>796.0</ele><time>2026-04-27T08:57:37Z</time></trkpt><trkpt lat="42.19410887727631" lon="13.778486048601502"><ele>796.0</ele><time>2026-04-27T08:57:38Z</time></trkpt><trkpt lat="42.194107007343995" lon="13.778278023714526"><ele>799.0</ele><time>2026-04-27T08:57:39Z</time></trkpt><trkpt lat="42.1941197450269" lon="13.778063460457057"><ele>802.0</ele><time>2026-04-27T08:57:40Z</time></trkpt><trkpt lat="42.19414332714259" lon="13.777849530073567"><ele>805.0</ele><time>2026-04-27T08:57:41Z</time></trkpt><trkpt lat="42.19417191958674" lon="13.77763626157276"><ele>808.3333333333333</ele><time>2026-04-27T08:57:42Z</time></trkpt><trkpt lat="42.19420396100487" lon="13.777425373909008"><ele>811.6666666666667</ele><time>2026-04-27T08:57:43Z</time></trkpt><trkpt lat="42.194247857545335" lon="13.777217588557269"><ele>815.0</ele><time>2026-04-27T08:57:44Z</time></trkpt><trkpt lat="42.19430925904103" lon="13.77700284797252"><ele>817.6666666666667</ele><time>2026-04-27T08:57:45Z</time></trkpt><trkpt lat="42.19437914912361" lon="13.776795283303938"><ele>820.3333333333333</ele><time>2026-04-27T08:57:46Z</time></trkpt><trkpt lat="42.19445136567732" lon="13.776602993102765"><ele>823.0</ele><time>2026-04-27T08:57:47Z</time></trkpt><trkpt lat="42.19455462817956" lon="13.7764252398743"><ele>823.0</ele><time>2026-04-27T08:57:48Z</time></trkpt><trkpt lat="42.19463195663685" lon="13.77623087919891"><ele>823.0</ele><time>2026-04-27T08:57:49Z</time></trkpt><trkpt lat="42.19470669989975" lon="13.77603662640433"><ele>823.0</ele><time>2026-04-27T08:57:50Z</time></trkpt><trkpt lat="42.194765228552896" lon="13.775839502107935"><ele>821.0</ele><time>2026-04-27T08:57:51Z</time></trkpt><trkpt lat="42.19483904687452" lon="13.775658363372418"><ele>819.0</ele><time>2026-04-27T08:57:52Z</time></trkpt><trkpt lat="42.1949276429111" lon="13.775514865440657"><ele>817.0</ele><time>2026-04-27T08:57:53Z</time></trkpt><trkpt lat="42.19503958100979" lon="13.775369864085608"><ele>815.0</ele><time>2026-04-27T08:57:54Z</time></trkpt><trkpt lat="42.19515227954285" lon="13.775218581564484"><ele>818.6666666666667</ele><time>2026-04-27T08:57:55Z</time></trkpt><trkpt lat="42.19526348491201" lon="13.77504924819068"><ele>822.3333333333333</ele><time>2026-04-27T08:57:56Z</time></trkpt><trkpt lat="42.195356958513486" lon="13.774856888690946"><ele>826.0</ele><time>2026-04-27T08:57:57Z</time></trkpt><trkpt lat="42.19546122778158" lon="13.774673622444878"><ele>826.0</ele><time>2026-04-27T08:57:58Z</time></trkpt><trkpt lat="42.195570041095785" lon="13.774491306669532"><ele>826.0</ele><time>2026-04-27T08:57:59Z</time></trkpt><trkpt lat="42.1956764085483" lon="13.774312588310327"><ele>826.0</ele><time>2026-04-27T08:58:00Z</time></trkpt><trkpt lat="42.195780103073" lon="13.774127665923894"><ele>826.75</ele><time>2026-04-27T08:58:01Z</time></trkpt><trkpt lat="42.195884752857886" lon="13.773953295910642"><ele>827.5</ele><time>2026-04-27T08:58:02Z</time></trkpt><trkpt lat="42.19596965457871" lon="13.77379261302866"><ele>828.25</ele><time>2026-04-27T08:58:03Z</time></trkpt><trkpt lat="42.19603320235909" lon="13.773633892069704"><ele>829.0</ele><time>2026-04-27T08:58:04Z</time></trkpt><trkpt lat="42.19606304790138" lon="13.773445343078015"><ele>832.6666666666666</ele><time>2026-04-27T08:58:05Z</time></trkpt><trkpt lat="42.19606187554472" lon="13.773242492833765"><ele>836.3333333333333</ele><time>2026-04-27T08:58:06Z</time></trkpt><trkpt lat="42.196046754191805" lon="13.773022229359519"><ele>840.0</ele><time>2026-04-27T08:58:07Z</time></trkpt><trkpt lat="42.196042784144375" lon="13.772800740353413"><ele>841.0</ele><time>2026-04-27T08:58:08Z</time></trkpt><trkpt lat="42.19604967182776" lon="13.77257719093631"><ele>842.0</ele><time>2026-04-27T08:58:09Z</time></trkpt><trkpt lat="42.19609728395489" lon="13.77235066735456"><ele>843.0</ele><time>2026-04-27T08:58:10Z</time></trkpt><trkpt lat="42.196122486431506" lon="13.772152512616307"><ele>843.0</ele><time>2026-04-27T08:58:11Z</time></trkpt><trkpt lat="42.196145365087624" lon="13.771932175715426"><ele>843.0</ele><time>2026-04-27T08:58:12Z</time></trkpt><trkpt lat="42.19614136157698" lon="13.771745559898694"><ele>843.0</ele><time>2026-04-27T08:58:13Z</time></trkpt><trkpt lat="42.19611656268722" lon="13.771592259959064"><ele>843.0</ele><time>2026-04-27T08:58:14Z</time></trkpt><trkpt lat="42.19606419233724" lon="13.771477388447273"><ele>843.0</ele><time>2026-04-27T08:58:15Z</time></trkpt><trkpt lat="42.195972177750456" lon="13.771394164183873"><ele>843.0</ele><time>2026-04-27T08:58:16Z</time></trkpt><trkpt lat="42.19584870249248" lon="13.771354897437421"><ele>843.0</ele><time>2026-04-27T08:58:17Z</time></trkpt><trkpt lat="42.195715524351805" lon="13.771334027349468"><ele>843.0</ele><time>2026-04-27T08:58:18Z</time></trkpt><trkpt lat="42.19557584507224" lon="13.771332562351079"><ele>845.75</ele><time>2026-04-27T08:58:19Z</time></trkpt><trkpt lat="42.19542924869369" lon="13.771365245396854"><ele>848.5</ele><time>2026-04-27T08:58:20Z</time></trkpt><trkpt lat="42.19528889814112" lon="13.771382274703791"><ele>851.25</ele><time>2026-04-27T08:58:21Z</time></trkpt><trkpt lat="42.19515086942411" lon="13.771379710788663"><ele>854.0</ele><time>2026-04-27T08:58:22Z</time></trkpt><trkpt lat="42.19503373399355" lon="13.77132722188978"><ele>854.0</ele><time>2026-04-27T08:58:23Z</time></trkpt><trkpt lat="42.19495247796156" lon="13.77122588912643"><ele>854.0</ele><time>2026-04-27T08:58:24Z</time></trkpt><trkpt lat="42.19492891986664" lon="13.771079598025503"><ele>854.0</ele><time>2026-04-27T08:58:25Z</time></trkpt><trkpt lat="42.19489742077879" lon="13.77093078243749"><ele>854.0</ele><time>2026-04-27T08:58:26Z</time></trkpt><trkpt lat="42.19488494961252" lon="13.770769015673793"><ele>853.0</ele><time>2026-04-27T08:58:27Z</time></trkpt><trkpt lat="42.19486382412404" lon="13.770591814232796"><ele>852.0</ele><time>2026-04-27T08:58:28Z</time></trkpt><trkpt lat="42.19482229250407" lon="13.770410602654946"><ele>851.0</ele><time>2026-04-27T08:58:29Z</time></trkpt><trkpt lat="42.19475355444865" lon="13.770230953258366"><ele>850.0</ele><time>2026-04-27T08:58:30Z</time></trkpt><trkpt lat="42.19467057249557" lon="13.770053952510874"><ele>852.75</ele><time>2026-04-27T08:58:31Z</time></trkpt><trkpt lat="42.19458636659855" lon="13.769877537722923"><ele>855.5</ele><time>2026-04-27T08:58:32Z</time></trkpt><trkpt lat="42.194519503741056" lon="13.769728286627398"><ele>858.25</ele><time>2026-04-27T08:58:33Z</time></trkpt><trkpt lat="42.19444819369203" lon="13.769612254735252"><ele>861.0</ele><time>2026-04-27T08:58:34Z</time></trkpt><trkpt lat="42.19433702299891" lon="13.769544576355692"><ele>861.0</ele><time>2026-04-27T08:58:35Z</time></trkpt><trkpt lat="42.19420470085077" lon="13.769530394055876"><ele>861.0</ele><time>2026-04-27T08:58:36Z</time></trkpt><trkpt lat="42.19406496304504" lon="13.769572313618497"><ele>861.0</ele><time>2026-04-27T08:58:37Z</time></trkpt><trkpt lat="42.19392196273957" lon="13.769621705399919"><ele>861.0</ele><time>2026-04-27T08:58:38Z</time></trkpt><trkpt lat="42.19376963451943" lon="13.76965406846911"><ele>864.3333333333333</ele><time>2026-04-27T08:58:39Z</time></trkpt><trkpt lat="42.193608077281716" lon="13.769652695161978"><ele>867.6666666666666</ele><time>2026-04-27T08:58:40Z</time></trkpt><trkpt lat="42.19345269835229" lon="13.769597105349785"><ele>871.0</ele><time>2026-04-27T08:58:41Z</time></trkpt><trkpt lat="42.193284138513974" lon="13.769596999798953"><ele>872.0</ele><time>2026-04-27T08:58:42Z</time></trkpt><trkpt lat="42.19312065583699" lon="13.76959351241286"><ele>873.0</ele><time>2026-04-27T08:58:43Z</time></trkpt><trkpt lat="42.192955051827084" lon="13.76957469251185"><ele>874.0</ele><time>2026-04-27T08:58:44Z</time></trkpt><trkpt lat="42.19278493420038" lon="13.769588232858808"><ele>874.0</ele><time>2026-04-27T08:58:45Z</time></trkpt><trkpt lat="42.19261279223169" lon="13.769568118770604"><ele>874.0</ele><time>2026-04-27T08:58:46Z</time></trkpt><trkpt lat="42.192452317108135" lon="13.769539996778965"><ele>874.0</ele><time>2026-04-27T08:58:47Z</time></trkpt><trkpt lat="42.19232985433193" lon="13.769485345875767"><ele>873.8000000000001</ele><time>2026-04-27T08:58:48Z</time></trkpt><trkpt lat="42.19222344214974" lon="13.769441691209066"><ele>873.6000000000001</ele><time>2026-04-27T08:58:49Z</time></trkpt><trkpt lat="42.19212520841098" lon="13.769403493319667"><ele>873.4</ele><time>2026-04-27T08:58:50Z</time></trkpt><trkpt lat="42.192014623220686" lon="13.769382186290777"><ele>873.2</ele><time>2026-04-27T08:58:51Z</time></trkpt><trkpt lat="42.19189158177365" lon="13.76937574245227"><ele>873.0</ele><time>2026-04-27T08:58:52Z</time></trkpt><trkpt lat="42.19175841211918" lon="13.76938067752149"><ele>873.0</ele><time>2026-04-27T08:58:53Z</time></trkpt><trkpt lat="42.19162004308095" lon="13.769381895230923"><ele>873.0</ele><time>2026-04-27T08:58:54Z</time></trkpt><trkpt lat="42.191485389836686" lon="13.769370311426016"><ele>873.0</ele><time>2026-04-27T08:58:55Z</time></trkpt><trkpt lat="42.19137271032637" lon="13.769342836866697"><ele>873.0</ele><time>2026-04-27T08:58:56Z</time></trkpt><trkpt lat="42.19128028053683" lon="13.76927210503181"><ele>872.75</ele><time>2026-04-27T08:58:57Z</time></trkpt><trkpt lat="42.19120024323885" lon="13.769168243093148"><ele>872.5</ele><time>2026-04-27T08:58:58Z</time></trkpt><trkpt lat="42.19112848491338" lon="13.769038049187344"><ele>872.25</ele><time>2026-04-27T08:58:59Z</time></trkpt><trkpt lat="42.1910548849727" lon="13.76890947708937"><ele>872.0</ele><time>2026-04-27T08:59:00Z</time></trkpt><trkpt lat="42.19098122400477" lon="13.768804491611409"><ele>872.0</ele><time>2026-04-27T08:59:01Z</time></trkpt><trkpt lat="42.19091428152976" lon="13.768741468791562"><ele>872.0</ele><time>2026-04-27T08:59:02Z</time></trkpt><trkpt lat="42.190858594399025" lon="13.768649753989257"><ele>872.0</ele><time>2026-04-27T08:59:04Z</time></trkpt><trkpt lat="42.19096091121459" lon="13.768529319173378"><ele>872.0</ele><time>2026-04-27T08:59:07Z</time></trkpt><trkpt lat="42.19103329465963" lon="13.768510497494692"><ele>872.0</ele><time>2026-04-27T08:59:08Z</time></trkpt><trkpt lat="42.19111690191863" lon="13.768467761715279"><ele>872.2</ele><time>2026-04-27T08:59:09Z</time></trkpt><trkpt lat="42.19117134348736" lon="13.768361740656268"><ele>872.4000000000001</ele><time>2026-04-27T08:59:10Z</time></trkpt><trkpt lat="42.19122353650009" lon="13.768275534751083"><ele>872.5999999999999</ele><time>2026-04-27T08:59:11Z</time></trkpt><trkpt lat="42.191287250674236" lon="13.768145400547413"><ele>872.8</ele><time>2026-04-27T08:59:12Z</time></trkpt><trkpt lat="42.19135474680203" lon="13.768022272514903"><ele>873.0</ele><time>2026-04-27T08:59:13Z</time></trkpt><trkpt lat="42.19143979011398" lon="13.767909885992553"><ele>873.0</ele><time>2026-04-27T08:59:14Z</time></trkpt><trkpt lat="42.191528050205406" lon="13.767813739628425"><ele>873.0</ele><time>2026-04-27T08:59:15Z</time></trkpt><trkpt lat="42.19158420860454" lon="13.767729894081528"><ele>873.0</ele><time>2026-04-27T08:59:16Z</time></trkpt><trkpt lat="42.191656419457836" lon="13.767685432855384"><ele>873.0</ele><time>2026-04-27T08:59:17Z</time></trkpt><trkpt lat="42.19172038591707" lon="13.76760968629917"><ele>873.0</ele><time>2026-04-27T08:59:18Z</time></trkpt><trkpt lat="42.191777312266495" lon="13.767527023253793"><ele>873.0</ele><time>2026-04-27T08:59:19Z</time></trkpt><trkpt lat="42.19183409212452" lon="13.767414011114948"><ele>875.5</ele><time>2026-04-27T08:59:20Z</time></trkpt><trkpt lat="42.191875854424474" lon="13.767304092336662"><ele>878.0</ele><time>2026-04-27T08:59:21Z</time></trkpt><trkpt lat="42.19190413970441" lon="13.767219719056305"><ele>880.5</ele><time>2026-04-27T08:59:22Z</time></trkpt><trkpt lat="42.191955299866805" lon="13.767091162384617"><ele>883.0</ele><time>2026-04-27T08:59:23Z</time></trkpt><trkpt lat="42.191964417542266" lon="13.767004295928798"><ele>885.5</ele><time>2026-04-27T08:59:24Z</time></trkpt><trkpt lat="42.19199683808222" lon="13.766908254277643"><ele>888.0</ele><time>2026-04-27T08:59:25Z</time></trkpt><trkpt lat="42.19204792330756" lon="13.766796350365253"><ele>889.2</ele><time>2026-04-27T08:59:26Z</time></trkpt><trkpt lat="42.1920997159299" lon="13.76667679500107"><ele>890.4</ele><time>2026-04-27T08:59:27Z</time></trkpt><trkpt lat="42.192145457056036" lon="13.7665691875044"><ele>891.6000000000001</ele><time>2026-04-27T08:59:28Z</time></trkpt><trkpt lat="42.19220269387477" lon="13.766485606296417"><ele>892.8000000000001</ele><time>2026-04-27T08:59:29Z</time></trkpt><trkpt lat="42.1922681774351" lon="13.76638780030582"><ele>894.0</ele><time>2026-04-27T08:59:30Z</time></trkpt><trkpt lat="42.19234657339986" lon="13.76625608626808"><ele>894.0</ele><time>2026-04-27T08:59:31Z</time></trkpt><trkpt lat="42.19242143243373" lon="13.766120935099135"><ele>894.0</ele><time>2026-04-27T08:59:32Z</time></trkpt><trkpt lat="42.19249896628246" lon="13.765974998624433"><ele>894.0</ele><time>2026-04-27T08:59:33Z</time></trkpt><trkpt lat="42.19258463700099" lon="13.765832536367572"><ele>894.0</ele><time>2026-04-27T08:59:34Z</time></trkpt><trkpt lat="42.19268682233398" lon="13.765715630390737"><ele>897.0</ele><time>2026-04-27T08:59:35Z</time></trkpt><trkpt lat="42.19277412522955" lon="13.765586000435437"><ele>900.0</ele><time>2026-04-27T08:59:36Z</time></trkpt><trkpt lat="42.19286646810242" lon="13.765465142660755"><ele>903.0</ele><time>2026-04-27T08:59:37Z</time></trkpt><trkpt lat="42.1929580526656" lon="13.765338482817866"><ele>906.0</ele><time>2026-04-27T08:59:38Z</time></trkpt><trkpt lat="42.19304966101515" lon="13.765207223616324"><ele>906.75</ele><time>2026-04-27T08:59:39Z</time></trkpt><trkpt lat="42.193146468966525" lon="13.765074908178045"><ele>907.5</ele><time>2026-04-27T08:59:40Z</time></trkpt><trkpt lat="42.193236354421174" lon="13.764931443015195"><ele>908.25</ele><time>2026-04-27T08:59:41Z</time></trkpt><trkpt lat="42.19331153012182" lon="13.764793450891169"><ele>909.0</ele><time>2026-04-27T08:59:42Z</time></trkpt><trkpt lat="42.19338717685175" lon="13.76468462824701"><ele>909.0</ele><time>2026-04-27T08:59:43Z</time></trkpt><trkpt lat="42.19347686508158" lon="13.76458548458206"><ele>909.0000000000001</ele><time>2026-04-27T08:59:44Z</time></trkpt><trkpt lat="42.19358718294858" lon="13.764511665461777"><ele>909.0000000000001</ele><time>2026-04-27T08:59:45Z</time></trkpt><trkpt lat="42.19368095038137" lon="13.764449201022638"><ele>909.0</ele><time>2026-04-27T08:59:46Z</time></trkpt><trkpt lat="42.1937592581804" lon="13.764415324127853"><ele>909.0</ele><time>2026-04-27T08:59:47Z</time></trkpt><trkpt lat="42.193855701754515" lon="13.764360403169084"><ele>909.8000000000001</ele><time>2026-04-27T08:59:48Z</time></trkpt><trkpt lat="42.19393537687458" lon="13.764311818015225"><ele>910.6000000000001</ele><time>2026-04-27T08:59:49Z</time></trkpt><trkpt lat="42.19400461602029" lon="13.764219350741218"><ele>911.4</ele><time>2026-04-27T08:59:50Z</time></trkpt><trkpt lat="42.194067564140866" lon="13.764109397560642"><ele>912.2</ele><time>2026-04-27T08:59:51Z</time></trkpt><trkpt lat="42.19411175972625" lon="13.763992701393404"><ele>913.0</ele><time>2026-04-27T08:59:52Z</time></trkpt><trkpt lat="42.19415427952491" lon="13.763840008936251"><ele>913.0</ele><time>2026-04-27T08:59:53Z</time></trkpt><trkpt lat="42.19422458127281" lon="13.763676733090522"><ele>913.0</ele><time>2026-04-27T08:59:54Z</time></trkpt><trkpt lat="42.19429798623389" lon="13.763538057573092"><ele>913.0</ele><time>2026-04-27T08:59:55Z</time></trkpt><trkpt lat="42.194345702565215" lon="13.763419780401046"><ele>913.0</ele><time>2026-04-27T08:59:56Z</time></trkpt><trkpt lat="42.19443775896651" lon="13.763337536224867"><ele>916.0</ele><time>2026-04-27T08:59:57Z</time></trkpt><trkpt lat="42.19451919877783" lon="13.763199159554064"><ele>919.0</ele><time>2026-04-27T08:59:58Z</time></trkpt><trkpt lat="42.19460236472321" lon="13.76307973357425"><ele>922.0</ele><time>2026-04-27T08:59:59Z</time></trkpt><trkpt lat="42.19467356924907" lon="13.76297294708367"><ele>925.0</ele><time>2026-04-27T09:00:00Z</time></trkpt><trkpt lat="42.1947521008586" lon="13.762905218401157"><ele>925.0</ele><time>2026-04-27T09:00:01Z</time></trkpt><trkpt lat="42.19483092041022" lon="13.762840461360739"><ele>925.0</ele><time>2026-04-27T09:00:02Z</time></trkpt><trkpt lat="42.194914163987704" lon="13.76276219186615"><ele>925.0</ele><time>2026-04-27T09:00:03Z</time></trkpt><trkpt lat="42.19502895030816" lon="13.76272806248554"><ele>925.0</ele><time>2026-04-27T09:00:04Z</time></trkpt><trkpt lat="42.195125603934464" lon="13.762661182341601"><ele>925.0</ele><time>2026-04-27T09:00:05Z</time></trkpt><trkpt lat="42.1952233142123" lon="13.762625788657486"><ele>924.4999999999999</ele><time>2026-04-27T09:00:06Z</time></trkpt><trkpt lat="42.19530218978839" lon="13.762595728387728"><ele>924.0</ele><time>2026-04-27T09:00:07Z</time></trkpt><trkpt lat="42.19538206989851" lon="13.762556449843345"><ele>923.5</ele><time>2026-04-27T09:00:09Z</time></trkpt><trkpt lat="42.19546294578844" lon="13.76244539339259"><ele>923.0</ele><time>2026-04-27T09:07:12.998Z</time></trkpt><trkpt lat="42.19551209186305" lon="13.762383456458625"><ele>922.4999999999999</ele><time>2026-04-27T09:07:13.998Z</time></trkpt><trkpt lat="42.19557065812354" lon="13.76230701159374"><ele>922.0</ele><time>2026-04-27T09:07:14.998Z</time></trkpt><trkpt lat="42.19563664640983" lon="13.762193459163987"><ele>922.0</ele><time>2026-04-27T09:07:15.998Z</time></trkpt><trkpt lat="42.195695264108" lon="13.762085112959948"><ele>922.0</ele><time>2026-04-27T09:07:16.998Z</time></trkpt><trkpt lat="42.19572846485308" lon="13.761981965222876"><ele>922.0</ele><time>2026-04-27T09:07:17.998Z</time></trkpt><trkpt lat="42.19577476292537" lon="13.761893486518586"><ele>922.0</ele><time>2026-04-27T09:07:19.998Z</time></trkpt><trkpt lat="42.19581895703415" lon="13.761787048326894"><ele>922.0</ele><time>2026-04-27T09:07:21.999Z</time></trkpt><trkpt lat="42.19589232568709" lon="13.761637028774517"><ele>921.9999999999999</ele><time>2026-04-27T09:07:23.999Z</time></trkpt><trkpt lat="42.19594730521044" lon="13.761552816646093"><ele>922.0</ele><time>2026-04-27T09:07:24.999Z</time></trkpt><trkpt lat="42.19597910191551" lon="13.761456407063505"><ele>922.0</ele><time>2026-04-27T09:07:25.999Z</time></trkpt><trkpt lat="42.196030112344786" lon="13.761399928376793"><ele>922.0</ele><time>2026-04-27T09:07:26.999Z</time></trkpt><trkpt lat="42.19607508111775" lon="13.761311935955625"><ele>921.9999999999999</ele><time>2026-04-27T09:07:28.999Z</time></trkpt><trkpt lat="42.196128717504365" lon="13.761233658087392"><ele>922.0</ele><time>2026-04-27T09:07:30.999Z</time></trkpt><trkpt lat="42.196221422603635" lon="13.76109635386444"><ele>922.0</ele><time>2026-04-27T09:07:32.999Z</time></trkpt><trkpt lat="42.19628069615533" lon="13.760995269485182"><ele>922.0</ele><time>2026-04-27T09:07:33.999Z</time></trkpt><trkpt lat="42.19635037722546" lon="13.76089062448773"><ele>922.0</ele><time>2026-04-27T09:07:34.999Z</time></trkpt><trkpt lat="42.19640508931844" lon="13.760772949493496"><ele>922.0</ele><time>2026-04-27T09:07:35.999Z</time></trkpt><trkpt lat="42.196465379021404" lon="13.76064715518007"><ele>922.0</ele><time>2026-04-27T09:07:36.999Z</time></trkpt><trkpt lat="42.19652264209922" lon="13.760527568320024"><ele>922.0</ele><time>2026-04-27T09:07:37.999Z</time></trkpt><trkpt lat="42.196589478745" lon="13.760412998423943"><ele>922.0</ele><time>2026-04-27T09:07:38.999Z</time></trkpt><trkpt lat="42.19663441912369" lon="13.760309126025724"><ele>922.0</ele><time>2026-04-27T09:07:39.999Z</time></trkpt><trkpt lat="42.19669033890851" lon="13.760191715913878"><ele>922.0</ele><time>2026-04-27T09:07:40.999Z</time></trkpt><trkpt lat="42.19673418132083" lon="13.760092439156878"><ele>922.0</ele><time>2026-04-27T09:07:41.999Z</time></trkpt><trkpt lat="42.19677367863979" lon="13.760007018283675"><ele>923.4999999999999</ele><time>2026-04-27T09:07:42.999Z</time></trkpt><trkpt lat="42.196807209081506" lon="13.759908469305078"><ele>925.0</ele><time>2026-04-27T09:07:43.999Z</time></trkpt><trkpt lat="42.19683871075924" lon="13.75983203282774"><ele>926.5</ele><time>2026-04-27T09:07:44.999Z</time></trkpt><trkpt lat="42.19687913776359" lon="13.75975971079451"><ele>928.0</ele><time>2026-04-27T09:07:45.999Z</time></trkpt><trkpt lat="42.196916690931104" lon="13.759667714471137"><ele>929.4999999999999</ele><time>2026-04-27T09:07:46.999Z</time></trkpt><trkpt lat="42.1969373284057" lon="13.759548531422194"><ele>931.0</ele><time>2026-04-27T09:07:47.999Z</time></trkpt><trkpt lat="42.196939278117256" lon="13.759414737507782"><ele>932.0</ele><time>2026-04-27T09:07:49Z</time></trkpt><trkpt lat="42.196927341071955" lon="13.759289837410362"><ele>932.9999999999999</ele><time>2026-04-27T09:07:50Z</time></trkpt><trkpt lat="42.196913851020895" lon="13.75917542099658"><ele>933.9999999999999</ele><time>2026-04-27T09:07:51Z</time></trkpt><trkpt lat="42.19689586349251" lon="13.759039095883658"><ele>935.0</ele><time>2026-04-27T09:07:52Z</time></trkpt><trkpt lat="42.196892299838105" lon="13.758899635276878"><ele>936.0</ele><time>2026-04-27T09:07:53Z</time></trkpt><trkpt lat="42.196856804519996" lon="13.758759015165621"><ele>936.0</ele><time>2026-04-27T09:07:54Z</time></trkpt><trkpt lat="42.196847349800414" lon="13.758624447325726"><ele>936.0</ele><time>2026-04-27T09:07:55Z</time></trkpt><trkpt lat="42.19683372922591" lon="13.758518003285541"><ele>936.0</ele><time>2026-04-27T09:07:56Z</time></trkpt><trkpt lat="42.1968387458526" lon="13.758428093000749"><ele>936.0</ele><time>2026-04-27T09:07:57Z</time></trkpt><trkpt lat="42.19685637309208" lon="13.758336906822864"><ele>936.0</ele><time>2026-04-27T09:07:58Z</time></trkpt><trkpt lat="42.19689052210816" lon="13.758227843023535"><ele>936.0</ele><time>2026-04-27T09:07:59Z</time></trkpt><trkpt lat="42.19693526528883" lon="13.758125174841071"><ele>936.4</ele><time>2026-04-27T09:08:00Z</time></trkpt><trkpt lat="42.19699186154118" lon="13.758014282209892"><ele>936.8</ele><time>2026-04-27T09:08:01Z</time></trkpt><trkpt lat="42.19703963635335" lon="13.757903826421993"><ele>937.1999999999999</ele><time>2026-04-27T09:08:02Z</time></trkpt><trkpt lat="42.19707172491118" lon="13.757800964485938"><ele>937.5999999999999</ele><time>2026-04-27T09:08:03Z</time></trkpt><trkpt lat="42.19714029828932" lon="13.757699179001868"><ele>938.0</ele><time>2026-04-27T09:08:04Z</time></trkpt><trkpt lat="42.197189747330114" lon="13.757585201741477"><ele>939.5999999999999</ele><time>2026-04-27T09:08:05Z</time></trkpt><trkpt lat="42.19723926476839" lon="13.757450623925669"><ele>941.1999999999999</ele><time>2026-04-27T09:08:06Z</time></trkpt><trkpt lat="42.19726640774125" lon="13.757334937489652"><ele>942.8</ele><time>2026-04-27T09:08:07Z</time></trkpt><trkpt lat="42.197266465044976" lon="13.757227857804333"><ele>944.4</ele><time>2026-04-27T09:08:08Z</time></trkpt><trkpt lat="42.19723390680253" lon="13.757098342225193"><ele>946.0</ele><time>2026-04-27T09:08:09Z</time></trkpt><trkpt lat="42.19721779743833" lon="13.756986268228333"><ele>946.0</ele><time>2026-04-27T09:08:10Z</time></trkpt><trkpt lat="42.1971876583603" lon="13.756881100502365"><ele>945.9999999999999</ele><time>2026-04-27T09:08:11Z</time></trkpt><trkpt lat="42.19715714195774" lon="13.756782632283343"><ele>945.9999999999999</ele><time>2026-04-27T09:08:12Z</time></trkpt><trkpt lat="42.19716648563534" lon="13.756677891667803"><ele>946.0</ele><time>2026-04-27T09:08:13Z</time></trkpt><trkpt lat="42.19716695261184" lon="13.756481966120361"><ele>946.0</ele><time>2026-04-27T09:08:15Z</time></trkpt><trkpt lat="42.19715392319499" lon="13.756381898953014"><ele>946.8571428571429</ele><time>2026-04-27T09:08:16Z</time></trkpt><trkpt lat="42.19716817087664" lon="13.756293767320383"><ele>947.7142857142857</ele><time>2026-04-27T09:08:17Z</time></trkpt><trkpt lat="42.19715645096357" lon="13.756208437482313"><ele>948.5714285714286</ele><time>2026-04-27T09:08:18Z</time></trkpt><trkpt lat="42.19716711106096" lon="13.756122592990387"><ele>949.4285714285714</ele><time>2026-04-27T09:08:19Z</time></trkpt><trkpt lat="42.19715146279147" lon="13.755998859496623"><ele>950.2857142857142</ele><time>2026-04-27T09:08:21Z</time></trkpt><trkpt lat="42.197149489122125" lon="13.755902829026255"><ele>951.1428571428571</ele><time>2026-04-27T09:08:22Z</time></trkpt><trkpt lat="42.19714550776867" lon="13.755813705862245"><ele>952.0</ele><time>2026-04-27T09:08:23Z</time></trkpt><trkpt lat="42.197137685246666" lon="13.75568568600313"><ele>954.25</ele><time>2026-04-27T09:08:25Z</time></trkpt><trkpt lat="42.1971052467756" lon="13.755568171957387"><ele>956.5</ele><time>2026-04-27T09:08:27Z</time></trkpt><trkpt lat="42.19708021124818" lon="13.7554031509979"><ele>958.75</ele><time>2026-04-27T09:08:29Z</time></trkpt><trkpt lat="42.19705313169163" lon="13.755237927926618"><ele>961.0</ele><time>2026-04-27T09:08:31Z</time></trkpt><trkpt lat="42.19700998741375" lon="13.755073907997513"><ele>963.0</ele><time>2026-04-27T09:08:33Z</time></trkpt><trkpt lat="42.196989186152486" lon="13.754932033606416"><ele>964.9999999999999</ele><time>2026-04-27T09:08:35Z</time></trkpt><trkpt lat="42.1969675741096" lon="13.754789536787055"><ele>966.9999999999999</ele><time>2026-04-27T09:08:37Z</time></trkpt><trkpt lat="42.1969534386988" lon="13.754706681955934"><ele>969.0</ele><time>2026-04-27T09:08:38Z</time></trkpt><trkpt lat="42.19692717139033" lon="13.754552592747524"><ele>971.0</ele><time>2026-04-27T09:08:40Z</time></trkpt><trkpt lat="42.19688371029603" lon="13.75440006513652"><ele>972.8333333333334</ele><time>2026-04-27T09:08:42Z</time></trkpt><trkpt lat="42.196860214803884" lon="13.754286114697754"><ele>974.6666666666667</ele><time>2026-04-27T09:08:44Z</time></trkpt><trkpt lat="42.196816539066205" lon="13.754115319099409"><ele>976.5</ele><time>2026-04-27T09:08:46Z</time></trkpt><trkpt lat="42.196777252239954" lon="13.754043207934775"><ele>978.3333333333333</ele><time>2026-04-27T09:08:47Z</time></trkpt><trkpt lat="42.19673942384634" lon="13.753972999306189"><ele>980.1666666666666</ele><time>2026-04-27T09:08:48Z</time></trkpt><trkpt lat="42.19668274128767" lon="13.753880118468684"><ele>982.0</ele><time>2026-04-27T09:08:50Z</time></trkpt><trkpt lat="42.196618682058904" lon="13.753800419790336"><ele>982.0</ele><time>2026-04-27T09:08:52Z</time></trkpt><trkpt lat="42.19656829054633" lon="13.75372833571771"><ele>982.0</ele><time>2026-04-27T09:08:53Z</time></trkpt><trkpt lat="42.19652054762961" lon="13.753603846785222"><ele>982.0</ele><time>2026-04-27T09:08:55Z</time></trkpt><trkpt lat="42.19654709776102" lon="13.7534517064342"><ele>982.0</ele><time>2026-04-27T09:08:57Z</time></trkpt><trkpt lat="42.19657552519652" lon="13.7533532469667"><ele>982.0</ele><time>2026-04-27T09:08:58Z</time></trkpt><trkpt lat="42.19661318444211" lon="13.753245697254904"><ele>983.8333333333333</ele><time>2026-04-27T09:08:59Z</time></trkpt><trkpt lat="42.19665118783314" lon="13.753168814491666"><ele>985.6666666666666</ele><time>2026-04-27T09:09:00Z</time></trkpt><trkpt lat="42.196761506231134" lon="13.753079321434983"><ele>987.5</ele><time>2026-04-27T09:09:02Z</time></trkpt><trkpt lat="42.196826261160325" lon="13.7530565948301"><ele>989.3333333333333</ele><time>2026-04-27T09:09:03Z</time></trkpt><trkpt lat="42.19689221032177" lon="13.7530329729512"><ele>991.1666666666666</ele><time>2026-04-27T09:09:04Z</time></trkpt><trkpt lat="42.19695702995823" lon="13.752975781845628"><ele>993.0</ele><time>2026-04-27T09:09:04.999Z</time></trkpt><trkpt lat="42.197042374298476" lon="13.752928706509982"><ele>993.0</ele><time>2026-04-27T09:09:05.999Z</time></trkpt><trkpt lat="42.19711195217095" lon="13.752843070103108"><ele>993.0</ele><time>2026-04-27T09:09:06.999Z</time></trkpt><trkpt lat="42.19717789117976" lon="13.752741420415585"><ele>993.0</ele><time>2026-04-27T09:09:07.999Z</time></trkpt><trkpt lat="42.1972440966377" lon="13.75261548459447"><ele>993.0</ele><time>2026-04-27T09:09:08.999Z</time></trkpt><trkpt lat="42.19730078755427" lon="13.752479853249097"><ele>993.0</ele><time>2026-04-27T09:09:09.999Z</time></trkpt><trkpt lat="42.1973609459322" lon="13.75233678256457"><ele>994.2</ele><time>2026-04-27T09:09:10.999Z</time></trkpt><trkpt lat="42.1974100003014" lon="13.752210603656856"><ele>995.4</ele><time>2026-04-27T09:09:11.999Z</time></trkpt><trkpt lat="42.19744607279818" lon="13.752088453693249"><ele>996.6000000000001</ele><time>2026-04-27T09:09:12.999Z</time></trkpt><trkpt lat="42.19749686668739" lon="13.751991172419629"><ele>997.8000000000001</ele><time>2026-04-27T09:09:13.999Z</time></trkpt><trkpt lat="42.197544015286084" lon="13.751904714410138"><ele>999.0</ele><time>2026-04-27T09:09:14.999Z</time></trkpt><trkpt lat="42.19760237623024" lon="13.751815165452642"><ele>1001.4000000000001</ele><time>2026-04-27T09:09:15.999Z</time></trkpt><trkpt lat="42.197666236040135" lon="13.751704669726458"><ele>1003.8000000000001</ele><time>2026-04-27T09:09:16.999Z</time></trkpt><trkpt lat="42.197746847432946" lon="13.751618385459144"><ele>1006.1999999999999</ele><time>2026-04-27T09:09:17.999Z</time></trkpt><trkpt lat="42.19781701340581" lon="13.751504536662974"><ele>1008.5999999999999</ele><time>2026-04-27T09:09:18.999Z</time></trkpt><trkpt lat="42.197905227929226" lon="13.75141025468422"><ele>1011.0</ele><time>2026-04-27T09:09:19.999Z</time></trkpt><trkpt lat="42.19798556918815" lon="13.751312602103996"><ele>1011.0</ele><time>2026-04-27T09:09:20.999Z</time></trkpt><trkpt lat="42.19806819199339" lon="13.751191793660935"><ele>1010.9999999999999</ele><time>2026-04-27T09:09:21.999Z</time></trkpt><trkpt lat="42.198138687562924" lon="13.751085825881479"><ele>1010.9999999999999</ele><time>2026-04-27T09:09:22.999Z</time></trkpt><trkpt lat="42.198208258904224" lon="13.750982576907148"><ele>1011.0</ele><time>2026-04-27T09:09:23.999Z</time></trkpt><trkpt lat="42.19826415657697" lon="13.750908652669553"><ele>1011.0</ele><time>2026-04-27T09:09:24.999Z</time></trkpt><trkpt lat="42.19833684809528" lon="13.750834944973075"><ele>1013.0</ele><time>2026-04-27T09:09:25.999Z</time></trkpt><trkpt lat="42.198397338670894" lon="13.750750652298432"><ele>1014.9999999999999</ele><time>2026-04-27T09:09:26.999Z</time></trkpt><trkpt lat="42.19847532702274" lon="13.750641976769332"><ele>1016.9999999999999</ele><time>2026-04-27T09:09:27.999Z</time></trkpt><trkpt lat="42.1985419749904" lon="13.750549103876635"><ele>1019.0</ele><time>2026-04-27T09:09:28.999Z</time></trkpt><trkpt lat="42.19860378892759" lon="13.750429915801464"><ele>1021.0</ele><time>2026-04-27T09:09:29.999Z</time></trkpt><trkpt lat="42.19867608076443" lon="13.750329770272856"><ele>1020.9999999999999</ele><time>2026-04-27T09:09:30.999Z</time></trkpt><trkpt lat="42.198721979561526" lon="13.750253038959865"><ele>1021.0</ele><time>2026-04-27T09:09:31.999Z</time></trkpt><trkpt lat="42.19877919944124" lon="13.750087543812443"><ele>1021.0</ele><time>2026-04-27T09:09:33.999Z</time></trkpt><trkpt lat="42.19877780492236" lon="13.74995762366932"><ele>1021.0</ele><time>2026-04-27T09:09:34.999Z</time></trkpt><trkpt lat="42.19877561377965" lon="13.749857707886626"><ele>1020.9999999999999</ele><time>2026-04-27T09:09:35.999Z</time></trkpt><trkpt lat="42.198772122280644" lon="13.749770769356344"><ele>1021.0</ele><time>2026-04-27T09:09:36.999Z</time></trkpt><trkpt lat="42.198769652416686" lon="13.74967076147038"><ele>1023.1999999999999</ele><time>2026-04-27T09:09:37.999Z</time></trkpt><trkpt lat="42.198773182500744" lon="13.749567850276168"><ele>1025.3999999999999</ele><time>2026-04-27T09:09:38.999Z</time></trkpt><trkpt lat="42.19878744269016" lon="13.749386746043154"><ele>1027.6</ele><time>2026-04-27T09:09:40.999Z</time></trkpt><trkpt lat="42.19879670101805" lon="13.749269165405797"><ele>1029.8</ele><time>2026-04-27T09:09:41.999Z</time></trkpt><trkpt lat="42.19880520663281" lon="13.749161144187498"><ele>1032.0</ele><time>2026-04-27T09:09:42.999Z</time></trkpt><trkpt lat="42.19869775506233" lon="13.749006516027015"><ele>1032.8333333333333</ele><time>2026-04-27T09:09:43.999Z</time></trkpt><trkpt lat="42.198689433155444" lon="13.748883026402803"><ele>1033.6666666666667</ele><time>2026-04-27T09:09:44.999Z</time></trkpt><trkpt lat="42.1986734451074" lon="13.748773950086417"><ele>1034.5</ele><time>2026-04-27T09:09:45.999Z</time></trkpt><trkpt lat="42.19864575807942" lon="13.748692206814185"><ele>1035.3333333333335</ele><time>2026-04-27T09:09:46.999Z</time></trkpt><trkpt lat="42.19862948584455" lon="13.748584237521843"><ele>1036.1666666666667</ele><time>2026-04-27T09:09:47.999Z</time></trkpt><trkpt lat="42.198644506671805" lon="13.748465015682447"><ele>1037.0</ele><time>2026-04-27T09:09:48.999Z</time></trkpt><trkpt lat="42.19865962979326" lon="13.748318744939166"><ele>1037.5</ele><time>2026-04-27T09:09:49.999Z</time></trkpt><trkpt lat="42.19866549539932" lon="13.748183577847376"><ele>1038.0</ele><time>2026-04-27T09:09:50.999Z</time></trkpt><trkpt lat="42.19868040142065" lon="13.748036283247085"><ele>1038.5</ele><time>2026-04-27T09:09:51.999Z</time></trkpt><trkpt lat="42.19868437090122" lon="13.747857194511592"><ele>1039.0</ele><time>2026-04-27T09:09:52.999Z</time></trkpt><trkpt lat="42.198678932778066" lon="13.747687104728627"><ele>1040.4</ele><time>2026-04-27T09:09:53.999Z</time></trkpt><trkpt lat="42.19868126074049" lon="13.74751726144787"><ele>1041.8000000000002</ele><time>2026-04-27T09:09:54.999Z</time></trkpt><trkpt lat="42.19868374192858" lon="13.747399268146633"><ele>1043.1999999999998</ele><time>2026-04-27T09:09:55.999Z</time></trkpt><trkpt lat="42.19869426895841" lon="13.747251604204493"><ele>1044.6</ele><time>2026-04-27T09:09:56.999Z</time></trkpt><trkpt lat="42.19870660451452" lon="13.747152006765987"><ele>1046.0</ele><time>2026-04-27T09:09:57.999Z</time></trkpt><trkpt lat="42.198740038817675" lon="13.747040991089312"><ele>1046.0</ele><time>2026-04-27T09:09:58.999Z</time></trkpt><trkpt lat="42.19878639303758" lon="13.746924601088113"><ele>1046.0</ele><time>2026-04-27T09:09:59.999Z</time></trkpt><trkpt lat="42.198823790694966" lon="13.746786728992817"><ele>1046.0</ele><time>2026-04-27T09:10:00.999Z</time></trkpt><trkpt lat="42.19883604650609" lon="13.746652730361692"><ele>1046.0</ele><time>2026-04-27T09:10:01.999Z</time></trkpt><trkpt lat="42.19883779179951" lon="13.746498179153004"><ele>1046.0</ele><time>2026-04-27T09:10:02.999Z</time></trkpt><trkpt lat="42.19884005001485" lon="13.746333905494295"><ele>1047.3999999999999</ele><time>2026-04-27T09:10:03.999Z</time></trkpt><trkpt lat="42.198849872139455" lon="13.746185646409637"><ele>1048.8</ele><time>2026-04-27T09:10:04.999Z</time></trkpt><trkpt lat="42.1988667666531" lon="13.746051459382091"><ele>1050.1999999999998</ele><time>2026-04-27T09:10:05.999Z</time></trkpt><trkpt lat="42.198901624310764" lon="13.745946040751669"><ele>1051.6</ele><time>2026-04-27T09:10:06.999Z</time></trkpt><trkpt lat="42.19894175826514" lon="13.745822141455745"><ele>1053.0</ele><time>2026-04-27T09:10:07.999Z</time></trkpt><trkpt lat="42.19898500710743" lon="13.74567017387191"><ele>1053.8</ele><time>2026-04-27T09:10:08.999Z</time></trkpt><trkpt lat="42.199022280446364" lon="13.745512530681689"><ele>1054.6</ele><time>2026-04-27T09:10:09.999Z</time></trkpt><trkpt lat="42.199056889408865" lon="13.745401629672772"><ele>1055.4</ele><time>2026-04-27T09:10:10.999Z</time></trkpt><trkpt lat="42.19910051619991" lon="13.745309786750443"><ele>1056.2</ele><time>2026-04-27T09:10:11.999Z</time></trkpt><trkpt lat="42.19916966895123" lon="13.745218387687725"><ele>1057.0</ele><time>2026-04-27T09:10:12.999Z</time></trkpt><trkpt lat="42.19925464027993" lon="13.74512024459685"><ele>1057.4</ele><time>2026-04-27T09:10:13.999Z</time></trkpt><trkpt lat="42.19932767253874" lon="13.744985675651748"><ele>1057.8000000000002</ele><time>2026-04-27T09:10:15Z</time></trkpt><trkpt lat="42.19938113830248" lon="13.744836677706061"><ele>1058.2</ele><time>2026-04-27T09:10:16Z</time></trkpt><trkpt lat="42.19941912412183" lon="13.744705579646858"><ele>1058.6000000000001</ele><time>2026-04-27T09:10:17Z</time></trkpt><trkpt lat="42.19944871610317" lon="13.744589278875909"><ele>1059.0</ele><time>2026-04-27T09:10:18Z</time></trkpt><trkpt lat="42.199485504908424" lon="13.744476541600259"><ele>1059.0</ele><time>2026-04-27T09:10:19Z</time></trkpt><trkpt lat="42.199538884908" lon="13.744410971782342"><ele>1059.0</ele><time>2026-04-27T09:10:20Z</time></trkpt><trkpt lat="42.199598911379645" lon="13.744347707142115"><ele>1059.0</ele><time>2026-04-27T09:10:21Z</time></trkpt><trkpt lat="42.19965573562254" lon="13.744295778304837"><ele>1059.0</ele><time>2026-04-27T09:10:22Z</time></trkpt><trkpt lat="42.19973489031461" lon="13.744251295029274"><ele>1059.0</ele><time>2026-04-27T09:10:23Z</time></trkpt><trkpt lat="42.19982459248401" lon="13.744215335587645"><ele>1059.0</ele><time>2026-04-27T09:10:24Z</time></trkpt><trkpt lat="42.19990441054677" lon="13.74417415509291"><ele>1057.6666666666667</ele><time>2026-04-27T09:10:25Z</time></trkpt><trkpt lat="42.19996783650258" lon="13.744130940526137"><ele>1056.3333333333333</ele><time>2026-04-27T09:10:26Z</time></trkpt><trkpt lat="42.20002872530879" lon="13.744098382808941"><ele>1055.0</ele><time>2026-04-27T09:10:27Z</time></trkpt><trkpt lat="42.200138321170485" lon="13.744040679276514"><ele>1053.6666666666665</ele><time>2026-04-27T09:10:29Z</time></trkpt><trkpt lat="42.20019953423228" lon="13.743993869350787"><ele>1052.3333333333333</ele><time>2026-04-27T09:10:30Z</time></trkpt><trkpt lat="42.20025080672406" lon="13.743938201469723"><ele>1051.0</ele><time>2026-04-27T09:10:31Z</time></trkpt><trkpt lat="42.20029692273231" lon="13.74387512625395"><ele>1051.0</ele><time>2026-04-27T09:10:32Z</time></trkpt><trkpt lat="42.20034173900012" lon="13.74380364514122"><ele>1051.0</ele><time>2026-04-27T09:10:33Z</time></trkpt><trkpt lat="42.200385695965416" lon="13.743723585604727"><ele>1051.0</ele><time>2026-04-27T09:10:34Z</time></trkpt><trkpt lat="42.200430701897396" lon="13.743616737764492"><ele>1051.0</ele><time>2026-04-27T09:10:35Z</time></trkpt><trkpt lat="42.20047895962907" lon="13.743516071826727"><ele>1051.0</ele><time>2026-04-27T09:10:36Z</time></trkpt><trkpt lat="42.200532570513246" lon="13.743406441471212"><ele>1051.0</ele><time>2026-04-27T09:10:37Z</time></trkpt><trkpt lat="42.20057630045316" lon="13.743312697212422"><ele>1052.0</ele><time>2026-04-27T09:10:38Z</time></trkpt><trkpt lat="42.2006159318478" lon="13.743210663486149"><ele>1053.0</ele><time>2026-04-27T09:10:39Z</time></trkpt><trkpt lat="42.200645685257165" lon="13.743103474444794"><ele>1054.0</ele><time>2026-04-27T09:10:40Z</time></trkpt><trkpt lat="42.20068354853165" lon="13.742996925611884"><ele>1055.0</ele><time>2026-04-27T09:10:41Z</time></trkpt><trkpt lat="42.20072871986119" lon="13.742877512687643"><ele>1056.0</ele><time>2026-04-27T09:10:42Z</time></trkpt><trkpt lat="42.200791560604976" lon="13.742769753336262"><ele>1052.3999999999999</ele><time>2026-04-27T09:10:43Z</time></trkpt><trkpt lat="42.200870716226106" lon="13.742661946159352"><ele>1048.8</ele><time>2026-04-27T09:10:44Z</time></trkpt><trkpt lat="42.20093634765829" lon="13.742560060236976"><ele>1045.1999999999998</ele><time>2026-04-27T09:10:45Z</time></trkpt><trkpt lat="42.200986150596094" lon="13.742456689534544"><ele>1041.6</ele><time>2026-04-27T09:10:46Z</time></trkpt><trkpt lat="42.20103594062961" lon="13.74237359279167"><ele>1038.0</ele><time>2026-04-27T09:10:47Z</time></trkpt><trkpt lat="42.2011082805646" lon="13.742279480895167"><ele>1038.0</ele><time>2026-04-27T09:10:48Z</time></trkpt><trkpt lat="42.20120448227437" lon="13.742178751376107"><ele>1038.0</ele><time>2026-04-27T09:10:49Z</time></trkpt><trkpt lat="42.20128885269747" lon="13.742077880127624"><ele>1038.0</ele><time>2026-04-27T09:10:50Z</time></trkpt><trkpt lat="42.20136354921043" lon="13.74198115123872"><ele>1038.0</ele><time>2026-04-27T09:10:51Z</time></trkpt><trkpt lat="42.201417664826806" lon="13.741901847669268"><ele>1038.0</ele><time>2026-04-27T09:10:52Z</time></trkpt><trkpt lat="42.20148707013638" lon="13.741802340894454"><ele>1035.2</ele><time>2026-04-27T09:10:53Z</time></trkpt><trkpt lat="42.201548345146726" lon="13.741706160106684"><ele>1032.4</ele><time>2026-04-27T09:10:54Z</time></trkpt><trkpt lat="42.2016061891342" lon="13.741605018769125"><ele>1029.6000000000001</ele><time>2026-04-27T09:10:55Z</time></trkpt><trkpt lat="42.20166869904034" lon="13.741514065915545"><ele>1026.8</ele><time>2026-04-27T09:10:56Z</time></trkpt><trkpt lat="42.20174250137281" lon="13.741427096453684"><ele>1024.0</ele><time>2026-04-27T09:10:57Z</time></trkpt><trkpt lat="42.20182283596301" lon="13.741349387309103"><ele>1024.0</ele><time>2026-04-27T09:10:58Z</time></trkpt><trkpt lat="42.20191235439812" lon="13.741289355187364"><ele>1024.0</ele><time>2026-04-27T09:10:59Z</time></trkpt><trkpt lat="42.20198727320959" lon="13.74124287471045"><ele>1024.0</ele><time>2026-04-27T09:11:00Z</time></trkpt><trkpt lat="42.20207464937689" lon="13.741231999312598"><ele>1024.0</ele><time>2026-04-27T09:11:01Z</time></trkpt><trkpt lat="42.20218138176474" lon="13.741231511223669"><ele>1024.0</ele><time>2026-04-27T09:11:02Z</time></trkpt><trkpt lat="42.20228242224304" lon="13.741225579935298"><ele>1019.0</ele><time>2026-04-27T09:11:03Z</time></trkpt><trkpt lat="42.20240741772979" lon="13.741206837649266"><ele>1014.0000000000001</ele><time>2026-04-27T09:11:04Z</time></trkpt><trkpt lat="42.20251416214868" lon="13.741181974093942"><ele>1009.0000000000001</ele><time>2026-04-27T09:11:05Z</time></trkpt><trkpt lat="42.2026156890919" lon="13.741161922727073"><ele>1004.0</ele><time>2026-04-27T09:11:06Z</time></trkpt><trkpt lat="42.20272598155855" lon="13.741137560047195"><ele>999.0</ele><time>2026-04-27T09:11:07Z</time></trkpt><trkpt lat="42.20281820341726" lon="13.741105819520099"><ele>999.0</ele><time>2026-04-27T09:11:08Z</time></trkpt><trkpt lat="42.20291602194017" lon="13.741065117549372"><ele>999.0000000000001</ele><time>2026-04-27T09:11:09Z</time></trkpt><trkpt lat="42.20301761548282" lon="13.741016784251112"><ele>999.0000000000001</ele><time>2026-04-27T09:11:10Z</time></trkpt><trkpt lat="42.2031217533674" lon="13.74099046846731"><ele>999.0</ele><time>2026-04-27T09:11:10.998Z</time></trkpt><trkpt lat="42.203219616059684" lon="13.740973817351211"><ele>999.0</ele><time>2026-04-27T09:11:11.998Z</time></trkpt><trkpt lat="42.20331891642395" lon="13.740954361345706"><ele>1000.1666666666666</ele><time>2026-04-27T09:11:12.998Z</time></trkpt><trkpt lat="42.2034013491443" lon="13.740904250490164"><ele>1001.3333333333333</ele><time>2026-04-27T09:11:13.998Z</time></trkpt><trkpt lat="42.203486735802755" lon="13.740864916126943"><ele>1002.5</ele><time>2026-04-27T09:11:14.998Z</time></trkpt><trkpt lat="42.203559334713766" lon="13.740844388906673"><ele>1003.6666666666666</ele><time>2026-04-27T09:11:15.998Z</time></trkpt><trkpt lat="42.2036406987836" lon="13.740740891753044"><ele>1004.8333333333333</ele><time>2026-04-27T09:11:17.998Z</time></trkpt><trkpt lat="42.20367788156756" lon="13.740654579584715"><ele>1006.0</ele><time>2026-04-27T09:11:18.999Z</time></trkpt><trkpt lat="42.20374469317088" lon="13.740549271638864"><ele>1006.0</ele><time>2026-04-27T09:11:19.999Z</time></trkpt><trkpt lat="42.20380939727446" lon="13.740450636683368"><ele>1005.9999999999999</ele><time>2026-04-27T09:11:20.999Z</time></trkpt><trkpt lat="42.203863483635466" lon="13.740341620920093"><ele>1005.9999999999999</ele><time>2026-04-27T09:11:21.999Z</time></trkpt><trkpt lat="42.20391688500604" lon="13.740224249307698"><ele>1006.0</ele><time>2026-04-27T09:11:22.999Z</time></trkpt><trkpt lat="42.203971682708286" lon="13.740118157631542"><ele>1006.0</ele><time>2026-04-27T09:11:23.999Z</time></trkpt><trkpt lat="42.204048100219" lon="13.740028159734452"><ele>1004.8</ele><time>2026-04-27T09:11:24.999Z</time></trkpt><trkpt lat="42.20413436267429" lon="13.739970717951138"><ele>1003.5999999999999</ele><time>2026-04-27T09:11:25.999Z</time></trkpt><trkpt lat="42.204221371548655" lon="13.739923159159872"><ele>1002.4</ele><time>2026-04-27T09:11:26.999Z</time></trkpt><trkpt lat="42.20432150112149" lon="13.739852507991754"><ele>1001.2</ele><time>2026-04-27T09:11:27.999Z</time></trkpt><trkpt lat="42.204405014762415" lon="13.739756511845608"><ele>1000.0</ele><time>2026-04-27T09:11:28.999Z</time></trkpt><trkpt lat="42.20449103394267" lon="13.739678016924742"><ele>1000.0</ele><time>2026-04-27T09:11:29.999Z</time></trkpt><trkpt lat="42.20458980458792" lon="13.739626924946517"><ele>1000.0</ele><time>2026-04-27T09:11:30.999Z</time></trkpt><trkpt lat="42.20467767634645" lon="13.739587741460152"><ele>1000.0</ele><time>2026-04-27T09:11:31.999Z</time></trkpt><trkpt lat="42.20476882262237" lon="13.73955294804779"><ele>1000.0</ele><time>2026-04-27T09:11:32.999Z</time></trkpt><trkpt lat="42.20485362458148" lon="13.73953686943805"><ele>1000.0</ele><time>2026-04-27T09:11:33.999Z</time></trkpt><trkpt lat="42.20494609988844" lon="13.739511481796237"><ele>997.8</ele><time>2026-04-27T09:11:34.999Z</time></trkpt><trkpt lat="42.205010365111725" lon="13.739469022134005"><ele>995.6</ele><time>2026-04-27T09:11:35.999Z</time></trkpt><trkpt lat="42.205088136707076" lon="13.739359907473649"><ele>993.4000000000001</ele><time>2026-04-27T09:11:37.999Z</time></trkpt><trkpt lat="42.20513742604257" lon="13.739189164294757"><ele>991.2</ele><time>2026-04-27T09:11:39.999Z</time></trkpt><trkpt lat="42.20518271336199" lon="13.739077772333395"><ele>989.0</ele><time>2026-04-27T09:11:40.999Z</time></trkpt><trkpt lat="42.20524626162753" lon="13.739022571925135"><ele>989.0</ele><time>2026-04-27T09:11:41.999Z</time></trkpt><trkpt lat="42.20533377737258" lon="13.739005630759461"><ele>989.0000000000001</ele><time>2026-04-27T09:11:42.999Z</time></trkpt><trkpt lat="42.20543402370341" lon="13.73898292908803"><ele>989.0000000000001</ele><time>2026-04-27T09:11:43.999Z</time></trkpt><trkpt lat="42.20556616153977" lon="13.738945745429469"><ele>989.0</ele><time>2026-04-27T09:11:44.999Z</time></trkpt><trkpt lat="42.20567901218553" lon="13.738923420135535"><ele>989.0</ele><time>2026-04-27T09:11:45.999Z</time></trkpt><trkpt lat="42.205780229852046" lon="13.738910808799409"><ele>987.6</ele><time>2026-04-27T09:11:46.999Z</time></trkpt><trkpt lat="42.2058597339738" lon="13.738863648914512"><ele>986.2</ele><time>2026-04-27T09:11:47.999Z</time></trkpt><trkpt lat="42.20595161821452" lon="13.738814781087372"><ele>984.8000000000001</ele><time>2026-04-27T09:11:48.999Z</time></trkpt><trkpt lat="42.206055978023485" lon="13.738751760606505"><ele>983.4000000000001</ele><time>2026-04-27T09:11:49.999Z</time></trkpt><trkpt lat="42.20614700205744" lon="13.738691232151812"><ele>982.0</ele><time>2026-04-27T09:11:50.999Z</time></trkpt><trkpt lat="42.206238396116326" lon="13.738662018988768"><ele>982.0</ele><time>2026-04-27T09:11:51.999Z</time></trkpt><trkpt lat="42.206324799629904" lon="13.738691831897283"><ele>982.0</ele><time>2026-04-27T09:11:52.999Z</time></trkpt><trkpt lat="42.206429141972315" lon="13.738742650085538"><ele>982.0</ele><time>2026-04-27T09:11:53.999Z</time></trkpt><trkpt lat="42.20654985165295" lon="13.738799211837566"><ele>982.0</ele><time>2026-04-27T09:11:54.999Z</time></trkpt><trkpt lat="42.20667279919171" lon="13.738828271560951"><ele>982.0</ele><time>2026-04-27T09:11:55.999Z</time></trkpt><trkpt lat="42.20680207469551" lon="13.738819038728554"><ele>982.0</ele><time>2026-04-27T09:11:56.999Z</time></trkpt><trkpt lat="42.2069172925675" lon="13.738825346723525"><ele>982.0</ele><time>2026-04-27T09:11:57.999Z</time></trkpt><trkpt lat="42.207024897632046" lon="13.738830189216504"><ele>982.0</ele><time>2026-04-27T09:11:58.999Z</time></trkpt><trkpt lat="42.20711483746583" lon="13.73882992278134"><ele>982.0</ele><time>2026-04-27T09:11:59.999Z</time></trkpt><trkpt lat="42.20719488384122" lon="13.738801353039376"><ele>982.0</ele><time>2026-04-27T09:12:00.999Z</time></trkpt><trkpt lat="42.2072721148691" lon="13.738758742225986"><ele>982.0</ele><time>2026-04-27T09:12:01.999Z</time></trkpt><trkpt lat="42.207363028705345" lon="13.738680118172496"><ele>982.0</ele><time>2026-04-27T09:12:02.999Z</time></trkpt><trkpt lat="42.20745375833556" lon="13.738590427123217"><ele>982.0</ele><time>2026-04-27T09:12:03.999Z</time></trkpt><trkpt lat="42.20753610871829" lon="13.738494888306555"><ele>982.0</ele><time>2026-04-27T09:12:04.999Z</time></trkpt><trkpt lat="42.207607811578434" lon="13.738380614035846"><ele>984.2</ele><time>2026-04-27T09:12:05.999Z</time></trkpt><trkpt lat="42.20768530503134" lon="13.738247648687327"><ele>986.4000000000001</ele><time>2026-04-27T09:12:06.999Z</time></trkpt><trkpt lat="42.20775506511942" lon="13.738128773818616"><ele>988.5999999999999</ele><time>2026-04-27T09:12:07.999Z</time></trkpt><trkpt lat="42.207825792057406" lon="13.73803641955933"><ele>990.8</ele><time>2026-04-27T09:12:09Z</time></trkpt><trkpt lat="42.20790835797688" lon="13.73795304301396"><ele>993.0</ele><time>2026-04-27T09:12:10Z</time></trkpt><trkpt lat="42.20800358366296" lon="13.737888559014069"><ele>993.0</ele><time>2026-04-27T09:12:11Z</time></trkpt><trkpt lat="42.20809864641372" lon="13.737811637812483"><ele>993.0</ele><time>2026-04-27T09:12:12Z</time></trkpt><trkpt lat="42.208197403052395" lon="13.737732226884615"><ele>993.0</ele><time>2026-04-27T09:12:13Z</time></trkpt><trkpt lat="42.20830288637243" lon="13.737672107521552"><ele>993.0</ele><time>2026-04-27T09:12:14Z</time></trkpt><trkpt lat="42.20841278440322" lon="13.737607621952312"><ele>994.0</ele><time>2026-04-27T09:12:15Z</time></trkpt><trkpt lat="42.208531270713806" lon="13.737553191764247"><ele>995.0</ele><time>2026-04-27T09:12:16Z</time></trkpt><trkpt lat="42.20864689625975" lon="13.737496044147703"><ele>996.0</ele><time>2026-04-27T09:12:17Z</time></trkpt><trkpt lat="42.208756913393145" lon="13.737447206783596"><ele>997.0</ele><time>2026-04-27T09:12:18Z</time></trkpt><trkpt lat="42.20888091770502" lon="13.737383309258348"><ele>993.5</ele><time>2026-04-27T09:12:19Z</time></trkpt><trkpt lat="42.2090079376032" lon="13.737318815597469"><ele>990.0</ele><time>2026-04-27T09:12:20Z</time></trkpt><trkpt lat="42.20912822675293" lon="13.737264695753286"><ele>986.5</ele><time>2026-04-27T09:12:21Z</time></trkpt><trkpt lat="42.20923630384596" lon="13.737218861081136"><ele>983.0</ele><time>2026-04-27T09:12:22Z</time></trkpt><trkpt lat="42.2093315047326" lon="13.737176213513763"><ele>983.0</ele><time>2026-04-27T09:12:23Z</time></trkpt><trkpt lat="42.20942311309741" lon="13.737125677370647"><ele>983.0</ele><time>2026-04-27T09:12:24Z</time></trkpt><trkpt lat="42.20949560145746" lon="13.73708654069889"><ele>983.0</ele><time>2026-04-27T09:12:25Z</time></trkpt><trkpt lat="42.20959809002359" lon="13.737020675323416"><ele>983.0</ele><time>2026-04-27T09:12:27Z</time></trkpt><trkpt lat="42.20964194226489" lon="13.736947952334308"><ele>983.0</ele><time>2026-04-27T09:12:28Z</time></trkpt><trkpt lat="42.20969307378696" lon="13.736844354055783"><ele>983.2</ele><time>2026-04-27T09:12:29Z</time></trkpt><trkpt lat="42.20977057453411" lon="13.73673725029593"><ele>983.4</ele><time>2026-04-27T09:12:30Z</time></trkpt><trkpt lat="42.209867266420254" lon="13.736648838221114"><ele>983.6000000000001</ele><time>2026-04-27T09:12:31Z</time></trkpt><trkpt lat="42.209956215142824" lon="13.736574571592008"><ele>983.8000000000001</ele><time>2026-04-27T09:12:32Z</time></trkpt><trkpt lat="42.210012094619586" lon="13.736515922883493"><ele>984.0</ele><time>2026-04-27T09:12:33Z</time></trkpt><trkpt lat="42.21010552950992" lon="13.736425211248621"><ele>984.0</ele><time>2026-04-27T09:12:35Z</time></trkpt><trkpt lat="42.21016785292145" lon="13.736363086102925"><ele>984.0</ele><time>2026-04-27T09:12:36Z</time></trkpt><trkpt lat="42.21025770907816" lon="13.736292510188575"><ele>984.0</ele><time>2026-04-27T09:12:37Z</time></trkpt><trkpt lat="42.210346233706474" lon="13.736233218456574"><ele>984.0</ele><time>2026-04-27T09:12:38Z</time></trkpt><trkpt lat="42.21040686547828" lon="13.736161801337893"><ele>984.0</ele><time>2026-04-27T09:12:40Z</time></trkpt><trkpt lat="42.210360553946934" lon="13.736073450787623"><ele>984.0</ele><time>2026-04-27T09:12:44Z</time></trkpt><trkpt lat="42.21027319667096" lon="13.73604087799171"><ele>985.4000000000001</ele><time>2026-04-27T09:12:46Z</time></trkpt><trkpt lat="42.21015158547982" lon="13.735977687058684"><ele>986.8000000000001</ele><time>2026-04-27T09:12:48Z</time></trkpt><trkpt lat="42.21009055095121" lon="13.73594165201273"><ele>988.1999999999999</ele><time>2026-04-27T09:12:49Z</time></trkpt><trkpt lat="42.210020236118375" lon="13.735887510888329"><ele>989.5999999999999</ele><time>2026-04-27T09:12:50Z</time></trkpt><trkpt lat="42.20995063574524" lon="13.735835521503388"><ele>991.0</ele><time>2026-04-27T09:12:51Z</time></trkpt><trkpt lat="42.2098695040495" lon="13.735767369699651"><ele>995.0</ele><time>2026-04-27T09:12:52Z</time></trkpt><trkpt lat="42.20979456019995" lon="13.73568467741884"><ele>998.9999999999999</ele><time>2026-04-27T09:12:53Z</time></trkpt><trkpt lat="42.209712809247115" lon="13.735605211460156"><ele>1002.9999999999999</ele><time>2026-04-27T09:12:54Z</time></trkpt><trkpt lat="42.20961747665753" lon="13.735512773308969"><ele>1007.0</ele><time>2026-04-27T09:12:55Z</time></trkpt><trkpt lat="42.209544084171235" lon="13.735421731832718"><ele>1011.0</ele><time>2026-04-27T09:12:56Z</time></trkpt><trkpt lat="42.20946918340934" lon="13.735317528051835"><ele>1010.1999999999999</ele><time>2026-04-27T09:12:57Z</time></trkpt><trkpt lat="42.20938992870421" lon="13.735214372224021"><ele>1009.3999999999999</ele><time>2026-04-27T09:12:58Z</time></trkpt><trkpt lat="42.209311943029256" lon="13.735155557881013"><ele>1008.6</ele><time>2026-04-27T09:12:59Z</time></trkpt><trkpt lat="42.20925010011993" lon="13.735078115753222"><ele>1007.8</ele><time>2026-04-27T09:13:00Z</time></trkpt><trkpt lat="42.20916407000989" lon="13.735057627217717"><ele>1007.0</ele><time>2026-04-27T09:13:01Z</time></trkpt><trkpt lat="42.20907508890946" lon="13.735038913472826"><ele>1011.4000000000001</ele><time>2026-04-27T09:13:02Z</time></trkpt><trkpt lat="42.2089759816909" lon="13.735028374266818"><ele>1015.8000000000001</ele><time>2026-04-27T09:13:03Z</time></trkpt><trkpt lat="42.20887985564559" lon="13.735028080414297"><ele>1020.2</ele><time>2026-04-27T09:13:04Z</time></trkpt><trkpt lat="42.208778552029486" lon="13.7350348716969"><ele>1024.6000000000001</ele><time>2026-04-27T09:13:05Z</time></trkpt><trkpt lat="42.20866133234759" lon="13.735051330329243"><ele>1029.0</ele><time>2026-04-27T09:13:06Z</time></trkpt><trkpt lat="42.20854440901234" lon="13.735077785025396"><ele>1029.0</ele><time>2026-04-27T09:13:07Z</time></trkpt><trkpt lat="42.20844612193514" lon="13.735111554051326"><ele>1029.0</ele><time>2026-04-27T09:13:08Z</time></trkpt><trkpt lat="42.20833160994997" lon="13.735183351897243"><ele>1029.0</ele><time>2026-04-27T09:13:09Z</time></trkpt><trkpt lat="42.20823682539492" lon="13.735294265524121"><ele>1029.0</ele><time>2026-04-27T09:13:10Z</time></trkpt><trkpt lat="42.20816608264205" lon="13.735437957424377"><ele>1033.75</ele><time>2026-04-27T09:13:11Z</time></trkpt><trkpt lat="42.208092623134235" lon="13.735555228123411"><ele>1038.5</ele><time>2026-04-27T09:13:12Z</time></trkpt><trkpt lat="42.2080398737207" lon="13.735697115338455"><ele>1043.25</ele><time>2026-04-27T09:13:13Z</time></trkpt><trkpt lat="42.20798392467936" lon="13.735841541390892"><ele>1048.0</ele><time>2026-04-27T09:13:14Z</time></trkpt><trkpt lat="42.20791756960497" lon="13.735987652917885"><ele>1046.0</ele><time>2026-04-27T09:13:15Z</time></trkpt><trkpt lat="42.20784225807691" lon="13.736155582658576"><ele>1044.0</ele><time>2026-04-27T09:13:16Z</time></trkpt><trkpt lat="42.20777290508253" lon="13.73630476205389"><ele>1042.0</ele><time>2026-04-27T09:13:16.999Z</time></trkpt><trkpt lat="42.20770403543154" lon="13.736416242314856"><ele>1040.0</ele><time>2026-04-27T09:13:17.999Z</time></trkpt><trkpt lat="42.207621299392706" lon="13.736531355323816"><ele>1040.0</ele><time>2026-04-27T09:13:18.999Z</time></trkpt><trkpt lat="42.20753186489139" lon="13.736645779235959"><ele>1040.0</ele><time>2026-04-27T09:13:19.999Z</time></trkpt><trkpt lat="42.20744554388131" lon="13.736746939051764"><ele>1040.0</ele><time>2026-04-27T09:13:20.999Z</time></trkpt><trkpt lat="42.2073535972443" lon="13.736828192231883"><ele>1040.0</ele><time>2026-04-27T09:13:21.999Z</time></trkpt><trkpt lat="42.20725909600454" lon="13.736894446034245"><ele>1040.1666666666667</ele><time>2026-04-27T09:13:22.999Z</time></trkpt><trkpt lat="42.207185357240654" lon="13.736933827380215"><ele>1040.3333333333335</ele><time>2026-04-27T09:13:23.999Z</time></trkpt><trkpt lat="42.207090455313875" lon="13.736921515849252"><ele>1040.5</ele><time>2026-04-27T09:13:25.999Z</time></trkpt><trkpt lat="42.20702356336756" lon="13.73679932110638"><ele>1040.6666666666667</ele><time>2026-04-27T09:13:27.999Z</time></trkpt><trkpt lat="42.20699681843065" lon="13.736707673479003"><ele>1040.8333333333333</ele><time>2026-04-27T09:13:28.999Z</time></trkpt><trkpt lat="42.206967595400485" lon="13.736602664559014"><ele>1041.0</ele><time>2026-04-27T09:13:29.999Z</time></trkpt><trkpt lat="42.206921970920554" lon="13.736466695191089"><ele>1041.0</ele><time>2026-04-27T09:13:30.999Z</time></trkpt><trkpt lat="42.206879671064705" lon="13.736314035035663"><ele>1041.0</ele><time>2026-04-27T09:13:31.999Z</time></trkpt><trkpt lat="42.20684765013693" lon="13.736153780634313"><ele>1041.0</ele><time>2026-04-27T09:13:32.999Z</time></trkpt><trkpt lat="42.20682572758085" lon="13.735993013103208"><ele>1041.0</ele><time>2026-04-27T09:13:33.999Z</time></trkpt><trkpt lat="42.206811211553365" lon="13.735866252259227"><ele>1043.0</ele><time>2026-04-27T09:13:34.999Z</time></trkpt><trkpt lat="42.206817652300266" lon="13.735724785508953"><ele>1045.0</ele><time>2026-04-27T09:13:35.999Z</time></trkpt><trkpt lat="42.20679713953852" lon="13.735586880300673"><ele>1047.0</ele><time>2026-04-27T09:13:36.999Z</time></trkpt><trkpt lat="42.206785601941064" lon="13.735473087342093"><ele>1049.0</ele><time>2026-04-27T09:13:37.999Z</time></trkpt><trkpt lat="42.20676012498864" lon="13.73538573826373"><ele>1051.0</ele><time>2026-04-27T09:13:38.999Z</time></trkpt><trkpt lat="42.206711811998225" lon="13.73530650553215"><ele>1053.0</ele><time>2026-04-27T09:13:39.999Z</time></trkpt><trkpt lat="42.20665428239904" lon="13.73520372931326"><ele>1055.4</ele><time>2026-04-27T09:13:40.999Z</time></trkpt><trkpt lat="42.20662753638801" lon="13.73507955404289"><ele>1057.8</ele><time>2026-04-27T09:13:41.999Z</time></trkpt><trkpt lat="42.20659413972762" lon="13.73493708869966"><ele>1060.2</ele><time>2026-04-27T09:13:42.999Z</time></trkpt><trkpt lat="42.2065671447465" lon="13.734801115196907"><ele>1062.6</ele><time>2026-04-27T09:13:43.999Z</time></trkpt><trkpt lat="42.20656225226794" lon="13.734648974623804"><ele>1065.0</ele><time>2026-04-27T09:13:44.999Z</time></trkpt><trkpt lat="42.206570393295266" lon="13.734491565849627"><ele>1066.75</ele><time>2026-04-27T09:13:45.999Z</time></trkpt><trkpt lat="42.206582823552644" lon="13.734343281367037"><ele>1068.5</ele><time>2026-04-27T09:13:46.999Z</time></trkpt><trkpt lat="42.206590213340874" lon="13.7341785371211"><ele>1070.25</ele><time>2026-04-27T09:13:48Z</time></trkpt><trkpt lat="42.20660921444386" lon="13.734030714621483"><ele>1072.0</ele><time>2026-04-27T09:13:49Z</time></trkpt><trkpt lat="42.20664428257934" lon="13.733875044466739"><ele>1072.0</ele><time>2026-04-27T09:13:50Z</time></trkpt><trkpt lat="42.20666582084277" lon="13.73373006541616"><ele>1072.0</ele><time>2026-04-27T09:13:51Z</time></trkpt><trkpt lat="42.206661880286354" lon="13.733589617705313"><ele>1072.0</ele><time>2026-04-27T09:13:52Z</time></trkpt><trkpt lat="42.206629887333456" lon="13.73344250909286"><ele>1072.0</ele><time>2026-04-27T09:13:53Z</time></trkpt><trkpt lat="42.20659031462665" lon="13.733306048855052"><ele>1072.0</ele><time>2026-04-27T09:13:54Z</time></trkpt><trkpt lat="42.20654347551693" lon="13.733166297649566"><ele>1075.2</ele><time>2026-04-27T09:13:55Z</time></trkpt><trkpt lat="42.20649101833114" lon="13.733030595485735"><ele>1078.4</ele><time>2026-04-27T09:13:56Z</time></trkpt><trkpt lat="42.206447702086415" lon="13.732891976083817"><ele>1081.6</ele><time>2026-04-27T09:13:57Z</time></trkpt><trkpt lat="42.20637869443008" lon="13.732781271363924"><ele>1084.8</ele><time>2026-04-27T09:13:58Z</time></trkpt><trkpt lat="42.20633204474533" lon="13.732666039504322"><ele>1088.0</ele><time>2026-04-27T09:13:59Z</time></trkpt><trkpt lat="42.206244272520806" lon="13.732590213395667"><ele>1089.4</ele><time>2026-04-27T09:14:00Z</time></trkpt><trkpt lat="42.206182815134916" lon="13.732504642733014"><ele>1090.8</ele><time>2026-04-27T09:14:01Z</time></trkpt><trkpt lat="42.20615731874346" lon="13.732423006236486"><ele>1092.2</ele><time>2026-04-27T09:14:02Z</time></trkpt><trkpt lat="42.20614071823989" lon="13.732305423923215"><ele>1093.6</ele><time>2026-04-27T09:14:03Z</time></trkpt><trkpt lat="42.20612414276412" lon="13.732153951735718"><ele>1095.0</ele><time>2026-04-27T09:14:04Z</time></trkpt><trkpt lat="42.20610244228972" lon="13.73199542727387"><ele>1098.25</ele><time>2026-04-27T09:14:05Z</time></trkpt><trkpt lat="42.20609224648176" lon="13.731828435862651"><ele>1101.5</ele><time>2026-04-27T09:14:06Z</time></trkpt><trkpt lat="42.20607727268691" lon="13.731669699658026"><ele>1104.75</ele><time>2026-04-27T09:14:07Z</time></trkpt><trkpt lat="42.2060590705836" lon="13.731503412131936"><ele>1108.0</ele><time>2026-04-27T09:14:08Z</time></trkpt><trkpt lat="42.20602385003096" lon="13.731337082312653"><ele>1108.0</ele><time>2026-04-27T09:14:09Z</time></trkpt><trkpt lat="42.205978283681766" lon="13.731211702232478"><ele>1108.0</ele><time>2026-04-27T09:14:10Z</time></trkpt><trkpt lat="42.20592053362428" lon="13.731083679321623"><ele>1108.0</ele><time>2026-04-27T09:14:11Z</time></trkpt><trkpt lat="42.205875006111114" lon="13.730951282212821"><ele>1108.0</ele><time>2026-04-27T09:14:12Z</time></trkpt><trkpt lat="42.205832481819236" lon="13.730830891758707"><ele>1108.0</ele><time>2026-04-27T09:14:13Z</time></trkpt><trkpt lat="42.20579766260894" lon="13.730728683847266"><ele>1110.2</ele><time>2026-04-27T09:14:14Z</time></trkpt><trkpt lat="42.2057713537266" lon="13.730634784485561"><ele>1112.4</ele><time>2026-04-27T09:14:15Z</time></trkpt><trkpt lat="42.20573811746582" lon="13.730517812390856"><ele>1114.6000000000001</ele><time>2026-04-27T09:14:16Z</time></trkpt><trkpt lat="42.20567700560406" lon="13.730398173009752"><ele>1116.8</ele><time>2026-04-27T09:14:17Z</time></trkpt><trkpt lat="42.20561002540926" lon="13.730303430766417"><ele>1119.0</ele><time>2026-04-27T09:14:18Z</time></trkpt><trkpt lat="42.205579591550176" lon="13.730187019709726"><ele>1121.6000000000001</ele><time>2026-04-27T09:14:19Z</time></trkpt><trkpt lat="42.20555491702331" lon="13.730046882147894"><ele>1124.2</ele><time>2026-04-27T09:14:20Z</time></trkpt><trkpt lat="42.20549768975634" lon="13.729936059728157"><ele>1126.8000000000002</ele><time>2026-04-27T09:14:21Z</time></trkpt><trkpt lat="42.205436874616105" lon="13.729841991534382"><ele>1129.4</ele><time>2026-04-27T09:14:22Z</time></trkpt><trkpt lat="42.20534481354037" lon="13.729734658451733"><ele>1132.0</ele><time>2026-04-27T09:14:23Z</time></trkpt><trkpt lat="42.20527201836587" lon="13.72959473665841"><ele>1132.0</ele><time>2026-04-27T09:14:24Z</time></trkpt><trkpt lat="42.20518850852936" lon="13.729443652763706"><ele>1132.0</ele><time>2026-04-27T09:14:25Z</time></trkpt><trkpt lat="42.205106050684506" lon="13.729293800699773"><ele>1132.0</ele><time>2026-04-27T09:14:26Z</time></trkpt><trkpt lat="42.20503059344316" lon="13.729174876556211"><ele>1132.0</ele><time>2026-04-27T09:14:27Z</time></trkpt><trkpt lat="42.20496287567788" lon="13.729081191654554"><ele>1131.4</ele><time>2026-04-27T09:14:28Z</time></trkpt><trkpt lat="42.20490051896962" lon="13.729031486219135"><ele>1130.8000000000002</ele><time>2026-04-27T09:14:29Z</time></trkpt><trkpt lat="42.204820295601635" lon="13.728950195914516"><ele>1130.2</ele><time>2026-04-27T09:14:31Z</time></trkpt><trkpt lat="42.20471400361783" lon="13.728910226094667"><ele>1129.6000000000001</ele><time>2026-04-27T09:14:33Z</time></trkpt><trkpt lat="42.20464186665229" lon="13.728883200080197"><ele>1129.0</ele><time>2026-04-27T09:14:34Z</time></trkpt><trkpt lat="42.204543007050574" lon="13.728841050591862"><ele>1128.6000000000001</ele><time>2026-04-27T09:14:35Z</time></trkpt><trkpt lat="42.20443291895262" lon="13.728794381152602"><ele>1128.2</ele><time>2026-04-27T09:14:36Z</time></trkpt><trkpt lat="42.20432958082914" lon="13.728738310944548"><ele>1127.8000000000002</ele><time>2026-04-27T09:14:37Z</time></trkpt><trkpt lat="42.20426851840242" lon="13.728692162544336"><ele>1127.4</ele><time>2026-04-27T09:14:38Z</time></trkpt><trkpt lat="42.20415443342399" lon="13.728595672473128"><ele>1127.0</ele><time>2026-04-27T09:14:40Z</time></trkpt><trkpt lat="42.20407649412159" lon="13.728520133928537"><ele>1127.8</ele><time>2026-04-27T09:14:41Z</time></trkpt><trkpt lat="42.20398391360443" lon="13.72843608513702"><ele>1128.6</ele><time>2026-04-27T09:14:42Z</time></trkpt><trkpt lat="42.20387613300915" lon="13.728374094923753"><ele>1129.3999999999999</ele><time>2026-04-27T09:14:43Z</time></trkpt><trkpt lat="42.20376272043734" lon="13.728352451465192"><ele>1130.2</ele><time>2026-04-27T09:14:45Z</time></trkpt><trkpt lat="42.20367958167969" lon="13.728396849445952"><ele>1131.0</ele><time>2026-04-27T09:14:46Z</time></trkpt><trkpt lat="42.203569860277376" lon="13.728444886708752"><ele>1131.0</ele><time>2026-04-27T09:14:47Z</time></trkpt><trkpt lat="42.20344008871951" lon="13.728484342537527"><ele>1131.0</ele><time>2026-04-27T09:14:48Z</time></trkpt><trkpt lat="42.203333268553756" lon="13.728512295333083"><ele>1131.0</ele><time>2026-04-27T09:14:49Z</time></trkpt><trkpt lat="42.20324097101685" lon="13.728525315016068"><ele>1131.0</ele><time>2026-04-27T09:14:50Z</time></trkpt><trkpt lat="42.2031557723965" lon="13.728532688490056"><ele>1131.0</ele><time>2026-04-27T09:14:51Z</time></trkpt><trkpt lat="42.20305736985398" lon="13.728529066343075"><ele>1132.25</ele><time>2026-04-27T09:14:52Z</time></trkpt><trkpt lat="42.20292732489127" lon="13.728552766945802"><ele>1133.5</ele><time>2026-04-27T09:14:53Z</time></trkpt><trkpt lat="42.202781017978054" lon="13.728560297021083"><ele>1134.75</ele><time>2026-04-27T09:14:54Z</time></trkpt><trkpt lat="42.20262942970621" lon="13.728580470130247"><ele>1136.0</ele><time>2026-04-27T09:14:55Z</time></trkpt><trkpt lat="42.20247468510963" lon="13.728596220218932"><ele>1136.25</ele><time>2026-04-27T09:14:56Z</time></trkpt><trkpt lat="42.202342564218384" lon="13.728593393815443"><ele>1136.5</ele><time>2026-04-27T09:14:57Z</time></trkpt><trkpt lat="42.202211961275395" lon="13.728558729721524"><ele>1136.75</ele><time>2026-04-27T09:14:58Z</time></trkpt><trkpt lat="42.20207909299978" lon="13.72850088362467"><ele>1137.0</ele><time>2026-04-27T09:14:59Z</time></trkpt><trkpt lat="42.20195667808758" lon="13.728480211532448"><ele>1137.0</ele><time>2026-04-27T09:15:00Z</time></trkpt><trkpt lat="42.20185266510388" lon="13.728463207758152"><ele>1137.0</ele><time>2026-04-27T09:15:01Z</time></trkpt><trkpt lat="42.20176237236678" lon="13.728470291458306"><ele>1137.0</ele><time>2026-04-27T09:15:02Z</time></trkpt><trkpt lat="42.201673421679686" lon="13.728474149820416"><ele>1137.0</ele><time>2026-04-27T09:15:03Z</time></trkpt><trkpt lat="42.20158082039571" lon="13.728490506140423"><ele>1137.0</ele><time>2026-04-27T09:15:04Z</time></trkpt><trkpt lat="42.201478970229026" lon="13.728508496136019"><ele>1137.8</ele><time>2026-04-27T09:15:05Z</time></trkpt><trkpt lat="42.201371645187926" lon="13.728527453158728"><ele>1138.6</ele><time>2026-04-27T09:15:06Z</time></trkpt><trkpt lat="42.201265361918814" lon="13.728546613120736"><ele>1139.3999999999999</ele><time>2026-04-27T09:15:07Z</time></trkpt><trkpt lat="42.20116686593143" lon="13.728561559745058"><ele>1140.2</ele><time>2026-04-27T09:15:08Z</time></trkpt><trkpt lat="42.201073760997666" lon="13.728570801036748"><ele>1141.0</ele><time>2026-04-27T09:15:09Z</time></trkpt><trkpt lat="42.20098505983936" lon="13.728562344228893"><ele>1141.0</ele><time>2026-04-27T09:15:10Z</time></trkpt><trkpt lat="42.200877483980086" lon="13.728560768515962"><ele>1141.0</ele><time>2026-04-27T09:15:11Z</time></trkpt><trkpt lat="42.20080994561212" lon="13.728564898835018"><ele>1141.0</ele><time>2026-04-27T09:15:12Z</time></trkpt><trkpt lat="42.20074074828046" lon="13.728563797583043"><ele>1141.0</ele><time>2026-04-27T09:15:13Z</time></trkpt><trkpt lat="42.200660824864386" lon="13.728535035023441"><ele>1141.0</ele><time>2026-04-27T09:15:14Z</time></trkpt><trkpt lat="42.200609926150975" lon="13.728452015596988"><ele>1141.0</ele><time>2026-04-27T09:15:15Z</time></trkpt><trkpt lat="42.20053609438107" lon="13.72841253430708"><ele>1137.2</ele><time>2026-04-27T09:15:16Z</time></trkpt><trkpt lat="42.20045847725103" lon="13.728360418531755"><ele>1133.3999999999999</ele><time>2026-04-27T09:15:17Z</time></trkpt><trkpt lat="42.200395650159805" lon="13.728263815939362"><ele>1129.6</ele><time>2026-04-27T09:15:18.001Z</time></trkpt><trkpt lat="42.20033824777445" lon="13.728154700153736"><ele>1125.8</ele><time>2026-04-27T09:15:19.001Z</time></trkpt><trkpt lat="42.2002893606388" lon="13.728022259906027"><ele>1122.0</ele><time>2026-04-27T09:15:20.001Z</time></trkpt><trkpt lat="42.20021637967811" lon="13.727905485550606"><ele>1122.0</ele><time>2026-04-27T09:15:21.001Z</time></trkpt><trkpt lat="42.20015619054573" lon="13.727810673797396"><ele>1122.0</ele><time>2026-04-27T09:15:22.001Z</time></trkpt><trkpt lat="42.200079569321964" lon="13.72772546099366"><ele>1122.0</ele><time>2026-04-27T09:15:23Z</time></trkpt><trkpt lat="42.200001016063744" lon="13.727658028805138"><ele>1122.0</ele><time>2026-04-27T09:15:24Z</time></trkpt><trkpt lat="42.19992176235241" lon="13.727595801108674"><ele>1122.0</ele><time>2026-04-27T09:15:25Z</time></trkpt><trkpt lat="42.19984049449153" lon="13.727540540587292"><ele>1119.6666666666667</ele><time>2026-04-27T09:15:26Z</time></trkpt><trkpt lat="42.199769576254155" lon="13.72748765313442"><ele>1117.3333333333333</ele><time>2026-04-27T09:15:27Z</time></trkpt><trkpt lat="42.19968801902754" lon="13.727424200015001"><ele>1115.0</ele><time>2026-04-27T09:15:28Z</time></trkpt><trkpt lat="42.19960998611978" lon="13.727368869276251"><ele>1112.6666666666665</ele><time>2026-04-27T09:15:29Z</time></trkpt><trkpt lat="42.19956215838517" lon="13.72728028930235"><ele>1110.3333333333333</ele><time>2026-04-27T09:15:30Z</time></trkpt><trkpt lat="42.19954282925624" lon="13.72718885362802"><ele>1108.0</ele><time>2026-04-27T09:15:31Z</time></trkpt><trkpt lat="42.19948267339214" lon="13.727104898703288"><ele>1108.0</ele><time>2026-04-27T09:15:32Z</time></trkpt><trkpt lat="42.19938969073451" lon="13.727068373400247"><ele>1108.0</ele><time>2026-04-27T09:15:33Z</time></trkpt><trkpt lat="42.19930193403804" lon="13.727026806878516"><ele>1108.0</ele><time>2026-04-27T09:15:34Z</time></trkpt><trkpt lat="42.199201054040955" lon="13.72700148182259"><ele>1108.0</ele><time>2026-04-27T09:15:35Z</time></trkpt><trkpt lat="42.19909341456754" lon="13.726982760137115"><ele>1108.0</ele><time>2026-04-27T09:15:36Z</time></trkpt><trkpt lat="42.199000856106906" lon="13.726998042268423"><ele>1107.6</ele><time>2026-04-27T09:15:37Z</time></trkpt><trkpt lat="42.1989191692525" lon="13.727021321685346"><ele>1107.1999999999998</ele><time>2026-04-27T09:15:38Z</time></trkpt><trkpt lat="42.198803998194784" lon="13.726999503647694"><ele>1106.8</ele><time>2026-04-27T09:15:40Z</time></trkpt><trkpt lat="42.198729115362" lon="13.726961536037358"><ele>1106.3999999999999</ele><time>2026-04-27T09:15:41Z</time></trkpt><trkpt lat="42.19863030229581" lon="13.72689402708299"><ele>1106.0</ele><time>2026-04-27T09:15:42Z</time></trkpt><trkpt lat="42.198531670485" lon="13.726832226431256"><ele>1103.8</ele><time>2026-04-27T09:15:43Z</time></trkpt><trkpt lat="42.19844011138435" lon="13.726757669413923"><ele>1101.6</ele><time>2026-04-27T09:15:44Z</time></trkpt><trkpt lat="42.19834456152907" lon="13.726720613637715"><ele>1099.4</ele><time>2026-04-27T09:15:45Z</time></trkpt><trkpt lat="42.19826810326922" lon="13.726672317358462"><ele>1097.2</ele><time>2026-04-27T09:15:46Z</time></trkpt><trkpt lat="42.19819152932718" lon="13.7266193511478"><ele>1095.0</ele><time>2026-04-27T09:15:47Z</time></trkpt><trkpt lat="42.19811238795274" lon="13.726580117423149"><ele>1093.8</ele><time>2026-04-27T09:15:48Z</time></trkpt><trkpt lat="42.198012428215264" lon="13.726514551761328"><ele>1092.6</ele><time>2026-04-27T09:15:50Z</time></trkpt><trkpt lat="42.19792999736056" lon="13.726371702184606"><ele>1091.4</ele><time>2026-04-27T09:15:52Z</time></trkpt><trkpt lat="42.1978622255055" lon="13.726341354741761"><ele>1090.2</ele><time>2026-04-27T09:15:53Z</time></trkpt><trkpt lat="42.19779611001256" lon="13.726365873314347"><ele>1089.0</ele><time>2026-04-27T09:15:54Z</time></trkpt><trkpt lat="42.1977261821027" lon="13.726419424186444"><ele>1089.0</ele><time>2026-04-27T09:15:55Z</time></trkpt><trkpt lat="42.197658357076925" lon="13.72648357896215"><ele>1089.0</ele><time>2026-04-27T09:15:56Z</time></trkpt><trkpt lat="42.19763011454478" lon="13.72660772128554"><ele>1089.0</ele><time>2026-04-27T09:15:57Z</time></trkpt><trkpt lat="42.197600403431274" lon="13.72672530867262"><ele>1089.0</ele><time>2026-04-27T09:15:58Z</time></trkpt><trkpt lat="42.19756483190976" lon="13.726829908226657"><ele>1089.0</ele><time>2026-04-27T09:15:59Z</time></trkpt><trkpt lat="42.19750423511518" lon="13.726882842149637"><ele>1089.0</ele><time>2026-04-27T09:16:00Z</time></trkpt><trkpt lat="42.197379592742614" lon="13.726955379712317"><ele>1087.5</ele><time>2026-04-27T09:16:02Z</time></trkpt><trkpt lat="42.19728793802627" lon="13.726996082441676"><ele>1086.0</ele><time>2026-04-27T09:16:03Z</time></trkpt><trkpt lat="42.197181837167015" lon="13.727030317128301"><ele>1084.5</ele><time>2026-04-27T09:16:04Z</time></trkpt><trkpt lat="42.19706438034145" lon="13.727063615070339"><ele>1083.0</ele><time>2026-04-27T09:16:05Z</time></trkpt><trkpt lat="42.196925331525904" lon="13.727108310424304"><ele>1083.0</ele><time>2026-04-27T09:16:06Z</time></trkpt><trkpt lat="42.196812286045585" lon="13.727150179697153"><ele>1083.0</ele><time>2026-04-27T09:16:07Z</time></trkpt><trkpt lat="42.19671973164678" lon="13.727185720902652"><ele>1083.0</ele><time>2026-04-27T09:16:08Z</time></trkpt><trkpt lat="42.19662623848792" lon="13.727223821340948"><ele>1083.0</ele><time>2026-04-27T09:16:09Z</time></trkpt><trkpt lat="42.19654613750004" lon="13.72725897683113"><ele>1083.0</ele><time>2026-04-27T09:16:10Z</time></trkpt><trkpt lat="42.196475697093376" lon="13.727294423485523"><ele>1082.8333333333333</ele><time>2026-04-27T09:16:11Z</time></trkpt><trkpt lat="42.19640995068328" lon="13.727302813654672"><ele>1082.6666666666667</ele><time>2026-04-27T09:16:15Z</time></trkpt><trkpt lat="42.19639921390807" lon="13.727212767270629"><ele>1082.5</ele><time>2026-04-27T09:16:16Z</time></trkpt><trkpt lat="42.19640984036183" lon="13.72710618745971"><ele>1082.3333333333335</ele><time>2026-04-27T09:16:17Z</time></trkpt><trkpt lat="42.19642103520638" lon="13.726971245249189"><ele>1082.1666666666667</ele><time>2026-04-27T09:16:18Z</time></trkpt><trkpt lat="42.19643646821643" lon="13.726857543345725"><ele>1082.0</ele><time>2026-04-27T09:16:19Z</time></trkpt><trkpt lat="42.1964688172988" lon="13.726701299137025"><ele>1083.5</ele><time>2026-04-27T09:16:20Z</time></trkpt><trkpt lat="42.196493183951084" lon="13.726564788297386"><ele>1085.0</ele><time>2026-04-27T09:16:21Z</time></trkpt><trkpt lat="42.196524261337245" lon="13.726395456622004"><ele>1086.5</ele><time>2026-04-27T09:16:22Z</time></trkpt><trkpt lat="42.19655715088243" lon="13.726216515714288"><ele>1088.0</ele><time>2026-04-27T09:16:23Z</time></trkpt><trkpt lat="42.19658945998175" lon="13.726057688274887"><ele>1089.0</ele><time>2026-04-27T09:16:24Z</time></trkpt><trkpt lat="42.1966352015419" lon="13.725930552732484"><ele>1090.0</ele><time>2026-04-27T09:16:25Z</time></trkpt><trkpt lat="42.19670174777715" lon="13.725828368053106"><ele>1091.0</ele><time>2026-04-27T09:16:26Z</time></trkpt><trkpt lat="42.19677123182691" lon="13.725774990338287"><ele>1092.0</ele><time>2026-04-27T09:16:27Z</time></trkpt><trkpt lat="42.19684658557648" lon="13.725745756502825"><ele>1093.0</ele><time>2026-04-27T09:16:28Z</time></trkpt><trkpt lat="42.19691709661276" lon="13.725639863747803"><ele>1093.0</ele><time>2026-04-27T09:16:30Z</time></trkpt><trkpt lat="42.19692624536051" lon="13.725544985338882"><ele>1093.0</ele><time>2026-04-27T09:16:31Z</time></trkpt><trkpt lat="42.1969486180723" lon="13.725410801182194"><ele>1093.0</ele><time>2026-04-27T09:16:32Z</time></trkpt><trkpt lat="42.19696615834604" lon="13.72526953357234"><ele>1093.0</ele><time>2026-04-27T09:16:33Z</time></trkpt><trkpt lat="42.19699366217106" lon="13.725109449529764"><ele>1093.0</ele><time>2026-04-27T09:16:34Z</time></trkpt><trkpt lat="42.19703256176184" lon="13.724934157225132"><ele>1093.3333333333333</ele><time>2026-04-27T09:16:35Z</time></trkpt><trkpt lat="42.19707666470909" lon="13.724739453581453"><ele>1093.6666666666667</ele><time>2026-04-27T09:16:36Z</time></trkpt><trkpt lat="42.197107940788996" lon="13.72452605648298"><ele>1094.0</ele><time>2026-04-27T09:16:37Z</time></trkpt><trkpt lat="42.19710882078324" lon="13.72430102363655"><ele>1095.5</ele><time>2026-04-27T09:16:38Z</time></trkpt><trkpt lat="42.19709351110869" lon="13.724103333242157"><ele>1097.0</ele><time>2026-04-27T09:16:39Z</time></trkpt><trkpt lat="42.19707233572154" lon="13.723930213973201"><ele>1098.5</ele><time>2026-04-27T09:16:40Z</time></trkpt><trkpt lat="42.19704777688057" lon="13.723765442710828"><ele>1100.0</ele><time>2026-04-27T09:16:41Z</time></trkpt><trkpt lat="42.19701371583523" lon="13.723635249841244"><ele>1100.0</ele><time>2026-04-27T09:16:42Z</time></trkpt><trkpt lat="42.19700426697945" lon="13.723524427531853"><ele>1100.0</ele><time>2026-04-27T09:16:43Z</time></trkpt><trkpt lat="42.19701905463967" lon="13.72335353364501"><ele>1100.0</ele><time>2026-04-27T09:16:44Z</time></trkpt><trkpt lat="42.19706750415182" lon="13.723148375812746"><ele>1100.0</ele><time>2026-04-27T09:16:45Z</time></trkpt><trkpt lat="42.19711610937872" lon="13.722948101999457"><ele>1100.0</ele><time>2026-04-27T09:16:46Z</time></trkpt><trkpt lat="42.197165043009846" lon="13.722771759957148"><ele>1100.0</ele><time>2026-04-27T09:16:47Z</time></trkpt><trkpt lat="42.1972315233802" lon="13.722601040219214"><ele>1100.0</ele><time>2026-04-27T09:16:48Z</time></trkpt><trkpt lat="42.19731844294161" lon="13.722426233968392"><ele>1100.0</ele><time>2026-04-27T09:16:49Z</time></trkpt><trkpt lat="42.19740403887527" lon="13.72224305815114"><ele>1098.25</ele><time>2026-04-27T09:16:50Z</time></trkpt><trkpt lat="42.197473218047456" lon="13.722079517170965"><ele>1096.5</ele><time>2026-04-27T09:16:51Z</time></trkpt><trkpt lat="42.197534609494134" lon="13.721918714412812"><ele>1094.75</ele><time>2026-04-27T09:16:52Z</time></trkpt><trkpt lat="42.197589547652974" lon="13.721780853720775"><ele>1093.0</ele><time>2026-04-27T09:16:53Z</time></trkpt><trkpt lat="42.19766063186064" lon="13.721689522818895"><ele>1092.75</ele><time>2026-04-27T09:16:54Z</time></trkpt><trkpt lat="42.19775931148572" lon="13.72161693539747"><ele>1092.5</ele><time>2026-04-27T09:16:55Z</time></trkpt><trkpt lat="42.197891489615984" lon="13.7215482572408"><ele>1092.25</ele><time>2026-04-27T09:16:56.001Z</time></trkpt><trkpt lat="42.198028398698895" lon="13.721434579098112"><ele>1092.0</ele><time>2026-04-27T09:16:57.001Z</time></trkpt><trkpt lat="42.19815349123387" lon="13.721283672217728"><ele>1090.6666666666667</ele><time>2026-04-27T09:16:58.001Z</time></trkpt><trkpt lat="42.19827822484569" lon="13.721131260864588"><ele>1089.3333333333335</ele><time>2026-04-27T09:16:59.001Z</time></trkpt><trkpt lat="42.19839183546951" lon="13.720988821263601"><ele>1088.0</ele><time>2026-04-27T09:17:00.001Z</time></trkpt><trkpt lat="42.198516659852196" lon="13.720858461605282"><ele>1085.0</ele><time>2026-04-27T09:17:01.001Z</time></trkpt><trkpt lat="42.19864956320466" lon="13.720730515724012"><ele>1082.0</ele><time>2026-04-27T09:17:02.001Z</time></trkpt><trkpt lat="42.1987757967622" lon="13.720604616301898"><ele>1079.0</ele><time>2026-04-27T09:17:03.001Z</time></trkpt><trkpt lat="42.19891326432189" lon="13.720492713211513"><ele>1076.25</ele><time>2026-04-27T09:17:04.001Z</time></trkpt><trkpt lat="42.19904579321339" lon="13.720391921486737"><ele>1073.5</ele><time>2026-04-27T09:17:05.001Z</time></trkpt><trkpt lat="42.19915759506346" lon="13.72029866971652"><ele>1070.75</ele><time>2026-04-27T09:17:06.001Z</time></trkpt><trkpt lat="42.19925288705775" lon="13.720220840261556"><ele>1068.0</ele><time>2026-04-27T09:17:07.001Z</time></trkpt><trkpt lat="42.199320084588216" lon="13.720161939673462"><ele>1067.2</ele><time>2026-04-27T09:17:08.001Z</time></trkpt><trkpt lat="42.19938308537819" lon="13.720103485669398"><ele>1066.4</ele><time>2026-04-27T09:17:09.001Z</time></trkpt><trkpt lat="42.199432273572405" lon="13.71998829510781"><ele>1065.6000000000001</ele><time>2026-04-27T09:17:11.001Z</time></trkpt><trkpt lat="42.199445100633696" lon="13.719889614854123"><ele>1064.8</ele><time>2026-04-27T09:17:12.001Z</time></trkpt><trkpt lat="42.19947506098107" lon="13.719716365796115"><ele>1064.0</ele><time>2026-04-27T09:17:13.001Z</time></trkpt><trkpt lat="42.199531292890725" lon="13.719561203065954"><ele>1064.0</ele><time>2026-04-27T09:17:14.001Z</time></trkpt><trkpt lat="42.19960404544473" lon="13.719419482415825"><ele>1064.0</ele><time>2026-04-27T09:17:15.001Z</time></trkpt><trkpt lat="42.199650344201686" lon="13.71928159287995"><ele>1064.0</ele><time>2026-04-27T09:17:16.001Z</time></trkpt><trkpt lat="42.199693960853445" lon="13.719111028270923"><ele>1064.0</ele><time>2026-04-27T09:17:17.001Z</time></trkpt><trkpt lat="42.19974846473247" lon="13.718957506269172"><ele>1065.25</ele><time>2026-04-27T09:17:18.001Z</time></trkpt><trkpt lat="42.19981400013865" lon="13.718838036231068"><ele>1066.5</ele><time>2026-04-27T09:17:19.001Z</time></trkpt><trkpt lat="42.19990588487968" lon="13.718723221571395"><ele>1067.75</ele><time>2026-04-27T09:17:20.001Z</time></trkpt><trkpt lat="42.199994246863646" lon="13.718595939001982"><ele>1069.0</ele><time>2026-04-27T09:17:21.001Z</time></trkpt><trkpt lat="42.20007019851005" lon="13.718475593517901"><ele>1067.0</ele><time>2026-04-27T09:17:22.001Z</time></trkpt><trkpt lat="42.200127335552004" lon="13.718330348040448"><ele>1065.0</ele><time>2026-04-27T09:17:23.001Z</time></trkpt><trkpt lat="42.200173762446575" lon="13.718200697110298"><ele>1063.0</ele><time>2026-04-27T09:17:24.001Z</time></trkpt><trkpt lat="42.200219170534616" lon="13.71813351995919"><ele>1061.0</ele><time>2026-04-27T09:17:25.001Z</time></trkpt><trkpt lat="42.200273995228905" lon="13.718002195202377"><ele>1059.0</ele><time>2026-04-27T09:17:27.001Z</time></trkpt><trkpt lat="42.20027439988823" lon="13.717914334016559"><ele>1059.0</ele><time>2026-04-27T09:17:28.001Z</time></trkpt><trkpt lat="42.200283543230356" lon="13.717820860696872"><ele>1059.0</ele><time>2026-04-27T09:17:29Z</time></trkpt><trkpt lat="42.200305381223515" lon="13.717733793037892"><ele>1059.0</ele><time>2026-04-27T09:17:30Z</time></trkpt><trkpt lat="42.20028266861813" lon="13.717550720792943"><ele>1059.0</ele><time>2026-04-27T09:17:32Z</time></trkpt><trkpt lat="42.20023749052725" lon="13.717443664482193"><ele>1059.0</ele><time>2026-04-27T09:17:33Z</time></trkpt><trkpt lat="42.20017861357437" lon="13.717330556513712"><ele>1059.0</ele><time>2026-04-27T09:17:34Z</time></trkpt><trkpt lat="42.200129362982466" lon="13.717233166177413"><ele>1059.0</ele><time>2026-04-27T09:17:35Z</time></trkpt><trkpt lat="42.20007890251598" lon="13.717095190725338"><ele>1059.0</ele><time>2026-04-27T09:17:36Z</time></trkpt><trkpt lat="42.20005029042919" lon="13.71694475346439"><ele>1059.0</ele><time>2026-04-27T09:17:37Z</time></trkpt><trkpt lat="42.200016074436455" lon="13.716760653898646"><ele>1059.0</ele><time>2026-04-27T09:17:38Z</time></trkpt><trkpt lat="42.19996889049914" lon="13.716579717693957"><ele>1059.0</ele><time>2026-04-27T09:17:39Z</time></trkpt><trkpt lat="42.19993593524438" lon="13.716431915308899"><ele>1059.0</ele><time>2026-04-27T09:17:40Z</time></trkpt><trkpt lat="42.19993304217224" lon="13.7163227051888"><ele>1059.0</ele><time>2026-04-27T09:17:41Z</time></trkpt><trkpt lat="42.19996161332552" lon="13.716208014782916"><ele>1059.0</ele><time>2026-04-27T09:17:42Z</time></trkpt><trkpt lat="42.20001156894981" lon="13.716080592993679"><ele>1059.25</ele><time>2026-04-27T09:17:43Z</time></trkpt><trkpt lat="42.20009148611631" lon="13.71591376359665"><ele>1059.5</ele><time>2026-04-27T09:17:44Z</time></trkpt><trkpt lat="42.2001657163192" lon="13.71575873662599"><ele>1059.75</ele><time>2026-04-27T09:17:45Z</time></trkpt><trkpt lat="42.20021513386201" lon="13.715620529868401"><ele>1060.0</ele><time>2026-04-27T09:17:46Z</time></trkpt><trkpt lat="42.200247479317596" lon="13.715476673297626"><ele>1060.0</ele><time>2026-04-27T09:17:47Z</time></trkpt><trkpt lat="42.200273398595876" lon="13.715310263254134"><ele>1060.0</ele><time>2026-04-27T09:17:48Z</time></trkpt><trkpt lat="42.2002989965527" lon="13.715126152206429"><ele>1060.0</ele><time>2026-04-27T09:17:49Z</time></trkpt><trkpt lat="42.200314158325135" lon="13.714997906491691"><ele>1060.0</ele><time>2026-04-27T09:17:50Z</time></trkpt><trkpt lat="42.200328336523675" lon="13.714888032335757"><ele>1060.0</ele><time>2026-04-27T09:17:51Z</time></trkpt><trkpt lat="42.20035664756456" lon="13.714803612195201"><ele>1060.0</ele><time>2026-04-27T09:17:52Z</time></trkpt><trkpt lat="42.2004002092624" lon="13.71472471783382"><ele>1060.0</ele><time>2026-04-27T09:17:53Z</time></trkpt><trkpt lat="42.20043946659785" lon="13.714634978175786"><ele>1060.0</ele><time>2026-04-27T09:17:54Z</time></trkpt><trkpt lat="42.20046537405798" lon="13.714541323064557"><ele>1060.0</ele><time>2026-04-27T09:17:55Z</time></trkpt><trkpt lat="42.20047613565427" lon="13.714415426755865"><ele>1060.0</ele><time>2026-04-27T09:17:56Z</time></trkpt><trkpt lat="42.20048008163932" lon="13.714261265466636"><ele>1060.0</ele><time>2026-04-27T09:17:57Z</time></trkpt><trkpt lat="42.20048719349268" lon="13.71407189020043"><ele>1060.0</ele><time>2026-04-27T09:17:58Z</time></trkpt><trkpt lat="42.2005087515159" lon="13.713887807118516"><ele>1060.0</ele><time>2026-04-27T09:17:59Z</time></trkpt><trkpt lat="42.200533054390654" lon="13.713711087363514"><ele>1060.0</ele><time>2026-04-27T09:18:00Z</time></trkpt><trkpt lat="42.20055898452481" lon="13.713558255694984"><ele>1060.0</ele><time>2026-04-27T09:18:01Z</time></trkpt><trkpt lat="42.20058543841468" lon="13.713407700209364"><ele>1059.4</ele><time>2026-04-27T09:18:02Z</time></trkpt><trkpt lat="42.200616932877175" lon="13.713257341778126"><ele>1058.8</ele><time>2026-04-27T09:18:03Z</time></trkpt><trkpt lat="42.20064812618479" lon="13.713120700970757"><ele>1058.2</ele><time>2026-04-27T09:18:04Z</time></trkpt><trkpt lat="42.20069474385149" lon="13.712998626969068"><ele>1057.6</ele><time>2026-04-27T09:18:05Z</time></trkpt><trkpt lat="42.20074497361045" lon="13.712887888895835"><ele>1057.0</ele><time>2026-04-27T09:18:06Z</time></trkpt><trkpt lat="42.200806332101315" lon="13.71276698783898"><ele>1052.8</ele><time>2026-04-27T09:18:07Z</time></trkpt><trkpt lat="42.20086407828357" lon="13.712620934030998"><ele>1048.6</ele><time>2026-04-27T09:18:08Z</time></trkpt><trkpt lat="42.200918497933706" lon="13.712473026349636"><ele>1044.3999999999999</ele><time>2026-04-27T09:18:09Z</time></trkpt><trkpt lat="42.20096419341494" lon="13.712354786956503"><ele>1040.2</ele><time>2026-04-27T09:18:10Z</time></trkpt><trkpt lat="42.20100121075265" lon="13.712235562774497"><ele>1036.0</ele><time>2026-04-27T09:18:11Z</time></trkpt><trkpt lat="42.2010282098761" lon="13.712073400738937"><ele>1036.0</ele><time>2026-04-27T09:18:12Z</time></trkpt><trkpt lat="42.20106104415345" lon="13.711923838462312"><ele>1036.0</ele><time>2026-04-27T09:18:13Z</time></trkpt><trkpt lat="42.201093723518795" lon="13.711793901006713"><ele>1036.0</ele><time>2026-04-27T09:18:14Z</time></trkpt><trkpt lat="42.20112978172144" lon="13.711665529576463"><ele>1036.0</ele><time>2026-04-27T09:18:15Z</time></trkpt><trkpt lat="42.20115165156494" lon="13.711540155209946"><ele>1036.0</ele><time>2026-04-27T09:18:16Z</time></trkpt><trkpt lat="42.201151982037224" lon="13.71142470905594"><ele>1035.3999999999999</ele><time>2026-04-27T09:18:17Z</time></trkpt><trkpt lat="42.20113993534855" lon="13.711281734903192"><ele>1034.8</ele><time>2026-04-27T09:18:18Z</time></trkpt><trkpt lat="42.20111630791291" lon="13.711142447879803"><ele>1034.1999999999998</ele><time>2026-04-27T09:18:19Z</time></trkpt><trkpt lat="42.20108991478094" lon="13.710981481561474"><ele>1033.6</ele><time>2026-04-27T09:18:20Z</time></trkpt><trkpt lat="42.20106920117322" lon="13.710831619907006"><ele>1033.0</ele><time>2026-04-27T09:18:21Z</time></trkpt><trkpt lat="42.20105563883441" lon="13.710712543365522"><ele>1032.2</ele><time>2026-04-27T09:18:22Z</time></trkpt><trkpt lat="42.201051448128624" lon="13.710575126080355"><ele>1031.4</ele><time>2026-04-27T09:18:23Z</time></trkpt><trkpt lat="42.20107963593842" lon="13.71045519235896"><ele>1030.6000000000001</ele><time>2026-04-27T09:18:24Z</time></trkpt><trkpt lat="42.20111298158497" lon="13.710313578093011"><ele>1029.8</ele><time>2026-04-27T09:18:25Z</time></trkpt><trkpt lat="42.20113440124871" lon="13.710189126071059"><ele>1029.0</ele><time>2026-04-27T09:18:26Z</time></trkpt><trkpt lat="42.201159650404435" lon="13.710060563620242"><ele>1028.8</ele><time>2026-04-27T09:18:27Z</time></trkpt><trkpt lat="42.201181610338224" lon="13.709948925798654"><ele>1028.6000000000001</ele><time>2026-04-27T09:18:28Z</time></trkpt><trkpt lat="42.201215200031434" lon="13.7098085299742"><ele>1028.4</ele><time>2026-04-27T09:18:29Z</time></trkpt><trkpt lat="42.20124141429738" lon="13.709653265101727"><ele>1028.2</ele><time>2026-04-27T09:18:30Z</time></trkpt><trkpt lat="42.20126396279284" lon="13.709523230918634"><ele>1028.0</ele><time>2026-04-27T09:18:31Z</time></trkpt><trkpt lat="42.20129520936532" lon="13.709398418980543"><ele>1028.4</ele><time>2026-04-27T09:18:32Z</time></trkpt><trkpt lat="42.20132434735403" lon="13.709263246585241"><ele>1028.8</ele><time>2026-04-27T09:18:33Z</time></trkpt><trkpt lat="42.2013378370951" lon="13.70913830733845"><ele>1029.2</ele><time>2026-04-27T09:18:34Z</time></trkpt><trkpt lat="42.20134789928509" lon="13.709029097771285"><ele>1029.6</ele><time>2026-04-27T09:18:35Z</time></trkpt><trkpt lat="42.201367214888414" lon="13.708916197845534"><ele>1030.0</ele><time>2026-04-27T09:18:36Z</time></trkpt><trkpt lat="42.20140158291158" lon="13.708796248510223"><ele>1030.0</ele><time>2026-04-27T09:18:37Z</time></trkpt><trkpt lat="42.20144528907362" lon="13.708670369060552"><ele>1030.0</ele><time>2026-04-27T09:18:38Z</time></trkpt><trkpt lat="42.20149051364659" lon="13.708538957805201"><ele>1030.0</ele><time>2026-04-27T09:18:39Z</time></trkpt><trkpt lat="42.201518109869546" lon="13.708423137128749"><ele>1030.0</ele><time>2026-04-27T09:18:40Z</time></trkpt><trkpt lat="42.2015335682481" lon="13.708317115390962"><ele>1030.0</ele><time>2026-04-27T09:18:41Z</time></trkpt><trkpt lat="42.20155153317289" lon="13.708204989737077"><ele>1026.0</ele><time>2026-04-27T09:18:42Z</time></trkpt><trkpt lat="42.20155889740827" lon="13.70809343424865"><ele>1022.0</ele><time>2026-04-27T09:18:43Z</time></trkpt><trkpt lat="42.201569179955314" lon="13.70795427783505"><ele>1018.0</ele><time>2026-04-27T09:18:44Z</time></trkpt><trkpt lat="42.201583688574345" lon="13.707848719694532"><ele>1014.0</ele><time>2026-04-27T09:18:45Z</time></trkpt><trkpt lat="42.201597617903694" lon="13.707759939987366"><ele>1009.9999999999999</ele><time>2026-04-27T09:18:46Z</time></trkpt><trkpt lat="42.20162504651097" lon="13.707656883594069"><ele>1006.0</ele><time>2026-04-27T09:18:47Z</time></trkpt><trkpt lat="42.20165723721818" lon="13.707568065127289"><ele>1004.6666666666666</ele><time>2026-04-27T09:18:48Z</time></trkpt><trkpt lat="42.20168858248826" lon="13.707473045329456"><ele>1003.3333333333333</ele><time>2026-04-27T09:18:49Z</time></trkpt><trkpt lat="42.201714179667555" lon="13.707360067078511"><ele>1002.0</ele><time>2026-04-27T09:18:50Z</time></trkpt><trkpt lat="42.20172352877053" lon="13.707266749159361"><ele>1000.6666666666667</ele><time>2026-04-27T09:18:51Z</time></trkpt><trkpt lat="42.201735251445164" lon="13.707174511015268"><ele>999.3333333333334</ele><time>2026-04-27T09:18:52Z</time></trkpt><trkpt lat="42.201731755724204" lon="13.707088463840522"><ele>998.0</ele><time>2026-04-27T09:18:53Z</time></trkpt><trkpt lat="42.201768993992644" lon="13.706932774455442"><ele>996.8333333333334</ele><time>2026-04-27T09:18:55Z</time></trkpt><trkpt lat="42.20180934080513" lon="13.70684893340173"><ele>995.6666666666667</ele><time>2026-04-27T09:18:56Z</time></trkpt><trkpt lat="42.20185174884836" lon="13.706778527071505"><ele>994.5</ele><time>2026-04-27T09:18:57Z</time></trkpt><trkpt lat="42.201871528809804" lon="13.706650182531682"><ele>993.3333333333333</ele><time>2026-04-27T09:18:59Z</time></trkpt><trkpt lat="42.20185512889027" lon="13.706565706156185"><ele>992.1666666666666</ele><time>2026-04-27T09:19:00Z</time></trkpt><trkpt lat="42.20181969287131" lon="13.706424308552087"><ele>991.0</ele><time>2026-04-27T09:19:02Z</time></trkpt><trkpt lat="42.2018048601607" lon="13.706336641746239"><ele>990.9999999999999</ele><time>2026-04-27T09:19:03Z</time></trkpt><trkpt lat="42.201784606212655" lon="13.706253875232992"><ele>991.0</ele><time>2026-04-27T09:19:04Z</time></trkpt><trkpt lat="42.201748544793986" lon="13.706180299380808"><ele>991.0</ele><time>2026-04-27T09:19:05Z</time></trkpt><trkpt lat="42.2016895881123" lon="13.706139742318534"><ele>991.0</ele><time>2026-04-27T09:19:06Z</time></trkpt><trkpt lat="42.201579019259924" lon="13.706085025566688"><ele>990.9999999999999</ele><time>2026-04-27T09:19:08.001Z</time></trkpt><trkpt lat="42.201508553987686" lon="13.706040305333424"><ele>991.0</ele><time>2026-04-27T09:19:10.001Z</time></trkpt><trkpt lat="42.20149411536353" lon="13.705950208559065"><ele>990.1999999999999</ele><time>2026-04-27T09:19:12.001Z</time></trkpt><trkpt lat="42.20151727033977" lon="13.705826010441163"><ele>989.3999999999999</ele><time>2026-04-27T09:19:14.001Z</time></trkpt><trkpt lat="42.201527529609955" lon="13.70569925831849"><ele>988.6</ele><time>2026-04-27T09:19:16.001Z</time></trkpt><trkpt lat="42.201469164842365" lon="13.705587811979406"><ele>987.8</ele><time>2026-04-27T09:19:18.001Z</time></trkpt><trkpt lat="42.20144663276788" lon="13.705506947290397"><ele>987.0</ele><time>2026-04-27T09:19:19.001Z</time></trkpt><trkpt lat="42.20140329951801" lon="13.705350923215248"><ele>985.2</ele><time>2026-04-27T09:19:21.001Z</time></trkpt><trkpt lat="42.20137469513709" lon="13.705273062652772"><ele>983.4000000000001</ele><time>2026-04-27T09:19:22.001Z</time></trkpt><trkpt lat="42.20135403724769" lon="13.705189365851414"><ele>981.5999999999999</ele><time>2026-04-27T09:19:23.001Z</time></trkpt><trkpt lat="42.201330646275025" lon="13.705045453072715"><ele>979.8</ele><time>2026-04-27T09:19:25.001Z</time></trkpt><trkpt lat="42.2013328837428" lon="13.704898791406507"><ele>978.0</ele><time>2026-04-27T09:19:27.001Z</time></trkpt><trkpt lat="42.20133818719678" lon="13.704759917863916"><ele>978.0</ele><time>2026-04-27T09:19:29.001Z</time></trkpt><trkpt lat="42.20135653931012" lon="13.704612311263174"><ele>978.0</ele><time>2026-04-27T09:19:31.001Z</time></trkpt><trkpt lat="42.20135007352904" lon="13.704465823569274"><ele>978.0</ele><time>2026-04-27T09:19:33.001Z</time></trkpt><trkpt lat="42.20135841865414" lon="13.704376412437652"><ele>978.0</ele><time>2026-04-27T09:19:34.001Z</time></trkpt><trkpt lat="42.20136393141518" lon="13.704234486556107"><ele>978.0</ele><time>2026-04-27T09:19:36Z</time></trkpt><trkpt lat="42.20136848064873" lon="13.704141801698375"><ele>974.5</ele><time>2026-04-27T09:19:37Z</time></trkpt><trkpt lat="42.20137399235398" lon="13.704043600108637"><ele>971.0</ele><time>2026-04-27T09:19:38Z</time></trkpt><trkpt lat="42.201386104718964" lon="13.70394404190195"><ele>967.5</ele><time>2026-04-27T09:19:39Z</time></trkpt><trkpt lat="42.20141404334471" lon="13.703845218095852"><ele>964.0</ele><time>2026-04-27T09:19:40Z</time></trkpt><trkpt lat="42.201433977223694" lon="13.703758581410055"><ele>960.5</ele><time>2026-04-27T09:19:41Z</time></trkpt><trkpt lat="42.2014588173357" lon="13.703658388086765"><ele>957.0</ele><time>2026-04-27T09:19:42Z</time></trkpt><trkpt lat="42.20148176259373" lon="13.70353872546477"><ele>959.8333333333334</ele><time>2026-04-27T09:19:43Z</time></trkpt><trkpt lat="42.20149759894171" lon="13.703415359548437"><ele>962.6666666666667</ele><time>2026-04-27T09:19:44Z</time></trkpt><trkpt lat="42.20150410473111" lon="13.703301998809767"><ele>965.5</ele><time>2026-04-27T09:19:45Z</time></trkpt><trkpt lat="42.201508525244506" lon="13.703201359723531"><ele>968.3333333333334</ele><time>2026-04-27T09:19:46Z</time></trkpt><trkpt lat="42.201506124447896" lon="13.703101698738111"><ele>971.1666666666667</ele><time>2026-04-27T09:19:47Z</time></trkpt><trkpt lat="42.20145690403011" lon="13.7029607127409"><ele>974.0</ele><time>2026-04-27T09:19:49Z</time></trkpt><trkpt lat="42.20140678070823" lon="13.70290786342345"><ele>966.6</ele><time>2026-04-27T09:19:50Z</time></trkpt><trkpt lat="42.20130187896458" lon="13.702803868642961"><ele>959.2</ele><time>2026-04-27T09:19:52Z</time></trkpt><trkpt lat="42.20125567046692" lon="13.702699497346067"><ele>951.8000000000001</ele><time>2026-04-27T09:19:53Z</time></trkpt><trkpt lat="42.20120680467853" lon="13.702629521212458"><ele>944.4000000000001</ele><time>2026-04-27T09:19:54Z</time></trkpt><trkpt lat="42.20113781211296" lon="13.702609301670405"><ele>937.0</ele><time>2026-04-27T09:19:55Z</time></trkpt><trkpt lat="42.201014681556146" lon="13.702489691792037"><ele>936.9999999999999</ele><time>2026-04-27T09:19:57Z</time></trkpt><trkpt lat="42.2009227352214" lon="13.702439778822706"><ele>937.0</ele><time>2026-04-27T09:19:58Z</time></trkpt><trkpt lat="42.20083180699087" lon="13.702364710941346"><ele>937.0</ele><time>2026-04-27T09:19:59Z</time></trkpt><trkpt lat="42.20075252531611" lon="13.70232830595182"><ele>937.0</ele><time>2026-04-27T09:20:00Z</time></trkpt><trkpt lat="42.200670643275444" lon="13.702294616450168"><ele>936.9999999999999</ele><time>2026-04-27T09:20:01Z</time></trkpt><trkpt lat="42.20059897826572" lon="13.70227374497969"><ele>937.0</ele><time>2026-04-27T09:20:02Z</time></trkpt><trkpt lat="42.20050736880947" lon="13.702241936844212"><ele>931.0</ele><time>2026-04-27T09:20:03Z</time></trkpt><trkpt lat="42.20043131663148" lon="13.70221166235816"><ele>925.0</ele><time>2026-04-27T09:20:04Z</time></trkpt><trkpt lat="42.20034973811015" lon="13.702202881940982"><ele>919.0</ele><time>2026-04-27T09:20:05Z</time></trkpt><trkpt lat="42.200235821466194" lon="13.702211827270302"><ele>913.0</ele><time>2026-04-27T09:20:07Z</time></trkpt><trkpt lat="42.200181950860355" lon="13.70214045006297"><ele>907.0</ele><time>2026-04-27T09:20:09Z</time></trkpt><trkpt lat="42.20015209591703" lon="13.702007610558997"><ele>907.6</ele><time>2026-04-27T09:20:11Z</time></trkpt><trkpt lat="42.20012140925352" lon="13.70190538217356"><ele>908.2</ele><time>2026-04-27T09:20:12Z</time></trkpt><trkpt lat="42.200095698074044" lon="13.701795731345356"><ele>908.8</ele><time>2026-04-27T09:20:13Z</time></trkpt><trkpt lat="42.200063553106794" lon="13.701658210348194"><ele>909.4</ele><time>2026-04-27T09:20:15Z</time></trkpt><trkpt lat="42.20001644044476" lon="13.701550368323113"><ele>910.0</ele><time>2026-04-27T09:20:17Z</time></trkpt><trkpt lat="42.1999795813812" lon="13.70143972612992"><ele>910.0</ele><time>2026-04-27T09:20:19Z</time></trkpt><trkpt lat="42.20002653388583" lon="13.701327771641347"><ele>910.0</ele><time>2026-04-27T09:20:21Z</time></trkpt><trkpt lat="42.20002936660926" lon="13.70119211312351"><ele>910.0</ele><time>2026-04-27T09:20:23Z</time></trkpt><trkpt lat="42.2000385302751" lon="13.701049936203955"><ele>910.0</ele><time>2026-04-27T09:20:25Z</time></trkpt><trkpt lat="42.20005208535018" lon="13.70088192566114"><ele>910.0</ele><time>2026-04-27T09:20:27Z</time></trkpt><trkpt lat="42.20008892478272" lon="13.700795707844591"><ele>908.8</ele><time>2026-04-27T09:20:28Z</time></trkpt><trkpt lat="42.200089941774586" lon="13.700706893441515"><ele>907.6</ele><time>2026-04-27T09:20:29Z</time></trkpt><trkpt lat="42.20006384745875" lon="13.700552342721142"><ele>906.4000000000001</ele><time>2026-04-27T09:20:31Z</time></trkpt><trkpt lat="42.20001202859378" lon="13.700390666051824"><ele>905.2</ele><time>2026-04-27T09:20:33Z</time></trkpt><trkpt lat="42.200033160148394" lon="13.700263674902454"><ele>904.0</ele><time>2026-04-27T09:20:34Z</time></trkpt><trkpt lat="42.20004686964547" lon="13.700172478245957"><ele>903.8000000000001</ele><time>2026-04-27T09:20:35Z</time></trkpt><trkpt lat="42.2000719158328" lon="13.70007813005243"><ele>903.6000000000001</ele><time>2026-04-27T09:20:36Z</time></trkpt><trkpt lat="42.20007625273391" lon="13.699934804294246"><ele>903.4</ele><time>2026-04-27T09:20:38Z</time></trkpt><trkpt lat="42.20001803575038" lon="13.69989905982617"><ele>903.2</ele><time>2026-04-27T09:20:39Z</time></trkpt><trkpt lat="42.1999049772107" lon="13.699830082733675"><ele>903.0</ele><time>2026-04-27T09:20:41Z</time></trkpt><trkpt lat="42.199814409736746" lon="13.699775131875015"><ele>892.5999999999999</ele><time>2026-04-27T09:20:43Z</time></trkpt><trkpt lat="42.199766626125076" lon="13.699648746540339"><ele>882.1999999999999</ele><time>2026-04-27T09:20:45Z</time></trkpt><trkpt lat="42.199718176415296" lon="13.699501178190019"><ele>871.8</ele><time>2026-04-27T09:20:47Z</time></trkpt><trkpt lat="42.19968632725208" lon="13.699341868040275"><ele>861.4</ele><time>2026-04-27T09:20:49Z</time></trkpt><trkpt lat="42.19966917153454" lon="13.699258064978046"><ele>851.0</ele><time>2026-04-27T09:20:50Z</time></trkpt><trkpt lat="42.19958773661469" lon="13.699121680412127"><ele>851.0000000000001</ele><time>2026-04-27T09:20:52Z</time></trkpt><trkpt lat="42.19953946064491" lon="13.699043713467114"><ele>851.0</ele><time>2026-04-27T09:20:53Z</time></trkpt><trkpt lat="42.19952916909285" lon="13.698950958265144"><ele>851.0</ele><time>2026-04-27T09:20:54Z</time></trkpt><trkpt lat="42.19951025987897" lon="13.698777908401278"><ele>851.0</ele><time>2026-04-27T09:20:56Z</time></trkpt><trkpt lat="42.1995145690338" lon="13.698662969937235"><ele>851.0000000000001</ele><time>2026-04-27T09:20:57Z</time></trkpt><trkpt lat="42.19949748960561" lon="13.69855710887985"><ele>851.0</ele><time>2026-04-27T09:20:58Z</time></trkpt><trkpt lat="42.19948613127467" lon="13.698467506514355"><ele>851.8</ele><time>2026-04-27T09:20:59Z</time></trkpt><trkpt lat="42.19946787148774" lon="13.698353397022743"><ele>852.5999999999999</ele><time>2026-04-27T09:21:00Z</time></trkpt><trkpt lat="42.19946168321264" lon="13.698185287796514"><ele>853.4</ele><time>2026-04-27T09:21:02Z</time></trkpt><trkpt lat="42.19947679872135" lon="13.698071420842654"><ele>854.2</ele><time>2026-04-27T09:21:03Z</time></trkpt><trkpt lat="42.19950122100718" lon="13.697957305126533"><ele>855.0</ele><time>2026-04-27T09:21:04Z</time></trkpt><trkpt lat="42.19952832802589" lon="13.697861696796283"><ele>855.0</ele><time>2026-04-27T09:21:05Z</time></trkpt><trkpt lat="42.19955387813801" lon="13.697776840796271"><ele>855.0</ele><time>2026-04-27T09:21:06.001Z</time></trkpt><trkpt lat="42.199597620076446" lon="13.697679149985557"><ele>855.0</ele><time>2026-04-27T09:21:07.001Z</time></trkpt><trkpt lat="42.199631900351825" lon="13.697575280445966"><ele>855.0</ele><time>2026-04-27T09:21:08.001Z</time></trkpt><trkpt lat="42.199662949081336" lon="13.697484098581368"><ele>855.0</ele><time>2026-04-27T09:21:09.001Z</time></trkpt><trkpt lat="42.199736708208704" lon="13.697373955923206"><ele>855.0</ele><time>2026-04-27T09:21:11.001Z</time></trkpt><trkpt lat="42.199804955127526" lon="13.69725913798913"><ele>859.6</ele><time>2026-04-27T09:21:13.001Z</time></trkpt><trkpt lat="42.19986755387783" lon="13.6971607831345"><ele>864.2</ele><time>2026-04-27T09:21:15.001Z</time></trkpt><trkpt lat="42.19997168586819" lon="13.697129079996998"><ele>868.8</ele><time>2026-04-27T09:21:17.001Z</time></trkpt><trkpt lat="42.200095667393114" lon="13.697081831912506"><ele>873.4</ele><time>2026-04-27T09:21:19.001Z</time></trkpt><trkpt lat="42.20016911907257" lon="13.697068691565669"><ele>878.0</ele><time>2026-04-27T09:21:20.001Z</time></trkpt><trkpt lat="42.200240801320625" lon="13.697044100960392"><ele>878.0000000000001</ele><time>2026-04-27T09:21:21.001Z</time></trkpt><trkpt lat="42.200294520693134" lon="13.696996172456087"><ele>878.0</ele><time>2026-04-27T09:21:22.001Z</time></trkpt><trkpt lat="42.200401187241575" lon="13.696987050784871"><ele>878.0</ele><time>2026-04-27T09:21:24.001Z</time></trkpt><trkpt lat="42.200522222714895" lon="13.696944069126122"><ele>878.0</ele><time>2026-04-27T09:21:26.001Z</time></trkpt><trkpt lat="42.20059017856906" lon="13.696901877236087"><ele>878.0000000000001</ele><time>2026-04-27T09:21:27.001Z</time></trkpt><trkpt lat="42.20065206367976" lon="13.696860953865961"><ele>878.0</ele><time>2026-04-27T09:21:28.001Z</time></trkpt><trkpt lat="42.20071732391841" lon="13.696823572921138"><ele>875.5000000000001</ele><time>2026-04-27T09:21:29.001Z</time></trkpt><trkpt lat="42.20078199125637" lon="13.696775170149508"><ele>873.0</ele><time>2026-04-27T09:21:30.001Z</time></trkpt><trkpt lat="42.20083905301462" lon="13.696724833785737"><ele>870.5</ele><time>2026-04-27T09:21:31.001Z</time></trkpt><trkpt lat="42.20087123001211" lon="13.696619040892"><ele>868.0</ele><time>2026-04-27T09:21:33.001Z</time></trkpt><trkpt lat="42.20083461011718" lon="13.696526480627051"><ele>865.5000000000001</ele><time>2026-04-27T09:21:35.001Z</time></trkpt><trkpt lat="42.20074573799171" lon="13.696552594164972"><ele>863.0</ele><time>2026-04-27T09:21:37.001Z</time></trkpt><trkpt lat="42.200664061800445" lon="13.696558936566747"><ele>860.1666666666667</ele><time>2026-04-27T09:21:39.001Z</time></trkpt><trkpt lat="42.20060096934373" lon="13.696532933170001"><ele>857.3333333333334</ele><time>2026-04-27T09:21:41Z</time></trkpt><trkpt lat="42.200570970424046" lon="13.696439548024966"><ele>854.5</ele><time>2026-04-27T09:21:43Z</time></trkpt><trkpt lat="42.20050137327401" lon="13.696471976687887"><ele>851.6666666666667</ele><time>2026-04-27T09:21:45Z</time></trkpt><trkpt lat="42.20041874042498" lon="13.69653787978785"><ele>848.8333333333334</ele><time>2026-04-27T09:21:47Z</time></trkpt><trkpt lat="42.20036059537273" lon="13.696491506404833"><ele>846.0</ele><time>2026-04-27T09:21:49Z</time></trkpt><trkpt lat="42.20029185865032" lon="13.696409222369338"><ele>846.0</ele><time>2026-04-27T09:21:51.001Z</time></trkpt><trkpt lat="42.200194564307296" lon="13.69632697914896"><ele>846.0</ele><time>2026-04-27T09:21:53.001Z</time></trkpt><trkpt lat="42.20014163577061" lon="13.696278133166754"><ele>846.0</ele><time>2026-04-27T09:21:54.001Z</time></trkpt><trkpt lat="42.20006295674885" lon="13.696207478388828"><ele>846.0</ele><time>2026-04-27T09:21:56.001Z</time></trkpt><trkpt lat="42.19996244805754" lon="13.696291907805517"><ele>846.0</ele><time>2026-04-27T09:21:58.001Z</time></trkpt><trkpt lat="42.19988156525647" lon="13.696391818689147"><ele>841.6666666666666</ele><time>2026-04-27T09:22:00.001Z</time></trkpt><trkpt lat="42.19981639151117" lon="13.696383915176614"><ele>837.3333333333333</ele><time>2026-04-27T09:22:02.001Z</time></trkpt><trkpt lat="42.19973535432702" lon="13.696296960653108"><ele>833.0</ele><time>2026-04-27T09:22:04.001Z</time></trkpt><trkpt lat="42.1996612999631" lon="13.696185950230223"><ele>828.6666666666666</ele><time>2026-04-27T09:22:06.001Z</time></trkpt><trkpt lat="42.1996176779234" lon="13.69610229392426"><ele>824.3333333333333</ele><time>2026-04-27T09:22:07.001Z</time></trkpt><trkpt lat="42.19955724284768" lon="13.696022010041796"><ele>820.0</ele><time>2026-04-27T09:22:08.001Z</time></trkpt><trkpt lat="42.19948963458072" lon="13.695896551499235"><ele>817.3333333333333</ele><time>2026-04-27T09:22:09.001Z</time></trkpt><trkpt lat="42.19943284662232" lon="13.695821781325943"><ele>814.6666666666666</ele><time>2026-04-27T09:22:10.001Z</time></trkpt><trkpt lat="42.19936953927895" lon="13.695726650364389"><ele>812.0</ele><time>2026-04-27T09:22:11.001Z</time></trkpt><trkpt lat="42.199322194166164" lon="13.695645844924124"><ele>809.3333333333333</ele><time>2026-04-27T09:22:12.001Z</time></trkpt><trkpt lat="42.199280973459274" lon="13.69554720143787"><ele>806.6666666666666</ele><time>2026-04-27T09:22:13.001Z</time></trkpt><trkpt lat="42.199243830115954" lon="13.695468456933305"><ele>804.0</ele><time>2026-04-27T09:22:14.001Z</time></trkpt><trkpt lat="42.19920048300968" lon="13.695370388771071"><ele>805.0</ele><time>2026-04-27T09:22:15.001Z</time></trkpt><trkpt lat="42.199176148608814" lon="13.695239576923653"><ele>806.0</ele><time>2026-04-27T09:22:16.001Z</time></trkpt><trkpt lat="42.199147150327164" lon="13.695130364823122"><ele>807.0</ele><time>2026-04-27T09:22:17.001Z</time></trkpt><trkpt lat="42.19910231706401" lon="13.695037127600783"><ele>808.0</ele><time>2026-04-27T09:22:18.001Z</time></trkpt><trkpt lat="42.199057901493674" lon="13.694962053598921"><ele>809.0</ele><time>2026-04-27T09:22:19.001Z</time></trkpt><trkpt lat="42.19895699576275" lon="13.694892389366288"><ele>803.8000000000001</ele><time>2026-04-27T09:22:21.001Z</time></trkpt><trkpt lat="42.198865375071854" lon="13.694946824998766"><ele>798.6</ele><time>2026-04-27T09:22:23.001Z</time></trkpt><trkpt lat="42.19882401412879" lon="13.69502535511958"><ele>793.4</ele><time>2026-04-27T09:22:24.001Z</time></trkpt><trkpt lat="42.19878603399013" lon="13.695137872722364"><ele>788.2</ele><time>2026-04-27T09:22:25.001Z</time></trkpt><trkpt lat="42.19871337495318" lon="13.695252177672566"><ele>783.0</ele><time>2026-04-27T09:22:26.001Z</time></trkpt><trkpt lat="42.1986462137083" lon="13.695372526072813"><ele>783.0</ele><time>2026-04-27T09:22:27.001Z</time></trkpt><trkpt lat="42.19859228325988" lon="13.695465981050708"><ele>783.0</ele><time>2026-04-27T09:22:28.001Z</time></trkpt><trkpt lat="42.19855049549938" lon="13.6955321118424"><ele>783.0</ele><time>2026-04-27T09:22:29.001Z</time></trkpt><trkpt lat="42.19844361147114" lon="13.695565679465442"><ele>783.0</ele><time>2026-04-27T09:22:33.001Z</time></trkpt><trkpt lat="42.1984109212339" lon="13.695491023506172"><ele>783.0</ele><time>2026-04-27T09:22:34.001Z</time></trkpt><trkpt lat="42.19829608782512" lon="13.695465819645536"><ele>783.0</ele><time>2026-04-27T09:22:36.001Z</time></trkpt><trkpt lat="42.19818465563145" lon="13.695448075121856"><ele>779.8333333333334</ele><time>2026-04-27T09:22:38.001Z</time></trkpt><trkpt lat="42.19812184963632" lon="13.695473904171307"><ele>776.6666666666666</ele><time>2026-04-27T09:22:39.001Z</time></trkpt><trkpt lat="42.19807890535043" lon="13.695566970786334"><ele>773.5</ele><time>2026-04-27T09:22:40.001Z</time></trkpt><trkpt lat="42.19798355226753" lon="13.695625264669701"><ele>770.3333333333333</ele><time>2026-04-27T09:22:42.001Z</time></trkpt><trkpt lat="42.197921363543216" lon="13.695651289018576"><ele>767.1666666666666</ele><time>2026-04-27T09:22:43.001Z</time></trkpt><trkpt lat="42.19783221048537" lon="13.695678831287939"><ele>764.0</ele><time>2026-04-27T09:22:44.001Z</time></trkpt><trkpt lat="42.197725257762336" lon="13.69570475782457"><ele>764.0</ele><time>2026-04-27T09:22:45.001Z</time></trkpt><trkpt lat="42.19761799095914" lon="13.695731072744012"><ele>764.0</ele><time>2026-04-27T09:22:46.001Z</time></trkpt><trkpt lat="42.19750009460562" lon="13.695769580881487"><ele>764.0</ele><time>2026-04-27T09:22:47.001Z</time></trkpt><trkpt lat="42.19738599991578" lon="13.695822399921138"><ele>764.0</ele><time>2026-04-27T09:22:48.001Z</time></trkpt><trkpt lat="42.197267097460774" lon="13.695853534346863"><ele>759.5</ele><time>2026-04-27T09:22:49.001Z</time></trkpt><trkpt lat="42.19715414492622" lon="13.695910646674218"><ele>755.0</ele><time>2026-04-27T09:22:50.001Z</time></trkpt><trkpt lat="42.19703744390009" lon="13.695944305426114"><ele>750.5</ele><time>2026-04-27T09:22:51.001Z</time></trkpt><trkpt lat="42.19691367476242" lon="13.695965758052765"><ele>746.0</ele><time>2026-04-27T09:22:52.001Z</time></trkpt><trkpt lat="42.19680467836015" lon="13.696002147830995"><ele>746.0</ele><time>2026-04-27T09:22:53.001Z</time></trkpt><trkpt lat="42.19670859709386" lon="13.6960354504356"><ele>746.0</ele><time>2026-04-27T09:22:54.001Z</time></trkpt><trkpt lat="42.19662679387963" lon="13.696065614030694"><ele>746.0</ele><time>2026-04-27T09:22:55.001Z</time></trkpt><trkpt lat="42.19655255370895" lon="13.696098432562502"><ele>746.0</ele><time>2026-04-27T09:22:56.001Z</time></trkpt><trkpt lat="42.1964805341342" lon="13.696173889654064"><ele>746.0</ele><time>2026-04-27T09:22:58.001Z</time></trkpt><trkpt lat="42.19648971999141" lon="13.696260743689407"><ele>746.0</ele><time>2026-04-27T09:22:59.001Z</time></trkpt><trkpt lat="42.1964833629607" lon="13.696346346860754"><ele>743.3333333333333</ele><time>2026-04-27T09:23:01.001Z</time></trkpt><trkpt lat="42.19647606424151" lon="13.696249100116951"><ele>740.6666666666666</ele><time>2026-04-27T09:23:06.001Z</time></trkpt><trkpt lat="42.196443906425955" lon="13.696132067915622"><ele>738.0</ele><time>2026-04-27T09:24:05Z</time></trkpt><trkpt lat="42.19643221023463" lon="13.69603704772189"><ele>735.3333333333334</ele><time>2026-04-27T09:24:06Z</time></trkpt><trkpt lat="42.19642103219162" lon="13.695920817192087"><ele>732.6666666666667</ele><time>2026-04-27T09:24:07Z</time></trkpt><trkpt lat="42.19641036821492" lon="13.695815815357696"><ele>730.0</ele><time>2026-04-27T09:24:08Z</time></trkpt><trkpt lat="42.19639900833466" lon="13.695718829728696"><ele>730.0</ele><time>2026-04-27T09:24:09Z</time></trkpt><trkpt lat="42.196367932524076" lon="13.695559117345185"><ele>730.0</ele><time>2026-04-27T09:24:11Z</time></trkpt><trkpt lat="42.19634424975231" lon="13.695474353681371"><ele>730.0</ele><time>2026-04-27T09:24:12Z</time></trkpt><trkpt lat="42.19632612134421" lon="13.695378689595756"><ele>730.0</ele><time>2026-04-27T09:24:13Z</time></trkpt><trkpt lat="42.19630756739776" lon="13.695272490400884"><ele>730.0</ele><time>2026-04-27T09:24:14Z</time></trkpt><trkpt lat="42.196292228584845" lon="13.695178817295112"><ele>730.0</ele><time>2026-04-27T09:24:15.001Z</time></trkpt><trkpt lat="42.19627766501004" lon="13.69508511984421"><ele>730.5</ele><time>2026-04-27T09:24:16.001Z</time></trkpt><trkpt lat="42.196261249930885" lon="13.694959398441286"><ele>731.0</ele><time>2026-04-27T09:24:17.001Z</time></trkpt><trkpt lat="42.196247701366275" lon="13.694856712276307"><ele>731.5</ele><time>2026-04-27T09:24:18.001Z</time></trkpt><trkpt lat="42.196236244381936" lon="13.694759615496276"><ele>732.0</ele><time>2026-04-27T09:24:19.001Z</time></trkpt><trkpt lat="42.19622156317455" lon="13.694646687962209"><ele>732.5</ele><time>2026-04-27T09:24:20.001Z</time></trkpt><trkpt lat="42.196201394988044" lon="13.694545501607173"><ele>733.0</ele><time>2026-04-27T09:24:21.001Z</time></trkpt><trkpt lat="42.19617370200976" lon="13.694454467197048"><ele>732.6666666666667</ele><time>2026-04-27T09:24:22.001Z</time></trkpt><trkpt lat="42.19613822698495" lon="13.694354822752596"><ele>732.3333333333334</ele><time>2026-04-27T09:24:23.001Z</time></trkpt><trkpt lat="42.19610356766103" lon="13.69424798362207"><ele>732.0</ele><time>2026-04-27T09:24:24.001Z</time></trkpt><trkpt lat="42.19606981876068" lon="13.694145152401104"><ele>731.6666666666666</ele><time>2026-04-27T09:24:25.001Z</time></trkpt><trkpt lat="42.1960356790752" lon="13.69403407514241"><ele>731.3333333333333</ele><time>2026-04-27T09:24:26.001Z</time></trkpt><trkpt lat="42.196001690751224" lon="13.6939236408563"><ele>731.0</ele><time>2026-04-27T09:24:27.001Z</time></trkpt><trkpt lat="42.195984734340875" lon="13.693806642183933"><ele>731.0</ele><time>2026-04-27T09:24:28.001Z</time></trkpt><trkpt lat="42.195938319765986" lon="13.693703242023163"><ele>731.0</ele><time>2026-04-27T09:24:29.001Z</time></trkpt><trkpt lat="42.19594827992125" lon="13.69357186052231"><ele>731.0</ele><time>2026-04-27T09:24:30.001Z</time></trkpt><trkpt lat="42.19593473515642" lon="13.693450114515434"><ele>731.0</ele><time>2026-04-27T09:24:31.001Z</time></trkpt><trkpt lat="42.19591400846374" lon="13.693332110807074"><ele>731.0</ele><time>2026-04-27T09:24:32.001Z</time></trkpt><trkpt lat="42.19590796434451" lon="13.693225680753821"><ele>731.0</ele><time>2026-04-27T09:24:33.001Z</time></trkpt><trkpt lat="42.195900431200464" lon="13.693130809499218"><ele>729.8333333333333</ele><time>2026-04-27T09:24:34.001Z</time></trkpt><trkpt lat="42.19590187812122" lon="13.693036138590335"><ele>728.6666666666666</ele><time>2026-04-27T09:24:35.001Z</time></trkpt><trkpt lat="42.19586122774609" lon="13.692926625998622"><ele>727.5</ele><time>2026-04-27T09:24:36.001Z</time></trkpt><trkpt lat="42.19583938156358" lon="13.69281376408656"><ele>726.3333333333334</ele><time>2026-04-27T09:24:37.001Z</time></trkpt><trkpt lat="42.1958276016806" lon="13.69270404139894"><ele>725.1666666666667</ele><time>2026-04-27T09:24:38.001Z</time></trkpt><trkpt lat="42.19581134949572" lon="13.69258829378046"><ele>724.0</ele><time>2026-04-27T09:24:39.001Z</time></trkpt><trkpt lat="42.195809453884195" lon="13.692472255729259"><ele>722.0</ele><time>2026-04-27T09:24:40.001Z</time></trkpt><trkpt lat="42.195813321231064" lon="13.692355707722376"><ele>720.0</ele><time>2026-04-27T09:24:41.001Z</time></trkpt><trkpt lat="42.19583138738701" lon="13.692178194492996"><ele>718.0</ele><time>2026-04-27T09:24:42.001Z</time></trkpt><trkpt lat="42.19582490250215" lon="13.692040023795142"><ele>716.0</ele><time>2026-04-27T09:24:43.001Z</time></trkpt><trkpt lat="42.19582623999865" lon="13.69190123072383"><ele>714.0</ele><time>2026-04-27T09:24:44.001Z</time></trkpt><trkpt lat="42.195823694600165" lon="13.691773464395485"><ele>712.8333333333334</ele><time>2026-04-27T09:24:45.001Z</time></trkpt><trkpt lat="42.19582787759288" lon="13.691644969273606"><ele>711.6666666666666</ele><time>2026-04-27T09:24:46.001Z</time></trkpt><trkpt lat="42.19583890452551" lon="13.691527695604185"><ele>710.5</ele><time>2026-04-27T09:24:47.001Z</time></trkpt><trkpt lat="42.19583508453634" lon="13.691431795711674"><ele>709.3333333333333</ele><time>2026-04-27T09:24:48.001Z</time></trkpt><trkpt lat="42.195796432613825" lon="13.691351839744492"><ele>708.1666666666666</ele><time>2026-04-27T09:24:49.001Z</time></trkpt><trkpt lat="42.19574668804528" lon="13.691285104255149"><ele>707.0</ele><time>2026-04-27T09:24:50.001Z</time></trkpt><trkpt lat="42.195676619823736" lon="13.691201227074503"><ele>705.1666666666666</ele><time>2026-04-27T09:24:51.001Z</time></trkpt><trkpt lat="42.195664755656836" lon="13.691114668867316"><ele>703.3333333333333</ele><time>2026-04-27T09:24:52.001Z</time></trkpt><trkpt lat="42.195624520200035" lon="13.691029640534481"><ele>701.5</ele><time>2026-04-27T09:24:53.001Z</time></trkpt><trkpt lat="42.19557594503596" lon="13.690915178205822"><ele>699.6666666666666</ele><time>2026-04-27T09:24:54.001Z</time></trkpt><trkpt lat="42.195493608842426" lon="13.69082738295889"><ele>697.8333333333334</ele><time>2026-04-27T09:24:55.001Z</time></trkpt><trkpt lat="42.195419048654344" lon="13.690780117341662"><ele>696.0</ele><time>2026-04-27T09:24:56.001Z</time></trkpt><trkpt lat="42.19532276301098" lon="13.69073960336028"><ele>695.0</ele><time>2026-04-27T09:24:57.001Z</time></trkpt><trkpt lat="42.195199879778336" lon="13.69070136293683"><ele>694.0</ele><time>2026-04-27T09:24:58.001Z</time></trkpt><trkpt lat="42.1950681447156" lon="13.69066379486571"><ele>693.0</ele><time>2026-04-27T09:24:59.001Z</time></trkpt><trkpt lat="42.19496272377887" lon="13.690621042506132"><ele>692.0</ele><time>2026-04-27T09:25:00.001Z</time></trkpt><trkpt lat="42.194839161276306" lon="13.690568032604954"><ele>689.0</ele><time>2026-04-27T09:25:01.001Z</time></trkpt><trkpt lat="42.19471309517413" lon="13.690535397790166"><ele>686.0</ele><time>2026-04-27T09:25:02.001Z</time></trkpt><trkpt lat="42.194597124612876" lon="13.690503344327622"><ele>683.0</ele><time>2026-04-27T09:25:03.001Z</time></trkpt><trkpt lat="42.194485397162914" lon="13.690466942482885"><ele>680.0</ele><time>2026-04-27T09:25:04.001Z</time></trkpt><trkpt lat="42.194388058428466" lon="13.690412842378693"><ele>680.0</ele><time>2026-04-27T09:25:05.001Z</time></trkpt><trkpt lat="42.1942996734628" lon="13.690338149458492"><ele>680.0</ele><time>2026-04-27T09:25:06.001Z</time></trkpt><trkpt lat="42.19422536635413" lon="13.690248628080795"><ele>680.0</ele><time>2026-04-27T09:25:07.001Z</time></trkpt><trkpt lat="42.194156372807534" lon="13.690133271655872"><ele>680.0</ele><time>2026-04-27T09:25:08.001Z</time></trkpt><trkpt lat="42.19409225739071" lon="13.690017248987823"><ele>680.0</ele><time>2026-04-27T09:25:09.001Z</time></trkpt><trkpt lat="42.19402622515737" lon="13.689906899258306"><ele>678.2</ele><time>2026-04-27T09:25:10.001Z</time></trkpt><trkpt lat="42.193964984742095" lon="13.689799777251409"><ele>676.4</ele><time>2026-04-27T09:25:11.001Z</time></trkpt><trkpt lat="42.193926552428636" lon="13.689674475199451"><ele>674.5999999999999</ele><time>2026-04-27T09:25:12.001Z</time></trkpt><trkpt lat="42.19389392013206" lon="13.689542666416688"><ele>672.8</ele><time>2026-04-27T09:25:13.001Z</time></trkpt><trkpt lat="42.19384011420891" lon="13.689437069097519"><ele>671.0</ele><time>2026-04-27T09:25:14.001Z</time></trkpt><trkpt lat="42.193780293668155" lon="13.689399534018616"><ele>671.0</ele><time>2026-04-27T09:25:15.001Z</time></trkpt><trkpt lat="42.19371565753518" lon="13.689385071311003"><ele>671.0</ele><time>2026-04-27T09:25:16.001Z</time></trkpt><trkpt lat="42.19363845423441" lon="13.689398593863958"><ele>671.0</ele><time>2026-04-27T09:25:17.001Z</time></trkpt><trkpt lat="42.19355655277359" lon="13.689420435080752"><ele>671.0</ele><time>2026-04-27T09:25:18.001Z</time></trkpt><trkpt lat="42.19345603295794" lon="13.689438969873391"><ele>671.0</ele><time>2026-04-27T09:25:20.001Z</time></trkpt><trkpt lat="42.19339762037529" lon="13.689396062389513"><ele>671.0</ele><time>2026-04-27T09:25:22.001Z</time></trkpt><trkpt lat="42.193356410539714" lon="13.689220446957593"><ele>671.0</ele><time>2026-04-27T09:25:24.001Z</time></trkpt><trkpt lat="42.19329929392279" lon="13.689153667556397"><ele>671.0</ele><time>2026-04-27T09:25:25.001Z</time></trkpt><trkpt lat="42.19325633075682" lon="13.689087542324051"><ele>671.0</ele><time>2026-04-27T09:25:26.001Z</time></trkpt><trkpt lat="42.19315947178495" lon="13.688963298766371"><ele>671.0</ele><time>2026-04-27T09:25:28.001Z</time></trkpt><trkpt lat="42.193116701179925" lon="13.688880097179343"><ele>671.0</ele><time>2026-04-27T09:25:29.001Z</time></trkpt><trkpt lat="42.19309529543657" lon="13.688782731028192"><ele>671.0</ele><time>2026-04-27T09:25:30.001Z</time></trkpt><trkpt lat="42.193081021699456" lon="13.688673750041897"><ele>672.0</ele><time>2026-04-27T09:25:31.001Z</time></trkpt><trkpt lat="42.19306129351651" lon="13.68855313257669"><ele>673.0</ele><time>2026-04-27T09:25:32.001Z</time></trkpt><trkpt lat="42.19303516591564" lon="13.68843905616822"><ele>674.0</ele><time>2026-04-27T09:25:33.001Z</time></trkpt><trkpt lat="42.19303859681791" lon="13.688322415724597"><ele>675.0</ele><time>2026-04-27T09:25:34.001Z</time></trkpt><trkpt lat="42.19303744930019" lon="13.688193639763199"><ele>676.0</ele><time>2026-04-27T09:25:35.001Z</time></trkpt><trkpt lat="42.19305108751572" lon="13.68805715722493"><ele>676.0</ele><time>2026-04-27T09:25:36.001Z</time></trkpt><trkpt lat="42.193061733273254" lon="13.687923134225388"><ele>676.0</ele><time>2026-04-27T09:25:37.001Z</time></trkpt><trkpt lat="42.193071314508494" lon="13.687818769340407"><ele>676.0</ele><time>2026-04-27T09:25:38.001Z</time></trkpt><trkpt lat="42.19305966830777" lon="13.687685529605336"><ele>676.0</ele><time>2026-04-27T09:25:39.001Z</time></trkpt><trkpt lat="42.19302657152304" lon="13.687542582243983"><ele>676.0</ele><time>2026-04-27T09:25:40.001Z</time></trkpt><trkpt lat="42.192983445616015" lon="13.687410032835583"><ele>676.1999999999999</ele><time>2026-04-27T09:25:41.001Z</time></trkpt><trkpt lat="42.19294819690491" lon="13.687287972063059"><ele>676.4</ele><time>2026-04-27T09:25:42.001Z</time></trkpt><trkpt lat="42.19295232251924" lon="13.687173172352315"><ele>676.6</ele><time>2026-04-27T09:25:43.001Z</time></trkpt><trkpt lat="42.19295796618573" lon="13.687063337751002"><ele>676.8</ele><time>2026-04-27T09:25:44.001Z</time></trkpt><trkpt lat="42.192981865700965" lon="13.686933969238238"><ele>677.0</ele><time>2026-04-27T09:25:45.001Z</time></trkpt><trkpt lat="42.1930030707435" lon="13.686780655389946"><ele>676.5</ele><time>2026-04-27T09:25:46.001Z</time></trkpt><trkpt lat="42.19304750347209" lon="13.686622776350564"><ele>676.0</ele><time>2026-04-27T09:25:47.001Z</time></trkpt><trkpt lat="42.193085487867044" lon="13.68648450313352"><ele>675.5</ele><time>2026-04-27T09:25:48.001Z</time></trkpt><trkpt lat="42.19312736642241" lon="13.68634491900464"><ele>675.0</ele><time>2026-04-27T09:25:49.001Z</time></trkpt><trkpt lat="42.19316425881456" lon="13.686198521436696"><ele>675.0</ele><time>2026-04-27T09:25:50.001Z</time></trkpt><trkpt lat="42.1931978934587" lon="13.686056875769651"><ele>675.0</ele><time>2026-04-27T09:25:51.001Z</time></trkpt><trkpt lat="42.19322259103278" lon="13.6859217146406"><ele>675.0</ele><time>2026-04-27T09:25:52.001Z</time></trkpt><trkpt lat="42.19322825235241" lon="13.685800803902275"><ele>675.0</ele><time>2026-04-27T09:25:53Z</time></trkpt><trkpt lat="42.193212207746285" lon="13.685675646792411"><ele>675.0</ele><time>2026-04-27T09:25:54Z</time></trkpt><trkpt lat="42.19318421813142" lon="13.685556753564533"><ele>674.75</ele><time>2026-04-27T09:25:55Z</time></trkpt><trkpt lat="42.193163519184175" lon="13.68540894522186"><ele>674.5</ele><time>2026-04-27T09:25:56Z</time></trkpt><trkpt lat="42.19316291740588" lon="13.685267832543273"><ele>674.25</ele><time>2026-04-27T09:25:57Z</time></trkpt><trkpt lat="42.193193258475695" lon="13.685121489083839"><ele>674.0</ele><time>2026-04-27T09:25:58Z</time></trkpt><trkpt lat="42.19320606700633" lon="13.684959154332427"><ele>674.0</ele><time>2026-04-27T09:25:59Z</time></trkpt><trkpt lat="42.19319240938359" lon="13.684800005631278"><ele>674.0</ele><time>2026-04-27T09:26:00Z</time></trkpt><trkpt lat="42.19317366271265" lon="13.684646296496007"><ele>674.0</ele><time>2026-04-27T09:26:01Z</time></trkpt><trkpt lat="42.193135133306875" lon="13.684468113479545"><ele>674.0</ele><time>2026-04-27T09:26:02Z</time></trkpt><trkpt lat="42.193099589775" lon="13.684310246194794"><ele>670.75</ele><time>2026-04-27T09:26:03Z</time></trkpt><trkpt lat="42.19306078265428" lon="13.684146129647273"><ele>667.5</ele><time>2026-04-27T09:26:04Z</time></trkpt><trkpt lat="42.19302474759061" lon="13.683984395039834"><ele>664.25</ele><time>2026-04-27T09:26:05Z</time></trkpt><trkpt lat="42.19298810899089" lon="13.683818391234361"><ele>661.0</ele><time>2026-04-27T09:26:06Z</time></trkpt><trkpt lat="42.192950727966085" lon="13.683646481922597"><ele>661.75</ele><time>2026-04-27T09:26:07Z</time></trkpt><trkpt lat="42.19290718884588" lon="13.683490965605628"><ele>662.5</ele><time>2026-04-27T09:26:08Z</time></trkpt><trkpt lat="42.19287171340844" lon="13.683342693061334"><ele>663.25</ele><time>2026-04-27T09:26:09Z</time></trkpt><trkpt lat="42.19284672631828" lon="13.683189937744316"><ele>664.0</ele><time>2026-04-27T09:26:10Z</time></trkpt><trkpt lat="42.19282622666427" lon="13.683022763099293"><ele>664.0</ele><time>2026-04-27T09:26:11Z</time></trkpt><trkpt lat="42.19280208423953" lon="13.68286490645087"><ele>664.0</ele><time>2026-04-27T09:26:12Z</time></trkpt><trkpt lat="42.19277896762219" lon="13.682714926208638"><ele>664.0</ele><time>2026-04-27T09:26:13Z</time></trkpt><trkpt lat="42.192756873675535" lon="13.682567258665054"><ele>664.0</ele><time>2026-04-27T09:26:14Z</time></trkpt><trkpt lat="42.19273170207549" lon="13.682440927861025"><ele>664.0</ele><time>2026-04-27T09:26:15Z</time></trkpt><trkpt lat="42.19271147489535" lon="13.682345013657466"><ele>664.1666666666667</ele><time>2026-04-27T09:26:16Z</time></trkpt><trkpt lat="42.19267891989267" lon="13.682247841905081"><ele>664.3333333333334</ele><time>2026-04-27T09:26:17Z</time></trkpt><trkpt lat="42.19265464153911" lon="13.682159311062929"><ele>664.5</ele><time>2026-04-27T09:26:18Z</time></trkpt><trkpt lat="42.19263556193775" lon="13.682009625569492"><ele>664.6666666666666</ele><time>2026-04-27T09:26:20Z</time></trkpt><trkpt lat="42.19266538043825" lon="13.681921707788522"><ele>664.8333333333333</ele><time>2026-04-27T09:26:21Z</time></trkpt><trkpt lat="42.19270809772054" lon="13.681802418113138"><ele>665.0</ele><time>2026-04-27T09:26:22Z</time></trkpt><trkpt lat="42.19273242764455" lon="13.681706724187661"><ele>665.0</ele><time>2026-04-27T09:26:23Z</time></trkpt><trkpt lat="42.192760677797004" lon="13.681613298916734"><ele>665.0</ele><time>2026-04-27T09:26:24Z</time></trkpt><trkpt lat="42.19275821854251" lon="13.681483289546163"><ele>665.0</ele><time>2026-04-27T09:26:26Z</time></trkpt><trkpt lat="42.19273423118157" lon="13.681324434852236"><ele>665.0</ele><time>2026-04-27T09:26:28Z</time></trkpt><trkpt lat="42.1927534821285" lon="13.68124119757159"><ele>665.0</ele><time>2026-04-27T09:26:29Z</time></trkpt><trkpt lat="42.19277888636351" lon="13.681120319257262"><ele>665.0</ele><time>2026-04-27T09:26:31Z</time></trkpt><trkpt lat="42.192857098604684" lon="13.681034155543731"><ele>662.8333333333333</ele><time>2026-04-27T09:26:33Z</time></trkpt><trkpt lat="42.192913818831364" lon="13.680956386143034"><ele>660.6666666666666</ele><time>2026-04-27T09:26:34Z</time></trkpt><trkpt lat="42.19297218330765" lon="13.680894361230617"><ele>658.5</ele><time>2026-04-27T09:26:35Z</time></trkpt><trkpt lat="42.193026748262135" lon="13.680838319500701"><ele>656.3333333333334</ele><time>2026-04-27T09:26:36Z</time></trkpt><trkpt lat="42.19307444682601" lon="13.680733441075112"><ele>654.1666666666667</ele><time>2026-04-27T09:26:38.001Z</time></trkpt><trkpt lat="42.19304439786506" lon="13.680583389311591"><ele>652.0</ele><time>2026-04-27T09:26:40.001Z</time></trkpt><trkpt lat="42.19300850514596" lon="13.680501716277183"><ele>652.0</ele><time>2026-04-27T09:26:41.001Z</time></trkpt><trkpt lat="42.192986776414635" lon="13.680414994344707"><ele>652.0</ele><time>2026-04-27T09:26:42.001Z</time></trkpt><trkpt lat="42.192972840192326" lon="13.680324283418221"><ele>652.0</ele><time>2026-04-27T09:26:43.001Z</time></trkpt><trkpt lat="42.192964947625185" lon="13.680239449074534"><ele>652.0</ele><time>2026-04-27T09:26:44.001Z</time></trkpt><trkpt lat="42.19297291386558" lon="13.68015140299642"><ele>652.0</ele><time>2026-04-27T09:26:45.001Z</time></trkpt><trkpt lat="42.19295338310526" lon="13.680070370587098"><ele>652.0</ele><time>2026-04-27T09:26:46.001Z</time></trkpt><trkpt lat="42.192945794214125" lon="13.679923743933156"><ele>652.0</ele><time>2026-04-27T09:26:48.001Z</time></trkpt><trkpt lat="42.19294972774845" lon="13.679835231753195"><ele>651.2</ele><time>2026-04-27T09:26:49.001Z</time></trkpt><trkpt lat="42.19299632919065" lon="13.679729179524118"><ele>650.4000000000001</ele><time>2026-04-27T09:26:50.001Z</time></trkpt><trkpt lat="42.193036050572196" lon="13.679593750734607"><ele>649.5999999999999</ele><time>2026-04-27T09:26:51.001Z</time></trkpt><trkpt lat="42.193090964829885" lon="13.679458660992522"><ele>648.8</ele><time>2026-04-27T09:26:52.001Z</time></trkpt><trkpt lat="42.19314070452689" lon="13.67932047917771"><ele>648.0</ele><time>2026-04-27T09:26:53.001Z</time></trkpt><trkpt lat="42.19322034527989" lon="13.679194402181036"><ele>648.0</ele><time>2026-04-27T09:26:54.001Z</time></trkpt><trkpt lat="42.19331098842683" lon="13.679062345762905"><ele>648.0</ele><time>2026-04-27T09:26:55.001Z</time></trkpt><trkpt lat="42.19341233648664" lon="13.67892148730416"><ele>648.0</ele><time>2026-04-27T09:26:56.001Z</time></trkpt><trkpt lat="42.193516527793406" lon="13.678772875783704"><ele>648.0</ele><time>2026-04-27T09:26:57.001Z</time></trkpt><trkpt lat="42.19362274123237" lon="13.678614423846504"><ele>645.0</ele><time>2026-04-27T09:26:58.001Z</time></trkpt><trkpt lat="42.19373268633824" lon="13.678451100025631"><ele>642.0</ele><time>2026-04-27T09:26:59.001Z</time></trkpt><trkpt lat="42.1938413265771" lon="13.6782891503757"><ele>639.0</ele><time>2026-04-27T09:27:00.001Z</time></trkpt><trkpt lat="42.19394418689628" lon="13.678126130917178"><ele>640.3333333333334</ele><time>2026-04-27T09:27:01.001Z</time></trkpt><trkpt lat="42.19406099712477" lon="13.677947140058114"><ele>641.6666666666667</ele><time>2026-04-27T09:27:02.001Z</time></trkpt><trkpt lat="42.19417631616179" lon="13.677766655762717"><ele>643.0</ele><time>2026-04-27T09:27:03.001Z</time></trkpt><trkpt lat="42.19429462876495" lon="13.677581289317516"><ele>643.0</ele><time>2026-04-27T09:27:04.001Z</time></trkpt><trkpt lat="42.19441305152082" lon="13.677397440059375"><ele>643.0</ele><time>2026-04-27T09:27:05.001Z</time></trkpt><trkpt lat="42.194528561401434" lon="13.677209993013664"><ele>643.0</ele><time>2026-04-27T09:27:06.001Z</time></trkpt><trkpt lat="42.19464537078617" lon="13.677017739130253"><ele>644.6666666666667</ele><time>2026-04-27T09:27:07.001Z</time></trkpt><trkpt lat="42.19474960964588" lon="13.676806318029328"><ele>646.3333333333334</ele><time>2026-04-27T09:27:08.001Z</time></trkpt><trkpt lat="42.19485063355102" lon="13.676599622034919"><ele>648.0</ele><time>2026-04-27T09:27:09.001Z</time></trkpt><trkpt lat="42.194945668516205" lon="13.67637173639765"><ele>648.0</ele><time>2026-04-27T09:27:10.001Z</time></trkpt><trkpt lat="42.195038580462736" lon="13.676153551027326"><ele>648.0</ele><time>2026-04-27T09:27:11.001Z</time></trkpt><trkpt lat="42.195123016057764" lon="13.675955935958454"><ele>648.0</ele><time>2026-04-27T09:27:12.001Z</time></trkpt><trkpt lat="42.19521168246648" lon="13.675788645201788"><ele>645.3333333333334</ele><time>2026-04-27T09:27:13.001Z</time></trkpt><trkpt lat="42.19532778107108" lon="13.675640354278936"><ele>642.6666666666667</ele><time>2026-04-27T09:27:14.001Z</time></trkpt><trkpt lat="42.195475915013475" lon="13.675515244568174"><ele>640.0</ele><time>2026-04-27T09:27:15.001Z</time></trkpt><trkpt lat="42.19561194877496" lon="13.675382609389084"><ele>639.6666666666667</ele><time>2026-04-27T09:27:16.001Z</time></trkpt><trkpt lat="42.19576311108746" lon="13.67526918903698"><ele>639.3333333333334</ele><time>2026-04-27T09:27:17.001Z</time></trkpt><trkpt lat="42.19590381157025" lon="13.675141524380237"><ele>639.0</ele><time>2026-04-27T09:27:18.001Z</time></trkpt><trkpt lat="42.1960423705303" lon="13.674998225196463"><ele>639.0</ele><time>2026-04-27T09:27:19.001Z</time></trkpt><trkpt lat="42.19617617478064" lon="13.674824265315955"><ele>639.0</ele><time>2026-04-27T09:27:20.001Z</time></trkpt><trkpt lat="42.19629254772222" lon="13.674643928937495"><ele>639.0</ele><time>2026-04-27T09:27:21.001Z</time></trkpt><trkpt lat="42.19640548814413" lon="13.674447701693031"><ele>638.0</ele><time>2026-04-27T09:27:22.001Z</time></trkpt><trkpt lat="42.196517051543374" lon="13.67425506852876"><ele>637.0</ele><time>2026-04-27T09:27:23.001Z</time></trkpt><trkpt lat="42.196636616694356" lon="13.674061282816997"><ele>636.0</ele><time>2026-04-27T09:27:24.001Z</time></trkpt><trkpt lat="42.19675114933418" lon="13.673863588336761"><ele>636.0</ele><time>2026-04-27T09:27:25.001Z</time></trkpt><trkpt lat="42.19687543323214" lon="13.673668911864675"><ele>636.0</ele><time>2026-04-27T09:27:26.001Z</time></trkpt><trkpt lat="42.19699624641614" lon="13.67346859486612"><ele>636.0</ele><time>2026-04-27T09:27:27.001Z</time></trkpt><trkpt lat="42.19710116303547" lon="13.673261600798073"><ele>633.0</ele><time>2026-04-27T09:27:28.001Z</time></trkpt><trkpt lat="42.19717538016218" lon="13.673048057305524"><ele>630.0</ele><time>2026-04-27T09:27:29.001Z</time></trkpt><trkpt lat="42.19722554468388" lon="13.672844266811138"><ele>627.0</ele><time>2026-04-27T09:27:30.001Z</time></trkpt><trkpt lat="42.19727783044166" lon="13.67266526991578"><ele>628.0</ele><time>2026-04-27T09:27:31.001Z</time></trkpt><trkpt lat="42.19735194612927" lon="13.672524277742756"><ele>629.0</ele><time>2026-04-27T09:27:32.001Z</time></trkpt><trkpt lat="42.19747144092827" lon="13.672432514111303"><ele>630.0</ele><time>2026-04-27T09:27:33.001Z</time></trkpt><trkpt lat="42.197599183220674" lon="13.672352300088416"><ele>631.0</ele><time>2026-04-27T09:27:34.001Z</time></trkpt><trkpt lat="42.19774022104006" lon="13.672307398884206"><ele>631.0</ele><time>2026-04-27T09:27:35.001Z</time></trkpt><trkpt lat="42.19787862397095" lon="13.672341910802299"><ele>631.0</ele><time>2026-04-27T09:27:36.001Z</time></trkpt><trkpt lat="42.1980140835223" lon="13.672421685013127"><ele>631.0</ele><time>2026-04-27T09:27:37.001Z</time></trkpt><trkpt lat="42.19816095868639" lon="13.672478108496868"><ele>631.0</ele><time>2026-04-27T09:27:38.001Z</time></trkpt><trkpt lat="42.19830402800577" lon="13.672495151388071"><ele>632.5</ele><time>2026-04-27T09:27:39.001Z</time></trkpt><trkpt lat="42.198435520574826" lon="13.672501644770685"><ele>634.0</ele><time>2026-04-27T09:27:40.001Z</time></trkpt><trkpt lat="42.19855288256973" lon="13.67246437407549"><ele>635.5</ele><time>2026-04-27T09:27:41.001Z</time></trkpt><trkpt lat="42.19865703072127" lon="13.672382529382872"><ele>637.0</ele><time>2026-04-27T09:27:42.001Z</time></trkpt><trkpt lat="42.19872908362669" lon="13.672261832754296"><ele>637.0</ele><time>2026-04-27T09:27:43.001Z</time></trkpt><trkpt lat="42.19874797941521" lon="13.672125740223313"><ele>637.0</ele><time>2026-04-27T09:27:44.001Z</time></trkpt><trkpt lat="42.19872385885876" lon="13.671973315391332"><ele>637.0</ele><time>2026-04-27T09:27:45.001Z</time></trkpt><trkpt lat="42.198687444273425" lon="13.671830741969409"><ele>637.0</ele><time>2026-04-27T09:27:46.001Z</time></trkpt><trkpt lat="42.19868300828876" lon="13.671671933551217"><ele>637.0</ele><time>2026-04-27T09:27:47.001Z</time></trkpt><trkpt lat="42.19871748853393" lon="13.671511924938102"><ele>636.25</ele><time>2026-04-27T09:27:48.001Z</time></trkpt><trkpt lat="42.198776261737294" lon="13.671356242393028"><ele>635.5</ele><time>2026-04-27T09:27:49.001Z</time></trkpt><trkpt lat="42.198851999927065" lon="13.671213783107747"><ele>634.75</ele><time>2026-04-27T09:27:50.001Z</time></trkpt><trkpt lat="42.198962845549744" lon="13.671113954017168"><ele>634.0</ele><time>2026-04-27T09:27:51.001Z</time></trkpt><trkpt lat="42.19906580701438" lon="13.670987493203757"><ele>634.0</ele><time>2026-04-27T09:27:52.001Z</time></trkpt><trkpt lat="42.1991689643062" lon="13.670870482792786"><ele>634.0</ele><time>2026-04-27T09:27:53.001Z</time></trkpt><trkpt lat="42.19925178610727" lon="13.670712804439672"><ele>634.0</ele><time>2026-04-27T09:27:54.001Z</time></trkpt><trkpt lat="42.19931229884896" lon="13.670541905021778"><ele>634.0</ele><time>2026-04-27T09:27:55.001Z</time></trkpt><trkpt lat="42.199368593378985" lon="13.670362546021753"><ele>629.3333333333334</ele><time>2026-04-27T09:27:56.001Z</time></trkpt><trkpt lat="42.19943729561986" lon="13.670190062538675"><ele>624.6666666666666</ele><time>2026-04-27T09:27:57.001Z</time></trkpt><trkpt lat="42.199520926762766" lon="13.670023249640378"><ele>620.0</ele><time>2026-04-27T09:27:58.001Z</time></trkpt><trkpt lat="42.19962493092343" lon="13.669866662282889"><ele>620.0</ele><time>2026-04-27T09:27:59Z</time></trkpt><trkpt lat="42.19974856861677" lon="13.669721046218918"><ele>620.0</ele><time>2026-04-27T09:28:00Z</time></trkpt><trkpt lat="42.19986915157682" lon="13.669583822251898"><ele>620.0</ele><time>2026-04-27T09:28:01Z</time></trkpt><trkpt lat="42.199995968634845" lon="13.66944115948869"><ele>622.5</ele><time>2026-04-27T09:28:02Z</time></trkpt><trkpt lat="42.20011133389913" lon="13.669311074869517"><ele>625.0</ele><time>2026-04-27T09:28:03Z</time></trkpt><trkpt lat="42.20022044154678" lon="13.669170416377373"><ele>627.5</ele><time>2026-04-27T09:28:04Z</time></trkpt><trkpt lat="42.20030102955366" lon="13.669014523546933"><ele>630.0</ele><time>2026-04-27T09:28:05Z</time></trkpt><trkpt lat="42.20036863361789" lon="13.668847982359617"><ele>630.0</ele><time>2026-04-27T09:28:06Z</time></trkpt><trkpt lat="42.200415194814966" lon="13.668708895763897"><ele>630.0</ele><time>2026-04-27T09:28:07Z</time></trkpt><trkpt lat="42.20045263967782" lon="13.668591609199792"><ele>630.0</ele><time>2026-04-27T09:28:08Z</time></trkpt><trkpt lat="42.2004881290796" lon="13.66847703819269"><ele>630.0</ele><time>2026-04-27T09:28:10Z</time></trkpt><trkpt lat="42.20031925893169" lon="13.668477597861923"><ele>630.0</ele><time>2026-04-27T09:28:13Z</time></trkpt><trkpt lat="42.20023282265039" lon="13.668513914415108"><ele>630.0</ele><time>2026-04-27T09:28:14Z</time></trkpt><trkpt lat="42.200156645254175" lon="13.668574196376778"><ele>630.0</ele><time>2026-04-27T09:28:15Z</time></trkpt><trkpt lat="42.20008906016682" lon="13.668627130513633"><ele>630.0</ele><time>2026-04-27T09:28:16Z</time></trkpt><trkpt lat="42.20002134835513" lon="13.66868898411142"><ele>630.0</ele><time>2026-04-27T09:28:17Z</time></trkpt><trkpt lat="42.19992399508795" lon="13.668816613558588"><ele>630.0</ele><time>2026-04-27T09:28:18Z</time></trkpt><trkpt lat="42.19983677080172" lon="13.668936798457564"><ele>630.0</ele><time>2026-04-27T09:28:19Z</time></trkpt><trkpt lat="42.19976033239264" lon="13.669071512948491"><ele>630.0</ele><time>2026-04-27T09:28:20Z</time></trkpt><trkpt lat="42.19966892595434" lon="13.669171673773182"><ele>630.0</ele><time>2026-04-27T09:28:21Z</time></trkpt><trkpt lat="42.19959958731687" lon="13.669274081157349"><ele>628.0</ele><time>2026-04-27T09:28:22Z</time></trkpt><trkpt lat="42.19954261625909" lon="13.669379381568502"><ele>626.0</ele><time>2026-04-27T09:28:23Z</time></trkpt><trkpt lat="42.19950052167905" lon="13.669458353152216"><ele>624.0</ele><time>2026-04-27T09:28:24Z</time></trkpt><trkpt lat="42.199427913990895" lon="13.66951765157873"><ele>622.0</ele><time>2026-04-27T09:28:26Z</time></trkpt><trkpt lat="42.199357052844675" lon="13.669404300982862"><ele>620.0</ele><time>2026-04-27T09:28:28Z</time></trkpt><trkpt lat="42.199405202095505" lon="13.669291080579159"><ele>616.5</ele><time>2026-04-27T09:28:29Z</time></trkpt><trkpt lat="42.1994201519587" lon="13.669143274058008"><ele>613.0</ele><time>2026-04-27T09:28:30Z</time></trkpt><trkpt lat="42.19943166709322" lon="13.668980236809796"><ele>609.5</ele><time>2026-04-27T09:28:31Z</time></trkpt><trkpt lat="42.19944079514146" lon="13.668812188114105"><ele>606.0</ele><time>2026-04-27T09:28:32Z</time></trkpt><trkpt lat="42.199435506799325" lon="13.668652249405758"><ele>605.0</ele><time>2026-04-27T09:28:33Z</time></trkpt><trkpt lat="42.19940917731438" lon="13.668495743784574"><ele>604.0</ele><time>2026-04-27T09:28:34Z</time></trkpt><trkpt lat="42.199368946114305" lon="13.668326018832149"><ele>603.0</ele><time>2026-04-27T09:28:35Z</time></trkpt><trkpt lat="42.19932242063898" lon="13.668152823858883"><ele>602.0</ele><time>2026-04-27T09:28:36Z</time></trkpt><trkpt lat="42.19926885212908" lon="13.66797575731004"><ele>602.0</ele><time>2026-04-27T09:28:37Z</time></trkpt><trkpt lat="42.19923454521253" lon="13.667811496703834"><ele>602.0</ele><time>2026-04-27T09:28:38Z</time></trkpt><trkpt lat="42.19920974581779" lon="13.667661794897413"><ele>602.0</ele><time>2026-04-27T09:28:39Z</time></trkpt><trkpt lat="42.19918473818853" lon="13.667549667583113"><ele>602.0</ele><time>2026-04-27T09:28:40Z</time></trkpt><trkpt lat="42.19917656081415" lon="13.667394360402078"><ele>602.0</ele><time>2026-04-27T09:28:42Z</time></trkpt><trkpt lat="42.19912405152521" lon="13.667267500359234"><ele>603.5</ele><time>2026-04-27T09:28:44Z</time></trkpt><trkpt lat="42.19910134622983" lon="13.667171149458722"><ele>605.0</ele><time>2026-04-27T09:28:45Z</time></trkpt><trkpt lat="42.19927689762825" lon="13.666967973118778"><ele>606.5</ele><time>2026-04-27T09:28:46Z</time></trkpt><trkpt lat="42.19929204962706" lon="13.666842473581882"><ele>608.0</ele><time>2026-04-27T09:28:47Z</time></trkpt><trkpt lat="42.19927558282238" lon="13.66672670009112"><ele>608.1999999999999</ele><time>2026-04-27T09:28:48Z</time></trkpt><trkpt lat="42.19925868854797" lon="13.66657430872603"><ele>608.4</ele><time>2026-04-27T09:28:49Z</time></trkpt><trkpt lat="42.19923909007318" lon="13.66644370323504"><ele>608.5999999999999</ele><time>2026-04-27T09:28:50Z</time></trkpt><trkpt lat="42.19923006003131" lon="13.666323508590128"><ele>608.8</ele><time>2026-04-27T09:28:51Z</time></trkpt><trkpt lat="42.199235287200366" lon="13.66623111768609"><ele>609.0</ele><time>2026-04-27T09:28:52Z</time></trkpt><trkpt lat="42.199246682652415" lon="13.666118453795152"><ele>608.2</ele><time>2026-04-27T09:28:53Z</time></trkpt><trkpt lat="42.19926903297916" lon="13.665991873618605"><ele>607.4</ele><time>2026-04-27T09:28:54Z</time></trkpt><trkpt lat="42.19930179746988" lon="13.665861747605076"><ele>606.6</ele><time>2026-04-27T09:28:55Z</time></trkpt><trkpt lat="42.199360641119924" lon="13.665762714927062"><ele>605.8</ele><time>2026-04-27T09:28:56Z</time></trkpt><trkpt lat="42.19942440536289" lon="13.665672944247127"><ele>605.0</ele><time>2026-04-27T09:28:57.001Z</time></trkpt><trkpt lat="42.19950483011726" lon="13.665552667041869"><ele>605.0</ele><time>2026-04-27T09:28:58.001Z</time></trkpt><trkpt lat="42.199566772624785" lon="13.665451707194526"><ele>605.0</ele><time>2026-04-27T09:28:59.001Z</time></trkpt><trkpt lat="42.19960747235766" lon="13.66535144237194"><ele>605.0</ele><time>2026-04-27T09:29:00.001Z</time></trkpt><trkpt lat="42.199654424400265" lon="13.665263680288295"><ele>605.0</ele><time>2026-04-27T09:29:01.001Z</time></trkpt><trkpt lat="42.19971074138003" lon="13.665200059348036"><ele>605.0</ele><time>2026-04-27T09:29:02.001Z</time></trkpt><trkpt lat="42.199786133644785" lon="13.66513191542874"><ele>605.0</ele><time>2026-04-27T09:29:03.001Z</time></trkpt><trkpt lat="42.1998686757917" lon="13.665042675180533"><ele>605.0</ele><time>2026-04-27T09:29:04.001Z</time></trkpt><trkpt lat="42.19993493337354" lon="13.66497947518924"><ele>605.0</ele><time>2026-04-27T09:29:05.001Z</time></trkpt><trkpt lat="42.20000934681542" lon="13.664930150140139"><ele>605.0</ele><time>2026-04-27T09:29:06.001Z</time></trkpt><trkpt lat="42.20008205256911" lon="13.664877320905598"><ele>605.0</ele><time>2026-04-27T09:29:07.001Z</time></trkpt><trkpt lat="42.200166426481296" lon="13.664810940872329"><ele>605.0</ele><time>2026-04-27T09:29:08.001Z</time></trkpt><trkpt lat="42.20026925586714" lon="13.664769270694524"><ele>605.0</ele><time>2026-04-27T09:29:09.001Z</time></trkpt><trkpt lat="42.200368284289695" lon="13.664742041238773"><ele>605.0</ele><time>2026-04-27T09:29:10.001Z</time></trkpt><trkpt lat="42.20045099550151" lon="13.664709524761626"><ele>605.0</ele><time>2026-04-27T09:29:11.001Z</time></trkpt><trkpt lat="42.20052274773474" lon="13.664667989251221"><ele>605.0</ele><time>2026-04-27T09:29:12.001Z</time></trkpt><trkpt lat="42.20060062354271" lon="13.66463383585696"><ele>605.0</ele><time>2026-04-27T09:29:13.001Z</time></trkpt><trkpt lat="42.20069071142452" lon="13.664566821470947"><ele>604.1666666666666</ele><time>2026-04-27T09:29:14.001Z</time></trkpt><trkpt lat="42.200768729514174" lon="13.664513980471767"><ele>603.3333333333333</ele><time>2026-04-27T09:29:15.001Z</time></trkpt><trkpt lat="42.20083508795094" lon="13.66448031597512"><ele>602.5</ele><time>2026-04-27T09:29:16.001Z</time></trkpt><trkpt lat="42.2008851122247" lon="13.664424839228106"><ele>601.6666666666666</ele><time>2026-04-27T09:29:17.001Z</time></trkpt><trkpt lat="42.200953193514025" lon="13.664322564870872"><ele>600.8333333333334</ele><time>2026-04-27T09:29:18.001Z</time></trkpt><trkpt lat="42.20102882032588" lon="13.664216279194694"><ele>600.0</ele><time>2026-04-27T09:29:19.001Z</time></trkpt><trkpt lat="42.20109157761969" lon="13.664153050769594"><ele>597.0</ele><time>2026-04-27T09:29:20.001Z</time></trkpt><trkpt lat="42.20115898773346" lon="13.664086738838062"><ele>594.0</ele><time>2026-04-27T09:29:21.001Z</time></trkpt><trkpt lat="42.20121543539209" lon="13.664048561085872"><ele>591.0</ele><time>2026-04-27T09:29:22.001Z</time></trkpt><trkpt lat="42.20127462721737" lon="13.664009895113614"><ele>588.0</ele><time>2026-04-27T09:29:23.001Z</time></trkpt><trkpt lat="42.201339734768005" lon="13.663961732694702"><ele>585.0</ele><time>2026-04-27T09:29:24.001Z</time></trkpt><trkpt lat="42.20154484793234" lon="13.663952303324047"><ele>584.2</ele><time>2026-04-27T09:29:25.001Z</time></trkpt><trkpt lat="42.20167356450896" lon="13.663906270344349"><ele>583.4</ele><time>2026-04-27T09:29:26.001Z</time></trkpt><trkpt lat="42.20178315193876" lon="13.66386812180763"><ele>582.6</ele><time>2026-04-27T09:29:27.001Z</time></trkpt><trkpt lat="42.20187072743659" lon="13.66382873203516"><ele>581.8</ele><time>2026-04-27T09:29:28.001Z</time></trkpt><trkpt lat="42.20191972288189" lon="13.663771967131574"><ele>581.0</ele><time>2026-04-27T09:29:29.001Z</time></trkpt><trkpt lat="42.20194622281107" lon="13.663691307942857"><ele>578.0</ele><time>2026-04-27T09:29:30.001Z</time></trkpt><trkpt lat="42.201982953377986" lon="13.663569267841146"><ele>575.0</ele><time>2026-04-27T09:29:31.001Z</time></trkpt><trkpt lat="42.20203027917186" lon="13.663419657591566"><ele>572.0</ele><time>2026-04-27T09:29:32.001Z</time></trkpt><trkpt lat="42.20210190911346" lon="13.663259675635171"><ele>569.0</ele><time>2026-04-27T09:29:33.001Z</time></trkpt><trkpt lat="42.20216868779034" lon="13.663099632032218"><ele>569.0</ele><time>2026-04-27T09:29:34.001Z</time></trkpt><trkpt lat="42.20223563960729" lon="13.66295682995056"><ele>569.0</ele><time>2026-04-27T09:29:35.001Z</time></trkpt><trkpt lat="42.20229507225487" lon="13.662806117776398"><ele>569.0</ele><time>2026-04-27T09:29:36.001Z</time></trkpt><trkpt lat="42.20234110746301" lon="13.662639615984107"><ele>569.0</ele><time>2026-04-27T09:29:37.001Z</time></trkpt><trkpt lat="42.20237182948717" lon="13.662484080504896"><ele>569.0</ele><time>2026-04-27T09:29:38.001Z</time></trkpt><trkpt lat="42.20241193748108" lon="13.662332269401123"><ele>569.0</ele><time>2026-04-27T09:29:39.001Z</time></trkpt><trkpt lat="42.202460874430294" lon="13.66216693669683"><ele>569.0</ele><time>2026-04-27T09:29:40.001Z</time></trkpt><trkpt lat="42.202509956903306" lon="13.66200618663218"><ele>569.0</ele><time>2026-04-27T09:29:41.001Z</time></trkpt><trkpt lat="42.20255452478969" lon="13.661848496011556"><ele>568.2</ele><time>2026-04-27T09:29:42.001Z</time></trkpt><trkpt lat="42.202585543766155" lon="13.66170459756693"><ele>567.4</ele><time>2026-04-27T09:29:43.001Z</time></trkpt><trkpt lat="42.20261813809372" lon="13.661559202053873"><ele>566.6</ele><time>2026-04-27T09:29:44.001Z</time></trkpt><trkpt lat="42.202658152797206" lon="13.661416600827902"><ele>565.8</ele><time>2026-04-27T09:29:45.001Z</time></trkpt><trkpt lat="42.20270903797481" lon="13.661288786718094"><ele>565.0</ele><time>2026-04-27T09:29:46.001Z</time></trkpt><trkpt lat="42.20277851619334" lon="13.661147601348917"><ele>564.0</ele><time>2026-04-27T09:29:47.001Z</time></trkpt><trkpt lat="42.202828231902345" lon="13.660986787281223"><ele>563.0</ele><time>2026-04-27T09:29:48.001Z</time></trkpt><trkpt lat="42.20285872441383" lon="13.660844243333202"><ele>562.0</ele><time>2026-04-27T09:29:49.001Z</time></trkpt><trkpt lat="42.202885121987116" lon="13.660698876216225"><ele>561.0</ele><time>2026-04-27T09:29:50.001Z</time></trkpt><trkpt lat="42.20291334092781" lon="13.660553818580075"><ele>561.0</ele><time>2026-04-27T09:29:51.001Z</time></trkpt><trkpt lat="42.20294381367878" lon="13.660405635744903"><ele>561.0</ele><time>2026-04-27T09:29:52.001Z</time></trkpt><trkpt lat="42.20296805558597" lon="13.660240566017825"><ele>561.0</ele><time>2026-04-27T09:29:53.001Z</time></trkpt><trkpt lat="42.20299376865393" lon="13.660093774800467"><ele>561.0</ele><time>2026-04-27T09:29:54.001Z</time></trkpt><trkpt lat="42.20303422482048" lon="13.659962183269064"><ele>559.75</ele><time>2026-04-27T09:29:55.001Z</time></trkpt><trkpt lat="42.20309014133773" lon="13.659820688901965"><ele>558.5</ele><time>2026-04-27T09:29:56.001Z</time></trkpt><trkpt lat="42.20315592755025" lon="13.659669678584844"><ele>557.25</ele><time>2026-04-27T09:29:57.001Z</time></trkpt><trkpt lat="42.20320268678145" lon="13.659521708159554"><ele>556.0</ele><time>2026-04-27T09:29:58.001Z</time></trkpt><trkpt lat="42.20323917368031" lon="13.659361838111982"><ele>553.6</ele><time>2026-04-27T09:29:59.001Z</time></trkpt><trkpt lat="42.203286175386296" lon="13.659218855745184"><ele>551.2</ele><time>2026-04-27T09:30:00.001Z</time></trkpt><trkpt lat="42.20334983214957" lon="13.65909130797443"><ele>548.8</ele><time>2026-04-27T09:30:01.001Z</time></trkpt><trkpt lat="42.203409410472446" lon="13.658987705629178"><ele>546.4</ele><time>2026-04-27T09:30:02.001Z</time></trkpt><trkpt lat="42.203452798597475" lon="13.658909354513277"><ele>544.0</ele><time>2026-04-27T09:30:03.001Z</time></trkpt><trkpt lat="42.20350653359142" lon="13.658778260861197"><ele>544.0</ele><time>2026-04-27T09:30:05Z</time></trkpt><trkpt lat="42.20354169390159" lon="13.6586886240593"><ele>544.0</ele><time>2026-04-27T09:30:07Z</time></trkpt><trkpt lat="42.20353298810956" lon="13.658565002571912"><ele>544.0</ele><time>2026-04-27T09:30:10Z</time></trkpt><trkpt lat="42.20343921018154" lon="13.658499174635027"><ele>544.0</ele><time>2026-04-27T09:30:12Z</time></trkpt><trkpt lat="42.2033432756346" lon="13.65847900799593"><ele>544.0</ele><time>2026-04-27T09:30:13Z</time></trkpt><trkpt lat="42.203237858600815" lon="13.658454012915577"><ele>541.4</ele><time>2026-04-27T09:30:14Z</time></trkpt><trkpt lat="42.20313062871431" lon="13.65841197129954"><ele>538.8</ele><time>2026-04-27T09:30:15Z</time></trkpt><trkpt lat="42.20302651312654" lon="13.658365639070878"><ele>536.2</ele><time>2026-04-27T09:30:16Z</time></trkpt><trkpt lat="42.20293316436661" lon="13.658319958184546"><ele>533.6</ele><time>2026-04-27T09:30:17Z</time></trkpt><trkpt lat="42.2028482342565" lon="13.658269013927349"><ele>531.0</ele><time>2026-04-27T09:30:18Z</time></trkpt><trkpt lat="42.202772543556065" lon="13.658210156077034"><ele>531.0</ele><time>2026-04-27T09:30:19Z</time></trkpt><trkpt lat="42.202705420758456" lon="13.658134110601193"><ele>531.0</ele><time>2026-04-27T09:30:20Z</time></trkpt><trkpt lat="42.20264411545852" lon="13.65806064956363"><ele>531.0</ele><time>2026-04-27T09:30:21Z</time></trkpt><trkpt lat="42.20257361424295" lon="13.657974711735712"><ele>531.0</ele><time>2026-04-27T09:30:22Z</time></trkpt><trkpt lat="42.202502547625485" lon="13.6579009467041"><ele>531.0</ele><time>2026-04-27T09:30:23Z</time></trkpt><trkpt lat="42.20243290092981" lon="13.657834203325347"><ele>531.0</ele><time>2026-04-27T09:30:24Z</time></trkpt><trkpt lat="42.20235359388419" lon="13.657753201378272"><ele>528.2</ele><time>2026-04-27T09:30:25Z</time></trkpt><trkpt lat="42.20228231814167" lon="13.657679147560788"><ele>525.4000000000001</ele><time>2026-04-27T09:30:26Z</time></trkpt><trkpt lat="42.20221036094545" lon="13.657607596026901"><ele>522.6</ele><time>2026-04-27T09:30:27Z</time></trkpt><trkpt lat="42.2021285114517" lon="13.657541271899538"><ele>519.8000000000001</ele><time>2026-04-27T09:30:28Z</time></trkpt><trkpt lat="42.20203980854452" lon="13.657496897546993"><ele>517.0</ele><time>2026-04-27T09:30:29Z</time></trkpt><trkpt lat="42.20194023210273" lon="13.657470200297395"><ele>517.0</ele><time>2026-04-27T09:30:30Z</time></trkpt><trkpt lat="42.201840983001034" lon="13.657466637771343"><ele>517.0</ele><time>2026-04-27T09:30:31Z</time></trkpt><trkpt lat="42.20173717319368" lon="13.657471993780026"><ele>517.0</ele><time>2026-04-27T09:30:32Z</time></trkpt><trkpt lat="42.20163166970465" lon="13.657489171250376"><ele>517.0</ele><time>2026-04-27T09:30:33Z</time></trkpt><trkpt lat="42.201518829453036" lon="13.657510457577121"><ele>517.0</ele><time>2026-04-27T09:30:34Z</time></trkpt><trkpt lat="42.201398518601266" lon="13.657533996267347"><ele>517.75</ele><time>2026-04-27T09:30:35Z</time></trkpt><trkpt lat="42.201283612597095" lon="13.657562670633682"><ele>518.5</ele><time>2026-04-27T09:30:36Z</time></trkpt><trkpt lat="42.201167792302684" lon="13.657608394937705"><ele>519.25</ele><time>2026-04-27T09:30:37Z</time></trkpt><trkpt lat="42.20105792743268" lon="13.657683235208804"><ele>520.0</ele><time>2026-04-27T09:30:38Z</time></trkpt><trkpt lat="42.200953735720276" lon="13.657815433092463"><ele>520.0</ele><time>2026-04-27T09:30:39Z</time></trkpt><trkpt lat="42.200847895488195" lon="13.657973120639387"><ele>520.0</ele><time>2026-04-27T09:30:40Z</time></trkpt><trkpt lat="42.20073591839157" lon="13.65811556552859"><ele>520.0</ele><time>2026-04-27T09:30:41Z</time></trkpt><trkpt lat="42.20061778777106" lon="13.658217559850844"><ele>516.0</ele><time>2026-04-27T09:30:42Z</time></trkpt><trkpt lat="42.20047524535264" lon="13.658249786348284"><ele>512.0</ele><time>2026-04-27T09:30:43Z</time></trkpt><trkpt lat="42.20032587650079" lon="13.658303429118936"><ele>508.0</ele><time>2026-04-27T09:30:44Z</time></trkpt><trkpt lat="42.20016546499895" lon="13.658328842247244"><ele>508.0</ele><time>2026-04-27T09:30:45Z</time></trkpt><trkpt lat="42.20001192822424" lon="13.658357172399517"><ele>508.0</ele><time>2026-04-27T09:30:46Z</time></trkpt><trkpt lat="42.19985214342836" lon="13.658390398358891"><ele>508.0</ele><time>2026-04-27T09:30:47Z</time></trkpt><trkpt lat="42.19969896509497" lon="13.658437945417402"><ele>508.0</ele><time>2026-04-27T09:30:48Z</time></trkpt><trkpt lat="42.19956006678172" lon="13.65852504821928"><ele>508.0</ele><time>2026-04-27T09:30:49Z</time></trkpt><trkpt lat="42.19942151345237" lon="13.658644461950004"><ele>508.0</ele><time>2026-04-27T09:30:50Z</time></trkpt><trkpt lat="42.19929346353816" lon="13.658796283957598"><ele>508.0</ele><time>2026-04-27T09:30:51Z</time></trkpt><trkpt lat="42.19917116576534" lon="13.658935634921392"><ele>508.0</ele><time>2026-04-27T09:30:52.001Z</time></trkpt><trkpt lat="42.19905719391669" lon="13.659057934961119"><ele>508.0</ele><time>2026-04-27T09:30:53.001Z</time></trkpt><trkpt lat="42.1989409160539" lon="13.659171350781957"><ele>508.0</ele><time>2026-04-27T09:30:54.001Z</time></trkpt><trkpt lat="42.19883377477919" lon="13.659272484418047"><ele>505.25</ele><time>2026-04-27T09:30:55.001Z</time></trkpt><trkpt lat="42.19871900903509" lon="13.659307115776064"><ele>502.5</ele><time>2026-04-27T09:30:56.001Z</time></trkpt><trkpt lat="42.198604729951775" lon="13.659298472725622"><ele>499.75</ele><time>2026-04-27T09:30:57.001Z</time></trkpt><trkpt lat="42.19847548382432" lon="13.659266742349628"><ele>497.0</ele><time>2026-04-27T09:30:58.001Z</time></trkpt><trkpt lat="42.1983536337126" lon="13.65924786040729"><ele>497.0</ele><time>2026-04-27T09:30:59.001Z</time></trkpt><trkpt lat="42.19825261818081" lon="13.659197973346593"><ele>497.00000000000006</ele><time>2026-04-27T09:31:00.001Z</time></trkpt><trkpt lat="42.198178081674705" lon="13.659207810427114"><ele>497.00000000000006</ele><time>2026-04-27T09:31:01.001Z</time></trkpt><trkpt lat="42.19814884525016" lon="13.659026673929855"><ele>497.0</ele><time>2026-04-27T09:31:02.001Z</time></trkpt><trkpt lat="42.19809745230599" lon="13.658927667972879"><ele>497.0</ele><time>2026-04-27T09:31:03.001Z</time></trkpt><trkpt lat="42.198068408200555" lon="13.658784077488932"><ele>496.5</ele><time>2026-04-27T09:31:04.001Z</time></trkpt><trkpt lat="42.19802082494024" lon="13.6586210475212"><ele>496.0</ele><time>2026-04-27T09:31:05.001Z</time></trkpt><trkpt lat="42.197959326298815" lon="13.658454937783493"><ele>495.5</ele><time>2026-04-27T09:31:06.001Z</time></trkpt><trkpt lat="42.197883874201935" lon="13.658298558905758"><ele>495.0</ele><time>2026-04-27T09:31:07.001Z</time></trkpt><trkpt lat="42.19778974161404" lon="13.65815221372012"><ele>494.33333333333337</ele><time>2026-04-27T09:31:08.001Z</time></trkpt><trkpt lat="42.19769085015627" lon="13.658001980196854"><ele>493.6666666666667</ele><time>2026-04-27T09:31:09.001Z</time></trkpt><trkpt lat="42.19759346078659" lon="13.657847627931064"><ele>493.0</ele><time>2026-04-27T09:31:10.001Z</time></trkpt><trkpt lat="42.19749266260846" lon="13.657690347104918"><ele>493.0</ele><time>2026-04-27T09:31:11.001Z</time></trkpt><trkpt lat="42.19738887058087" lon="13.65753090221137"><ele>493.0</ele><time>2026-04-27T09:31:12.001Z</time></trkpt><trkpt lat="42.19728204561519" lon="13.65736271792838"><ele>493.0</ele><time>2026-04-27T09:31:13.001Z</time></trkpt><trkpt lat="42.19717265110652" lon="13.657193020648629"><ele>493.0</ele><time>2026-04-27T09:31:14.001Z</time></trkpt><trkpt lat="42.19706917319671" lon="13.657031312076741"><ele>493.0</ele><time>2026-04-27T09:31:15.001Z</time></trkpt><trkpt lat="42.19695819733237" lon="13.65686231992393"><ele>493.0</ele><time>2026-04-27T09:31:16.001Z</time></trkpt><trkpt lat="42.19684952858364" lon="13.656690357743422"><ele>493.0</ele><time>2026-04-27T09:31:17.001Z</time></trkpt><trkpt lat="42.196734101700294" lon="13.656514811667039"><ele>493.0</ele><time>2026-04-27T09:31:18.001Z</time></trkpt><trkpt lat="42.19662859402757" lon="13.656346636743569"><ele>493.0</ele><time>2026-04-27T09:31:19.001Z</time></trkpt><trkpt lat="42.19652222188166" lon="13.656173485251813"><ele>495.6666666666667</ele><time>2026-04-27T09:31:20.001Z</time></trkpt><trkpt lat="42.19641120270025" lon="13.655996572879245"><ele>498.33333333333337</ele><time>2026-04-27T09:31:21.001Z</time></trkpt><trkpt lat="42.19629435557128" lon="13.655819904990823"><ele>501.0</ele><time>2026-04-27T09:31:22.001Z</time></trkpt><trkpt lat="42.19618488629037" lon="13.655645560395687"><ele>501.0</ele><time>2026-04-27T09:31:23.001Z</time></trkpt><trkpt lat="42.19606694874728" lon="13.655464322422837"><ele>501.0</ele><time>2026-04-27T09:31:24.001Z</time></trkpt><trkpt lat="42.1959569501955" lon="13.655284254528606"><ele>501.0</ele><time>2026-04-27T09:31:25.001Z</time></trkpt><trkpt lat="42.19584165816355" lon="13.655108202149243"><ele>502.33333333333337</ele><time>2026-04-27T09:31:26.001Z</time></trkpt><trkpt lat="42.19572748411273" lon="13.654927748224441"><ele>503.6666666666667</ele><time>2026-04-27T09:31:27.001Z</time></trkpt><trkpt lat="42.1956521611861" lon="13.654727574867263"><ele>505.0</ele><time>2026-04-27T09:31:28.001Z</time></trkpt><trkpt lat="42.195603703744794" lon="13.654505764106236"><ele>513.0</ele><time>2026-04-27T09:31:29.001Z</time></trkpt><trkpt lat="42.19558673989035" lon="13.654265979979249"><ele>521.0</ele><time>2026-04-27T09:31:30.001Z</time></trkpt><trkpt lat="42.19561258460342" lon="13.654032186076705"><ele>529.0</ele><time>2026-04-27T09:31:31.001Z</time></trkpt><trkpt lat="42.1956416736371" lon="13.653798735827085"><ele>526.3333333333334</ele><time>2026-04-27T09:31:32.001Z</time></trkpt><trkpt lat="42.195690539883685" lon="13.65357191316572"><ele>523.6666666666666</ele><time>2026-04-27T09:31:33.001Z</time></trkpt><trkpt lat="42.195731912026595" lon="13.653340860640148"><ele>521.0</ele><time>2026-04-27T09:31:34.001Z</time></trkpt><trkpt lat="42.19576788152829" lon="13.653111899580923"><ele>521.0</ele><time>2026-04-27T09:31:35.001Z</time></trkpt><trkpt lat="42.19580670673465" lon="13.652883969943732"><ele>521.0</ele><time>2026-04-27T09:31:36.001Z</time></trkpt><trkpt lat="42.195847766701554" lon="13.652652775331667"><ele>521.0</ele><time>2026-04-27T09:31:37.001Z</time></trkpt><trkpt lat="42.19588892166499" lon="13.652415939844436"><ele>522.6666666666666</ele><time>2026-04-27T09:31:38.001Z</time></trkpt><trkpt lat="42.19592747441442" lon="13.65218420656984"><ele>524.3333333333334</ele><time>2026-04-27T09:31:39.001Z</time></trkpt><trkpt lat="42.19596240839421" lon="13.651951605844873"><ele>526.0</ele><time>2026-04-27T09:31:40.001Z</time></trkpt><trkpt lat="42.195997568625465" lon="13.651712339530022"><ele>527.6666666666667</ele><time>2026-04-27T09:31:41.001Z</time></trkpt><trkpt lat="42.19603613957115" lon="13.651479787181085"><ele>529.3333333333334</ele><time>2026-04-27T09:31:42.001Z</time></trkpt><trkpt lat="42.1960797806917" lon="13.651246694403625"><ele>531.0</ele><time>2026-04-27T09:31:43.001Z</time></trkpt><trkpt lat="42.1961182676061" lon="13.651006665700207"><ele>532.3333333333334</ele><time>2026-04-27T09:31:44.001Z</time></trkpt><trkpt lat="42.19615765827901" lon="13.650772700106929"><ele>533.6666666666667</ele><time>2026-04-27T09:31:45.001Z</time></trkpt><trkpt lat="42.19619219721138" lon="13.650530645389422"><ele>535.0</ele><time>2026-04-27T09:31:46.001Z</time></trkpt><trkpt lat="42.19623677894489" lon="13.650294407401587"><ele>537.3333333333334</ele><time>2026-04-27T09:31:47.001Z</time></trkpt><trkpt lat="42.1962762521392" lon="13.65005009309612"><ele>539.6666666666666</ele><time>2026-04-27T09:31:48.001Z</time></trkpt><trkpt lat="42.196312310495635" lon="13.649818517110745"><ele>542.0</ele><time>2026-04-27T09:31:49.001Z</time></trkpt><trkpt lat="42.19635048325474" lon="13.649573568216324"><ele>543.6666666666666</ele><time>2026-04-27T09:31:50.001Z</time></trkpt><trkpt lat="42.19639106905112" lon="13.64933865653791"><ele>545.3333333333334</ele><time>2026-04-27T09:31:51.001Z</time></trkpt><trkpt lat="42.19643163478906" lon="13.649109752223595"><ele>547.0</ele><time>2026-04-27T09:31:52.001Z</time></trkpt><trkpt lat="42.196473571553625" lon="13.648877768706269"><ele>547.0</ele><time>2026-04-27T09:31:53.001Z</time></trkpt><trkpt lat="42.196516031861215" lon="13.64866822352841"><ele>547.0</ele><time>2026-04-27T09:31:54.001Z</time></trkpt><trkpt lat="42.1965454176212" lon="13.648480232510567"><ele>547.0</ele><time>2026-04-27T09:31:55.001Z</time></trkpt><trkpt lat="42.19657812407426" lon="13.64833508320171"><ele>547.0</ele><time>2026-04-27T09:31:56.001Z</time></trkpt><trkpt lat="42.196609279212986" lon="13.6481952926318"><ele>547.0</ele><time>2026-04-27T09:31:57.001Z</time></trkpt><trkpt lat="42.196634947786805" lon="13.648071201400896"><ele>547.0</ele><time>2026-04-27T09:31:58.001Z</time></trkpt><trkpt lat="42.196650764236054" lon="13.647963532745703"><ele>547.0</ele><time>2026-04-27T09:31:59.001Z</time></trkpt><trkpt lat="42.196656716607365" lon="13.64786518519933"><ele>547.0</ele><time>2026-04-27T09:32:00.001Z</time></trkpt><trkpt lat="42.19668579095944" lon="13.64775257855827"><ele>547.0</ele><time>2026-04-27T09:32:02.001Z</time></trkpt><trkpt lat="42.196514736369" lon="13.647705935323303"><ele>549.2</ele><time>2026-04-27T09:32:06.001Z</time></trkpt><trkpt lat="42.19644053436922" lon="13.647789402472865"><ele>551.4000000000001</ele><time>2026-04-27T09:32:07.001Z</time></trkpt><trkpt lat="42.19636929534916" lon="13.647891940150304"><ele>553.5999999999999</ele><time>2026-04-27T09:32:08.001Z</time></trkpt><trkpt lat="42.19629477317494" lon="13.647993868945882"><ele>555.8</ele><time>2026-04-27T09:32:09.002Z</time></trkpt><trkpt lat="42.19620781835168" lon="13.648097113032183"><ele>558.0</ele><time>2026-04-27T09:32:10.002Z</time></trkpt><trkpt lat="42.19611130941354" lon="13.648209034314855"><ele>558.0</ele><time>2026-04-27T09:32:11Z</time></trkpt><trkpt lat="42.19600684874755" lon="13.648325112256936"><ele>558.0</ele><time>2026-04-27T09:32:12Z</time></trkpt><trkpt lat="42.195898541746026" lon="13.648428289507025"><ele>558.0</ele><time>2026-04-27T09:32:13Z</time></trkpt><trkpt lat="42.195771266584124" lon="13.648523667717027"><ele>558.0</ele><time>2026-04-27T09:32:14Z</time></trkpt><trkpt lat="42.1956329001925" lon="13.648602307147316"><ele>560.75</ele><time>2026-04-27T09:32:15Z</time></trkpt><trkpt lat="42.19548938376841" lon="13.648673596674747"><ele>563.5</ele><time>2026-04-27T09:32:16Z</time></trkpt><trkpt lat="42.1953540106612" lon="13.648753576961983"><ele>566.25</ele><time>2026-04-27T09:32:17Z</time></trkpt><trkpt lat="42.195240070131675" lon="13.6488716724254"><ele>569.0</ele><time>2026-04-27T09:32:18Z</time></trkpt><trkpt lat="42.19513765860296" lon="13.649032152446802"><ele>569.0</ele><time>2026-04-27T09:32:19Z</time></trkpt><trkpt lat="42.19505535966473" lon="13.649215466651503"><ele>569.0</ele><time>2026-04-27T09:32:20Z</time></trkpt><trkpt lat="42.1949801826972" lon="13.649402316880456"><ele>569.0</ele><time>2026-04-27T09:32:21Z</time></trkpt><trkpt lat="42.19489630725173" lon="13.649592741204893"><ele>574.3333333333333</ele><time>2026-04-27T09:32:22Z</time></trkpt><trkpt lat="42.19480246965107" lon="13.64978024313613"><ele>579.6666666666666</ele><time>2026-04-27T09:32:23Z</time></trkpt><trkpt lat="42.19470167209727" lon="13.649944382331915"><ele>585.0</ele><time>2026-04-27T09:32:24Z</time></trkpt><trkpt lat="42.19456642918779" lon="13.650068876597516"><ele>585.0</ele><time>2026-04-27T09:32:25Z</time></trkpt><trkpt lat="42.194426481227964" lon="13.6501753431437"><ele>585.0</ele><time>2026-04-27T09:32:26Z</time></trkpt><trkpt lat="42.19427979000911" lon="13.650281240071413"><ele>585.0</ele><time>2026-04-27T09:32:27Z</time></trkpt><trkpt lat="42.1941418765532" lon="13.650406083189784"><ele>587.3333333333334</ele><time>2026-04-27T09:32:28Z</time></trkpt><trkpt lat="42.19399618499662" lon="13.65050742617591"><ele>589.6666666666667</ele><time>2026-04-27T09:32:29Z</time></trkpt><trkpt lat="42.19384608605722" lon="13.65062424816187"><ele>592.0</ele><time>2026-04-27T09:32:30Z</time></trkpt><trkpt lat="42.193710180505846" lon="13.65073501458238"><ele>592.0</ele><time>2026-04-27T09:32:31Z</time></trkpt><trkpt lat="42.1935753381375" lon="13.650864380721826"><ele>592.0</ele><time>2026-04-27T09:32:32.001Z</time></trkpt><trkpt lat="42.19345832603822" lon="13.651019871147177"><ele>592.0</ele><time>2026-04-27T09:32:33.001Z</time></trkpt><trkpt lat="42.19335095569674" lon="13.65119562335879"><ele>588.3333333333334</ele><time>2026-04-27T09:32:34.001Z</time></trkpt><trkpt lat="42.193276347848446" lon="13.65139145220149"><ele>584.6666666666666</ele><time>2026-04-27T09:32:35.001Z</time></trkpt><trkpt lat="42.1932145655435" lon="13.651578594237884"><ele>581.0</ele><time>2026-04-27T09:32:36.001Z</time></trkpt><trkpt lat="42.19322885157495" lon="13.651779095540281"><ele>583.0</ele><time>2026-04-27T09:32:37.001Z</time></trkpt><trkpt lat="42.193265882046305" lon="13.651983094900093"><ele>585.0</ele><time>2026-04-27T09:32:38.001Z</time></trkpt><trkpt lat="42.19331120509146" lon="13.652179039718545"><ele>587.0</ele><time>2026-04-27T09:32:39.001Z</time></trkpt><trkpt lat="42.19330595682193" lon="13.652382561174733"><ele>587.0</ele><time>2026-04-27T09:32:40.001Z</time></trkpt><trkpt lat="42.19329020982967" lon="13.65258675699025"><ele>587.0</ele><time>2026-04-27T09:32:41.001Z</time></trkpt><trkpt lat="42.19325960078698" lon="13.652797083752048"><ele>587.0</ele><time>2026-04-27T09:32:42.001Z</time></trkpt><trkpt lat="42.19321852786341" lon="13.652996758796048"><ele>586.0</ele><time>2026-04-27T09:32:43.001Z</time></trkpt><trkpt lat="42.193187724622454" lon="13.65314990908264"><ele>585.0</ele><time>2026-04-27T09:32:44.001Z</time></trkpt><trkpt lat="42.193122739630404" lon="13.653236582306526"><ele>584.0</ele><time>2026-04-27T09:32:45.001Z</time></trkpt><trkpt lat="42.19303887848186" lon="13.653230777861737"><ele>583.0</ele><time>2026-04-27T09:32:46.001Z</time></trkpt><trkpt lat="42.192963893777204" lon="13.653162783649925"><ele>582.0</ele><time>2026-04-27T09:32:47.001Z</time></trkpt><trkpt lat="42.19293141466733" lon="13.653062055973445"><ele>584.75</ele><time>2026-04-27T09:32:48.001Z</time></trkpt><trkpt lat="42.1929485242865" lon="13.652928865456454"><ele>587.5</ele><time>2026-04-27T09:32:49.001Z</time></trkpt><trkpt lat="42.192989253340016" lon="13.652788372217369"><ele>590.25</ele><time>2026-04-27T09:32:50.001Z</time></trkpt><trkpt lat="42.19302978438873" lon="13.652629123934334"><ele>593.0</ele><time>2026-04-27T09:32:51.001Z</time></trkpt><trkpt lat="42.19306234377224" lon="13.652454375958856"><ele>596.3333333333333</ele><time>2026-04-27T09:32:52.001Z</time></trkpt><trkpt lat="42.19307745084842" lon="13.65229681921184"><ele>599.6666666666666</ele><time>2026-04-27T09:32:53.001Z</time></trkpt><trkpt lat="42.1930535464171" lon="13.652167424595618"><ele>603.0</ele><time>2026-04-27T09:32:54.001Z</time></trkpt><trkpt lat="42.19299844896839" lon="13.652096288860985"><ele>606.3333333333334</ele><time>2026-04-27T09:32:55.001Z</time></trkpt><trkpt lat="42.19292602380726" lon="13.652081888884533"><ele>609.6666666666667</ele><time>2026-04-27T09:32:56.001Z</time></trkpt><trkpt lat="42.19285285671853" lon="13.652133881389489"><ele>613.0</ele><time>2026-04-27T09:32:57.001Z</time></trkpt><trkpt lat="42.19280313360801" lon="13.652263227047046"><ele>613.0</ele><time>2026-04-27T09:32:58.001Z</time></trkpt><trkpt lat="42.19280701285462" lon="13.65241658954402"><ele>613.0</ele><time>2026-04-27T09:32:59.001Z</time></trkpt><trkpt lat="42.192786625802796" lon="13.652567193956381"><ele>613.0</ele><time>2026-04-27T09:33:00.001Z</time></trkpt><trkpt lat="42.19273544531826" lon="13.652704035941202"><ele>613.0</ele><time>2026-04-27T09:33:01.001Z</time></trkpt><trkpt lat="42.19262357109954" lon="13.652801394850085"><ele>613.0</ele><time>2026-04-27T09:33:02.001Z</time></trkpt><trkpt lat="42.19252024755938" lon="13.652910778995478"><ele>613.0</ele><time>2026-04-27T09:33:03.001Z</time></trkpt><trkpt lat="42.19241659483914" lon="13.652940776386012"><ele>613.0</ele><time>2026-04-27T09:33:04.001Z</time></trkpt><trkpt lat="42.19234687411494" lon="13.652899052910328"><ele>613.0</ele><time>2026-04-27T09:33:05.001Z</time></trkpt><trkpt lat="42.1923198022039" lon="13.652814974111394"><ele>613.0</ele><time>2026-04-27T09:33:06.001Z</time></trkpt><trkpt lat="42.192340084194804" lon="13.652704632090321"><ele>613.0</ele><time>2026-04-27T09:33:07.001Z</time></trkpt><trkpt lat="42.19240618606861" lon="13.652630753974611"><ele>613.0</ele><time>2026-04-27T09:33:08.001Z</time></trkpt><trkpt lat="42.19250867387241" lon="13.652575311021526"><ele>613.0</ele><time>2026-04-27T09:33:09.001Z</time></trkpt><trkpt lat="42.19260739350423" lon="13.652507756345361"><ele>613.0</ele><time>2026-04-27T09:33:10.001Z</time></trkpt><trkpt lat="42.19267530013302" lon="13.652403935907019"><ele>613.0</ele><time>2026-04-27T09:33:11.001Z</time></trkpt><trkpt lat="42.19268009381814" lon="13.652285189961681"><ele>613.0</ele><time>2026-04-27T09:33:12.001Z</time></trkpt><trkpt lat="42.19263348905028" lon="13.65218408243037"><ele>613.0</ele><time>2026-04-27T09:33:13.001Z</time></trkpt><trkpt lat="42.19254607545537" lon="13.652141384244635"><ele>613.0</ele><time>2026-04-27T09:33:14.001Z</time></trkpt><trkpt lat="42.19244782922619" lon="13.65217808647598"><ele>613.0</ele><time>2026-04-27T09:33:15.001Z</time></trkpt><trkpt lat="42.192357835383596" lon="13.652273341064562"><ele>613.0</ele><time>2026-04-27T09:33:16.001Z</time></trkpt><trkpt lat="42.19227165312036" lon="13.652398651390392"><ele>616.5</ele><time>2026-04-27T09:33:17.001Z</time></trkpt><trkpt lat="42.1921794175315" lon="13.65252587447762"><ele>620.0</ele><time>2026-04-27T09:33:18.001Z</time></trkpt><trkpt lat="42.19206072911666" lon="13.65261512944998"><ele>623.5</ele><time>2026-04-27T09:33:19.001Z</time></trkpt><trkpt lat="42.19194031449882" lon="13.65269017572946"><ele>627.0</ele><time>2026-04-27T09:33:20.001Z</time></trkpt><trkpt lat="42.19180456651711" lon="13.652722459423739"><ele>627.0</ele><time>2026-04-27T09:33:21.001Z</time></trkpt><trkpt lat="42.19166226787739" lon="13.652764987323593"><ele>627.0</ele><time>2026-04-27T09:33:22.001Z</time></trkpt><trkpt lat="42.19150455192238" lon="13.652770144311868"><ele>627.0</ele><time>2026-04-27T09:33:23.001Z</time></trkpt><trkpt lat="42.19135325931817" lon="13.652805534901066"><ele>628.0</ele><time>2026-04-27T09:33:24.001Z</time></trkpt><trkpt lat="42.191207834678224" lon="13.652895214256155"><ele>629.0</ele><time>2026-04-27T09:33:25.001Z</time></trkpt><trkpt lat="42.19108185075778" lon="13.653014232125232"><ele>630.0</ele><time>2026-04-27T09:33:26.001Z</time></trkpt><trkpt lat="42.190960481763064" lon="13.653159117095724"><ele>630.0</ele><time>2026-04-27T09:33:27.001Z</time></trkpt><trkpt lat="42.190830259858025" lon="13.653290026273547"><ele>630.0</ele><time>2026-04-27T09:33:28.001Z</time></trkpt><trkpt lat="42.1906762652913" lon="13.653379257312329"><ele>630.0</ele><time>2026-04-27T09:33:29.001Z</time></trkpt><trkpt lat="42.1905206314121" lon="13.653456557385915"><ele>632.3333333333334</ele><time>2026-04-27T09:33:30.001Z</time></trkpt><trkpt lat="42.190365516589075" lon="13.653551300997892"><ele>634.6666666666667</ele><time>2026-04-27T09:33:31.001Z</time></trkpt><trkpt lat="42.190203211044675" lon="13.653616813073892"><ele>637.0</ele><time>2026-04-27T09:33:32.001Z</time></trkpt><trkpt lat="42.190048819850375" lon="13.653673227137311"><ele>637.0</ele><time>2026-04-27T09:33:33.001Z</time></trkpt><trkpt lat="42.189903314843825" lon="13.653728100584487"><ele>637.0</ele><time>2026-04-27T09:33:34.001Z</time></trkpt><trkpt lat="42.18979322685325" lon="13.65378530331723"><ele>637.0</ele><time>2026-04-27T09:33:35.001Z</time></trkpt><trkpt lat="42.1896960930169" lon="13.653857388327003"><ele>637.0</ele><time>2026-04-27T09:33:36.001Z</time></trkpt><trkpt lat="42.189642893888" lon="13.654002084066775"><ele>638.5</ele><time>2026-04-27T09:33:37.001Z</time></trkpt><trkpt lat="42.1896693198533" lon="13.65418401376595"><ele>640.0</ele><time>2026-04-27T09:33:38.001Z</time></trkpt><trkpt lat="42.18972401195679" lon="13.6543378383589"><ele>641.5</ele><time>2026-04-27T09:33:39.001Z</time></trkpt><trkpt lat="42.18979684450383" lon="13.654491640309182"><ele>643.0</ele><time>2026-04-27T09:33:40.001Z</time></trkpt><trkpt lat="42.18986166371822" lon="13.654659267668597"><ele>643.0</ele><time>2026-04-27T09:33:41.001Z</time></trkpt><trkpt lat="42.18993526837916" lon="13.654817865612598"><ele>643.0</ele><time>2026-04-27T09:33:42.001Z</time></trkpt><trkpt lat="42.189981048729294" lon="13.654987179451703"><ele>643.0</ele><time>2026-04-27T09:33:43.001Z</time></trkpt><trkpt lat="42.18998345197175" lon="13.655122288754972"><ele>643.0</ele><time>2026-04-27T09:33:44.001Z</time></trkpt><trkpt lat="42.18991973726621" lon="13.655214084261644"><ele>645.25</ele><time>2026-04-27T09:33:45.001Z</time></trkpt><trkpt lat="42.189836771888245" lon="13.65525900459093"><ele>647.5</ele><time>2026-04-27T09:33:46.001Z</time></trkpt><trkpt lat="42.1897360122749" lon="13.655309244611187"><ele>649.75</ele><time>2026-04-27T09:33:47.001Z</time></trkpt><trkpt lat="42.18962769832656" lon="13.655382211946598"><ele>652.0</ele><time>2026-04-27T09:33:48.001Z</time></trkpt><trkpt lat="42.18950304306869" lon="13.655443406260382"><ele>652.0</ele><time>2026-04-27T09:33:49.001Z</time></trkpt><trkpt lat="42.18936692810451" lon="13.655519793084752"><ele>652.0</ele><time>2026-04-27T09:33:50.001Z</time></trkpt><trkpt lat="42.189234371599035" lon="13.655591368724975"><ele>652.0</ele><time>2026-04-27T09:33:51.001Z</time></trkpt><trkpt lat="42.189090334288686" lon="13.65566774228385"><ele>652.0</ele><time>2026-04-27T09:33:52.002Z</time></trkpt><trkpt lat="42.18893730329113" lon="13.655750146888526"><ele>654.3333333333334</ele><time>2026-04-27T09:33:53.002Z</time></trkpt><trkpt lat="42.18877567876025" lon="13.65582769089893"><ele>656.6666666666666</ele><time>2026-04-27T09:33:54.002Z</time></trkpt><trkpt lat="42.18861525450416" lon="13.65588763145711"><ele>659.0</ele><time>2026-04-27T09:33:55.002Z</time></trkpt><trkpt lat="42.18845637976591" lon="13.655933936126278"><ele>659.0</ele><time>2026-04-27T09:33:56.002Z</time></trkpt><trkpt lat="42.18831721750831" lon="13.655986161406865"><ele>659.0</ele><time>2026-04-27T09:33:57.002Z</time></trkpt><trkpt lat="42.18821993151927" lon="13.656039595003412"><ele>659.0</ele><time>2026-04-27T09:33:58.002Z</time></trkpt><trkpt lat="42.188147713184" lon="13.656086576787022"><ele>659.0</ele><time>2026-04-27T09:33:59.002Z</time></trkpt><trkpt lat="42.188112338250356" lon="13.656192171801287"><ele>659.0</ele><time>2026-04-27T09:34:00.002Z</time></trkpt><trkpt lat="42.18814527250078" lon="13.656314639061977"><ele>660.2</ele><time>2026-04-27T09:34:01.002Z</time></trkpt><trkpt lat="42.18824219761268" lon="13.656383720392318"><ele>661.4000000000001</ele><time>2026-04-27T09:34:02.002Z</time></trkpt><trkpt lat="42.18833563190675" lon="13.65640307012372"><ele>662.6</ele><time>2026-04-27T09:34:03.002Z</time></trkpt><trkpt lat="42.18845065187513" lon="13.656377155519493"><ele>663.8</ele><time>2026-04-27T09:34:04.002Z</time></trkpt><trkpt lat="42.188572243278145" lon="13.656348971789503"><ele>665.0</ele><time>2026-04-27T09:34:05.002Z</time></trkpt><trkpt lat="42.18870750034999" lon="13.656319640362796"><ele>665.0</ele><time>2026-04-27T09:34:06.002Z</time></trkpt><trkpt lat="42.18885626702656" lon="13.656299746633563"><ele>665.0</ele><time>2026-04-27T09:34:07.002Z</time></trkpt><trkpt lat="42.18900106297821" lon="13.656288756639682"><ele>665.0</ele><time>2026-04-27T09:34:08.002Z</time></trkpt><trkpt lat="42.18915107925273" lon="13.656276747334399"><ele>665.0</ele><time>2026-04-27T09:34:09.002Z</time></trkpt><trkpt lat="42.18928664204771" lon="13.656268759851784"><ele>664.0</ele><time>2026-04-27T09:34:10.002Z</time></trkpt><trkpt lat="42.18940721560608" lon="13.65626580717854"><ele>663.0</ele><time>2026-04-27T09:34:11.002Z</time></trkpt><trkpt lat="42.18948622765535" lon="13.656297715491265"><ele>662.0</ele><time>2026-04-27T09:34:12.002Z</time></trkpt><trkpt lat="42.1895192052354" lon="13.656388881298714"><ele>661.0</ele><time>2026-04-27T09:34:13.002Z</time></trkpt><trkpt lat="42.18950813413246" lon="13.656509809177544"><ele>660.0</ele><time>2026-04-27T09:34:14.002Z</time></trkpt><trkpt lat="42.18944459961574" lon="13.656587834926778"><ele>660.0</ele><time>2026-04-27T09:34:15.002Z</time></trkpt><trkpt lat="42.189345570989545" lon="13.656553286824177"><ele>660.0</ele><time>2026-04-27T09:34:16.002Z</time></trkpt><trkpt lat="42.189254067254055" lon="13.656525233220421"><ele>660.0</ele><time>2026-04-27T09:34:17.001Z</time></trkpt><trkpt lat="42.1891368024428" lon="13.656524182602942"><ele>660.0</ele><time>2026-04-27T09:34:18.001Z</time></trkpt><trkpt lat="42.18900640025108" lon="13.656524005688373"><ele>660.0</ele><time>2026-04-27T09:34:19.001Z</time></trkpt><trkpt lat="42.18886604510175" lon="13.656545837048506"><ele>661.25</ele><time>2026-04-27T09:34:20.001Z</time></trkpt><trkpt lat="42.18872262271154" lon="13.656537590375647"><ele>662.5</ele><time>2026-04-27T09:34:21.001Z</time></trkpt><trkpt lat="42.188577970702156" lon="13.656549443342021"><ele>663.75</ele><time>2026-04-27T09:34:22.001Z</time></trkpt><trkpt lat="42.18842609386393" lon="13.656561699592913"><ele>665.0</ele><time>2026-04-27T09:34:23.001Z</time></trkpt><trkpt lat="42.188267667971154" lon="13.656573832927302"><ele>666.3333333333333</ele><time>2026-04-27T09:34:24.001Z</time></trkpt><trkpt lat="42.188101630736334" lon="13.65659214003659"><ele>667.6666666666666</ele><time>2026-04-27T09:34:25.001Z</time></trkpt><trkpt lat="42.18793337128896" lon="13.65661510757656"><ele>669.0</ele><time>2026-04-27T09:34:26.001Z</time></trkpt><trkpt lat="42.18776793071605" lon="13.656650632823652"><ele>669.0</ele><time>2026-04-27T09:34:27.001Z</time></trkpt><trkpt lat="42.18759536739977" lon="13.656682376357725"><ele>669.0</ele><time>2026-04-27T09:34:28.001Z</time></trkpt><trkpt lat="42.187431781430156" lon="13.656723852849298"><ele>669.0</ele><time>2026-04-27T09:34:29.001Z</time></trkpt><trkpt lat="42.18726227639501" lon="13.656764490145362"><ele>671.3333333333334</ele><time>2026-04-27T09:34:30.001Z</time></trkpt><trkpt lat="42.18708870997207" lon="13.656807667407515"><ele>673.6666666666667</ele><time>2026-04-27T09:34:31.001Z</time></trkpt><trkpt lat="42.18691198940966" lon="13.656852661192318"><ele>676.0</ele><time>2026-04-27T09:34:32.001Z</time></trkpt><trkpt lat="42.18673300685179" lon="13.656896791293228"><ele>676.0</ele><time>2026-04-27T09:34:33.001Z</time></trkpt><trkpt lat="42.18655762226768" lon="13.656934881620954"><ele>676.0</ele><time>2026-04-27T09:34:34.001Z</time></trkpt><trkpt lat="42.186382765078186" lon="13.656976941836614"><ele>676.0</ele><time>2026-04-27T09:34:35.001Z</time></trkpt><trkpt lat="42.1862024072642" lon="13.657020234496374"><ele>680.6666666666667</ele><time>2026-04-27T09:34:36.001Z</time></trkpt><trkpt lat="42.18601752466084" lon="13.657062664769066"><ele>685.3333333333334</ele><time>2026-04-27T09:34:37.001Z</time></trkpt><trkpt lat="42.18583148185878" lon="13.657110161456899"><ele>690.0</ele><time>2026-04-27T09:34:38.001Z</time></trkpt><trkpt lat="42.18564416617113" lon="13.65715662623994"><ele>690.0</ele><time>2026-04-27T09:34:39.001Z</time></trkpt><trkpt lat="42.185459347941624" lon="13.657207953146353"><ele>690.0</ele><time>2026-04-27T09:34:40.001Z</time></trkpt><trkpt lat="42.18529071791588" lon="13.657279982690259"><ele>690.0</ele><time>2026-04-27T09:34:41.001Z</time></trkpt><trkpt lat="42.185128649429124" lon="13.657392572320743"><ele>690.0</ele><time>2026-04-27T09:34:42.001Z</time></trkpt><trkpt lat="42.184970622496145" lon="13.657522404512214"><ele>690.0</ele><time>2026-04-27T09:34:43.001Z</time></trkpt><trkpt lat="42.18481973539955" lon="13.657694747367088"><ele>690.0</ele><time>2026-04-27T09:34:44.001Z</time></trkpt><trkpt lat="42.18467766084328" lon="13.657874221232198"><ele>688.6666666666666</ele><time>2026-04-27T09:34:45.001Z</time></trkpt><trkpt lat="42.18453051725058" lon="13.658014254686414"><ele>687.3333333333333</ele><time>2026-04-27T09:34:46.001Z</time></trkpt><trkpt lat="42.1843860031867" lon="13.658167769321059"><ele>686.0</ele><time>2026-04-27T09:34:47.001Z</time></trkpt><trkpt lat="42.18424029019027" lon="13.658327778964246"><ele>686.0</ele><time>2026-04-27T09:34:48.001Z</time></trkpt><trkpt lat="42.18408149858313" lon="13.658466919207875"><ele>686.0</ele><time>2026-04-27T09:34:49.001Z</time></trkpt><trkpt lat="42.18392211828833" lon="13.658583706184547"><ele>686.0</ele><time>2026-04-27T09:34:50.001Z</time></trkpt><trkpt lat="42.18375484442475" lon="13.658689648272714"><ele>684.3333333333333</ele><time>2026-04-27T09:34:51.001Z</time></trkpt><trkpt lat="42.183573485756" lon="13.658793208930561"><ele>682.6666666666666</ele><time>2026-04-27T09:34:52.001Z</time></trkpt><trkpt lat="42.18339490632505" lon="13.658887383694463"><ele>681.0</ele><time>2026-04-27T09:34:53.001Z</time></trkpt><trkpt lat="42.183215463124405" lon="13.658986746500977"><ele>683.3333333333334</ele><time>2026-04-27T09:34:54.001Z</time></trkpt><trkpt lat="42.18303262547555" lon="13.659087926409192"><ele>685.6666666666667</ele><time>2026-04-27T09:34:55.001Z</time></trkpt><trkpt lat="42.1828508472815" lon="13.659184405531777"><ele>688.0</ele><time>2026-04-27T09:34:56.001Z</time></trkpt><trkpt lat="42.18266613684141" lon="13.659278798030527"><ele>688.0</ele><time>2026-04-27T09:34:57.001Z</time></trkpt><trkpt lat="42.18248161814715" lon="13.659377714288993"><ele>688.0</ele><time>2026-04-27T09:34:58.001Z</time></trkpt><trkpt lat="42.18230114815137" lon="13.65948633840436"><ele>688.0</ele><time>2026-04-27T09:34:59.001Z</time></trkpt><trkpt lat="42.18212343841064" lon="13.659604772916678"><ele>687.0</ele><time>2026-04-27T09:35:00.001Z</time></trkpt><trkpt lat="42.18195717264521" lon="13.659751247027632"><ele>686.0</ele><time>2026-04-27T09:35:01.001Z</time></trkpt><trkpt lat="42.18180143906777" lon="13.659917048575956"><ele>685.0</ele><time>2026-04-27T09:35:02.001Z</time></trkpt><trkpt lat="42.18164752249723" lon="13.660085956851422"><ele>686.3333333333334</ele><time>2026-04-27T09:35:03.001Z</time></trkpt><trkpt lat="42.18149449176624" lon="13.660263829943728"><ele>687.6666666666666</ele><time>2026-04-27T09:35:04.001Z</time></trkpt><trkpt lat="42.18135025651245" lon="13.660440779601133"><ele>689.0</ele><time>2026-04-27T09:35:05.001Z</time></trkpt><trkpt lat="42.1812114555216" lon="13.6606212383652"><ele>689.0</ele><time>2026-04-27T09:35:06.001Z</time></trkpt><trkpt lat="42.181080056287215" lon="13.660804631567384"><ele>689.0</ele><time>2026-04-27T09:35:07.001Z</time></trkpt><trkpt lat="42.180939912574146" lon="13.660975828113306"><ele>689.0</ele><time>2026-04-27T09:35:08.001Z</time></trkpt><trkpt lat="42.18083479090182" lon="13.661164603578232"><ele>689.3333333333333</ele><time>2026-04-27T09:35:09.001Z</time></trkpt><trkpt lat="42.18071083701885" lon="13.661345515560338"><ele>689.6666666666666</ele><time>2026-04-27T09:35:10.001Z</time></trkpt><trkpt lat="42.1805633149928" lon="13.66150462316887"><ele>690.0</ele><time>2026-04-27T09:35:11.001Z</time></trkpt><trkpt lat="42.18041470965032" lon="13.661655461811145"><ele>690.0</ele><time>2026-04-27T09:35:12.001Z</time></trkpt><trkpt lat="42.180269241080744" lon="13.66180826948417"><ele>690.0</ele><time>2026-04-27T09:35:13.001Z</time></trkpt><trkpt lat="42.18009937429662" lon="13.66194718548151"><ele>690.0</ele><time>2026-04-27T09:35:14.001Z</time></trkpt><trkpt lat="42.17994262710109" lon="13.662103127165311"><ele>688.6666666666666</ele><time>2026-04-27T09:35:15.001Z</time></trkpt><trkpt lat="42.179795653373006" lon="13.662268962727527"><ele>687.3333333333333</ele><time>2026-04-27T09:35:16.001Z</time></trkpt><trkpt lat="42.179666255821594" lon="13.66246746587796"><ele>686.0</ele><time>2026-04-27T09:35:17.001Z</time></trkpt><trkpt lat="42.17952334360301" lon="13.662636553991671"><ele>686.3333333333333</ele><time>2026-04-27T09:35:18.001Z</time></trkpt><trkpt lat="42.179389087514316" lon="13.662830365588508"><ele>686.6666666666666</ele><time>2026-04-27T09:35:19.001Z</time></trkpt><trkpt lat="42.179256465500956" lon="13.663014020696835"><ele>687.0</ele><time>2026-04-27T09:35:20.001Z</time></trkpt><trkpt lat="42.17912141836542" lon="13.663208888731893"><ele>688.6666666666666</ele><time>2026-04-27T09:35:21.001Z</time></trkpt><trkpt lat="42.17899151616202" lon="13.663387706447047"><ele>690.3333333333333</ele><time>2026-04-27T09:35:22.001Z</time></trkpt><trkpt lat="42.17884457023127" lon="13.663547983251284"><ele>692.0</ele><time>2026-04-27T09:35:23.001Z</time></trkpt><trkpt lat="42.17870277899505" lon="13.663705785062293"><ele>692.6666666666666</ele><time>2026-04-27T09:35:24.001Z</time></trkpt><trkpt lat="42.178557745326685" lon="13.663861165304828"><ele>693.3333333333334</ele><time>2026-04-27T09:35:25.001Z</time></trkpt><trkpt lat="42.178411049984994" lon="13.663998362691624"><ele>694.0</ele><time>2026-04-27T09:35:26.001Z</time></trkpt><trkpt lat="42.1782573193304" lon="13.664139695972962"><ele>695.3333333333334</ele><time>2026-04-27T09:35:27.001Z</time></trkpt><trkpt lat="42.178101227817834" lon="13.664248469864768"><ele>696.6666666666666</ele><time>2026-04-27T09:35:28.001Z</time></trkpt><trkpt lat="42.17793943320726" lon="13.664355617085079"><ele>698.0</ele><time>2026-04-27T09:35:29.001Z</time></trkpt><trkpt lat="42.17778212144184" lon="13.664479694140102"><ele>699.3333333333333</ele><time>2026-04-27T09:35:30.001Z</time></trkpt><trkpt lat="42.17762649686257" lon="13.66460293448593"><ele>700.6666666666666</ele><time>2026-04-27T09:35:31.001Z</time></trkpt><trkpt lat="42.17747828766969" lon="13.664726433506376"><ele>702.0</ele><time>2026-04-27T09:35:32.001Z</time></trkpt><trkpt lat="42.17732412750953" lon="13.664854312227014"><ele>705.0</ele><time>2026-04-27T09:35:33.001Z</time></trkpt><trkpt lat="42.177202821144654" lon="13.665031101510552"><ele>708.0</ele><time>2026-04-27T09:35:34.001Z</time></trkpt><trkpt lat="42.17707649472724" lon="13.66519782519441"><ele>711.0</ele><time>2026-04-27T09:35:35.001Z</time></trkpt><trkpt lat="42.17695237254069" lon="13.665377901449162"><ele>712.0</ele><time>2026-04-27T09:35:36.001Z</time></trkpt><trkpt lat="42.17680659828114" lon="13.665540674853002"><ele>713.0</ele><time>2026-04-27T09:35:37.001Z</time></trkpt><trkpt lat="42.17666880422431" lon="13.665684773368715"><ele>714.0</ele><time>2026-04-27T09:35:38.001Z</time></trkpt><trkpt lat="42.17652797167805" lon="13.665830232878797"><ele>716.75</ele><time>2026-04-27T09:35:39.001Z</time></trkpt><trkpt lat="42.1764080696282" lon="13.665960204618736"><ele>719.5</ele><time>2026-04-27T09:35:40.001Z</time></trkpt><trkpt lat="42.176319152071194" lon="13.66607493792648"><ele>722.25</ele><time>2026-04-27T09:35:41.001Z</time></trkpt><trkpt lat="42.176241429488265" lon="13.666147368790611"><ele>725.0</ele><time>2026-04-27T09:35:42.001Z</time></trkpt><trkpt lat="42.1761174288848" lon="13.666077502212156"><ele>725.5</ele><time>2026-04-27T09:35:43.001Z</time></trkpt><trkpt lat="42.17600352279133" lon="13.666036939191494"><ele>726.0</ele><time>2026-04-27T09:35:44.001Z</time></trkpt><trkpt lat="42.17587268156777" lon="13.665989300971802"><ele>726.5</ele><time>2026-04-27T09:35:45.001Z</time></trkpt><trkpt lat="42.175734014895504" lon="13.66594123623395"><ele>727.0</ele><time>2026-04-27T09:35:46.001Z</time></trkpt><trkpt lat="42.17559195657796" lon="13.66589414115885"><ele>729.25</ele><time>2026-04-27T09:35:47.001Z</time></trkpt><trkpt lat="42.175453894507086" lon="13.66582763402793"><ele>731.5</ele><time>2026-04-27T09:35:48.001Z</time></trkpt><trkpt lat="42.17531416920818" lon="13.665736121570795"><ele>733.75</ele><time>2026-04-27T09:35:49.001Z</time></trkpt><trkpt lat="42.175188694686256" lon="13.66565290574787"><ele>736.0</ele><time>2026-04-27T09:35:50.002Z</time></trkpt><trkpt lat="42.17504075810349" lon="13.665555049472852"><ele>736.0</ele><time>2026-04-27T09:35:51.002Z</time></trkpt><trkpt lat="42.174897821797074" lon="13.66546113063253"><ele>736.0</ele><time>2026-04-27T09:35:52.002Z</time></trkpt><trkpt lat="42.17475488353677" lon="13.665368183176216"><ele>736.0</ele><time>2026-04-27T09:35:53.002Z</time></trkpt><trkpt lat="42.17459803643504" lon="13.665291996294215"><ele>740.3333333333334</ele><time>2026-04-27T09:35:54.002Z</time></trkpt><trkpt lat="42.174451077500215" lon="13.665191338603544"><ele>744.6666666666666</ele><time>2026-04-27T09:35:55.002Z</time></trkpt><trkpt lat="42.17430674664845" lon="13.665087791264442"><ele>749.0</ele><time>2026-04-27T09:35:56.002Z</time></trkpt><trkpt lat="42.17415757204949" lon="13.664965478457827"><ele>754.0</ele><time>2026-04-27T09:35:57.002Z</time></trkpt><trkpt lat="42.17401352540593" lon="13.664867816526156"><ele>759.0</ele><time>2026-04-27T09:35:58.002Z</time></trkpt><trkpt lat="42.17385975091318" lon="13.664763852300313"><ele>764.0</ele><time>2026-04-27T09:35:59.002Z</time></trkpt><trkpt lat="42.17370088763377" lon="13.664680829518467"><ele>764.0</ele><time>2026-04-27T09:36:00.002Z</time></trkpt><trkpt lat="42.17355065672447" lon="13.664573514611027"><ele>764.0</ele><time>2026-04-27T09:36:01.002Z</time></trkpt><trkpt lat="42.173387079311375" lon="13.664479997375135"><ele>764.0</ele><time>2026-04-27T09:36:02.002Z</time></trkpt><trkpt lat="42.17323768530118" lon="13.66435738893567"><ele>768.6666666666666</ele><time>2026-04-27T09:36:03.002Z</time></trkpt><trkpt lat="42.17308369957547" lon="13.664243003781149"><ele>773.3333333333333</ele><time>2026-04-27T09:36:04.002Z</time></trkpt><trkpt lat="42.17294181537294" lon="13.664122863373718"><ele>778.0</ele><time>2026-04-27T09:36:05.002Z</time></trkpt><trkpt lat="42.17279801236641" lon="13.663990788412868"><ele>778.0</ele><time>2026-04-27T09:36:06.002Z</time></trkpt><trkpt lat="42.17265833730823" lon="13.663858498688175"><ele>778.0</ele><time>2026-04-27T09:36:07.002Z</time></trkpt><trkpt lat="42.172508307725614" lon="13.6637386405106"><ele>778.0</ele><time>2026-04-27T09:36:08.002Z</time></trkpt><trkpt lat="42.17237489934971" lon="13.66359359783315"><ele>780.75</ele><time>2026-04-27T09:36:09.002Z</time></trkpt><trkpt lat="42.172276546775414" lon="13.663436356766834"><ele>783.5</ele><time>2026-04-27T09:36:10.002Z</time></trkpt><trkpt lat="42.17220072270629" lon="13.663294701501137"><ele>786.25</ele><time>2026-04-27T09:36:11.002Z</time></trkpt><trkpt lat="42.17212764518424" lon="13.663106393210748"><ele>789.0</ele><time>2026-04-27T09:36:12.002Z</time></trkpt><trkpt lat="42.17203873043377" lon="13.66291897289918"><ele>790.0</ele><time>2026-04-27T09:36:13.002Z</time></trkpt><trkpt lat="42.17196847355929" lon="13.662724001474722"><ele>791.0</ele><time>2026-04-27T09:36:14.002Z</time></trkpt><trkpt lat="42.17188053793002" lon="13.662515453486812"><ele>792.0</ele><time>2026-04-27T09:36:15.002Z</time></trkpt><trkpt lat="42.17179069094689" lon="13.66233250481333"><ele>792.0</ele><time>2026-04-27T09:36:16.002Z</time></trkpt><trkpt lat="42.1717150116604" lon="13.66213334826647"><ele>792.0</ele><time>2026-04-27T09:36:17.002Z</time></trkpt><trkpt lat="42.17162362252887" lon="13.661936668850926"><ele>792.0</ele><time>2026-04-27T09:36:18.002Z</time></trkpt><trkpt lat="42.171533475308976" lon="13.661742202993436"><ele>801.3333333333333</ele><time>2026-04-27T09:36:19.002Z</time></trkpt><trkpt lat="42.17142742076226" lon="13.66154709785909"><ele>810.6666666666666</ele><time>2026-04-27T09:36:20.002Z</time></trkpt><trkpt lat="42.17135498919008" lon="13.661334381239358"><ele>820.0</ele><time>2026-04-27T09:36:21.002Z</time></trkpt><trkpt lat="42.171272085091644" lon="13.661182571058152"><ele>819.75</ele><time>2026-04-27T09:36:22.002Z</time></trkpt><trkpt lat="42.17121982508778" lon="13.661036036268339"><ele>819.5</ele><time>2026-04-27T09:36:23.001Z</time></trkpt><trkpt lat="42.171126559321394" lon="13.660945969506049"><ele>819.25</ele><time>2026-04-27T09:36:24.001Z</time></trkpt><trkpt lat="42.17101329659265" lon="13.660862964552699"><ele>819.0</ele><time>2026-04-27T09:36:25.001Z</time></trkpt><trkpt lat="42.17088106548396" lon="13.660803231129593"><ele>819.0</ele><time>2026-04-27T09:36:26.001Z</time></trkpt><trkpt lat="42.17073698183434" lon="13.660738624266154"><ele>819.0</ele><time>2026-04-27T09:36:27.001Z</time></trkpt><trkpt lat="42.17059056230935" lon="13.660687648225633"><ele>819.0</ele><time>2026-04-27T09:36:28.001Z</time></trkpt><trkpt lat="42.170452791113405" lon="13.660635947774276"><ele>819.0</ele><time>2026-04-27T09:36:29.001Z</time></trkpt><trkpt lat="42.17030614365064" lon="13.660589536837476"><ele>825.3333333333333</ele><time>2026-04-27T09:36:30.001Z</time></trkpt><trkpt lat="42.170166021437076" lon="13.660509247274398"><ele>831.6666666666666</ele><time>2026-04-27T09:36:31.001Z</time></trkpt><trkpt lat="42.17002303836173" lon="13.660420166118776"><ele>838.0</ele><time>2026-04-27T09:36:32.001Z</time></trkpt><trkpt lat="42.16989486662355" lon="13.660337193792524"><ele>843.0</ele><time>2026-04-27T09:36:33.001Z</time></trkpt><trkpt lat="42.16977074304128" lon="13.660275892094436"><ele>848.0</ele><time>2026-04-27T09:36:34.001Z</time></trkpt><trkpt lat="42.16964384490816" lon="13.660242910647685"><ele>853.0</ele><time>2026-04-27T09:36:35.001Z</time></trkpt><trkpt lat="42.169501903632344" lon="13.66022988096313"><ele>858.0</ele><time>2026-04-27T09:36:36.001Z</time></trkpt><trkpt lat="42.16935529627758" lon="13.660164270447678"><ele>858.0</ele><time>2026-04-27T09:36:37.001Z</time></trkpt><trkpt lat="42.169206056226464" lon="13.660117478260478"><ele>858.0</ele><time>2026-04-27T09:36:38.001Z</time></trkpt><trkpt lat="42.16905390456781" lon="13.66004264968202"><ele>858.0</ele><time>2026-04-27T09:36:39.001Z</time></trkpt><trkpt lat="42.16892079223428" lon="13.659948216349111"><ele>861.5</ele><time>2026-04-27T09:36:40.001Z</time></trkpt><trkpt lat="42.168809130310215" lon="13.65988402910233"><ele>865.0</ele><time>2026-04-27T09:36:41.001Z</time></trkpt><trkpt lat="42.16871720626579" lon="13.659861628200334"><ele>868.5</ele><time>2026-04-27T09:36:42.001Z</time></trkpt><trkpt lat="42.16861049664948" lon="13.659941459817222"><ele>872.0</ele><time>2026-04-27T09:36:43.001Z</time></trkpt><trkpt lat="42.16848010677926" lon="13.660018198636658"><ele>872.0</ele><time>2026-04-27T09:36:44.001Z</time></trkpt><trkpt lat="42.16834878436556" lon="13.6600951431009"><ele>872.0</ele><time>2026-04-27T09:36:45.001Z</time></trkpt><trkpt lat="42.16821877079555" lon="13.660173770672817"><ele>872.0</ele><time>2026-04-27T09:36:46.001Z</time></trkpt><trkpt lat="42.16808194922037" lon="13.660270497514281"><ele>872.0</ele><time>2026-04-27T09:36:47.001Z</time></trkpt><trkpt lat="42.16795604268446" lon="13.660382681723485"><ele>876.3333333333334</ele><time>2026-04-27T09:36:48.001Z</time></trkpt><trkpt lat="42.167818132368836" lon="13.66051409382145"><ele>880.6666666666667</ele><time>2026-04-27T09:36:49.001Z</time></trkpt><trkpt lat="42.16767758048125" lon="13.660646215814143"><ele>885.0</ele><time>2026-04-27T09:36:50.001Z</time></trkpt><trkpt lat="42.16753736203274" lon="13.660769564291302"><ele>885.0</ele><time>2026-04-27T09:36:51.001Z</time></trkpt><trkpt lat="42.167391787501856" lon="13.660883957853551"><ele>885.0</ele><time>2026-04-27T09:36:52.001Z</time></trkpt><trkpt lat="42.167244358932" lon="13.660971519117089"><ele>885.0</ele><time>2026-04-27T09:36:53.001Z</time></trkpt><trkpt lat="42.16709285054436" lon="13.661068935456699"><ele>888.6666666666667</ele><time>2026-04-27T09:36:54.001Z</time></trkpt><trkpt lat="42.166956102187854" lon="13.661200948335043"><ele>892.3333333333334</ele><time>2026-04-27T09:36:55.001Z</time></trkpt><trkpt lat="42.1668310523668" lon="13.661346452050758"><ele>896.0</ele><time>2026-04-27T09:36:56.001Z</time></trkpt><trkpt lat="42.166714758603796" lon="13.661488938813465"><ele>896.0</ele><time>2026-04-27T09:36:57.001Z</time></trkpt><trkpt lat="42.16661412414033" lon="13.661655231857972"><ele>896.0</ele><time>2026-04-27T09:36:58.001Z</time></trkpt><trkpt lat="42.16653249071707" lon="13.661816082198717"><ele>896.0</ele><time>2026-04-27T09:36:59.001Z</time></trkpt><trkpt lat="42.166440311365356" lon="13.661968139091682"><ele>896.0</ele><time>2026-04-27T09:37:00.001Z</time></trkpt><trkpt lat="42.166329426778475" lon="13.662129062832806"><ele>897.25</ele><time>2026-04-27T09:37:01.001Z</time></trkpt><trkpt lat="42.166235346797826" lon="13.662273564642208"><ele>898.5</ele><time>2026-04-27T09:37:02.001Z</time></trkpt><trkpt lat="42.16615353082005" lon="13.662404956121463"><ele>899.75</ele><time>2026-04-27T09:37:03.001Z</time></trkpt><trkpt lat="42.16609067084595" lon="13.662496728055482"><ele>901.0</ele><time>2026-04-27T09:37:04.001Z</time></trkpt><trkpt lat="42.16599005904086" lon="13.662545375167866"><ele>900.9999999999999</ele><time>2026-04-27T09:37:06.001Z</time></trkpt><trkpt lat="42.16590060374577" lon="13.662512256463033"><ele>901.0</ele><time>2026-04-27T09:37:08.001Z</time></trkpt><trkpt lat="42.16588041948693" lon="13.662430690422472"><ele>901.0</ele><time>2026-04-27T09:37:09.001Z</time></trkpt><trkpt lat="42.16581244940531" lon="13.662374103241488"><ele>901.0</ele><time>2026-04-27T09:37:10.001Z</time></trkpt><trkpt lat="42.165798749328545" lon="13.662280399133113"><ele>900.9999999999999</ele><time>2026-04-27T09:37:11.001Z</time></trkpt><trkpt lat="42.165705223209244" lon="13.66215447927088"><ele>901.0</ele><time>2026-04-27T09:37:13.001Z</time></trkpt><trkpt lat="42.16549819039343" lon="13.662335283117788"><ele>903.5999999999999</ele><time>2026-04-27T09:37:14.001Z</time></trkpt><trkpt lat="42.165416988434316" lon="13.662319645816181"><ele>906.1999999999999</ele><time>2026-04-27T09:37:15.001Z</time></trkpt><trkpt lat="42.16529777922942" lon="13.662266448335666"><ele>908.8000000000001</ele><time>2026-04-27T09:37:17.001Z</time></trkpt><trkpt lat="42.16521507009695" lon="13.662242261332349"><ele>911.4000000000001</ele><time>2026-04-27T09:37:18.001Z</time></trkpt><trkpt lat="42.16513851698482" lon="13.662276920102151"><ele>914.0</ele><time>2026-04-27T09:37:19.001Z</time></trkpt><trkpt lat="42.165063484493466" lon="13.662405616846522"><ele>914.0000000000001</ele><time>2026-04-27T09:37:21.001Z</time></trkpt><trkpt lat="42.165012725177455" lon="13.6625001347373"><ele>914.0</ele><time>2026-04-27T09:37:23.001Z</time></trkpt><trkpt lat="42.164962533033666" lon="13.662575439880085"><ele>914.0</ele><time>2026-04-27T09:37:25.001Z</time></trkpt><trkpt lat="42.16487709749831" lon="13.662632823119695"><ele>914.0</ele><time>2026-04-27T09:37:27.001Z</time></trkpt><trkpt lat="42.16475316306705" lon="13.662648923727811"><ele>914.0000000000001</ele><time>2026-04-27T09:37:29.001Z</time></trkpt><trkpt lat="42.16469261143949" lon="13.662690489275873"><ele>914.0</ele><time>2026-04-27T09:37:30.001Z</time></trkpt><trkpt lat="42.16464947261139" lon="13.662753945606486"><ele>915.6</ele><time>2026-04-27T09:37:31.001Z</time></trkpt><trkpt lat="42.1645895986926" lon="13.662876346607542"><ele>917.2</ele><time>2026-04-27T09:37:33.001Z</time></trkpt><trkpt lat="42.16450331787341" lon="13.662994241687882"><ele>918.8000000000001</ele><time>2026-04-27T09:37:35.001Z</time></trkpt><trkpt lat="42.16439653803001" lon="13.663097004720347"><ele>920.4000000000001</ele><time>2026-04-27T09:37:37.001Z</time></trkpt><trkpt lat="42.1643384186625" lon="13.663147648068449"><ele>922.0</ele><time>2026-04-27T09:37:38.001Z</time></trkpt><trkpt lat="42.16425603864713" lon="13.663267005023304"><ele>921.9999999999999</ele><time>2026-04-27T09:37:40.001Z</time></trkpt><trkpt lat="42.16421068024026" lon="13.663337478841186"><ele>922.0</ele><time>2026-04-27T09:37:41.001Z</time></trkpt><trkpt lat="42.16415918008825" lon="13.663418123009768"><ele>922.0</ele><time>2026-04-27T09:37:42.001Z</time></trkpt><trkpt lat="42.16411805917359" lon="13.663495993900169"><ele>922.0</ele><time>2026-04-27T09:37:43.001Z</time></trkpt><trkpt lat="42.164069431267016" lon="13.663590381341871"><ele>921.9999999999999</ele><time>2026-04-27T09:37:44.001Z</time></trkpt><trkpt lat="42.164013215964026" lon="13.6636934519769"><ele>922.0</ele><time>2026-04-27T09:37:45.001Z</time></trkpt><trkpt lat="42.16396752696634" lon="13.663769069735725"><ele>924.1666666666666</ele><time>2026-04-27T09:37:46.001Z</time></trkpt><trkpt lat="42.163927426495526" lon="13.663885309495035"><ele>926.3333333333333</ele><time>2026-04-27T09:37:48.001Z</time></trkpt><trkpt lat="42.16390375784166" lon="13.663968408905207"><ele>928.5</ele><time>2026-04-27T09:37:49.001Z</time></trkpt><trkpt lat="42.16387035618527" lon="13.664044462188748"><ele>930.6666666666667</ele><time>2026-04-27T09:37:50.001Z</time></trkpt><trkpt lat="42.163811740790926" lon="13.664116779657801"><ele>932.8333333333334</ele><time>2026-04-27T09:37:51.001Z</time></trkpt><trkpt lat="42.16372694979785" lon="13.664193304378477"><ele>935.0</ele><time>2026-04-27T09:37:52.001Z</time></trkpt><trkpt lat="42.1636230920181" lon="13.6642529194994"><ele>935.0</ele><time>2026-04-27T09:37:53.001Z</time></trkpt><trkpt lat="42.16353535514474" lon="13.664327245101342"><ele>935.0</ele><time>2026-04-27T09:37:54.001Z</time></trkpt><trkpt lat="42.16345975973746" lon="13.664410699215315"><ele>935.0</ele><time>2026-04-27T09:37:55.002Z</time></trkpt><trkpt lat="42.163399244846744" lon="13.664518986470906"><ele>935.0</ele><time>2026-04-27T09:37:56.002Z</time></trkpt><trkpt lat="42.16333554797807" lon="13.664632098439903"><ele>935.0</ele><time>2026-04-27T09:37:57.002Z</time></trkpt><trkpt lat="42.163237550864906" lon="13.664742530023043"><ele>935.4</ele><time>2026-04-27T09:37:58.002Z</time></trkpt><trkpt lat="42.163150398949504" lon="13.664845234226945"><ele>935.8</ele><time>2026-04-27T09:37:59.002Z</time></trkpt><trkpt lat="42.163084937298954" lon="13.664952221301528"><ele>936.2</ele><time>2026-04-27T09:38:00.002Z</time></trkpt><trkpt lat="42.16302989522115" lon="13.665049089701185"><ele>936.6</ele><time>2026-04-27T09:38:01.002Z</time></trkpt><trkpt lat="42.16295901204419" lon="13.665151298502243"><ele>937.0</ele><time>2026-04-27T09:38:02.002Z</time></trkpt><trkpt lat="42.16290883602527" lon="13.665283516633334"><ele>937.0</ele><time>2026-04-27T09:38:03.002Z</time></trkpt><trkpt lat="42.16286482034989" lon="13.665425287852157"><ele>937.0</ele><time>2026-04-27T09:38:04.002Z</time></trkpt><trkpt lat="42.162803656797315" lon="13.665553409136308"><ele>937.0</ele><time>2026-04-27T09:38:05.002Z</time></trkpt><trkpt lat="42.16273889389838" lon="13.665683585332067"><ele>937.0</ele><time>2026-04-27T09:38:06.002Z</time></trkpt><trkpt lat="42.16267872767199" lon="13.665832789958204"><ele>937.0</ele><time>2026-04-27T09:38:07.002Z</time></trkpt><trkpt lat="42.16263563311073" lon="13.665961782813707"><ele>937.0</ele><time>2026-04-27T09:38:08.002Z</time></trkpt><trkpt lat="42.162588128411265" lon="13.666053003080998"><ele>937.0</ele><time>2026-04-27T09:38:09.002Z</time></trkpt><trkpt lat="42.16252447299177" lon="13.666123570206251"><ele>937.0</ele><time>2026-04-27T09:38:10.002Z</time></trkpt><trkpt lat="42.162452849949354" lon="13.666180290041632"><ele>937.0</ele><time>2026-04-27T09:38:11.002Z</time></trkpt><trkpt lat="42.162353683976136" lon="13.666248602875864"><ele>939.75</ele><time>2026-04-27T09:38:12.002Z</time></trkpt><trkpt lat="42.16225070731623" lon="13.666311115992402"><ele>942.5</ele><time>2026-04-27T09:38:13.002Z</time></trkpt><trkpt lat="42.16214257164412" lon="13.66636036231644"><ele>945.25</ele><time>2026-04-27T09:38:14.002Z</time></trkpt><trkpt lat="42.16202115838929" lon="13.666413976554004"><ele>948.0</ele><time>2026-04-27T09:38:15.002Z</time></trkpt><trkpt lat="42.16190103306263" lon="13.666493616283649"><ele>948.0</ele><time>2026-04-27T09:38:16.002Z</time></trkpt><trkpt lat="42.161806568872805" lon="13.666593878301569"><ele>948.0</ele><time>2026-04-27T09:38:17.002Z</time></trkpt><trkpt lat="42.16172782581966" lon="13.666685136570646"><ele>948.0</ele><time>2026-04-27T09:38:18.002Z</time></trkpt><trkpt lat="42.161654492367475" lon="13.666754037548197"><ele>948.0</ele><time>2026-04-27T09:38:19.002Z</time></trkpt><trkpt lat="42.16158193575469" lon="13.66681461315172"><ele>948.0</ele><time>2026-04-27T09:38:20.002Z</time></trkpt><trkpt lat="42.16149996617241" lon="13.666881564879462"><ele>949.4</ele><time>2026-04-27T09:38:21.002Z</time></trkpt><trkpt lat="42.16142035526456" lon="13.666945087908447"><ele>950.8</ele><time>2026-04-27T09:38:22.002Z</time></trkpt><trkpt lat="42.16134482653908" lon="13.667005972009793"><ele>952.2</ele><time>2026-04-27T09:38:23.002Z</time></trkpt><trkpt lat="42.16125425476185" lon="13.667081085145387"><ele>953.6</ele><time>2026-04-27T09:38:24.002Z</time></trkpt><trkpt lat="42.16115500626897" lon="13.667184023127469"><ele>955.0</ele><time>2026-04-27T09:38:25.002Z</time></trkpt><trkpt lat="42.161051669973595" lon="13.667327669759988"><ele>955.0</ele><time>2026-04-27T09:38:26.002Z</time></trkpt><trkpt lat="42.16095753301406" lon="13.667471717369724"><ele>955.0</ele><time>2026-04-27T09:38:27.002Z</time></trkpt><trkpt lat="42.16085962929897" lon="13.667603808588273"><ele>955.0</ele><time>2026-04-27T09:38:28.002Z</time></trkpt><trkpt lat="42.16076839081195" lon="13.667707301708068"><ele>955.0</ele><time>2026-04-27T09:38:29.001Z</time></trkpt><trkpt lat="42.16068332967344" lon="13.66778210021125"><ele>954.4</ele><time>2026-04-27T09:38:30.001Z</time></trkpt><trkpt lat="42.160606083731984" lon="13.667837893701504"><ele>953.8</ele><time>2026-04-27T09:38:31.001Z</time></trkpt><trkpt lat="42.16052879720899" lon="13.667875617189258"><ele>953.2</ele><time>2026-04-27T09:38:32.001Z</time></trkpt><trkpt lat="42.16045879015628" lon="13.667953508187841"><ele>952.6</ele><time>2026-04-27T09:38:33.001Z</time></trkpt><trkpt lat="42.16036690389155" lon="13.668047291651652"><ele>952.0</ele><time>2026-04-27T09:38:34.001Z</time></trkpt><trkpt lat="42.160246938858506" lon="13.668158923465231"><ele>952.0</ele><time>2026-04-27T09:38:35.001Z</time></trkpt><trkpt lat="42.160151442386805" lon="13.668274775792588"><ele>952.0</ele><time>2026-04-27T09:38:36.001Z</time></trkpt><trkpt lat="42.16006392523415" lon="13.668383200930045"><ele>952.0</ele><time>2026-04-27T09:38:37.001Z</time></trkpt><trkpt lat="42.15999157675176" lon="13.668477925398268"><ele>952.0</ele><time>2026-04-27T09:38:38.001Z</time></trkpt><trkpt lat="42.159896531848325" lon="13.668576267286735"><ele>949.8</ele><time>2026-04-27T09:38:39.001Z</time></trkpt><trkpt lat="42.159796599125755" lon="13.668658288640241"><ele>947.6</ele><time>2026-04-27T09:38:40.001Z</time></trkpt><trkpt lat="42.159696307849565" lon="13.66874576952195"><ele>945.3999999999999</ele><time>2026-04-27T09:38:41.001Z</time></trkpt><trkpt lat="42.15961705326942" lon="13.668823927791546"><ele>943.1999999999999</ele><time>2026-04-27T09:38:42.001Z</time></trkpt><trkpt lat="42.15955218657551" lon="13.668894482316983"><ele>941.0</ele><time>2026-04-27T09:38:43.001Z</time></trkpt><trkpt lat="42.15949400005748" lon="13.6690406219558"><ele>941.0000000000001</ele><time>2026-04-27T09:38:45.001Z</time></trkpt><trkpt lat="42.159495207594595" lon="13.66914649950901"><ele>941.0</ele><time>2026-04-27T09:38:46.001Z</time></trkpt><trkpt lat="42.159504669742844" lon="13.66926873326658"><ele>941.0</ele><time>2026-04-27T09:38:47.001Z</time></trkpt><trkpt lat="42.159515324108106" lon="13.669401013071663"><ele>941.0</ele><time>2026-04-27T09:38:48.001Z</time></trkpt><trkpt lat="42.15951330304701" lon="13.669504791228889"><ele>941.0000000000001</ele><time>2026-04-27T09:38:49.001Z</time></trkpt><trkpt lat="42.159485965831216" lon="13.669637389089146"><ele>941.0</ele><time>2026-04-27T09:38:50.001Z</time></trkpt><trkpt lat="42.15945440710038" lon="13.669764144924745"><ele>941.1999999999999</ele><time>2026-04-27T09:38:51.001Z</time></trkpt><trkpt lat="42.15942679421468" lon="13.669874604917316"><ele>941.3999999999999</ele><time>2026-04-27T09:38:52.001Z</time></trkpt><trkpt lat="42.15934922393658" lon="13.669995562316663"><ele>941.6</ele><time>2026-04-27T09:38:54.001Z</time></trkpt><trkpt lat="42.15928515657184" lon="13.6701018355308"><ele>941.8</ele><time>2026-04-27T09:38:55.001Z</time></trkpt><trkpt lat="42.15923062645296" lon="13.670214730031617"><ele>942.0</ele><time>2026-04-27T09:38:56.001Z</time></trkpt><trkpt lat="42.15918505171606" lon="13.670356283226383"><ele>942.0</ele><time>2026-04-27T09:38:57.001Z</time></trkpt><trkpt lat="42.15916488105289" lon="13.67047937122498"><ele>942.0</ele><time>2026-04-27T09:38:58.001Z</time></trkpt><trkpt lat="42.159159083838745" lon="13.670608212562728"><ele>942.0</ele><time>2026-04-27T09:38:59.001Z</time></trkpt><trkpt lat="42.15915833838811" lon="13.670747104518188"><ele>942.0</ele><time>2026-04-27T09:39:00.001Z</time></trkpt><trkpt lat="42.159167991545296" lon="13.670890071027491"><ele>942.0</ele><time>2026-04-27T09:39:01.001Z</time></trkpt><trkpt lat="42.15917546235904" lon="13.671045178932232"><ele>942.2</ele><time>2026-04-27T09:39:02.001Z</time></trkpt><trkpt lat="42.15918886453678" lon="13.671191985685496"><ele>942.4000000000001</ele><time>2026-04-27T09:39:03.001Z</time></trkpt><trkpt lat="42.15920321806314" lon="13.671332700157977"><ele>942.5999999999999</ele><time>2026-04-27T09:39:04.001Z</time></trkpt><trkpt lat="42.15921140975416" lon="13.671493224174183"><ele>942.8</ele><time>2026-04-27T09:39:05.001Z</time></trkpt><trkpt lat="42.15921202557577" lon="13.671635079428722"><ele>943.0</ele><time>2026-04-27T09:39:06.001Z</time></trkpt><trkpt lat="42.15921953094196" lon="13.671720293750814"><ele>943.0</ele><time>2026-04-27T09:39:07.001Z</time></trkpt><trkpt lat="42.15925115857821" lon="13.671816427900383"><ele>943.0000000000001</ele><time>2026-04-27T09:39:08.001Z</time></trkpt><trkpt lat="42.159306946320996" lon="13.671895819272098"><ele>943.0</ele><time>2026-04-27T09:39:09.001Z</time></trkpt><trkpt lat="42.15936778021489" lon="13.671973196828535"><ele>943.0</ele><time>2026-04-27T09:39:10.001Z</time></trkpt><trkpt lat="42.159435602659684" lon="13.672007110524273"><ele>943.0000000000001</ele><time>2026-04-27T09:39:11.001Z</time></trkpt><trkpt lat="42.15949795500171" lon="13.672031898064658"><ele>943.0</ele><time>2026-04-27T09:39:12.001Z</time></trkpt><trkpt lat="42.159552566424715" lon="13.67207632680074"><ele>943.0</ele><time>2026-04-27T09:39:13.001Z</time></trkpt><trkpt lat="42.15959617235781" lon="13.67221728311214"><ele>941.8</ele><time>2026-04-27T09:39:15.001Z</time></trkpt><trkpt lat="42.15960127883126" lon="13.672341080881331"><ele>940.5999999999999</ele><time>2026-04-27T09:39:16.001Z</time></trkpt><trkpt lat="42.159617215235514" lon="13.672491432106753"><ele>939.4000000000001</ele><time>2026-04-27T09:39:17.001Z</time></trkpt><trkpt lat="42.15964824877865" lon="13.672626640673181"><ele>938.2</ele><time>2026-04-27T09:39:18.001Z</time></trkpt><trkpt lat="42.159705922115045" lon="13.67276481734662"><ele>937.0</ele><time>2026-04-27T09:39:19.001Z</time></trkpt><trkpt lat="42.1597672729068" lon="13.672922602911699"><ele>934.75</ele><time>2026-04-27T09:39:20.001Z</time></trkpt><trkpt lat="42.15983411404925" lon="13.673087668383001"><ele>932.5</ele><time>2026-04-27T09:39:21.001Z</time></trkpt><trkpt lat="42.159900922408966" lon="13.673246289378127"><ele>930.25</ele><time>2026-04-27T09:39:22.001Z</time></trkpt><trkpt lat="42.159962556024226" lon="13.673397305759872"><ele>928.0</ele><time>2026-04-27T09:39:23.001Z</time></trkpt><trkpt lat="42.160024021267404" lon="13.673512187282112"><ele>933.5</ele><time>2026-04-27T09:39:24.001Z</time></trkpt><trkpt lat="42.16008285660715" lon="13.673642224792665"><ele>939.0</ele><time>2026-04-27T09:39:25.001Z</time></trkpt><trkpt lat="42.16013020756153" lon="13.673791082495512"><ele>944.5</ele><time>2026-04-27T09:39:26.001Z</time></trkpt><trkpt lat="42.16018840076942" lon="13.67393054048935"><ele>950.0</ele><time>2026-04-27T09:39:27.001Z</time></trkpt><trkpt lat="42.16022995030462" lon="13.674067134337443"><ele>950.0000000000001</ele><time>2026-04-27T09:39:28.001Z</time></trkpt><trkpt lat="42.16027344269738" lon="13.674179763626414"><ele>950.0</ele><time>2026-04-27T09:39:29.001Z</time></trkpt><trkpt lat="42.16032589707621" lon="13.674278735823627"><ele>950.0</ele><time>2026-04-27T09:39:30.001Z</time></trkpt><trkpt lat="42.16037137796893" lon="13.674344826377922"><ele>950.0</ele><time>2026-04-27T09:39:31.001Z</time></trkpt><trkpt lat="42.16042510743758" lon="13.674393476957876"><ele>950.0000000000001</ele><time>2026-04-27T09:39:32.001Z</time></trkpt><trkpt lat="42.16049717957469" lon="13.674422053451199"><ele>950.0</ele><time>2026-04-27T09:39:33.001Z</time></trkpt><trkpt lat="42.16058320535465" lon="13.67444242103576"><ele>949.6</ele><time>2026-04-27T09:39:34.001Z</time></trkpt><trkpt lat="42.160674002681425" lon="13.67446054027877"><ele>949.2</ele><time>2026-04-27T09:39:35.001Z</time></trkpt><trkpt lat="42.160764436281326" lon="13.674531734910348"><ele>948.8</ele><time>2026-04-27T09:39:36.001Z</time></trkpt><trkpt lat="42.16081722102575" lon="13.674622089995063"><ele>948.4</ele><time>2026-04-27T09:39:37.001Z</time></trkpt><trkpt lat="42.16088722159521" lon="13.674752551746211"><ele>948.0</ele><time>2026-04-27T09:39:38.001Z</time></trkpt><trkpt lat="42.16095559904679" lon="13.674858712086898"><ele>951.25</ele><time>2026-04-27T09:39:39.001Z</time></trkpt><trkpt lat="42.161038827285445" lon="13.674987828280347"><ele>954.5</ele><time>2026-04-27T09:39:40.001Z</time></trkpt><trkpt lat="42.161112096360725" lon="13.67512093825735"><ele>957.75</ele><time>2026-04-27T09:39:41.001Z</time></trkpt><trkpt lat="42.161181346104705" lon="13.675246691149937"><ele>961.0</ele><time>2026-04-27T09:39:42.001Z</time></trkpt><trkpt lat="42.16124050911631" lon="13.675367338984778"><ele>962.75</ele><time>2026-04-27T09:39:43.001Z</time></trkpt><trkpt lat="42.16130285145482" lon="13.67549324597804"><ele>964.5</ele><time>2026-04-27T09:39:44.001Z</time></trkpt><trkpt lat="42.16136432374512" lon="13.675611158169156"><ele>966.25</ele><time>2026-04-27T09:39:45.001Z</time></trkpt><trkpt lat="42.16143093433964" lon="13.67574956333019"><ele>968.0</ele><time>2026-04-27T09:39:46.001Z</time></trkpt><trkpt lat="42.16149958614848" lon="13.675866437742467"><ele>968.0</ele><time>2026-04-27T09:39:47.001Z</time></trkpt><trkpt lat="42.16154346234378" lon="13.675982366628737"><ele>968.0</ele><time>2026-04-27T09:39:48.001Z</time></trkpt><trkpt lat="42.16156735336112" lon="13.676096536818248"><ele>968.0</ele><time>2026-04-27T09:39:49.001Z</time></trkpt><trkpt lat="42.161596552220374" lon="13.676217953493381"><ele>968.0</ele><time>2026-04-27T09:39:50.001Z</time></trkpt><trkpt lat="42.161622297726545" lon="13.67635435835742"><ele>968.0</ele><time>2026-04-27T09:39:51.001Z</time></trkpt><trkpt lat="42.16165570130803" lon="13.676485172136442"><ele>968.0</ele><time>2026-04-27T09:39:52.001Z</time></trkpt><trkpt lat="42.161704725573024" lon="13.676637459391847"><ele>968.0</ele><time>2026-04-27T09:39:53.001Z</time></trkpt><trkpt lat="42.16174602122651" lon="13.676761395901348"><ele>968.0</ele><time>2026-04-27T09:39:54.001Z</time></trkpt><trkpt lat="42.16177500757698" lon="13.676876790145332"><ele>968.0</ele><time>2026-04-27T09:39:55.001Z</time></trkpt><trkpt lat="42.16177910335635" lon="13.676988125290668"><ele>968.0</ele><time>2026-04-27T09:39:56.001Z</time></trkpt><trkpt lat="42.16179391048618" lon="13.677103168130108"><ele>966.25</ele><time>2026-04-27T09:39:57.001Z</time></trkpt><trkpt lat="42.161806854389674" lon="13.67728714717136"><ele>964.5</ele><time>2026-04-27T09:39:58.001Z</time></trkpt><trkpt lat="42.16181992906485" lon="13.677465721661969"><ele>962.75</ele><time>2026-04-27T09:39:59.001Z</time></trkpt><trkpt lat="42.161836588401854" lon="13.67762408874715"><ele>961.0</ele><time>2026-04-27T09:40:00.001Z</time></trkpt><trkpt lat="42.16184479990406" lon="13.677785633930286"><ele>957.75</ele><time>2026-04-27T09:40:01.001Z</time></trkpt><trkpt lat="42.16184192909119" lon="13.677938658846918"><ele>954.5</ele><time>2026-04-27T09:40:02.001Z</time></trkpt><trkpt lat="42.1618425906985" lon="13.678095373841929"><ele>951.25</ele><time>2026-04-27T09:40:03.001Z</time></trkpt><trkpt lat="42.16185523843467" lon="13.67823683694181"><ele>948.0</ele><time>2026-04-27T09:40:04.001Z</time></trkpt><trkpt lat="42.161867580944715" lon="13.678402625818878"><ele>948.0</ele><time>2026-04-27T09:40:05.001Z</time></trkpt><trkpt lat="42.16188142970041" lon="13.678576993833214"><ele>948.0</ele><time>2026-04-27T09:40:06.001Z</time></trkpt><trkpt lat="42.161891694685046" lon="13.678726438768155"><ele>948.0</ele><time>2026-04-27T09:40:07.001Z</time></trkpt><trkpt lat="42.16188961294529" lon="13.678858140567087"><ele>948.0</ele><time>2026-04-27T09:40:08.001Z</time></trkpt><trkpt lat="42.16189964722331" lon="13.679015032630275"><ele>946.0</ele><time>2026-04-27T09:40:09.001Z</time></trkpt><trkpt lat="42.161885743104506" lon="13.67914400490585"><ele>944.0</ele><time>2026-04-27T09:40:10.001Z</time></trkpt><trkpt lat="42.16185986698853" lon="13.679288748450752"><ele>942.0</ele><time>2026-04-27T09:40:11.001Z</time></trkpt><trkpt lat="42.161826706625604" lon="13.679438318141445"><ele>940.0</ele><time>2026-04-27T09:40:12.001Z</time></trkpt><trkpt lat="42.161796209627234" lon="13.679578598308707"><ele>938.0</ele><time>2026-04-27T09:40:13.001Z</time></trkpt><trkpt lat="42.161771660579824" lon="13.67970822516324"><ele>936.6666666666667</ele><time>2026-04-27T09:40:14.001Z</time></trkpt><trkpt lat="42.16175873790924" lon="13.6798127252801"><ele>935.3333333333334</ele><time>2026-04-27T09:40:15.001Z</time></trkpt><trkpt lat="42.16174675744883" lon="13.67990402006415"><ele>934.0</ele><time>2026-04-27T09:40:16.001Z</time></trkpt><trkpt lat="42.16172099145926" lon="13.68005715873165"><ele>932.6666666666667</ele><time>2026-04-27T09:40:18.002Z</time></trkpt><trkpt lat="42.16167289157088" lon="13.680145045866434"><ele>931.3333333333334</ele><time>2026-04-27T09:40:20.002Z</time></trkpt><trkpt lat="42.16159233602917" lon="13.680114656337652"><ele>930.0</ele><time>2026-04-27T09:40:23.002Z</time></trkpt><trkpt lat="42.161549408747256" lon="13.679968728435858"><ele>931.2</ele><time>2026-04-27T09:40:25.002Z</time></trkpt><trkpt lat="42.16152921747022" lon="13.679820284582751"><ele>932.4</ele><time>2026-04-27T09:40:26.002Z</time></trkpt><trkpt lat="42.16150687141988" lon="13.679660061974342"><ele>933.5999999999999</ele><time>2026-04-27T09:40:27.002Z</time></trkpt><trkpt lat="42.16148814683932" lon="13.679526109046893"><ele>934.8</ele><time>2026-04-27T09:40:28.002Z</time></trkpt><trkpt lat="42.16148976450957" lon="13.679428841907987"><ele>936.0</ele><time>2026-04-27T09:40:29.002Z</time></trkpt><trkpt lat="42.16147413482208" lon="13.679284162962782"><ele>936.0</ele><time>2026-04-27T09:40:31.002Z</time></trkpt><trkpt lat="42.16138236092327" lon="13.679210458196193"><ele>935.9999999999999</ele><time>2026-04-27T09:40:33.002Z</time></trkpt><trkpt lat="42.16130712328655" lon="13.67922482289613"><ele>935.9999999999999</ele><time>2026-04-27T09:40:34.001Z</time></trkpt><trkpt lat="42.161211920440714" lon="13.679276684873631"><ele>936.0</ele><time>2026-04-27T09:40:35.001Z</time></trkpt><trkpt lat="42.161098327294916" lon="13.679332294801151"><ele>936.0</ele><time>2026-04-27T09:40:36.001Z</time></trkpt><trkpt lat="42.16097494691326" lon="13.679381419238636"><ele>936.0</ele><time>2026-04-27T09:40:37.001Z</time></trkpt><trkpt lat="42.160865198665064" lon="13.679433409834301"><ele>936.0</ele><time>2026-04-27T09:40:38.001Z</time></trkpt><trkpt lat="42.160756482644345" lon="13.679451054420714"><ele>936.0</ele><time>2026-04-27T09:40:39.001Z</time></trkpt><trkpt lat="42.160622634331055" lon="13.679450450297699"><ele>936.0</ele><time>2026-04-27T09:40:40.001Z</time></trkpt><trkpt lat="42.16049164805019" lon="13.679461206123609"><ele>930.25</ele><time>2026-04-27T09:40:41.001Z</time></trkpt><trkpt lat="42.16038700058181" lon="13.679507933031717"><ele>924.5</ele><time>2026-04-27T09:40:42.001Z</time></trkpt><trkpt lat="42.160290880429805" lon="13.67958359528744"><ele>918.75</ele><time>2026-04-27T09:40:43.001Z</time></trkpt><trkpt lat="42.160175659285414" lon="13.67965747288117"><ele>913.0</ele><time>2026-04-27T09:40:44.001Z</time></trkpt><trkpt lat="42.16006506750078" lon="13.679725222428045"><ele>912.9999999999999</ele><time>2026-04-27T09:40:45.001Z</time></trkpt><trkpt lat="42.15996451093199" lon="13.679778135656031"><ele>913.0</ele><time>2026-04-27T09:40:46.001Z</time></trkpt><trkpt lat="42.1598990324535" lon="13.679842289228656"><ele>913.0</ele><time>2026-04-27T09:40:47.001Z</time></trkpt><trkpt lat="42.159839891038935" lon="13.679928100354354"><ele>913.0</ele><time>2026-04-27T09:40:48.001Z</time></trkpt><trkpt lat="42.159797257931444" lon="13.680002868069488"><ele>912.9999999999999</ele><time>2026-04-27T09:40:49.001Z</time></trkpt><trkpt lat="42.159747706171295" lon="13.68005867911611"><ele>913.0</ele><time>2026-04-27T09:40:50.001Z</time></trkpt><trkpt lat="42.15966940026763" lon="13.680073010292867"><ele>908.8333333333333</ele><time>2026-04-27T09:40:52.001Z</time></trkpt><trkpt lat="42.159607826487466" lon="13.68001706231735"><ele>904.6666666666666</ele><time>2026-04-27T09:40:54.001Z</time></trkpt><trkpt lat="42.159556306655666" lon="13.679932988311322"><ele>900.5</ele><time>2026-04-27T09:41:10.001Z</time></trkpt><trkpt lat="42.1595114565477" lon="13.67985482575811"><ele>896.3333333333333</ele><time>2026-04-27T09:41:58.001Z</time></trkpt><trkpt lat="42.159474344434564" lon="13.679742238146392"><ele>892.1666666666666</ele><time>2026-04-27T09:42:00.001Z</time></trkpt><trkpt lat="42.159439519762124" lon="13.67966633111047"><ele>888.0</ele><time>2026-04-27T09:42:01.001Z</time></trkpt><trkpt lat="42.15937848954869" lon="13.679521295954174"><ele>889.8</ele><time>2026-04-27T09:42:03.001Z</time></trkpt><trkpt lat="42.15934823868789" lon="13.679433850626925"><ele>891.5999999999999</ele><time>2026-04-27T09:42:04.001Z</time></trkpt><trkpt lat="42.159304511234474" lon="13.679290443340273"><ele>893.4000000000001</ele><time>2026-04-27T09:42:06.001Z</time></trkpt><trkpt lat="42.159272947212045" lon="13.67919816894215"><ele>895.2</ele><time>2026-04-27T09:42:07.001Z</time></trkpt><trkpt lat="42.15925742612927" lon="13.679105367426954"><ele>897.0</ele><time>2026-04-27T09:42:08.001Z</time></trkpt><trkpt lat="42.15922819873257" lon="13.678946745245966"><ele>897.0</ele><time>2026-04-27T09:42:10.001Z</time></trkpt><trkpt lat="42.15920261523854" lon="13.678833187991694"><ele>897.0</ele><time>2026-04-27T09:42:11.001Z</time></trkpt><trkpt lat="42.15915787313" lon="13.678690844706523"><ele>897.0</ele><time>2026-04-27T09:42:12.001Z</time></trkpt><trkpt lat="42.15910576383948" lon="13.678549448540222"><ele>897.0</ele><time>2026-04-27T09:42:13.001Z</time></trkpt><trkpt lat="42.15906106165864" lon="13.67842428209394"><ele>897.0</ele><time>2026-04-27T09:42:14.001Z</time></trkpt><trkpt lat="42.15901583102264" lon="13.678289930339616"><ele>891.8</ele><time>2026-04-27T09:42:15.001Z</time></trkpt><trkpt lat="42.15898316510494" lon="13.678161156254944"><ele>886.6</ele><time>2026-04-27T09:42:16.001Z</time></trkpt><trkpt lat="42.15894303266881" lon="13.678000743614334"><ele>881.3999999999999</ele><time>2026-04-27T09:42:17.001Z</time></trkpt><trkpt lat="42.15890319991438" lon="13.677853123772199"><ele>876.1999999999999</ele><time>2026-04-27T09:42:18.001Z</time></trkpt><trkpt lat="42.15886596764466" lon="13.67773616050454"><ele>871.0</ele><time>2026-04-27T09:42:19.001Z</time></trkpt><trkpt lat="42.15881234868741" lon="13.677621654270657"><ele>871.0</ele><time>2026-04-27T09:42:20.001Z</time></trkpt><trkpt lat="42.158768513158776" lon="13.677476986687456"><ele>870.9999999999999</ele><time>2026-04-27T09:42:21.001Z</time></trkpt><trkpt lat="42.15872777586691" lon="13.67733403043368"><ele>870.9999999999999</ele><time>2026-04-27T09:42:22.001Z</time></trkpt><trkpt lat="42.158683476680565" lon="13.677218229881985"><ele>871.0</ele><time>2026-04-27T09:42:23.001Z</time></trkpt><trkpt lat="42.158631881034935" lon="13.677118089220043"><ele>871.0</ele><time>2026-04-27T09:42:24.001Z</time></trkpt><trkpt lat="42.15859350781705" lon="13.677015826160034"><ele>874.75</ele><time>2026-04-27T09:42:25.001Z</time></trkpt><trkpt lat="42.15853206729037" lon="13.67688046771969"><ele>878.5</ele><time>2026-04-27T09:42:26.001Z</time></trkpt><trkpt lat="42.1584664471658" lon="13.676763131032294"><ele>882.25</ele><time>2026-04-27T09:42:27.001Z</time></trkpt><trkpt lat="42.15840254003423" lon="13.67662361777729"><ele>886.0</ele><time>2026-04-27T09:42:28.001Z</time></trkpt><trkpt lat="42.158334109047885" lon="13.676506488215823"><ele>886.0</ele><time>2026-04-27T09:42:29.001Z</time></trkpt><trkpt lat="42.15825432046876" lon="13.67637785962465"><ele>886.0</ele><time>2026-04-27T09:42:30.001Z</time></trkpt><trkpt lat="42.15817963799136" lon="13.676240664741616"><ele>886.0</ele><time>2026-04-27T09:42:31.001Z</time></trkpt><trkpt lat="42.15810989580451" lon="13.67610562130994"><ele>886.0</ele><time>2026-04-27T09:42:32.001Z</time></trkpt><trkpt lat="42.15805722111917" lon="13.67599752788497"><ele>879.8333333333333</ele><time>2026-04-27T09:42:33.002Z</time></trkpt><trkpt lat="42.15800926904412" lon="13.675878654133475"><ele>873.6666666666666</ele><time>2026-04-27T09:42:34.002Z</time></trkpt><trkpt lat="42.15795575318832" lon="13.675763997603116"><ele>867.5</ele><time>2026-04-27T09:42:35.002Z</time></trkpt><trkpt lat="42.15790872846931" lon="13.67566737864453"><ele>861.3333333333333</ele><time>2026-04-27T09:42:36.002Z</time></trkpt><trkpt lat="42.15786558983879" lon="13.675590342765867"><ele>855.1666666666666</ele><time>2026-04-27T09:42:37.002Z</time></trkpt><trkpt lat="42.15782073768613" lon="13.675515131536496"><ele>849.0</ele><time>2026-04-27T09:42:38.002Z</time></trkpt><trkpt lat="42.15777913601602" lon="13.675448653890161"><ele>849.0</ele><time>2026-04-27T09:42:39.002Z</time></trkpt><trkpt lat="42.157731192393214" lon="13.675297462595777"><ele>849.0</ele><time>2026-04-27T09:42:41.001Z</time></trkpt><trkpt lat="42.15768577008981" lon="13.675202076740627"><ele>849.0</ele><time>2026-04-27T09:42:42.001Z</time></trkpt><trkpt lat="42.15764976193985" lon="13.67511173853845"><ele>849.0</ele><time>2026-04-27T09:42:43.001Z</time></trkpt><trkpt lat="42.15762946878088" lon="13.675026289146302"><ele>849.0</ele><time>2026-04-27T09:42:44.001Z</time></trkpt><trkpt lat="42.157607026636285" lon="13.67494216521081"><ele>849.0</ele><time>2026-04-27T09:42:45.001Z</time></trkpt><trkpt lat="42.1576076534785" lon="13.67479475280701"><ele>849.3333333333334</ele><time>2026-04-27T09:42:47.001Z</time></trkpt><trkpt lat="42.157611382638656" lon="13.674703827704274"><ele>849.6666666666667</ele><time>2026-04-27T09:42:48.001Z</time></trkpt><trkpt lat="42.15761898738967" lon="13.674601061258178"><ele>850.0</ele><time>2026-04-27T09:42:49.001Z</time></trkpt><trkpt lat="42.1576236646697" lon="13.67451554565235"><ele>850.3333333333334</ele><time>2026-04-27T09:42:50.001Z</time></trkpt><trkpt lat="42.15759843097145" lon="13.674355772828644"><ele>850.6666666666667</ele><time>2026-04-27T09:42:52.001Z</time></trkpt><trkpt lat="42.15766740094457" lon="13.67431794927826"><ele>851.0</ele><time>2026-04-27T09:42:53.001Z</time></trkpt><trkpt lat="42.15768832769568" lon="13.674232412287848"><ele>851.0000000000001</ele><time>2026-04-27T09:42:55.001Z</time></trkpt><trkpt lat="42.15760849377208" lon="13.674214757418783"><ele>851.0</ele><time>2026-04-27T09:42:57.001Z</time></trkpt><trkpt lat="42.1575335958082" lon="13.67434950238135"><ele>851.0</ele><time>2026-04-27T09:42:59.001Z</time></trkpt><trkpt lat="42.157494381434546" lon="13.674433820485367"><ele>851.0</ele><time>2026-04-27T09:43:00.001Z</time></trkpt><trkpt lat="42.15745680635716" lon="13.67451361307744"><ele>851.0000000000001</ele><time>2026-04-27T09:43:01.001Z</time></trkpt><trkpt lat="42.157427803273315" lon="13.674592066573771"><ele>851.0</ele><time>2026-04-27T09:43:02.001Z</time></trkpt><trkpt lat="42.15739737810863" lon="13.674729954694001"><ele>851.8</ele><time>2026-04-27T09:43:04.001Z</time></trkpt><trkpt lat="42.15737337188403" lon="13.674898793173702"><ele>852.5999999999999</ele><time>2026-04-27T09:43:06.001Z</time></trkpt><trkpt lat="42.15737574339031" lon="13.67503737137591"><ele>853.4</ele><time>2026-04-27T09:43:08.001Z</time></trkpt><trkpt lat="42.157305470693096" lon="13.67506201276976"><ele>854.2</ele><time>2026-04-27T09:43:11.001Z</time></trkpt><trkpt lat="42.15725195717978" lon="13.674975659635205"><ele>855.0</ele><time>2026-04-27T09:43:13.001Z</time></trkpt><trkpt lat="42.15723316816183" lon="13.674825152151994"><ele>850.1428571428572</ele><time>2026-04-27T09:43:15.001Z</time></trkpt><trkpt lat="42.157221820980446" lon="13.674738335265841"><ele>845.2857142857142</ele><time>2026-04-27T09:43:16.001Z</time></trkpt><trkpt lat="42.15720740972851" lon="13.674652192588296"><ele>840.4285714285714</ele><time>2026-04-27T09:43:17.001Z</time></trkpt><trkpt lat="42.157197753681416" lon="13.674563769266477"><ele>835.5714285714287</ele><time>2026-04-27T09:43:18.001Z</time></trkpt><trkpt lat="42.1572008667626" lon="13.674450590847812"><ele>830.7142857142858</ele><time>2026-04-27T09:43:20.001Z</time></trkpt><trkpt lat="42.15720635699348" lon="13.674339381175193"><ele>825.8571428571429</ele><time>2026-04-27T09:43:22.001Z</time></trkpt><trkpt lat="42.15719147387723" lon="13.674234681895003"><ele>821.0</ele><time>2026-04-27T09:43:24.001Z</time></trkpt><trkpt lat="42.15720830288247" lon="13.674103559312826"><ele>821.0000000000001</ele><time>2026-04-27T09:43:26.001Z</time></trkpt><trkpt lat="42.15723688776102" lon="13.674017581884858"><ele>821.0</ele><time>2026-04-27T09:43:28.001Z</time></trkpt><trkpt lat="42.15720329588308" lon="13.673937426547777"><ele>821.0</ele><time>2026-04-27T09:43:30.001Z</time></trkpt><trkpt lat="42.1571167122333" lon="13.673893735201824"><ele>821.0</ele><time>2026-04-27T09:43:32.001Z</time></trkpt><trkpt lat="42.15704524962142" lon="13.673931259296225"><ele>821.0000000000001</ele><time>2026-04-27T09:43:34.001Z</time></trkpt><trkpt lat="42.15698423566984" lon="13.674009519017256"><ele>821.0</ele><time>2026-04-27T09:43:36.001Z</time></trkpt><trkpt lat="42.156935543575536" lon="13.674064976025376"><ele>821.0000000000001</ele><time>2026-04-27T09:43:38.001Z</time></trkpt><trkpt lat="42.15687967380484" lon="13.67412510765699"><ele>821.0</ele><time>2026-04-27T09:43:40.001Z</time></trkpt><trkpt lat="42.15684987169889" lon="13.674232762831057"><ele>821.0</ele><time>2026-04-27T09:43:42.001Z</time></trkpt><trkpt lat="42.156864908816765" lon="13.674325459702601"><ele>821.0</ele><time>2026-04-27T09:43:44.001Z</time></trkpt><trkpt lat="42.156870153844615" lon="13.674433423756893"><ele>821.0000000000001</ele><time>2026-04-27T09:43:46.001Z</time></trkpt><trkpt lat="42.156848677639864" lon="13.67454564371576"><ele>821.0</ele><time>2026-04-27T09:43:48.001Z</time></trkpt><trkpt lat="42.156803536091644" lon="13.674683537141224"><ele>819.3333333333334</ele><time>2026-04-27T09:43:50.001Z</time></trkpt><trkpt lat="42.15677803658985" lon="13.67476590300637"><ele>817.6666666666667</ele><time>2026-04-27T09:43:51.001Z</time></trkpt><trkpt lat="42.15675065568024" lon="13.674848133236363"><ele>816.0</ele><time>2026-04-27T09:43:52.001Z</time></trkpt><trkpt lat="42.15672281838281" lon="13.674926571918736"><ele>814.3333333333333</ele><time>2026-04-27T09:43:53.001Z</time></trkpt><trkpt lat="42.156678800584004" lon="13.675042570176274"><ele>812.6666666666666</ele><time>2026-04-27T09:43:55.001Z</time></trkpt><trkpt lat="42.156622547402236" lon="13.67518499482092"><ele>811.0</ele><time>2026-04-27T09:43:57.001Z</time></trkpt><trkpt lat="42.15658857217295" lon="13.675259756776274"><ele>809.6666666666666</ele><time>2026-04-27T09:43:58.001Z</time></trkpt><trkpt lat="42.15655968671854" lon="13.675357947219926"><ele>808.3333333333333</ele><time>2026-04-27T09:43:59.001Z</time></trkpt><trkpt lat="42.156536016813696" lon="13.67544673177993"><ele>807.0</ele><time>2026-04-27T09:44:00.001Z</time></trkpt><trkpt lat="42.15651389215878" lon="13.6755419518121"><ele>805.6666666666667</ele><time>2026-04-27T09:44:01.001Z</time></trkpt><trkpt lat="42.15649512822479" lon="13.67563269237923"><ele>804.3333333333334</ele><time>2026-04-27T09:44:02.001Z</time></trkpt><trkpt lat="42.15647595412288" lon="13.675725200745632"><ele>803.0</ele><time>2026-04-27T09:44:03.001Z</time></trkpt><trkpt lat="42.156432326672274" lon="13.675853692682542"><ele>805.5999999999999</ele><time>2026-04-27T09:44:05.001Z</time></trkpt><trkpt lat="42.15637329610529" lon="13.67595296650265"><ele>808.1999999999999</ele><time>2026-04-27T09:44:08.001Z</time></trkpt><trkpt lat="42.15636200470955" lon="13.676115545249163"><ele>810.8</ele><time>2026-04-27T09:44:10.001Z</time></trkpt><trkpt lat="42.156367489562534" lon="13.676246240397143"><ele>813.4</ele><time>2026-04-27T09:44:11.001Z</time></trkpt><trkpt lat="42.156377777239875" lon="13.67639535320096"><ele>816.0</ele><time>2026-04-27T09:44:12.001Z</time></trkpt><trkpt lat="42.15640062021694" lon="13.676564851088438"><ele>816.0</ele><time>2026-04-27T09:44:13.001Z</time></trkpt><trkpt lat="42.156424682419384" lon="13.676726271299096"><ele>816.0</ele><time>2026-04-27T09:44:14.001Z</time></trkpt><trkpt lat="42.156443537499676" lon="13.676873339595906"><ele>816.0</ele><time>2026-04-27T09:44:15.001Z</time></trkpt><trkpt lat="42.15645994932452" lon="13.677000404360315"><ele>816.0</ele><time>2026-04-27T09:44:16.001Z</time></trkpt><trkpt lat="42.15647713695102" lon="13.677133475597566"><ele>816.0</ele><time>2026-04-27T09:44:17.001Z</time></trkpt><trkpt lat="42.15663186451052" lon="13.677267193813952"><ele>807.25</ele><time>2026-04-27T09:44:18.001Z</time></trkpt><trkpt lat="42.156691221984836" lon="13.677425629141071"><ele>798.5</ele><time>2026-04-27T09:44:19.001Z</time></trkpt><trkpt lat="42.15674869414751" lon="13.677579939568538"><ele>789.75</ele><time>2026-04-27T09:44:20.001Z</time></trkpt><trkpt lat="42.15679777511094" lon="13.677746232809486"><ele>781.0</ele><time>2026-04-27T09:44:21.001Z</time></trkpt><trkpt lat="42.15685366565288" lon="13.677911785795025"><ele>779.5</ele><time>2026-04-27T09:44:22.001Z</time></trkpt><trkpt lat="42.15686907011796" lon="13.67810233056744"><ele>778.0</ele><time>2026-04-27T09:44:23.001Z</time></trkpt><trkpt lat="42.156924714044685" lon="13.678266354590196"><ele>776.5</ele><time>2026-04-27T09:44:24.001Z</time></trkpt><trkpt lat="42.156971579391886" lon="13.67842837391642"><ele>775.0</ele><time>2026-04-27T09:44:25.001Z</time></trkpt><trkpt lat="42.15701106205894" lon="13.678592697780177"><ele>775.6</ele><time>2026-04-27T09:44:26.001Z</time></trkpt><trkpt lat="42.15704141439363" lon="13.678754732518236"><ele>776.2</ele><time>2026-04-27T09:44:27.001Z</time></trkpt><trkpt lat="42.15707592169343" lon="13.678913719765212"><ele>776.8</ele><time>2026-04-27T09:44:28.001Z</time></trkpt><trkpt lat="42.15710535745688" lon="13.679051318831233"><ele>777.4</ele><time>2026-04-27T09:44:29.001Z</time></trkpt><trkpt lat="42.15712917682452" lon="13.679156709894771"><ele>778.0</ele><time>2026-04-27T09:44:30.001Z</time></trkpt><trkpt lat="42.15717792915766" lon="13.679273702728118"><ele>777.9999999999999</ele><time>2026-04-27T09:44:32.001Z</time></trkpt><trkpt lat="42.1572504268554" lon="13.679319175835024"><ele>778.0</ele><time>2026-04-27T09:44:38.001Z</time></trkpt><trkpt lat="42.157235975060395" lon="13.679404231093603"><ele>778.0</ele><time>2026-04-27T09:44:48Z</time></trkpt><trkpt lat="42.1572014185113" lon="13.679475599108178"><ele>778.0</ele><time>2026-04-27T09:44:52Z</time></trkpt><trkpt lat="42.1572178045707" lon="13.679595650535028"><ele>777.9999999999999</ele><time>2026-04-27T09:44:57Z</time></trkpt><trkpt lat="42.1572178887476" lon="13.679769714767222"><ele>778.0</ele><time>2026-04-27T09:44:59Z</time></trkpt><trkpt lat="42.157189137036234" lon="13.679924301717017"><ele>774.5</ele><time>2026-04-27T09:45:00Z</time></trkpt><trkpt lat="42.15715730044909" lon="13.680088679386035"><ele>771.0</ele><time>2026-04-27T09:45:01Z</time></trkpt><trkpt lat="42.15713446624256" lon="13.680238332510468"><ele>767.5</ele><time>2026-04-27T09:45:02Z</time></trkpt><trkpt lat="42.15711491122597" lon="13.680383557513553"><ele>764.0</ele><time>2026-04-27T09:45:03Z</time></trkpt><trkpt lat="42.157085999081" lon="13.680530603810432"><ele>760.2</ele><time>2026-04-27T09:45:04Z</time></trkpt><trkpt lat="42.157034979614004" lon="13.68066201808902"><ele>756.4000000000001</ele><time>2026-04-27T09:45:05Z</time></trkpt><trkpt lat="42.15697603726025" lon="13.680787857354526"><ele>752.6</ele><time>2026-04-27T09:45:06Z</time></trkpt><trkpt lat="42.156920307134946" lon="13.68091236710354"><ele>748.8</ele><time>2026-04-27T09:45:07Z</time></trkpt><trkpt lat="42.15686318259585" lon="13.681027679163929"><ele>745.0</ele><time>2026-04-27T09:45:08Z</time></trkpt><trkpt lat="42.156797326245766" lon="13.681132095358675"><ele>743.5</ele><time>2026-04-27T09:45:09Z</time></trkpt><trkpt lat="42.156719336432786" lon="13.681244122862438"><ele>742.0</ele><time>2026-04-27T09:45:10Z</time></trkpt><trkpt lat="42.15663677980854" lon="13.6813576451741"><ele>740.5</ele><time>2026-04-27T09:45:11Z</time></trkpt><trkpt lat="42.156546531548244" lon="13.681472602233558"><ele>739.0</ele><time>2026-04-27T09:45:12Z</time></trkpt><trkpt lat="42.156454577912015" lon="13.681581825797682"><ele>737.25</ele><time>2026-04-27T09:45:13Z</time></trkpt><trkpt lat="42.15636356468342" lon="13.681690710726485"><ele>735.5</ele><time>2026-04-27T09:45:14Z</time></trkpt><trkpt lat="42.15626312295307" lon="13.681789782928917"><ele>733.75</ele><time>2026-04-27T09:45:15Z</time></trkpt><trkpt lat="42.15616077217597" lon="13.681886690201726"><ele>732.0</ele><time>2026-04-27T09:45:16Z</time></trkpt><trkpt lat="42.15605613485892" lon="13.681985209266726"><ele>731.25</ele><time>2026-04-27T09:45:17Z</time></trkpt><trkpt lat="42.15594718378509" lon="13.682086380714576"><ele>730.5</ele><time>2026-04-27T09:45:18Z</time></trkpt><trkpt lat="42.15583965895219" lon="13.682190216347086"><ele>729.75</ele><time>2026-04-27T09:45:19Z</time></trkpt><trkpt lat="42.15573101103601" lon="13.682287969427415"><ele>729.0</ele><time>2026-04-27T09:45:20Z</time></trkpt><trkpt lat="42.15562248743447" lon="13.682390664494818"><ele>725.5</ele><time>2026-04-27T09:45:21Z</time></trkpt><trkpt lat="42.155513756198566" lon="13.682489267653127"><ele>722.0</ele><time>2026-04-27T09:45:22Z</time></trkpt><trkpt lat="42.15540537952267" lon="13.682581708750627"><ele>718.5</ele><time>2026-04-27T09:45:23Z</time></trkpt><trkpt lat="42.155298054058456" lon="13.682675834656038"><ele>715.0</ele><time>2026-04-27T09:45:24Z</time></trkpt><trkpt lat="42.155194224799416" lon="13.682776129709305"><ele>715.0</ele><time>2026-04-27T09:45:25Z</time></trkpt><trkpt lat="42.15508934517716" lon="13.682890166667878"><ele>715.0</ele><time>2026-04-27T09:45:26Z</time></trkpt><trkpt lat="42.15499482921267" lon="13.683000826955166"><ele>715.0</ele><time>2026-04-27T09:45:27Z</time></trkpt><trkpt lat="42.15490279549228" lon="13.683118009734375"><ele>715.0</ele><time>2026-04-27T09:45:28Z</time></trkpt><trkpt lat="42.15478206660175" lon="13.683191407910671"><ele>712.8</ele><time>2026-04-27T09:45:29Z</time></trkpt><trkpt lat="42.1546914127849" lon="13.683300057094394"><ele>710.6</ele><time>2026-04-27T09:45:30Z</time></trkpt><trkpt lat="42.15460500048943" lon="13.683402573227873"><ele>708.4000000000001</ele><time>2026-04-27T09:45:31Z</time></trkpt><trkpt lat="42.15452639480219" lon="13.683503310744461"><ele>706.2</ele><time>2026-04-27T09:45:32Z</time></trkpt><trkpt lat="42.154455550190804" lon="13.6835943761818"><ele>704.0</ele><time>2026-04-27T09:45:33Z</time></trkpt><trkpt lat="42.154402009548654" lon="13.683674671108399"><ele>702.8000000000001</ele><time>2026-04-27T09:45:34Z</time></trkpt><trkpt lat="42.154283051922434" lon="13.683635155676921"><ele>701.6</ele><time>2026-04-27T09:45:36Z</time></trkpt><trkpt lat="42.1541858288347" lon="13.683621618161398"><ele>700.4</ele><time>2026-04-27T09:45:37Z</time></trkpt><trkpt lat="42.15408596399734" lon="13.683670710774466"><ele>699.2</ele><time>2026-04-27T09:45:38Z</time></trkpt><trkpt lat="42.154018189480595" lon="13.683770745117211"><ele>698.0</ele><time>2026-04-27T09:45:39Z</time></trkpt><trkpt lat="42.15397135133496" lon="13.683943055423786"><ele>698.0</ele><time>2026-04-27T09:45:41Z</time></trkpt><trkpt lat="42.15410089769807" lon="13.684167842868094"><ele>698.0</ele><time>2026-04-27T09:45:43Z</time></trkpt><trkpt lat="42.15414993760974" lon="13.68428877205831"><ele>698.0</ele><time>2026-04-27T09:45:44Z</time></trkpt><trkpt lat="42.15410057047287" lon="13.684439626507334"><ele>698.0</ele><time>2026-04-27T09:45:45Z</time></trkpt><trkpt lat="42.154069481507555" lon="13.684624561995134"><ele>696.75</ele><time>2026-04-27T09:45:46Z</time></trkpt><trkpt lat="42.15400498200488" lon="13.684794422633212"><ele>695.5</ele><time>2026-04-27T09:45:47Z</time></trkpt><trkpt lat="42.153951109901406" lon="13.684983721883816"><ele>694.25</ele><time>2026-04-27T09:45:48Z</time></trkpt><trkpt lat="42.15389978633712" lon="13.685183101365094"><ele>693.0</ele><time>2026-04-27T09:45:49Z</time></trkpt><trkpt lat="42.153847160208656" lon="13.685385711635494"><ele>693.0</ele><time>2026-04-27T09:45:50Z</time></trkpt><trkpt lat="42.1537945215622" lon="13.685596248921785"><ele>693.0</ele><time>2026-04-27T09:45:51Z</time></trkpt><trkpt lat="42.15375214424032" lon="13.68580544799149"><ele>693.0</ele><time>2026-04-27T09:45:52Z</time></trkpt><trkpt lat="42.153706704667265" lon="13.686009778505051"><ele>689.3333333333334</ele><time>2026-04-27T09:45:53Z</time></trkpt><trkpt lat="42.15366298234457" lon="13.686212004089352"><ele>685.6666666666667</ele><time>2026-04-27T09:45:54Z</time></trkpt><trkpt lat="42.15361665675426" lon="13.686413127961442"><ele>682.0</ele><time>2026-04-27T09:45:55Z</time></trkpt><trkpt lat="42.153574892489104" lon="13.686612695649536"><ele>682.0</ele><time>2026-04-27T09:45:56Z</time></trkpt><trkpt lat="42.15352725697168" lon="13.686807688987733"><ele>682.0</ele><time>2026-04-27T09:45:57Z</time></trkpt><trkpt lat="42.15347810975817" lon="13.687003934369296"><ele>682.0</ele><time>2026-04-27T09:45:58Z</time></trkpt><trkpt lat="42.153431556522996" lon="13.687202823631951"><ele>680.25</ele><time>2026-04-27T09:45:59Z</time></trkpt><trkpt lat="42.15339306938483" lon="13.687412672650947"><ele>678.5</ele><time>2026-04-27T09:46:00Z</time></trkpt><trkpt lat="42.15335322805904" lon="13.687616694105202"><ele>676.75</ele><time>2026-04-27T09:46:01Z</time></trkpt><trkpt lat="42.15333096794171" lon="13.687766008718492"><ele>675.0</ele><time>2026-04-27T09:46:02Z</time></trkpt><trkpt lat="42.15316841039644" lon="13.68766193895983"><ele>675.0</ele><time>2026-04-27T09:46:08.001Z</time></trkpt><trkpt lat="42.153057372351796" lon="13.687680754174949"><ele>675.0</ele><time>2026-04-27T09:46:09.001Z</time></trkpt><trkpt lat="42.152955279748305" lon="13.6877523189092"><ele>675.0</ele><time>2026-04-27T09:46:10.001Z</time></trkpt><trkpt lat="42.15284958426886" lon="13.687827509291155"><ele>675.0</ele><time>2026-04-27T09:46:11.001Z</time></trkpt><trkpt lat="42.152726676942876" lon="13.687899640432176"><ele>674.2</ele><time>2026-04-27T09:46:12.001Z</time></trkpt><trkpt lat="42.152618255037034" lon="13.687966777018469"><ele>673.4</ele><time>2026-04-27T09:46:13.001Z</time></trkpt><trkpt lat="42.152537706931916" lon="13.68805185291525"><ele>672.5999999999999</ele><time>2026-04-27T09:46:14.001Z</time></trkpt><trkpt lat="42.15247988574909" lon="13.68815163316594"><ele>671.8</ele><time>2026-04-27T09:46:15.001Z</time></trkpt><trkpt lat="42.15241463227588" lon="13.688282014764676"><ele>671.0</ele><time>2026-04-27T09:46:16.001Z</time></trkpt><trkpt lat="42.15234171076321" lon="13.688437109511304"><ele>671.0</ele><time>2026-04-27T09:46:17.001Z</time></trkpt><trkpt lat="42.152260994618736" lon="13.688591854376327"><ele>671.0</ele><time>2026-04-27T09:46:18.001Z</time></trkpt><trkpt lat="42.15218338527852" lon="13.68871761756512"><ele>671.0</ele><time>2026-04-27T09:46:19.001Z</time></trkpt><trkpt lat="42.15209527072683" lon="13.688801990763068"><ele>671.0</ele><time>2026-04-27T09:46:20.001Z</time></trkpt><trkpt lat="42.151998584723145" lon="13.688880609211676"><ele>669.0</ele><time>2026-04-27T09:46:21.001Z</time></trkpt><trkpt lat="42.151881821153154" lon="13.68897096189642"><ele>667.0</ele><time>2026-04-27T09:46:22.001Z</time></trkpt><trkpt lat="42.151750100139104" lon="13.689068860519065"><ele>665.0</ele><time>2026-04-27T09:46:23.001Z</time></trkpt><trkpt lat="42.15161648971534" lon="13.689164422646831"><ele>663.0</ele><time>2026-04-27T09:46:24.001Z</time></trkpt><trkpt lat="42.15149930466304" lon="13.689246067936836"><ele>662.8</ele><time>2026-04-27T09:46:25.001Z</time></trkpt><trkpt lat="42.151396821232" lon="13.689313414418784"><ele>662.5999999999999</ele><time>2026-04-27T09:46:26.001Z</time></trkpt><trkpt lat="42.151309561637746" lon="13.689369592527894"><ele>662.4000000000001</ele><time>2026-04-27T09:46:27.001Z</time></trkpt><trkpt lat="42.15124041887107" lon="13.689414106992494"><ele>662.2</ele><time>2026-04-27T09:46:28.001Z</time></trkpt><trkpt lat="42.15113076222498" lon="13.689511080421216"><ele>662.0</ele><time>2026-04-27T09:46:30.001Z</time></trkpt><trkpt lat="42.15108836938527" lon="13.689641184517438"><ele>662.0</ele><time>2026-04-27T09:46:31.001Z</time></trkpt><trkpt lat="42.15106265194986" lon="13.689786092334964"><ele>662.0</ele><time>2026-04-27T09:46:32.001Z</time></trkpt><trkpt lat="42.15103680222699" lon="13.689940569808705"><ele>662.0</ele><time>2026-04-27T09:46:33.001Z</time></trkpt><trkpt lat="42.15100942094213" lon="13.69009374783332"><ele>662.0</ele><time>2026-04-27T09:46:34.001Z</time></trkpt><trkpt lat="42.15097054181655" lon="13.690265385408532"><ele>662.0</ele><time>2026-04-27T09:46:35.001Z</time></trkpt><trkpt lat="42.1509341616172" lon="13.690452748615147"><ele>662.0</ele><time>2026-04-27T09:46:36.001Z</time></trkpt><trkpt lat="42.15087445109995" lon="13.690625303225302"><ele>662.0</ele><time>2026-04-27T09:46:37.001Z</time></trkpt><trkpt lat="42.15083278531963" lon="13.690819528240155"><ele>662.0</ele><time>2026-04-27T09:46:38.001Z</time></trkpt><trkpt lat="42.15078029403162" lon="13.691008278073165"><ele>660.3333333333333</ele><time>2026-04-27T09:46:39.001Z</time></trkpt><trkpt lat="42.15070433372178" lon="13.691188567417086"><ele>658.6666666666666</ele><time>2026-04-27T09:46:40.001Z</time></trkpt><trkpt lat="42.15064096968078" lon="13.691371957426169"><ele>657.0</ele><time>2026-04-27T09:46:41.001Z</time></trkpt><trkpt lat="42.15057562709332" lon="13.691554873428782"><ele>657.0</ele><time>2026-04-27T09:46:42.001Z</time></trkpt><trkpt lat="42.15051465854201" lon="13.691718545588436"><ele>657.0</ele><time>2026-04-27T09:46:43.001Z</time></trkpt><trkpt lat="42.15045341309329" lon="13.691866113584735"><ele>657.0</ele><time>2026-04-27T09:46:44.001Z</time></trkpt><trkpt lat="42.150382148185315" lon="13.692015470406684"><ele>657.0</ele><time>2026-04-27T09:46:45.001Z</time></trkpt><trkpt lat="42.15031926442362" lon="13.69217949819972"><ele>657.75</ele><time>2026-04-27T09:46:46.001Z</time></trkpt><trkpt lat="42.150241408621305" lon="13.692339117499793"><ele>658.5</ele><time>2026-04-27T09:46:47.001Z</time></trkpt><trkpt lat="42.15017960844628" lon="13.692498045953553"><ele>659.25</ele><time>2026-04-27T09:46:48.001Z</time></trkpt><trkpt lat="42.15013343840979" lon="13.6926326672445"><ele>660.0</ele><time>2026-04-27T09:46:49.001Z</time></trkpt><trkpt lat="42.150119352472366" lon="13.69274015450022"><ele>659.6666666666666</ele><time>2026-04-27T09:46:50.001Z</time></trkpt><trkpt lat="42.150068464415185" lon="13.692813897647442"><ele>659.3333333333334</ele><time>2026-04-27T09:46:51.001Z</time></trkpt><trkpt lat="42.15005254839367" lon="13.69296768781107"><ele>659.0</ele><time>2026-04-27T09:46:52.999Z</time></trkpt><trkpt lat="42.150028281570926" lon="13.693049564077967"><ele>658.6666666666667</ele><time>2026-04-27T09:46:53.999Z</time></trkpt><trkpt lat="42.150032096410214" lon="13.693139570119609"><ele>658.3333333333334</ele><time>2026-04-27T09:46:54.999Z</time></trkpt><trkpt lat="42.15004968859603" lon="13.693241399810187"><ele>658.0</ele><time>2026-04-27T09:46:55.999Z</time></trkpt><trkpt lat="42.14966585542019" lon="13.69336993173797"><ele>656.0</ele><time>2026-04-27T09:46:56.999Z</time></trkpt><trkpt lat="42.14959268039802" lon="13.693523359235536"><ele>654.0</ele><time>2026-04-27T09:46:57.999Z</time></trkpt><trkpt lat="42.149530801886485" lon="13.69366868521652"><ele>652.0</ele><time>2026-04-27T09:46:58.999Z</time></trkpt><trkpt lat="42.14946400551919" lon="13.693826318884378"><ele>650.0</ele><time>2026-04-27T09:47:00Z</time></trkpt><trkpt lat="42.149389559917914" lon="13.693985774462083"><ele>650.0</ele><time>2026-04-27T09:47:01Z</time></trkpt><trkpt lat="42.14931314508844" lon="13.694134992279668"><ele>650.0</ele><time>2026-04-27T09:47:02Z</time></trkpt><trkpt lat="42.14924658929436" lon="13.694273082911907"><ele>650.0</ele><time>2026-04-27T09:47:03Z</time></trkpt><trkpt lat="42.149182800291335" lon="13.694401881448679"><ele>650.0</ele><time>2026-04-27T09:47:04Z</time></trkpt><trkpt lat="42.14911378195394" lon="13.69449855109693"><ele>650.0</ele><time>2026-04-27T09:47:05Z</time></trkpt><trkpt lat="42.14903685742008" lon="13.694605393197845"><ele>650.0</ele><time>2026-04-27T09:47:06Z</time></trkpt><trkpt lat="42.1489526140405" lon="13.694733065786219"><ele>650.0</ele><time>2026-04-27T09:47:07Z</time></trkpt><trkpt lat="42.148878051214744" lon="13.694871736485172"><ele>650.0</ele><time>2026-04-27T09:47:08Z</time></trkpt><trkpt lat="42.148815417777406" lon="13.695005598436664"><ele>650.0</ele><time>2026-04-27T09:47:09Z</time></trkpt><trkpt lat="42.14875988647098" lon="13.695111291716406"><ele>650.0</ele><time>2026-04-27T09:47:10Z</time></trkpt><trkpt lat="42.148676764339434" lon="13.695200190946073"><ele>650.0</ele><time>2026-04-27T09:47:11Z</time></trkpt><trkpt lat="42.148582429361454" lon="13.695270510600457"><ele>650.0</ele><time>2026-04-27T09:47:12Z</time></trkpt><trkpt lat="42.148475621994855" lon="13.695326660161939"><ele>650.0</ele><time>2026-04-27T09:47:13Z</time></trkpt><trkpt lat="42.14838827507175" lon="13.695406736811131"><ele>649.8</ele><time>2026-04-27T09:47:14Z</time></trkpt><trkpt lat="42.148329277455424" lon="13.695499284551575"><ele>649.6</ele><time>2026-04-27T09:47:15Z</time></trkpt><trkpt lat="42.14827942075841" lon="13.695623655018018"><ele>649.4000000000001</ele><time>2026-04-27T09:47:16Z</time></trkpt><trkpt lat="42.1482329933726" lon="13.695755431418469"><ele>649.2</ele><time>2026-04-27T09:47:17Z</time></trkpt><trkpt lat="42.14817696154508" lon="13.695880661741604"><ele>649.0</ele><time>2026-04-27T09:47:18Z</time></trkpt><trkpt lat="42.14811884886254" lon="13.695956631696564"><ele>649.0</ele><time>2026-04-27T09:47:19Z</time></trkpt><trkpt lat="42.148040161494" lon="13.695999573115925"><ele>649.0</ele><time>2026-04-27T09:47:20Z</time></trkpt><trkpt lat="42.1479506865259" lon="13.696011584541793"><ele>649.0</ele><time>2026-04-27T09:47:21Z</time></trkpt><trkpt lat="42.14783966359042" lon="13.696026032465952"><ele>649.0</ele><time>2026-04-27T09:47:22Z</time></trkpt><trkpt lat="42.14771860775441" lon="13.696049629657717"><ele>649.0</ele><time>2026-04-27T09:47:23Z</time></trkpt><trkpt lat="42.14758038238696" lon="13.696075808272985"><ele>648.75</ele><time>2026-04-27T09:47:24Z</time></trkpt><trkpt lat="42.14744077667469" lon="13.69610179344921"><ele>648.5</ele><time>2026-04-27T09:47:25Z</time></trkpt><trkpt lat="42.147309426842774" lon="13.696124322691599"><ele>648.25</ele><time>2026-04-27T09:47:26Z</time></trkpt><trkpt lat="42.14719755958983" lon="13.696143021066375"><ele>648.0</ele><time>2026-04-27T09:47:27Z</time></trkpt><trkpt lat="42.147110321455074" lon="13.69615627680138"><ele>647.3333333333334</ele><time>2026-04-27T09:47:28Z</time></trkpt><trkpt lat="42.14704379056105" lon="13.696144849258042"><ele>646.6666666666666</ele><time>2026-04-27T09:47:29Z</time></trkpt><trkpt lat="42.146976739100516" lon="13.696111230521396"><ele>646.0</ele><time>2026-04-27T09:47:30Z</time></trkpt><trkpt lat="42.14691956191192" lon="13.69605901259115"><ele>645.3333333333333</ele><time>2026-04-27T09:47:31Z</time></trkpt><trkpt lat="42.14683822210984" lon="13.695997504407854"><ele>644.6666666666666</ele><time>2026-04-27T09:47:32Z</time></trkpt><trkpt lat="42.146732083633744" lon="13.695949198477427"><ele>644.0</ele><time>2026-04-27T09:47:33Z</time></trkpt><trkpt lat="42.14662780794793" lon="13.695920126575631"><ele>641.6</ele><time>2026-04-27T09:47:34Z</time></trkpt><trkpt lat="42.14650499631846" lon="13.695885568381643"><ele>639.2</ele><time>2026-04-27T09:47:35Z</time></trkpt><trkpt lat="42.146391900355546" lon="13.69585861377448"><ele>636.8000000000001</ele><time>2026-04-27T09:47:36Z</time></trkpt><trkpt lat="42.14629578111027" lon="13.69583859849443"><ele>634.4000000000001</ele><time>2026-04-27T09:47:37Z</time></trkpt><trkpt lat="42.14620658209223" lon="13.695833836587253"><ele>632.0</ele><time>2026-04-27T09:47:38Z</time></trkpt><trkpt lat="42.14611558676248" lon="13.695848736357396"><ele>632.0</ele><time>2026-04-27T09:47:39Z</time></trkpt><trkpt lat="42.146006955239116" lon="13.695894074060702"><ele>632.0</ele><time>2026-04-27T09:47:40Z</time></trkpt><trkpt lat="42.145873753386276" lon="13.695956650838339"><ele>632.0</ele><time>2026-04-27T09:47:41Z</time></trkpt><trkpt lat="42.14572857690383" lon="13.696016413912194"><ele>632.0</ele><time>2026-04-27T09:47:42Z</time></trkpt><trkpt lat="42.14557371119885" lon="13.696085377393832"><ele>629.0</ele><time>2026-04-27T09:47:43Z</time></trkpt><trkpt lat="42.14543046198918" lon="13.696144988325345"><ele>626.0</ele><time>2026-04-27T09:47:44Z</time></trkpt><trkpt lat="42.14529289962244" lon="13.69620543338136"><ele>623.0</ele><time>2026-04-27T09:47:45Z</time></trkpt><trkpt lat="42.145157811006975" lon="13.696256373195274"><ele>620.0</ele><time>2026-04-27T09:47:46Z</time></trkpt><trkpt lat="42.14501662578412" lon="13.696300977008631"><ele>617.25</ele><time>2026-04-27T09:47:47Z</time></trkpt><trkpt lat="42.14487713766738" lon="13.696318861408644"><ele>614.5</ele><time>2026-04-27T09:47:48Z</time></trkpt><trkpt lat="42.144736299283146" lon="13.696334074273912"><ele>611.75</ele><time>2026-04-27T09:47:49Z</time></trkpt><trkpt lat="42.14459546744711" lon="13.696346845316343"><ele>609.0</ele><time>2026-04-27T09:47:50Z</time></trkpt><trkpt lat="42.14446785471516" lon="13.69637579143289"><ele>609.0</ele><time>2026-04-27T09:47:51Z</time></trkpt><trkpt lat="42.14435280160333" lon="13.696414301445353"><ele>609.0</ele><time>2026-04-27T09:47:52Z</time></trkpt><trkpt lat="42.14425465912282" lon="13.696462472067514"><ele>609.0</ele><time>2026-04-27T09:47:53Z</time></trkpt><trkpt lat="42.14415999051504" lon="13.696525269119022"><ele>609.0</ele><time>2026-04-27T09:47:54Z</time></trkpt><trkpt lat="42.14406946452629" lon="13.696606464549312"><ele>609.0</ele><time>2026-04-27T09:47:55Z</time></trkpt><trkpt lat="42.143964410642" lon="13.696706798186378"><ele>605.3333333333334</ele><time>2026-04-27T09:47:56Z</time></trkpt><trkpt lat="42.143842346269075" lon="13.696814326430266"><ele>601.6666666666667</ele><time>2026-04-27T09:47:57Z</time></trkpt><trkpt lat="42.14370876474176" lon="13.696914193038035"><ele>598.0</ele><time>2026-04-27T09:47:58Z</time></trkpt><trkpt lat="42.14356017527703" lon="13.697000257662236"><ele>597.0</ele><time>2026-04-27T09:47:59Z</time></trkpt><trkpt lat="42.14341675861579" lon="13.697074077771491"><ele>596.0</ele><time>2026-04-27T09:48:00Z</time></trkpt><trkpt lat="42.143282089262584" lon="13.69716436718726"><ele>595.0</ele><time>2026-04-27T09:48:01Z</time></trkpt><trkpt lat="42.143147962447536" lon="13.697268088428585"><ele>593.3333333333334</ele><time>2026-04-27T09:48:02Z</time></trkpt><trkpt lat="42.14302081536997" lon="13.697383833697524"><ele>591.6666666666666</ele><time>2026-04-27T09:48:03Z</time></trkpt><trkpt lat="42.142890479673966" lon="13.697498568298274"><ele>590.0</ele><time>2026-04-27T09:48:04Z</time></trkpt><trkpt lat="42.14276311039806" lon="13.697598404973553"><ele>590.0</ele><time>2026-04-27T09:48:05Z</time></trkpt><trkpt lat="42.14263359424102" lon="13.69769504992258"><ele>590.0</ele><time>2026-04-27T09:48:06Z</time></trkpt><trkpt lat="42.142508618303886" lon="13.697775614487693"><ele>590.0</ele><time>2026-04-27T09:48:07Z</time></trkpt><trkpt lat="42.14238646516463" lon="13.69785849619566"><ele>590.0</ele><time>2026-04-27T09:48:08Z</time></trkpt><trkpt lat="42.14226959835472" lon="13.697934414273913"><ele>586.75</ele><time>2026-04-27T09:48:09Z</time></trkpt><trkpt lat="42.14214779577783" lon="13.69800194025072"><ele>583.5</ele><time>2026-04-27T09:48:10Z</time></trkpt><trkpt lat="42.14202081633032" lon="13.698055064098282"><ele>580.25</ele><time>2026-04-27T09:48:11Z</time></trkpt><trkpt lat="42.14189475460517" lon="13.698096765234261"><ele>577.0</ele><time>2026-04-27T09:48:12Z</time></trkpt><trkpt lat="42.14177532030623" lon="13.698124366781505"><ele>577.0</ele><time>2026-04-27T09:48:13Z</time></trkpt><trkpt lat="42.14165992496769" lon="13.698132796369912"><ele>577.0</ele><time>2026-04-27T09:48:14Z</time></trkpt><trkpt lat="42.14155043998502" lon="13.698122809264163"><ele>577.0</ele><time>2026-04-27T09:48:15Z</time></trkpt><trkpt lat="42.14145122249542" lon="13.698095392180514"><ele>577.0</ele><time>2026-04-27T09:48:16Z</time></trkpt><trkpt lat="42.14134729531169" lon="13.698066742478485"><ele>577.0</ele><time>2026-04-27T09:48:17Z</time></trkpt><trkpt lat="42.14124353575868" lon="13.698025852307854"><ele>575.0</ele><time>2026-04-27T09:48:18Z</time></trkpt><trkpt lat="42.14115611902784" lon="13.697979448621503"><ele>573.0</ele><time>2026-04-27T09:48:19Z</time></trkpt><trkpt lat="42.14107157093592" lon="13.697920941445497"><ele>571.0</ele><time>2026-04-27T09:48:20Z</time></trkpt><trkpt lat="42.14100930785919" lon="13.697859852177128"><ele>569.0</ele><time>2026-04-27T09:48:21Z</time></trkpt><trkpt lat="42.140965120780336" lon="13.697788853134456"><ele>567.0</ele><time>2026-04-27T09:48:22Z</time></trkpt><trkpt lat="42.14092724094698" lon="13.697712896029975"><ele>565.0</ele><time>2026-04-27T09:48:23Z</time></trkpt><trkpt lat="42.14088823992565" lon="13.697613759538207"><ele>565.0</ele><time>2026-04-27T09:48:25Z</time></trkpt><trkpt lat="42.140815806905024" lon="13.697683806601747"><ele>565.0</ele><time>2026-04-27T09:48:28Z</time></trkpt><trkpt lat="42.1407596319786" lon="13.69786023941293"><ele>565.0</ele><time>2026-04-27T09:48:30.001Z</time></trkpt><trkpt lat="42.14070450405438" lon="13.697966967773182"><ele>565.0</ele><time>2026-04-27T09:48:31.001Z</time></trkpt><trkpt lat="42.14064811245837" lon="13.698076367349818"><ele>565.0</ele><time>2026-04-27T09:48:32.001Z</time></trkpt><trkpt lat="42.1406078308626" lon="13.698152899692746"><ele>565.3333333333334</ele><time>2026-04-27T09:48:33.001Z</time></trkpt><trkpt lat="42.14054173437952" lon="13.698177927012848"><ele>565.6666666666667</ele><time>2026-04-27T09:48:35.001Z</time></trkpt><trkpt lat="42.14048476059496" lon="13.698085324215747"><ele>566.0</ele><time>2026-04-27T09:48:37.001Z</time></trkpt><trkpt lat="42.140457932145424" lon="13.697997978358988"><ele>566.3333333333334</ele><time>2026-04-27T09:48:38.001Z</time></trkpt><trkpt lat="42.140411862918704" lon="13.697889518581446"><ele>566.6666666666666</ele><time>2026-04-27T09:48:39.001Z</time></trkpt><trkpt lat="42.140359991618816" lon="13.69779911323436"><ele>567.0</ele><time>2026-04-27T09:48:40.001Z</time></trkpt><trkpt lat="42.140300031381614" lon="13.697690874240482"><ele>567.0</ele><time>2026-04-27T09:48:41.001Z</time></trkpt><trkpt lat="42.14022863460245" lon="13.697599042488806"><ele>567.0</ele><time>2026-04-27T09:48:42.001Z</time></trkpt><trkpt lat="42.14016180156282" lon="13.697516375973988"><ele>567.0</ele><time>2026-04-27T09:48:43.001Z</time></trkpt><trkpt lat="42.14010224874983" lon="13.697440986812289"><ele>567.0</ele><time>2026-04-27T09:48:44.001Z</time></trkpt><trkpt lat="42.140009025767064" lon="13.697381311812661"><ele>567.0</ele><time>2026-04-27T09:48:46.001Z</time></trkpt><trkpt lat="42.13989267380963" lon="13.697391470135441"><ele>568.1666666666666</ele><time>2026-04-27T09:48:48.001Z</time></trkpt><trkpt lat="42.13981841273027" lon="13.697415206788005"><ele>569.3333333333334</ele><time>2026-04-27T09:48:49.001Z</time></trkpt><trkpt lat="42.13975592994675" lon="13.697436615425623"><ele>570.5</ele><time>2026-04-27T09:48:50.001Z</time></trkpt><trkpt lat="42.139664407741144" lon="13.697433779389977"><ele>571.6666666666667</ele><time>2026-04-27T09:48:52.001Z</time></trkpt><trkpt lat="42.13956537257182" lon="13.697388232469551"><ele>572.8333333333334</ele><time>2026-04-27T09:48:54.001Z</time></trkpt><trkpt lat="42.139510221056014" lon="13.697342387169924"><ele>574.0</ele><time>2026-04-27T09:48:55.001Z</time></trkpt><trkpt lat="42.13943515319892" lon="13.697299720684615"><ele>574.0</ele><time>2026-04-27T09:48:56.001Z</time></trkpt><trkpt lat="42.13936382114008" lon="13.697284245963834"><ele>574.0</ele><time>2026-04-27T09:48:57.001Z</time></trkpt><trkpt lat="42.13928495995206" lon="13.697287846496184"><ele>574.0</ele><time>2026-04-27T09:48:58Z</time></trkpt><trkpt lat="42.13919304843904" lon="13.697301546355773"><ele>574.0</ele><time>2026-04-27T09:48:59Z</time></trkpt><trkpt lat="42.13910298377666" lon="13.697282316184461"><ele>574.0</ele><time>2026-04-27T09:49:00Z</time></trkpt><trkpt lat="42.13900059967768" lon="13.697224444247393"><ele>574.0</ele><time>2026-04-27T09:49:02Z</time></trkpt><trkpt lat="42.13893616615157" lon="13.697162583730405"><ele>575.5714285714286</ele><time>2026-04-27T09:49:03Z</time></trkpt><trkpt lat="42.138882293103" lon="13.69711202694593"><ele>577.1428571428571</ele><time>2026-04-27T09:49:04Z</time></trkpt><trkpt lat="42.13882686542678" lon="13.697058301174067"><ele>578.7142857142858</ele><time>2026-04-27T09:49:05Z</time></trkpt><trkpt lat="42.138779978834236" lon="13.69699520902915"><ele>580.2857142857142</ele><time>2026-04-27T09:49:06Z</time></trkpt><trkpt lat="42.13874066715425" lon="13.696911204914842"><ele>581.8571428571429</ele><time>2026-04-27T09:49:07Z</time></trkpt><trkpt lat="42.138693292364664" lon="13.696825963340734"><ele>583.4285714285714</ele><time>2026-04-27T09:49:08Z</time></trkpt><trkpt lat="42.138633364711474" lon="13.69676971810648"><ele>585.0</ele><time>2026-04-27T09:49:09Z</time></trkpt><trkpt lat="42.13855880488103" lon="13.696730549688837"><ele>585.0</ele><time>2026-04-27T09:49:10Z</time></trkpt><trkpt lat="42.13845687265815" lon="13.696674497193701"><ele>585.0</ele><time>2026-04-27T09:49:11Z</time></trkpt><trkpt lat="42.1383541603096" lon="13.696621615642055"><ele>585.0</ele><time>2026-04-27T09:49:12Z</time></trkpt><trkpt lat="42.13826432933543" lon="13.696578306684552"><ele>585.0</ele><time>2026-04-27T09:49:13Z</time></trkpt><trkpt lat="42.138189104397625" lon="13.696540918191102"><ele>585.0</ele><time>2026-04-27T09:49:14Z</time></trkpt><trkpt lat="42.1381120443057" lon="13.696505055621536"><ele>585.8333333333334</ele><time>2026-04-27T09:49:15Z</time></trkpt><trkpt lat="42.138024624947874" lon="13.696471379089457"><ele>586.6666666666666</ele><time>2026-04-27T09:49:16Z</time></trkpt><trkpt lat="42.13793297008605" lon="13.696437169454194"><ele>587.5</ele><time>2026-04-27T09:49:17Z</time></trkpt><trkpt lat="42.13783838068926" lon="13.696403305029019"><ele>588.3333333333333</ele><time>2026-04-27T09:49:18Z</time></trkpt><trkpt lat="42.13776190700467" lon="13.696368782476673"><ele>589.1666666666666</ele><time>2026-04-27T09:49:19Z</time></trkpt><trkpt lat="42.13770070075146" lon="13.69633364560453"><ele>590.0</ele><time>2026-04-27T09:49:20Z</time></trkpt><trkpt lat="42.13758805838373" lon="13.696222196332295"><ele>590.0</ele><time>2026-04-27T09:49:22Z</time></trkpt><trkpt lat="42.137514306459586" lon="13.696152606914481"><ele>590.0</ele><time>2026-04-27T09:49:23Z</time></trkpt><trkpt lat="42.137434570298915" lon="13.696100228333556"><ele>590.0</ele><time>2026-04-27T09:49:24Z</time></trkpt><trkpt lat="42.137336921130114" lon="13.696066630295084"><ele>590.0</ele><time>2026-04-27T09:49:26Z</time></trkpt><trkpt lat="42.13727323832878" lon="13.696057427416617"><ele>590.0</ele><time>2026-04-27T09:49:27Z</time></trkpt><trkpt lat="42.137173756751075" lon="13.696053377344265"><ele>590.0</ele><time>2026-04-27T09:49:29Z</time></trkpt><trkpt lat="42.137072081856545" lon="13.696087964412907"><ele>591.0</ele><time>2026-04-27T09:49:31Z</time></trkpt><trkpt lat="42.1369614071063" lon="13.696122640221873"><ele>592.0</ele><time>2026-04-27T09:49:33Z</time></trkpt><trkpt lat="42.136841939293404" lon="13.696141094452377"><ele>593.0</ele><time>2026-04-27T09:49:35Z</time></trkpt><trkpt lat="42.136778613262706" lon="13.696142388185145"><ele>594.0</ele><time>2026-04-27T09:49:36Z</time></trkpt><trkpt lat="42.1367006214668" lon="13.696133474562847"><ele>595.0</ele><time>2026-04-27T09:49:37Z</time></trkpt><trkpt lat="42.1366291177243" lon="13.696128062707565"><ele>596.0</ele><time>2026-04-27T09:49:38Z</time></trkpt><trkpt lat="42.13656305671286" lon="13.696120907435452"><ele>596.5</ele><time>2026-04-27T09:49:39Z</time></trkpt><trkpt lat="42.13649430994562" lon="13.696105332074614"><ele>597.0</ele><time>2026-04-27T09:49:40Z</time></trkpt><trkpt lat="42.13642185721347" lon="13.696087850722353"><ele>597.5</ele><time>2026-04-27T09:49:41Z</time></trkpt><trkpt lat="42.13634335690701" lon="13.696074219582535"><ele>598.0</ele><time>2026-04-27T09:49:42Z</time></trkpt><trkpt lat="42.13625574317166" lon="13.696081756603022"><ele>598.5</ele><time>2026-04-27T09:49:43Z</time></trkpt><trkpt lat="42.13616007027737" lon="13.696101515183312"><ele>599.0</ele><time>2026-04-27T09:49:44Z</time></trkpt><trkpt lat="42.136051066498474" lon="13.696110560760738"><ele>599.8</ele><time>2026-04-27T09:49:45Z</time></trkpt><trkpt lat="42.13594278300703" lon="13.696113499312638"><ele>600.5999999999999</ele><time>2026-04-27T09:49:46Z</time></trkpt><trkpt lat="42.135854340838776" lon="13.696117495386034"><ele>601.4</ele><time>2026-04-27T09:49:47Z</time></trkpt><trkpt lat="42.135788380316036" lon="13.696092895275413"><ele>602.1999999999999</ele><time>2026-04-27T09:49:48Z</time></trkpt><trkpt lat="42.13570677900264" lon="13.69605762826839"><ele>603.0</ele><time>2026-04-27T09:49:49Z</time></trkpt><trkpt lat="42.13560017480943" lon="13.696011750307232"><ele>605.0</ele><time>2026-04-27T09:49:50Z</time></trkpt><trkpt lat="42.13550313766422" lon="13.695962443978472"><ele>607.0</ele><time>2026-04-27T09:49:51Z</time></trkpt><trkpt lat="42.13539773172047" lon="13.69590985391963"><ele>609.0</ele><time>2026-04-27T09:49:52Z</time></trkpt><trkpt lat="42.13529435604924" lon="13.695882555163681"><ele>611.0</ele><time>2026-04-27T09:49:53Z</time></trkpt><trkpt lat="42.13520659956446" lon="13.695870658043738"><ele>613.0</ele><time>2026-04-27T09:49:54Z</time></trkpt><trkpt lat="42.135140446653274" lon="13.695876003854263"><ele>613.0</ele><time>2026-04-27T09:49:55Z</time></trkpt><trkpt lat="42.135076785054544" lon="13.695900362629448"><ele>613.0</ele><time>2026-04-27T09:49:56Z</time></trkpt><trkpt lat="42.13498613918126" lon="13.69592515688168"><ele>613.0</ele><time>2026-04-27T09:49:57Z</time></trkpt><trkpt lat="42.134893696269714" lon="13.695947313989855"><ele>613.0</ele><time>2026-04-27T09:49:58Z</time></trkpt><trkpt lat="42.134800506580774" lon="13.69596524553423"><ele>613.0</ele><time>2026-04-27T09:49:59Z</time></trkpt><trkpt lat="42.134705621521974" lon="13.695967702955393"><ele>613.0</ele><time>2026-04-27T09:50:00Z</time></trkpt><trkpt lat="42.134612003189204" lon="13.695968739697763"><ele>613.0</ele><time>2026-04-27T09:50:01Z</time></trkpt><trkpt lat="42.13453389925816" lon="13.695972726470421"><ele>613.0</ele><time>2026-04-27T09:50:02Z</time></trkpt><trkpt lat="42.13443841708764" lon="13.696030587633558"><ele>613.0</ele><time>2026-04-27T09:50:04Z</time></trkpt><trkpt lat="42.13437662248201" lon="13.696086456214555"><ele>613.0</ele><time>2026-04-27T09:50:05Z</time></trkpt><trkpt lat="42.13431446861122" lon="13.696154667744228"><ele>613.0</ele><time>2026-04-27T09:50:06Z</time></trkpt><trkpt lat="42.13424690440639" lon="13.69624615419646"><ele>613.0</ele><time>2026-04-27T09:50:07Z</time></trkpt><trkpt lat="42.13419162627519" lon="13.696362531089317"><ele>613.0</ele><time>2026-04-27T09:50:08Z</time></trkpt><trkpt lat="42.134131877861776" lon="13.696475970904858"><ele>613.0</ele><time>2026-04-27T09:50:09Z</time></trkpt><trkpt lat="42.13405876490691" lon="13.696581133342574"><ele>613.0</ele><time>2026-04-27T09:50:10Z</time></trkpt><trkpt lat="42.13398391103631" lon="13.696664613728037"><ele>613.0</ele><time>2026-04-27T09:50:11Z</time></trkpt><trkpt lat="42.13390196334136" lon="13.696746256863706"><ele>613.0</ele><time>2026-04-27T09:50:12Z</time></trkpt><trkpt lat="42.133823804902924" lon="13.69681502264661"><ele>613.1999999999999</ele><time>2026-04-27T09:50:13Z</time></trkpt><trkpt lat="42.133745839998" lon="13.69690669621904"><ele>613.4</ele><time>2026-04-27T09:50:14Z</time></trkpt><trkpt lat="42.13366551009627" lon="13.697016088608828"><ele>613.5999999999999</ele><time>2026-04-27T09:50:15Z</time></trkpt><trkpt lat="42.13359375228274" lon="13.697111585969227"><ele>613.8</ele><time>2026-04-27T09:50:16Z</time></trkpt><trkpt lat="42.13352849263469" lon="13.697197559636317"><ele>614.0</ele><time>2026-04-27T09:50:17Z</time></trkpt><trkpt lat="42.13345931612698" lon="13.697296081421241"><ele>613.8</ele><time>2026-04-27T09:50:18Z</time></trkpt><trkpt lat="42.13339859982699" lon="13.697402381640913"><ele>613.5999999999999</ele><time>2026-04-27T09:50:19Z</time></trkpt><trkpt lat="42.133315783174766" lon="13.697496706020146"><ele>613.4</ele><time>2026-04-27T09:50:20Z</time></trkpt><trkpt lat="42.133230550917375" lon="13.69759929956418"><ele>613.1999999999999</ele><time>2026-04-27T09:50:21Z</time></trkpt><trkpt lat="42.13313930795086" lon="13.697718053472741"><ele>613.0</ele><time>2026-04-27T09:50:22Z</time></trkpt><trkpt lat="42.133041223424975" lon="13.697835570164255"><ele>613.0</ele><time>2026-04-27T09:50:23Z</time></trkpt><trkpt lat="42.13293316861228" lon="13.697968866942881"><ele>613.0</ele><time>2026-04-27T09:50:24Z</time></trkpt><trkpt lat="42.132833418929" lon="13.698099437135971"><ele>613.0</ele><time>2026-04-27T09:50:25.001Z</time></trkpt><trkpt lat="42.13275336152355" lon="13.698196466773187"><ele>613.0</ele><time>2026-04-27T09:50:26.001Z</time></trkpt><trkpt lat="42.132667665194035" lon="13.698282273355321"><ele>613.0</ele><time>2026-04-27T09:50:27.001Z</time></trkpt><trkpt lat="42.13257922932379" lon="13.698380168231736"><ele>613.0</ele><time>2026-04-27T09:50:28.001Z</time></trkpt><trkpt lat="42.132527863968036" lon="13.698495793975502"><ele>613.0</ele><time>2026-04-27T09:50:29.001Z</time></trkpt><trkpt lat="42.13248730086941" lon="13.698641832822982"><ele>613.0</ele><time>2026-04-27T09:50:30.001Z</time></trkpt><trkpt lat="42.13243958040008" lon="13.698795281987218"><ele>612.75</ele><time>2026-04-27T09:50:31.001Z</time></trkpt><trkpt lat="42.13239200012137" lon="13.698948446285799"><ele>612.5</ele><time>2026-04-27T09:50:32.001Z</time></trkpt><trkpt lat="42.13234103201196" lon="13.699087805891784"><ele>612.25</ele><time>2026-04-27T09:50:33.001Z</time></trkpt><trkpt lat="42.1322799152556" lon="13.699212003523996"><ele>612.0</ele><time>2026-04-27T09:50:34.001Z</time></trkpt><trkpt lat="42.132198996393804" lon="13.699341120627107"><ele>612.75</ele><time>2026-04-27T09:50:35.001Z</time></trkpt><trkpt lat="42.13211703630766" lon="13.699467639700842"><ele>613.5</ele><time>2026-04-27T09:50:36.001Z</time></trkpt><trkpt lat="42.13203121404923" lon="13.699595568621193"><ele>614.25</ele><time>2026-04-27T09:50:37.001Z</time></trkpt><trkpt lat="42.131940657864966" lon="13.699719946910603"><ele>615.0</ele><time>2026-04-27T09:50:38.001Z</time></trkpt><trkpt lat="42.1318471262094" lon="13.699848634397906"><ele>615.0</ele><time>2026-04-27T09:50:39.001Z</time></trkpt><trkpt lat="42.131760642565084" lon="13.699973489403105"><ele>615.0</ele><time>2026-04-27T09:50:40.001Z</time></trkpt><trkpt lat="42.13166096769426" lon="13.70008893057552"><ele>615.0</ele><time>2026-04-27T09:50:41.001Z</time></trkpt><trkpt lat="42.131551369695494" lon="13.700191238166855"><ele>615.0</ele><time>2026-04-27T09:50:42.001Z</time></trkpt><trkpt lat="42.13143856916894" lon="13.7002677259108"><ele>615.5</ele><time>2026-04-27T09:50:43.001Z</time></trkpt><trkpt lat="42.13134969487341" lon="13.70034256584405"><ele>616.0</ele><time>2026-04-27T09:50:44.001Z</time></trkpt><trkpt lat="42.13127171611215" lon="13.700455313167458"><ele>616.5</ele><time>2026-04-27T09:50:45.001Z</time></trkpt><trkpt lat="42.131199538254606" lon="13.70059873340831"><ele>617.0</ele><time>2026-04-27T09:50:46.001Z</time></trkpt><trkpt lat="42.131123160832416" lon="13.700752137611234"><ele>617.0</ele><time>2026-04-27T09:50:47.001Z</time></trkpt><trkpt lat="42.13102896339932" lon="13.70088145518753"><ele>617.0</ele><time>2026-04-27T09:50:48.001Z</time></trkpt><trkpt lat="42.1309156857326" lon="13.701001080640994"><ele>617.0</ele><time>2026-04-27T09:50:49.001Z</time></trkpt><trkpt lat="42.13078657777537" lon="13.701111378809575"><ele>617.0</ele><time>2026-04-27T09:50:50.001Z</time></trkpt><trkpt lat="42.130661796079906" lon="13.701208419533122"><ele>620.0</ele><time>2026-04-27T09:50:51.001Z</time></trkpt><trkpt lat="42.13054234636871" lon="13.701331497208578"><ele>623.0</ele><time>2026-04-27T09:50:52.001Z</time></trkpt><trkpt lat="42.13043648437135" lon="13.701465270456785"><ele>626.0</ele><time>2026-04-27T09:50:53.001Z</time></trkpt><trkpt lat="42.13034482430424" lon="13.70158730631866"><ele>629.0</ele><time>2026-04-27T09:50:54.001Z</time></trkpt><trkpt lat="42.13027226568556" lon="13.701668479792756"><ele>629.0</ele><time>2026-04-27T09:50:55.001Z</time></trkpt><trkpt lat="42.130207228273086" lon="13.70172324935234"><ele>629.0</ele><time>2026-04-27T09:50:56.001Z</time></trkpt><trkpt lat="42.13012303514486" lon="13.701719603102998"><ele>629.0</ele><time>2026-04-27T09:50:58.001Z</time></trkpt><trkpt lat="42.129977044642416" lon="13.701730051350662"><ele>629.0</ele><time>2026-04-27T09:51:01.001Z</time></trkpt><trkpt lat="42.129886489762626" lon="13.701686130718892"><ele>629.0</ele><time>2026-04-27T09:51:02.001Z</time></trkpt><trkpt lat="42.12979202922515" lon="13.701628817123574"><ele>637.0</ele><time>2026-04-27T09:51:03.001Z</time></trkpt><trkpt lat="42.12983828930741" lon="13.701056925914752"><ele>645.0</ele><time>2026-04-27T09:51:04Z</time></trkpt><trkpt lat="42.12978145513886" lon="13.700906557969578"><ele>645.0</ele><time>2026-04-27T09:51:05Z</time></trkpt><trkpt lat="42.129720412930155" lon="13.700760698939915"><ele>645.0</ele><time>2026-04-27T09:51:06Z</time></trkpt><trkpt lat="42.12965643114255" lon="13.70062556282261"><ele>645.0</ele><time>2026-04-27T09:51:07Z</time></trkpt><trkpt lat="42.1295981219465" lon="13.70050848397176"><ele>645.0</ele><time>2026-04-27T09:51:08Z</time></trkpt><trkpt lat="42.12954182972734" lon="13.7004008340549"><ele>645.0</ele><time>2026-04-27T09:51:09Z</time></trkpt><trkpt lat="42.12948888008201" lon="13.700302964546957"><ele>646.6666666666666</ele><time>2026-04-27T09:51:10Z</time></trkpt><trkpt lat="42.129432430122975" lon="13.70018410880449"><ele>648.3333333333334</ele><time>2026-04-27T09:51:11Z</time></trkpt><trkpt lat="42.12938679256253" lon="13.70008407620855"><ele>650.0</ele><time>2026-04-27T09:51:12Z</time></trkpt><trkpt lat="42.12934444154898" lon="13.699971973430612"><ele>651.6666666666667</ele><time>2026-04-27T09:51:13Z</time></trkpt><trkpt lat="42.1293044632643" lon="13.699887768097906"><ele>653.3333333333334</ele><time>2026-04-27T09:51:14Z</time></trkpt><trkpt lat="42.129248484760915" lon="13.699843377939843"><ele>655.0</ele><time>2026-04-27T09:51:15Z</time></trkpt><trkpt lat="42.12913433152301" lon="13.699845998188747"><ele>655.0</ele><time>2026-04-27T09:51:17Z</time></trkpt><trkpt lat="42.12906777901478" lon="13.69988436794325"><ele>655.0</ele><time>2026-04-27T09:51:18Z</time></trkpt><trkpt lat="42.1289951298052" lon="13.699929205486615"><ele>655.0</ele><time>2026-04-27T09:51:19Z</time></trkpt><trkpt lat="42.12891194697168" lon="13.699978038742485"><ele>655.0</ele><time>2026-04-27T09:51:20Z</time></trkpt><trkpt lat="42.12883942733794" lon="13.700037676414428"><ele>655.0</ele><time>2026-04-27T09:51:21Z</time></trkpt><trkpt lat="42.12875619166767" lon="13.700070307566605"><ele>655.0</ele><time>2026-04-27T09:51:23Z</time></trkpt><trkpt lat="42.12868331930713" lon="13.700000719010816"><ele>656.6</ele><time>2026-04-27T09:51:25Z</time></trkpt><trkpt lat="42.128647073185064" lon="13.699928316202028"><ele>658.2</ele><time>2026-04-27T09:51:26Z</time></trkpt><trkpt lat="42.128573491523234" lon="13.699887308208076"><ele>659.8</ele><time>2026-04-27T09:51:28Z</time></trkpt><trkpt lat="42.12845646060144" lon="13.699980311745893"><ele>661.4</ele><time>2026-04-27T09:51:30Z</time></trkpt><trkpt lat="42.12833369068335" lon="13.700032496261224"><ele>663.0</ele><time>2026-04-27T09:51:32Z</time></trkpt><trkpt lat="42.12826234088777" lon="13.70004835857155"><ele>665.1666666666666</ele><time>2026-04-27T09:51:33Z</time></trkpt><trkpt lat="42.12818487920071" lon="13.700067705136462"><ele>667.3333333333334</ele><time>2026-04-27T09:51:34Z</time></trkpt><trkpt lat="42.128112893047046" lon="13.700104095868236"><ele>669.5</ele><time>2026-04-27T09:51:35Z</time></trkpt><trkpt lat="42.128023543257484" lon="13.700079092013022"><ele>671.6666666666667</ele><time>2026-04-27T09:51:36Z</time></trkpt><trkpt lat="42.12795334603226" lon="13.700100329552436"><ele>673.8333333333334</ele><time>2026-04-27T09:51:37Z</time></trkpt><trkpt lat="42.12786639673524" lon="13.70012429645626"><ele>676.0</ele><time>2026-04-27T09:51:38Z</time></trkpt><trkpt lat="42.12778849988276" lon="13.70014891807696"><ele>676.0</ele><time>2026-04-27T09:51:39Z</time></trkpt><trkpt lat="42.127703642660336" lon="13.700161431763608"><ele>676.0</ele><time>2026-04-27T09:51:40Z</time></trkpt><trkpt lat="42.12763783254475" lon="13.700168785642612"><ele>676.0</ele><time>2026-04-27T09:51:41Z</time></trkpt><trkpt lat="42.127545329346326" lon="13.700183686792323"><ele>676.0</ele><time>2026-04-27T09:51:42Z</time></trkpt><trkpt lat="42.12746097898035" lon="13.700177516310958"><ele>676.0</ele><time>2026-04-27T09:51:43Z</time></trkpt><trkpt lat="42.12734089691818" lon="13.700148954281186"><ele>674.0</ele><time>2026-04-27T09:51:45Z</time></trkpt><trkpt lat="42.127254367974295" lon="13.700137416454506"><ele>672.0</ele><time>2026-04-27T09:51:47Z</time></trkpt><trkpt lat="42.1271771417573" lon="13.700127550969867"><ele>670.0</ele><time>2026-04-27T09:51:49Z</time></trkpt><trkpt lat="42.12708253219675" lon="13.700115467654069"><ele>668.0</ele><time>2026-04-27T09:51:51Z</time></trkpt><trkpt lat="42.12697973641144" lon="13.700102338814308"><ele>666.0</ele><time>2026-04-27T09:51:53Z</time></trkpt><trkpt lat="42.126888414656925" lon="13.700049442999198"><ele>666.0</ele><time>2026-04-27T09:51:55Z</time></trkpt><trkpt lat="42.12683434142904" lon="13.69991086153022"><ele>666.0</ele><time>2026-04-27T09:51:57Z</time></trkpt><trkpt lat="42.12678680040198" lon="13.69980690742893"><ele>666.0</ele><time>2026-04-27T09:51:59Z</time></trkpt><trkpt lat="42.12674801990665" lon="13.699693195358497"><ele>666.0</ele><time>2026-04-27T09:52:01Z</time></trkpt><trkpt lat="42.12672976187625" lon="13.699549893849742"><ele>666.0</ele><time>2026-04-27T09:52:03Z</time></trkpt><trkpt lat="42.1267129649556" lon="13.699463720656993"><ele>664.8</ele><time>2026-04-27T09:52:05Z</time></trkpt><trkpt lat="42.126655027848784" lon="13.699401174597062"><ele>663.5999999999999</ele><time>2026-04-27T09:52:08Z</time></trkpt><trkpt lat="42.126538955633336" lon="13.699499691478517"><ele>662.4</ele><time>2026-04-27T09:52:10Z</time></trkpt><trkpt lat="42.12643458601668" lon="13.699482260395387"><ele>661.2</ele><time>2026-04-27T09:52:12Z</time></trkpt><trkpt lat="42.12634722081246" lon="13.699467669305221"><ele>660.0</ele><time>2026-04-27T09:52:14Z</time></trkpt><trkpt lat="42.126310349607245" lon="13.69934997184709"><ele>660.0</ele><time>2026-04-27T09:52:15Z</time></trkpt><trkpt lat="42.126257803466714" lon="13.69922109427115"><ele>660.0</ele><time>2026-04-27T09:52:17.001Z</time></trkpt><trkpt lat="42.12623475360656" lon="13.699134599212906"><ele>660.0</ele><time>2026-04-27T09:52:18.001Z</time></trkpt><trkpt lat="42.126152715018414" lon="13.699025489075837"><ele>660.0</ele><time>2026-04-27T09:52:20.001Z</time></trkpt><trkpt lat="42.12608969494537" lon="13.698908322037259"><ele>660.0</ele><time>2026-04-27T09:52:22.001Z</time></trkpt><trkpt lat="42.126066168789585" lon="13.698739310783004"><ele>660.0</ele><time>2026-04-27T09:52:24.001Z</time></trkpt><trkpt lat="42.126069410723254" lon="13.698644105398746"><ele>660.0</ele><time>2026-04-27T09:52:25.001Z</time></trkpt><trkpt lat="42.12608373460435" lon="13.698537637816747"><ele>660.0</ele><time>2026-04-27T09:52:26.001Z</time></trkpt><trkpt lat="42.126106146948274" lon="13.698432001872026"><ele>660.0</ele><time>2026-04-27T09:52:27.001Z</time></trkpt><trkpt lat="42.12611534025753" lon="13.698322143716615"><ele>660.0</ele><time>2026-04-27T09:52:28.001Z</time></trkpt><trkpt lat="42.12611756840195" lon="13.69820213750493"><ele>660.0</ele><time>2026-04-27T09:52:29.001Z</time></trkpt><trkpt lat="42.12611286566584" lon="13.698077510233865"><ele>661.2</ele><time>2026-04-27T09:52:30.001Z</time></trkpt><trkpt lat="42.12611066419655" lon="13.69796404796852"><ele>662.4</ele><time>2026-04-27T09:52:31.001Z</time></trkpt><trkpt lat="42.126108515953405" lon="13.697843619388117"><ele>663.5999999999999</ele><time>2026-04-27T09:52:32.001Z</time></trkpt><trkpt lat="42.12610089984287" lon="13.697713612960504"><ele>664.8</ele><time>2026-04-27T09:52:33.001Z</time></trkpt><trkpt lat="42.126087751113445" lon="13.697587911955816"><ele>666.0</ele><time>2026-04-27T09:52:34.001Z</time></trkpt><trkpt lat="42.1260677929473" lon="13.697458039831618"><ele>668.1999999999999</ele><time>2026-04-27T09:52:35.001Z</time></trkpt><trkpt lat="42.12603920078842" lon="13.697359342685145"><ele>670.4</ele><time>2026-04-27T09:52:36.001Z</time></trkpt><trkpt lat="42.12600647613192" lon="13.69722168152224"><ele>672.6</ele><time>2026-04-27T09:52:37.001Z</time></trkpt><trkpt lat="42.125976452080586" lon="13.697104638573204"><ele>674.8</ele><time>2026-04-27T09:52:38.001Z</time></trkpt><trkpt lat="42.125946755504344" lon="13.69697621238163"><ele>677.0</ele><time>2026-04-27T09:52:39.001Z</time></trkpt><trkpt lat="42.12591701738233" lon="13.696846545628464"><ele>679.4000000000001</ele><time>2026-04-27T09:52:40.001Z</time></trkpt><trkpt lat="42.12588854311447" lon="13.696707872712231"><ele>681.8000000000001</ele><time>2026-04-27T09:52:41.001Z</time></trkpt><trkpt lat="42.12586279157788" lon="13.696566112925764"><ele>684.2</ele><time>2026-04-27T09:52:42.001Z</time></trkpt><trkpt lat="42.12582837151268" lon="13.696422200800262"><ele>686.6</ele><time>2026-04-27T09:52:43.001Z</time></trkpt><trkpt lat="42.1257944100942" lon="13.69627178800386"><ele>689.0</ele><time>2026-04-27T09:52:44.001Z</time></trkpt><trkpt lat="42.12576254479697" lon="13.696121718327166"><ele>692.5</ele><time>2026-04-27T09:52:45.001Z</time></trkpt><trkpt lat="42.12573451740619" lon="13.695968508048376"><ele>696.0</ele><time>2026-04-27T09:52:46.001Z</time></trkpt><trkpt lat="42.125705064539446" lon="13.695814748020885"><ele>699.5</ele><time>2026-04-27T09:52:47.001Z</time></trkpt><trkpt lat="42.12567288814914" lon="13.69566676665135"><ele>703.0</ele><time>2026-04-27T09:52:48.001Z</time></trkpt><trkpt lat="42.125645759624" lon="13.695520776627282"><ele>704.75</ele><time>2026-04-27T09:52:49.001Z</time></trkpt><trkpt lat="42.12561743001846" lon="13.695370301219139"><ele>706.5</ele><time>2026-04-27T09:52:50.001Z</time></trkpt><trkpt lat="42.12559404063899" lon="13.695206804926014"><ele>708.25</ele><time>2026-04-27T09:52:51.001Z</time></trkpt><trkpt lat="42.12557851203534" lon="13.695042685073993"><ele>710.0</ele><time>2026-04-27T09:52:52.001Z</time></trkpt><trkpt lat="42.1255535938107" lon="13.694875258017712"><ele>714.75</ele><time>2026-04-27T09:52:53.001Z</time></trkpt><trkpt lat="42.1255202618038" lon="13.694707264737481"><ele>719.5</ele><time>2026-04-27T09:52:54.001Z</time></trkpt><trkpt lat="42.125482111713715" lon="13.694539640816503"><ele>724.25</ele><time>2026-04-27T09:52:55.001Z</time></trkpt><trkpt lat="42.12543592841449" lon="13.694381869452656"><ele>729.0</ele><time>2026-04-27T09:52:56.001Z</time></trkpt><trkpt lat="42.12538967034157" lon="13.694231552374182"><ele>730.25</ele><time>2026-04-27T09:52:57.001Z</time></trkpt><trkpt lat="42.12534104529065" lon="13.694079957214623"><ele>731.5</ele><time>2026-04-27T09:52:58.001Z</time></trkpt><trkpt lat="42.125281636355204" lon="13.69394359063783"><ele>732.75</ele><time>2026-04-27T09:52:59.001Z</time></trkpt><trkpt lat="42.125213739315896" lon="13.69381548822387"><ele>734.0</ele><time>2026-04-27T09:53:00.001Z</time></trkpt><trkpt lat="42.1251511073284" lon="13.693681924255452"><ele>735.6</ele><time>2026-04-27T09:53:01.001Z</time></trkpt><trkpt lat="42.12510287229387" lon="13.693531807360918"><ele>737.2</ele><time>2026-04-27T09:53:02.001Z</time></trkpt><trkpt lat="42.125048057201" lon="13.69341281515025"><ele>738.8000000000001</ele><time>2026-04-27T09:53:03.001Z</time></trkpt><trkpt lat="42.12499597271577" lon="13.693289958814974"><ele>740.4000000000001</ele><time>2026-04-27T09:53:04.001Z</time></trkpt><trkpt lat="42.12494268213662" lon="13.693209456142737"><ele>742.0</ele><time>2026-04-27T09:53:05.001Z</time></trkpt><trkpt lat="42.12488126114656" lon="13.69313701170014"><ele>748.0</ele><time>2026-04-27T09:53:06.001Z</time></trkpt><trkpt lat="42.12480916795558" lon="13.69301174859607"><ele>754.0</ele><time>2026-04-27T09:53:07.001Z</time></trkpt><trkpt lat="42.12472844488015" lon="13.692904392158788"><ele>760.0</ele><time>2026-04-27T09:53:08.001Z</time></trkpt><trkpt lat="42.12462792774703" lon="13.692800141599278"><ele>766.0</ele><time>2026-04-27T09:53:09.001Z</time></trkpt><trkpt lat="42.124559378329785" lon="13.692688586459543"><ele>766.1999999999999</ele><time>2026-04-27T09:53:10Z</time></trkpt><trkpt lat="42.12448755854835" lon="13.692577700931231"><ele>766.4</ele><time>2026-04-27T09:53:11Z</time></trkpt><trkpt lat="42.12443281268385" lon="13.692481818237097"><ele>766.6</ele><time>2026-04-27T09:53:12Z</time></trkpt><trkpt lat="42.124378277327715" lon="13.69235157818875"><ele>766.8</ele><time>2026-04-27T09:53:13Z</time></trkpt><trkpt lat="42.12433855578558" lon="13.692250786254421"><ele>767.0</ele><time>2026-04-27T09:53:14Z</time></trkpt><trkpt lat="42.124297271775795" lon="13.692125118910896"><ele>767.0</ele><time>2026-04-27T09:53:15Z</time></trkpt><trkpt lat="42.124275434394654" lon="13.692038619248038"><ele>767.0</ele><time>2026-04-27T09:53:16Z</time></trkpt><trkpt lat="42.12417008136679" lon="13.691996871695304"><ele>767.0</ele><time>2026-04-27T09:53:19Z</time></trkpt><trkpt lat="42.124063445705374" lon="13.692086603682545"><ele>767.0</ele><time>2026-04-27T09:53:21Z</time></trkpt><trkpt lat="42.12403163091866" lon="13.692185923927973"><ele>767.0</ele><time>2026-04-27T09:53:22Z</time></trkpt><trkpt lat="42.124013173034044" lon="13.692306598133786"><ele>771.0</ele><time>2026-04-27T09:53:23Z</time></trkpt><trkpt lat="42.124020967241485" lon="13.692447501369578"><ele>775.0</ele><time>2026-04-27T09:53:24Z</time></trkpt><trkpt lat="42.12402618379115" lon="13.692567039177211"><ele>779.0</ele><time>2026-04-27T09:53:25Z</time></trkpt><trkpt lat="42.12403556094817" lon="13.692698984888866"><ele>783.0</ele><time>2026-04-27T09:53:26Z</time></trkpt><trkpt lat="42.12404359658739" lon="13.69283476067415"><ele>787.0</ele><time>2026-04-27T09:53:27Z</time></trkpt><trkpt lat="42.12404857963794" lon="13.692997224545472"><ele>787.0</ele><time>2026-04-27T09:53:28Z</time></trkpt><trkpt lat="42.124038630853725" lon="13.693154326468271"><ele>787.0</ele><time>2026-04-27T09:53:29Z</time></trkpt><trkpt lat="42.12402423937717" lon="13.693281896439201"><ele>787.0</ele><time>2026-04-27T09:53:30Z</time></trkpt><trkpt lat="42.12398229155998" lon="13.693430147565312"><ele>787.0</ele><time>2026-04-27T09:53:32Z</time></trkpt><trkpt lat="42.12393790329754" lon="13.693521812592504"><ele>787.0</ele><time>2026-04-27T09:53:33Z</time></trkpt><trkpt lat="42.12389342905969" lon="13.693594489877356"><ele>784.6</ele><time>2026-04-27T09:53:34Z</time></trkpt><trkpt lat="42.1238276986477" lon="13.693653894520768"><ele>782.2</ele><time>2026-04-27T09:53:35Z</time></trkpt><trkpt lat="42.123753645643205" lon="13.69371843754532"><ele>779.8</ele><time>2026-04-27T09:53:36Z</time></trkpt><trkpt lat="42.123663381777085" lon="13.693772819256461"><ele>777.4</ele><time>2026-04-27T09:53:37Z</time></trkpt><trkpt lat="42.12357063090106" lon="13.693798913909687"><ele>775.0</ele><time>2026-04-27T09:53:38Z</time></trkpt><trkpt lat="42.12345420838916" lon="13.693847041869462"><ele>775.0</ele><time>2026-04-27T09:53:39Z</time></trkpt><trkpt lat="42.123342059668666" lon="13.693906183520877"><ele>775.0</ele><time>2026-04-27T09:53:40Z</time></trkpt><trkpt lat="42.12325022871307" lon="13.69397258127965"><ele>775.0</ele><time>2026-04-27T09:53:41Z</time></trkpt><trkpt lat="42.123177305493016" lon="13.694071188969378"><ele>775.0</ele><time>2026-04-27T09:53:42Z</time></trkpt><trkpt lat="42.12308694876459" lon="13.69415895530246"><ele>775.0</ele><time>2026-04-27T09:53:43Z</time></trkpt><trkpt lat="42.12300614620493" lon="13.694257819504722"><ele>778.2</ele><time>2026-04-27T09:53:44Z</time></trkpt><trkpt lat="42.12292727937659" lon="13.694344197030015"><ele>781.4</ele><time>2026-04-27T09:53:45Z</time></trkpt><trkpt lat="42.122857749690844" lon="13.694416769475145"><ele>784.5999999999999</ele><time>2026-04-27T09:53:46Z</time></trkpt><trkpt lat="42.12275870973822" lon="13.69448240753502"><ele>787.8</ele><time>2026-04-27T09:53:47Z</time></trkpt><trkpt lat="42.12265181114547" lon="13.694530715899202"><ele>791.0</ele><time>2026-04-27T09:53:48Z</time></trkpt><trkpt lat="42.12254323042428" lon="13.694568477382113"><ele>791.0</ele><time>2026-04-27T09:53:49Z</time></trkpt><trkpt lat="42.122429476287735" lon="13.694603389157331"><ele>791.0</ele><time>2026-04-27T09:53:50Z</time></trkpt><trkpt lat="42.12231667529109" lon="13.694624685265802"><ele>791.0</ele><time>2026-04-27T09:53:51Z</time></trkpt><trkpt lat="42.122217349867675" lon="13.694612015762909"><ele>791.0</ele><time>2026-04-27T09:53:52Z</time></trkpt><trkpt lat="42.122142838558595" lon="13.694586786583796"><ele>791.0</ele><time>2026-04-27T09:53:53Z</time></trkpt><trkpt lat="42.12205753110732" lon="13.694556755393934"><ele>792.0</ele><time>2026-04-27T09:53:54Z</time></trkpt><trkpt lat="42.12207947686483" lon="13.694465866676573"><ele>793.0</ele><time>2026-04-27T09:53:59Z</time></trkpt><trkpt lat="42.12213315667834" lon="13.694375354500785"><ele>794.0</ele><time>2026-04-27T09:54:00Z</time></trkpt><trkpt lat="42.12219378338459" lon="13.694268895399158"><ele>795.0</ele><time>2026-04-27T09:54:01Z</time></trkpt><trkpt lat="42.122240309515846" lon="13.694129798652416"><ele>796.0</ele><time>2026-04-27T09:54:02Z</time></trkpt><trkpt lat="42.122283936975855" lon="13.693989221594892"><ele>798.75</ele><time>2026-04-27T09:54:03Z</time></trkpt><trkpt lat="42.12233399355986" lon="13.693834648278036"><ele>801.5</ele><time>2026-04-27T09:54:04Z</time></trkpt><trkpt lat="42.12238855115349" lon="13.69367067796434"><ele>804.25</ele><time>2026-04-27T09:54:05Z</time></trkpt><trkpt lat="42.122448478039686" lon="13.6934963128983"><ele>807.0</ele><time>2026-04-27T09:54:06Z</time></trkpt><trkpt lat="42.12251122740853" lon="13.693324577159633"><ele>807.0</ele><time>2026-04-27T09:54:07Z</time></trkpt><trkpt lat="42.122564982086836" lon="13.693161645841077"><ele>807.0</ele><time>2026-04-27T09:54:08Z</time></trkpt><trkpt lat="42.12260013646694" lon="13.693024072785605"><ele>807.0</ele><time>2026-04-27T09:54:09Z</time></trkpt><trkpt lat="42.12260836751093" lon="13.69290144913387"><ele>807.0</ele><time>2026-04-27T09:54:10Z</time></trkpt><trkpt lat="42.12257341693471" lon="13.692805621037733"><ele>807.0</ele><time>2026-04-27T09:54:11.001Z</time></trkpt><trkpt lat="42.12253108955792" lon="13.69272916408758"><ele>807.0</ele><time>2026-04-27T09:54:12.001Z</time></trkpt><trkpt lat="42.12243336281052" lon="13.692756862058937"><ele>807.0</ele><time>2026-04-27T09:54:13.001Z</time></trkpt><trkpt lat="42.12235313897405" lon="13.69280328911985"><ele>807.0</ele><time>2026-04-27T09:54:14.001Z</time></trkpt><trkpt lat="42.12225581288774" lon="13.692858165870033"><ele>807.0</ele><time>2026-04-27T09:54:15.001Z</time></trkpt><trkpt lat="42.12215215815325" lon="13.692936296489082"><ele>807.0</ele><time>2026-04-27T09:54:16.001Z</time></trkpt><trkpt lat="42.122035098040335" lon="13.69302462638172"><ele>813.6666666666667</ele><time>2026-04-27T09:54:17.001Z</time></trkpt><trkpt lat="42.121905663536246" lon="13.693118009065259"><ele>820.3333333333334</ele><time>2026-04-27T09:54:18.001Z</time></trkpt><trkpt lat="42.121769532837504" lon="13.693210131726598"><ele>827.0</ele><time>2026-04-27T09:54:19.001Z</time></trkpt><trkpt lat="42.1216188267165" lon="13.693304317403719"><ele>834.0</ele><time>2026-04-27T09:54:20.001Z</time></trkpt><trkpt lat="42.12146405411407" lon="13.693390243614013"><ele>841.0</ele><time>2026-04-27T09:54:21.001Z</time></trkpt><trkpt lat="42.12131013764498" lon="13.693459366792462"><ele>848.0</ele><time>2026-04-27T09:54:22.001Z</time></trkpt><trkpt lat="42.121148234402604" lon="13.693515623822124"><ele>848.0</ele><time>2026-04-27T09:54:23.001Z</time></trkpt><trkpt lat="42.12097041506058" lon="13.693571203725929"><ele>848.0</ele><time>2026-04-27T09:54:24.001Z</time></trkpt><trkpt lat="42.12080344747775" lon="13.69364362868624"><ele>848.0</ele><time>2026-04-27T09:54:25.001Z</time></trkpt><trkpt lat="42.12063684079812" lon="13.693713994927217"><ele>845.0</ele><time>2026-04-27T09:54:26.001Z</time></trkpt><trkpt lat="42.12046548343412" lon="13.693782330707762"><ele>842.0</ele><time>2026-04-27T09:54:27.001Z</time></trkpt><trkpt lat="42.12027414959615" lon="13.69385545107855"><ele>839.0</ele><time>2026-04-27T09:54:28.001Z</time></trkpt><trkpt lat="42.12009259671607" lon="13.693933375614389"><ele>839.0</ele><time>2026-04-27T09:54:29.001Z</time></trkpt><trkpt lat="42.119927479366225" lon="13.694008554061496"><ele>839.0</ele><time>2026-04-27T09:54:30.001Z</time></trkpt><trkpt lat="42.1197463572866" lon="13.694090582991803"><ele>839.0</ele><time>2026-04-27T09:54:31.001Z</time></trkpt><trkpt lat="42.11957176178346" lon="13.694165792161552"><ele>847.3333333333334</ele><time>2026-04-27T09:54:32.001Z</time></trkpt><trkpt lat="42.11941573173089" lon="13.694223130719053"><ele>855.6666666666667</ele><time>2026-04-27T09:54:33.001Z</time></trkpt><trkpt lat="42.11924597836163" lon="13.694266992678074"><ele>864.0</ele><time>2026-04-27T09:54:34.001Z</time></trkpt><trkpt lat="42.119083655617885" lon="13.694303162387927"><ele>861.6666666666667</ele><time>2026-04-27T09:54:35.001Z</time></trkpt><trkpt lat="42.11893454143723" lon="13.694341496597723"><ele>859.3333333333334</ele><time>2026-04-27T09:54:36.001Z</time></trkpt><trkpt lat="42.11878708008299" lon="13.694424101952526"><ele>857.0</ele><time>2026-04-27T09:54:37.001Z</time></trkpt><trkpt lat="42.11862802764798" lon="13.694528715986944"><ele>857.0</ele><time>2026-04-27T09:54:38.001Z</time></trkpt><trkpt lat="42.11846330142065" lon="13.694635959412546"><ele>857.0</ele><time>2026-04-27T09:54:39.001Z</time></trkpt><trkpt lat="42.118300949883" lon="13.694739262269618"><ele>857.0</ele><time>2026-04-27T09:54:40.001Z</time></trkpt><trkpt lat="42.11813323664192" lon="13.694844879668793"><ele>867.0</ele><time>2026-04-27T09:54:41.001Z</time></trkpt><trkpt lat="42.117975459263015" lon="13.694947781172552"><ele>877.0</ele><time>2026-04-27T09:54:42.001Z</time></trkpt><trkpt lat="42.1178209029646" lon="13.69504100991498"><ele>887.0</ele><time>2026-04-27T09:54:43.001Z</time></trkpt><trkpt lat="42.11765198394338" lon="13.695123650780282"><ele>887.0</ele><time>2026-04-27T09:54:44.001Z</time></trkpt><trkpt lat="42.11748382526676" lon="13.69517952962287"><ele>887.0</ele><time>2026-04-27T09:54:45.001Z</time></trkpt><trkpt lat="42.11730606274534" lon="13.695212692168639"><ele>887.0</ele><time>2026-04-27T09:54:46.001Z</time></trkpt><trkpt lat="42.1171114612631" lon="13.695250020120627"><ele>886.0</ele><time>2026-04-27T09:54:47.001Z</time></trkpt><trkpt lat="42.11691761442102" lon="13.695295242981006"><ele>885.0</ele><time>2026-04-27T09:54:48.001Z</time></trkpt><trkpt lat="42.11673360411012" lon="13.695342731403075"><ele>884.0</ele><time>2026-04-27T09:54:49.001Z</time></trkpt><trkpt lat="42.11654569916372" lon="13.695385238582833"><ele>884.0</ele><time>2026-04-27T09:54:50.001Z</time></trkpt><trkpt lat="42.116355781947284" lon="13.695425094571354"><ele>884.0</ele><time>2026-04-27T09:54:51.001Z</time></trkpt><trkpt lat="42.11617156429155" lon="13.69547637363664"><ele>884.0</ele><time>2026-04-27T09:54:52.001Z</time></trkpt><trkpt lat="42.11598157376354" lon="13.695536442048821"><ele>884.0</ele><time>2026-04-27T09:54:53.001Z</time></trkpt><trkpt lat="42.11579598110457" lon="13.695594065019815"><ele>884.0</ele><time>2026-04-27T09:54:54.001Z</time></trkpt><trkpt lat="42.115603812401254" lon="13.695641771427471"><ele>884.0</ele><time>2026-04-27T09:54:55.001Z</time></trkpt><trkpt lat="42.11540388228823" lon="13.695688524296568"><ele>890.6666666666667</ele><time>2026-04-27T09:54:56.001Z</time></trkpt><trkpt lat="42.11520773320045" lon="13.695734256653697"><ele>897.3333333333333</ele><time>2026-04-27T09:54:57.001Z</time></trkpt><trkpt lat="42.11500994796641" lon="13.695780358976993"><ele>904.0</ele><time>2026-04-27T09:54:58.001Z</time></trkpt><trkpt lat="42.11480910318609" lon="13.695826533148054"><ele>910.0</ele><time>2026-04-27T09:54:59.001Z</time></trkpt><trkpt lat="42.11461645352426" lon="13.695869485934017"><ele>916.0</ele><time>2026-04-27T09:55:00.001Z</time></trkpt><trkpt lat="42.11441342475245" lon="13.69591421271974"><ele>922.0</ele><time>2026-04-27T09:55:01.001Z</time></trkpt><trkpt lat="42.11421833689003" lon="13.695965989204074"><ele>927.3333333333333</ele><time>2026-04-27T09:55:02.001Z</time></trkpt><trkpt lat="42.11402767439589" lon="13.69601874189484"><ele>932.6666666666667</ele><time>2026-04-27T09:55:03.001Z</time></trkpt><trkpt lat="42.113832042748705" lon="13.696073737970607"><ele>938.0</ele><time>2026-04-27T09:55:04.001Z</time></trkpt><trkpt lat="42.11364501865524" lon="13.696132520542545"><ele>931.3333333333334</ele><time>2026-04-27T09:55:05.001Z</time></trkpt><trkpt lat="42.11347509186101" lon="13.696190244019105"><ele>924.6666666666667</ele><time>2026-04-27T09:55:06.001Z</time></trkpt><trkpt lat="42.11331207792966" lon="13.696235320153892"><ele>918.0</ele><time>2026-04-27T09:55:07.001Z</time></trkpt><trkpt lat="42.113151568755" lon="13.696277987965134"><ele>918.0</ele><time>2026-04-27T09:55:08.001Z</time></trkpt><trkpt lat="42.11298664086289" lon="13.696338889515527"><ele>918.0</ele><time>2026-04-27T09:55:09.001Z</time></trkpt><trkpt lat="42.11282643118756" lon="13.696421009129601"><ele>918.0</ele><time>2026-04-27T09:55:10.001Z</time></trkpt><trkpt lat="42.11266087581619" lon="13.696522930429571"><ele>918.0</ele><time>2026-04-27T09:55:11.001Z</time></trkpt><trkpt lat="42.11248543307978" lon="13.696625357097497"><ele>918.0</ele><time>2026-04-27T09:55:12.001Z</time></trkpt><trkpt lat="42.11231411179562" lon="13.696726001753941"><ele>918.0</ele><time>2026-04-27T09:55:13.001Z</time></trkpt><trkpt lat="42.11213429660867" lon="13.69683300506229"><ele>914.6666666666667</ele><time>2026-04-27T09:55:14.001Z</time></trkpt><trkpt lat="42.11195909273674" lon="13.696940037970077"><ele>911.3333333333334</ele><time>2026-04-27T09:55:15.001Z</time></trkpt><trkpt lat="42.11178821664418" lon="13.697046091714297"><ele>908.0</ele><time>2026-04-27T09:55:16Z</time></trkpt><trkpt lat="42.11161949894272" lon="13.697132234148826"><ele>918.0</ele><time>2026-04-27T09:55:17Z</time></trkpt><trkpt lat="42.11144673378833" lon="13.697209869618732"><ele>928.0</ele><time>2026-04-27T09:55:18Z</time></trkpt><trkpt lat="42.111263517816745" lon="13.697293883122867"><ele>938.0</ele><time>2026-04-27T09:55:19Z</time></trkpt><trkpt lat="42.11108329266932" lon="13.697385874867537"><ele>938.0</ele><time>2026-04-27T09:55:20Z</time></trkpt><trkpt lat="42.11090568968418" lon="13.697485563624683"><ele>938.0</ele><time>2026-04-27T09:55:21Z</time></trkpt><trkpt lat="42.110741558389726" lon="13.697597135924266"><ele>938.0</ele><time>2026-04-27T09:55:22Z</time></trkpt><trkpt lat="42.110578282979816" lon="13.697716233848224"><ele>936.3333333333334</ele><time>2026-04-27T09:55:23Z</time></trkpt><trkpt lat="42.110423052044084" lon="13.697828961339068"><ele>934.6666666666667</ele><time>2026-04-27T09:55:24Z</time></trkpt><trkpt lat="42.110261757588674" lon="13.697914621327511"><ele>933.0</ele><time>2026-04-27T09:55:25Z</time></trkpt><trkpt lat="42.110083069831774" lon="13.69799554781605"><ele>933.0</ele><time>2026-04-27T09:55:26Z</time></trkpt><trkpt lat="42.10991287584991" lon="13.69807426617207"><ele>933.0</ele><time>2026-04-27T09:55:27Z</time></trkpt><trkpt lat="42.1097383036185" lon="13.69815599769958"><ele>933.0</ele><time>2026-04-27T09:55:28Z</time></trkpt><trkpt lat="42.10956413801399" lon="13.698246924900836"><ele>941.0</ele><time>2026-04-27T09:55:29Z</time></trkpt><trkpt lat="42.109399306199705" lon="13.69832803964793"><ele>949.0</ele><time>2026-04-27T09:55:30Z</time></trkpt><trkpt lat="42.109226176433296" lon="13.698394673211446"><ele>957.0</ele><time>2026-04-27T09:55:31Z</time></trkpt><trkpt lat="42.10905150283395" lon="13.698452655405504"><ele>957.0</ele><time>2026-04-27T09:55:32Z</time></trkpt><trkpt lat="42.10887003613425" lon="13.698502325362362"><ele>957.0</ele><time>2026-04-27T09:55:33Z</time></trkpt><trkpt lat="42.10872786325665" lon="13.698529498099727"><ele>957.0</ele><time>2026-04-27T09:55:34Z</time></trkpt><trkpt lat="42.10860734623068" lon="13.698541570596769"><ele>957.0</ele><time>2026-04-27T09:55:35Z</time></trkpt><trkpt lat="42.10851179533304" lon="13.698538688647"><ele>957.0</ele><time>2026-04-27T09:55:36Z</time></trkpt><trkpt lat="42.10841831381015" lon="13.698534278995586"><ele>957.0</ele><time>2026-04-27T09:55:37Z</time></trkpt><trkpt lat="42.10835333161307" lon="13.698443410529501"><ele>957.0</ele><time>2026-04-27T09:55:38Z</time></trkpt><trkpt lat="42.1083392454453" lon="13.698304690275801"><ele>957.0</ele><time>2026-04-27T09:55:39Z</time></trkpt><trkpt lat="42.10829442899904" lon="13.698160240355293"><ele>957.0</ele><time>2026-04-27T09:55:40Z</time></trkpt><trkpt lat="42.10825576340885" lon="13.697979377066378"><ele>957.0</ele><time>2026-04-27T09:55:41Z</time></trkpt><trkpt lat="42.10819292079886" lon="13.69782153723468"><ele>957.0</ele><time>2026-04-27T09:55:42Z</time></trkpt><trkpt lat="42.10811960322729" lon="13.697690581161007"><ele>957.0</ele><time>2026-04-27T09:55:43Z</time></trkpt><trkpt lat="42.10806220604474" lon="13.697588386968457"><ele>956.0</ele><time>2026-04-27T09:55:44Z</time></trkpt><trkpt lat="42.108055721499824" lon="13.697495675101564"><ele>955.0</ele><time>2026-04-27T09:55:45Z</time></trkpt><trkpt lat="42.107991612711814" lon="13.697450922273777"><ele>954.0</ele><time>2026-04-27T09:55:46Z</time></trkpt><trkpt lat="42.10795547955551" lon="13.697373202627494"><ele>953.0</ele><time>2026-04-27T09:55:47Z</time></trkpt><trkpt lat="42.107915411310195" lon="13.697248586059796"><ele>952.0</ele><time>2026-04-27T09:55:48Z</time></trkpt><trkpt lat="42.10789614809554" lon="13.697092613745554"><ele>951.0</ele><time>2026-04-27T09:55:49Z</time></trkpt><trkpt lat="42.10786351980747" lon="13.696911662244496"><ele>950.3333333333333</ele><time>2026-04-27T09:55:50Z</time></trkpt><trkpt lat="42.10782468884238" lon="13.69669373496459"><ele>949.6666666666666</ele><time>2026-04-27T09:55:51Z</time></trkpt><trkpt lat="42.107791668155514" lon="13.696504222205043"><ele>949.0</ele><time>2026-04-27T09:55:52Z</time></trkpt><trkpt lat="42.107754465155224" lon="13.696269457937571"><ele>949.0</ele><time>2026-04-27T09:55:53Z</time></trkpt><trkpt lat="42.107723248654004" lon="13.69608883007272"><ele>949.0</ele><time>2026-04-27T09:55:54Z</time></trkpt><trkpt lat="42.107683241230006" lon="13.695889225983628"><ele>949.0</ele><time>2026-04-27T09:55:55Z</time></trkpt><trkpt lat="42.107646174385394" lon="13.695666149630572"><ele>947.6666666666666</ele><time>2026-04-27T09:55:56Z</time></trkpt><trkpt lat="42.1076160358806" lon="13.695455816531911"><ele>946.3333333333333</ele><time>2026-04-27T09:55:57Z</time></trkpt><trkpt lat="42.107586272491076" lon="13.695254921473762"><ele>945.0</ele><time>2026-04-27T09:55:58Z</time></trkpt><trkpt lat="42.107544999385574" lon="13.695070273603154"><ele>944.5</ele><time>2026-04-27T09:55:59Z</time></trkpt><trkpt lat="42.107517576988585" lon="13.694870930218338"><ele>944.0</ele><time>2026-04-27T09:56:00Z</time></trkpt><trkpt lat="42.10748734442934" lon="13.694691924535292"><ele>943.5</ele><time>2026-04-27T09:56:01Z</time></trkpt><trkpt lat="42.107463914726075" lon="13.694533787350059"><ele>943.0</ele><time>2026-04-27T09:56:02Z</time></trkpt><trkpt lat="42.10743011651112" lon="13.694438090237613"><ele>939.5999999999999</ele><time>2026-04-27T09:56:03Z</time></trkpt><trkpt lat="42.10737027282677" lon="13.694359911165742"><ele>936.1999999999999</ele><time>2026-04-27T09:56:04Z</time></trkpt><trkpt lat="42.107278339641795" lon="13.694327532759493"><ele>932.8</ele><time>2026-04-27T09:56:05Z</time></trkpt><trkpt lat="42.10716549540233" lon="13.694325091427888"><ele>929.4</ele><time>2026-04-27T09:56:06Z</time></trkpt><trkpt lat="42.107026549459746" lon="13.694335304035706"><ele>926.0</ele><time>2026-04-27T09:56:07Z</time></trkpt><trkpt lat="42.10686453429934" lon="13.694322539069123"><ele>926.0</ele><time>2026-04-27T09:56:08Z</time></trkpt><trkpt lat="42.106695126046176" lon="13.694288474263725"><ele>926.0</ele><time>2026-04-27T09:56:09Z</time></trkpt><trkpt lat="42.106552359193515" lon="13.694211782581219"><ele>926.0</ele><time>2026-04-27T09:56:10Z</time></trkpt><trkpt lat="42.10641010865827" lon="13.694196114710573"><ele>922.0</ele><time>2026-04-27T09:56:11Z</time></trkpt><trkpt lat="42.10627764191836" lon="13.694156749650872"><ele>918.0</ele><time>2026-04-27T09:56:12Z</time></trkpt><trkpt lat="42.10611684504248" lon="13.694127937342584"><ele>914.0</ele><time>2026-04-27T09:56:13Z</time></trkpt><trkpt lat="42.10595746394886" lon="13.694087921604053"><ele>914.0</ele><time>2026-04-27T09:56:14Z</time></trkpt><trkpt lat="42.10581415928954" lon="13.69406781454467"><ele>914.0</ele><time>2026-04-27T09:56:15Z</time></trkpt><trkpt lat="42.10566182910745" lon="13.694012914280897"><ele>914.0</ele><time>2026-04-27T09:56:16Z</time></trkpt><trkpt lat="42.10551039019218" lon="13.693986499733606"><ele>912.4000000000001</ele><time>2026-04-27T09:56:17Z</time></trkpt><trkpt lat="42.10537632267984" lon="13.693935991693223"><ele>910.8000000000001</ele><time>2026-04-27T09:56:18Z</time></trkpt><trkpt lat="42.105255733852246" lon="13.69389944605331"><ele>909.1999999999999</ele><time>2026-04-27T09:56:19Z</time></trkpt><trkpt lat="42.10516350927116" lon="13.693875014261643"><ele>907.5999999999999</ele><time>2026-04-27T09:56:20Z</time></trkpt><trkpt lat="42.10508683201955" lon="13.693819883983611"><ele>906.0</ele><time>2026-04-27T09:56:21.001Z</time></trkpt><trkpt lat="42.10500410954952" lon="13.693774680677144"><ele>906.0</ele><time>2026-04-27T09:56:22.001Z</time></trkpt><trkpt lat="42.105033615406285" lon="13.69367101504936"><ele>905.9999999999999</ele><time>2026-04-27T09:56:23.001Z</time></trkpt><trkpt lat="42.10496314526607" lon="13.693556068980556"><ele>905.9999999999999</ele><time>2026-04-27T09:56:24.001Z</time></trkpt><trkpt lat="42.10489252665853" lon="13.693413999516357"><ele>906.0</ele><time>2026-04-27T09:56:25.001Z</time></trkpt><trkpt lat="42.104835500428855" lon="13.69330410297917"><ele>906.0</ele><time>2026-04-27T09:56:26.001Z</time></trkpt><trkpt lat="42.10478086688401" lon="13.693246383012815"><ele>908.5999999999999</ele><time>2026-04-27T09:56:27.001Z</time></trkpt><trkpt lat="42.10464797341254" lon="13.69325975000527"><ele>911.1999999999999</ele><time>2026-04-27T09:56:29.001Z</time></trkpt><trkpt lat="42.10455066199686" lon="13.693293929434617"><ele>913.8000000000001</ele><time>2026-04-27T09:56:30.001Z</time></trkpt><trkpt lat="42.10444825167071" lon="13.693262442863087"><ele>916.4000000000001</ele><time>2026-04-27T09:56:31.001Z</time></trkpt><trkpt lat="42.10434821466288" lon="13.693236246625512"><ele>919.0</ele><time>2026-04-27T09:56:32.001Z</time></trkpt><trkpt lat="42.10424887322238" lon="13.69321952347083"><ele>918.9999999999999</ele><time>2026-04-27T09:56:33.001Z</time></trkpt><trkpt lat="42.104158412758366" lon="13.693246566204078"><ele>919.0</ele><time>2026-04-27T09:56:34.001Z</time></trkpt><trkpt lat="42.10411427403758" lon="13.693326304140532"><ele>919.0</ele><time>2026-04-27T09:56:35.001Z</time></trkpt><trkpt lat="42.10407537463733" lon="13.693415792251807"><ele>919.0</ele><time>2026-04-27T09:56:36.001Z</time></trkpt><trkpt lat="42.104037687467645" lon="13.69354360042805"><ele>918.9999999999999</ele><time>2026-04-27T09:56:37.001Z</time></trkpt><trkpt lat="42.10402258314485" lon="13.693675790963264"><ele>919.0</ele><time>2026-04-27T09:56:38.001Z</time></trkpt><trkpt lat="42.10399564905504" lon="13.693796063260805"><ele>919.5714285714286</ele><time>2026-04-27T09:56:39.001Z</time></trkpt><trkpt lat="42.10396459371503" lon="13.693871451764215"><ele>920.1428571428571</ele><time>2026-04-27T09:56:40.001Z</time></trkpt><trkpt lat="42.1039256809209" lon="13.693952417424137"><ele>920.7142857142857</ele><time>2026-04-27T09:56:41.001Z</time></trkpt><trkpt lat="42.10387202186829" lon="13.694022063060128"><ele>921.2857142857142</ele><time>2026-04-27T09:56:42.001Z</time></trkpt><trkpt lat="42.10380041389175" lon="13.694067837174707"><ele>921.8571428571429</ele><time>2026-04-27T09:56:43.001Z</time></trkpt><trkpt lat="42.103734251985685" lon="13.694097472504666"><ele>922.4285714285713</ele><time>2026-04-27T09:56:44.001Z</time></trkpt><trkpt lat="42.10365895936529" lon="13.694106751986283"><ele>923.0</ele><time>2026-04-27T09:56:45.001Z</time></trkpt><trkpt lat="42.10357484624862" lon="13.69409656529487"><ele>923.0</ele><time>2026-04-27T09:56:46.001Z</time></trkpt><trkpt lat="42.10347354547552" lon="13.694104909724402"><ele>923.0</ele><time>2026-04-27T09:56:47.001Z</time></trkpt><trkpt lat="42.103358853930814" lon="13.694066579440566"><ele>923.0</ele><time>2026-04-27T09:56:48.001Z</time></trkpt><trkpt lat="42.103227566167405" lon="13.69405457485901"><ele>923.0</ele><time>2026-04-27T09:56:49.001Z</time></trkpt><trkpt lat="42.10309413574915" lon="13.694079946983427"><ele>923.8</ele><time>2026-04-27T09:56:50.001Z</time></trkpt><trkpt lat="42.1029739764706" lon="13.694124497256182"><ele>924.5999999999999</ele><time>2026-04-27T09:56:51.001Z</time></trkpt><trkpt lat="42.10285780666707" lon="13.69417562552286"><ele>925.4000000000001</ele><time>2026-04-27T09:56:52.001Z</time></trkpt><trkpt lat="42.10276249676336" lon="13.694197973962375"><ele>926.2</ele><time>2026-04-27T09:56:53.001Z</time></trkpt><trkpt lat="42.10267351501301" lon="13.69421258401256"><ele>927.0</ele><time>2026-04-27T09:56:54.001Z</time></trkpt><trkpt lat="42.102586188372186" lon="13.6942253146369"><ele>927.0</ele><time>2026-04-27T09:56:55.001Z</time></trkpt><trkpt lat="42.10248273637792" lon="13.694250790541766"><ele>927.0</ele><time>2026-04-27T09:56:56.001Z</time></trkpt><trkpt lat="42.10235154006923" lon="13.694265936440955"><ele>927.0</ele><time>2026-04-27T09:56:57.001Z</time></trkpt><trkpt lat="42.10219786047777" lon="13.694250624294135"><ele>927.0</ele><time>2026-04-27T09:56:58.001Z</time></trkpt><trkpt lat="42.10205413487409" lon="13.694197027709087"><ele>928.5</ele><time>2026-04-27T09:56:59.001Z</time></trkpt><trkpt lat="42.101974184241" lon="13.694027728078172"><ele>930.0</ele><time>2026-04-27T09:57:00.001Z</time></trkpt><trkpt lat="42.101917335000174" lon="13.693935910058869"><ele>931.5</ele><time>2026-04-27T09:57:01.001Z</time></trkpt><trkpt lat="42.10184032267923" lon="13.693849870191743"><ele>933.0</ele><time>2026-04-27T09:57:02.001Z</time></trkpt><trkpt lat="42.101781239606574" lon="13.693718871317243"><ele>933.0</ele><time>2026-04-27T09:57:03.001Z</time></trkpt><trkpt lat="42.10169734107705" lon="13.693630931426322"><ele>933.0</ele><time>2026-04-27T09:57:04.001Z</time></trkpt><trkpt lat="42.10164915738134" lon="13.693568764029168"><ele>933.0</ele><time>2026-04-27T09:57:05.001Z</time></trkpt><trkpt lat="42.1015832146128" lon="13.69353091802119"><ele>933.0</ele><time>2026-04-27T09:57:06.001Z</time></trkpt><trkpt lat="42.10149623039284" lon="13.693488792272241"><ele>933.0</ele><time>2026-04-27T09:57:07.001Z</time></trkpt><trkpt lat="42.1014055808264" lon="13.69346031466893"><ele>933.0</ele><time>2026-04-27T09:57:08.001Z</time></trkpt><trkpt lat="42.101331694389785" lon="13.693471886222747"><ele>935.3333333333334</ele><time>2026-04-27T09:57:09.001Z</time></trkpt><trkpt lat="42.10126458915866" lon="13.693519573469485"><ele>937.6666666666667</ele><time>2026-04-27T09:57:10.001Z</time></trkpt><trkpt lat="42.10121850964282" lon="13.693597959594278"><ele>940.0</ele><time>2026-04-27T09:57:11.001Z</time></trkpt><trkpt lat="42.101177202633856" lon="13.693710012530476"><ele>942.3333333333334</ele><time>2026-04-27T09:57:12.001Z</time></trkpt><trkpt lat="42.10112777077622" lon="13.69382595058561"><ele>944.6666666666667</ele><time>2026-04-27T09:57:13.001Z</time></trkpt><trkpt lat="42.10107665772876" lon="13.693897217262952"><ele>947.0</ele><time>2026-04-27T09:57:14.001Z</time></trkpt><trkpt lat="42.10100758331105" lon="13.693978923039527"><ele>947.0</ele><time>2026-04-27T09:57:15.001Z</time></trkpt><trkpt lat="42.10093234541213" lon="13.694061758827583"><ele>947.0</ele><time>2026-04-27T09:57:16.001Z</time></trkpt><trkpt lat="42.1008413712742" lon="13.694151223444472"><ele>947.0</ele><time>2026-04-27T09:57:17.001Z</time></trkpt><trkpt lat="42.10077982275433" lon="13.694235326218545"><ele>947.0</ele><time>2026-04-27T09:57:18.001Z</time></trkpt><trkpt lat="42.10069735651029" lon="13.694296463911504"><ele>947.0</ele><time>2026-04-27T09:57:19.001Z</time></trkpt><trkpt lat="42.10062735351734" lon="13.694338074470009"><ele>949.8</ele><time>2026-04-27T09:57:20.001Z</time></trkpt><trkpt lat="42.10054214314466" lon="13.694359345298066"><ele>952.6</ele><time>2026-04-27T09:57:21Z</time></trkpt><trkpt lat="42.10043654003371" lon="13.69430762795062"><ele>955.3999999999999</ele><time>2026-04-27T09:57:23Z</time></trkpt><trkpt lat="42.10029419696252" lon="13.694231318665919"><ele>958.1999999999999</ele><time>2026-04-27T09:57:25Z</time></trkpt><trkpt lat="42.100200301472036" lon="13.694241554855942"><ele>961.0</ele><time>2026-04-27T09:57:26Z</time></trkpt><trkpt lat="42.1001080436894" lon="13.694219157485016"><ele>960.9999999999999</ele><time>2026-04-27T09:57:27Z</time></trkpt><trkpt lat="42.100038022661145" lon="13.694181634911693"><ele>961.0</ele><time>2026-04-27T09:57:29Z</time></trkpt><trkpt lat="42.099947547861845" lon="13.694148716157827"><ele>961.0</ele><time>2026-04-27T09:57:30Z</time></trkpt><trkpt lat="42.09985422329737" lon="13.694106959662543"><ele>961.0</ele><time>2026-04-27T09:57:31Z</time></trkpt><trkpt lat="42.099766489629715" lon="13.69405434450459"><ele>960.9999999999999</ele><time>2026-04-27T09:57:32Z</time></trkpt><trkpt lat="42.09971509159163" lon="13.693982465280062"><ele>961.0</ele><time>2026-04-27T09:57:33Z</time></trkpt><trkpt lat="42.09970139746693" lon="13.69389656313433"><ele>963.8333333333333</ele><time>2026-04-27T09:57:34Z</time></trkpt><trkpt lat="42.09968726158901" lon="13.693799782680161"><ele>966.6666666666666</ele><time>2026-04-27T09:57:35Z</time></trkpt><trkpt lat="42.099663187947385" lon="13.69369483473404"><ele>969.5</ele><time>2026-04-27T09:57:36Z</time></trkpt><trkpt lat="42.09963669288772" lon="13.693606569789782"><ele>972.3333333333333</ele><time>2026-04-27T09:57:37Z</time></trkpt><trkpt lat="42.099600696043225" lon="13.693502337575925"><ele>975.1666666666666</ele><time>2026-04-27T09:57:38Z</time></trkpt><trkpt lat="42.09954860185715" lon="13.693378321798708"><ele>978.0</ele><time>2026-04-27T09:57:39Z</time></trkpt><trkpt lat="42.09949736302368" lon="13.693316103329265"><ele>979.5</ele><time>2026-04-27T09:57:40Z</time></trkpt><trkpt lat="42.09943852336563" lon="13.693267608800946"><ele>981.0</ele><time>2026-04-27T09:57:41Z</time></trkpt><trkpt lat="42.09937489888496" lon="13.693201903893781"><ele>982.5</ele><time>2026-04-27T09:57:42Z</time></trkpt><trkpt lat="42.09930083405387" lon="13.693165614664009"><ele>984.0</ele><time>2026-04-27T09:57:43Z</time></trkpt><trkpt lat="42.09918657232291" lon="13.693160432205604"><ele>985.5</ele><time>2026-04-27T09:57:45Z</time></trkpt><trkpt lat="42.099110345601936" lon="13.693180410158563"><ele>987.0</ele><time>2026-04-27T09:57:46Z</time></trkpt><trkpt lat="42.09902763704608" lon="13.693232237167663"><ele>989.8333333333334</ele><time>2026-04-27T09:57:47Z</time></trkpt><trkpt lat="42.098960230346364" lon="13.693309372033383"><ele>992.6666666666667</ele><time>2026-04-27T09:57:48Z</time></trkpt><trkpt lat="42.098913334105674" lon="13.693388531087743"><ele>995.5</ele><time>2026-04-27T09:57:49Z</time></trkpt><trkpt lat="42.09889675138071" lon="13.693489916453842"><ele>998.3333333333334</ele><time>2026-04-27T09:57:50Z</time></trkpt><trkpt lat="42.09889776647442" lon="13.693608116424793"><ele>1001.1666666666667</ele><time>2026-04-27T09:57:51Z</time></trkpt><trkpt lat="42.09890283457641" lon="13.693740973899912"><ele>1004.0</ele><time>2026-04-27T09:57:52Z</time></trkpt><trkpt lat="42.09891366683119" lon="13.693879051344135"><ele>1004.0000000000001</ele><time>2026-04-27T09:57:53Z</time></trkpt><trkpt lat="42.09888687696871" lon="13.694001167941845"><ele>1004.0</ele><time>2026-04-27T09:57:54Z</time></trkpt><trkpt lat="42.09885270328552" lon="13.694100474626774"><ele>1004.0</ele><time>2026-04-27T09:57:55Z</time></trkpt><trkpt lat="42.098810276634524" lon="13.694175111466482"><ele>1004.0</ele><time>2026-04-27T09:57:56Z</time></trkpt><trkpt lat="42.09873334057945" lon="13.694173253294823"><ele>1004.0000000000001</ele><time>2026-04-27T09:57:57Z</time></trkpt><trkpt lat="42.09864911193993" lon="13.69419991045878"><ele>1004.0</ele><time>2026-04-27T09:57:58Z</time></trkpt><trkpt lat="42.098563502240204" lon="13.694285008158563"><ele>1004.0</ele><time>2026-04-27T09:57:59Z</time></trkpt><trkpt lat="42.09846468798671" lon="13.694390221082019"><ele>1004.0</ele><time>2026-04-27T09:58:00Z</time></trkpt><trkpt lat="42.09835949225686" lon="13.694521109376543"><ele>1004.0</ele><time>2026-04-27T09:58:01Z</time></trkpt><trkpt lat="42.09829514254742" lon="13.69464074544702"><ele>1004.0</ele><time>2026-04-27T09:58:02Z</time></trkpt><trkpt lat="42.098266924939026" lon="13.694775177786873"><ele>1004.0</ele><time>2026-04-27T09:58:03Z</time></trkpt><trkpt lat="42.0982103632279" lon="13.694888811739604"><ele>1004.0</ele><time>2026-04-27T09:58:04Z</time></trkpt><trkpt lat="42.09814944064337" lon="13.69499594595685"><ele>1004.0</ele><time>2026-04-27T09:58:05Z</time></trkpt><trkpt lat="42.09807095938606" lon="13.695122247493856"><ele>1004.0</ele><time>2026-04-27T09:58:06Z</time></trkpt><trkpt lat="42.09800014958346" lon="13.695276587830206"><ele>1002.6666666666667</ele><time>2026-04-27T09:58:07Z</time></trkpt><trkpt lat="42.0979269666026" lon="13.695390528641251"><ele>1001.3333333333334</ele><time>2026-04-27T09:58:08Z</time></trkpt><trkpt lat="42.0978797687142" lon="13.695479785321789"><ele>1000.0</ele><time>2026-04-27T09:58:09Z</time></trkpt><trkpt lat="42.09781376764992" lon="13.6954983863596"><ele>998.6666666666667</ele><time>2026-04-27T09:58:10Z</time></trkpt><trkpt lat="42.09774057209147" lon="13.695530390672651"><ele>997.3333333333334</ele><time>2026-04-27T09:58:11Z</time></trkpt><trkpt lat="42.09767166731628" lon="13.695562954549278"><ele>996.0</ele><time>2026-04-27T09:58:12Z</time></trkpt><trkpt lat="42.09759498923256" lon="13.695585057651986"><ele>996.0</ele><time>2026-04-27T09:58:13Z</time></trkpt><trkpt lat="42.09751226194619" lon="13.69561095891993"><ele>996.0</ele><time>2026-04-27T09:58:14Z</time></trkpt><trkpt lat="42.09743163849423" lon="13.69563993297447"><ele>996.0</ele><time>2026-04-27T09:58:15Z</time></trkpt><trkpt lat="42.09737148482895" lon="13.695676889591464"><ele>996.0</ele><time>2026-04-27T09:58:16Z</time></trkpt><trkpt lat="42.097305010809706" lon="13.695715151795744"><ele>996.0</ele><time>2026-04-27T09:58:17Z</time></trkpt><trkpt lat="42.09724455690376" lon="13.69575495896828"><ele>996.0</ele><time>2026-04-27T09:58:18Z</time></trkpt><trkpt lat="42.097161168169166" lon="13.695809267927746"><ele>996.4</ele><time>2026-04-27T09:58:19Z</time></trkpt><trkpt lat="42.09706470526766" lon="13.695831571654004"><ele>996.8</ele><time>2026-04-27T09:58:20Z</time></trkpt><trkpt lat="42.096941752162756" lon="13.69586021658159"><ele>997.1999999999999</ele><time>2026-04-27T09:58:21Z</time></trkpt><trkpt lat="42.09682985188096" lon="13.695869588594375"><ele>997.5999999999999</ele><time>2026-04-27T09:58:22Z</time></trkpt><trkpt lat="42.09672735573895" lon="13.695891342952061"><ele>998.0</ele><time>2026-04-27T09:58:23Z</time></trkpt><trkpt lat="42.09666037309533" lon="13.695820960520567"><ele>998.0000000000001</ele><time>2026-04-27T09:58:24Z</time></trkpt><trkpt lat="42.096590043247" lon="13.69574835169821"><ele>998.0</ele><time>2026-04-27T09:58:25Z</time></trkpt><trkpt lat="42.096530857423794" lon="13.695689563832383"><ele>998.0</ele><time>2026-04-27T09:58:26Z</time></trkpt><trkpt lat="42.09645182769287" lon="13.695654657666482"><ele>998.0</ele><time>2026-04-27T09:58:27Z</time></trkpt><trkpt lat="42.096336163195566" lon="13.695671612229965"><ele>998.0000000000001</ele><time>2026-04-27T09:58:29Z</time></trkpt><trkpt lat="42.09627606760797" lon="13.695725219586777"><ele>998.0</ele><time>2026-04-27T09:58:30Z</time></trkpt><trkpt lat="42.09618139738082" lon="13.695771959619508"><ele>997.5999999999999</ele><time>2026-04-27T09:58:31Z</time></trkpt><trkpt lat="42.096078108270596" lon="13.695835822255958"><ele>997.1999999999999</ele><time>2026-04-27T09:58:32Z</time></trkpt><trkpt lat="42.0959785667484" lon="13.695885792025836"><ele>996.8</ele><time>2026-04-27T09:58:33Z</time></trkpt><trkpt lat="42.09590086081145" lon="13.695901195655782"><ele>996.4</ele><time>2026-04-27T09:58:34Z</time></trkpt><trkpt lat="42.09583647161211" lon="13.695888126030736"><ele>996.0</ele><time>2026-04-27T09:58:35Z</time></trkpt><trkpt lat="42.09573531778177" lon="13.695784294548181"><ele>997.4</ele><time>2026-04-27T09:58:37.001Z</time></trkpt><trkpt lat="42.09564269348265" lon="13.695730868811406"><ele>998.8</ele><time>2026-04-27T09:58:38.001Z</time></trkpt><trkpt lat="42.09554374257937" lon="13.695722019730972"><ele>1000.1999999999999</ele><time>2026-04-27T09:58:39.001Z</time></trkpt><trkpt lat="42.09546645646083" lon="13.695695004669227"><ele>1001.5999999999999</ele><time>2026-04-27T09:58:40.001Z</time></trkpt><trkpt lat="42.09539508258704" lon="13.695703848453613"><ele>1003.0</ele><time>2026-04-27T09:58:41.001Z</time></trkpt><trkpt lat="42.09529740851908" lon="13.695730891979466"><ele>1003.0</ele><time>2026-04-27T09:58:42.001Z</time></trkpt><trkpt lat="42.095210328459856" lon="13.695771542586849"><ele>1003.0</ele><time>2026-04-27T09:58:43.001Z</time></trkpt><trkpt lat="42.095110721661285" lon="13.695837533315762"><ele>1003.0</ele><time>2026-04-27T09:58:44.001Z</time></trkpt><trkpt lat="42.095006413843215" lon="13.695909543774267"><ele>1003.0</ele><time>2026-04-27T09:58:46.001Z</time></trkpt><trkpt lat="42.094913757886204" lon="13.69595339427499"><ele>1003.0</ele><time>2026-04-27T09:58:47.001Z</time></trkpt><trkpt lat="42.09477948372599" lon="13.695996357075368"><ele>1004.0</ele><time>2026-04-27T09:58:48.001Z</time></trkpt><trkpt lat="42.09463957838625" lon="13.696055301580245"><ele>1005.0</ele><time>2026-04-27T09:58:49.001Z</time></trkpt><trkpt lat="42.09451465239669" lon="13.696136572269275"><ele>1006.0</ele><time>2026-04-27T09:58:50.001Z</time></trkpt><trkpt lat="42.094413622361785" lon="13.696211594537303"><ele>1007.0</ele><time>2026-04-27T09:58:51.001Z</time></trkpt><trkpt lat="42.09431440324602" lon="13.69625954776276"><ele>1007.25</ele><time>2026-04-27T09:58:52.001Z</time></trkpt><trkpt lat="42.09419891459177" lon="13.696287262758261"><ele>1007.5</ele><time>2026-04-27T09:58:53.001Z</time></trkpt><trkpt lat="42.0940774779567" lon="13.696334031067087"><ele>1007.75</ele><time>2026-04-27T09:58:54.001Z</time></trkpt><trkpt lat="42.093948899941786" lon="13.696367533678053"><ele>1008.0</ele><time>2026-04-27T09:58:55.001Z</time></trkpt><trkpt lat="42.09382366292395" lon="13.696413924896396"><ele>1008.0</ele><time>2026-04-27T09:58:56.001Z</time></trkpt><trkpt lat="42.093720250435815" lon="13.696500373214892"><ele>1008.0</ele><time>2026-04-27T09:58:57.001Z</time></trkpt><trkpt lat="42.093624216431955" lon="13.696599420172632"><ele>1008.0</ele><time>2026-04-27T09:58:58.001Z</time></trkpt><trkpt lat="42.09354126093391" lon="13.696719555499056"><ele>1008.0</ele><time>2026-04-27T09:58:59.001Z</time></trkpt><trkpt lat="42.093467664119274" lon="13.696843194515221"><ele>1007.2</ele><time>2026-04-27T09:59:00.001Z</time></trkpt><trkpt lat="42.093395126468955" lon="13.696967915784972"><ele>1006.4</ele><time>2026-04-27T09:59:01.001Z</time></trkpt><trkpt lat="42.09332940299816" lon="13.697107008803478"><ele>1005.6000000000001</ele><time>2026-04-27T09:59:02.001Z</time></trkpt><trkpt lat="42.093266423226126" lon="13.697235554031403"><ele>1004.8000000000001</ele><time>2026-04-27T09:59:03.001Z</time></trkpt><trkpt lat="42.09321755398694" lon="13.69733232549578"><ele>1004.0</ele><time>2026-04-27T09:59:04.001Z</time></trkpt><trkpt lat="42.09318179682128" lon="13.697415744560155"><ele>1003.8333333333334</ele><time>2026-04-27T09:59:05.001Z</time></trkpt><trkpt lat="42.093132463337575" lon="13.697507976222683"><ele>1003.6666666666667</ele><time>2026-04-27T09:59:06.001Z</time></trkpt><trkpt lat="42.093092560514584" lon="13.697593967000515"><ele>1003.5</ele><time>2026-04-27T09:59:07.001Z</time></trkpt><trkpt lat="42.09304140162304" lon="13.697696831193042"><ele>1003.3333333333333</ele><time>2026-04-27T09:59:08.001Z</time></trkpt><trkpt lat="42.09294346268598" lon="13.697779535886488"><ele>1003.1666666666666</ele><time>2026-04-27T09:59:09.001Z</time></trkpt><trkpt lat="42.0928722050545" lon="13.697828006598154"><ele>1003.0</ele><time>2026-04-27T09:59:10.001Z</time></trkpt><trkpt lat="42.09278170205164" lon="13.697784490205521"><ele>1003.0</ele><time>2026-04-27T09:59:11.001Z</time></trkpt><trkpt lat="42.09271519188186" lon="13.697736261076674"><ele>1003.0</ele><time>2026-04-27T09:59:12.001Z</time></trkpt><trkpt lat="42.09263236584371" lon="13.697688115543553"><ele>1003.0</ele><time>2026-04-27T09:59:13.001Z</time></trkpt><trkpt lat="42.09252696129282" lon="13.697670976546487"><ele>1003.0</ele><time>2026-04-27T09:59:14.001Z</time></trkpt><trkpt lat="42.09238219338895" lon="13.69770518839557"><ele>1003.0</ele><time>2026-04-27T09:59:15.001Z</time></trkpt><trkpt lat="42.09225251667673" lon="13.697757426258024"><ele>1001.0</ele><time>2026-04-27T09:59:16.001Z</time></trkpt><trkpt lat="42.09210971144811" lon="13.697809366135372"><ele>999.0</ele><time>2026-04-27T09:59:17.001Z</time></trkpt><trkpt lat="42.09197669896523" lon="13.697816106420195"><ele>997.0</ele><time>2026-04-27T09:59:18.001Z</time></trkpt><trkpt lat="42.09185543726963" lon="13.697785497399254"><ele>995.0</ele><time>2026-04-27T09:59:19.001Z</time></trkpt><trkpt lat="42.09174109691129" lon="13.697817870749317"><ele>995.0</ele><time>2026-04-27T09:59:20.001Z</time></trkpt><trkpt lat="42.09162880920853" lon="13.69785634468738"><ele>995.0</ele><time>2026-04-27T09:59:21.001Z</time></trkpt><trkpt lat="42.09151798626532" lon="13.69794233356842"><ele>995.0</ele><time>2026-04-27T09:59:22.001Z</time></trkpt><trkpt lat="42.09139162606838" lon="13.69804919888179"><ele>995.0</ele><time>2026-04-27T09:59:23.001Z</time></trkpt><trkpt lat="42.09124940591419" lon="13.69811955481456"><ele>994.4</ele><time>2026-04-27T09:59:24.001Z</time></trkpt><trkpt lat="42.091119518029" lon="13.698200805803829"><ele>993.8</ele><time>2026-04-27T09:59:25.001Z</time></trkpt><trkpt lat="42.09100718098241" lon="13.698252574357001"><ele>993.2</ele><time>2026-04-27T09:59:26.001Z</time></trkpt><trkpt lat="42.09092008136282" lon="13.698306329221571"><ele>992.6</ele><time>2026-04-27T09:59:27Z</time></trkpt><trkpt lat="42.09085695571736" lon="13.698367096705208"><ele>992.0</ele><time>2026-04-27T09:59:28Z</time></trkpt><trkpt lat="42.090814976082086" lon="13.698455327051763"><ele>992.6</ele><time>2026-04-27T09:59:29Z</time></trkpt><trkpt lat="42.09083146702292" lon="13.698608269026497"><ele>993.2</ele><time>2026-04-27T09:59:30Z</time></trkpt><trkpt lat="42.090829607292086" lon="13.698733719554246"><ele>993.8</ele><time>2026-04-27T09:59:31Z</time></trkpt><trkpt lat="42.090802632939436" lon="13.698855268278816"><ele>994.4</ele><time>2026-04-27T09:59:32Z</time></trkpt><trkpt lat="42.090745764503865" lon="13.698940866866726"><ele>995.0</ele><time>2026-04-27T09:59:33Z</time></trkpt><trkpt lat="42.0906680236981" lon="13.699016906358038"><ele>995.4</ele><time>2026-04-27T09:59:35Z</time></trkpt><trkpt lat="42.090564795302484" lon="13.699137097928553"><ele>995.8</ele><time>2026-04-27T09:59:37Z</time></trkpt><trkpt lat="42.09049388937633" lon="13.699170774040617"><ele>996.2</ele><time>2026-04-27T09:59:38Z</time></trkpt><trkpt lat="42.09042023690288" lon="13.699222622100542"><ele>996.6</ele><time>2026-04-27T09:59:39Z</time></trkpt><trkpt lat="42.09033097628227" lon="13.699284319878204"><ele>997.0</ele><time>2026-04-27T09:59:40Z</time></trkpt><trkpt lat="42.090255610446064" lon="13.699355321295018"><ele>997.75</ele><time>2026-04-27T09:59:41Z</time></trkpt><trkpt lat="42.09015673201168" lon="13.699433665474528"><ele>998.5</ele><time>2026-04-27T09:59:42Z</time></trkpt><trkpt lat="42.090049196240045" lon="13.699524311713661"><ele>999.25</ele><time>2026-04-27T09:59:43Z</time></trkpt><trkpt lat="42.08993283158148" lon="13.699584753067457"><ele>1000.0</ele><time>2026-04-27T09:59:44Z</time></trkpt><trkpt lat="42.089824388849784" lon="13.699632574457333"><ele>1000.0</ele><time>2026-04-27T09:59:45Z</time></trkpt><trkpt lat="42.089742354722674" lon="13.69962443967555"><ele>1000.0</ele><time>2026-04-27T09:59:46Z</time></trkpt><trkpt lat="42.089671221802924" lon="13.699505394989409"><ele>1000.0</ele><time>2026-04-27T09:59:48Z</time></trkpt><trkpt lat="42.08964985568574" lon="13.699395487787239"><ele>1000.0</ele><time>2026-04-27T09:59:49Z</time></trkpt><trkpt lat="42.08959147445846" lon="13.699255504448063"><ele>1000.0</ele><time>2026-04-27T09:59:50Z</time></trkpt><trkpt lat="42.089554383988485" lon="13.69909679776151"><ele>1000.0</ele><time>2026-04-27T09:59:51Z</time></trkpt><trkpt lat="42.0895411534497" lon="13.69889106170822"><ele>1000.0</ele><time>2026-04-27T09:59:52Z</time></trkpt><trkpt lat="42.089541713133535" lon="13.698702848490417"><ele>1000.0</ele><time>2026-04-27T09:59:53Z</time></trkpt><trkpt lat="42.08953767282348" lon="13.69854544179355"><ele>1000.0</ele><time>2026-04-27T09:59:54Z</time></trkpt><trkpt lat="42.089558323494835" lon="13.69840738189329"><ele>999.0</ele><time>2026-04-27T09:59:55Z</time></trkpt><trkpt lat="42.089540461145134" lon="13.698247847784758"><ele>998.0</ele><time>2026-04-27T09:59:56Z</time></trkpt><trkpt lat="42.08944436043305" lon="13.698114556793138"><ele>997.0</ele><time>2026-04-27T09:59:58Z</time></trkpt><trkpt lat="42.08939009154415" lon="13.698038048587186"><ele>996.0</ele><time>2026-04-27T09:59:59Z</time></trkpt><trkpt lat="42.089334149259194" lon="13.697990529737668"><ele>995.0</ele><time>2026-04-27T10:00:00Z</time></trkpt><trkpt lat="42.08919568386454" lon="13.69801924095777"><ele>995.0</ele><time>2026-04-27T10:00:02Z</time></trkpt><trkpt lat="42.08910375518939" lon="13.698085031967594"><ele>995.0</ele><time>2026-04-27T10:00:03Z</time></trkpt><trkpt lat="42.08899188494398" lon="13.69815457758654"><ele>995.0</ele><time>2026-04-27T10:00:04Z</time></trkpt><trkpt lat="42.08890299209322" lon="13.698245250741644"><ele>995.0</ele><time>2026-04-27T10:00:05Z</time></trkpt><trkpt lat="42.088832392342866" lon="13.698340725975228"><ele>995.0</ele><time>2026-04-27T10:00:06Z</time></trkpt><trkpt lat="42.08875260140368" lon="13.698382287699852"><ele>995.0</ele><time>2026-04-27T10:00:07Z</time></trkpt><trkpt lat="42.08867174865674" lon="13.698422702103663"><ele>995.0</ele><time>2026-04-27T10:00:08Z</time></trkpt><trkpt lat="42.08856954617052" lon="13.698506359253651"><ele>995.0</ele><time>2026-04-27T10:00:09Z</time></trkpt><trkpt lat="42.08845603100643" lon="13.698581311818044"><ele>995.0</ele><time>2026-04-27T10:00:10Z</time></trkpt><trkpt lat="42.0883130491763" lon="13.698636593815825"><ele>994.0</ele><time>2026-04-27T10:00:11Z</time></trkpt><trkpt lat="42.08820667182986" lon="13.698749802246564"><ele>993.0</ele><time>2026-04-27T10:00:12Z</time></trkpt><trkpt lat="42.088103140337" lon="13.698842397549974"><ele>992.0</ele><time>2026-04-27T10:00:13Z</time></trkpt><trkpt lat="42.0880077428805" lon="13.698984306924242"><ele>991.0</ele><time>2026-04-27T10:00:14Z</time></trkpt><trkpt lat="42.08791468053451" lon="13.699160255128854"><ele>991.0</ele><time>2026-04-27T10:00:15Z</time></trkpt><trkpt lat="42.08784869683432" lon="13.699314110803273"><ele>990.9999999999999</ele><time>2026-04-27T10:00:16Z</time></trkpt><trkpt lat="42.087822480313754" lon="13.699430845955659"><ele>990.9999999999999</ele><time>2026-04-27T10:00:17Z</time></trkpt><trkpt lat="42.08786365162643" lon="13.699525626459574"><ele>991.0</ele><time>2026-04-27T10:00:18Z</time></trkpt><trkpt lat="42.08787288073518" lon="13.699647309999612"><ele>991.0</ele><time>2026-04-27T10:00:19Z</time></trkpt><trkpt lat="42.08787126058734" lon="13.699806161209288"><ele>989.6666666666666</ele><time>2026-04-27T10:00:20Z</time></trkpt><trkpt lat="42.08785296402947" lon="13.699890563870111"><ele>988.3333333333333</ele><time>2026-04-27T10:00:21Z</time></trkpt><trkpt lat="42.08780752624686" lon="13.700013991791101"><ele>987.0</ele><time>2026-04-27T10:00:23Z</time></trkpt><trkpt lat="42.08774303980318" lon="13.700072462432031"><ele>985.6666666666667</ele><time>2026-04-27T10:00:24Z</time></trkpt><trkpt lat="42.08765680970583" lon="13.70012119839455"><ele>984.3333333333334</ele><time>2026-04-27T10:00:25Z</time></trkpt><trkpt lat="42.08754849245593" lon="13.700145993177518"><ele>983.0</ele><time>2026-04-27T10:00:26Z</time></trkpt><trkpt lat="42.0874248217118" lon="13.700175855328904"><ele>983.0</ele><time>2026-04-27T10:00:27Z</time></trkpt><trkpt lat="42.087317491153854" lon="13.700237709269459"><ele>983.0</ele><time>2026-04-27T10:00:28Z</time></trkpt><trkpt lat="42.08722273943589" lon="13.700301233484954"><ele>983.0</ele><time>2026-04-27T10:00:29Z</time></trkpt><trkpt lat="42.08711651110063" lon="13.700406647592224"><ele>983.0</ele><time>2026-04-27T10:00:30Z</time></trkpt><trkpt lat="42.087004600968044" lon="13.70051505626066"><ele>981.75</ele><time>2026-04-27T10:00:31Z</time></trkpt><trkpt lat="42.08688056966439" lon="13.700579876180015"><ele>980.5</ele><time>2026-04-27T10:00:32Z</time></trkpt><trkpt lat="42.08677611059453" lon="13.700655390608818"><ele>979.25</ele><time>2026-04-27T10:00:33Z</time></trkpt><trkpt lat="42.0866907659772" lon="13.700738017894855"><ele>978.0</ele><time>2026-04-27T10:00:34Z</time></trkpt><trkpt lat="42.08661436801876" lon="13.70084671765872"><ele>977.2</ele><time>2026-04-27T10:00:35Z</time></trkpt><trkpt lat="42.08655060523209" lon="13.70094163914274"><ele>976.4</ele><time>2026-04-27T10:00:36Z</time></trkpt><trkpt lat="42.0864767425143" lon="13.701023539664439"><ele>975.6000000000001</ele><time>2026-04-27T10:00:37Z</time></trkpt><trkpt lat="42.08642794699882" lon="13.701145332482822"><ele>974.8000000000001</ele><time>2026-04-27T10:00:38Z</time></trkpt><trkpt lat="42.086368935847275" lon="13.701244177225604"><ele>974.0</ele><time>2026-04-27T10:00:39Z</time></trkpt><trkpt lat="42.08630573129221" lon="13.701406977403195"><ele>974.0</ele><time>2026-04-27T10:00:40Z</time></trkpt><trkpt lat="42.086230275751134" lon="13.701597757078483"><ele>974.0</ele><time>2026-04-27T10:00:41Z</time></trkpt><trkpt lat="42.08615393273359" lon="13.701757569569514"><ele>974.0</ele><time>2026-04-27T10:00:42Z</time></trkpt><trkpt lat="42.08608266278802" lon="13.701931371553313"><ele>974.0</ele><time>2026-04-27T10:00:43Z</time></trkpt><trkpt lat="42.086008346052985" lon="13.702108434761353"><ele>973.0</ele><time>2026-04-27T10:00:44Z</time></trkpt><trkpt lat="42.085928769779755" lon="13.702301685131038"><ele>972.0</ele><time>2026-04-27T10:00:45Z</time></trkpt><trkpt lat="42.08584220541885" lon="13.702499768717372"><ele>971.0</ele><time>2026-04-27T10:00:46Z</time></trkpt><trkpt lat="42.085769827623395" lon="13.702684216706254"><ele>969.5</ele><time>2026-04-27T10:00:47Z</time></trkpt><trkpt lat="42.085692614819635" lon="13.702831260130097"><ele>968.0</ele><time>2026-04-27T10:00:48Z</time></trkpt><trkpt lat="42.085608960961395" lon="13.702963838507632"><ele>966.5</ele><time>2026-04-27T10:00:49Z</time></trkpt><trkpt lat="42.08550971347066" lon="13.703106477625033"><ele>965.0</ele><time>2026-04-27T10:00:50Z</time></trkpt><trkpt lat="42.08540201143321" lon="13.703253252433468"><ele>965.0</ele><time>2026-04-27T10:00:51Z</time></trkpt><trkpt lat="42.08528363151876" lon="13.703401166545499"><ele>965.0</ele><time>2026-04-27T10:00:52Z</time></trkpt><trkpt lat="42.085162818503726" lon="13.703526301659199"><ele>965.0</ele><time>2026-04-27T10:00:53Z</time></trkpt><trkpt lat="42.085033765875274" lon="13.703632681101315"><ele>965.3333333333334</ele><time>2026-04-27T10:00:54.001Z</time></trkpt><trkpt lat="42.08489791838315" lon="13.70373971917945"><ele>965.6666666666667</ele><time>2026-04-27T10:00:55.001Z</time></trkpt><trkpt lat="42.08476194121506" lon="13.703860955450313"><ele>966.0</ele><time>2026-04-27T10:00:56.001Z</time></trkpt><trkpt lat="42.084648015476354" lon="13.703972206025286"><ele>966.0</ele><time>2026-04-27T10:00:57.001Z</time></trkpt><trkpt lat="42.0845365846329" lon="13.70411246605671"><ele>966.0</ele><time>2026-04-27T10:00:58.001Z</time></trkpt><trkpt lat="42.08443000134296" lon="13.704231978646266"><ele>966.0</ele><time>2026-04-27T10:00:59.001Z</time></trkpt><trkpt lat="42.08429835424368" lon="13.704349747706393"><ele>966.0</ele><time>2026-04-27T10:01:00.001Z</time></trkpt><trkpt lat="42.08418825134038" lon="13.704470706252186"><ele>966.5</ele><time>2026-04-27T10:01:01.001Z</time></trkpt><trkpt lat="42.08408320273947" lon="13.704588650236879"><ele>967.0</ele><time>2026-04-27T10:01:02.001Z</time></trkpt><trkpt lat="42.08398033125555" lon="13.704723254957662"><ele>967.5</ele><time>2026-04-27T10:01:03.001Z</time></trkpt><trkpt lat="42.08388161094529" lon="13.704854717382961"><ele>968.0</ele><time>2026-04-27T10:01:04.001Z</time></trkpt><trkpt lat="42.08376757578881" lon="13.70497267644869"><ele>968.0</ele><time>2026-04-27T10:01:05.001Z</time></trkpt><trkpt lat="42.083644070215485" lon="13.705067184154432"><ele>968.0</ele><time>2026-04-27T10:01:06.001Z</time></trkpt><trkpt lat="42.083526169877494" lon="13.705166042289438"><ele>968.0</ele><time>2026-04-27T10:01:07.001Z</time></trkpt><trkpt lat="42.08342909329486" lon="13.705256411865596"><ele>968.0</ele><time>2026-04-27T10:01:08.001Z</time></trkpt><trkpt lat="42.083342759218354" lon="13.705348087899976"><ele>973.0</ele><time>2026-04-27T10:01:09.001Z</time></trkpt><trkpt lat="42.08325624310497" lon="13.705456639481282"><ele>978.0</ele><time>2026-04-27T10:01:10.001Z</time></trkpt><trkpt lat="42.08318904399424" lon="13.705568606245253"><ele>983.0</ele><time>2026-04-27T10:01:11.001Z</time></trkpt><trkpt lat="42.083123913911315" lon="13.705713951105748"><ele>988.0</ele><time>2026-04-27T10:01:12.001Z</time></trkpt><trkpt lat="42.08308194106627" lon="13.705888892950234"><ele>988.0</ele><time>2026-04-27T10:01:13.001Z</time></trkpt><trkpt lat="42.08296263987292" lon="13.706007177960437"><ele>988.0</ele><time>2026-04-27T10:01:14.001Z</time></trkpt><trkpt lat="42.08287821956129" lon="13.706143023020749"><ele>988.0</ele><time>2026-04-27T10:01:15.001Z</time></trkpt><trkpt lat="42.08281399768685" lon="13.706265045592382"><ele>988.0</ele><time>2026-04-27T10:01:16.001Z</time></trkpt><trkpt lat="42.08273588529366" lon="13.706368338519995"><ele>981.6666666666666</ele><time>2026-04-27T10:01:17.001Z</time></trkpt><trkpt lat="42.08263282209793" lon="13.706522726266938"><ele>975.3333333333333</ele><time>2026-04-27T10:01:18.001Z</time></trkpt><trkpt lat="42.082531298485335" lon="13.706730159457551"><ele>969.0</ele><time>2026-04-27T10:01:19.001Z</time></trkpt><trkpt lat="42.08240989217884" lon="13.70691086105458"><ele>974.6666666666667</ele><time>2026-04-27T10:01:20.001Z</time></trkpt><trkpt lat="42.082298771685046" lon="13.707102672969002"><ele>980.3333333333334</ele><time>2026-04-27T10:01:21.001Z</time></trkpt><trkpt lat="42.082183888492395" lon="13.70728969866092"><ele>986.0</ele><time>2026-04-27T10:01:22.001Z</time></trkpt><trkpt lat="42.0820642197062" lon="13.707477095438206"><ele>986.0</ele><time>2026-04-27T10:01:23.001Z</time></trkpt><trkpt lat="42.081942473672186" lon="13.707658455424937"><ele>986.0</ele><time>2026-04-27T10:01:24.001Z</time></trkpt><trkpt lat="42.081812910364334" lon="13.707841452174309"><ele>986.0</ele><time>2026-04-27T10:01:25.001Z</time></trkpt><trkpt lat="42.08168655935645" lon="13.70801923394342"><ele>987.3333333333334</ele><time>2026-04-27T10:01:26.001Z</time></trkpt><trkpt lat="42.08155796368001" lon="13.708189146012904"><ele>988.6666666666667</ele><time>2026-04-27T10:01:27.001Z</time></trkpt><trkpt lat="42.081428767290745" lon="13.708322568656392"><ele>990.0</ele><time>2026-04-27T10:01:28.001Z</time></trkpt><trkpt lat="42.081294770207826" lon="13.708423982901596"><ele>990.0</ele><time>2026-04-27T10:01:29.001Z</time></trkpt><trkpt lat="42.081142807865966" lon="13.70852029423969"><ele>990.0</ele><time>2026-04-27T10:01:30.001Z</time></trkpt><trkpt lat="42.0809888202499" lon="13.708635217288483"><ele>990.0</ele><time>2026-04-27T10:01:31.001Z</time></trkpt><trkpt lat="42.080820843149006" lon="13.708714663404155"><ele>985.6666666666667</ele><time>2026-04-27T10:01:32.001Z</time></trkpt><trkpt lat="42.080653372979306" lon="13.708814343990216"><ele>981.3333333333334</ele><time>2026-04-27T10:01:33Z</time></trkpt><trkpt lat="42.08048292794295" lon="13.708915141513216"><ele>977.0</ele><time>2026-04-27T10:01:34Z</time></trkpt><trkpt lat="42.0803119866338" lon="13.70901623268918"><ele>977.0</ele><time>2026-04-27T10:01:35Z</time></trkpt><trkpt lat="42.0801392074885" lon="13.709142280770601"><ele>977.0</ele><time>2026-04-27T10:01:36Z</time></trkpt><trkpt lat="42.07996653523523" lon="13.709244070582061"><ele>977.0</ele><time>2026-04-27T10:01:37Z</time></trkpt><trkpt lat="42.079780844019055" lon="13.70933040671149"><ele>972.0</ele><time>2026-04-27T10:01:38Z</time></trkpt><trkpt lat="42.07962413650183" lon="13.709424177077063"><ele>967.0</ele><time>2026-04-27T10:01:39Z</time></trkpt><trkpt lat="42.079490157229316" lon="13.709492199759412"><ele>962.0</ele><time>2026-04-27T10:01:40Z</time></trkpt><trkpt lat="42.079354807215424" lon="13.709522694404912"><ele>962.0</ele><time>2026-04-27T10:01:41Z</time></trkpt><trkpt lat="42.079224358829336" lon="13.709519791282624"><ele>962.0</ele><time>2026-04-27T10:01:42Z</time></trkpt><trkpt lat="42.07910258539933" lon="13.70942650201432"><ele>962.0</ele><time>2026-04-27T10:01:43Z</time></trkpt><trkpt lat="42.07900615090598" lon="13.709320307911458"><ele>962.0</ele><time>2026-04-27T10:01:44Z</time></trkpt><trkpt lat="42.07893276583518" lon="13.70918104924419"><ele>961.0</ele><time>2026-04-27T10:01:45Z</time></trkpt><trkpt lat="42.07885476021293" lon="13.709029840712107"><ele>960.0</ele><time>2026-04-27T10:01:46Z</time></trkpt><trkpt lat="42.07880009149121" lon="13.708855600353806"><ele>959.0</ele><time>2026-04-27T10:01:47Z</time></trkpt><trkpt lat="42.078742388822185" lon="13.708682180253664"><ele>958.0</ele><time>2026-04-27T10:01:48Z</time></trkpt><trkpt lat="42.07868349744058" lon="13.708503472196341"><ele>963.6666666666666</ele><time>2026-04-27T10:01:49Z</time></trkpt><trkpt lat="42.07863053085406" lon="13.708313353188428"><ele>969.3333333333333</ele><time>2026-04-27T10:01:50Z</time></trkpt><trkpt lat="42.078586875666204" lon="13.70811411988063"><ele>975.0</ele><time>2026-04-27T10:01:51Z</time></trkpt><trkpt lat="42.07855249721526" lon="13.707907943129603"><ele>979.6666666666667</ele><time>2026-04-27T10:01:52Z</time></trkpt><trkpt lat="42.07851885848607" lon="13.707694446768574"><ele>984.3333333333334</ele><time>2026-04-27T10:01:53Z</time></trkpt><trkpt lat="42.07848650120508" lon="13.707467644037727"><ele>989.0</ele><time>2026-04-27T10:01:54Z</time></trkpt><trkpt lat="42.07845490635785" lon="13.707260160672059"><ele>989.0</ele><time>2026-04-27T10:01:55Z</time></trkpt><trkpt lat="42.07842161823527" lon="13.707066645099342"><ele>989.0</ele><time>2026-04-27T10:01:56Z</time></trkpt><trkpt lat="42.078378102849605" lon="13.706912340379256"><ele>989.0</ele><time>2026-04-27T10:01:57Z</time></trkpt><trkpt lat="42.078315570103314" lon="13.706802460234028"><ele>989.0</ele><time>2026-04-27T10:01:58Z</time></trkpt><trkpt lat="42.07823119136407" lon="13.70674679875181"><ele>992.0</ele><time>2026-04-27T10:01:59Z</time></trkpt><trkpt lat="42.078131214968465" lon="13.706748432336969"><ele>995.0</ele><time>2026-04-27T10:02:00Z</time></trkpt><trkpt lat="42.078030979566314" lon="13.706829523810567"><ele>998.0</ele><time>2026-04-27T10:02:01Z</time></trkpt><trkpt lat="42.077956088719894" lon="13.706974692830347"><ele>1001.0</ele><time>2026-04-27T10:02:02Z</time></trkpt><trkpt lat="42.077884604343645" lon="13.707136656907986"><ele>1001.0</ele><time>2026-04-27T10:02:03Z</time></trkpt><trkpt lat="42.07778467812289" lon="13.707269388401418"><ele>1001.0</ele><time>2026-04-27T10:02:04Z</time></trkpt><trkpt lat="42.07769151177708" lon="13.707425881747898"><ele>1001.0</ele><time>2026-04-27T10:02:05Z</time></trkpt><trkpt lat="42.07760576171438" lon="13.707599879232502"><ele>1001.0</ele><time>2026-04-27T10:02:06Z</time></trkpt><trkpt lat="42.077505816744875" lon="13.707758880006685"><ele>995.75</ele><time>2026-04-27T10:02:07Z</time></trkpt><trkpt lat="42.07740587804485" lon="13.70787613721547"><ele>990.5</ele><time>2026-04-27T10:02:08Z</time></trkpt><trkpt lat="42.07732843165653" lon="13.707985932458444"><ele>985.25</ele><time>2026-04-27T10:02:09Z</time></trkpt><trkpt lat="42.077215706985896" lon="13.70799162807961"><ele>980.0</ele><time>2026-04-27T10:02:10Z</time></trkpt><trkpt lat="42.07709758166258" lon="13.707977893989208"><ele>980.0</ele><time>2026-04-27T10:02:11Z</time></trkpt><trkpt lat="42.07696503676976" lon="13.707939836395617"><ele>980.0</ele><time>2026-04-27T10:02:12Z</time></trkpt><trkpt lat="42.076814460179484" lon="13.707910818312435"><ele>980.0</ele><time>2026-04-27T10:02:13Z</time></trkpt><trkpt lat="42.07666029322301" lon="13.707859800524965"><ele>980.0</ele><time>2026-04-27T10:02:14Z</time></trkpt><trkpt lat="42.07649928204139" lon="13.707808111748395"><ele>977.6666666666667</ele><time>2026-04-27T10:02:15Z</time></trkpt><trkpt lat="42.07633358978724" lon="13.707756119428318"><ele>975.3333333333333</ele><time>2026-04-27T10:02:16Z</time></trkpt><trkpt lat="42.07617570048294" lon="13.7077051355658"><ele>973.0</ele><time>2026-04-27T10:02:17Z</time></trkpt><trkpt lat="42.076012111147335" lon="13.707652914327646"><ele>980.6666666666666</ele><time>2026-04-27T10:02:18Z</time></trkpt><trkpt lat="42.07586012123586" lon="13.707587864570248"><ele>988.3333333333333</ele><time>2026-04-27T10:02:19Z</time></trkpt><trkpt lat="42.075696994170535" lon="13.70755603663951"><ele>996.0</ele><time>2026-04-27T10:02:20Z</time></trkpt><trkpt lat="42.07554733348563" lon="13.707483090348076"><ele>996.0</ele><time>2026-04-27T10:02:21Z</time></trkpt><trkpt lat="42.07540540947759" lon="13.70738364700576"><ele>996.0</ele><time>2026-04-27T10:02:22Z</time></trkpt><trkpt lat="42.07527707552318" lon="13.707272457335053"><ele>996.0</ele><time>2026-04-27T10:02:23Z</time></trkpt><trkpt lat="42.075144702358735" lon="13.707151277408528"><ele>996.0</ele><time>2026-04-27T10:02:24Z</time></trkpt><trkpt lat="42.075004237781336" lon="13.707018091470795"><ele>996.0</ele><time>2026-04-27T10:02:25Z</time></trkpt><trkpt lat="42.07487105692285" lon="13.70689999252331"><ele>996.0</ele><time>2026-04-27T10:02:26Z</time></trkpt><trkpt lat="42.07473447508879" lon="13.706767144468833"><ele>998.3333333333333</ele><time>2026-04-27T10:02:27Z</time></trkpt><trkpt lat="42.07461490057034" lon="13.706632085523083"><ele>1000.6666666666666</ele><time>2026-04-27T10:02:28Z</time></trkpt><trkpt lat="42.07449613395354" lon="13.706468254483818"><ele>1003.0</ele><time>2026-04-27T10:02:29Z</time></trkpt><trkpt lat="42.074394309264385" lon="13.706322210346487"><ele>1003.0</ele><time>2026-04-27T10:02:30Z</time></trkpt><trkpt lat="42.074278829279784" lon="13.706166889780793"><ele>1003.0</ele><time>2026-04-27T10:02:31Z</time></trkpt><trkpt lat="42.07416365240817" lon="13.706003173061497"><ele>1003.0</ele><time>2026-04-27T10:02:32Z</time></trkpt><trkpt lat="42.074055342354114" lon="13.705853910358893"><ele>1006.6666666666666</ele><time>2026-04-27T10:02:33Z</time></trkpt><trkpt lat="42.07394043126786" lon="13.70569358914952"><ele>1010.3333333333333</ele><time>2026-04-27T10:02:34Z</time></trkpt><trkpt lat="42.07383131520571" lon="13.705531888894408"><ele>1014.0</ele><time>2026-04-27T10:02:35Z</time></trkpt><trkpt lat="42.073718135203904" lon="13.705370222733343"><ele>1018.0</ele><time>2026-04-27T10:02:36Z</time></trkpt><trkpt lat="42.073603868732604" lon="13.705238860780957"><ele>1022.0</ele><time>2026-04-27T10:02:37Z</time></trkpt><trkpt lat="42.07346920565335" lon="13.705150042578737"><ele>1026.0</ele><time>2026-04-27T10:02:38Z</time></trkpt><trkpt lat="42.07333122233024" lon="13.705150922958996"><ele>1030.0</ele><time>2026-04-27T10:02:39Z</time></trkpt><trkpt lat="42.07317792813606" lon="13.705197925674758"><ele>1031.3333333333333</ele><time>2026-04-27T10:02:40Z</time></trkpt><trkpt lat="42.07301542471184" lon="13.705243883655154"><ele>1032.6666666666667</ele><time>2026-04-27T10:02:41Z</time></trkpt><trkpt lat="42.07284364825731" lon="13.705267891712628"><ele>1034.0</ele><time>2026-04-27T10:02:42Z</time></trkpt><trkpt lat="42.07266845107465" lon="13.705277537681392"><ele>1031.0</ele><time>2026-04-27T10:02:43Z</time></trkpt><trkpt lat="42.072488531251764" lon="13.705280748148416"><ele>1028.0</ele><time>2026-04-27T10:02:44Z</time></trkpt><trkpt lat="42.07229479527639" lon="13.705290515978666"><ele>1025.0</ele><time>2026-04-27T10:02:45Z</time></trkpt><trkpt lat="42.072109996141506" lon="13.705304594195402"><ele>1025.0</ele><time>2026-04-27T10:02:46Z</time></trkpt><trkpt lat="42.07192038120054" lon="13.705335847113316"><ele>1025.0</ele><time>2026-04-27T10:02:47Z</time></trkpt><trkpt lat="42.071736418472135" lon="13.705393908114356"><ele>1025.0</ele><time>2026-04-27T10:02:48Z</time></trkpt><trkpt lat="42.07157642721352" lon="13.705494003877758"><ele>1030.3333333333335</ele><time>2026-04-27T10:02:49Z</time></trkpt><trkpt lat="42.07145053266656" lon="13.705644832892665"><ele>1035.6666666666667</ele><time>2026-04-27T10:02:50Z</time></trkpt><trkpt lat="42.071344803730454" lon="13.70583609184701"><ele>1041.0</ele><time>2026-04-27T10:02:51Z</time></trkpt><trkpt lat="42.07126104105812" lon="13.706017734577685"><ele>1035.0</ele><time>2026-04-27T10:02:52Z</time></trkpt><trkpt lat="42.071160210730135" lon="13.706153519252068"><ele>1029.0</ele><time>2026-04-27T10:02:53Z</time></trkpt><trkpt lat="42.071019388621224" lon="13.706256638858916"><ele>1023.0</ele><time>2026-04-27T10:02:54Z</time></trkpt><trkpt lat="42.070858139960414" lon="13.706295261304433"><ele>1024.6666666666667</ele><time>2026-04-27T10:02:55Z</time></trkpt><trkpt lat="42.07070311448028" lon="13.706342656819823"><ele>1026.3333333333335</ele><time>2026-04-27T10:02:56Z</time></trkpt><trkpt lat="42.070538277469495" lon="13.706338498764644"><ele>1028.0</ele><time>2026-04-27T10:02:57Z</time></trkpt><trkpt lat="42.07038304423922" lon="13.706320021278971"><ele>1028.0</ele><time>2026-04-27T10:02:58Z</time></trkpt><trkpt lat="42.0702677046916" lon="13.70629412254149"><ele>1028.0</ele><time>2026-04-27T10:02:59Z</time></trkpt><trkpt lat="42.07018289693823" lon="13.706238963109437"><ele>1028.0</ele><time>2026-04-27T10:03:00Z</time></trkpt><trkpt lat="42.07011938322162" lon="13.706151321807551"><ele>1028.0</ele><time>2026-04-27T10:03:01Z</time></trkpt><trkpt lat="42.07007976411543" lon="13.706057418059647"><ele>1028.0</ele><time>2026-04-27T10:03:02Z</time></trkpt><trkpt lat="42.07003884166707" lon="13.705972607154512"><ele>1031.25</ele><time>2026-04-27T10:03:04Z</time></trkpt><trkpt lat="42.06992137857559" lon="13.706088566699846"><ele>1034.5</ele><time>2026-04-27T10:03:05Z</time></trkpt><trkpt lat="42.06984946611681" lon="13.706158152769037"><ele>1037.75</ele><time>2026-04-27T10:03:06Z</time></trkpt><trkpt lat="42.069736953595545" lon="13.7062263348345"><ele>1041.0</ele><time>2026-04-27T10:03:07Z</time></trkpt><trkpt lat="42.069624649289786" lon="13.706319246990411"><ele>1041.0</ele><time>2026-04-27T10:03:08Z</time></trkpt><trkpt lat="42.06950487300377" lon="13.706443942981522"><ele>1041.0</ele><time>2026-04-27T10:03:09.001Z</time></trkpt><trkpt lat="42.06939601831141" lon="13.706614770414777"><ele>1041.0</ele><time>2026-04-27T10:03:10.001Z</time></trkpt><trkpt lat="42.06929993739749" lon="13.706810670806146"><ele>1037.3333333333333</ele><time>2026-04-27T10:03:11.001Z</time></trkpt><trkpt lat="42.069170835982085" lon="13.70697993363468"><ele>1033.6666666666665</ele><time>2026-04-27T10:03:12.001Z</time></trkpt><trkpt lat="42.069046968553415" lon="13.70712279892319"><ele>1030.0</ele><time>2026-04-27T10:03:13.001Z</time></trkpt><trkpt lat="42.06892348731325" lon="13.707259683738101"><ele>1030.0</ele><time>2026-04-27T10:03:14.001Z</time></trkpt><trkpt lat="42.06880513977341" lon="13.707389764388973"><ele>1030.0</ele><time>2026-04-27T10:03:15.001Z</time></trkpt><trkpt lat="42.06869217084875" lon="13.707504075039122"><ele>1030.0</ele><time>2026-04-27T10:03:16.001Z</time></trkpt><trkpt lat="42.06855965508054" lon="13.70761930737723"><ele>1030.0</ele><time>2026-04-27T10:03:17.001Z</time></trkpt><trkpt lat="42.06841293383397" lon="13.70771933242028"><ele>1030.0</ele><time>2026-04-27T10:03:18.001Z</time></trkpt><trkpt lat="42.06827412216512" lon="13.707820621414447"><ele>1030.0</ele><time>2026-04-27T10:03:19.001Z</time></trkpt><trkpt lat="42.068167491526864" lon="13.707934705219309"><ele>1030.0</ele><time>2026-04-27T10:03:20.001Z</time></trkpt><trkpt lat="42.06811149409918" lon="13.708090224854104"><ele>1030.0</ele><time>2026-04-27T10:03:21.001Z</time></trkpt><trkpt lat="42.06806901866694" lon="13.708241406907842"><ele>1030.0</ele><time>2026-04-27T10:03:22.001Z</time></trkpt><trkpt lat="42.0680564681368" lon="13.708372726766417"><ele>1030.0</ele><time>2026-04-27T10:03:23.001Z</time></trkpt><trkpt lat="42.06801078026181" lon="13.70843888405397"><ele>1030.0</ele><time>2026-04-27T10:03:26.001Z</time></trkpt><trkpt lat="42.06785039153133" lon="13.708381652688477"><ele>1030.0</ele><time>2026-04-27T10:03:29.001Z</time></trkpt><trkpt lat="42.06777722950413" lon="13.708356028917974"><ele>1030.0</ele><time>2026-04-27T10:03:30.001Z</time></trkpt><trkpt lat="42.06768450630539" lon="13.708324570655956"><ele>1030.0</ele><time>2026-04-27T10:03:31.001Z</time></trkpt><trkpt lat="42.067591006826476" lon="13.708285129168319"><ele>1030.0</ele><time>2026-04-27T10:03:32.001Z</time></trkpt><trkpt lat="42.06749768948763" lon="13.708237386592787"><ele>1030.0</ele><time>2026-04-27T10:03:33.001Z</time></trkpt><trkpt lat="42.067402354363544" lon="13.708191228906163"><ele>1032.6</ele><time>2026-04-27T10:03:34.001Z</time></trkpt><trkpt lat="42.0672948784637" lon="13.70813981096166"><ele>1035.2</ele><time>2026-04-27T10:03:35.001Z</time></trkpt><trkpt lat="42.06720215869211" lon="13.708091685495498"><ele>1037.8</ele><time>2026-04-27T10:03:36.001Z</time></trkpt><trkpt lat="42.06709926143228" lon="13.708055922445503"><ele>1040.4</ele><time>2026-04-27T10:03:37.001Z</time></trkpt><trkpt lat="42.06700839091539" lon="13.708018113234006"><ele>1043.0</ele><time>2026-04-27T10:03:38.001Z</time></trkpt><trkpt lat="42.06691814531249" lon="13.707989728456083"><ele>1043.0</ele><time>2026-04-27T10:03:39Z</time></trkpt><trkpt lat="42.06684489618079" lon="13.707960090196766"><ele>1043.0</ele><time>2026-04-27T10:03:40Z</time></trkpt><trkpt lat="42.06678175197788" lon="13.707925561776916"><ele>1043.0</ele><time>2026-04-27T10:03:41Z</time></trkpt><trkpt lat="42.06670668506777" lon="13.707873826106518"><ele>1043.0</ele><time>2026-04-27T10:03:42Z</time></trkpt><trkpt lat="42.06662456532664" lon="13.70779721511971"><ele>1043.0</ele><time>2026-04-27T10:03:44Z</time></trkpt><trkpt lat="42.06655748238861" lon="13.707739412213163"><ele>1043.0</ele><time>2026-04-27T10:03:45Z</time></trkpt><trkpt lat="42.06647955459879" lon="13.70768497226393"><ele>1047.0</ele><time>2026-04-27T10:03:47Z</time></trkpt><trkpt lat="42.06641822651746" lon="13.707643884420703"><ele>1051.0</ele><time>2026-04-27T10:03:49Z</time></trkpt><trkpt lat="42.06634571448176" lon="13.707600364388727"><ele>1055.0</ele><time>2026-04-27T10:03:52Z</time></trkpt><trkpt lat="42.06628338165806" lon="13.707563277648127"><ele>1059.0</ele><time>2026-04-27T10:03:54Z</time></trkpt><trkpt lat="42.0661960194507" lon="13.707549715044314"><ele>1063.0</ele><time>2026-04-27T10:03:59Z</time></trkpt><trkpt lat="42.066091862463196" lon="13.707525015851934"><ele>1067.0</ele><time>2026-04-27T10:04:01Z</time></trkpt><trkpt lat="42.06597802160809" lon="13.707493398292447"><ele>1067.0</ele><time>2026-04-27T10:04:03Z</time></trkpt><trkpt lat="42.06586033089228" lon="13.707516086269338"><ele>1067.0</ele><time>2026-04-27T10:04:05Z</time></trkpt><trkpt lat="42.06579160404485" lon="13.707505859483566"><ele>1067.0</ele><time>2026-04-27T10:04:06Z</time></trkpt><trkpt lat="42.06571992512733" lon="13.707520074315179"><ele>1067.0</ele><time>2026-04-27T10:04:07Z</time></trkpt><trkpt lat="42.06564364626187" lon="13.70751254567672"><ele>1067.0</ele><time>2026-04-27T10:04:08Z</time></trkpt><trkpt lat="42.065533983700846" lon="13.707428497306271"><ele>1070.1666666666667</ele><time>2026-04-27T10:04:10Z</time></trkpt><trkpt lat="42.065475464994776" lon="13.70734203780132"><ele>1073.3333333333335</ele><time>2026-04-27T10:04:11Z</time></trkpt><trkpt lat="42.065418001264774" lon="13.707240776195277"><ele>1076.5</ele><time>2026-04-27T10:04:12Z</time></trkpt><trkpt lat="42.0653838242603" lon="13.707161297537445"><ele>1079.6666666666667</ele><time>2026-04-27T10:04:13Z</time></trkpt><trkpt lat="42.065341579127896" lon="13.70704929468564"><ele>1082.8333333333333</ele><time>2026-04-27T10:04:14Z</time></trkpt><trkpt lat="42.0652986773435" lon="13.706931300850842"><ele>1086.0</ele><time>2026-04-27T10:04:15Z</time></trkpt><trkpt lat="42.06523422927754" lon="13.70680156523164"><ele>1087.6</ele><time>2026-04-27T10:04:16Z</time></trkpt><trkpt lat="42.06517046207536" lon="13.706701130318825"><ele>1089.1999999999998</ele><time>2026-04-27T10:04:18Z</time></trkpt><trkpt lat="42.06509970848321" lon="13.706638312514835"><ele>1090.8000000000002</ele><time>2026-04-27T10:04:19Z</time></trkpt><trkpt lat="42.06496690227935" lon="13.706575708500464"><ele>1092.4</ele><time>2026-04-27T10:04:21Z</time></trkpt><trkpt lat="42.06489757297039" lon="13.706538225822236"><ele>1094.0</ele><time>2026-04-27T10:04:22Z</time></trkpt><trkpt lat="42.06475371142468" lon="13.70643130436839"><ele>1099.5</ele><time>2026-04-27T10:04:24Z</time></trkpt><trkpt lat="42.06466057990328" lon="13.706396106019481"><ele>1105.0</ele><time>2026-04-27T10:04:25Z</time></trkpt><trkpt lat="42.064561145489506" lon="13.706377276919811"><ele>1110.5</ele><time>2026-04-27T10:04:26Z</time></trkpt><trkpt lat="42.064461548907346" lon="13.706119959926058"><ele>1116.0</ele><time>2026-04-27T10:04:27Z</time></trkpt><trkpt lat="42.06436592098676" lon="13.706116639720182"><ele>1116.0</ele><time>2026-04-27T10:04:28Z</time></trkpt><trkpt lat="42.0642812671597" lon="13.706111075944484"><ele>1116.0</ele><time>2026-04-27T10:04:29Z</time></trkpt><trkpt lat="42.0641942626797" lon="13.706098015965832"><ele>1116.0</ele><time>2026-04-27T10:04:30Z</time></trkpt><trkpt lat="42.06406020686827" lon="13.706034922050241"><ele>1116.0</ele><time>2026-04-27T10:04:33Z</time></trkpt><trkpt lat="42.06399105258482" lon="13.705964148054232"><ele>1116.0</ele><time>2026-04-27T10:04:34Z</time></trkpt><trkpt lat="42.06393967925079" lon="13.705894558421518"><ele>1115.2</ele><time>2026-04-27T10:04:35Z</time></trkpt><trkpt lat="42.06388692300991" lon="13.705823376016887"><ele>1114.3999999999999</ele><time>2026-04-27T10:04:36Z</time></trkpt><trkpt lat="42.06380861791769" lon="13.705706950524904"><ele>1113.6</ele><time>2026-04-27T10:04:38Z</time></trkpt><trkpt lat="42.06370529815367" lon="13.705550913136648"><ele>1112.8</ele><time>2026-04-27T10:08:21Z</time></trkpt><trkpt lat="42.06366354061519" lon="13.705485035929854"><ele>1112.0</ele><time>2026-04-27T10:08:22Z</time></trkpt><trkpt lat="42.063613750864505" lon="13.705406065635547"><ele>1112.0</ele><time>2026-04-27T10:08:23Z</time></trkpt><trkpt lat="42.06356626515159" lon="13.705323676516356"><ele>1112.0</ele><time>2026-04-27T10:08:24Z</time></trkpt><trkpt lat="42.0635132114537" lon="13.705225754125635"><ele>1112.0</ele><time>2026-04-27T10:08:25Z</time></trkpt><trkpt lat="42.06345884011432" lon="13.705124836292137"><ele>1112.0</ele><time>2026-04-27T10:08:26Z</time></trkpt><trkpt lat="42.063416036542336" lon="13.705045389039201"><ele>1112.0</ele><time>2026-04-27T10:08:27Z</time></trkpt><trkpt lat="42.06336900186067" lon="13.704958088764988"><ele>1112.0</ele><time>2026-04-27T10:08:28Z</time></trkpt><trkpt lat="42.06330026923936" lon="13.704830510438935"><ele>1105.0</ele><time>2026-04-27T10:08:30Z</time></trkpt><trkpt lat="42.06322822062382" lon="13.704725912411686"><ele>1098.0</ele><time>2026-04-27T10:08:32Z</time></trkpt><trkpt lat="42.06314597687071" lon="13.70462788829619"><ele>1091.0</ele><time>2026-04-27T10:08:34Z</time></trkpt><trkpt lat="42.06309531144157" lon="13.704574279378292"><ele>1084.0</ele><time>2026-04-27T10:08:35Z</time></trkpt><trkpt lat="42.062558610115765" lon="13.70494462169492"><ele>1084.0</ele><time>2026-04-27T10:08:36Z</time></trkpt><trkpt lat="42.062468368132095" lon="13.704937214436407"><ele>1084.0</ele><time>2026-04-27T10:08:37Z</time></trkpt><trkpt lat="42.062367375369035" lon="13.704925949276086"><ele>1084.0</ele><time>2026-04-27T10:08:38Z</time></trkpt><trkpt lat="42.062271867810615" lon="13.70492326653823"><ele>1084.0</ele><time>2026-04-27T10:08:39Z</time></trkpt><trkpt lat="42.06215499688274" lon="13.704918937183752"><ele>1084.0</ele><time>2026-04-27T10:08:40Z</time></trkpt><trkpt lat="42.06205345979259" lon="13.704915801614668"><ele>1081.5</ele><time>2026-04-27T10:08:41Z</time></trkpt><trkpt lat="42.06195198128897" lon="13.704900769443016"><ele>1079.0</ele><time>2026-04-27T10:08:42Z</time></trkpt><trkpt lat="42.06186247686271" lon="13.704882463928039"><ele>1076.5</ele><time>2026-04-27T10:08:43Z</time></trkpt><trkpt lat="42.06174717218935" lon="13.70483903989338"><ele>1074.0</ele><time>2026-04-27T10:08:45Z</time></trkpt><trkpt lat="42.06164822850511" lon="13.70469627160961"><ele>1074.0</ele><time>2026-04-27T10:08:47Z</time></trkpt><trkpt lat="42.06156457359069" lon="13.704589591624469"><ele>1074.0</ele><time>2026-04-27T10:08:48Z</time></trkpt><trkpt lat="42.06148106378203" lon="13.704471754315811"><ele>1074.0</ele><time>2026-04-27T10:08:49Z</time></trkpt><trkpt lat="42.06140138208101" lon="13.704334539833214"><ele>1074.0</ele><time>2026-04-27T10:08:50Z</time></trkpt><trkpt lat="42.06133891546338" lon="13.704213831386037"><ele>1072.8</ele><time>2026-04-27T10:08:51Z</time></trkpt><trkpt lat="42.06127085294091" lon="13.704088801505307"><ele>1071.6000000000001</ele><time>2026-04-27T10:08:52Z</time></trkpt><trkpt lat="42.06120810633036" lon="13.70397475536812"><ele>1070.4</ele><time>2026-04-27T10:08:53Z</time></trkpt><trkpt lat="42.0611461025466" lon="13.70387686103861"><ele>1069.2</ele><time>2026-04-27T10:08:54Z</time></trkpt><trkpt lat="42.0610867309994" lon="13.703778783650371"><ele>1068.0</ele><time>2026-04-27T10:08:55Z</time></trkpt><trkpt lat="42.06099595769723" lon="13.703646319727342"><ele>1068.75</ele><time>2026-04-27T10:08:56Z</time></trkpt><trkpt lat="42.0609172396815" lon="13.70349061129195"><ele>1069.5</ele><time>2026-04-27T10:08:57Z</time></trkpt><trkpt lat="42.06083682633665" lon="13.703355389664441"><ele>1070.25</ele><time>2026-04-27T10:08:58Z</time></trkpt><trkpt lat="42.06076455605669" lon="13.70322799836418"><ele>1071.0</ele><time>2026-04-27T10:08:59Z</time></trkpt><trkpt lat="42.06071377780057" lon="13.703122886850302"><ele>1071.0</ele><time>2026-04-27T10:09:00Z</time></trkpt><trkpt lat="42.06065051558171" lon="13.703012927879916"><ele>1071.0</ele><time>2026-04-27T10:09:01Z</time></trkpt><trkpt lat="42.06057153866105" lon="13.702879185436153"><ele>1071.0</ele><time>2026-04-27T10:09:02Z</time></trkpt><trkpt lat="42.06050405375715" lon="13.702751195252272"><ele>1071.0</ele><time>2026-04-27T10:09:03Z</time></trkpt><trkpt lat="42.06043852484653" lon="13.7026210333511"><ele>1069.8</ele><time>2026-04-27T10:09:04.001Z</time></trkpt><trkpt lat="42.06038155252482" lon="13.702504184938721"><ele>1068.6</ele><time>2026-04-27T10:09:05.001Z</time></trkpt><trkpt lat="42.06032062795463" lon="13.702386052119715"><ele>1067.4</ele><time>2026-04-27T10:09:06.001Z</time></trkpt><trkpt lat="42.06024808022294" lon="13.702267135366162"><ele>1066.2</ele><time>2026-04-27T10:09:07.001Z</time></trkpt><trkpt lat="42.06017101075243" lon="13.702135318461862"><ele>1065.0</ele><time>2026-04-27T10:09:08.001Z</time></trkpt><trkpt lat="42.06010000145949" lon="13.702026109817522"><ele>1064.0</ele><time>2026-04-27T10:09:09.001Z</time></trkpt><trkpt lat="42.060015409321764" lon="13.701890456172904"><ele>1063.0</ele><time>2026-04-27T10:09:10.001Z</time></trkpt><trkpt lat="42.0599359803722" lon="13.701746650230191"><ele>1062.0</ele><time>2026-04-27T10:09:11.001Z</time></trkpt><trkpt lat="42.059864145234876" lon="13.701611715590388"><ele>1061.0</ele><time>2026-04-27T10:09:12.001Z</time></trkpt><trkpt lat="42.05979935304042" lon="13.701492471318566"><ele>1061.0</ele><time>2026-04-27T10:09:13.001Z</time></trkpt><trkpt lat="42.05972728796812" lon="13.70137023559287"><ele>1061.0</ele><time>2026-04-27T10:09:14.001Z</time></trkpt><trkpt lat="42.05965643100566" lon="13.70125940436414"><ele>1061.0</ele><time>2026-04-27T10:09:15.001Z</time></trkpt><trkpt lat="42.05959158444985" lon="13.70115389685154"><ele>1061.0</ele><time>2026-04-27T10:09:16.001Z</time></trkpt><trkpt lat="42.059518008835184" lon="13.701016389254711"><ele>1061.0</ele><time>2026-04-27T10:09:17.001Z</time></trkpt><trkpt lat="42.05944958475585" lon="13.70090443935094"><ele>1061.0</ele><time>2026-04-27T10:09:18.001Z</time></trkpt><trkpt lat="42.05939435970164" lon="13.700813492343217"><ele>1061.0</ele><time>2026-04-27T10:09:19.001Z</time></trkpt><trkpt lat="42.059339663708506" lon="13.700733536686611"><ele>1061.0</ele><time>2026-04-27T10:09:20.001Z</time></trkpt><trkpt lat="42.059282448943655" lon="13.700672903598187"><ele>1061.0</ele><time>2026-04-27T10:09:21.001Z</time></trkpt><trkpt lat="42.0592140273068" lon="13.700624912769932"><ele>1061.0</ele><time>2026-04-27T10:09:22.001Z</time></trkpt><trkpt lat="42.05912547909175" lon="13.700577070670928"><ele>1060.0</ele><time>2026-04-27T10:09:23.001Z</time></trkpt><trkpt lat="42.05902210902134" lon="13.700523911429661"><ele>1059.0</ele><time>2026-04-27T10:09:24.001Z</time></trkpt><trkpt lat="42.05890661729437" lon="13.700465974048127"><ele>1058.0</ele><time>2026-04-27T10:09:25.001Z</time></trkpt><trkpt lat="42.0587810303888" lon="13.700419387008031"><ele>1057.0</ele><time>2026-04-27T10:09:26.001Z</time></trkpt><trkpt lat="42.058666533580656" lon="13.700401561329395"><ele>1057.0</ele><time>2026-04-27T10:09:27.001Z</time></trkpt><trkpt lat="42.05855482430177" lon="13.70039029563294"><ele>1057.0</ele><time>2026-04-27T10:09:28.001Z</time></trkpt><trkpt lat="42.05844108234436" lon="13.700389322314848"><ele>1057.0</ele><time>2026-04-27T10:09:29.001Z</time></trkpt><trkpt lat="42.05831054661236" lon="13.700377595695121"><ele>1057.0</ele><time>2026-04-27T10:09:30.001Z</time></trkpt><trkpt lat="42.05820085358061" lon="13.700363917898988"><ele>1056.1666666666665</ele><time>2026-04-27T10:09:31.001Z</time></trkpt><trkpt lat="42.05810758290482" lon="13.700350625200898"><ele>1055.3333333333333</ele><time>2026-04-27T10:09:32.001Z</time></trkpt><trkpt lat="42.05804309143777" lon="13.70035118486107"><ele>1054.5</ele><time>2026-04-27T10:09:33.001Z</time></trkpt><trkpt lat="42.05797545754875" lon="13.70035692526393"><ele>1053.6666666666667</ele><time>2026-04-27T10:09:34.001Z</time></trkpt><trkpt lat="42.05789411807712" lon="13.700351861505188"><ele>1052.8333333333335</ele><time>2026-04-27T10:09:35.001Z</time></trkpt><trkpt lat="42.05781923495757" lon="13.700326935043591"><ele>1052.0</ele><time>2026-04-27T10:09:36.001Z</time></trkpt><trkpt lat="42.057737439991335" lon="13.700303716276759"><ele>1052.0</ele><time>2026-04-27T10:09:37.001Z</time></trkpt><trkpt lat="42.05766286263493" lon="13.700306131914948"><ele>1052.0</ele><time>2026-04-27T10:09:38.001Z</time></trkpt><trkpt lat="42.057578893760166" lon="13.700284021538776"><ele>1052.0</ele><time>2026-04-27T10:09:39.001Z</time></trkpt><trkpt lat="42.05747009022329" lon="13.700274862379645"><ele>1052.0</ele><time>2026-04-27T10:09:40.001Z</time></trkpt><trkpt lat="42.05738106097416" lon="13.700276683692755"><ele>1052.0</ele><time>2026-04-27T10:09:41.001Z</time></trkpt><trkpt lat="42.05726758076094" lon="13.700279000873966"><ele>1051.8</ele><time>2026-04-27T10:09:42.001Z</time></trkpt><trkpt lat="42.05714990814439" lon="13.70026516674724"><ele>1051.6</ele><time>2026-04-27T10:09:43.001Z</time></trkpt><trkpt lat="42.05704908159198" lon="13.7002442371082"><ele>1051.3999999999999</ele><time>2026-04-27T10:09:44.001Z</time></trkpt><trkpt lat="42.056927054302406" lon="13.700228391682787"><ele>1051.2</ele><time>2026-04-27T10:09:45.001Z</time></trkpt><trkpt lat="42.056836397726094" lon="13.700209688624149"><ele>1051.0</ele><time>2026-04-27T10:09:46.001Z</time></trkpt><trkpt lat="42.056734268159474" lon="13.70018953957961"><ele>1051.0</ele><time>2026-04-27T10:09:47.001Z</time></trkpt><trkpt lat="42.05662881314005" lon="13.700170239163775"><ele>1051.0</ele><time>2026-04-27T10:09:48.001Z</time></trkpt><trkpt lat="42.05651780076695" lon="13.70015520575974"><ele>1051.0</ele><time>2026-04-27T10:09:49.001Z</time></trkpt><trkpt lat="42.056410795556424" lon="13.700138087119612"><ele>1051.0</ele><time>2026-04-27T10:09:50.001Z</time></trkpt><trkpt lat="42.05630490028865" lon="13.700124297138132"><ele>1051.0</ele><time>2026-04-27T10:09:51.001Z</time></trkpt><trkpt lat="42.056208367147455" lon="13.700106681046176"><ele>1051.1666666666665</ele><time>2026-04-27T10:09:52.001Z</time></trkpt><trkpt lat="42.056124973616946" lon="13.700086775050812"><ele>1051.3333333333333</ele><time>2026-04-27T10:09:53.001Z</time></trkpt><trkpt lat="42.05603665878393" lon="13.70007174228069"><ele>1051.5</ele><time>2026-04-27T10:09:54.001Z</time></trkpt><trkpt lat="42.05595358325433" lon="13.700063818287205"><ele>1051.6666666666667</ele><time>2026-04-27T10:09:55.001Z</time></trkpt><trkpt lat="42.05586234062091" lon="13.700040109326435"><ele>1051.8333333333335</ele><time>2026-04-27T10:09:56.001Z</time></trkpt><trkpt lat="42.055781032299855" lon="13.700015975769485"><ele>1052.0</ele><time>2026-04-27T10:09:57Z</time></trkpt><trkpt lat="42.05569506659963" lon="13.699996378979227"><ele>1051.6</ele><time>2026-04-27T10:09:58Z</time></trkpt><trkpt lat="42.05559439930765" lon="13.699980403321817"><ele>1051.2</ele><time>2026-04-27T10:09:59Z</time></trkpt><trkpt lat="42.05549549610796" lon="13.699965574520295"><ele>1050.8</ele><time>2026-04-27T10:10:00Z</time></trkpt><trkpt lat="42.05539961030412" lon="13.699958760966052"><ele>1050.4</ele><time>2026-04-27T10:10:01Z</time></trkpt><trkpt lat="42.05530141369475" lon="13.699943639485635"><ele>1050.0</ele><time>2026-04-27T10:10:02Z</time></trkpt><trkpt lat="42.055205463677986" lon="13.699918802478864"><ele>1050.0</ele><time>2026-04-27T10:10:03Z</time></trkpt><trkpt lat="42.05513308645801" lon="13.699895375954352"><ele>1050.0</ele><time>2026-04-27T10:10:04Z</time></trkpt><trkpt lat="42.05505024764149" lon="13.699856847203147"><ele>1050.0</ele><time>2026-04-27T10:10:05Z</time></trkpt><trkpt lat="42.054962418023194" lon="13.699815357005882"><ele>1050.0</ele><time>2026-04-27T10:10:06Z</time></trkpt><trkpt lat="42.05487991806462" lon="13.699787779110512"><ele>1050.0</ele><time>2026-04-27T10:10:07Z</time></trkpt><trkpt lat="42.054778141759506" lon="13.699739699536263"><ele>1050.0</ele><time>2026-04-27T10:10:08Z</time></trkpt><trkpt lat="42.05470617584278" lon="13.699702780119916"><ele>1049.6666666666667</ele><time>2026-04-27T10:10:09Z</time></trkpt><trkpt lat="42.05463836363806" lon="13.699656270850191"><ele>1049.3333333333333</ele><time>2026-04-27T10:10:10Z</time></trkpt><trkpt lat="42.05456389054342" lon="13.699605420361804"><ele>1049.0</ele><time>2026-04-27T10:10:11Z</time></trkpt><trkpt lat="42.05449025931019" lon="13.699588974247751"><ele>1048.6666666666665</ele><time>2026-04-27T10:10:12Z</time></trkpt><trkpt lat="42.05440667544879" lon="13.699577585209061"><ele>1048.3333333333333</ele><time>2026-04-27T10:10:13Z</time></trkpt><trkpt lat="42.05431159424945" lon="13.699558062488132"><ele>1048.0</ele><time>2026-04-27T10:10:14Z</time></trkpt><trkpt lat="42.05421339627841" lon="13.699526856030982"><ele>1049.0</ele><time>2026-04-27T10:10:15Z</time></trkpt><trkpt lat="42.054117535258925" lon="13.699469060858833"><ele>1050.0</ele><time>2026-04-27T10:10:16Z</time></trkpt><trkpt lat="42.05404042247007" lon="13.699424130085648"><ele>1051.0</ele><time>2026-04-27T10:10:17Z</time></trkpt><trkpt lat="42.053914146976936" lon="13.699353684519506"><ele>1052.0</ele><time>2026-04-27T10:10:18Z</time></trkpt><trkpt lat="42.0537823988009" lon="13.699286868088342"><ele>1052.0</ele><time>2026-04-27T10:10:19Z</time></trkpt><trkpt lat="42.05370626710774" lon="13.699236686283388"><ele>1052.0</ele><time>2026-04-27T10:10:20Z</time></trkpt><trkpt lat="42.05360936789822" lon="13.699181679683653"><ele>1052.0</ele><time>2026-04-27T10:10:21Z</time></trkpt><trkpt lat="42.05351169636597" lon="13.699131678621063"><ele>1052.0</ele><time>2026-04-27T10:10:22Z</time></trkpt><trkpt lat="42.05340646635898" lon="13.699089295046514"><ele>1052.0</ele><time>2026-04-27T10:10:23Z</time></trkpt><trkpt lat="42.0532979754273" lon="13.699041408298473"><ele>1052.4</ele><time>2026-04-27T10:10:24Z</time></trkpt><trkpt lat="42.053200238742455" lon="13.698996220686613"><ele>1052.8000000000002</ele><time>2026-04-27T10:10:25Z</time></trkpt><trkpt lat="42.053117912375576" lon="13.698932021338644"><ele>1053.2</ele><time>2026-04-27T10:10:26Z</time></trkpt><trkpt lat="42.05302673145958" lon="13.698844006847164"><ele>1053.6000000000001</ele><time>2026-04-27T10:10:27Z</time></trkpt><trkpt lat="42.05293570591739" lon="13.698761623498923"><ele>1054.0</ele><time>2026-04-27T10:10:28Z</time></trkpt><trkpt lat="42.05285061462585" lon="13.698669137479326"><ele>1054.5</ele><time>2026-04-27T10:10:29Z</time></trkpt><trkpt lat="42.052759108111616" lon="13.69856185911668"><ele>1055.0</ele><time>2026-04-27T10:10:30Z</time></trkpt><trkpt lat="42.052673345906946" lon="13.698448966792181"><ele>1055.5</ele><time>2026-04-27T10:10:31Z</time></trkpt><trkpt lat="42.052588430139224" lon="13.698361318218614"><ele>1056.0</ele><time>2026-04-27T10:10:32Z</time></trkpt><trkpt lat="42.05249820110558" lon="13.698276202818459"><ele>1059.25</ele><time>2026-04-27T10:10:33Z</time></trkpt><trkpt lat="42.05239501929828" lon="13.698183588217509"><ele>1062.5</ele><time>2026-04-27T10:10:34Z</time></trkpt><trkpt lat="42.05229472574481" lon="13.698089973490289"><ele>1065.75</ele><time>2026-04-27T10:10:35Z</time></trkpt><trkpt lat="42.052191927910634" lon="13.697985192035567"><ele>1069.0</ele><time>2026-04-27T10:10:36Z</time></trkpt><trkpt lat="42.05208783147474" lon="13.697862002965323"><ele>1065.75</ele><time>2026-04-27T10:10:37Z</time></trkpt><trkpt lat="42.0519933063005" lon="13.69772602910106"><ele>1062.5</ele><time>2026-04-27T10:10:38Z</time></trkpt><trkpt lat="42.05191872370991" lon="13.697597052172682"><ele>1059.25</ele><time>2026-04-27T10:10:39Z</time></trkpt><trkpt lat="42.05183467998898" lon="13.697466805471906"><ele>1056.0</ele><time>2026-04-27T10:10:40Z</time></trkpt><trkpt lat="42.05174619287543" lon="13.69736537376166"><ele>1056.0</ele><time>2026-04-27T10:10:41Z</time></trkpt><trkpt lat="42.051654350449745" lon="13.69724825425518"><ele>1056.0</ele><time>2026-04-27T10:10:42Z</time></trkpt><trkpt lat="42.05156018377506" lon="13.69716468218561"><ele>1056.0</ele><time>2026-04-27T10:10:43Z</time></trkpt><trkpt lat="42.05145828604979" lon="13.697044060511173"><ele>1056.0</ele><time>2026-04-27T10:10:44Z</time></trkpt><trkpt lat="42.05135690142" lon="13.696930456060171"><ele>1055.75</ele><time>2026-04-27T10:10:45Z</time></trkpt><trkpt lat="42.05126280362795" lon="13.696841629445261"><ele>1055.5</ele><time>2026-04-27T10:10:46Z</time></trkpt><trkpt lat="42.051171641887" lon="13.696742374344286"><ele>1055.25</ele><time>2026-04-27T10:10:47Z</time></trkpt><trkpt lat="42.05107404618232" lon="13.696617281536861"><ele>1055.0</ele><time>2026-04-27T10:10:48Z</time></trkpt><trkpt lat="42.050965216862714" lon="13.696485890706"><ele>1055.0</ele><time>2026-04-27T10:10:49Z</time></trkpt><trkpt lat="42.05085814915637" lon="13.696361670210978"><ele>1055.0</ele><time>2026-04-27T10:10:50Z</time></trkpt><trkpt lat="42.05076416375394" lon="13.696244568942413"><ele>1055.0</ele><time>2026-04-27T10:10:51Z</time></trkpt><trkpt lat="42.05066769595522" lon="13.696117033087363"><ele>1055.0</ele><time>2026-04-27T10:10:52Z</time></trkpt><trkpt lat="42.0505776842585" lon="13.695977213868348"><ele>1054.0</ele><time>2026-04-27T10:10:53Z</time></trkpt><trkpt lat="42.050479980090095" lon="13.695841203366404"><ele>1053.0</ele><time>2026-04-27T10:10:54Z</time></trkpt><trkpt lat="42.0503963243902" lon="13.695737416244777"><ele>1052.0</ele><time>2026-04-27T10:10:55Z</time></trkpt><trkpt lat="42.050306780139834" lon="13.695632633977356"><ele>1051.0</ele><time>2026-04-27T10:10:56Z</time></trkpt><trkpt lat="42.05022711898623" lon="13.695531423443418"><ele>1051.0</ele><time>2026-04-27T10:10:57Z</time></trkpt><trkpt lat="42.050139111254076" lon="13.695409441395599"><ele>1051.0</ele><time>2026-04-27T10:10:58Z</time></trkpt><trkpt lat="42.05003006477172" lon="13.695254830640904"><ele>1051.0</ele><time>2026-04-27T10:10:59Z</time></trkpt><trkpt lat="42.04993268153368" lon="13.695137352665387"><ele>1051.0</ele><time>2026-04-27T10:11:00Z</time></trkpt><trkpt lat="42.04983963223058" lon="13.695007808870734"><ele>1052.0</ele><time>2026-04-27T10:11:01Z</time></trkpt><trkpt lat="42.04975688241075" lon="13.694886436312608"><ele>1053.0</ele><time>2026-04-27T10:11:02Z</time></trkpt><trkpt lat="42.049681102758925" lon="13.694775604091523"><ele>1054.0</ele><time>2026-04-27T10:11:03Z</time></trkpt><trkpt lat="42.04959989949741" lon="13.6946575387212"><ele>1055.0</ele><time>2026-04-27T10:11:04Z</time></trkpt><trkpt lat="42.049535403809195" lon="13.69456645353794"><ele>1056.0</ele><time>2026-04-27T10:11:05Z</time></trkpt><trkpt lat="42.0494641332986" lon="13.694471136388902"><ele>1055.75</ele><time>2026-04-27T10:11:06Z</time></trkpt><trkpt lat="42.049391038649524" lon="13.694372699495139"><ele>1055.5</ele><time>2026-04-27T10:11:07Z</time></trkpt><trkpt lat="42.04929928880927" lon="13.694260006857562"><ele>1055.25</ele><time>2026-04-27T10:11:08Z</time></trkpt><trkpt lat="42.04919986785941" lon="13.694153371338576"><ele>1055.0</ele><time>2026-04-27T10:11:09Z</time></trkpt><trkpt lat="42.049085341388405" lon="13.694038681835583"><ele>1055.0</ele><time>2026-04-27T10:11:10Z</time></trkpt><trkpt lat="42.04897303777681" lon="13.693926268567102"><ele>1055.0</ele><time>2026-04-27T10:11:11Z</time></trkpt><trkpt lat="42.04887723923127" lon="13.693819484119393"><ele>1055.0</ele><time>2026-04-27T10:11:12Z</time></trkpt><trkpt lat="42.04878228535156" lon="13.693706592700286"><ele>1055.0</ele><time>2026-04-27T10:11:13Z</time></trkpt><trkpt lat="42.04869012718956" lon="13.69359530711792"><ele>1054.5</ele><time>2026-04-27T10:11:14Z</time></trkpt><trkpt lat="42.04859202559704" lon="13.69348413884394"><ele>1054.0</ele><time>2026-04-27T10:11:15Z</time></trkpt><trkpt lat="42.04847831905643" lon="13.693371934799803"><ele>1053.5</ele><time>2026-04-27T10:11:16Z</time></trkpt><trkpt lat="42.04836431775668" lon="13.693267469745974"><ele>1053.0</ele><time>2026-04-27T10:11:17Z</time></trkpt><trkpt lat="42.04826680477518" lon="13.693169938631994"><ele>1053.0</ele><time>2026-04-27T10:11:18Z</time></trkpt><trkpt lat="42.04816460484063" lon="13.693058339719787"><ele>1053.0</ele><time>2026-04-27T10:11:19Z</time></trkpt><trkpt lat="42.0480576425791" lon="13.692945403987816"><ele>1053.0</ele><time>2026-04-27T10:11:20Z</time></trkpt><trkpt lat="42.0479653274638" lon="13.69283147512645"><ele>1053.0</ele><time>2026-04-27T10:11:21Z</time></trkpt><trkpt lat="42.04785516925942" lon="13.69270567877344"><ele>1049.5</ele><time>2026-04-27T10:11:22Z</time></trkpt><trkpt lat="42.047752696346016" lon="13.6926005241069"><ele>1046.0</ele><time>2026-04-27T10:11:23Z</time></trkpt><trkpt lat="42.04765583234008" lon="13.692493140775728"><ele>1042.5</ele><time>2026-04-27T10:11:24Z</time></trkpt><trkpt lat="42.04756141568923" lon="13.692399192603322"><ele>1039.0</ele><time>2026-04-27T10:11:25Z</time></trkpt><trkpt lat="42.04746038587314" lon="13.69229752427131"><ele>1039.0</ele><time>2026-04-27T10:11:26Z</time></trkpt><trkpt lat="42.04735462910228" lon="13.692192763368118"><ele>1039.0</ele><time>2026-04-27T10:11:27Z</time></trkpt><trkpt lat="42.047246020550304" lon="13.692085615678037"><ele>1039.0</ele><time>2026-04-27T10:11:28Z</time></trkpt><trkpt lat="42.04714957709642" lon="13.69199149920881"><ele>1039.0</ele><time>2026-04-27T10:11:29Z</time></trkpt><trkpt lat="42.04704509598344" lon="13.691904929635987"><ele>1035.0</ele><time>2026-04-27T10:11:30Z</time></trkpt><trkpt lat="42.04692444517031" lon="13.691818957386252"><ele>1031.0</ele><time>2026-04-27T10:11:31Z</time></trkpt><trkpt lat="42.0468025762402" lon="13.691727431371621"><ele>1027.0</ele><time>2026-04-27T10:11:32Z</time></trkpt><trkpt lat="42.04667805839661" lon="13.691636211311385"><ele>1023.0</ele><time>2026-04-27T10:11:33Z</time></trkpt><trkpt lat="42.046569857396875" lon="13.691550730845679"><ele>1023.0</ele><time>2026-04-27T10:11:34Z</time></trkpt><trkpt lat="42.04647290532151" lon="13.69147769972891"><ele>1023.0</ele><time>2026-04-27T10:11:35Z</time></trkpt><trkpt lat="42.04638458273262" lon="13.691410164947607"><ele>1023.0</ele><time>2026-04-27T10:11:36Z</time></trkpt><trkpt lat="42.04628941801468" lon="13.69134350671406"><ele>1023.0</ele><time>2026-04-27T10:11:37Z</time></trkpt><trkpt lat="42.046173844960904" lon="13.69124841402248"><ele>1023.0</ele><time>2026-04-27T10:11:38Z</time></trkpt><trkpt lat="42.046062304823536" lon="13.691158751435525"><ele>1023.0</ele><time>2026-04-27T10:11:39Z</time></trkpt><trkpt lat="42.045962462292245" lon="13.691054899019147"><ele>1023.0</ele><time>2026-04-27T10:11:40Z</time></trkpt><trkpt lat="42.04588074757982" lon="13.690953656047155"><ele>1023.0</ele><time>2026-04-27T10:11:41Z</time></trkpt><trkpt lat="42.045784946805405" lon="13.690840385781337"><ele>1021.5</ele><time>2026-04-27T10:11:42Z</time></trkpt><trkpt lat="42.04567486786681" lon="13.690724050704421"><ele>1020.0</ele><time>2026-04-27T10:11:43Z</time></trkpt><trkpt lat="42.045576686681926" lon="13.690619374231298"><ele>1018.5</ele><time>2026-04-27T10:11:44Z</time></trkpt><trkpt lat="42.045485615137956" lon="13.690517623274717"><ele>1017.0</ele><time>2026-04-27T10:11:45Z</time></trkpt><trkpt lat="42.045408280927234" lon="13.690404657329799"><ele>1017.0</ele><time>2026-04-27T10:11:46Z</time></trkpt><trkpt lat="42.045341103381126" lon="13.690280248812087"><ele>1017.0</ele><time>2026-04-27T10:11:47Z</time></trkpt><trkpt lat="42.045287366810186" lon="13.690141763088738"><ele>1017.0</ele><time>2026-04-27T10:11:48Z</time></trkpt><trkpt lat="42.04523568892333" lon="13.690025548980406"><ele>1017.0</ele><time>2026-04-27T10:11:49Z</time></trkpt><trkpt lat="42.04516936848629" lon="13.689900929266026"><ele>1017.0</ele><time>2026-04-27T10:11:50Z</time></trkpt><trkpt lat="42.045108134016516" lon="13.689777025837598"><ele>1017.6</ele><time>2026-04-27T10:11:51Z</time></trkpt><trkpt lat="42.0450509016731" lon="13.689659099801673"><ele>1018.2</ele><time>2026-04-27T10:11:52Z</time></trkpt><trkpt lat="42.045001700075055" lon="13.68953828223627"><ele>1018.8</ele><time>2026-04-27T10:11:53Z</time></trkpt><trkpt lat="42.04495217757862" lon="13.689404098610336"><ele>1019.4</ele><time>2026-04-27T10:11:54Z</time></trkpt><trkpt lat="42.044923916133186" lon="13.689273777894407"><ele>1020.0</ele><time>2026-04-27T10:11:55Z</time></trkpt><trkpt lat="42.0448862528014" lon="13.689130262095443"><ele>1020.0</ele><time>2026-04-27T10:11:56Z</time></trkpt><trkpt lat="42.04483583594338" lon="13.688992739335163"><ele>1020.0</ele><time>2026-04-27T10:11:57Z</time></trkpt><trkpt lat="42.04478351905858" lon="13.68886696792922"><ele>1020.0</ele><time>2026-04-27T10:11:58Z</time></trkpt><trkpt lat="42.04474881758301" lon="13.688768633510339"><ele>1020.0</ele><time>2026-04-27T10:11:59Z</time></trkpt><trkpt lat="42.0446963836265" lon="13.688658612634505"><ele>1020.0</ele><time>2026-04-27T10:12:00Z</time></trkpt><trkpt lat="42.04464163872271" lon="13.688552361872755"><ele>1015.6</ele><time>2026-04-27T10:12:01Z</time></trkpt><trkpt lat="42.04458428534106" lon="13.688418978125098"><ele>1011.2</ele><time>2026-04-27T10:12:02Z</time></trkpt><trkpt lat="42.044549726892015" lon="13.688288851253215"><ele>1006.8</ele><time>2026-04-27T10:12:02.999Z</time></trkpt><trkpt lat="42.0445007072725" lon="13.68815749582132"><ele>1002.4</ele><time>2026-04-27T10:12:03.999Z</time></trkpt><trkpt lat="42.044444833909274" lon="13.688075360020058"><ele>998.0</ele><time>2026-04-27T10:12:04.999Z</time></trkpt><trkpt lat="42.04437042912439" lon="13.687975315575367"><ele>998.0</ele><time>2026-04-27T10:12:05.999Z</time></trkpt><trkpt lat="42.04430454935028" lon="13.687883931730868"><ele>998.0</ele><time>2026-04-27T10:12:07Z</time></trkpt><trkpt lat="42.04426866915094" lon="13.687790191312182"><ele>998.0</ele><time>2026-04-27T10:12:08Z</time></trkpt><trkpt lat="42.044216756736645" lon="13.687682076732504"><ele>998.0</ele><time>2026-04-27T10:12:09Z</time></trkpt><trkpt lat="42.04418033030472" lon="13.687578971157489"><ele>998.0</ele><time>2026-04-27T10:12:10Z</time></trkpt><trkpt lat="42.04413931804932" lon="13.687454688651494"><ele>997.6666666666667</ele><time>2026-04-27T10:12:11Z</time></trkpt><trkpt lat="42.04408609951983" lon="13.687342406021505"><ele>997.3333333333334</ele><time>2026-04-27T10:12:12Z</time></trkpt><trkpt lat="42.04403500800091" lon="13.687263258277522"><ele>997.0</ele><time>2026-04-27T10:12:13Z</time></trkpt><trkpt lat="42.043978536225865" lon="13.68716763531997"><ele>996.6666666666667</ele><time>2026-04-27T10:12:14Z</time></trkpt><trkpt lat="42.043927445348324" lon="13.687109817169315"><ele>996.3333333333334</ele><time>2026-04-27T10:12:15Z</time></trkpt><trkpt lat="42.043854196902345" lon="13.686997038845075"><ele>996.0</ele><time>2026-04-27T10:12:17Z</time></trkpt><trkpt lat="42.04381341000507" lon="13.686921242344665"><ele>990.0</ele><time>2026-04-27T10:12:18Z</time></trkpt><trkpt lat="42.043743415691104" lon="13.686805864422565"><ele>984.0</ele><time>2026-04-27T10:12:20Z</time></trkpt><trkpt lat="42.04365706057155" lon="13.686693627480512"><ele>978.0</ele><time>2026-04-27T10:12:22Z</time></trkpt><trkpt lat="42.043577898944925" lon="13.68659209847867"><ele>972.0</ele><time>2026-04-27T10:12:24Z</time></trkpt><trkpt lat="42.04351565966291" lon="13.686452074366848"><ele>972.0</ele><time>2026-04-27T10:12:26Z</time></trkpt><trkpt lat="42.04348723295436" lon="13.686342681949501"><ele>972.0</ele><time>2026-04-27T10:12:27Z</time></trkpt><trkpt lat="42.04345683824357" lon="13.686234822552827"><ele>972.0</ele><time>2026-04-27T10:12:28Z</time></trkpt><trkpt lat="42.04341192415466" lon="13.68612526586741"><ele>972.0</ele><time>2026-04-27T10:12:29Z</time></trkpt><trkpt lat="42.04338743045454" lon="13.68603991103184"><ele>972.0</ele><time>2026-04-27T10:12:30Z</time></trkpt><trkpt lat="42.043359909597974" lon="13.685939876002553"><ele>972.0</ele><time>2026-04-27T10:12:31Z</time></trkpt><trkpt lat="42.04330299876616" lon="13.685834542847308"><ele>973.0</ele><time>2026-04-27T10:12:32Z</time></trkpt><trkpt lat="42.04325267501682" lon="13.6857558443848"><ele>974.0</ele><time>2026-04-27T10:12:33Z</time></trkpt><trkpt lat="42.043161901227876" lon="13.68561401132438"><ele>975.0</ele><time>2026-04-27T10:12:35Z</time></trkpt><trkpt lat="42.04311142955409" lon="13.685552274043307"><ele>976.0</ele><time>2026-04-27T10:12:36Z</time></trkpt><trkpt lat="42.043083856705685" lon="13.685464877706584"><ele>977.0</ele><time>2026-04-27T10:12:37Z</time></trkpt><trkpt lat="42.04306662041988" lon="13.68537819255832"><ele>978.0</ele><time>2026-04-27T10:12:38Z</time></trkpt><trkpt lat="42.042962490392256" lon="13.685293745435246"><ele>973.3333333333334</ele><time>2026-04-27T10:12:40Z</time></trkpt><trkpt lat="42.04291524011275" lon="13.685217236920064"><ele>968.6666666666667</ele><time>2026-04-27T10:12:41Z</time></trkpt><trkpt lat="42.042869305541764" lon="13.685130178286363"><ele>964.0</ele><time>2026-04-27T10:12:42Z</time></trkpt><trkpt lat="42.04283737616522" lon="13.68505040370875"><ele>959.3333333333334</ele><time>2026-04-27T10:12:43Z</time></trkpt><trkpt lat="42.0427987880469" lon="13.684962762762243"><ele>954.6666666666667</ele><time>2026-04-27T10:12:44Z</time></trkpt><trkpt lat="42.04273182681022" lon="13.684856808781563"><ele>950.0</ele><time>2026-04-27T10:12:46Z</time></trkpt><trkpt lat="42.04268484208629" lon="13.68473240864824"><ele>950.0</ele><time>2026-04-27T10:12:48Z</time></trkpt><trkpt lat="42.04260643793154" lon="13.684611647763754"><ele>950.0</ele><time>2026-04-27T10:12:50Z</time></trkpt><trkpt lat="42.04254803621797" lon="13.684533279651442"><ele>950.0</ele><time>2026-04-27T10:12:51Z</time></trkpt><trkpt lat="42.04248194772421" lon="13.684451642270918"><ele>950.0</ele><time>2026-04-27T10:12:52Z</time></trkpt><trkpt lat="42.04241323089072" lon="13.684368091805966"><ele>950.0</ele><time>2026-04-27T10:12:53Z</time></trkpt><trkpt lat="42.04237063851944" lon="13.68427367592117"><ele>948.5000000000001</ele><time>2026-04-27T10:12:54Z</time></trkpt><trkpt lat="42.04232838684994" lon="13.684188652756013"><ele>947.0</ele><time>2026-04-27T10:12:55Z</time></trkpt><trkpt lat="42.04226938825159" lon="13.684124312234951"><ele>945.5</ele><time>2026-04-27T10:12:56Z</time></trkpt><trkpt lat="42.042199476336194" lon="13.684042366143977"><ele>944.0</ele><time>2026-04-27T10:12:57Z</time></trkpt><trkpt lat="42.042146791072696" lon="13.683970950533308"><ele>942.5000000000001</ele><time>2026-04-27T10:12:58Z</time></trkpt><trkpt lat="42.04210015433156" lon="13.683896158736614"><ele>941.0</ele><time>2026-04-27T10:12:59Z</time></trkpt><trkpt lat="42.042054239128234" lon="13.68382634460818"><ele>941.0000000000001</ele><time>2026-04-27T10:13:00Z</time></trkpt><trkpt lat="42.0419984846649" lon="13.683762263464121"><ele>941.0</ele><time>2026-04-27T10:13:01Z</time></trkpt><trkpt lat="42.04194466599655" lon="13.683677414444832"><ele>941.0</ele><time>2026-04-27T10:13:02Z</time></trkpt><trkpt lat="42.04189654775964" lon="13.683581539279045"><ele>941.0</ele><time>2026-04-27T10:13:03Z</time></trkpt><trkpt lat="42.04184707601995" lon="13.683493181670118"><ele>941.0000000000001</ele><time>2026-04-27T10:13:04Z</time></trkpt><trkpt lat="42.04180326567388" lon="13.683405538627404"><ele>941.0</ele><time>2026-04-27T10:13:05Z</time></trkpt><trkpt lat="42.04173835898142" lon="13.683315820472425"><ele>938.4</ele><time>2026-04-27T10:13:06Z</time></trkpt><trkpt lat="42.041673615346845" lon="13.683206772011953"><ele>935.8</ele><time>2026-04-27T10:13:07Z</time></trkpt><trkpt lat="42.041613789894015" lon="13.68310985614694"><ele>933.1999999999999</ele><time>2026-04-27T10:13:08Z</time></trkpt><trkpt lat="42.0415512557339" lon="13.683009872460309"><ele>930.5999999999999</ele><time>2026-04-27T10:13:09Z</time></trkpt><trkpt lat="42.04149094020235" lon="13.682907670876755"><ele>928.0</ele><time>2026-04-27T10:13:10Z</time></trkpt><trkpt lat="42.041444522723076" lon="13.682819466456346"><ele>923.0</ele><time>2026-04-27T10:13:11Z</time></trkpt><trkpt lat="42.04137772652397" lon="13.682702851293435"><ele>918.0</ele><time>2026-04-27T10:13:12Z</time></trkpt><trkpt lat="42.04130202937922" lon="13.682575849703243"><ele>913.0</ele><time>2026-04-27T10:13:13Z</time></trkpt><trkpt lat="42.04123859924224" lon="13.682467236917779"><ele>908.0</ele><time>2026-04-27T10:13:14Z</time></trkpt><trkpt lat="42.041187144892895" lon="13.682350171502408"><ele>903.0</ele><time>2026-04-27T10:13:15Z</time></trkpt><trkpt lat="42.04114442432478" lon="13.682231244544763"><ele>903.0</ele><time>2026-04-27T10:13:16Z</time></trkpt><trkpt lat="42.041099539697" lon="13.682134270855293"><ele>903.0</ele><time>2026-04-27T10:13:17Z</time></trkpt><trkpt lat="42.041008800977586" lon="13.682010088415383"><ele>903.0</ele><time>2026-04-27T10:13:18Z</time></trkpt><trkpt lat="42.04093305137515" lon="13.68189218645951"><ele>903.0</ele><time>2026-04-27T10:13:19Z</time></trkpt><trkpt lat="42.04085622538753" lon="13.681771325604943"><ele>903.0</ele><time>2026-04-27T10:13:20Z</time></trkpt><trkpt lat="42.04077530285673" lon="13.681665808991834"><ele>901.5</ele><time>2026-04-27T10:13:21Z</time></trkpt><trkpt lat="42.04069487494345" lon="13.681559442699463"><ele>900.0</ele><time>2026-04-27T10:13:22Z</time></trkpt><trkpt lat="42.04061648330441" lon="13.681431654510959"><ele>898.5</ele><time>2026-04-27T10:13:23Z</time></trkpt><trkpt lat="42.04051735663381" lon="13.681290555306497"><ele>897.0</ele><time>2026-04-27T10:13:24Z</time></trkpt><trkpt lat="42.04041484068768" lon="13.681166496561923"><ele>893.8</ele><time>2026-04-27T10:13:25Z</time></trkpt><trkpt lat="42.04034444267276" lon="13.681048727090054"><ele>890.6</ele><time>2026-04-27T10:13:26Z</time></trkpt><trkpt lat="42.0402726728034" lon="13.680938076797643"><ele>887.3999999999999</ele><time>2026-04-27T10:13:27Z</time></trkpt><trkpt lat="42.04020213482191" lon="13.680820717306707"><ele>884.1999999999999</ele><time>2026-04-27T10:13:28Z</time></trkpt><trkpt lat="42.04014189769105" lon="13.680696303082446"><ele>881.0</ele><time>2026-04-27T10:13:29Z</time></trkpt><trkpt lat="42.04006978185541" lon="13.680586216575886"><ele>881.0</ele><time>2026-04-27T10:13:30Z</time></trkpt><trkpt lat="42.040002916589124" lon="13.68048284998992"><ele>880.9999999999999</ele><time>2026-04-27T10:13:31Z</time></trkpt><trkpt lat="42.03996349507197" lon="13.68035755657301"><ele>880.9999999999999</ele><time>2026-04-27T10:13:32Z</time></trkpt><trkpt lat="42.03989266598525" lon="13.680238032456726"><ele>881.0</ele><time>2026-04-27T10:13:33Z</time></trkpt><trkpt lat="42.03983386646783" lon="13.680150763011284"><ele>881.0</ele><time>2026-04-27T10:13:34Z</time></trkpt><trkpt lat="42.039774924795026" lon="13.680033223677803"><ele>882.25</ele><time>2026-04-27T10:13:35Z</time></trkpt><trkpt lat="42.03970948459912" lon="13.679927474511894"><ele>883.5</ele><time>2026-04-27T10:13:36Z</time></trkpt><trkpt lat="42.03963273227911" lon="13.679778891694806"><ele>884.75</ele><time>2026-04-27T10:13:37Z</time></trkpt><trkpt lat="42.03955023598972" lon="13.679634219912497"><ele>886.0</ele><time>2026-04-27T10:13:38Z</time></trkpt><trkpt lat="42.03947893185539" lon="13.67950155300516"><ele>882.8</ele><time>2026-04-27T10:13:39Z</time></trkpt><trkpt lat="42.03941529161806" lon="13.679382577471765"><ele>879.5999999999999</ele><time>2026-04-27T10:13:40Z</time></trkpt><trkpt lat="42.03934935602861" lon="13.67926359848066"><ele>876.4</ele><time>2026-04-27T10:13:41Z</time></trkpt><trkpt lat="42.03929919685324" lon="13.679160501333271"><ele>873.2</ele><time>2026-04-27T10:13:42Z</time></trkpt><trkpt lat="42.039252917529836" lon="13.679043975010696"><ele>870.0</ele><time>2026-04-27T10:13:43Z</time></trkpt><trkpt lat="42.0391755314613" lon="13.67889535789748"><ele>870.5</ele><time>2026-04-27T10:13:44Z</time></trkpt><trkpt lat="42.0390885111258" lon="13.678757366554592"><ele>871.0</ele><time>2026-04-27T10:13:45Z</time></trkpt><trkpt lat="42.03900174035629" lon="13.678607491225282"><ele>871.5</ele><time>2026-04-27T10:13:46Z</time></trkpt><trkpt lat="42.03892232642129" lon="13.678463745239501"><ele>872.0</ele><time>2026-04-27T10:13:47Z</time></trkpt><trkpt lat="42.0388522430339" lon="13.67832415273839"><ele>872.0</ele><time>2026-04-27T10:13:48Z</time></trkpt><trkpt lat="42.038777759242" lon="13.6781945198483"><ele>872.0</ele><time>2026-04-27T10:13:49Z</time></trkpt><trkpt lat="42.0386979016171" lon="13.678048955481026"><ele>872.0</ele><time>2026-04-27T10:13:50Z</time></trkpt><trkpt lat="42.03861709630953" lon="13.677914544980116"><ele>872.0</ele><time>2026-04-27T10:13:51Z</time></trkpt><trkpt lat="42.03853127362375" lon="13.67776556043143"><ele>869.5</ele><time>2026-04-27T10:13:52Z</time></trkpt><trkpt lat="42.038447292253984" lon="13.677647919885631"><ele>867.0</ele><time>2026-04-27T10:13:53Z</time></trkpt><trkpt lat="42.03836489686009" lon="13.677532083513388"><ele>864.5</ele><time>2026-04-27T10:13:54Z</time></trkpt><trkpt lat="42.03828989396322" lon="13.67740830394033"><ele>862.0</ele><time>2026-04-27T10:13:55Z</time></trkpt><trkpt lat="42.03821791899611" lon="13.677290036688747"><ele>862.0</ele><time>2026-04-27T10:13:56Z</time></trkpt><trkpt lat="42.03812078387011" lon="13.677183000197838"><ele>862.0</ele><time>2026-04-27T10:13:57Z</time></trkpt><trkpt lat="42.03800397129192" lon="13.677071970452335"><ele>862.0</ele><time>2026-04-27T10:13:58Z</time></trkpt><trkpt lat="42.03791021771413" lon="13.676956557037178"><ele>862.0</ele><time>2026-04-27T10:13:59Z</time></trkpt><trkpt lat="42.037805895266196" lon="13.676831271069254"><ele>858.0</ele><time>2026-04-27T10:14:00Z</time></trkpt><trkpt lat="42.03770990801029" lon="13.676718470565293"><ele>854.0</ele><time>2026-04-27T10:14:01Z</time></trkpt><trkpt lat="42.03762588120127" lon="13.676597140844988"><ele>850.0</ele><time>2026-04-27T10:14:02Z</time></trkpt><trkpt lat="42.03755014745801" lon="13.676502148370844"><ele>846.0</ele><time>2026-04-27T10:14:03Z</time></trkpt><trkpt lat="42.037472787435696" lon="13.676422992196589"><ele>846.5999999999999</ele><time>2026-04-27T10:14:04Z</time></trkpt><trkpt lat="42.03739859743675" lon="13.676338626377696"><ele>847.2</ele><time>2026-04-27T10:14:05Z</time></trkpt><trkpt lat="42.037319602100396" lon="13.67621622829124"><ele>847.8</ele><time>2026-04-27T10:14:06Z</time></trkpt><trkpt lat="42.03727429548977" lon="13.676085331671963"><ele>848.4000000000001</ele><time>2026-04-27T10:14:07Z</time></trkpt><trkpt lat="42.037197495625605" lon="13.675995577823464"><ele>849.0</ele><time>2026-04-27T10:14:08Z</time></trkpt><trkpt lat="42.037088831392026" lon="13.675897564470366"><ele>846.0</ele><time>2026-04-27T10:14:09Z</time></trkpt><trkpt lat="42.03697497586273" lon="13.675778725170558"><ele>843.0</ele><time>2026-04-27T10:14:10Z</time></trkpt><trkpt lat="42.036856100275166" lon="13.675667579348191"><ele>840.0</ele><time>2026-04-27T10:14:11Z</time></trkpt><trkpt lat="42.036750829853666" lon="13.675581393944885"><ele>837.0</ele><time>2026-04-27T10:14:12Z</time></trkpt><trkpt lat="42.036651346834184" lon="13.675502396201388"><ele>837.1666666666666</ele><time>2026-04-27T10:14:13Z</time></trkpt><trkpt lat="42.036565464579176" lon="13.675434434065572"><ele>837.3333333333333</ele><time>2026-04-27T10:14:14Z</time></trkpt><trkpt lat="42.036485482701735" lon="13.675375283096153"><ele>837.5</ele><time>2026-04-27T10:14:15Z</time></trkpt><trkpt lat="42.03641020929105" lon="13.67531347720356"><ele>837.6666666666666</ele><time>2026-04-27T10:14:16Z</time></trkpt><trkpt lat="42.03633779308927" lon="13.675247321361788"><ele>837.8333333333333</ele><time>2026-04-27T10:14:17Z</time></trkpt><trkpt lat="42.03625966631118" lon="13.675224332613096"><ele>838.0</ele><time>2026-04-27T10:14:18Z</time></trkpt><trkpt lat="42.03618012667891" lon="13.675227278373411"><ele>837.9999999999999</ele><time>2026-04-27T10:14:19Z</time></trkpt><trkpt lat="42.03610287494456" lon="13.675247474747472"><ele>838.0</ele><time>2026-04-27T10:14:20Z</time></trkpt><trkpt lat="42.03602801867312" lon="13.675265082056743"><ele>838.0</ele><time>2026-04-27T10:14:21Z</time></trkpt><trkpt lat="42.0359545364116" lon="13.675247381433422"><ele>838.0</ele><time>2026-04-27T10:14:22Z</time></trkpt><trkpt lat="42.03587606173662" lon="13.675206066502348"><ele>837.9999999999999</ele><time>2026-04-27T10:14:24Z</time></trkpt><trkpt lat="42.03590120473219" lon="13.675297713464772"><ele>838.0</ele><time>2026-04-27T10:14:28.999Z</time></trkpt><trkpt lat="42.03597428178473" lon="13.67531615385368"><ele>837.9999999999999</ele><time>2026-04-27T10:14:29.999Z</time></trkpt><trkpt lat="42.03605063967962" lon="13.675327518963213"><ele>838.0</ele><time>2026-04-27T10:14:30.999Z</time></trkpt><trkpt lat="42.036118266569666" lon="13.675329132447718"><ele>838.0</ele><time>2026-04-27T10:14:31.999Z</time></trkpt><trkpt lat="42.03619425100133" lon="13.675302861394982"><ele>838.0</ele><time>2026-04-27T10:14:32.999Z</time></trkpt><trkpt lat="42.03626284773315" lon="13.675255146370668"><ele>837.9999999999999</ele><time>2026-04-27T10:14:33.999Z</time></trkpt><trkpt lat="42.03636758135843" lon="13.6752446116194"><ele>838.0</ele><time>2026-04-27T10:14:35.999Z</time></trkpt><trkpt lat="42.03642363807747" lon="13.67529578667144"><ele>838.0</ele><time>2026-04-27T10:14:36.999Z</time></trkpt><trkpt lat="42.03653079905044" lon="13.675420003259937"><ele>838.0</ele><time>2026-04-27T10:14:38.999Z</time></trkpt><trkpt lat="42.036599545387126" lon="13.675487242875548"><ele>838.0</ele><time>2026-04-27T10:14:39.999Z</time></trkpt><trkpt lat="42.03665831705268" lon="13.675536921887897"><ele>838.0</ele><time>2026-04-27T10:14:40.999Z</time></trkpt><trkpt lat="42.03672849905473" lon="13.675598843167712"><ele>838.0</ele><time>2026-04-27T10:14:41.999Z</time></trkpt><trkpt lat="42.03679894678864" lon="13.675655593796055"><ele>838.0</ele><time>2026-04-27T10:14:42.999Z</time></trkpt><trkpt lat="42.03679784920577" lon="13.675562319128048"><ele>838.0</ele><time>2026-04-27T10:14:46.999Z</time></trkpt><trkpt lat="42.03669898862784" lon="13.675465063189712"><ele>838.0</ele><time>2026-04-27T10:14:49.999Z</time></trkpt><trkpt lat="42.03664677587886" lon="13.6753906562022"><ele>838.0</ele><time>2026-04-27T10:14:50.999Z</time></trkpt><trkpt lat="42.03657958637512" lon="13.675288168570916"><ele>838.0</ele><time>2026-04-27T10:14:51.999Z</time></trkpt><trkpt lat="42.03650552049207" lon="13.675174803822381"><ele>836.2</ele><time>2026-04-27T10:14:52.999Z</time></trkpt><trkpt lat="42.0364277429362" lon="13.675042502205928"><ele>834.4</ele><time>2026-04-27T10:14:53.999Z</time></trkpt><trkpt lat="42.03634682484704" lon="13.674911567879047"><ele>832.6</ele><time>2026-04-27T10:14:54.999Z</time></trkpt><trkpt lat="42.03628219237099" lon="13.674820863737525"><ele>830.8000000000001</ele><time>2026-04-27T10:14:55.999Z</time></trkpt><trkpt lat="42.036246356103575" lon="13.674722317083146"><ele>829.0</ele><time>2026-04-27T10:14:56.999Z</time></trkpt><trkpt lat="42.03620097410633" lon="13.674585314061797"><ele>828.9999999999999</ele><time>2026-04-27T10:14:58.999Z</time></trkpt><trkpt lat="42.036182471228855" lon="13.674498689252284"><ele>829.0</ele><time>2026-04-27T10:14:59.999Z</time></trkpt><trkpt lat="42.036153329140134" lon="13.674421255259187"><ele>829.0</ele><time>2026-04-27T10:15:00.999Z</time></trkpt><trkpt lat="42.0360827260494" lon="13.674277691603391"><ele>829.0</ele><time>2026-04-27T10:15:02.999Z</time></trkpt><trkpt lat="42.036054853981796" lon="13.674178877614693"><ele>828.9999999999999</ele><time>2026-04-27T10:15:03.999Z</time></trkpt><trkpt lat="42.03601264604058" lon="13.67407123983143"><ele>829.0</ele><time>2026-04-27T10:15:04.999Z</time></trkpt><trkpt lat="42.035968538391494" lon="13.673968592462204"><ele>831.0</ele><time>2026-04-27T10:15:05.999Z</time></trkpt><trkpt lat="42.03593615586714" lon="13.673869783801031"><ele>833.0</ele><time>2026-04-27T10:15:06.999Z</time></trkpt><trkpt lat="42.03591773414263" lon="13.67372770501925"><ele>835.0</ele><time>2026-04-27T10:15:07.999Z</time></trkpt><trkpt lat="42.03590948126612" lon="13.673603144349546"><ele>837.0</ele><time>2026-04-27T10:15:08.999Z</time></trkpt><trkpt lat="42.03590551794024" lon="13.67348256013192"><ele>839.0</ele><time>2026-04-27T10:15:09.999Z</time></trkpt><trkpt lat="42.03589368275026" lon="13.673351116347007"><ele>839.4000000000001</ele><time>2026-04-27T10:15:10.999Z</time></trkpt><trkpt lat="42.03586960405531" lon="13.67325010525316"><ele>839.8</ele><time>2026-04-27T10:15:11.999Z</time></trkpt><trkpt lat="42.03585658970675" lon="13.673092703332014"><ele>840.2</ele><time>2026-04-27T10:15:13.999Z</time></trkpt><trkpt lat="42.03593277171885" lon="13.672937119771655"><ele>840.5999999999999</ele><time>2026-04-27T10:15:15.999Z</time></trkpt><trkpt lat="42.03599501573104" lon="13.672844072972921"><ele>841.0</ele><time>2026-04-27T10:15:16.999Z</time></trkpt><trkpt lat="42.03606247314835" lon="13.672743739626299"><ele>840.3333333333333</ele><time>2026-04-27T10:15:17.999Z</time></trkpt><trkpt lat="42.03610758151115" lon="13.672627930868392"><ele>839.6666666666666</ele><time>2026-04-27T10:15:18.999Z</time></trkpt><trkpt lat="42.03612243223674" lon="13.67252689334724"><ele>839.0</ele><time>2026-04-27T10:15:19.999Z</time></trkpt><trkpt lat="42.03611700258791" lon="13.672393318359974"><ele>838.3333333333333</ele><time>2026-04-27T10:15:20.999Z</time></trkpt><trkpt lat="42.03611950687265" lon="13.672289625047854"><ele>837.6666666666666</ele><time>2026-04-27T10:15:21.999Z</time></trkpt><trkpt lat="42.03615003311788" lon="13.672167447800819"><ele>837.0</ele><time>2026-04-27T10:15:22.999Z</time></trkpt><trkpt lat="42.036206530728876" lon="13.672047578544916"><ele>836.0</ele><time>2026-04-27T10:15:23.999Z</time></trkpt><trkpt lat="42.03626888714158" lon="13.671922675343687"><ele>835.0</ele><time>2026-04-27T10:15:24.999Z</time></trkpt><trkpt lat="42.0363200532131" lon="13.671778383127208"><ele>834.0</ele><time>2026-04-27T10:15:25.999Z</time></trkpt><trkpt lat="42.03637078578663" lon="13.6716319851686"><ele>833.0</ele><time>2026-04-27T10:15:26.999Z</time></trkpt><trkpt lat="42.03641770635079" lon="13.671507303304702"><ele>833.0</ele><time>2026-04-27T10:15:27.999Z</time></trkpt><trkpt lat="42.03646220233702" lon="13.671401603418314"><ele>833.0</ele><time>2026-04-27T10:15:28.999Z</time></trkpt><trkpt lat="42.036518307950516" lon="13.671308913167023"><ele>833.0</ele><time>2026-04-27T10:15:29.999Z</time></trkpt><trkpt lat="42.036558565705185" lon="13.67124067031699"><ele>833.0</ele><time>2026-04-27T10:15:30.999Z</time></trkpt><trkpt lat="42.03659718432693" lon="13.671167902338924"><ele>833.0</ele><time>2026-04-27T10:15:31.999Z</time></trkpt><trkpt lat="42.036591686037944" lon="13.671071009611248"><ele>833.0</ele><time>2026-04-27T10:15:33.999Z</time></trkpt><trkpt lat="42.03660528912631" lon="13.670987487883107"><ele>833.0</ele><time>2026-04-27T10:15:36.999Z</time></trkpt><trkpt lat="42.03662017769569" lon="13.670854660624874"><ele>833.0000000000001</ele><time>2026-04-27T10:15:38.999Z</time></trkpt><trkpt lat="42.03661144695137" lon="13.670747471346854"><ele>833.0</ele><time>2026-04-27T10:15:40.999Z</time></trkpt><trkpt lat="42.03654767030912" lon="13.67075055695298"><ele>833.0</ele><time>2026-04-27T10:15:44.999Z</time></trkpt><trkpt lat="42.036543662956035" lon="13.670852566805577"><ele>833.0</ele><time>2026-04-27T10:15:47.999Z</time></trkpt><trkpt lat="42.03657920223485" lon="13.67102306847581"><ele>833.0000000000001</ele><time>2026-04-27T10:15:49.999Z</time></trkpt><trkpt lat="42.036590370429614" lon="13.6711156119538"><ele>833.0</ele><time>2026-04-27T10:15:50.999Z</time></trkpt><trkpt lat="42.03658494469288" lon="13.67120111894024"><ele>833.0</ele><time>2026-04-27T10:15:51.999Z</time></trkpt><trkpt lat="42.03656251416537" lon="13.671293562639677"><ele>833.0</ele><time>2026-04-27T10:15:53.999Z</time></trkpt><trkpt lat="42.036460119619" lon="13.671322225564202"><ele>833.0</ele><time>2026-04-27T10:15:56.999Z</time></trkpt><trkpt lat="42.03636100364344" lon="13.671343933095496"><ele>833.0</ele><time>2026-04-27T10:15:58.999Z</time></trkpt><trkpt lat="42.03624161267822" lon="13.671334275838147"><ele>833.0</ele><time>2026-04-27T10:16:00.999Z</time></trkpt><trkpt lat="42.03618227358095" lon="13.671297499267522"><ele>833.0</ele><time>2026-04-27T10:16:01.999Z</time></trkpt><trkpt lat="42.0361028233268" lon="13.671236942159831"><ele>833.0</ele><time>2026-04-27T10:16:02.999Z</time></trkpt><trkpt lat="42.035987528992045" lon="13.671147069466317"><ele>833.0</ele><time>2026-04-27T10:16:03.999Z</time></trkpt><trkpt lat="42.03589593297306" lon="13.671063529475205"><ele>833.0</ele><time>2026-04-27T10:16:04.999Z</time></trkpt><trkpt lat="42.03580755223157" lon="13.671007501506057"><ele>833.0</ele><time>2026-04-27T10:16:05.999Z</time></trkpt><trkpt lat="42.03570721247009" lon="13.670940662652482"><ele>834.3333333333334</ele><time>2026-04-27T10:16:06.999Z</time></trkpt><trkpt lat="42.035600594452994" lon="13.670882781686677"><ele>835.6666666666667</ele><time>2026-04-27T10:16:07.999Z</time></trkpt><trkpt lat="42.035569140870884" lon="13.670791540001563"><ele>837.0</ele><time>2026-04-27T10:16:09.999Z</time></trkpt><trkpt lat="42.03556802055898" lon="13.670660883303531"><ele>838.3333333333333</ele><time>2026-04-27T10:16:12.999Z</time></trkpt><trkpt lat="42.03559231243252" lon="13.670576466528935"><ele>839.6666666666666</ele><time>2026-04-27T10:16:13.999Z</time></trkpt><trkpt lat="42.03561427336251" lon="13.670461683488472"><ele>841.0</ele><time>2026-04-27T10:16:14.999Z</time></trkpt><trkpt lat="42.03563243589668" lon="13.670327329193693"><ele>841.5</ele><time>2026-04-27T10:16:15.999Z</time></trkpt><trkpt lat="42.03564716073567" lon="13.670159022287175"><ele>842.0</ele><time>2026-04-27T10:16:16.999Z</time></trkpt><trkpt lat="42.03564496261397" lon="13.66997719075058"><ele>842.5</ele><time>2026-04-27T10:16:17.999Z</time></trkpt><trkpt lat="42.03562210121282" lon="13.66978813503414"><ele>843.0</ele><time>2026-04-27T10:16:18.999Z</time></trkpt><trkpt lat="42.03558123853101" lon="13.669596985318357"><ele>843.2</ele><time>2026-04-27T10:16:19.999Z</time></trkpt><trkpt lat="42.035555740412704" lon="13.66943548850121"><ele>843.4</ele><time>2026-04-27T10:16:20.999Z</time></trkpt><trkpt lat="42.0355622234437" lon="13.66931598012899"><ele>843.6</ele><time>2026-04-27T10:16:21.999Z</time></trkpt><trkpt lat="42.03561060342139" lon="13.66922384625198"><ele>843.8000000000001</ele><time>2026-04-27T10:16:22.999Z</time></trkpt><trkpt lat="42.03568602025053" lon="13.669147770907216"><ele>844.0</ele><time>2026-04-27T10:16:23.999Z</time></trkpt><trkpt lat="42.03578990860926" lon="13.66906358036866"><ele>843.25</ele><time>2026-04-27T10:16:24.999Z</time></trkpt><trkpt lat="42.03590698874112" lon="13.668964594870312"><ele>842.5</ele><time>2026-04-27T10:16:25.999Z</time></trkpt><trkpt lat="42.03602132557295" lon="13.668847576649997"><ele>841.75</ele><time>2026-04-27T10:16:26.999Z</time></trkpt><trkpt lat="42.03613748590115" lon="13.668741121424919"><ele>841.0</ele><time>2026-04-27T10:16:27.999Z</time></trkpt><trkpt lat="42.03625363654255" lon="13.668667822933358"><ele>841.0</ele><time>2026-04-27T10:16:28.999Z</time></trkpt><trkpt lat="42.036334648921034" lon="13.668610973228368"><ele>841.0</ele><time>2026-04-27T10:16:29.999Z</time></trkpt><trkpt lat="42.036400427712636" lon="13.668563197206991"><ele>841.0</ele><time>2026-04-27T10:16:32.999Z</time></trkpt><trkpt lat="42.036467222937745" lon="13.668531550752588"><ele>841.0</ele><time>2026-04-27T10:16:34.999Z</time></trkpt><trkpt lat="42.036601395522034" lon="13.66865445087697"><ele>841.0</ele><time>2026-04-27T10:16:35.999Z</time></trkpt><trkpt lat="42.036687114913214" lon="13.668695746094132"><ele>842.4999999999999</ele><time>2026-04-27T10:16:36.999Z</time></trkpt><trkpt lat="42.03676709942019" lon="13.668724325423673"><ele>844.0</ele><time>2026-04-27T10:16:37.999Z</time></trkpt><trkpt lat="42.0368542592073" lon="13.66875376790998"><ele>845.5</ele><time>2026-04-27T10:16:38.999Z</time></trkpt><trkpt lat="42.03693149590375" lon="13.668782324197597"><ele>847.0</ele><time>2026-04-27T10:16:39.999Z</time></trkpt><trkpt lat="42.0370210326443" lon="13.668807489872322"><ele>848.4999999999999</ele><time>2026-04-27T10:16:42Z</time></trkpt><trkpt lat="42.03710041671421" lon="13.668837088765603"><ele>850.0</ele><time>2026-04-27T10:17:25Z</time></trkpt><trkpt lat="42.037184566043024" lon="13.66887583815756"><ele>850.0</ele><time>2026-04-27T10:17:27Z</time></trkpt><trkpt lat="42.037268910424224" lon="13.66867280447627"><ele>850.0</ele><time>2026-04-27T10:17:29Z</time></trkpt><trkpt lat="42.037300168520424" lon="13.66852109626074"><ele>850.0</ele><time>2026-04-27T10:17:31Z</time></trkpt><trkpt lat="42.03731191087687" lon="13.668426568075422"><ele>850.0</ele><time>2026-04-27T10:17:32Z</time></trkpt><trkpt lat="42.03732828414511" lon="13.668324984281004"><ele>850.0</ele><time>2026-04-27T10:17:33Z</time></trkpt><trkpt lat="42.037349365638896" lon="13.668209974363474"><ele>850.2</ele><time>2026-04-27T10:17:34Z</time></trkpt><trkpt lat="42.03736976754126" lon="13.668100679269875"><ele>850.4</ele><time>2026-04-27T10:17:35Z</time></trkpt><trkpt lat="42.03739084049108" lon="13.667979072476392"><ele>850.5999999999999</ele><time>2026-04-27T10:17:36Z</time></trkpt><trkpt lat="42.037418538991695" lon="13.667848061364916"><ele>850.8</ele><time>2026-04-27T10:17:37Z</time></trkpt><trkpt lat="42.03744802672073" lon="13.667710173337282"><ele>851.0</ele><time>2026-04-27T10:17:38Z</time></trkpt><trkpt lat="42.037467218967784" lon="13.667563505608802"><ele>851.4</ele><time>2026-04-27T10:17:39Z</time></trkpt><trkpt lat="42.037478270334475" lon="13.667418929238645"><ele>851.8</ele><time>2026-04-27T10:17:40Z</time></trkpt><trkpt lat="42.03748959851708" lon="13.66729159446199"><ele>852.1999999999999</ele><time>2026-04-27T10:17:41Z</time></trkpt><trkpt lat="42.03750645617451" lon="13.667170341399341"><ele>852.5999999999999</ele><time>2026-04-27T10:17:42Z</time></trkpt><trkpt lat="42.037531619536075" lon="13.667051363672506"><ele>853.0</ele><time>2026-04-27T10:17:43Z</time></trkpt><trkpt lat="42.037571328178124" lon="13.66693509052067"><ele>852.9999999999999</ele><time>2026-04-27T10:17:44Z</time></trkpt><trkpt lat="42.03762254806866" lon="13.666828630478497"><ele>853.0</ele><time>2026-04-27T10:17:45Z</time></trkpt><trkpt lat="42.037692123968455" lon="13.666752595173167"><ele>853.0</ele><time>2026-04-27T10:17:46Z</time></trkpt><trkpt lat="42.03773521170875" lon="13.666650863298782"><ele>853.0</ele><time>2026-04-27T10:17:47Z</time></trkpt><trkpt lat="42.0377842494995" lon="13.666576323907565"><ele>852.9999999999999</ele><time>2026-04-27T10:17:48Z</time></trkpt><trkpt lat="42.03782739854408" lon="13.666482518526525"><ele>853.0</ele><time>2026-04-27T10:17:49Z</time></trkpt><trkpt lat="42.03785918323004" lon="13.666379978463299"><ele>853.0</ele><time>2026-04-27T10:17:50Z</time></trkpt><trkpt lat="42.037886366856185" lon="13.666266831876833"><ele>853.0</ele><time>2026-04-27T10:17:51Z</time></trkpt><trkpt lat="42.037925759857316" lon="13.666097087020624"><ele>853.0</ele><time>2026-04-27T10:17:52Z</time></trkpt><trkpt lat="42.037960550781904" lon="13.665930384342253"><ele>853.0</ele><time>2026-04-27T10:17:53Z</time></trkpt><trkpt lat="42.03799779179756" lon="13.665747697831067"><ele>853.0</ele><time>2026-04-27T10:17:54Z</time></trkpt><trkpt lat="42.03801584995569" lon="13.665618787567663"><ele>853.0</ele><time>2026-04-27T10:17:55Z</time></trkpt><trkpt lat="42.03803489692972" lon="13.66549524898066"><ele>853.0</ele><time>2026-04-27T10:17:57Z</time></trkpt><trkpt lat="42.03804714914284" lon="13.6656139445449"><ele>853.0</ele><time>2026-04-27T10:18:06Z</time></trkpt><trkpt lat="42.038115874991526" lon="13.665690296660706"><ele>853.0</ele><time>2026-04-27T10:18:08Z</time></trkpt><trkpt lat="42.038189239921934" lon="13.665735838022208"><ele>852.9999999999999</ele><time>2026-04-27T10:18:10Z</time></trkpt><trkpt lat="42.038267920769805" lon="13.665745817694349"><ele>853.0</ele><time>2026-04-27T10:18:14Z</time></trkpt><trkpt lat="42.03833666809948" lon="13.665735038961387"><ele>853.0</ele><time>2026-04-27T10:18:15Z</time></trkpt><trkpt lat="42.03837869728016" lon="13.665633057935406"><ele>853.0</ele><time>2026-04-27T10:18:18Z</time></trkpt><trkpt lat="42.03836792094778" lon="13.66548046449261"><ele>852.9999999999999</ele><time>2026-04-27T10:18:20Z</time></trkpt><trkpt lat="42.0383860332872" lon="13.66538095381544"><ele>853.0</ele><time>2026-04-27T10:18:21Z</time></trkpt><trkpt lat="42.03840428151437" lon="13.665288294011507"><ele>853.1666666666666</ele><time>2026-04-27T10:18:22Z</time></trkpt><trkpt lat="42.03842681626337" lon="13.665187056241166"><ele>853.3333333333333</ele><time>2026-04-27T10:18:23Z</time></trkpt><trkpt lat="42.03844203053698" lon="13.665090872199247"><ele>853.5</ele><time>2026-04-27T10:18:24Z</time></trkpt><trkpt lat="42.03845939143981" lon="13.665006351663637"><ele>853.6666666666667</ele><time>2026-04-27T10:18:25Z</time></trkpt><trkpt lat="42.03848860348853" lon="13.66484392143737"><ele>853.8333333333334</ele><time>2026-04-27T10:18:27Z</time></trkpt><trkpt lat="42.0385118616117" lon="13.66474301084265"><ele>854.0</ele><time>2026-04-27T10:18:28Z</time></trkpt><trkpt lat="42.03852806216561" lon="13.66464287545675"><ele>854.0000000000001</ele><time>2026-04-27T10:18:29Z</time></trkpt><trkpt lat="42.03855399089768" lon="13.66455037483871"><ele>854.0</ele><time>2026-04-27T10:18:30Z</time></trkpt><trkpt lat="42.03857337395439" lon="13.664450786556126"><ele>854.0</ele><time>2026-04-27T10:18:31Z</time></trkpt><trkpt lat="42.038598064745194" lon="13.664311929918263"><ele>854.0</ele><time>2026-04-27T10:18:32Z</time></trkpt><trkpt lat="42.03862272355451" lon="13.664196478120685"><ele>854.0000000000001</ele><time>2026-04-27T10:18:33Z</time></trkpt><trkpt lat="42.03864354065725" lon="13.664068661724254"><ele>854.0</ele><time>2026-04-27T10:18:34Z</time></trkpt><trkpt lat="42.03867068851703" lon="13.663942870284732"><ele>854.4000000000001</ele><time>2026-04-27T10:18:35Z</time></trkpt><trkpt lat="42.03869237420567" lon="13.663823593278174"><ele>854.8000000000001</ele><time>2026-04-27T10:18:36Z</time></trkpt><trkpt lat="42.038722392434906" lon="13.663720053337169"><ele>855.1999999999999</ele><time>2026-04-27T10:18:37Z</time></trkpt><trkpt lat="42.03874122294469" lon="13.663582317465568"><ele>855.5999999999999</ele><time>2026-04-27T10:18:38Z</time></trkpt><trkpt lat="42.03879204917484" lon="13.663480817034658"><ele>856.0</ele><time>2026-04-27T10:18:39Z</time></trkpt><trkpt lat="42.03884065967531" lon="13.663385689790243"><ele>856.1999999999999</ele><time>2026-04-27T10:18:40Z</time></trkpt><trkpt lat="42.038882449861475" lon="13.663264327653566"><ele>856.3999999999999</ele><time>2026-04-27T10:18:41Z</time></trkpt><trkpt lat="42.03893110203298" lon="13.66312749656091"><ele>856.6</ele><time>2026-04-27T10:18:42Z</time></trkpt><trkpt lat="42.03896561546724" lon="13.66297763542776"><ele>856.8</ele><time>2026-04-27T10:18:43Z</time></trkpt><trkpt lat="42.03901974493406" lon="13.662857894251342"><ele>857.0</ele><time>2026-04-27T10:18:44Z</time></trkpt><trkpt lat="42.03904749485188" lon="13.662719599224548"><ele>857.75</ele><time>2026-04-27T10:18:45Z</time></trkpt><trkpt lat="42.03905413945039" lon="13.66257134425874"><ele>858.5</ele><time>2026-04-27T10:18:46Z</time></trkpt><trkpt lat="42.039050890196" lon="13.662444224336715"><ele>859.25</ele><time>2026-04-27T10:18:47Z</time></trkpt><trkpt lat="42.039042663583864" lon="13.662316951871635"><ele>860.0</ele><time>2026-04-27T10:18:48Z</time></trkpt><trkpt lat="42.03916024618689" lon="13.662150482391384"><ele>860.25</ele><time>2026-04-27T10:18:49Z</time></trkpt><trkpt lat="42.03920362376182" lon="13.661966740504747"><ele>860.5</ele><time>2026-04-27T10:18:50Z</time></trkpt><trkpt lat="42.039252943950196" lon="13.661789854362867"><ele>860.75</ele><time>2026-04-27T10:18:51Z</time></trkpt><trkpt lat="42.03930947400945" lon="13.661647709588106"><ele>861.0</ele><time>2026-04-27T10:18:52Z</time></trkpt><trkpt lat="42.03936772742991" lon="13.661494008382956"><ele>861.4</ele><time>2026-04-27T10:18:53Z</time></trkpt><trkpt lat="42.03942064861806" lon="13.661361379030806"><ele>861.8</ele><time>2026-04-27T10:18:54Z</time></trkpt><trkpt lat="42.03946472965585" lon="13.661211266572828"><ele>862.1999999999999</ele><time>2026-04-27T10:18:55Z</time></trkpt><trkpt lat="42.03952601833939" lon="13.661076283215241"><ele>862.5999999999999</ele><time>2026-04-27T10:18:56Z</time></trkpt><trkpt lat="42.03957265470205" lon="13.66096396901119"><ele>863.0</ele><time>2026-04-27T10:18:57Z</time></trkpt><trkpt lat="42.03962729235877" lon="13.660835022453979"><ele>862.0</ele><time>2026-04-27T10:18:58Z</time></trkpt><trkpt lat="42.03967966539151" lon="13.660693929749694"><ele>861.0</ele><time>2026-04-27T10:18:59Z</time></trkpt><trkpt lat="42.03974343844518" lon="13.660570302421114"><ele>860.0</ele><time>2026-04-27T10:19:00Z</time></trkpt><trkpt lat="42.0398113564161" lon="13.660428860995406"><ele>859.0</ele><time>2026-04-27T10:19:01Z</time></trkpt><trkpt lat="42.039878294793034" lon="13.660287712152844"><ele>859.0</ele><time>2026-04-27T10:19:02Z</time></trkpt><trkpt lat="42.039931079370604" lon="13.660161990691307"><ele>859.0000000000001</ele><time>2026-04-27T10:19:03Z</time></trkpt><trkpt lat="42.03997518574202" lon="13.660016430955894"><ele>859.0000000000001</ele><time>2026-04-27T10:19:04Z</time></trkpt><trkpt lat="42.04002001942717" lon="13.659885248110141"><ele>859.0</ele><time>2026-04-27T10:19:05Z</time></trkpt><trkpt lat="42.04008166872637" lon="13.659770023361594"><ele>859.0</ele><time>2026-04-27T10:19:06Z</time></trkpt><trkpt lat="42.04017286513794" lon="13.659651250828093"><ele>858.8000000000001</ele><time>2026-04-27T10:19:07Z</time></trkpt><trkpt lat="42.04026307632327" lon="13.659534514101955"><ele>858.6000000000001</ele><time>2026-04-27T10:19:08Z</time></trkpt><trkpt lat="42.04035003026526" lon="13.659429236204558"><ele>858.4</ele><time>2026-04-27T10:19:09Z</time></trkpt><trkpt lat="42.040422467334565" lon="13.659346594307737"><ele>858.2</ele><time>2026-04-27T10:19:10Z</time></trkpt><trkpt lat="42.04052223911068" lon="13.659286338031862"><ele>858.0</ele><time>2026-04-27T10:19:11Z</time></trkpt><trkpt lat="42.04063845148241" lon="13.659207991845737"><ele>858.0</ele><time>2026-04-27T10:19:12Z</time></trkpt><trkpt lat="42.04073722254892" lon="13.659146389530832"><ele>858.0</ele><time>2026-04-27T10:19:13Z</time></trkpt><trkpt lat="42.04080011333468" lon="13.659087379531991"><ele>858.0</ele><time>2026-04-27T10:19:14Z</time></trkpt><trkpt lat="42.040887206255604" lon="13.65901207737074"><ele>858.0</ele><time>2026-04-27T10:19:16Z</time></trkpt><trkpt lat="42.04097221393102" lon="13.65888137685607"><ele>858.0</ele><time>2026-04-27T10:19:18Z</time></trkpt><trkpt lat="42.04104909686684" lon="13.658810498442616"><ele>858.5</ele><time>2026-04-27T10:19:19Z</time></trkpt><trkpt lat="42.04113758003853" lon="13.658740917488183"><ele>859.0</ele><time>2026-04-27T10:19:20Z</time></trkpt><trkpt lat="42.04124987654549" lon="13.658645432580341"><ele>859.5</ele><time>2026-04-27T10:19:21Z</time></trkpt><trkpt lat="42.04135427261008" lon="13.658549780215692"><ele>860.0</ele><time>2026-04-27T10:19:22Z</time></trkpt><trkpt lat="42.04146954399467" lon="13.65845170150032"><ele>860.0</ele><time>2026-04-27T10:19:23Z</time></trkpt><trkpt lat="42.04159584663324" lon="13.658375159700446"><ele>860.0</ele><time>2026-04-27T10:19:24Z</time></trkpt><trkpt lat="42.04172209652257" lon="13.658300873820544"><ele>860.0</ele><time>2026-04-27T10:19:25Z</time></trkpt><trkpt lat="42.04183923557319" lon="13.658209014503402"><ele>860.0</ele><time>2026-04-27T10:19:26Z</time></trkpt><trkpt lat="42.04194297415827" lon="13.658131807474266"><ele>860.25</ele><time>2026-04-27T10:19:27Z</time></trkpt><trkpt lat="42.04205340403936" lon="13.65806068088243"><ele>860.5</ele><time>2026-04-27T10:19:28Z</time></trkpt><trkpt lat="42.042150032118705" lon="13.658013971632567"><ele>860.75</ele><time>2026-04-27T10:19:29Z</time></trkpt><trkpt lat="42.04227602243057" lon="13.65797327728891"><ele>861.0</ele><time>2026-04-27T10:19:30Z</time></trkpt><trkpt lat="42.04237617800846" lon="13.65792380865067"><ele>860.6666666666666</ele><time>2026-04-27T10:19:31Z</time></trkpt><trkpt lat="42.04246625113498" lon="13.657882187748353"><ele>860.3333333333333</ele><time>2026-04-27T10:19:32Z</time></trkpt><trkpt lat="42.042545991544635" lon="13.657852381032573"><ele>860.0</ele><time>2026-04-27T10:19:33.001Z</time></trkpt><trkpt lat="42.04261224232321" lon="13.657834343432256"><ele>859.6666666666666</ele><time>2026-04-27T10:19:36.001Z</time></trkpt><trkpt lat="42.042677855101466" lon="13.657870174211508"><ele>859.3333333333333</ele><time>2026-04-27T10:19:38.001Z</time></trkpt><trkpt lat="42.042739937795616" lon="13.657888911632611"><ele>859.0</ele><time>2026-04-27T10:19:39.001Z</time></trkpt><trkpt lat="42.04282871656835" lon="13.657896124382734"><ele>859.0</ele><time>2026-04-27T10:19:40.001Z</time></trkpt><trkpt lat="42.042915870278186" lon="13.657899071548108"><ele>859.0000000000001</ele><time>2026-04-27T10:19:41.001Z</time></trkpt><trkpt lat="42.04301376737746" lon="13.657908532285497"><ele>859.0000000000001</ele><time>2026-04-27T10:19:42.001Z</time></trkpt><trkpt lat="42.04312702166236" lon="13.657909074596441"><ele>859.0</ele><time>2026-04-27T10:19:43.001Z</time></trkpt><trkpt lat="42.043244666753054" lon="13.657898075151973"><ele>859.0</ele><time>2026-04-27T10:19:44.001Z</time></trkpt><trkpt lat="42.04333067264926" lon="13.657859427166313"><ele>858.75</ele><time>2026-04-27T10:19:45.001Z</time></trkpt><trkpt lat="42.04341130419615" lon="13.657774725952235"><ele>858.5</ele><time>2026-04-27T10:19:46.001Z</time></trkpt><trkpt lat="42.04354720837854" lon="13.657692855091904"><ele>858.25</ele><time>2026-04-27T10:19:47.001Z</time></trkpt><trkpt lat="42.04369747600879" lon="13.657611927423282"><ele>858.0</ele><time>2026-04-27T10:19:48.001Z</time></trkpt><trkpt lat="42.04383974150413" lon="13.65755555318834"><ele>858.0</ele><time>2026-04-27T10:19:49.001Z</time></trkpt><trkpt lat="42.0439539346004" lon="13.657515440256967"><ele>858.0</ele><time>2026-04-27T10:19:50.001Z</time></trkpt><trkpt lat="42.044058096319" lon="13.657492987360648"><ele>858.0</ele><time>2026-04-27T10:19:51.001Z</time></trkpt><trkpt lat="42.04414894062063" lon="13.657494657095128"><ele>858.0</ele><time>2026-04-27T10:19:52.001Z</time></trkpt><trkpt lat="42.044230929873436" lon="13.657532071626992"><ele>858.0</ele><time>2026-04-27T10:19:53.001Z</time></trkpt><trkpt lat="42.0443305971948" lon="13.657542599906424"><ele>858.75</ele><time>2026-04-27T10:19:54.001Z</time></trkpt><trkpt lat="42.04445996143043" lon="13.657522373526493"><ele>859.5</ele><time>2026-04-27T10:19:55.001Z</time></trkpt><trkpt lat="42.04458966770508" lon="13.657453722405617"><ele>860.25</ele><time>2026-04-27T10:19:56.001Z</time></trkpt><trkpt lat="42.04470840241155" lon="13.657393492875839"><ele>861.0</ele><time>2026-04-27T10:19:57.001Z</time></trkpt><trkpt lat="42.044816236144634" lon="13.657332712039382"><ele>861.0</ele><time>2026-04-27T10:19:58.001Z</time></trkpt><trkpt lat="42.04490830825172" lon="13.657300480119414"><ele>860.9999999999999</ele><time>2026-04-27T10:19:59.001Z</time></trkpt><trkpt lat="42.0450263442072" lon="13.657284212552153"><ele>860.9999999999999</ele><time>2026-04-27T10:20:00.001Z</time></trkpt><trkpt lat="42.04512611117372" lon="13.657263915649906"><ele>861.0</ele><time>2026-04-27T10:20:01.001Z</time></trkpt><trkpt lat="42.045233740633144" lon="13.65724037160597"><ele>861.0</ele><time>2026-04-27T10:20:02.001Z</time></trkpt><trkpt lat="42.04534330541372" lon="13.657229394247333"><ele>861.5</ele><time>2026-04-27T10:20:03.001Z</time></trkpt><trkpt lat="42.04546712559809" lon="13.65721037856317"><ele>862.0</ele><time>2026-04-27T10:20:04.001Z</time></trkpt><trkpt lat="42.045597165398895" lon="13.657161412581093"><ele>862.5</ele><time>2026-04-27T10:20:05.001Z</time></trkpt><trkpt lat="42.045745027662925" lon="13.657089135356918"><ele>863.0</ele><time>2026-04-27T10:20:06.001Z</time></trkpt><trkpt lat="42.045873664232985" lon="13.657009843620122"><ele>861.75</ele><time>2026-04-27T10:20:07.001Z</time></trkpt><trkpt lat="42.0459959918395" lon="13.656949713069979"><ele>860.5</ele><time>2026-04-27T10:20:08.001Z</time></trkpt><trkpt lat="42.0460948566728" lon="13.656859800928668"><ele>859.25</ele><time>2026-04-27T10:20:09.001Z</time></trkpt><trkpt lat="42.04618066879008" lon="13.656765766691853"><ele>858.0</ele><time>2026-04-27T10:20:10.001Z</time></trkpt><trkpt lat="42.04627027725939" lon="13.656690448665904"><ele>858.0</ele><time>2026-04-27T10:20:11.001Z</time></trkpt><trkpt lat="42.04638629753004" lon="13.656620946015275"><ele>858.0</ele><time>2026-04-27T10:20:12.001Z</time></trkpt><trkpt lat="42.04650264553725" lon="13.656531723846992"><ele>858.0</ele><time>2026-04-27T10:20:13.001Z</time></trkpt><trkpt lat="42.04660994457197" lon="13.656418198583586"><ele>858.0</ele><time>2026-04-27T10:20:14.001Z</time></trkpt><trkpt lat="42.04672015017602" lon="13.656306715879504"><ele>857.75</ele><time>2026-04-27T10:20:15.001Z</time></trkpt><trkpt lat="42.046836048756944" lon="13.656222984156326"><ele>857.5</ele><time>2026-04-27T10:20:16.001Z</time></trkpt><trkpt lat="42.04696739788089" lon="13.656147248792317"><ele>857.25</ele><time>2026-04-27T10:20:17.001Z</time></trkpt><trkpt lat="42.04711016992102" lon="13.656072573436209"><ele>857.0</ele><time>2026-04-27T10:20:18.001Z</time></trkpt><trkpt lat="42.047248701462586" lon="13.655992499291994"><ele>857.0</ele><time>2026-04-27T10:20:19.001Z</time></trkpt><trkpt lat="42.04736269024752" lon="13.655873940776164"><ele>857.0</ele><time>2026-04-27T10:20:20.001Z</time></trkpt><trkpt lat="42.04747770320195" lon="13.65575404754255"><ele>857.0</ele><time>2026-04-27T10:20:21.001Z</time></trkpt><trkpt lat="42.047577458211535" lon="13.65564975210586"><ele>857.0</ele><time>2026-04-27T10:20:22.001Z</time></trkpt><trkpt lat="42.04766464323354" lon="13.655566351906385"><ele>857.0</ele><time>2026-04-27T10:20:23.001Z</time></trkpt><trkpt lat="42.047763812787394" lon="13.655486100884916"><ele>857.0</ele><time>2026-04-27T10:20:24.001Z</time></trkpt><trkpt lat="42.04783628875889" lon="13.655376929972137"><ele>857.0</ele><time>2026-04-27T10:20:25.001Z</time></trkpt><trkpt lat="42.04793465921765" lon="13.655212769982523"><ele>857.0</ele><time>2026-04-27T10:20:26.001Z</time></trkpt><trkpt lat="42.04803524062076" lon="13.655064991092903"><ele>857.0</ele><time>2026-04-27T10:20:27.001Z</time></trkpt><trkpt lat="42.04814998572069" lon="13.65490790066939"><ele>857.0</ele><time>2026-04-27T10:20:28.001Z</time></trkpt><trkpt lat="42.04824317191848" lon="13.65478217812676"><ele>857.0</ele><time>2026-04-27T10:20:29.001Z</time></trkpt><trkpt lat="42.04832686951497" lon="13.654652716969197"><ele>857.0</ele><time>2026-04-27T10:20:30.001Z</time></trkpt><trkpt lat="42.04839447452964" lon="13.654528949816735"><ele>857.5</ele><time>2026-04-27T10:20:31.001Z</time></trkpt><trkpt lat="42.04847614428913" lon="13.654393658666475"><ele>858.0</ele><time>2026-04-27T10:20:32.001Z</time></trkpt><trkpt lat="42.04855012328487" lon="13.654276907574411"><ele>858.5</ele><time>2026-04-27T10:20:33.001Z</time></trkpt><trkpt lat="42.0486467784097" lon="13.654191111041001"><ele>859.0</ele><time>2026-04-27T10:20:34.001Z</time></trkpt><trkpt lat="42.04877077122862" lon="13.654086245476641"><ele>859.0</ele><time>2026-04-27T10:20:35.001Z</time></trkpt><trkpt lat="42.0488571389282" lon="13.653963872661457"><ele>859.0</ele><time>2026-04-27T10:20:36.001Z</time></trkpt><trkpt lat="42.04895516078116" lon="13.653825290046159"><ele>859.0</ele><time>2026-04-27T10:20:37.001Z</time></trkpt><trkpt lat="42.049066590625884" lon="13.653722597986874"><ele>859.0</ele><time>2026-04-27T10:20:38.001Z</time></trkpt><trkpt lat="42.04919092968606" lon="13.653629583677226"><ele>858.5</ele><time>2026-04-27T10:20:39.001Z</time></trkpt><trkpt lat="42.04929391526693" lon="13.653513017088727"><ele>858.0</ele><time>2026-04-27T10:20:40.001Z</time></trkpt><trkpt lat="42.04937884581955" lon="13.653374643924563"><ele>857.5</ele><time>2026-04-27T10:20:41.001Z</time></trkpt><trkpt lat="42.0494650130069" lon="13.653220698287797"><ele>857.0</ele><time>2026-04-27T10:20:42.001Z</time></trkpt><trkpt lat="42.04955622707831" lon="13.653101238694603"><ele>857.0</ele><time>2026-04-27T10:20:43.001Z</time></trkpt><trkpt lat="42.04965194847503" lon="13.653017148245619"><ele>857.0</ele><time>2026-04-27T10:20:44.001Z</time></trkpt><trkpt lat="42.04969845242199" lon="13.652917446355552"><ele>857.0</ele><time>2026-04-27T10:20:45.001Z</time></trkpt><trkpt lat="42.04972003955749" lon="13.652808686980721"><ele>857.0</ele><time>2026-04-27T10:20:46.001Z</time></trkpt><trkpt lat="42.04976313849827" lon="13.652671235207048"><ele>857.0</ele><time>2026-04-27T10:20:47.001Z</time></trkpt><trkpt lat="42.04981351248954" lon="13.652576533771077"><ele>857.2</ele><time>2026-04-27T10:20:48.001Z</time></trkpt><trkpt lat="42.04987321961476" lon="13.652476768479751"><ele>857.4000000000001</ele><time>2026-04-27T10:20:49.001Z</time></trkpt><trkpt lat="42.04995112378401" lon="13.652353657691016"><ele>857.5999999999999</ele><time>2026-04-27T10:20:50.001Z</time></trkpt><trkpt lat="42.05003667428128" lon="13.652242523708674"><ele>857.8</ele><time>2026-04-27T10:20:51.001Z</time></trkpt><trkpt lat="42.05012640352256" lon="13.652146800878496"><ele>858.0</ele><time>2026-04-27T10:20:52.001Z</time></trkpt><trkpt lat="42.050220079541056" lon="13.652055611948667"><ele>858.0</ele><time>2026-04-27T10:20:53.001Z</time></trkpt><trkpt lat="42.05030254630398" lon="13.651994775550982"><ele>858.0</ele><time>2026-04-27T10:20:54.001Z</time></trkpt><trkpt lat="42.05039473818078" lon="13.651929099439759"><ele>858.0</ele><time>2026-04-27T10:20:55.001Z</time></trkpt><trkpt lat="42.05047058249735" lon="13.651873834039328"><ele>858.0</ele><time>2026-04-27T10:20:56.001Z</time></trkpt><trkpt lat="42.05056324412603" lon="13.651828526141072"><ele>858.0</ele><time>2026-04-27T10:20:57.001Z</time></trkpt><trkpt lat="42.05067537114301" lon="13.65177425054877"><ele>857.4</ele><time>2026-04-27T10:20:58.001Z</time></trkpt><trkpt lat="42.0507714578625" lon="13.651700435257945"><ele>856.8</ele><time>2026-04-27T10:20:59.001Z</time></trkpt><trkpt lat="42.050851141643555" lon="13.651619285627408"><ele>856.2</ele><time>2026-04-27T10:21:00.001Z</time></trkpt><trkpt lat="42.05089027966318" lon="13.651528780723531"><ele>855.6</ele><time>2026-04-27T10:21:01.001Z</time></trkpt><trkpt lat="42.05091521125488" lon="13.65143218886932"><ele>855.0</ele><time>2026-04-27T10:21:02.001Z</time></trkpt><trkpt lat="42.05094301979253" lon="13.651307771260635"><ele>855.75</ele><time>2026-04-27T10:21:03.001Z</time></trkpt><trkpt lat="42.05096947638991" lon="13.651144642142716"><ele>856.5</ele><time>2026-04-27T10:21:04.001Z</time></trkpt><trkpt lat="42.050968455797396" lon="13.651005332976869"><ele>857.25</ele><time>2026-04-27T10:21:05.001Z</time></trkpt><trkpt lat="42.0509444495338" lon="13.650853954779155"><ele>858.0</ele><time>2026-04-27T10:21:06.001Z</time></trkpt><trkpt lat="42.05089652244752" lon="13.65070161441071"><ele>858.0</ele><time>2026-04-27T10:21:07.001Z</time></trkpt><trkpt lat="42.050845817670094" lon="13.650544711498368"><ele>858.0</ele><time>2026-04-27T10:21:08.001Z</time></trkpt><trkpt lat="42.05082470809069" lon="13.65042864336411"><ele>858.0</ele><time>2026-04-27T10:21:09.001Z</time></trkpt><trkpt lat="42.050843381546976" lon="13.65034352076036"><ele>858.0</ele><time>2026-04-27T10:21:10.001Z</time></trkpt><trkpt lat="42.05088491441503" lon="13.65025747533278"><ele>858.0</ele><time>2026-04-27T10:21:11.001Z</time></trkpt><trkpt lat="42.050954882933375" lon="13.650166415026984"><ele>856.75</ele><time>2026-04-27T10:21:12.001Z</time></trkpt><trkpt lat="42.051033086107154" lon="13.65006479518704"><ele>855.5</ele><time>2026-04-27T10:21:13.001Z</time></trkpt><trkpt lat="42.05112298817253" lon="13.649928954030198"><ele>854.25</ele><time>2026-04-27T10:21:14.001Z</time></trkpt><trkpt lat="42.05122232541716" lon="13.649770181568698"><ele>853.0</ele><time>2026-04-27T10:21:15.001Z</time></trkpt><trkpt lat="42.05132606093552" lon="13.64962460739361"><ele>853.0</ele><time>2026-04-27T10:21:16.001Z</time></trkpt><trkpt lat="42.05141698979848" lon="13.649486884244935"><ele>853.0</ele><time>2026-04-27T10:21:17.001Z</time></trkpt><trkpt lat="42.051498079293445" lon="13.649341408677166"><ele>853.0</ele><time>2026-04-27T10:21:18.001Z</time></trkpt><trkpt lat="42.05157251981419" lon="13.64916174027975"><ele>853.0</ele><time>2026-04-27T10:21:19.001Z</time></trkpt><trkpt lat="42.05162711656794" lon="13.648968623116804"><ele>852.75</ele><time>2026-04-27T10:21:20.001Z</time></trkpt><trkpt lat="42.051677763401415" lon="13.648802872925062"><ele>852.5</ele><time>2026-04-27T10:21:21.001Z</time></trkpt><trkpt lat="42.051741428538854" lon="13.648646905195037"><ele>852.25</ele><time>2026-04-27T10:21:22.001Z</time></trkpt><trkpt lat="42.051833147741185" lon="13.648516441223379"><ele>852.0</ele><time>2026-04-27T10:21:23.001Z</time></trkpt><trkpt lat="42.05195458631681" lon="13.648379741429624"><ele>852.0</ele><time>2026-04-27T10:21:24.001Z</time></trkpt><trkpt lat="42.05208669973466" lon="13.648222977854353"><ele>852.0</ele><time>2026-04-27T10:21:25.001Z</time></trkpt><trkpt lat="42.05222432767203" lon="13.648063867342849"><ele>852.0</ele><time>2026-04-27T10:21:26.001Z</time></trkpt><trkpt lat="42.05234187559674" lon="13.647921275844373"><ele>852.3333333333333</ele><time>2026-04-27T10:21:27.001Z</time></trkpt><trkpt lat="42.05247874780861" lon="13.647767928771298"><ele>852.6666666666666</ele><time>2026-04-27T10:21:28.001Z</time></trkpt><trkpt lat="42.05259876479656" lon="13.647627672523427"><ele>853.0</ele><time>2026-04-27T10:21:29.001Z</time></trkpt><trkpt lat="42.05271243315792" lon="13.647486347156285"><ele>853.0</ele><time>2026-04-27T10:21:30.001Z</time></trkpt><trkpt lat="42.052821134787706" lon="13.647343476787311"><ele>853.0</ele><time>2026-04-27T10:21:31.001Z</time></trkpt><trkpt lat="42.05294366654544" lon="13.647194539851842"><ele>853.0</ele><time>2026-04-27T10:21:32.001Z</time></trkpt><trkpt lat="42.05306719007852" lon="13.647068173207963"><ele>852.6666666666666</ele><time>2026-04-27T10:21:33.001Z</time></trkpt><trkpt lat="42.05320656049692" lon="13.646957265123858"><ele>852.3333333333333</ele><time>2026-04-27T10:21:34.001Z</time></trkpt><trkpt lat="42.05334102602124" lon="13.646823918297123"><ele>852.0</ele><time>2026-04-27T10:21:35.001Z</time></trkpt><trkpt lat="42.05347749168121" lon="13.646683811263939"><ele>853.0</ele><time>2026-04-27T10:21:36.001Z</time></trkpt><trkpt lat="42.05361831966271" lon="13.646533110275989"><ele>854.0</ele><time>2026-04-27T10:21:37.001Z</time></trkpt><trkpt lat="42.05376445374682" lon="13.646370082598454"><ele>855.0</ele><time>2026-04-27T10:21:38.001Z</time></trkpt><trkpt lat="42.05389686208262" lon="13.646207735725206"><ele>854.3333333333333</ele><time>2026-04-27T10:21:39.001Z</time></trkpt><trkpt lat="42.0540230067991" lon="13.646059540611311"><ele>853.6666666666666</ele><time>2026-04-27T10:21:40.001Z</time></trkpt><trkpt lat="42.05414391042696" lon="13.645916322530296"><ele>853.0</ele><time>2026-04-27T10:21:41.001Z</time></trkpt><trkpt lat="42.05427059892331" lon="13.64577846046263"><ele>853.0</ele><time>2026-04-27T10:21:42.001Z</time></trkpt><trkpt lat="42.054405577351666" lon="13.645629305421814"><ele>853.0</ele><time>2026-04-27T10:21:43.001Z</time></trkpt><trkpt lat="42.05454504876256" lon="13.645487790600415"><ele>853.0</ele><time>2026-04-27T10:21:44.001Z</time></trkpt><trkpt lat="42.05464489393631" lon="13.645361134121504"><ele>852.0</ele><time>2026-04-27T10:21:45.001Z</time></trkpt><trkpt lat="42.05473259560273" lon="13.645222124565004"><ele>851.0</ele><time>2026-04-27T10:21:46.001Z</time></trkpt><trkpt lat="42.054818121842096" lon="13.645071629503832"><ele>850.0</ele><time>2026-04-27T10:21:47.001Z</time></trkpt><trkpt lat="42.05488665071353" lon="13.644937918073271"><ele>849.0</ele><time>2026-04-27T10:21:48.001Z</time></trkpt><trkpt lat="42.054943536087976" lon="13.644778375489771"><ele>849.5</ele><time>2026-04-27T10:21:49.001Z</time></trkpt><trkpt lat="42.05498327317656" lon="13.64461418814066"><ele>850.0</ele><time>2026-04-27T10:21:50.001Z</time></trkpt><trkpt lat="42.05501514283269" lon="13.644415685830266"><ele>850.5</ele><time>2026-04-27T10:21:51.001Z</time></trkpt><trkpt lat="42.05503528692755" lon="13.644248871475394"><ele>851.0</ele><time>2026-04-27T10:21:52.001Z</time></trkpt><trkpt lat="42.0550717410457" lon="13.644109490624546"><ele>851.0</ele><time>2026-04-27T10:21:53.001Z</time></trkpt><trkpt lat="42.055128995480096" lon="13.643987793886739"><ele>851.0</ele><time>2026-04-27T10:21:54.001Z</time></trkpt><trkpt lat="42.055189616101025" lon="13.643842807142034"><ele>851.0</ele><time>2026-04-27T10:21:55.001Z</time></trkpt><trkpt lat="42.05523323690779" lon="13.643665068464507"><ele>851.0</ele><time>2026-04-27T10:21:56.001Z</time></trkpt><trkpt lat="42.05526848742623" lon="13.643463854105656"><ele>851.0</ele><time>2026-04-27T10:21:57.001Z</time></trkpt><trkpt lat="42.055300715972315" lon="13.643250639573518"><ele>851.0</ele><time>2026-04-27T10:21:58.001Z</time></trkpt><trkpt lat="42.055337165072146" lon="13.643051434849589"><ele>851.0</ele><time>2026-04-27T10:21:59.001Z</time></trkpt><trkpt lat="42.05536792715214" lon="13.642876601194631"><ele>851.0</ele><time>2026-04-27T10:22:00.001Z</time></trkpt><trkpt lat="42.05542236714721" lon="13.64272932298818"><ele>851.0</ele><time>2026-04-27T10:22:01.001Z</time></trkpt><trkpt lat="42.05548397535506" lon="13.64256808672581"><ele>851.0</ele><time>2026-04-27T10:22:02.001Z</time></trkpt><trkpt lat="42.0555440663089" lon="13.6424174515199"><ele>851.0</ele><time>2026-04-27T10:22:03.001Z</time></trkpt><trkpt lat="42.055611120765285" lon="13.642312163035658"><ele>851.0</ele><time>2026-04-27T10:22:04.001Z</time></trkpt><trkpt lat="42.05569003916092" lon="13.642244030122939"><ele>852.5</ele><time>2026-04-27T10:22:05.001Z</time></trkpt><trkpt lat="42.05580039038655" lon="13.642171388373463"><ele>854.0</ele><time>2026-04-27T10:22:06.001Z</time></trkpt><trkpt lat="42.05591928159753" lon="13.642122655621785"><ele>855.5</ele><time>2026-04-27T10:22:07.001Z</time></trkpt><trkpt lat="42.05607209910535" lon="13.642080234792624"><ele>857.0</ele><time>2026-04-27T10:22:08.001Z</time></trkpt><trkpt lat="42.0562331806602" lon="13.642023189483247"><ele>855.6666666666667</ele><time>2026-04-27T10:22:09.001Z</time></trkpt><trkpt lat="42.05637792898922" lon="13.641936208740963"><ele>854.3333333333333</ele><time>2026-04-27T10:22:10.001Z</time></trkpt><trkpt lat="42.056529850962775" lon="13.641864763164406"><ele>853.0</ele><time>2026-04-27T10:22:11.001Z</time></trkpt><trkpt lat="42.05668868513927" lon="13.641819805181052"><ele>853.0</ele><time>2026-04-27T10:22:12.001Z</time></trkpt><trkpt lat="42.056844487601026" lon="13.641760810768186"><ele>853.0</ele><time>2026-04-27T10:22:13.001Z</time></trkpt><trkpt lat="42.05697321832623" lon="13.64172234289332"><ele>853.0</ele><time>2026-04-27T10:22:14.001Z</time></trkpt><trkpt lat="42.057080185565546" lon="13.641711401838112"><ele>853.0</ele><time>2026-04-27T10:22:15.001Z</time></trkpt><trkpt lat="42.05720428407647" lon="13.64172815208422"><ele>853.0</ele><time>2026-04-27T10:22:16.001Z</time></trkpt><trkpt lat="42.057327826963935" lon="13.641768691894265"><ele>853.0</ele><time>2026-04-27T10:22:17.001Z</time></trkpt><trkpt lat="42.05746137369333" lon="13.64178797267521"><ele>853.0</ele><time>2026-04-27T10:22:18.001Z</time></trkpt><trkpt lat="42.05760083565907" lon="13.64176770553264"><ele>853.0</ele><time>2026-04-27T10:22:19.001Z</time></trkpt><trkpt lat="42.05771842942675" lon="13.641736113045923"><ele>853.5</ele><time>2026-04-27T10:22:20.001Z</time></trkpt><trkpt lat="42.05783391979901" lon="13.641679456158958"><ele>854.0</ele><time>2026-04-27T10:22:21.001Z</time></trkpt><trkpt lat="42.05797104876695" lon="13.641593973972824"><ele>854.5</ele><time>2026-04-27T10:22:22.001Z</time></trkpt><trkpt lat="42.05812634378137" lon="13.641497541099765"><ele>855.0</ele><time>2026-04-27T10:22:23.001Z</time></trkpt><trkpt lat="42.05828908396087" lon="13.641418132030898"><ele>855.6666666666667</ele><time>2026-04-27T10:22:24.001Z</time></trkpt><trkpt lat="42.05845708563272" lon="13.641350707864747"><ele>856.3333333333334</ele><time>2026-04-27T10:22:25.001Z</time></trkpt><trkpt lat="42.05861784499488" lon="13.641297641776408"><ele>857.0</ele><time>2026-04-27T10:22:26.001Z</time></trkpt><trkpt lat="42.05875911524005" lon="13.641238441758631"><ele>857.0</ele><time>2026-04-27T10:22:27.001Z</time></trkpt><trkpt lat="42.05888916782532" lon="13.641183717595439"><ele>857.0</ele><time>2026-04-27T10:22:28.001Z</time></trkpt><trkpt lat="42.05904939357556" lon="13.641168037873012"><ele>857.0</ele><time>2026-04-27T10:22:29.001Z</time></trkpt><trkpt lat="42.05922460766495" lon="13.641166640558453"><ele>857.6666666666667</ele><time>2026-04-27T10:22:30.001Z</time></trkpt><trkpt lat="42.05941636986407" lon="13.641158604003095"><ele>858.3333333333333</ele><time>2026-04-27T10:22:31.001Z</time></trkpt><trkpt lat="42.05959205741102" lon="13.641139415784217"><ele>859.0</ele><time>2026-04-27T10:22:32.001Z</time></trkpt><trkpt lat="42.05977227325841" lon="13.641135024481622"><ele>859.0</ele><time>2026-04-27T10:22:33.001Z</time></trkpt><trkpt lat="42.059935475310326" lon="13.641144813765619"><ele>859.0</ele><time>2026-04-27T10:22:34.001Z</time></trkpt><trkpt lat="42.06011275792924" lon="13.641161267234601"><ele>859.0</ele><time>2026-04-27T10:22:35.001Z</time></trkpt><trkpt lat="42.06028972508488" lon="13.641190722954127"><ele>859.3333333333333</ele><time>2026-04-27T10:22:36.001Z</time></trkpt><trkpt lat="42.0604575936519" lon="13.641218693036198"><ele>859.6666666666667</ele><time>2026-04-27T10:22:37.001Z</time></trkpt><trkpt lat="42.060629003141244" lon="13.641220654327872"><ele>860.0</ele><time>2026-04-27T10:22:38.001Z</time></trkpt><trkpt lat="42.06080571846536" lon="13.641199144665846"><ele>860.0</ele><time>2026-04-27T10:22:39.001Z</time></trkpt><trkpt lat="42.06099240784738" lon="13.641165142096355"><ele>860.0</ele><time>2026-04-27T10:22:40.001Z</time></trkpt><trkpt lat="42.06116697246372" lon="13.641130268878307"><ele>860.0</ele><time>2026-04-27T10:22:41.001Z</time></trkpt><trkpt lat="42.06132824748469" lon="13.641071423673383"><ele>860.0</ele><time>2026-04-27T10:22:42.001Z</time></trkpt><trkpt lat="42.06148508985483" lon="13.641013564846274"><ele>860.0</ele><time>2026-04-27T10:22:43.001Z</time></trkpt><trkpt lat="42.06164336500862" lon="13.640948803867957"><ele>860.0</ele><time>2026-04-27T10:22:44.001Z</time></trkpt><trkpt lat="42.06177319682411" lon="13.640865465115255"><ele>862.3333333333334</ele><time>2026-04-27T10:22:45.001Z</time></trkpt><trkpt lat="42.06192511975589" lon="13.640758111812985"><ele>864.6666666666667</ele><time>2026-04-27T10:22:46.001Z</time></trkpt><trkpt lat="42.06205239780214" lon="13.640620513335197"><ele>867.0</ele><time>2026-04-27T10:22:47.001Z</time></trkpt><trkpt lat="42.06219390499956" lon="13.640463904438244"><ele>867.0</ele><time>2026-04-27T10:22:48.001Z</time></trkpt><trkpt lat="42.06232205621227" lon="13.640323900727644"><ele>867.0</ele><time>2026-04-27T10:22:49.001Z</time></trkpt><trkpt lat="42.062422899175026" lon="13.64019019550893"><ele>867.0</ele><time>2026-04-27T10:22:50.001Z</time></trkpt><trkpt lat="42.06253701522411" lon="13.640043068992224"><ele>867.0</ele><time>2026-04-27T10:22:51.001Z</time></trkpt><trkpt lat="42.06263963848698" lon="13.639917898832257"><ele>867.0</ele><time>2026-04-27T10:22:52.001Z</time></trkpt><trkpt lat="42.06277482260401" lon="13.6397944840973"><ele>867.0</ele><time>2026-04-27T10:22:53.001Z</time></trkpt><trkpt lat="42.06292672823842" lon="13.639687955063312"><ele>867.0</ele><time>2026-04-27T10:22:54.001Z</time></trkpt><trkpt lat="42.06306756615016" lon="13.639604255692486"><ele>867.0</ele><time>2026-04-27T10:22:55Z</time></trkpt><trkpt lat="42.06324189136721" lon="13.639493197841716"><ele>867.0</ele><time>2026-04-27T10:22:56Z</time></trkpt><trkpt lat="42.06337846598454" lon="13.639378026759609"><ele>866.3333333333333</ele><time>2026-04-27T10:22:57Z</time></trkpt><trkpt lat="42.063523666373484" lon="13.639268925231475"><ele>865.6666666666666</ele><time>2026-04-27T10:22:58Z</time></trkpt><trkpt lat="42.063640880558694" lon="13.639170047442507"><ele>865.0</ele><time>2026-04-27T10:22:59Z</time></trkpt><trkpt lat="42.063771702322946" lon="13.639061504429352"><ele>865.0</ele><time>2026-04-27T10:23:00Z</time></trkpt><trkpt lat="42.06389478181778" lon="13.638935826493801"><ele>865.0</ele><time>2026-04-27T10:23:01Z</time></trkpt><trkpt lat="42.06401430947943" lon="13.638800479855927"><ele>865.0</ele><time>2026-04-27T10:23:02Z</time></trkpt><trkpt lat="42.06417236550172" lon="13.638666741372196"><ele>864.6666666666666</ele><time>2026-04-27T10:23:03Z</time></trkpt><trkpt lat="42.06429505861357" lon="13.638554568216362"><ele>864.3333333333333</ele><time>2026-04-27T10:23:04Z</time></trkpt><trkpt lat="42.064419848353836" lon="13.638433792832528"><ele>864.0</ele><time>2026-04-27T10:23:05Z</time></trkpt><trkpt lat="42.06455025567596" lon="13.63830907627469"><ele>864.0</ele><time>2026-04-27T10:23:06Z</time></trkpt><trkpt lat="42.064689205686506" lon="13.63817924926821"><ele>864.0</ele><time>2026-04-27T10:23:07Z</time></trkpt><trkpt lat="42.064828748777146" lon="13.638030534909818"><ele>864.0</ele><time>2026-04-27T10:23:08Z</time></trkpt><trkpt lat="42.064954593638895" lon="13.637888833720949"><ele>864.3333333333333</ele><time>2026-04-27T10:23:09Z</time></trkpt><trkpt lat="42.06508510583751" lon="13.637736342316956"><ele>864.6666666666666</ele><time>2026-04-27T10:23:10Z</time></trkpt><trkpt lat="42.06518979795274" lon="13.637611079611252"><ele>865.0</ele><time>2026-04-27T10:23:11Z</time></trkpt><trkpt lat="42.06530998670987" lon="13.637466139879118"><ele>865.0</ele><time>2026-04-27T10:23:12Z</time></trkpt><trkpt lat="42.065430902808785" lon="13.637322202611418"><ele>865.0</ele><time>2026-04-27T10:23:13Z</time></trkpt><trkpt lat="42.06552751468155" lon="13.637214320904159"><ele>865.0</ele><time>2026-04-27T10:23:14Z</time></trkpt><trkpt lat="42.065662153285324" lon="13.637108720070854"><ele>865.0</ele><time>2026-04-27T10:23:15Z</time></trkpt><trkpt lat="42.06579974143274" lon="13.637007573972937"><ele>865.3333333333333</ele><time>2026-04-27T10:23:16Z</time></trkpt><trkpt lat="42.0659541134675" lon="13.6368977733792"><ele>865.6666666666667</ele><time>2026-04-27T10:23:17Z</time></trkpt><trkpt lat="42.066120325389626" lon="13.636783165964422"><ele>866.0</ele><time>2026-04-27T10:23:18Z</time></trkpt><trkpt lat="42.066269181041214" lon="13.636661815026153"><ele>866.0</ele><time>2026-04-27T10:23:19Z</time></trkpt><trkpt lat="42.06642581024157" lon="13.636535257611813"><ele>866.0</ele><time>2026-04-27T10:23:20Z</time></trkpt><trkpt lat="42.06658524475531" lon="13.636403961797773"><ele>866.0</ele><time>2026-04-27T10:23:21Z</time></trkpt><trkpt lat="42.066725819028484" lon="13.636286176799251"><ele>867.25</ele><time>2026-04-27T10:23:22Z</time></trkpt><trkpt lat="42.066855244838976" lon="13.636178423968856"><ele>868.5</ele><time>2026-04-27T10:23:23Z</time></trkpt><trkpt lat="42.06695988016082" lon="13.636086926032156"><ele>869.75</ele><time>2026-04-27T10:23:24Z</time></trkpt><trkpt lat="42.067057440420626" lon="13.63599777707883"><ele>871.0</ele><time>2026-04-27T10:23:25Z</time></trkpt><trkpt lat="42.06714540387472" lon="13.635915925783282"><ele>871.0</ele><time>2026-04-27T10:23:26Z</time></trkpt><trkpt lat="42.067236924216196" lon="13.635850995628886"><ele>870.9999999999999</ele><time>2026-04-27T10:23:27Z</time></trkpt><trkpt lat="42.06733322786625" lon="13.635824512528615"><ele>870.9999999999999</ele><time>2026-04-27T10:23:28Z</time></trkpt><trkpt lat="42.067435524501846" lon="13.635823885667241"><ele>871.0</ele><time>2026-04-27T10:23:29Z</time></trkpt><trkpt lat="42.06752694162578" lon="13.635801196514945"><ele>871.0</ele><time>2026-04-27T10:23:30Z</time></trkpt><trkpt lat="42.06764783393355" lon="13.635706375815403"><ele>872.25</ele><time>2026-04-27T10:23:31Z</time></trkpt><trkpt lat="42.067752734523296" lon="13.635595400904963"><ele>873.5</ele><time>2026-04-27T10:23:32Z</time></trkpt><trkpt lat="42.067882159040494" lon="13.635479112241134"><ele>874.75</ele><time>2026-04-27T10:23:33Z</time></trkpt><trkpt lat="42.06801039024817" lon="13.63535443134167"><ele>876.0</ele><time>2026-04-27T10:23:34Z</time></trkpt><trkpt lat="42.06812980483742" lon="13.63524458004534"><ele>876.0</ele><time>2026-04-27T10:23:35Z</time></trkpt><trkpt lat="42.068248393199866" lon="13.635117957710074"><ele>876.0</ele><time>2026-04-27T10:23:36Z</time></trkpt><trkpt lat="42.06834708029053" lon="13.635004510142574"><ele>876.0</ele><time>2026-04-27T10:23:37Z</time></trkpt><trkpt lat="42.068444148784245" lon="13.634898138427863"><ele>876.0</ele><time>2026-04-27T10:23:38Z</time></trkpt><trkpt lat="42.06854631332341" lon="13.634793068924733"><ele>877.5</ele><time>2026-04-27T10:23:39Z</time></trkpt><trkpt lat="42.06864174177536" lon="13.634686433946248"><ele>879.0</ele><time>2026-04-27T10:23:40Z</time></trkpt><trkpt lat="42.06873880943689" lon="13.634568457850166"><ele>880.5</ele><time>2026-04-27T10:23:41Z</time></trkpt><trkpt lat="42.068838385163424" lon="13.634451051048849"><ele>882.0</ele><time>2026-04-27T10:23:42Z</time></trkpt><trkpt lat="42.068946157593196" lon="13.634323508218277"><ele>882.0</ele><time>2026-04-27T10:23:43Z</time></trkpt><trkpt lat="42.0690503011486" lon="13.634212211242927"><ele>882.0</ele><time>2026-04-27T10:23:44Z</time></trkpt><trkpt lat="42.0691349365932" lon="13.634095520266579"><ele>882.0</ele><time>2026-04-27T10:23:45Z</time></trkpt><trkpt lat="42.0692095604803" lon="13.63397979182136"><ele>882.0</ele><time>2026-04-27T10:23:46Z</time></trkpt><trkpt lat="42.069273542966684" lon="13.633890267642336"><ele>883.2</ele><time>2026-04-27T10:23:47Z</time></trkpt><trkpt lat="42.06932886547245" lon="13.633834168197506"><ele>884.4000000000001</ele><time>2026-04-27T10:23:48Z</time></trkpt><trkpt lat="42.06943986957918" lon="13.633841350277283"><ele>885.5999999999999</ele><time>2026-04-27T10:23:50Z</time></trkpt><trkpt lat="42.06950947586725" lon="13.633896838936877"><ele>886.8</ele><time>2026-04-27T10:23:51Z</time></trkpt><trkpt lat="42.0695767108019" lon="13.63395727697028"><ele>888.0</ele><time>2026-04-27T10:23:52Z</time></trkpt><trkpt lat="42.069662385781356" lon="13.634053348315083"><ele>888.0</ele><time>2026-04-27T10:23:54Z</time></trkpt><trkpt lat="42.06969534730922" lon="13.63414587922953"><ele>888.0</ele><time>2026-04-27T10:23:55Z</time></trkpt><trkpt lat="42.069718778166184" lon="13.634267406377804"><ele>888.0</ele><time>2026-04-27T10:23:56Z</time></trkpt><trkpt lat="42.0697584280349" lon="13.63440599592345"><ele>888.0</ele><time>2026-04-27T10:23:57Z</time></trkpt><trkpt lat="42.06981833513756" lon="13.634542392932776"><ele>888.0</ele><time>2026-04-27T10:23:58Z</time></trkpt><trkpt lat="42.069881696854154" lon="13.634672201480548"><ele>888.25</ele><time>2026-04-27T10:23:59Z</time></trkpt><trkpt lat="42.06994918563536" lon="13.634802692731713"><ele>888.5</ele><time>2026-04-27T10:24:00Z</time></trkpt><trkpt lat="42.0700236947976" lon="13.63492711306224"><ele>888.75</ele><time>2026-04-27T10:24:01Z</time></trkpt><trkpt lat="42.070098255990395" lon="13.6350423598847"><ele>889.0</ele><time>2026-04-27T10:24:02Z</time></trkpt><trkpt lat="42.07016844987027" lon="13.635158327843712"><ele>889.0</ele><time>2026-04-27T10:24:03Z</time></trkpt><trkpt lat="42.070237012038845" lon="13.635273285215934"><ele>889.0000000000001</ele><time>2026-04-27T10:24:04Z</time></trkpt><trkpt lat="42.07030386701517" lon="13.635387295214029"><ele>889.0000000000001</ele><time>2026-04-27T10:24:05Z</time></trkpt><trkpt lat="42.07036972221978" lon="13.635502105739695"><ele>889.0</ele><time>2026-04-27T10:24:06Z</time></trkpt><trkpt lat="42.070435625824224" lon="13.635614978281689"><ele>889.0</ele><time>2026-04-27T10:24:07Z</time></trkpt><trkpt lat="42.07050203685017" lon="13.635725175988245"><ele>892.2</ele><time>2026-04-27T10:24:08Z</time></trkpt><trkpt lat="42.070566981969804" lon="13.63584427669265"><ele>895.4000000000001</ele><time>2026-04-27T10:24:09Z</time></trkpt><trkpt lat="42.07061297477219" lon="13.63597429082032"><ele>898.6</ele><time>2026-04-27T10:24:10Z</time></trkpt><trkpt lat="42.070673607060705" lon="13.636102641079527"><ele>901.8</ele><time>2026-04-27T10:24:11Z</time></trkpt><trkpt lat="42.07073476836889" lon="13.636224398402579"><ele>905.0</ele><time>2026-04-27T10:24:12Z</time></trkpt><trkpt lat="42.0708098876476" lon="13.63633556395568"><ele>905.0</ele><time>2026-04-27T10:24:13Z</time></trkpt><trkpt lat="42.07087367861217" lon="13.63645949444695"><ele>905.0</ele><time>2026-04-27T10:24:14Z</time></trkpt><trkpt lat="42.070951004833866" lon="13.636572350048414"><ele>905.0</ele><time>2026-04-27T10:24:15Z</time></trkpt><trkpt lat="42.07104005920272" lon="13.636670455068936"><ele>905.0</ele><time>2026-04-27T10:24:16Z</time></trkpt><trkpt lat="42.07113810542702" lon="13.636757573723182"><ele>905.0</ele><time>2026-04-27T10:24:17Z</time></trkpt><trkpt lat="42.07123907736715" lon="13.636842982876413"><ele>905.0</ele><time>2026-04-27T10:24:18Z</time></trkpt><trkpt lat="42.07132905361242" lon="13.636935159880615"><ele>905.0</ele><time>2026-04-27T10:24:19Z</time></trkpt><trkpt lat="42.07141685525863" lon="13.637041012047357"><ele>905.0</ele><time>2026-04-27T10:24:20Z</time></trkpt><trkpt lat="42.07150476670739" lon="13.637161178888958"><ele>904.5</ele><time>2026-04-27T10:24:21Z</time></trkpt><trkpt lat="42.0715844882665" lon="13.637268659331019"><ele>904.0</ele><time>2026-04-27T10:24:22Z</time></trkpt><trkpt lat="42.07168393769574" lon="13.637383118813016"><ele>903.5</ele><time>2026-04-27T10:24:23Z</time></trkpt><trkpt lat="42.071785183481396" lon="13.637498773460171"><ele>903.0</ele><time>2026-04-27T10:24:24Z</time></trkpt><trkpt lat="42.07190086713423" lon="13.637605864148"><ele>903.0</ele><time>2026-04-27T10:24:25Z</time></trkpt><trkpt lat="42.0720242644612" lon="13.637710130869893"><ele>903.0</ele><time>2026-04-27T10:24:26Z</time></trkpt><trkpt lat="42.07215901166983" lon="13.637807917610177"><ele>903.0</ele><time>2026-04-27T10:24:27Z</time></trkpt><trkpt lat="42.07229674792312" lon="13.637906581298193"><ele>905.3333333333333</ele><time>2026-04-27T10:24:28Z</time></trkpt><trkpt lat="42.0724550216493" lon="13.637989351438172"><ele>907.6666666666666</ele><time>2026-04-27T10:24:29Z</time></trkpt><trkpt lat="42.07261318011712" lon="13.638064556032846"><ele>910.0</ele><time>2026-04-27T10:24:30Z</time></trkpt><trkpt lat="42.07274359699603" lon="13.638141571382503"><ele>910.0</ele><time>2026-04-27T10:24:31Z</time></trkpt><trkpt lat="42.072867636411345" lon="13.638217290857671"><ele>910.0</ele><time>2026-04-27T10:24:32Z</time></trkpt><trkpt lat="42.07298108161322" lon="13.638300238560243"><ele>910.0</ele><time>2026-04-27T10:24:33Z</time></trkpt><trkpt lat="42.07307224640906" lon="13.638419973211438"><ele>910.0</ele><time>2026-04-27T10:24:34Z</time></trkpt><trkpt lat="42.07315845053887" lon="13.6385544038513"><ele>911.75</ele><time>2026-04-27T10:24:35Z</time></trkpt><trkpt lat="42.07324670081886" lon="13.638698259946155"><ele>913.5</ele><time>2026-04-27T10:24:36Z</time></trkpt><trkpt lat="42.073333447502975" lon="13.638848436429843"><ele>915.25</ele><time>2026-04-27T10:24:37Z</time></trkpt><trkpt lat="42.07343413489247" lon="13.638991058289161"><ele>917.0</ele><time>2026-04-27T10:24:38.001Z</time></trkpt><trkpt lat="42.07353427521714" lon="13.639147734144487"><ele>917.0</ele><time>2026-04-27T10:24:39.001Z</time></trkpt><trkpt lat="42.07365806766879" lon="13.6393020843838"><ele>917.0</ele><time>2026-04-27T10:24:40.001Z</time></trkpt><trkpt lat="42.07379147422241" lon="13.639463694155143"><ele>917.0</ele><time>2026-04-27T10:24:41.001Z</time></trkpt><trkpt lat="42.07392715960387" lon="13.639611583003147"><ele>918.6666666666667</ele><time>2026-04-27T10:24:42.001Z</time></trkpt><trkpt lat="42.07406710798141" lon="13.639758968952977"><ele>920.3333333333333</ele><time>2026-04-27T10:24:43.001Z</time></trkpt><trkpt lat="42.07420940276019" lon="13.639904130399929"><ele>922.0</ele><time>2026-04-27T10:24:44.001Z</time></trkpt><trkpt lat="42.07435209511848" lon="13.640056758753055"><ele>922.0</ele><time>2026-04-27T10:24:45.001Z</time></trkpt><trkpt lat="42.07449365863659" lon="13.640226535007939"><ele>922.0</ele><time>2026-04-27T10:24:46.001Z</time></trkpt><trkpt lat="42.0746266457884" lon="13.640394628521138"><ele>922.0</ele><time>2026-04-27T10:24:47.001Z</time></trkpt><trkpt lat="42.07476280709309" lon="13.640580196690735"><ele>924.0</ele><time>2026-04-27T10:24:48.001Z</time></trkpt><trkpt lat="42.074897921544064" lon="13.640773223834099"><ele>926.0</ele><time>2026-04-27T10:24:49.001Z</time></trkpt><trkpt lat="42.07503029084814" lon="13.640968136826729"><ele>928.0</ele><time>2026-04-27T10:24:50.001Z</time></trkpt><trkpt lat="42.075160652056475" lon="13.641167635036698"><ele>930.6666666666666</ele><time>2026-04-27T10:24:51.001Z</time></trkpt><trkpt lat="42.07528897607252" lon="13.64136535131585"><ele>933.3333333333333</ele><time>2026-04-27T10:24:52.001Z</time></trkpt><trkpt lat="42.075412859732445" lon="13.641556376899713"><ele>936.0</ele><time>2026-04-27T10:24:53.001Z</time></trkpt><trkpt lat="42.07553861585693" lon="13.641745872739998"><ele>936.0</ele><time>2026-04-27T10:24:54.001Z</time></trkpt><trkpt lat="42.075674214405666" lon="13.641929285396452"><ele>936.0</ele><time>2026-04-27T10:24:55.001Z</time></trkpt><trkpt lat="42.075807824214074" lon="13.6420980408451"><ele>936.0</ele><time>2026-04-27T10:24:56.001Z</time></trkpt><trkpt lat="42.075946180197455" lon="13.64225598223135"><ele>936.0</ele><time>2026-04-27T10:24:57.001Z</time></trkpt><trkpt lat="42.07609845926854" lon="13.642417111190726"><ele>936.0</ele><time>2026-04-27T10:24:58.001Z</time></trkpt><trkpt lat="42.07624829345768" lon="13.642571439060363"><ele>936.0</ele><time>2026-04-27T10:24:59.001Z</time></trkpt><trkpt lat="42.076383537415346" lon="13.64275514112822"><ele>938.0</ele><time>2026-04-27T10:25:00.001Z</time></trkpt><trkpt lat="42.07651987881309" lon="13.642930964173592"><ele>940.0</ele><time>2026-04-27T10:25:01.001Z</time></trkpt><trkpt lat="42.07665487287729" lon="13.64311694928253"><ele>942.0</ele><time>2026-04-27T10:25:02.001Z</time></trkpt><trkpt lat="42.07679541633741" lon="13.643292173930947"><ele>942.0</ele><time>2026-04-27T10:25:03.001Z</time></trkpt><trkpt lat="42.07692174549826" lon="13.643484675122876"><ele>942.0</ele><time>2026-04-27T10:25:04.001Z</time></trkpt><trkpt lat="42.077046621055125" lon="13.643677925489065"><ele>942.0</ele><time>2026-04-27T10:25:05.001Z</time></trkpt><trkpt lat="42.077176980126026" lon="13.643856842353529"><ele>944.3333333333333</ele><time>2026-04-27T10:25:06.001Z</time></trkpt><trkpt lat="42.07731831256953" lon="13.644023629684503"><ele>946.6666666666666</ele><time>2026-04-27T10:25:07.001Z</time></trkpt><trkpt lat="42.07746949367493" lon="13.644184373889356"><ele>949.0</ele><time>2026-04-27T10:25:08.001Z</time></trkpt><trkpt lat="42.077626919750095" lon="13.644338274669659"><ele>953.3333333333333</ele><time>2026-04-27T10:25:09.001Z</time></trkpt><trkpt lat="42.07777556897312" lon="13.644479745136493"><ele>957.6666666666667</ele><time>2026-04-27T10:25:10.001Z</time></trkpt><trkpt lat="42.077882350898" lon="13.644652683337664"><ele>962.0</ele><time>2026-04-27T10:25:11.001Z</time></trkpt><trkpt lat="42.07797772218313" lon="13.644848350373884"><ele>962.0</ele><time>2026-04-27T10:25:12.001Z</time></trkpt><trkpt lat="42.078083558334136" lon="13.64505273660829"><ele>962.0</ele><time>2026-04-27T10:25:13.001Z</time></trkpt><trkpt lat="42.078197243389276" lon="13.645256575765488"><ele>962.0</ele><time>2026-04-27T10:25:14.001Z</time></trkpt><trkpt lat="42.078318751283234" lon="13.64543650389846"><ele>961.3333333333334</ele><time>2026-04-27T10:25:15.001Z</time></trkpt><trkpt lat="42.07840476862553" lon="13.645630972689565"><ele>960.6666666666667</ele><time>2026-04-27T10:25:16.001Z</time></trkpt><trkpt lat="42.07851752374922" lon="13.645806654502236"><ele>960.0</ele><time>2026-04-27T10:25:17.001Z</time></trkpt><trkpt lat="42.07866847855337" lon="13.645914196471894"><ele>960.0</ele><time>2026-04-27T10:25:18.001Z</time></trkpt><trkpt lat="42.078828121981324" lon="13.646040844037111"><ele>960.0</ele><time>2026-04-27T10:25:19.001Z</time></trkpt><trkpt lat="42.07896134104991" lon="13.64618638782993"><ele>960.0</ele><time>2026-04-27T10:25:20.001Z</time></trkpt><trkpt lat="42.07908215598026" lon="13.646350913338605"><ele>960.3333333333333</ele><time>2026-04-27T10:25:21.001Z</time></trkpt><trkpt lat="42.079192671340905" lon="13.6465349906049"><ele>960.6666666666666</ele><time>2026-04-27T10:25:22.001Z</time></trkpt><trkpt lat="42.0792853256739" lon="13.64673063386968"><ele>961.0</ele><time>2026-04-27T10:25:23.001Z</time></trkpt><trkpt lat="42.079366253237" lon="13.64692605217621"><ele>963.75</ele><time>2026-04-27T10:25:24.001Z</time></trkpt><trkpt lat="42.07944579477576" lon="13.64711162437404"><ele>966.5</ele><time>2026-04-27T10:25:25.001Z</time></trkpt><trkpt lat="42.07951495515033" lon="13.647266451314346"><ele>969.25</ele><time>2026-04-27T10:25:26.001Z</time></trkpt><trkpt lat="42.07959076877999" lon="13.647400148618859"><ele>972.0</ele><time>2026-04-27T10:25:27.001Z</time></trkpt><trkpt lat="42.079655877451565" lon="13.64750096444269"><ele>972.0</ele><time>2026-04-27T10:25:28.001Z</time></trkpt><trkpt lat="42.079708364743226" lon="13.647578580831162"><ele>972.0</ele><time>2026-04-27T10:25:29.001Z</time></trkpt><trkpt lat="42.07981581211767" lon="13.64760786956223"><ele>972.0</ele><time>2026-04-27T10:25:31.001Z</time></trkpt><trkpt lat="42.07987878394318" lon="13.647615683193886"><ele>972.0</ele><time>2026-04-27T10:25:32.001Z</time></trkpt><trkpt lat="42.07994991651193" lon="13.647635970104341"><ele>972.0</ele><time>2026-04-27T10:25:33.001Z</time></trkpt><trkpt lat="42.0800418818339" lon="13.647689815188883"><ele>972.0</ele><time>2026-04-27T10:25:34.001Z</time></trkpt><trkpt lat="42.080128758119066" lon="13.647751874917592"><ele>968.75</ele><time>2026-04-27T10:25:35.001Z</time></trkpt><trkpt lat="42.080243070627986" lon="13.647808700132323"><ele>965.5</ele><time>2026-04-27T10:25:36.001Z</time></trkpt><trkpt lat="42.08035142316621" lon="13.647862605909868"><ele>962.25</ele><time>2026-04-27T10:25:37.001Z</time></trkpt><trkpt lat="42.080476150377706" lon="13.647839919555523"><ele>959.0</ele><time>2026-04-27T10:25:38.001Z</time></trkpt><trkpt lat="42.08059180968356" lon="13.647811482254816"><ele>959.0</ele><time>2026-04-27T10:25:39.001Z</time></trkpt><trkpt lat="42.08069350065126" lon="13.647739182579642"><ele>959.0</ele><time>2026-04-27T10:25:40.001Z</time></trkpt><trkpt lat="42.080815843787434" lon="13.64768611929835"><ele>959.0</ele><time>2026-04-27T10:25:41.001Z</time></trkpt><trkpt lat="42.0809372713433" lon="13.647601590573007"><ele>959.0</ele><time>2026-04-27T10:25:42.001Z</time></trkpt><trkpt lat="42.08107703987582" lon="13.647541754821658"><ele>960.25</ele><time>2026-04-27T10:25:43.001Z</time></trkpt><trkpt lat="42.08120416305791" lon="13.647481290565402"><ele>961.5</ele><time>2026-04-27T10:25:44.001Z</time></trkpt><trkpt lat="42.08132515522033" lon="13.647416240648317"><ele>962.75</ele><time>2026-04-27T10:25:45.001Z</time></trkpt><trkpt lat="42.08145183257833" lon="13.64731570209782"><ele>964.0</ele><time>2026-04-27T10:25:46.001Z</time></trkpt><trkpt lat="42.08155724846518" lon="13.647188152081704"><ele>965.6666666666666</ele><time>2026-04-27T10:25:47.001Z</time></trkpt><trkpt lat="42.08167234064172" lon="13.647062630566335"><ele>967.3333333333333</ele><time>2026-04-27T10:25:48.001Z</time></trkpt><trkpt lat="42.081782385539974" lon="13.646916614048704"><ele>969.0</ele><time>2026-04-27T10:25:49.001Z</time></trkpt><trkpt lat="42.081895003011056" lon="13.646766749609819"><ele>970.25</ele><time>2026-04-27T10:25:50.001Z</time></trkpt><trkpt lat="42.08199041892717" lon="13.646622848944665"><ele>971.5</ele><time>2026-04-27T10:25:51.001Z</time></trkpt><trkpt lat="42.08209705757138" lon="13.646465971458136"><ele>972.75</ele><time>2026-04-27T10:25:52.001Z</time></trkpt><trkpt lat="42.082208655979585" lon="13.646336222827895"><ele>974.0</ele><time>2026-04-27T10:25:53.001Z</time></trkpt><trkpt lat="42.08230012110821" lon="13.6462203815964"><ele>976.25</ele><time>2026-04-27T10:25:54.001Z</time></trkpt><trkpt lat="42.08242209402113" lon="13.646125659334507"><ele>978.5</ele><time>2026-04-27T10:25:55.001Z</time></trkpt><trkpt lat="42.08255228358274" lon="13.646062013249068"><ele>980.75</ele><time>2026-04-27T10:25:56.001Z</time></trkpt><trkpt lat="42.0826938200757" lon="13.645999653202773"><ele>983.0</ele><time>2026-04-27T10:25:57.001Z</time></trkpt><trkpt lat="42.082829632686206" lon="13.64595058510206"><ele>983.0</ele><time>2026-04-27T10:25:58.001Z</time></trkpt><trkpt lat="42.082968195057184" lon="13.645888967640945"><ele>983.0</ele><time>2026-04-27T10:25:59.001Z</time></trkpt><trkpt lat="42.083106942483916" lon="13.645800523895486"><ele>983.0</ele><time>2026-04-27T10:26:00.001Z</time></trkpt><trkpt lat="42.08323558309978" lon="13.645697746863828"><ele>983.0</ele><time>2026-04-27T10:26:01.001Z</time></trkpt><trkpt lat="42.083360809835995" lon="13.645569752792573"><ele>986.3333333333334</ele><time>2026-04-27T10:26:02.001Z</time></trkpt><trkpt lat="42.083487578061884" lon="13.645449608403867"><ele>989.6666666666667</ele><time>2026-04-27T10:26:03.001Z</time></trkpt><trkpt lat="42.08360507798141" lon="13.645328066416948"><ele>993.0</ele><time>2026-04-27T10:26:04.001Z</time></trkpt><trkpt lat="42.08372306322729" lon="13.645201432009003"><ele>994.0</ele><time>2026-04-27T10:26:05.001Z</time></trkpt><trkpt lat="42.083831941875054" lon="13.645077222916248"><ele>995.0</ele><time>2026-04-27T10:26:06.001Z</time></trkpt><trkpt lat="42.08392330405831" lon="13.6449433631386"><ele>996.0</ele><time>2026-04-27T10:26:07.001Z</time></trkpt><trkpt lat="42.083999144633324" lon="13.644794008798748"><ele>997.0</ele><time>2026-04-27T10:26:08.001Z</time></trkpt><trkpt lat="42.08405620345942" lon="13.644627476462572"><ele>998.0</ele><time>2026-04-27T10:26:09.001Z</time></trkpt><trkpt lat="42.08409595978488" lon="13.644441106171094"><ele>999.0</ele><time>2026-04-27T10:26:10.001Z</time></trkpt><trkpt lat="42.08412066020314" lon="13.644278052883807"><ele>1000.0</ele><time>2026-04-27T10:26:11.001Z</time></trkpt><trkpt lat="42.08415649892261" lon="13.64409630527433"><ele>1001.0</ele><time>2026-04-27T10:26:12.001Z</time></trkpt><trkpt lat="42.08420641948528" lon="13.643911731749759"><ele>1002.0</ele><time>2026-04-27T10:26:13.001Z</time></trkpt><trkpt lat="42.084252631434694" lon="13.64373916059126"><ele>1003.0</ele><time>2026-04-27T10:26:14.001Z</time></trkpt><trkpt lat="42.084324099381426" lon="13.643562018258102"><ele>1004.0</ele><time>2026-04-27T10:26:15.001Z</time></trkpt><trkpt lat="42.08438373161034" lon="13.643386679259518"><ele>1005.0</ele><time>2026-04-27T10:26:16.001Z</time></trkpt><trkpt lat="42.08444694041469" lon="13.643205568024284"><ele>1006.5</ele><time>2026-04-27T10:26:17.001Z</time></trkpt><trkpt lat="42.08451561141228" lon="13.643027561686342"><ele>1008.0</ele><time>2026-04-27T10:26:18.001Z</time></trkpt><trkpt lat="42.08459646516094" lon="13.642862796178461"><ele>1009.5</ele><time>2026-04-27T10:26:19.001Z</time></trkpt><trkpt lat="42.084683015226574" lon="13.64270817943016"><ele>1011.0</ele><time>2026-04-27T10:26:20.001Z</time></trkpt><trkpt lat="42.08477930101641" lon="13.642545343299174"><ele>1012.0</ele><time>2026-04-27T10:26:21.001Z</time></trkpt><trkpt lat="42.08485225670795" lon="13.642389824990953"><ele>1013.0</ele><time>2026-04-27T10:26:22.001Z</time></trkpt><trkpt lat="42.084893577188936" lon="13.64224876280938"><ele>1014.0</ele><time>2026-04-27T10:26:23.001Z</time></trkpt><trkpt lat="42.084914465872416" lon="13.642090675183187"><ele>1015.0</ele><time>2026-04-27T10:26:24.001Z</time></trkpt><trkpt lat="42.08492828978685" lon="13.641926404932388"><ele>1018.5</ele><time>2026-04-27T10:26:25.001Z</time></trkpt><trkpt lat="42.084943575600256" lon="13.641761148977535"><ele>1022.0</ele><time>2026-04-27T10:26:26.001Z</time></trkpt><trkpt lat="42.08498748285466" lon="13.641593840620962"><ele>1025.5</ele><time>2026-04-27T10:26:27.001Z</time></trkpt><trkpt lat="42.08502194702472" lon="13.641418699410375"><ele>1029.0</ele><time>2026-04-27T10:26:28.001Z</time></trkpt><trkpt lat="42.085088343594826" lon="13.641246790982962"><ele>1030.75</ele><time>2026-04-27T10:26:29.001Z</time></trkpt><trkpt lat="42.085132873706954" lon="13.641076441566883"><ele>1032.5</ele><time>2026-04-27T10:26:30.001Z</time></trkpt><trkpt lat="42.085191802011785" lon="13.640908240971498"><ele>1034.25</ele><time>2026-04-27T10:26:31.001Z</time></trkpt><trkpt lat="42.085224638175156" lon="13.64073184024861"><ele>1036.0</ele><time>2026-04-27T10:26:32.001Z</time></trkpt><trkpt lat="42.08524846471423" lon="13.640581771564282"><ele>1036.0</ele><time>2026-04-27T10:26:33.001Z</time></trkpt><trkpt lat="42.085239774824274" lon="13.640441121578235"><ele>1036.0</ele><time>2026-04-27T10:26:34.001Z</time></trkpt><trkpt lat="42.0852085173434" lon="13.640329602104833"><ele>1036.0</ele><time>2026-04-27T10:26:35.001Z</time></trkpt><trkpt lat="42.08517474629409" lon="13.640204593771594"><ele>1036.0</ele><time>2026-04-27T10:26:36.001Z</time></trkpt><trkpt lat="42.08516353711837" lon="13.64006741359526"><ele>1036.0</ele><time>2026-04-27T10:26:37.001Z</time></trkpt><trkpt lat="42.08515774868947" lon="13.639936896272483"><ele>1037.0</ele><time>2026-04-27T10:26:38.001Z</time></trkpt><trkpt lat="42.08517844811358" lon="13.639814783439503"><ele>1038.0</ele><time>2026-04-27T10:26:39.001Z</time></trkpt><trkpt lat="42.085250772624896" lon="13.639719113378803"><ele>1039.0</ele><time>2026-04-27T10:26:40.001Z</time></trkpt><trkpt lat="42.08529767039677" lon="13.639606160406434"><ele>1040.0</ele><time>2026-04-27T10:26:41.001Z</time></trkpt><trkpt lat="42.0853574594911" lon="13.639504135247659"><ele>1041.0</ele><time>2026-04-27T10:26:42.001Z</time></trkpt><trkpt lat="42.08539938225383" lon="13.639404015961544"><ele>1042.1666666666667</ele><time>2026-04-27T10:26:43.001Z</time></trkpt><trkpt lat="42.08540846989002" lon="13.639292369561495"><ele>1043.3333333333333</ele><time>2026-04-27T10:26:44.001Z</time></trkpt><trkpt lat="42.08539877047967" lon="13.639178250078624"><ele>1044.5</ele><time>2026-04-27T10:26:45.001Z</time></trkpt><trkpt lat="42.08537008280156" lon="13.639055148412217"><ele>1045.6666666666665</ele><time>2026-04-27T10:26:46.001Z</time></trkpt><trkpt lat="42.08532409220274" lon="13.638980216938247"><ele>1046.8333333333333</ele><time>2026-04-27T10:26:47.001Z</time></trkpt><trkpt lat="42.08528083626197" lon="13.638862967784362"><ele>1048.0</ele><time>2026-04-27T10:26:48.001Z</time></trkpt><trkpt lat="42.08526631601066" lon="13.638709955115731"><ele>1050.25</ele><time>2026-04-27T10:26:49.001Z</time></trkpt><trkpt lat="42.085219840953414" lon="13.638564776479916"><ele>1052.5</ele><time>2026-04-27T10:26:50.001Z</time></trkpt><trkpt lat="42.08519319044389" lon="13.638408215024198"><ele>1054.75</ele><time>2026-04-27T10:26:51.001Z</time></trkpt><trkpt lat="42.08515700820494" lon="13.638255398267846"><ele>1057.0</ele><time>2026-04-27T10:26:52.001Z</time></trkpt><trkpt lat="42.08512108905081" lon="13.638090577133429"><ele>1057.0</ele><time>2026-04-27T10:26:53.001Z</time></trkpt><trkpt lat="42.08508437157572" lon="13.637928575265102"><ele>1057.0</ele><time>2026-04-27T10:26:54.001Z</time></trkpt><trkpt lat="42.085076562020376" lon="13.6377601876517"><ele>1057.0</ele><time>2026-04-27T10:26:55.001Z</time></trkpt><trkpt lat="42.085065405007484" lon="13.637613270811821"><ele>1057.0</ele><time>2026-04-27T10:26:56.001Z</time></trkpt><trkpt lat="42.08504656869197" lon="13.637467972749517"><ele>1058.2</ele><time>2026-04-27T10:26:57.001Z</time></trkpt><trkpt lat="42.08504645950615" lon="13.63733118808813"><ele>1059.4</ele><time>2026-04-27T10:26:58.001Z</time></trkpt><trkpt lat="42.085043737249215" lon="13.637181544715256"><ele>1060.6</ele><time>2026-04-27T10:26:59.001Z</time></trkpt><trkpt lat="42.08502525708537" lon="13.637027243135394"><ele>1061.8</ele><time>2026-04-27T10:27:00.001Z</time></trkpt><trkpt lat="42.08499251794463" lon="13.636881573459046"><ele>1063.0</ele><time>2026-04-27T10:27:01.001Z</time></trkpt><trkpt lat="42.08494944064361" lon="13.636760510246797"><ele>1064.6</ele><time>2026-04-27T10:27:02.001Z</time></trkpt><trkpt lat="42.084888904597726" lon="13.636635948499547"><ele>1066.1999999999998</ele><time>2026-04-27T10:27:03.001Z</time></trkpt><trkpt lat="42.084817595816304" lon="13.6365419842342"><ele>1067.8</ele><time>2026-04-27T10:27:04.001Z</time></trkpt><trkpt lat="42.08475017194327" lon="13.636431907511204"><ele>1069.3999999999999</ele><time>2026-04-27T10:27:05.001Z</time></trkpt><trkpt lat="42.0846925677441" lon="13.63632385784069"><ele>1071.0</ele><time>2026-04-27T10:27:06.001Z</time></trkpt><trkpt lat="42.084622906515705" lon="13.636209166860047"><ele>1072.75</ele><time>2026-04-27T10:27:07.001Z</time></trkpt><trkpt lat="42.08454696982318" lon="13.636081610640694"><ele>1074.5</ele><time>2026-04-27T10:27:08.001Z</time></trkpt><trkpt lat="42.08445826431592" lon="13.63596002699542"><ele>1076.25</ele><time>2026-04-27T10:27:09.001Z</time></trkpt><trkpt lat="42.08436588313167" lon="13.635842847001555"><ele>1078.0</ele><time>2026-04-27T10:27:10.001Z</time></trkpt><trkpt lat="42.08427801447456" lon="13.635746177893852"><ele>1078.0</ele><time>2026-04-27T10:27:11.001Z</time></trkpt><trkpt lat="42.08421745927944" lon="13.635640305300207"><ele>1078.0</ele><time>2026-04-27T10:27:12.001Z</time></trkpt><trkpt lat="42.084180160920425" lon="13.635551152853761"><ele>1078.0</ele><time>2026-04-27T10:27:13.001Z</time></trkpt><trkpt lat="42.08415735200941" lon="13.635454712532237"><ele>1078.0</ele><time>2026-04-27T10:27:14.001Z</time></trkpt><trkpt lat="42.08414839320212" lon="13.63537028967056"><ele>1078.0</ele><time>2026-04-27T10:27:15.001Z</time></trkpt><trkpt lat="42.08412494750017" lon="13.635240029339494"><ele>1078.0</ele><time>2026-04-27T10:27:16.001Z</time></trkpt><trkpt lat="42.084118060171605" lon="13.635125735019194"><ele>1079.2</ele><time>2026-04-27T10:27:17.001Z</time></trkpt><trkpt lat="42.084085177183674" lon="13.635000722046463"><ele>1080.4</ele><time>2026-04-27T10:27:18.001Z</time></trkpt><trkpt lat="42.08405045897885" lon="13.63487291545815"><ele>1081.6000000000001</ele><time>2026-04-27T10:27:19.001Z</time></trkpt><trkpt lat="42.08401327692406" lon="13.63473660394756"><ele>1082.8</ele><time>2026-04-27T10:27:20.001Z</time></trkpt><trkpt lat="42.083978195511946" lon="13.63460838124639"><ele>1084.0</ele><time>2026-04-27T10:27:21.001Z</time></trkpt><trkpt lat="42.083947535741906" lon="13.634480024592005"><ele>1084.3333333333333</ele><time>2026-04-27T10:27:22.001Z</time></trkpt><trkpt lat="42.08393298335189" lon="13.634365916256655"><ele>1084.6666666666665</ele><time>2026-04-27T10:27:23.001Z</time></trkpt><trkpt lat="42.08395716086724" lon="13.63427312143804"><ele>1085.0</ele><time>2026-04-27T10:27:24.001Z</time></trkpt><trkpt lat="42.08395776400884" lon="13.634187187180967"><ele>1085.3333333333333</ele><time>2026-04-27T10:27:25.001Z</time></trkpt><trkpt lat="42.08399489520179" lon="13.634102765874575"><ele>1085.6666666666667</ele><time>2026-04-27T10:27:26.001Z</time></trkpt><trkpt lat="42.084054027302564" lon="13.634011229642017"><ele>1086.0</ele><time>2026-04-27T10:27:27.001Z</time></trkpt><trkpt lat="42.084129116048864" lon="13.633936961561602"><ele>1086.0</ele><time>2026-04-27T10:27:28.001Z</time></trkpt><trkpt lat="42.08423087128587" lon="13.63389978328648"><ele>1086.0</ele><time>2026-04-27T10:27:29.001Z</time></trkpt><trkpt lat="42.08432519286694" lon="13.633865433803898"><ele>1086.0</ele><time>2026-04-27T10:27:30.001Z</time></trkpt><trkpt lat="42.084405821752505" lon="13.633802795656376"><ele>1086.0</ele><time>2026-04-27T10:27:31.001Z</time></trkpt><trkpt lat="42.08448487264361" lon="13.633740258124728"><ele>1086.0</ele><time>2026-04-27T10:27:32.001Z</time></trkpt><trkpt lat="42.084552813464235" lon="13.633658702922224"><ele>1085.8</ele><time>2026-04-27T10:27:33.001Z</time></trkpt><trkpt lat="42.08459586562606" lon="13.633544140029993"><ele>1085.6</ele><time>2026-04-27T10:27:34.001Z</time></trkpt><trkpt lat="42.08465018465027" lon="13.633419203335276"><ele>1085.4</ele><time>2026-04-27T10:27:35.001Z</time></trkpt><trkpt lat="42.08470424996756" lon="13.63329641233445"><ele>1085.2</ele><time>2026-04-27T10:27:36.001Z</time></trkpt><trkpt lat="42.08479227847715" lon="13.63319722463992"><ele>1085.0</ele><time>2026-04-27T10:27:37.001Z</time></trkpt><trkpt lat="42.08487495245506" lon="13.633094998634377"><ele>1087.4</ele><time>2026-04-27T10:27:38.001Z</time></trkpt><trkpt lat="42.08495595476695" lon="13.632974667939289"><ele>1089.8</ele><time>2026-04-27T10:27:39.001Z</time></trkpt><trkpt lat="42.085050544356854" lon="13.632872954884856"><ele>1092.2</ele><time>2026-04-27T10:27:40.001Z</time></trkpt><trkpt lat="42.085128935197005" lon="13.632779384740628"><ele>1094.6</ele><time>2026-04-27T10:27:41.001Z</time></trkpt><trkpt lat="42.08518611672562" lon="13.632689514794583"><ele>1097.0</ele><time>2026-04-27T10:27:42.001Z</time></trkpt><trkpt lat="42.08522249388425" lon="13.632589057969842"><ele>1097.8</ele><time>2026-04-27T10:27:43.001Z</time></trkpt><trkpt lat="42.08523366308664" lon="13.632485975874065"><ele>1098.6</ele><time>2026-04-27T10:27:44.001Z</time></trkpt><trkpt lat="42.08522721487884" lon="13.632362682169108"><ele>1099.3999999999999</ele><time>2026-04-27T10:27:45.001Z</time></trkpt><trkpt lat="42.085208560802684" lon="13.63222042548569"><ele>1100.2</ele><time>2026-04-27T10:27:46.001Z</time></trkpt><trkpt lat="42.08520133215838" lon="13.632067664804097"><ele>1101.0</ele><time>2026-04-27T10:27:47.001Z</time></trkpt><trkpt lat="42.08519113284069" lon="13.6319309124406"><ele>1101.8</ele><time>2026-04-27T10:27:48.001Z</time></trkpt><trkpt lat="42.08521904133275" lon="13.631803451937017"><ele>1102.6</ele><time>2026-04-27T10:27:49.001Z</time></trkpt><trkpt lat="42.08524788418473" lon="13.631676863796654"><ele>1103.4</ele><time>2026-04-27T10:27:50.001Z</time></trkpt><trkpt lat="42.0852834394123" lon="13.631544718188481"><ele>1104.2</ele><time>2026-04-27T10:27:51.001Z</time></trkpt><trkpt lat="42.08536391629115" lon="13.631431890909433"><ele>1105.0</ele><time>2026-04-27T10:27:52.001Z</time></trkpt><trkpt lat="42.085424044607585" lon="13.631308446349466"><ele>1105.0</ele><time>2026-04-27T10:27:53.001Z</time></trkpt><trkpt lat="42.08548056461614" lon="13.631213184613877"><ele>1105.0</ele><time>2026-04-27T10:27:54.001Z</time></trkpt><trkpt lat="42.08551095308044" lon="13.631116205782108"><ele>1105.0</ele><time>2026-04-27T10:27:55.001Z</time></trkpt><trkpt lat="42.08552575931212" lon="13.631002928382767"><ele>1105.0</ele><time>2026-04-27T10:27:56.001Z</time></trkpt><trkpt lat="42.085517857758866" lon="13.63090508737131"><ele>1105.0</ele><time>2026-04-27T10:27:57.001Z</time></trkpt><trkpt lat="42.08550244407961" lon="13.630804227325124"><ele>1105.0</ele><time>2026-04-27T10:27:58.001Z</time></trkpt><trkpt lat="42.085489922258226" lon="13.630661729913562"><ele>1106.0</ele><time>2026-04-27T10:27:59.001Z</time></trkpt><trkpt lat="42.08548274189597" lon="13.630517069859748"><ele>1107.0</ele><time>2026-04-27T10:28:00.001Z</time></trkpt><trkpt lat="42.08548205250551" lon="13.630372987891487"><ele>1108.0</ele><time>2026-04-27T10:28:01.001Z</time></trkpt><trkpt lat="42.08546879622068" lon="13.630222379243682"><ele>1109.0</ele><time>2026-04-27T10:28:02.001Z</time></trkpt><trkpt lat="42.08546671464742" lon="13.630073382274903"><ele>1110.0</ele><time>2026-04-27T10:28:03.001Z</time></trkpt><trkpt lat="42.085465456092074" lon="13.629922735964989"><ele>1111.2</ele><time>2026-04-27T10:28:04.001Z</time></trkpt><trkpt lat="42.085479238603355" lon="13.629760945125314"><ele>1112.4</ele><time>2026-04-27T10:28:05.001Z</time></trkpt><trkpt lat="42.085501453064516" lon="13.629628614125094"><ele>1113.6</ele><time>2026-04-27T10:28:06.001Z</time></trkpt><trkpt lat="42.08553337161533" lon="13.629489466641104"><ele>1114.8</ele><time>2026-04-27T10:28:07.001Z</time></trkpt><trkpt lat="42.08555418919525" lon="13.629357019179889"><ele>1116.0</ele><time>2026-04-27T10:28:08.001Z</time></trkpt><trkpt lat="42.0855860345619" lon="13.6292085178988"><ele>1116.75</ele><time>2026-04-27T10:28:09.001Z</time></trkpt><trkpt lat="42.08562103598657" lon="13.629062635800876"><ele>1117.5</ele><time>2026-04-27T10:28:10.001Z</time></trkpt><trkpt lat="42.08565065594688" lon="13.62890293112447"><ele>1118.25</ele><time>2026-04-27T10:28:11.001Z</time></trkpt><trkpt lat="42.08567847084662" lon="13.628740784693788"><ele>1119.0</ele><time>2026-04-27T10:28:12.001Z</time></trkpt><trkpt lat="42.08570827753634" lon="13.628576165522608"><ele>1119.8</ele><time>2026-04-27T10:28:13.001Z</time></trkpt><trkpt lat="42.08573647945042" lon="13.628425255045162"><ele>1120.6000000000001</ele><time>2026-04-27T10:28:14.001Z</time></trkpt><trkpt lat="42.085792144966305" lon="13.6283130412771"><ele>1121.4</ele><time>2026-04-27T10:28:15.001Z</time></trkpt><trkpt lat="42.085840437223965" lon="13.62822178123908"><ele>1122.2</ele><time>2026-04-27T10:28:16.001Z</time></trkpt><trkpt lat="42.08589669327815" lon="13.6281326375443"><ele>1123.0</ele><time>2026-04-27T10:28:17.001Z</time></trkpt><trkpt lat="42.085941621960686" lon="13.628029284914584"><ele>1124.8</ele><time>2026-04-27T10:28:18.001Z</time></trkpt><trkpt lat="42.085997534354874" lon="13.627933832640963"><ele>1126.6</ele><time>2026-04-27T10:28:19.001Z</time></trkpt><trkpt lat="42.086034277105895" lon="13.62782749329361"><ele>1128.4</ele><time>2026-04-27T10:28:20.001Z</time></trkpt><trkpt lat="42.086063220931386" lon="13.627718840099709"><ele>1130.2</ele><time>2026-04-27T10:28:21.001Z</time></trkpt><trkpt lat="42.08608570545169" lon="13.627591469257036"><ele>1132.0</ele><time>2026-04-27T10:28:22.001Z</time></trkpt><trkpt lat="42.0861133240235" lon="13.627470460650347"><ele>1133.0</ele><time>2026-04-27T10:28:23.001Z</time></trkpt><trkpt lat="42.08615286451191" lon="13.627338203594167"><ele>1134.0</ele><time>2026-04-27T10:28:24.001Z</time></trkpt><trkpt lat="42.086204723518875" lon="13.62721691690263"><ele>1135.0</ele><time>2026-04-27T10:28:25.001Z</time></trkpt><trkpt lat="42.08624358875811" lon="13.627074270934816"><ele>1136.0</ele><time>2026-04-27T10:28:26.001Z</time></trkpt><trkpt lat="42.086296033128356" lon="13.626948324947575"><ele>1137.0</ele><time>2026-04-27T10:28:27.001Z</time></trkpt><trkpt lat="42.086367438221934" lon="13.626827335075305"><ele>1137.75</ele><time>2026-04-27T10:28:28.001Z</time></trkpt><trkpt lat="42.08642477672826" lon="13.626719663372588"><ele>1138.5</ele><time>2026-04-27T10:28:29.001Z</time></trkpt><trkpt lat="42.086483053286976" lon="13.626610231760528"><ele>1139.25</ele><time>2026-04-27T10:28:30.001Z</time></trkpt><trkpt lat="42.08653640528651" lon="13.626510047393465"><ele>1140.0</ele><time>2026-04-27T10:28:31.001Z</time></trkpt><trkpt lat="42.08642713542611" lon="13.626252858648334"><ele>1141.0</ele><time>2026-04-27T10:28:32.001Z</time></trkpt><trkpt lat="42.08641813046533" lon="13.62611678212202"><ele>1142.0</ele><time>2026-04-27T10:28:33.001Z</time></trkpt><trkpt lat="42.086405962149904" lon="13.625975804724755"><ele>1143.0</ele><time>2026-04-27T10:28:34.001Z</time></trkpt><trkpt lat="42.08639005159218" lon="13.625847867540646"><ele>1144.0</ele><time>2026-04-27T10:28:35.001Z</time></trkpt><trkpt lat="42.08636335329561" lon="13.625720228244626"><ele>1145.0</ele><time>2026-04-27T10:28:36.001Z</time></trkpt><trkpt lat="42.086331326471765" lon="13.625589189972311"><ele>1145.0</ele><time>2026-04-27T10:28:37.001Z</time></trkpt><trkpt lat="42.086300524453804" lon="13.625459268580476"><ele>1145.0</ele><time>2026-04-27T10:28:38.001Z</time></trkpt><trkpt lat="42.08627299785515" lon="13.625326180362652"><ele>1145.0</ele><time>2026-04-27T10:28:39.001Z</time></trkpt><trkpt lat="42.08624165838088" lon="13.625184651577541"><ele>1145.0</ele><time>2026-04-27T10:28:40.001Z</time></trkpt><trkpt lat="42.086206516083486" lon="13.625043369665589"><ele>1145.0</ele><time>2026-04-27T10:28:41.001Z</time></trkpt><trkpt lat="42.0861749418451" lon="13.62489898509534"><ele>1147.5</ele><time>2026-04-27T10:28:42.001Z</time></trkpt><trkpt lat="42.08614528095457" lon="13.624751221953405"><ele>1150.0</ele><time>2026-04-27T10:28:43.001Z</time></trkpt><trkpt lat="42.08612497596156" lon="13.624598961866958"><ele>1152.5</ele><time>2026-04-27T10:28:44.001Z</time></trkpt><trkpt lat="42.086109185961575" lon="13.624452165221848"><ele>1155.0</ele><time>2026-04-27T10:28:45.001Z</time></trkpt><trkpt lat="42.086104232205486" lon="13.624292066405468"><ele>1156.0</ele><time>2026-04-27T10:28:46.001Z</time></trkpt><trkpt lat="42.08609834090078" lon="13.624130733619559"><ele>1157.0</ele><time>2026-04-27T10:28:47.001Z</time></trkpt><trkpt lat="42.08609436683571" lon="13.623969363659583"><ele>1158.0</ele><time>2026-04-27T10:28:48.001Z</time></trkpt><trkpt lat="42.08607352277612" lon="13.623803977083663"><ele>1159.0</ele><time>2026-04-27T10:28:49.001Z</time></trkpt><trkpt lat="42.08603503279437" lon="13.623658017294924"><ele>1160.6666666666665</ele><time>2026-04-27T10:28:50.001Z</time></trkpt><trkpt lat="42.08598903139401" lon="13.623532277536937"><ele>1162.3333333333333</ele><time>2026-04-27T10:28:51.001Z</time></trkpt><trkpt lat="42.08594401790386" lon="13.623441346202222"><ele>1164.0</ele><time>2026-04-27T10:28:52.001Z</time></trkpt><trkpt lat="42.08588900603921" lon="13.623335551475217"><ele>1165.6666666666667</ele><time>2026-04-27T10:28:53.001Z</time></trkpt><trkpt lat="42.0858509664571" lon="13.62326000043546"><ele>1167.3333333333335</ele><time>2026-04-27T10:28:54.001Z</time></trkpt><trkpt lat="42.08579929706943" lon="13.623172174419109"><ele>1169.0</ele><time>2026-04-27T10:28:55.001Z</time></trkpt><trkpt lat="42.08574821902772" lon="13.623120002024086"><ele>1169.5</ele><time>2026-04-27T10:28:56.001Z</time></trkpt><trkpt lat="42.08568611094823" lon="13.623101584306864"><ele>1170.0</ele><time>2026-04-27T10:28:57.001Z</time></trkpt><trkpt lat="42.08561619312771" lon="13.623092821873675"><ele>1170.5</ele><time>2026-04-27T10:28:58.001Z</time></trkpt><trkpt lat="42.08553774290111" lon="13.623113114795029"><ele>1171.0</ele><time>2026-04-27T10:28:59.001Z</time></trkpt><trkpt lat="42.085456836576284" lon="13.623156464750146"><ele>1171.5</ele><time>2026-04-27T10:29:00.001Z</time></trkpt><trkpt lat="42.085377643509766" lon="13.623215415212485"><ele>1172.0</ele><time>2026-04-27T10:29:01.001Z</time></trkpt><trkpt lat="42.08528867733476" lon="13.623278816305337"><ele>1172.0</ele><time>2026-04-27T10:29:02.001Z</time></trkpt><trkpt lat="42.08519054781101" lon="13.623350916006997"><ele>1172.0</ele><time>2026-04-27T10:29:03Z</time></trkpt><trkpt lat="42.085092669458795" lon="13.623429162006039"><ele>1172.0</ele><time>2026-04-27T10:29:04Z</time></trkpt><trkpt lat="42.084988472329975" lon="13.623503423259061"><ele>1172.0</ele><time>2026-04-27T10:29:05Z</time></trkpt><trkpt lat="42.08488058621088" lon="13.62357732871669"><ele>1171.25</ele><time>2026-04-27T10:29:06Z</time></trkpt><trkpt lat="42.08477316522899" lon="13.62364693588787"><ele>1170.5</ele><time>2026-04-27T10:29:07Z</time></trkpt><trkpt lat="42.08466133505691" lon="13.623721435489644"><ele>1169.75</ele><time>2026-04-27T10:29:08Z</time></trkpt><trkpt lat="42.08455335611117" lon="13.62380604303328"><ele>1169.0</ele><time>2026-04-27T10:29:09Z</time></trkpt><trkpt lat="42.084448661818094" lon="13.623888794371311"><ele>1169.0</ele><time>2026-04-27T10:29:10Z</time></trkpt><trkpt lat="42.08434766597283" lon="13.623953615021579"><ele>1169.0</ele><time>2026-04-27T10:29:11Z</time></trkpt><trkpt lat="42.0842641520654" lon="13.624015729600856"><ele>1169.0</ele><time>2026-04-27T10:29:12Z</time></trkpt><trkpt lat="42.08418395595243" lon="13.624080443679508"><ele>1169.0</ele><time>2026-04-27T10:29:13Z</time></trkpt><trkpt lat="42.084121047078014" lon="13.624158958298759"><ele>1169.0</ele><time>2026-04-27T10:29:14Z</time></trkpt><trkpt lat="42.0840731432117" lon="13.62425548569179"><ele>1170.0</ele><time>2026-04-27T10:29:15Z</time></trkpt><trkpt lat="42.08403801093074" lon="13.624376107000424"><ele>1171.0</ele><time>2026-04-27T10:29:16Z</time></trkpt><trkpt lat="42.08400884245914" lon="13.62450627079841"><ele>1172.0</ele><time>2026-04-27T10:29:17Z</time></trkpt><trkpt lat="42.08398114564842" lon="13.624650499126046"><ele>1173.0</ele><time>2026-04-27T10:29:18Z</time></trkpt><trkpt lat="42.08396392448627" lon="13.624789184186763"><ele>1174.0</ele><time>2026-04-27T10:29:19Z</time></trkpt><trkpt lat="42.083944053481595" lon="13.62494751165115"><ele>1172.0</ele><time>2026-04-27T10:29:20Z</time></trkpt><trkpt lat="42.083926335671656" lon="13.625094008768539"><ele>1170.0</ele><time>2026-04-27T10:29:21Z</time></trkpt><trkpt lat="42.08390550978441" lon="13.625238852694425"><ele>1168.0</ele><time>2026-04-27T10:29:22Z</time></trkpt><trkpt lat="42.08388403278692" lon="13.625388680447069"><ele>1166.0</ele><time>2026-04-27T10:29:23Z</time></trkpt><trkpt lat="42.08386536361517" lon="13.625538146444244"><ele>1164.0</ele><time>2026-04-27T10:29:24Z</time></trkpt><trkpt lat="42.083847743035626" lon="13.625689617657008"><ele>1162.2</ele><time>2026-04-27T10:29:25Z</time></trkpt><trkpt lat="42.08382917420445" lon="13.625840177198931"><ele>1160.4</ele><time>2026-04-27T10:29:26Z</time></trkpt><trkpt lat="42.08381193456885" lon="13.625979634275794"><ele>1158.6</ele><time>2026-04-27T10:29:27Z</time></trkpt><trkpt lat="42.08378931141374" lon="13.626118769276237"><ele>1156.8</ele><time>2026-04-27T10:29:28Z</time></trkpt><trkpt lat="42.083768650052804" lon="13.626255183893669"><ele>1155.0</ele><time>2026-04-27T10:29:29Z</time></trkpt><trkpt lat="42.083751389172214" lon="13.626396313393943"><ele>1152.8</ele><time>2026-04-27T10:29:30Z</time></trkpt><trkpt lat="42.08373836031348" lon="13.626520354934279"><ele>1150.6</ele><time>2026-04-27T10:29:31Z</time></trkpt><trkpt lat="42.0837117504136" lon="13.626646232868595"><ele>1148.4</ele><time>2026-04-27T10:29:32Z</time></trkpt><trkpt lat="42.08369918912997" lon="13.626768544423186"><ele>1146.2</ele><time>2026-04-27T10:29:33Z</time></trkpt><trkpt lat="42.08365898100466" lon="13.62695371739113"><ele>1144.0</ele><time>2026-04-27T10:29:35Z</time></trkpt><trkpt lat="42.083638881194496" lon="13.627054032046983"><ele>1142.6666666666665</ele><time>2026-04-27T10:29:36Z</time></trkpt><trkpt lat="42.083619887470256" lon="13.627156849694561"><ele>1141.3333333333333</ele><time>2026-04-27T10:29:37Z</time></trkpt><trkpt lat="42.08360346149111" lon="13.627261261869526"><ele>1140.0</ele><time>2026-04-27T10:29:38Z</time></trkpt><trkpt lat="42.083587162480185" lon="13.627370418382236"><ele>1138.6666666666667</ele><time>2026-04-27T10:29:39Z</time></trkpt><trkpt lat="42.08356488682558" lon="13.627470805227578"><ele>1137.3333333333335</ele><time>2026-04-27T10:29:40Z</time></trkpt><trkpt lat="42.08352118648469" lon="13.627558693994839"><ele>1136.0</ele><time>2026-04-27T10:29:41Z</time></trkpt><trkpt lat="42.08345322813909" lon="13.627658455575009"><ele>1136.0</ele><time>2026-04-27T10:29:42Z</time></trkpt><trkpt lat="42.08336488171317" lon="13.627735480186072"><ele>1136.0</ele><time>2026-04-27T10:29:43Z</time></trkpt><trkpt lat="42.08325356216957" lon="13.627819734798793"><ele>1136.0</ele><time>2026-04-27T10:29:44Z</time></trkpt><trkpt lat="42.083129846440166" lon="13.62790169013318"><ele>1136.0</ele><time>2026-04-27T10:29:45Z</time></trkpt><trkpt lat="42.083018985813" lon="13.627969292692192"><ele>1133.25</ele><time>2026-04-27T10:29:46Z</time></trkpt><trkpt lat="42.08290675951264" lon="13.62804104830405"><ele>1130.5</ele><time>2026-04-27T10:29:47Z</time></trkpt><trkpt lat="42.082784406275735" lon="13.628120156482924"><ele>1127.75</ele><time>2026-04-27T10:29:48Z</time></trkpt><trkpt lat="42.08266389304758" lon="13.628202421954905"><ele>1125.0</ele><time>2026-04-27T10:29:49Z</time></trkpt><trkpt lat="42.08254959455123" lon="13.628283597412944"><ele>1125.0</ele><time>2026-04-27T10:29:50Z</time></trkpt><trkpt lat="42.082442978069096" lon="13.62836070294697"><ele>1125.0</ele><time>2026-04-27T10:29:51Z</time></trkpt><trkpt lat="42.0823379201777" lon="13.628430788410915"><ele>1125.0</ele><time>2026-04-27T10:29:52Z</time></trkpt><trkpt lat="42.082239243900524" lon="13.628497703038478"><ele>1125.0</ele><time>2026-04-27T10:29:53Z</time></trkpt><trkpt lat="42.08214016253424" lon="13.628550521079369"><ele>1123.6</ele><time>2026-04-27T10:29:54Z</time></trkpt><trkpt lat="42.082049344571026" lon="13.628602379665741"><ele>1122.2</ele><time>2026-04-27T10:29:55Z</time></trkpt><trkpt lat="42.08196020925631" lon="13.628637730389949"><ele>1120.8</ele><time>2026-04-27T10:29:56Z</time></trkpt><trkpt lat="42.081864955908046" lon="13.628654423136638"><ele>1119.4</ele><time>2026-04-27T10:29:57Z</time></trkpt><trkpt lat="42.08176944893311" lon="13.62864775222317"><ele>1118.0</ele><time>2026-04-27T10:29:58Z</time></trkpt><trkpt lat="42.08167841389328" lon="13.628622254596362"><ele>1115.3333333333335</ele><time>2026-04-27T10:29:59Z</time></trkpt><trkpt lat="42.08159140844834" lon="13.628574400353678"><ele>1112.6666666666667</ele><time>2026-04-27T10:30:00Z</time></trkpt><trkpt lat="42.08150568572031" lon="13.628524600158643"><ele>1110.0</ele><time>2026-04-27T10:30:01Z</time></trkpt><trkpt lat="42.08142527862594" lon="13.628478918878079"><ele>1107.3333333333333</ele><time>2026-04-27T10:30:02Z</time></trkpt><trkpt lat="42.08135080514849" lon="13.62843455936055"><ele>1104.6666666666665</ele><time>2026-04-27T10:30:03Z</time></trkpt><trkpt lat="42.081271750101905" lon="13.6283974915083"><ele>1102.0</ele><time>2026-04-27T10:30:04Z</time></trkpt><trkpt lat="42.0812069811111" lon="13.628360338488273"><ele>1102.0</ele><time>2026-04-27T10:30:05Z</time></trkpt><trkpt lat="42.08115030989867" lon="13.628314472984009"><ele>1102.0</ele><time>2026-04-27T10:30:06Z</time></trkpt><trkpt lat="42.08109897192391" lon="13.628257451761021"><ele>1102.0</ele><time>2026-04-27T10:30:07Z</time></trkpt><trkpt lat="42.081053883347785" lon="13.628192956611029"><ele>1102.0</ele><time>2026-04-27T10:30:08Z</time></trkpt><trkpt lat="42.080966477572396" lon="13.628073692499449"><ele>1102.0</ele><time>2026-04-27T10:30:10Z</time></trkpt><trkpt lat="42.08089036932526" lon="13.627957131512073"><ele>1102.0</ele><time>2026-04-27T10:30:12.001Z</time></trkpt><trkpt lat="42.080812799994874" lon="13.627865970821352"><ele>1100.3333333333333</ele><time>2026-04-27T10:31:24Z</time></trkpt><trkpt lat="42.08073613253417" lon="13.627776104401566"><ele>1098.6666666666665</ele><time>2026-04-27T10:31:26Z</time></trkpt><trkpt lat="42.08069159238333" lon="13.627707717527871"><ele>1097.0</ele><time>2026-04-27T10:31:27Z</time></trkpt><trkpt lat="42.080639981386824" lon="13.627606583605024"><ele>1095.3333333333333</ele><time>2026-04-27T10:31:28Z</time></trkpt><trkpt lat="42.08058255684293" lon="13.627498078342136"><ele>1093.6666666666667</ele><time>2026-04-27T10:31:29Z</time></trkpt><trkpt lat="42.08052337011074" lon="13.627408639298766"><ele>1092.0</ele><time>2026-04-27T10:31:30Z</time></trkpt><trkpt lat="42.08046335964229" lon="13.627308683122553"><ele>1092.0</ele><time>2026-04-27T10:31:31Z</time></trkpt><trkpt lat="42.080412557418825" lon="13.627219357365847"><ele>1092.0</ele><time>2026-04-27T10:31:32Z</time></trkpt><trkpt lat="42.080383988104856" lon="13.627143671013512"><ele>1092.0</ele><time>2026-04-27T10:31:33Z</time></trkpt><trkpt lat="42.08035580245229" lon="13.627059501899417"><ele>1092.0</ele><time>2026-04-27T10:31:34Z</time></trkpt><trkpt lat="42.08033655101695" lon="13.626977436555254"><ele>1092.0</ele><time>2026-04-27T10:31:35Z</time></trkpt><trkpt lat="42.08032809079651" lon="13.626885909637181"><ele>1092.0</ele><time>2026-04-27T10:31:36Z</time></trkpt><trkpt lat="42.080336559147625" lon="13.626710144051351"><ele>1092.5</ele><time>2026-04-27T10:31:38Z</time></trkpt><trkpt lat="42.0803575826474" lon="13.626578249818344"><ele>1093.0</ele><time>2026-04-27T10:31:39Z</time></trkpt><trkpt lat="42.080382463693816" lon="13.626449632029924"><ele>1093.5</ele><time>2026-04-27T10:31:40Z</time></trkpt><trkpt lat="42.08042498919244" lon="13.626280196637513"><ele>1094.0</ele><time>2026-04-27T10:31:41Z</time></trkpt><trkpt lat="42.08045134161833" lon="13.626119814877534"><ele>1094.4</ele><time>2026-04-27T10:31:42Z</time></trkpt><trkpt lat="42.08045677303105" lon="13.625996972576369"><ele>1094.8000000000002</ele><time>2026-04-27T10:31:43Z</time></trkpt><trkpt lat="42.08043405327746" lon="13.625856831211543"><ele>1095.1999999999998</ele><time>2026-04-27T10:31:44Z</time></trkpt><trkpt lat="42.08040490759849" lon="13.625709102625692"><ele>1095.6</ele><time>2026-04-27T10:31:45Z</time></trkpt><trkpt lat="42.08037586968041" lon="13.625550075898964"><ele>1096.0</ele><time>2026-04-27T10:31:46Z</time></trkpt><trkpt lat="42.08035652129676" lon="13.62536979742868"><ele>1096.75</ele><time>2026-04-27T10:31:47Z</time></trkpt><trkpt lat="42.080349324524356" lon="13.625191522575165"><ele>1097.5</ele><time>2026-04-27T10:31:48Z</time></trkpt><trkpt lat="42.080346453429016" lon="13.625012237195001"><ele>1098.25</ele><time>2026-04-27T10:31:49Z</time></trkpt><trkpt lat="42.0803445621557" lon="13.624821735279284"><ele>1099.0</ele><time>2026-04-27T10:31:50Z</time></trkpt><trkpt lat="42.080349331943715" lon="13.624653072182939"><ele>1099.0</ele><time>2026-04-27T10:31:51Z</time></trkpt><trkpt lat="42.080358596981824" lon="13.624495140009929"><ele>1099.0</ele><time>2026-04-27T10:31:52Z</time></trkpt><trkpt lat="42.08039864602935" lon="13.624339554562377"><ele>1099.0</ele><time>2026-04-27T10:31:53Z</time></trkpt><trkpt lat="42.08044009895121" lon="13.624186847192986"><ele>1099.0</ele><time>2026-04-27T10:31:54Z</time></trkpt><trkpt lat="42.080462343354945" lon="13.624039777414183"><ele>1099.0</ele><time>2026-04-27T10:31:55Z</time></trkpt><trkpt lat="42.08045755270941" lon="13.62388562463218"><ele>1099.0</ele><time>2026-04-27T10:31:56Z</time></trkpt><trkpt lat="42.08042813940625" lon="13.623716469661618"><ele>1099.0</ele><time>2026-04-27T10:31:57Z</time></trkpt><trkpt lat="42.080398818670375" lon="13.623520374599655"><ele>1099.0</ele><time>2026-04-27T10:31:58Z</time></trkpt><trkpt lat="42.08037612170621" lon="13.623331343592152"><ele>1099.5</ele><time>2026-04-27T10:31:59Z</time></trkpt><trkpt lat="42.08037233997367" lon="13.623169569177543"><ele>1100.0</ele><time>2026-04-27T10:32:00Z</time></trkpt><trkpt lat="42.080390727201966" lon="13.623009796558916"><ele>1100.5</ele><time>2026-04-27T10:32:01Z</time></trkpt><trkpt lat="42.08041300008029" lon="13.622834781840295"><ele>1101.0</ele><time>2026-04-27T10:32:02Z</time></trkpt><trkpt lat="42.08044053296304" lon="13.622660445888833"><ele>1101.0</ele><time>2026-04-27T10:32:03Z</time></trkpt><trkpt lat="42.080462227144" lon="13.622494363635619"><ele>1101.0</ele><time>2026-04-27T10:32:04Z</time></trkpt><trkpt lat="42.08047675382996" lon="13.62236091808966"><ele>1101.0</ele><time>2026-04-27T10:32:05Z</time></trkpt><trkpt lat="42.08051513332906" lon="13.622230634265021"><ele>1101.0</ele><time>2026-04-27T10:32:06Z</time></trkpt><trkpt lat="42.08057676398018" lon="13.62211454310105"><ele>1101.0</ele><time>2026-04-27T10:32:07Z</time></trkpt><trkpt lat="42.08063685547917" lon="13.621996870942692"><ele>1100.0</ele><time>2026-04-27T10:32:08Z</time></trkpt><trkpt lat="42.08069679477429" lon="13.621901721753703"><ele>1099.0</ele><time>2026-04-27T10:32:09Z</time></trkpt><trkpt lat="42.08077024987125" lon="13.621799651332639"><ele>1098.0</ele><time>2026-04-27T10:32:10Z</time></trkpt><trkpt lat="42.08085913686888" lon="13.621704156679975"><ele>1097.0</ele><time>2026-04-27T10:32:11Z</time></trkpt><trkpt lat="42.0809225963503" lon="13.621612777434871"><ele>1096.0</ele><time>2026-04-27T10:32:12Z</time></trkpt><trkpt lat="42.08095936232635" lon="13.621513870736754"><ele>1099.25</ele><time>2026-04-27T10:32:13Z</time></trkpt><trkpt lat="42.08099816717718" lon="13.62135439286901"><ele>1102.5</ele><time>2026-04-27T10:32:14Z</time></trkpt><trkpt lat="42.08104996631497" lon="13.621215938842042"><ele>1105.75</ele><time>2026-04-27T10:32:15Z</time></trkpt><trkpt lat="42.08111236647517" lon="13.621066242205401"><ele>1109.0</ele><time>2026-04-27T10:32:16Z</time></trkpt><trkpt lat="42.0811674768682" lon="13.62093452296467"><ele>1109.0</ele><time>2026-04-27T10:32:17Z</time></trkpt><trkpt lat="42.0812068335141" lon="13.62077204599757"><ele>1109.0</ele><time>2026-04-27T10:32:18Z</time></trkpt><trkpt lat="42.08125069992838" lon="13.620586474587151"><ele>1109.0</ele><time>2026-04-27T10:32:19Z</time></trkpt><trkpt lat="42.081287451207686" lon="13.620410967226984"><ele>1109.0</ele><time>2026-04-27T10:32:20Z</time></trkpt><trkpt lat="42.08131167950721" lon="13.620262174170387"><ele>1107.25</ele><time>2026-04-27T10:32:21Z</time></trkpt><trkpt lat="42.08136413230026" lon="13.620111672047713"><ele>1105.5</ele><time>2026-04-27T10:32:22Z</time></trkpt><trkpt lat="42.08140953376435" lon="13.619967248303686"><ele>1103.75</ele><time>2026-04-27T10:32:23Z</time></trkpt><trkpt lat="42.08144990602293" lon="13.619803767320418"><ele>1102.0</ele><time>2026-04-27T10:32:24Z</time></trkpt><trkpt lat="42.08149038697809" lon="13.619634515109137"><ele>1103.75</ele><time>2026-04-27T10:32:25Z</time></trkpt><trkpt lat="42.081536923334085" lon="13.619447124872833"><ele>1105.5</ele><time>2026-04-27T10:32:26Z</time></trkpt><trkpt lat="42.08158598009463" lon="13.619280403596724"><ele>1107.25</ele><time>2026-04-27T10:32:27Z</time></trkpt><trkpt lat="42.0816333237099" lon="13.61912272265171"><ele>1109.0</ele><time>2026-04-27T10:32:28Z</time></trkpt><trkpt lat="42.08167977025452" lon="13.618950711611346"><ele>1109.0</ele><time>2026-04-27T10:32:29Z</time></trkpt><trkpt lat="42.08173177291773" lon="13.618799367613422"><ele>1109.0</ele><time>2026-04-27T10:32:30Z</time></trkpt><trkpt lat="42.08179170799271" lon="13.618620463944756"><ele>1109.0</ele><time>2026-04-27T10:32:31Z</time></trkpt><trkpt lat="42.08184615568949" lon="13.61846663740289"><ele>1109.0</ele><time>2026-04-27T10:32:32Z</time></trkpt><trkpt lat="42.08189067237009" lon="13.618309370791614"><ele>1106.25</ele><time>2026-04-27T10:32:33Z</time></trkpt><trkpt lat="42.08194137773945" lon="13.618154651035512"><ele>1103.5</ele><time>2026-04-27T10:32:34Z</time></trkpt><trkpt lat="42.081993839268904" lon="13.617986085075286"><ele>1100.75</ele><time>2026-04-27T10:32:35Z</time></trkpt><trkpt lat="42.082036996479786" lon="13.617811439216487"><ele>1098.0</ele><time>2026-04-27T10:32:36Z</time></trkpt><trkpt lat="42.08208487004139" lon="13.617642606882237"><ele>1095.25</ele><time>2026-04-27T10:32:37.001Z</time></trkpt><trkpt lat="42.082115131009004" lon="13.6174847782171"><ele>1092.5</ele><time>2026-04-27T10:32:38.001Z</time></trkpt><trkpt lat="42.08213596847082" lon="13.617335103006974"><ele>1089.75</ele><time>2026-04-27T10:32:39.001Z</time></trkpt><trkpt lat="42.082163950445214" lon="13.617165773668376"><ele>1087.0</ele><time>2026-04-27T10:32:40.001Z</time></trkpt><trkpt lat="42.08219145881721" lon="13.617010449869975"><ele>1085.25</ele><time>2026-04-27T10:32:41.001Z</time></trkpt><trkpt lat="42.08222326895913" lon="13.616872422196067"><ele>1083.5</ele><time>2026-04-27T10:32:42.001Z</time></trkpt><trkpt lat="42.08224930269926" lon="13.61673304782231"><ele>1081.75</ele><time>2026-04-27T10:32:43.001Z</time></trkpt><trkpt lat="42.08224235777875" lon="13.61657318064869"><ele>1080.0</ele><time>2026-04-27T10:32:44.001Z</time></trkpt><trkpt lat="42.08222634258501" lon="13.616379669122221"><ele>1080.0</ele><time>2026-04-27T10:32:46.001Z</time></trkpt><trkpt lat="42.08220949919684" lon="13.616226846455875"><ele>1080.0</ele><time>2026-04-27T10:32:47.001Z</time></trkpt><trkpt lat="42.08220406740575" lon="13.616070207017573"><ele>1080.0</ele><time>2026-04-27T10:32:48.001Z</time></trkpt><trkpt lat="42.08220506089184" lon="13.615913478830505"><ele>1080.0</ele><time>2026-04-27T10:32:49.001Z</time></trkpt><trkpt lat="42.08220940728968" lon="13.615741739318194"><ele>1078.0</ele><time>2026-04-27T10:32:50.001Z</time></trkpt><trkpt lat="42.082213315741505" lon="13.615572891796171"><ele>1076.0</ele><time>2026-04-27T10:32:51.001Z</time></trkpt><trkpt lat="42.08221200702429" lon="13.615422523161937"><ele>1074.0</ele><time>2026-04-27T10:32:52.001Z</time></trkpt><trkpt lat="42.08219843680191" lon="13.61527347108237"><ele>1072.0</ele><time>2026-04-27T10:32:53.001Z</time></trkpt><trkpt lat="42.082189794294315" lon="13.615125940046351"><ele>1070.5</ele><time>2026-04-27T10:32:54.001Z</time></trkpt><trkpt lat="42.082185197939886" lon="13.614967526395006"><ele>1069.0</ele><time>2026-04-27T10:32:55.001Z</time></trkpt><trkpt lat="42.0821724222464" lon="13.614786879837412"><ele>1067.5</ele><time>2026-04-27T10:32:56.001Z</time></trkpt><trkpt lat="42.08216960826097" lon="13.614606699836532"><ele>1066.0</ele><time>2026-04-27T10:32:57.001Z</time></trkpt><trkpt lat="42.08216375742567" lon="13.61441279023861"><ele>1064.25</ele><time>2026-04-27T10:32:58.001Z</time></trkpt><trkpt lat="42.08215818576497" lon="13.61423683642583"><ele>1062.5</ele><time>2026-04-27T10:32:59.001Z</time></trkpt><trkpt lat="42.082150156760754" lon="13.614073691895355"><ele>1060.75</ele><time>2026-04-27T10:33:00.001Z</time></trkpt><trkpt lat="42.08214321978621" lon="13.613913320963626"><ele>1059.0</ele><time>2026-04-27T10:33:01.001Z</time></trkpt><trkpt lat="42.082134790302774" lon="13.613750998122232"><ele>1057.75</ele><time>2026-04-27T10:33:02Z</time></trkpt><trkpt lat="42.082125035294645" lon="13.613589119074947"><ele>1056.5</ele><time>2026-04-27T10:33:03Z</time></trkpt><trkpt lat="42.08210845619906" lon="13.613423270743226"><ele>1055.25</ele><time>2026-04-27T10:33:04Z</time></trkpt><trkpt lat="42.08209888486714" lon="13.613251419603236"><ele>1054.0</ele><time>2026-04-27T10:33:05Z</time></trkpt><trkpt lat="42.08208920208762" lon="13.613062717413923"><ele>1054.0</ele><time>2026-04-27T10:33:06Z</time></trkpt><trkpt lat="42.08208172107172" lon="13.612875692720085"><ele>1054.0</ele><time>2026-04-27T10:33:07Z</time></trkpt><trkpt lat="42.08208150568792" lon="13.612712282320905"><ele>1054.0</ele><time>2026-04-27T10:33:08Z</time></trkpt><trkpt lat="42.08207833573073" lon="13.612550557187692"><ele>1054.0</ele><time>2026-04-27T10:33:09Z</time></trkpt><trkpt lat="42.08207437991394" lon="13.61240291568372"><ele>1053.0</ele><time>2026-04-27T10:33:10Z</time></trkpt><trkpt lat="42.08206419652338" lon="13.612252693191659"><ele>1052.0</ele><time>2026-04-27T10:33:11Z</time></trkpt><trkpt lat="42.08206087099792" lon="13.612120608801902"><ele>1051.0</ele><time>2026-04-27T10:33:12Z</time></trkpt><trkpt lat="42.082052242460215" lon="13.6119810637954"><ele>1050.0</ele><time>2026-04-27T10:33:13Z</time></trkpt><trkpt lat="42.08203677602853" lon="13.611833035972916"><ele>1049.0</ele><time>2026-04-27T10:33:14Z</time></trkpt><trkpt lat="42.08202535641808" lon="13.611688131276532"><ele>1047.6000000000001</ele><time>2026-04-27T10:33:15Z</time></trkpt><trkpt lat="42.082017949361365" lon="13.611554346767765"><ele>1046.2</ele><time>2026-04-27T10:33:16Z</time></trkpt><trkpt lat="42.08202663909972" lon="13.611390590408337"><ele>1044.8000000000002</ele><time>2026-04-27T10:33:17Z</time></trkpt><trkpt lat="42.08203056194361" lon="13.611264061569441"><ele>1043.4</ele><time>2026-04-27T10:33:18Z</time></trkpt><trkpt lat="42.08202754548067" lon="13.61110691785663"><ele>1042.0</ele><time>2026-04-27T10:33:19Z</time></trkpt><trkpt lat="42.08202831683577" lon="13.610965420330885"><ele>1039.8</ele><time>2026-04-27T10:33:20Z</time></trkpt><trkpt lat="42.08204179389608" lon="13.61083275354167"><ele>1037.6</ele><time>2026-04-27T10:33:21Z</time></trkpt><trkpt lat="42.08205258440857" lon="13.610689643039265"><ele>1035.3999999999999</ele><time>2026-04-27T10:33:22Z</time></trkpt><trkpt lat="42.08214895114388" lon="13.61056540895186"><ele>1033.2</ele><time>2026-04-27T10:33:24Z</time></trkpt><trkpt lat="42.08220356212363" lon="13.61049760222891"><ele>1031.0</ele><time>2026-04-27T10:33:25Z</time></trkpt><trkpt lat="42.082315016525286" lon="13.610438551144442"><ele>1031.0</ele><time>2026-04-27T10:33:27Z</time></trkpt><trkpt lat="42.08238922460936" lon="13.610438073447682"><ele>1031.0</ele><time>2026-04-27T10:33:28Z</time></trkpt><trkpt lat="42.08247775069225" lon="13.61044164207672"><ele>1031.0</ele><time>2026-04-27T10:33:29Z</time></trkpt><trkpt lat="42.08256897019466" lon="13.610446101261143"><ele>1031.0</ele><time>2026-04-27T10:33:30Z</time></trkpt><trkpt lat="42.082652383086774" lon="13.61044162663001"><ele>1031.0</ele><time>2026-04-27T10:33:31Z</time></trkpt><trkpt lat="42.08272491878376" lon="13.610407333925105"><ele>1031.0</ele><time>2026-04-27T10:33:32Z</time></trkpt><trkpt lat="42.08279117713862" lon="13.610345591307643"><ele>1031.6666666666667</ele><time>2026-04-27T10:33:33Z</time></trkpt><trkpt lat="42.08283610081543" lon="13.610280871861592"><ele>1032.3333333333335</ele><time>2026-04-27T10:33:34Z</time></trkpt><trkpt lat="42.08284466396689" lon="13.610121660228241"><ele>1033.0</ele><time>2026-04-27T10:33:36Z</time></trkpt><trkpt lat="42.08281373860817" lon="13.610038475354525"><ele>1033.6666666666667</ele><time>2026-04-27T10:33:37Z</time></trkpt><trkpt lat="42.08276888156057" lon="13.609978263841088"><ele>1034.3333333333333</ele><time>2026-04-27T10:33:38Z</time></trkpt><trkpt lat="42.08270981933065" lon="13.609938843008203"><ele>1035.0</ele><time>2026-04-27T10:33:39Z</time></trkpt><trkpt lat="42.08263661461277" lon="13.609899998492434"><ele>1035.0</ele><time>2026-04-27T10:33:40Z</time></trkpt><trkpt lat="42.08253832955859" lon="13.609846627996836"><ele>1035.0</ele><time>2026-04-27T10:33:41Z</time></trkpt><trkpt lat="42.08242842787715" lon="13.60979159530163"><ele>1035.0</ele><time>2026-04-27T10:33:42Z</time></trkpt><trkpt lat="42.082324526986355" lon="13.609708330081173"><ele>1035.0</ele><time>2026-04-27T10:33:43Z</time></trkpt><trkpt lat="42.082207623880606" lon="13.609639895236718"><ele>1034.5</ele><time>2026-04-27T10:33:44Z</time></trkpt><trkpt lat="42.08210579579509" lon="13.609590549968463"><ele>1034.0</ele><time>2026-04-27T10:33:45Z</time></trkpt><trkpt lat="42.08200227965773" lon="13.609500951274908"><ele>1033.5</ele><time>2026-04-27T10:33:46Z</time></trkpt><trkpt lat="42.08191372117027" lon="13.609386709508254"><ele>1033.0</ele><time>2026-04-27T10:33:47Z</time></trkpt><trkpt lat="42.08184731365627" lon="13.609277481238415"><ele>1033.0</ele><time>2026-04-27T10:33:48Z</time></trkpt><trkpt lat="42.081811841951094" lon="13.609179193410615"><ele>1033.0</ele><time>2026-04-27T10:33:49Z</time></trkpt><trkpt lat="42.08181029088103" lon="13.609042954945625"><ele>1033.0</ele><time>2026-04-27T10:33:51Z</time></trkpt><trkpt lat="42.08183112159472" lon="13.608962667496042"><ele>1033.0</ele><time>2026-04-27T10:33:52Z</time></trkpt><trkpt lat="42.08191250700674" lon="13.608897552121144"><ele>1033.0</ele><time>2026-04-27T10:33:54Z</time></trkpt><trkpt lat="42.08204641021419" lon="13.608817464921868"><ele>1033.0</ele><time>2026-04-27T10:33:56Z</time></trkpt><trkpt lat="42.08209946461686" lon="13.60869296010453"><ele>1033.0</ele><time>2026-04-27T10:33:58Z</time></trkpt><trkpt lat="42.0820279565619" lon="13.608716770730432"><ele>1033.0</ele><time>2026-04-27T10:34:21Z</time></trkpt><trkpt lat="42.08198969671551" lon="13.608843449904157"><ele>1033.0</ele><time>2026-04-27T10:34:24Z</time></trkpt><trkpt lat="42.08189992062873" lon="13.608955012784072"><ele>1033.0</ele><time>2026-04-27T10:34:26Z</time></trkpt><trkpt lat="42.08185194185524" lon="13.609010341762936"><ele>1033.0</ele><time>2026-04-27T10:34:27Z</time></trkpt><trkpt lat="42.08180506704843" lon="13.609133444704957"><ele>1033.0</ele><time>2026-04-27T10:34:30Z</time></trkpt><trkpt lat="42.08183052611446" lon="13.609277154107211"><ele>1033.0</ele><time>2026-04-27T10:34:32Z</time></trkpt><trkpt lat="42.08186731512383" lon="13.609353704282967"><ele>1033.0</ele><time>2026-04-27T10:34:33Z</time></trkpt><trkpt lat="42.08198003559126" lon="13.609469636318266"><ele>1033.0</ele><time>2026-04-27T10:34:35Z</time></trkpt><trkpt lat="42.0820668969475" lon="13.609558097262836"><ele>1033.3333333333333</ele><time>2026-04-27T10:34:36Z</time></trkpt><trkpt lat="42.08213310888012" lon="13.609619689956633"><ele>1033.6666666666665</ele><time>2026-04-27T10:34:37Z</time></trkpt><trkpt lat="42.08222231890577" lon="13.6096869338203"><ele>1034.0</ele><time>2026-04-27T10:34:38Z</time></trkpt><trkpt lat="42.08230608680903" lon="13.609709895868395"><ele>1034.3333333333333</ele><time>2026-04-27T10:34:39Z</time></trkpt><trkpt lat="42.08239744836361" lon="13.609759972484214"><ele>1034.6666666666667</ele><time>2026-04-27T10:34:40Z</time></trkpt><trkpt lat="42.082470141932674" lon="13.60980381942105"><ele>1035.0</ele><time>2026-04-27T10:34:41Z</time></trkpt><trkpt lat="42.082526976706376" lon="13.60984517694676"><ele>1035.0</ele><time>2026-04-27T10:34:42Z</time></trkpt><trkpt lat="42.08260404964297" lon="13.60989054087679"><ele>1035.0</ele><time>2026-04-27T10:34:43Z</time></trkpt><trkpt lat="42.082666927068736" lon="13.609928282228612"><ele>1035.0</ele><time>2026-04-27T10:34:44Z</time></trkpt><trkpt lat="42.08277576865537" lon="13.610012472732468"><ele>1035.0</ele><time>2026-04-27T10:34:46Z</time></trkpt><trkpt lat="42.08282421840501" lon="13.610078405552256"><ele>1035.0</ele><time>2026-04-27T10:34:47Z</time></trkpt><trkpt lat="42.0828382878875" lon="13.610199518262766"><ele>1035.0</ele><time>2026-04-27T10:34:49Z</time></trkpt><trkpt lat="42.08289848279747" lon="13.610231140690404"><ele>1035.0</ele><time>2026-04-27T10:34:52Z</time></trkpt><trkpt lat="42.08289422809862" lon="13.610131497961685"><ele>1035.0</ele><time>2026-04-27T10:34:55Z</time></trkpt><trkpt lat="42.08279013892292" lon="13.610138714176637"><ele>1035.0</ele><time>2026-04-27T10:34:57Z</time></trkpt><trkpt lat="42.082723134358076" lon="13.610160258005802"><ele>1035.0</ele><time>2026-04-27T10:34:58Z</time></trkpt><trkpt lat="42.08264257061547" lon="13.610117420272587"><ele>1035.0</ele><time>2026-04-27T10:34:59Z</time></trkpt><trkpt lat="42.08252617472513" lon="13.610058479587265"><ele>1035.0</ele><time>2026-04-27T10:35:01Z</time></trkpt><trkpt lat="42.08244355365064" lon="13.6100582332226"><ele>1035.0</ele><time>2026-04-27T10:35:02Z</time></trkpt><trkpt lat="42.08236602101239" lon="13.610045415257037"><ele>1035.0</ele><time>2026-04-27T10:35:03Z</time></trkpt><trkpt lat="42.082265424664406" lon="13.610010053682371"><ele>1035.0</ele><time>2026-04-27T10:35:04Z</time></trkpt><trkpt lat="42.082153007679366" lon="13.609998748161916"><ele>1035.0</ele><time>2026-04-27T10:35:05Z</time></trkpt><trkpt lat="42.08204139555378" lon="13.609990594673935"><ele>1032.6666666666667</ele><time>2026-04-27T10:35:06Z</time></trkpt><trkpt lat="42.08195607548246" lon="13.609988966992322"><ele>1030.3333333333333</ele><time>2026-04-27T10:35:07Z</time></trkpt><trkpt lat="42.08185608458816" lon="13.609993906127501"><ele>1028.0</ele><time>2026-04-27T10:35:08Z</time></trkpt><trkpt lat="42.081762530690874" lon="13.610014413506578"><ele>1025.6666666666665</ele><time>2026-04-27T10:35:09Z</time></trkpt><trkpt lat="42.08168029430212" lon="13.610018255809067"><ele>1023.3333333333333</ele><time>2026-04-27T10:35:10Z</time></trkpt><trkpt lat="42.08161000054083" lon="13.610025660942567"><ele>1021.0</ele><time>2026-04-27T10:35:11Z</time></trkpt><trkpt lat="42.08153885176165" lon="13.610056091891385"><ele>1018.9999999999999</ele><time>2026-04-27T10:35:12Z</time></trkpt><trkpt lat="42.08146062191941" lon="13.610088455525153"><ele>1017.0</ele><time>2026-04-27T10:35:13Z</time></trkpt><trkpt lat="42.08138100085355" lon="13.610133732393288"><ele>1015.0</ele><time>2026-04-27T10:35:14Z</time></trkpt><trkpt lat="42.08129401409043" lon="13.610197045935495"><ele>1013.0</ele><time>2026-04-27T10:35:15Z</time></trkpt><trkpt lat="42.08122834247517" lon="13.610240139643144"><ele>1010.9999999999999</ele><time>2026-04-27T10:35:16Z</time></trkpt><trkpt lat="42.08116614037874" lon="13.610268372227175"><ele>1009.0</ele><time>2026-04-27T10:35:17Z</time></trkpt><trkpt lat="42.08105537204422" lon="13.61028029180172"><ele>1008.9999999999999</ele><time>2026-04-27T10:35:19Z</time></trkpt><trkpt lat="42.08097766947625" lon="13.610248986633623"><ele>1009.0</ele><time>2026-04-27T10:35:20Z</time></trkpt><trkpt lat="42.08090943563662" lon="13.610228823962455"><ele>1009.0</ele><time>2026-04-27T10:35:21Z</time></trkpt><trkpt lat="42.08082351166327" lon="13.610209632488651"><ele>1009.0</ele><time>2026-04-27T10:35:22Z</time></trkpt><trkpt lat="42.08074338871144" lon="13.610202479735356"><ele>1008.9999999999999</ele><time>2026-04-27T10:35:23Z</time></trkpt><trkpt lat="42.08067317436406" lon="13.610220718734166"><ele>1009.0</ele><time>2026-04-27T10:35:24Z</time></trkpt><trkpt lat="42.080600110747966" lon="13.610232924478556"><ele>1007.0</ele><time>2026-04-27T10:35:25Z</time></trkpt><trkpt lat="42.08050148567815" lon="13.610264778364725"><ele>1005.0000000000001</ele><time>2026-04-27T10:35:26Z</time></trkpt><trkpt lat="42.08040097693303" lon="13.610326576013845"><ele>1003.0000000000001</ele><time>2026-04-27T10:35:27Z</time></trkpt><trkpt lat="42.08030945719473" lon="13.610409088031558"><ele>1001.0</ele><time>2026-04-27T10:35:28Z</time></trkpt><trkpt lat="42.080214729717724" lon="13.610345267755013"><ele>999.0</ele><time>2026-04-27T10:35:29Z</time></trkpt><trkpt lat="42.080130639659735" lon="13.6103549384488"><ele>999.0</ele><time>2026-04-27T10:35:30Z</time></trkpt><trkpt lat="42.08004989971816" lon="13.610338746461656"><ele>999.0000000000001</ele><time>2026-04-27T10:35:31Z</time></trkpt><trkpt lat="42.079961090022266" lon="13.61032918484261"><ele>999.0000000000001</ele><time>2026-04-27T10:35:32Z</time></trkpt><trkpt lat="42.07985299610565" lon="13.610357823322984"><ele>999.0</ele><time>2026-04-27T10:35:33Z</time></trkpt><trkpt lat="42.07974775512715" lon="13.610395551660664"><ele>999.0</ele><time>2026-04-27T10:35:34Z</time></trkpt><trkpt lat="42.079659995255234" lon="13.610435859952826"><ele>996.4000000000001</ele><time>2026-04-27T10:35:35Z</time></trkpt><trkpt lat="42.07958346942297" lon="13.610452323309218"><ele>993.8000000000001</ele><time>2026-04-27T10:35:36Z</time></trkpt><trkpt lat="42.0794459964867" lon="13.610428622741445"><ele>991.1999999999999</ele><time>2026-04-27T10:35:38Z</time></trkpt><trkpt lat="42.079368393127545" lon="13.61038020235366"><ele>988.5999999999999</ele><time>2026-04-27T10:35:39Z</time></trkpt><trkpt lat="42.07927670826983" lon="13.610317519775716"><ele>986.0</ele><time>2026-04-27T10:35:40Z</time></trkpt><trkpt lat="42.07917332529368" lon="13.61028606768042"><ele>983.5000000000001</ele><time>2026-04-27T10:35:41Z</time></trkpt><trkpt lat="42.079078707461946" lon="13.610253244328353"><ele>981.0</ele><time>2026-04-27T10:35:42Z</time></trkpt><trkpt lat="42.079001145910134" lon="13.610238507711516"><ele>978.5</ele><time>2026-04-27T10:35:43Z</time></trkpt><trkpt lat="42.078926244147866" lon="13.610233803518861"><ele>976.0</ele><time>2026-04-27T10:35:44Z</time></trkpt><trkpt lat="42.078841407923704" lon="13.61023946931554"><ele>973.5000000000001</ele><time>2026-04-27T10:35:45Z</time></trkpt><trkpt lat="42.07874381461029" lon="13.610262052653448"><ele>971.0</ele><time>2026-04-27T10:35:46Z</time></trkpt><trkpt lat="42.0786485503722" lon="13.610276374629217"><ele>971.0</ele><time>2026-04-27T10:35:47Z</time></trkpt><trkpt lat="42.0785515855912" lon="13.610261019866986"><ele>970.9999999999999</ele><time>2026-04-27T10:35:48Z</time></trkpt><trkpt lat="42.078446690288025" lon="13.610229348349066"><ele>970.9999999999999</ele><time>2026-04-27T10:35:49Z</time></trkpt><trkpt lat="42.07834663975456" lon="13.610206099902493"><ele>971.0</ele><time>2026-04-27T10:35:50Z</time></trkpt><trkpt lat="42.078252213446966" lon="13.610204824519132"><ele>971.0</ele><time>2026-04-27T10:35:51Z</time></trkpt><trkpt lat="42.078167544371915" lon="13.61021781614368"><ele>969.0</ele><time>2026-04-27T10:35:52Z</time></trkpt><trkpt lat="42.07807753104937" lon="13.610257611503993"><ele>966.9999999999999</ele><time>2026-04-27T10:35:53Z</time></trkpt><trkpt lat="42.07798853703547" lon="13.610308350944585"><ele>964.9999999999999</ele><time>2026-04-27T10:35:54Z</time></trkpt><trkpt lat="42.07789526786651" lon="13.610325997994462"><ele>963.0</ele><time>2026-04-27T10:35:55Z</time></trkpt><trkpt lat="42.07779100329365" lon="13.610303062902524"><ele>961.0</ele><time>2026-04-27T10:35:56Z</time></trkpt><trkpt lat="42.07768936275125" lon="13.61027488413709"><ele>960.9999999999999</ele><time>2026-04-27T10:35:57Z</time></trkpt><trkpt lat="42.077602768150946" lon="13.610279712434215"><ele>961.0</ele><time>2026-04-27T10:35:58Z</time></trkpt><trkpt lat="42.07752578426428" lon="13.610310495223832"><ele>961.0</ele><time>2026-04-27T10:35:59Z</time></trkpt><trkpt lat="42.07744297014423" lon="13.610341207002152"><ele>961.0</ele><time>2026-04-27T10:36:00Z</time></trkpt><trkpt lat="42.07736051135627" lon="13.610340911911734"><ele>960.9999999999999</ele><time>2026-04-27T10:36:01Z</time></trkpt><trkpt lat="42.077277071759006" lon="13.610342517252162"><ele>961.0</ele><time>2026-04-27T10:36:02Z</time></trkpt><trkpt lat="42.07719457020574" lon="13.610376380127125"><ele>958.1999999999999</ele><time>2026-04-27T10:36:03Z</time></trkpt><trkpt lat="42.077106588035925" lon="13.61042657065568"><ele>955.3999999999999</ele><time>2026-04-27T10:36:04Z</time></trkpt><trkpt lat="42.0770212950312" lon="13.61045375437334"><ele>952.6</ele><time>2026-04-27T10:36:05Z</time></trkpt><trkpt lat="42.07694324212332" lon="13.610430955033594"><ele>949.8</ele><time>2026-04-27T10:36:06Z</time></trkpt><trkpt lat="42.076842599539496" lon="13.610400771096653"><ele>947.0</ele><time>2026-04-27T10:36:07Z</time></trkpt><trkpt lat="42.076738036016096" lon="13.610399347368526"><ele>947.0000000000001</ele><time>2026-04-27T10:36:08Z</time></trkpt><trkpt lat="42.0766411957132" lon="13.61042328916814"><ele>947.0</ele><time>2026-04-27T10:36:09Z</time></trkpt><trkpt lat="42.07653530281698" lon="13.610421961994906"><ele>947.0</ele><time>2026-04-27T10:36:10Z</time></trkpt><trkpt lat="42.0764538253552" lon="13.610419705340956"><ele>947.0</ele><time>2026-04-27T10:36:11Z</time></trkpt><trkpt lat="42.07637601280504" lon="13.610416024208217"><ele>947.0000000000001</ele><time>2026-04-27T10:36:12Z</time></trkpt><trkpt lat="42.076303570694236" lon="13.610429215659488"><ele>947.0</ele><time>2026-04-27T10:36:13Z</time></trkpt><trkpt lat="42.07623851772758" lon="13.61044913201121"><ele>944.3333333333334</ele><time>2026-04-27T10:36:14Z</time></trkpt><trkpt lat="42.07616529640907" lon="13.610470132784867"><ele>941.6666666666667</ele><time>2026-04-27T10:36:15Z</time></trkpt><trkpt lat="42.076104743515096" lon="13.61051736836927"><ele>939.0</ele><time>2026-04-27T10:36:16Z</time></trkpt><trkpt lat="42.07604455670431" lon="13.610601175006103"><ele>936.3333333333333</ele><time>2026-04-27T10:36:17Z</time></trkpt><trkpt lat="42.0759783465723" lon="13.610685916764972"><ele>933.6666666666666</ele><time>2026-04-27T10:36:18Z</time></trkpt><trkpt lat="42.075931894754206" lon="13.610743325089235"><ele>931.0</ele><time>2026-04-27T10:36:19Z</time></trkpt><trkpt lat="42.075876749577674" lon="13.610804520866376"><ele>931.0</ele><time>2026-04-27T10:36:20Z</time></trkpt><trkpt lat="42.07579679788641" lon="13.610856399962579"><ele>930.9999999999999</ele><time>2026-04-27T10:36:21Z</time></trkpt><trkpt lat="42.07576385877423" lon="13.610960304060633"><ele>930.9999999999999</ele><time>2026-04-27T10:36:22Z</time></trkpt><trkpt lat="42.07565891533675" lon="13.611057193179708"><ele>931.0</ele><time>2026-04-27T10:36:24Z</time></trkpt><trkpt lat="42.075607023638455" lon="13.611107412017287"><ele>931.0</ele><time>2026-04-27T10:36:25Z</time></trkpt><trkpt lat="42.07550370051414" lon="13.611243560072323"><ele>928.4</ele><time>2026-04-27T10:36:27Z</time></trkpt><trkpt lat="42.07542271816149" lon="13.611303765067586"><ele>925.8</ele><time>2026-04-27T10:36:28Z</time></trkpt><trkpt lat="42.07533920011244" lon="13.611353140536595"><ele>923.1999999999999</ele><time>2026-04-27T10:36:29Z</time></trkpt><trkpt lat="42.075250582105774" lon="13.611381204171812"><ele>920.5999999999999</ele><time>2026-04-27T10:36:30Z</time></trkpt><trkpt lat="42.07513493738867" lon="13.61132667065288"><ele>918.0</ele><time>2026-04-27T10:36:31Z</time></trkpt><trkpt lat="42.075060962849946" lon="13.611283265136038"><ele>918.0</ele><time>2026-04-27T10:36:32Z</time></trkpt><trkpt lat="42.07499259597765" lon="13.61128567178787"><ele>918.0</ele><time>2026-04-27T10:36:33Z</time></trkpt><trkpt lat="42.07488143593795" lon="13.611273789940114"><ele>918.0</ele><time>2026-04-27T10:36:34Z</time></trkpt><trkpt lat="42.074754606724184" lon="13.611257837588115"><ele>918.0</ele><time>2026-04-27T10:36:35Z</time></trkpt><trkpt lat="42.07463147563273" lon="13.611222292944378"><ele>918.0</ele><time>2026-04-27T10:36:36Z</time></trkpt><trkpt lat="42.074506192131466" lon="13.611163260728299"><ele>915.75</ele><time>2026-04-27T10:36:37Z</time></trkpt><trkpt lat="42.07437594007619" lon="13.611095639423612"><ele>913.5</ele><time>2026-04-27T10:36:38Z</time></trkpt><trkpt lat="42.074244891211535" lon="13.611025679777919"><ele>911.25</ele><time>2026-04-27T10:36:39Z</time></trkpt><trkpt lat="42.07410838900549" lon="13.610948522924994"><ele>909.0</ele><time>2026-04-27T10:36:40Z</time></trkpt><trkpt lat="42.073976551181524" lon="13.610867874143615"><ele>907.6</ele><time>2026-04-27T10:36:41Z</time></trkpt><trkpt lat="42.073861882211546" lon="13.610788380456372"><ele>906.2</ele><time>2026-04-27T10:36:42Z</time></trkpt><trkpt lat="42.07376551091386" lon="13.610712003723798"><ele>904.8000000000001</ele><time>2026-04-27T10:36:43Z</time></trkpt><trkpt lat="42.0736822960678" lon="13.610653860821664"><ele>903.4000000000001</ele><time>2026-04-27T10:36:44Z</time></trkpt><trkpt lat="42.073604500242325" lon="13.610606984362036"><ele>902.0</ele><time>2026-04-27T10:36:45Z</time></trkpt><trkpt lat="42.07354837791837" lon="13.610539177646732"><ele>902.0</ele><time>2026-04-27T10:36:46Z</time></trkpt><trkpt lat="42.0734771781765" lon="13.610462318020593"><ele>902.0</ele><time>2026-04-27T10:36:47Z</time></trkpt><trkpt lat="42.07338133183521" lon="13.610363672623143"><ele>902.0</ele><time>2026-04-27T10:36:48Z</time></trkpt><trkpt lat="42.07327631741439" lon="13.610257574404068"><ele>902.0</ele><time>2026-04-27T10:36:49Z</time></trkpt><trkpt lat="42.07315248826557" lon="13.610145334704239"><ele>898.3333333333334</ele><time>2026-04-27T10:36:50Z</time></trkpt><trkpt lat="42.07302742934554" lon="13.610012853500216"><ele>894.6666666666667</ele><time>2026-04-27T10:36:51Z</time></trkpt><trkpt lat="42.07291150383408" lon="13.609869118667143"><ele>891.0</ele><time>2026-04-27T10:36:52Z</time></trkpt><trkpt lat="42.072800553228156" lon="13.609739228836485"><ele>891.0</ele><time>2026-04-27T10:36:53Z</time></trkpt><trkpt lat="42.07268564732516" lon="13.60959939713904"><ele>891.0</ele><time>2026-04-27T10:36:54Z</time></trkpt><trkpt lat="42.07257387720707" lon="13.609467502530858"><ele>891.0</ele><time>2026-04-27T10:36:55Z</time></trkpt><trkpt lat="42.07246533456642" lon="13.609325440982461"><ele>889.0</ele><time>2026-04-27T10:36:56Z</time></trkpt><trkpt lat="42.07237418322126" lon="13.609213998610311"><ele>886.9999999999999</ele><time>2026-04-27T10:36:57Z</time></trkpt><trkpt lat="42.07230020646594" lon="13.609134015999569"><ele>884.9999999999999</ele><time>2026-04-27T10:36:58Z</time></trkpt><trkpt lat="42.07223938257455" lon="13.609055623274271"><ele>883.0</ele><time>2026-04-27T10:36:59Z</time></trkpt><trkpt lat="42.07217356736768" lon="13.6089905939129"><ele>881.0</ele><time>2026-04-27T10:37:00Z</time></trkpt><trkpt lat="42.07219056253728" lon="13.608798343797204"><ele>880.0</ele><time>2026-04-27T10:37:01Z</time></trkpt><trkpt lat="42.0721451965081" lon="13.60860362837084"><ele>879.0</ele><time>2026-04-27T10:37:02Z</time></trkpt><trkpt lat="42.072117865583" lon="13.608382840388852"><ele>878.0</ele><time>2026-04-27T10:37:03Z</time></trkpt><trkpt lat="42.072086594539925" lon="13.608175128288936"><ele>878.0</ele><time>2026-04-27T10:37:04Z</time></trkpt><trkpt lat="42.07206743232604" lon="13.60798067506614"><ele>878.0</ele><time>2026-04-27T10:37:05Z</time></trkpt><trkpt lat="42.07206812969399" lon="13.607774942979656"><ele>878.0</ele><time>2026-04-27T10:37:06Z</time></trkpt><trkpt lat="42.07207162689102" lon="13.607578549654553"><ele>878.0</ele><time>2026-04-27T10:37:07Z</time></trkpt><trkpt lat="42.072073673854895" lon="13.607396152322917"><ele>876.5</ele><time>2026-04-27T10:37:08Z</time></trkpt><trkpt lat="42.07207268512937" lon="13.607214703595226"><ele>875.0</ele><time>2026-04-27T10:37:09Z</time></trkpt><trkpt lat="42.072064428954526" lon="13.607041792056288"><ele>873.5</ele><time>2026-04-27T10:37:10Z</time></trkpt><trkpt lat="42.07204029155056" lon="13.606887651492322"><ele>872.0</ele><time>2026-04-27T10:37:11Z</time></trkpt><trkpt lat="42.071985110455664" lon="13.606732151648615"><ele>869.0</ele><time>2026-04-27T10:37:12Z</time></trkpt><trkpt lat="42.07189568640317" lon="13.606574298292765"><ele>866.0</ele><time>2026-04-27T10:37:13Z</time></trkpt><trkpt lat="42.07177762079173" lon="13.6064176702434"><ele>863.0</ele><time>2026-04-27T10:37:13.999Z</time></trkpt><trkpt lat="42.07165689653101" lon="13.60629345282327"><ele>861.75</ele><time>2026-04-27T10:37:14.999Z</time></trkpt><trkpt lat="42.07155192091651" lon="13.60618995329594"><ele>860.5</ele><time>2026-04-27T10:37:15.999Z</time></trkpt><trkpt lat="42.071436829304155" lon="13.606104209685647"><ele>859.25</ele><time>2026-04-27T10:37:16.999Z</time></trkpt><trkpt lat="42.071304877341596" lon="13.606026909629337"><ele>858.0</ele><time>2026-04-27T10:37:17.999Z</time></trkpt><trkpt lat="42.07117201794488" lon="13.605956392622797"><ele>854.6666666666667</ele><time>2026-04-27T10:37:18.999Z</time></trkpt><trkpt lat="42.07106021975976" lon="13.605849715856175"><ele>851.3333333333334</ele><time>2026-04-27T10:37:19.999Z</time></trkpt><trkpt lat="42.070937720194344" lon="13.605725574026028"><ele>848.0</ele><time>2026-04-27T10:37:20.999Z</time></trkpt><trkpt lat="42.070802464415486" lon="13.605592666929605"><ele>844.3333333333334</ele><time>2026-04-27T10:37:21.999Z</time></trkpt><trkpt lat="42.07064558522033" lon="13.605482164641662"><ele>840.6666666666667</ele><time>2026-04-27T10:37:22.999Z</time></trkpt><trkpt lat="42.07051427427449" lon="13.605338063041687"><ele>837.0</ele><time>2026-04-27T10:37:23.999Z</time></trkpt><trkpt lat="42.070380265571615" lon="13.605213575026966"><ele>835.3333333333333</ele><time>2026-04-27T10:37:24.999Z</time></trkpt><trkpt lat="42.07025520622453" lon="13.605094795590121"><ele>833.6666666666666</ele><time>2026-04-27T10:37:25.999Z</time></trkpt><trkpt lat="42.07011794554576" lon="13.604985788877114"><ele>832.0</ele><time>2026-04-27T10:37:26.999Z</time></trkpt><trkpt lat="42.06999081428922" lon="13.604858565593755"><ele>828.0</ele><time>2026-04-27T10:37:27.999Z</time></trkpt><trkpt lat="42.069863428890066" lon="13.60473177343304"><ele>824.0</ele><time>2026-04-27T10:37:28.999Z</time></trkpt><trkpt lat="42.06972802463966" lon="13.604607125171773"><ele>820.0</ele><time>2026-04-27T10:37:29.999Z</time></trkpt><trkpt lat="42.06960105687853" lon="13.604468442085928"><ele>817.6666666666666</ele><time>2026-04-27T10:37:30.999Z</time></trkpt><trkpt lat="42.06945563353156" lon="13.604358735015353"><ele>815.3333333333333</ele><time>2026-04-27T10:37:31.999Z</time></trkpt><trkpt lat="42.06931882201685" lon="13.60422887033292"><ele>813.0</ele><time>2026-04-27T10:37:33Z</time></trkpt><trkpt lat="42.06918415353482" lon="13.604077916182945"><ele>809.6666666666667</ele><time>2026-04-27T10:37:34Z</time></trkpt><trkpt lat="42.069062049238134" lon="13.603944774970435"><ele>806.3333333333334</ele><time>2026-04-27T10:37:35Z</time></trkpt><trkpt lat="42.06893805922102" lon="13.603796412528103"><ele>803.0</ele><time>2026-04-27T10:37:36Z</time></trkpt><trkpt lat="42.068822889587615" lon="13.603678967369849"><ele>804.0</ele><time>2026-04-27T10:37:37Z</time></trkpt><trkpt lat="42.06871673056589" lon="13.603563746353625"><ele>805.0</ele><time>2026-04-27T10:37:38Z</time></trkpt><trkpt lat="42.068644420134476" lon="13.60347568368769"><ele>806.0</ele><time>2026-04-27T10:37:39Z</time></trkpt><trkpt lat="42.06857956780673" lon="13.603411168448474"><ele>807.0</ele><time>2026-04-27T10:37:40Z</time></trkpt><trkpt lat="42.06848321854666" lon="13.603331797080717"><ele>808.0</ele><time>2026-04-27T10:37:42Z</time></trkpt><trkpt lat="42.068376898706816" lon="13.603358058977621"><ele>808.0</ele><time>2026-04-27T10:37:44Z</time></trkpt><trkpt lat="42.06829562341654" lon="13.60342722818025"><ele>808.0</ele><time>2026-04-27T10:37:45Z</time></trkpt><trkpt lat="42.06820662079492" lon="13.603506372548354"><ele>808.0</ele><time>2026-04-27T10:37:46Z</time></trkpt><trkpt lat="42.068120357341606" lon="13.603568570696345"><ele>808.0</ele><time>2026-04-27T10:37:47Z</time></trkpt><trkpt lat="42.06800649117002" lon="13.603534872029286"><ele>808.0</ele><time>2026-04-27T10:37:48Z</time></trkpt><trkpt lat="42.067876799522544" lon="13.603529914372341"><ele>810.25</ele><time>2026-04-27T10:37:49Z</time></trkpt><trkpt lat="42.067739354862425" lon="13.603521544294763"><ele>812.5</ele><time>2026-04-27T10:37:50Z</time></trkpt><trkpt lat="42.06760665815701" lon="13.60351122439982"><ele>814.75</ele><time>2026-04-27T10:37:51Z</time></trkpt><trkpt lat="42.06746109856541" lon="13.60350241474753"><ele>817.0</ele><time>2026-04-27T10:37:52Z</time></trkpt><trkpt lat="42.067308660558055" lon="13.60349672466805"><ele>818.3333333333333</ele><time>2026-04-27T10:37:53Z</time></trkpt><trkpt lat="42.06715039986338" lon="13.603500492712088"><ele>819.6666666666667</ele><time>2026-04-27T10:37:54Z</time></trkpt><trkpt lat="42.06699992153903" lon="13.60347056071701"><ele>821.0</ele><time>2026-04-27T10:37:55Z</time></trkpt><trkpt lat="42.066860460444104" lon="13.603433208067301"><ele>821.0</ele><time>2026-04-27T10:37:56Z</time></trkpt><trkpt lat="42.0667226160121" lon="13.603381197543527"><ele>821.0</ele><time>2026-04-27T10:37:57Z</time></trkpt><trkpt lat="42.066579598678466" lon="13.60332004269826"><ele>821.0</ele><time>2026-04-27T10:37:58Z</time></trkpt><trkpt lat="42.066442475955114" lon="13.603285817933184"><ele>821.0</ele><time>2026-04-27T10:37:59Z</time></trkpt><trkpt lat="42.06631592115185" lon="13.60327843979285"><ele>822.75</ele><time>2026-04-27T10:38:00Z</time></trkpt><trkpt lat="42.066187522867175" lon="13.603292043868779"><ele>824.5</ele><time>2026-04-27T10:38:01Z</time></trkpt><trkpt lat="42.0660571831946" lon="13.603294588883422"><ele>826.25</ele><time>2026-04-27T10:38:02Z</time></trkpt><trkpt lat="42.06594033889579" lon="13.603309149308801"><ele>828.0</ele><time>2026-04-27T10:38:03Z</time></trkpt><trkpt lat="42.065850362122475" lon="13.603343688944504"><ele>828.0</ele><time>2026-04-27T10:38:04Z</time></trkpt><trkpt lat="42.065786397785324" lon="13.603330506850067"><ele>828.0</ele><time>2026-04-27T10:38:05Z</time></trkpt><trkpt lat="42.0657264628068" lon="13.603253532223368"><ele>828.0</ele><time>2026-04-27T10:38:07Z</time></trkpt><trkpt lat="42.06571640351953" lon="13.603093573521514"><ele>828.0</ele><time>2026-04-27T10:38:09Z</time></trkpt><trkpt lat="42.065704702934745" lon="13.60299049067344"><ele>828.0</ele><time>2026-04-27T10:38:10Z</time></trkpt><trkpt lat="42.06568686488012" lon="13.602890675411938"><ele>828.0</ele><time>2026-04-27T10:38:11Z</time></trkpt><trkpt lat="42.06566834148738" lon="13.602745937179417"><ele>828.75</ele><time>2026-04-27T10:38:13Z</time></trkpt><trkpt lat="42.06570222884207" lon="13.602622933742756"><ele>829.5</ele><time>2026-04-27T10:38:15Z</time></trkpt><trkpt lat="42.06575684516561" lon="13.60255068200699"><ele>830.25</ele><time>2026-04-27T10:38:17Z</time></trkpt><trkpt lat="42.06587757703317" lon="13.6025714252156"><ele>831.0</ele><time>2026-04-27T10:38:19Z</time></trkpt><trkpt lat="42.065865095585636" lon="13.602245162553832"><ele>831.0</ele><time>2026-04-27T10:40:22Z</time></trkpt><trkpt lat="42.06588868286028" lon="13.602154917942622"><ele>831.0</ele><time>2026-04-27T10:40:23Z</time></trkpt><trkpt lat="42.065916855282346" lon="13.602049661559494"><ele>831.0</ele><time>2026-04-27T10:40:24Z</time></trkpt><trkpt lat="42.06594137733362" lon="13.601936720069427"><ele>831.0</ele><time>2026-04-27T10:40:25Z</time></trkpt><trkpt lat="42.065966807265355" lon="13.601821304564561"><ele>831.0</ele><time>2026-04-27T10:40:26Z</time></trkpt><trkpt lat="42.065996945346384" lon="13.601678828946843"><ele>831.0</ele><time>2026-04-27T10:40:27Z</time></trkpt><trkpt lat="42.06602515043199" lon="13.601529618167541"><ele>830.5</ele><time>2026-04-27T10:40:28Z</time></trkpt><trkpt lat="42.066045386293894" lon="13.601376542763719"><ele>830.0</ele><time>2026-04-27T10:40:29Z</time></trkpt><trkpt lat="42.06605366738885" lon="13.601217996554784"><ele>829.5</ele><time>2026-04-27T10:40:30Z</time></trkpt><trkpt lat="42.066053639111644" lon="13.601060180278475"><ele>829.0</ele><time>2026-04-27T10:40:31Z</time></trkpt><trkpt lat="42.06605761004105" lon="13.600913921731946"><ele>829.0</ele><time>2026-04-27T10:40:32Z</time></trkpt><trkpt lat="42.06606837974679" lon="13.60078194056618"><ele>829.0</ele><time>2026-04-27T10:40:33Z</time></trkpt><trkpt lat="42.066082907075206" lon="13.600667840172884"><ele>829.0</ele><time>2026-04-27T10:40:34Z</time></trkpt><trkpt lat="42.06609547390274" lon="13.60057555739188"><ele>829.0</ele><time>2026-04-27T10:40:35Z</time></trkpt><trkpt lat="42.06598065868067" lon="13.60064046003623"><ele>829.0</ele><time>2026-04-27T10:40:40Z</time></trkpt><trkpt lat="42.065924281291096" lon="13.600796441415781"><ele>829.0</ele><time>2026-04-27T10:40:42Z</time></trkpt><trkpt lat="42.06590726684289" lon="13.600887264891803"><ele>829.0</ele><time>2026-04-27T10:40:43Z</time></trkpt><trkpt lat="42.065850666683" lon="13.601009208485866"><ele>829.0</ele><time>2026-04-27T10:40:45Z</time></trkpt><trkpt lat="42.06580664215126" lon="13.60112369128924"><ele>829.0</ele><time>2026-04-27T10:40:48Z</time></trkpt><trkpt lat="42.06580587092419" lon="13.600946563875164"><ele>829.0</ele><time>2026-04-27T10:40:59Z</time></trkpt><trkpt lat="42.06574938817361" lon="13.600885706799378"><ele>829.0</ele><time>2026-04-27T10:41:01Z</time></trkpt><trkpt lat="42.065681671381064" lon="13.600890320678856"><ele>829.0</ele><time>2026-04-27T10:41:03Z</time></trkpt><trkpt lat="42.065782138821014" lon="13.60114202432175"><ele>829.0</ele><time>2026-04-27T10:41:05Z</time></trkpt><trkpt lat="42.065458587384875" lon="13.601081545122993"><ele>827.0</ele><time>2026-04-27T10:41:11Z</time></trkpt><trkpt lat="42.065386447488564" lon="13.601060743687786"><ele>825.0</ele><time>2026-04-27T10:41:17Z</time></trkpt><trkpt lat="42.06535227553003" lon="13.601225612099391"><ele>823.0</ele><time>2026-04-27T10:41:19Z</time></trkpt><trkpt lat="42.06533541930524" lon="13.601321705945292"><ele>821.0</ele><time>2026-04-27T10:41:20Z</time></trkpt><trkpt lat="42.065292323510945" lon="13.60145066036529"><ele>819.0</ele><time>2026-04-27T10:41:22Z</time></trkpt><trkpt lat="42.065218391728756" lon="13.60144683067313"><ele>818.8000000000001</ele><time>2026-04-27T10:41:25Z</time></trkpt><trkpt lat="42.06515623633273" lon="13.601398829342145"><ele>818.6</ele><time>2026-04-27T10:41:26Z</time></trkpt><trkpt lat="42.06508410900321" lon="13.601322512687645"><ele>818.4</ele><time>2026-04-27T10:41:27Z</time></trkpt><trkpt lat="42.065003032303075" lon="13.601265956165522"><ele>818.2</ele><time>2026-04-27T10:41:28Z</time></trkpt><trkpt lat="42.06491950845674" lon="13.601226130656238"><ele>818.0</ele><time>2026-04-27T10:41:29Z</time></trkpt><trkpt lat="42.06481658582437" lon="13.601175614414778"><ele>816.5999999999999</ele><time>2026-04-27T10:41:30Z</time></trkpt><trkpt lat="42.06470958750957" lon="13.60113601725209"><ele>815.1999999999999</ele><time>2026-04-27T10:41:31Z</time></trkpt><trkpt lat="42.06462015989931" lon="13.601092294561322"><ele>813.8</ele><time>2026-04-27T10:41:32Z</time></trkpt><trkpt lat="42.06452994551168" lon="13.601053381166555"><ele>812.4</ele><time>2026-04-27T10:41:33Z</time></trkpt><trkpt lat="42.064461440626594" lon="13.6010089109354"><ele>811.0</ele><time>2026-04-27T10:41:34Z</time></trkpt><trkpt lat="42.064363043984216" lon="13.600952998809618"><ele>811.0</ele><time>2026-04-27T10:41:36Z</time></trkpt><trkpt lat="42.064266350347154" lon="13.600919672808272"><ele>811.0</ele><time>2026-04-27T10:41:38Z</time></trkpt><trkpt lat="42.064172630714715" lon="13.600860357931921"><ele>811.0</ele><time>2026-04-27T10:41:40Z</time></trkpt><trkpt lat="42.06420339596978" lon="13.600714715103374"><ele>811.0</ele><time>2026-04-27T10:41:43Z</time></trkpt><trkpt lat="42.06423689192856" lon="13.600623950841268"><ele>811.0</ele><time>2026-04-27T10:41:44Z</time></trkpt><trkpt lat="42.064263597338474" lon="13.60050479207678"><ele>811.0</ele><time>2026-04-27T10:41:45Z</time></trkpt><trkpt lat="42.064281493915715" lon="13.600386456683495"><ele>811.0</ele><time>2026-04-27T10:41:46Z</time></trkpt><trkpt lat="42.064299842914686" lon="13.60027605668873"><ele>811.0</ele><time>2026-04-27T10:41:47Z</time></trkpt><trkpt lat="42.06430917655204" lon="13.600173436020551"><ele>811.0</ele><time>2026-04-27T10:41:49Z</time></trkpt><trkpt lat="42.06426289147035" lon="13.600115758620358"><ele>811.0</ele><time>2026-04-27T10:41:52Z</time></trkpt><trkpt lat="42.06411504966894" lon="13.600081876864108"><ele>809.4999999999999</ele><time>2026-04-27T10:41:54Z</time></trkpt><trkpt lat="42.06400746795709" lon="13.600048651825293"><ele>808.0</ele><time>2026-04-27T10:41:56Z</time></trkpt><trkpt lat="42.063902875861295" lon="13.600021497249996"><ele>806.5</ele><time>2026-04-27T10:41:58Z</time></trkpt><trkpt lat="42.063840136936584" lon="13.600002248294148"><ele>805.0</ele><time>2026-04-27T10:41:59Z</time></trkpt><trkpt lat="42.06377623458532" lon="13.599977261538612"><ele>803.4999999999999</ele><time>2026-04-27T10:42:00Z</time></trkpt><trkpt lat="42.063713381371805" lon="13.599931750247078"><ele>802.0</ele><time>2026-04-27T10:42:02Z</time></trkpt><trkpt lat="42.06374244117604" lon="13.599792032293513"><ele>802.0</ele><time>2026-04-27T10:42:05Z</time></trkpt><trkpt lat="42.063793121999026" lon="13.59971718162927"><ele>802.0</ele><time>2026-04-27T10:42:07Z</time></trkpt><trkpt lat="42.06383849145684" lon="13.599552739303684"><ele>802.0</ele><time>2026-04-27T10:42:09Z</time></trkpt><trkpt lat="42.063867590995066" lon="13.599437138426724"><ele>802.0</ele><time>2026-04-27T10:42:10Z</time></trkpt><trkpt lat="42.06390452833422" lon="13.59934241694021"><ele>802.0</ele><time>2026-04-27T10:42:11Z</time></trkpt><trkpt lat="42.06393530004062" lon="13.599250478117135"><ele>800.8</ele><time>2026-04-27T10:42:12Z</time></trkpt><trkpt lat="42.06396261674687" lon="13.599156797122202"><ele>799.6</ele><time>2026-04-27T10:42:13Z</time></trkpt><trkpt lat="42.063992420693225" lon="13.599066377627286"><ele>798.4</ele><time>2026-04-27T10:42:14Z</time></trkpt><trkpt lat="42.06402054718219" lon="13.598969977558722"><ele>797.1999999999999</ele><time>2026-04-27T10:42:16Z</time></trkpt><trkpt lat="42.063874951282656" lon="13.598918597358391"><ele>796.0</ele><time>2026-04-27T10:42:21Z</time></trkpt><trkpt lat="42.06379499733344" lon="13.598943860987418"><ele>795.9999999999999</ele><time>2026-04-27T10:42:22Z</time></trkpt><trkpt lat="42.06379017284806" lon="13.59878564842253"><ele>796.0</ele><time>2026-04-27T10:42:25Z</time></trkpt><trkpt lat="42.063783985749005" lon="13.598687256734934"><ele>796.0</ele><time>2026-04-27T10:42:26Z</time></trkpt><trkpt lat="42.06379434314518" lon="13.598588315373599"><ele>796.0</ele><time>2026-04-27T10:42:27Z</time></trkpt><trkpt lat="42.0638162777712" lon="13.598505759706935"><ele>795.9999999999999</ele><time>2026-04-27T10:42:28Z</time></trkpt><trkpt lat="42.063828798565105" lon="13.598371513878286"><ele>796.0</ele><time>2026-04-27T10:42:30Z</time></trkpt><trkpt lat="42.06383293840463" lon="13.598200252642087"><ele>796.4999999999999</ele><time>2026-04-27T10:42:32Z</time></trkpt><trkpt lat="42.0638487168925" lon="13.598052971471592"><ele>797.0</ele><time>2026-04-27T10:42:34Z</time></trkpt><trkpt lat="42.06386147560071" lon="13.597936551388539"><ele>797.5</ele><time>2026-04-27T10:42:36Z</time></trkpt><trkpt lat="42.06395127112667" lon="13.59795856962771"><ele>798.0</ele><time>2026-04-27T10:42:39Z</time></trkpt><trkpt lat="42.06402004459911" lon="13.597969358656806"><ele>798.4999999999999</ele><time>2026-04-27T10:42:40.001Z</time></trkpt><trkpt lat="42.06410584367898" lon="13.597982818605935"><ele>799.0</ele><time>2026-04-27T10:42:41.001Z</time></trkpt><trkpt lat="42.06419429919172" lon="13.59799669532002"><ele>799.0</ele><time>2026-04-27T10:42:42.001Z</time></trkpt><trkpt lat="42.06428356860193" lon="13.59799760733596"><ele>799.0</ele><time>2026-04-27T10:42:43.001Z</time></trkpt><trkpt lat="42.06438382314012" lon="13.598019060555991"><ele>799.0</ele><time>2026-04-27T10:42:44.001Z</time></trkpt><trkpt lat="42.064476978413886" lon="13.59805782948253"><ele>799.0</ele><time>2026-04-27T10:42:45.001Z</time></trkpt><trkpt lat="42.06458789158449" lon="13.598063556708205"><ele>799.0</ele><time>2026-04-27T10:42:46.001Z</time></trkpt><trkpt lat="42.06467272076279" lon="13.598095411990585"><ele>798.9999999999999</ele><time>2026-04-27T10:42:47.001Z</time></trkpt><trkpt lat="42.064768337920405" lon="13.598145972480735"><ele>799.0</ele><time>2026-04-27T10:42:48.001Z</time></trkpt><trkpt lat="42.06485080174249" lon="13.598142386218097"><ele>799.0</ele><time>2026-04-27T10:42:49.001Z</time></trkpt><trkpt lat="42.06493256643007" lon="13.598170568441857"><ele>799.0</ele><time>2026-04-27T10:42:50.001Z</time></trkpt><trkpt lat="42.06500553264935" lon="13.598189415214964"><ele>798.9999999999999</ele><time>2026-04-27T10:42:51.001Z</time></trkpt><trkpt lat="42.0650816859549" lon="13.598228233603729"><ele>799.0</ele><time>2026-04-27T10:42:53.001Z</time></trkpt><trkpt lat="42.06513454363014" lon="13.59831578900508"><ele>800.8000000000001</ele><time>2026-04-27T10:42:55.001Z</time></trkpt><trkpt lat="42.06508999839377" lon="13.598468961186379"><ele>802.6</ele><time>2026-04-27T10:42:56.001Z</time></trkpt><trkpt lat="42.06512096271661" lon="13.598603403748298"><ele>804.4</ele><time>2026-04-27T10:42:58.001Z</time></trkpt><trkpt lat="42.0652245590148" lon="13.598629866566581"><ele>806.2</ele><time>2026-04-27T10:43:00.001Z</time></trkpt><trkpt lat="42.06528833785081" lon="13.598628664944531"><ele>808.0</ele><time>2026-04-27T10:43:01.001Z</time></trkpt><trkpt lat="42.06536550282792" lon="13.598620608287836"><ele>807.9999999999999</ele><time>2026-04-27T10:43:02.001Z</time></trkpt><trkpt lat="42.065449459893884" lon="13.598618079675907"><ele>808.0</ele><time>2026-04-27T10:43:03.001Z</time></trkpt><trkpt lat="42.065528177907964" lon="13.598623114710577"><ele>808.0</ele><time>2026-04-27T10:43:04.001Z</time></trkpt><trkpt lat="42.06561796907382" lon="13.598627142698897"><ele>808.0</ele><time>2026-04-27T10:43:05.001Z</time></trkpt><trkpt lat="42.06569692297977" lon="13.598641848929546"><ele>807.9999999999999</ele><time>2026-04-27T10:43:06.001Z</time></trkpt><trkpt lat="42.06577071015203" lon="13.598643891214415"><ele>808.0</ele><time>2026-04-27T10:43:07.001Z</time></trkpt><trkpt lat="42.06585147157963" lon="13.598646126556224"><ele>809.6666666666666</ele><time>2026-04-27T10:43:08.001Z</time></trkpt><trkpt lat="42.065927821917576" lon="13.598628229145408"><ele>811.3333333333333</ele><time>2026-04-27T10:43:09.001Z</time></trkpt><trkpt lat="42.06600392830171" lon="13.598632204660845"><ele>813.0</ele><time>2026-04-27T10:43:10.001Z</time></trkpt><trkpt lat="42.06608900479447" lon="13.598639606179798"><ele>814.6666666666667</ele><time>2026-04-27T10:43:11.001Z</time></trkpt><trkpt lat="42.06616419825433" lon="13.59864248943098"><ele>816.3333333333334</ele><time>2026-04-27T10:43:12.001Z</time></trkpt><trkpt lat="42.06624660974426" lon="13.598645181993138"><ele>818.0</ele><time>2026-04-27T10:43:13.001Z</time></trkpt><trkpt lat="42.06632300421032" lon="13.59864734569901"><ele>818.0</ele><time>2026-04-27T10:43:14.001Z</time></trkpt><trkpt lat="42.066388720645946" lon="13.598669862558667"><ele>818.0</ele><time>2026-04-27T10:43:15.001Z</time></trkpt><trkpt lat="42.066460590604386" lon="13.598673625392363"><ele>818.0</ele><time>2026-04-27T10:43:16.001Z</time></trkpt><trkpt lat="42.06653325016883" lon="13.598677429604722"><ele>818.0</ele><time>2026-04-27T10:43:19.001Z</time></trkpt><trkpt lat="42.06658476693613" lon="13.598462883596873"><ele>818.0</ele><time>2026-04-27T10:43:35.001Z</time></trkpt><trkpt lat="42.06664075331556" lon="13.598351302883048"><ele>820.2</ele><time>2026-04-27T10:43:37.001Z</time></trkpt><trkpt lat="42.06673148730427" lon="13.598268728850508"><ele>822.4</ele><time>2026-04-27T10:43:39.001Z</time></trkpt><trkpt lat="42.06680742525144" lon="13.59809430392669"><ele>824.6</ele><time>2026-04-27T10:43:41.001Z</time></trkpt><trkpt lat="42.066833641309756" lon="13.597953306156342"><ele>826.8000000000001</ele><time>2026-04-27T10:43:43.001Z</time></trkpt><trkpt lat="42.06688559239204" lon="13.59788973224148"><ele>829.0</ele><time>2026-04-27T10:43:45.001Z</time></trkpt><trkpt lat="42.06698943617448" lon="13.597946750384718"><ele>828.9999999999999</ele><time>2026-04-27T10:43:46.001Z</time></trkpt><trkpt lat="42.06706517014705" lon="13.597927992323582"><ele>829.0</ele><time>2026-04-27T10:43:47.001Z</time></trkpt><trkpt lat="42.06714363226905" lon="13.597924979823867"><ele>829.0</ele><time>2026-04-27T10:43:48.001Z</time></trkpt><trkpt lat="42.06723436671108" lon="13.597930165415496"><ele>829.0</ele><time>2026-04-27T10:43:49.001Z</time></trkpt><trkpt lat="42.06731795641802" lon="13.597962714265407"><ele>828.9999999999999</ele><time>2026-04-27T10:43:50.001Z</time></trkpt><trkpt lat="42.067408138495885" lon="13.597991857824741"><ele>829.0</ele><time>2026-04-27T10:43:51.001Z</time></trkpt><trkpt lat="42.06751114008011" lon="13.598022444463645"><ele>831.2</ele><time>2026-04-27T10:43:52.001Z</time></trkpt><trkpt lat="42.06761850036976" lon="13.598051036311698"><ele>833.4000000000001</ele><time>2026-04-27T10:43:53.001Z</time></trkpt><trkpt lat="42.06772971532152" lon="13.59806152258894"><ele>835.6</ele><time>2026-04-27T10:43:54.001Z</time></trkpt><trkpt lat="42.06783454353132" lon="13.598097008365608"><ele>837.8</ele><time>2026-04-27T10:43:55.001Z</time></trkpt><trkpt lat="42.06794508747239" lon="13.598129652658574"><ele>840.0</ele><time>2026-04-27T10:43:56.001Z</time></trkpt><trkpt lat="42.06805811856691" lon="13.59815543873403"><ele>840.0</ele><time>2026-04-27T10:43:57.001Z</time></trkpt><trkpt lat="42.06817964706952" lon="13.598186187781863"><ele>840.0</ele><time>2026-04-27T10:43:58.001Z</time></trkpt><trkpt lat="42.06830923792815" lon="13.598227245788873"><ele>840.0</ele><time>2026-04-27T10:43:59.001Z</time></trkpt><trkpt lat="42.06843783982121" lon="13.598263649753575"><ele>840.0</ele><time>2026-04-27T10:44:00.001Z</time></trkpt><trkpt lat="42.06856328759765" lon="13.598293127621893"><ele>842.0</ele><time>2026-04-27T10:44:01.001Z</time></trkpt><trkpt lat="42.06869894672246" lon="13.598320389133486"><ele>844.0</ele><time>2026-04-27T10:44:02.001Z</time></trkpt><trkpt lat="42.068839137781765" lon="13.598350662577365"><ele>846.0</ele><time>2026-04-27T10:44:03.001Z</time></trkpt><trkpt lat="42.068977969017915" lon="13.59838489792819"><ele>848.0</ele><time>2026-04-27T10:44:04.001Z</time></trkpt><trkpt lat="42.069096299905866" lon="13.598438238885308"><ele>850.0</ele><time>2026-04-27T10:44:05.001Z</time></trkpt><trkpt lat="42.069196193201556" lon="13.598470057504642"><ele>852.0</ele><time>2026-04-27T10:44:06.001Z</time></trkpt><trkpt lat="42.06928194114528" lon="13.598482742120108"><ele>854.0</ele><time>2026-04-27T10:44:07.001Z</time></trkpt><trkpt lat="42.069342204824615" lon="13.598531406031771"><ele>856.0</ele><time>2026-04-27T10:44:08.001Z</time></trkpt><trkpt lat="42.06932222503138" lon="13.59869112495987"><ele>858.0</ele><time>2026-04-27T10:44:10.001Z</time></trkpt><trkpt lat="42.069300450490516" lon="13.598806578726647"><ele>858.75</ele><time>2026-04-27T10:44:11.001Z</time></trkpt><trkpt lat="42.06928937451493" lon="13.598945848844863"><ele>859.5</ele><time>2026-04-27T10:44:12.001Z</time></trkpt><trkpt lat="42.069273333200705" lon="13.599096981540102"><ele>860.25</ele><time>2026-04-27T10:44:13.001Z</time></trkpt><trkpt lat="42.06927835994804" lon="13.59925785377271"><ele>861.0</ele><time>2026-04-27T10:44:14.001Z</time></trkpt><trkpt lat="42.06928702573854" lon="13.599426350689164"><ele>861.3333333333334</ele><time>2026-04-27T10:44:15.001Z</time></trkpt><trkpt lat="42.06929960811299" lon="13.599567810427915"><ele>861.6666666666667</ele><time>2026-04-27T10:44:16.001Z</time></trkpt><trkpt lat="42.06931676754882" lon="13.599698364115037"><ele>862.0</ele><time>2026-04-27T10:44:17.001Z</time></trkpt><trkpt lat="42.06935151041646" lon="13.599795933869302"><ele>862.3333333333334</ele><time>2026-04-27T10:44:18.001Z</time></trkpt><trkpt lat="42.06937280178667" lon="13.599892634774756"><ele>862.6666666666667</ele><time>2026-04-27T10:44:19.001Z</time></trkpt><trkpt lat="42.06940918651614" lon="13.599962474884844"><ele>863.0</ele><time>2026-04-27T10:44:20.001Z</time></trkpt><trkpt lat="42.06960107867136" lon="13.599893607053398"><ele>863.0</ele><time>2026-04-27T10:44:23.001Z</time></trkpt><trkpt lat="42.06967917927041" lon="13.599824529552416"><ele>863.0</ele><time>2026-04-27T10:44:24.001Z</time></trkpt><trkpt lat="42.06978200878757" lon="13.599789066289937"><ele>863.0</ele><time>2026-04-27T10:44:25.001Z</time></trkpt><trkpt lat="42.069889723060825" lon="13.599764456312288"><ele>863.0</ele><time>2026-04-27T10:44:26.001Z</time></trkpt><trkpt lat="42.07001355800926" lon="13.59975694720034"><ele>863.0</ele><time>2026-04-27T10:44:27.001Z</time></trkpt><trkpt lat="42.070150316791" lon="13.599729332388769"><ele>864.75</ele><time>2026-04-27T10:44:28.001Z</time></trkpt><trkpt lat="42.07028610390665" lon="13.599729834448555"><ele>866.5</ele><time>2026-04-27T10:44:29.001Z</time></trkpt><trkpt lat="42.07042501098628" lon="13.599710763222767"><ele>868.25</ele><time>2026-04-27T10:44:30.001Z</time></trkpt><trkpt lat="42.07056695934794" lon="13.599675452813715"><ele>870.0</ele><time>2026-04-27T10:44:31.001Z</time></trkpt><trkpt lat="42.07071433005758" lon="13.599631989209854"><ele>870.0</ele><time>2026-04-27T10:44:32.001Z</time></trkpt><trkpt lat="42.07086189922044" lon="13.59957268921506"><ele>870.0</ele><time>2026-04-27T10:44:33.001Z</time></trkpt><trkpt lat="42.07101673726713" lon="13.599504966439245"><ele>870.0</ele><time>2026-04-27T10:44:34.001Z</time></trkpt><trkpt lat="42.07116098496205" lon="13.599431747264031"><ele>872.0</ele><time>2026-04-27T10:44:35.001Z</time></trkpt><trkpt lat="42.07130694136577" lon="13.599366873713075"><ele>874.0</ele><time>2026-04-27T10:44:36.001Z</time></trkpt><trkpt lat="42.07145451261685" lon="13.599317749652737"><ele>876.0</ele><time>2026-04-27T10:44:37.001Z</time></trkpt><trkpt lat="42.07159893668613" lon="13.599244070559637"><ele>877.75</ele><time>2026-04-27T10:44:38.001Z</time></trkpt><trkpt lat="42.071736702650675" lon="13.59917984010401"><ele>879.5</ele><time>2026-04-27T10:44:39.001Z</time></trkpt><trkpt lat="42.071881574516624" lon="13.599120358802965"><ele>881.25</ele><time>2026-04-27T10:44:40.001Z</time></trkpt><trkpt lat="42.072012690854635" lon="13.599061933342659"><ele>883.0</ele><time>2026-04-27T10:44:41.001Z</time></trkpt><trkpt lat="42.07215345170472" lon="13.599004225023196"><ele>883.0</ele><time>2026-04-27T10:44:42.001Z</time></trkpt><trkpt lat="42.07228807833571" lon="13.598945074471578"><ele>883.0</ele><time>2026-04-27T10:44:43.001Z</time></trkpt><trkpt lat="42.07242782941933" lon="13.598883779106558"><ele>883.0</ele><time>2026-04-27T10:44:44.001Z</time></trkpt><trkpt lat="42.072561560169945" lon="13.59882021741175"><ele>883.0</ele><time>2026-04-27T10:44:45.001Z</time></trkpt><trkpt lat="42.07269868434641" lon="13.59875608034867"><ele>885.3333333333333</ele><time>2026-04-27T10:44:46.001Z</time></trkpt><trkpt lat="42.07284939670127" lon="13.59869393874941"><ele>887.6666666666667</ele><time>2026-04-27T10:44:47.001Z</time></trkpt><trkpt lat="42.07298701640111" lon="13.598627607811745"><ele>890.0</ele><time>2026-04-27T10:44:48.001Z</time></trkpt><trkpt lat="42.073135647714736" lon="13.5985611073022"><ele>894.6666666666667</ele><time>2026-04-27T10:44:49.001Z</time></trkpt><trkpt lat="42.0732778268045" lon="13.598486711834019"><ele>899.3333333333333</ele><time>2026-04-27T10:44:50.001Z</time></trkpt><trkpt lat="42.073426494667544" lon="13.598415285877458"><ele>904.0</ele><time>2026-04-27T10:44:51.001Z</time></trkpt><trkpt lat="42.073573313847426" lon="13.598346262243982"><ele>904.0</ele><time>2026-04-27T10:44:52.001Z</time></trkpt><trkpt lat="42.07372495053912" lon="13.598271010995267"><ele>904.0</ele><time>2026-04-27T10:44:53.001Z</time></trkpt><trkpt lat="42.073884428927215" lon="13.598203943559431"><ele>904.0</ele><time>2026-04-27T10:44:54.001Z</time></trkpt><trkpt lat="42.074051098791344" lon="13.598155792464041"><ele>907.0</ele><time>2026-04-27T10:44:55.001Z</time></trkpt><trkpt lat="42.07422289675063" lon="13.598158469354821"><ele>910.0</ele><time>2026-04-27T10:44:56.001Z</time></trkpt><trkpt lat="42.07440714151735" lon="13.598158208143099"><ele>913.0</ele><time>2026-04-27T10:44:57.001Z</time></trkpt><trkpt lat="42.074604203989395" lon="13.598166897468367"><ele>913.0</ele><time>2026-04-27T10:44:58.001Z</time></trkpt><trkpt lat="42.074804427127035" lon="13.59816420379899"><ele>913.0</ele><time>2026-04-27T10:44:59.001Z</time></trkpt><trkpt lat="42.07500475628967" lon="13.598183038651252"><ele>913.0</ele><time>2026-04-27T10:45:00.001Z</time></trkpt><trkpt lat="42.07520495613837" lon="13.598196164290576"><ele>916.6666666666666</ele><time>2026-04-27T10:45:01.001Z</time></trkpt><trkpt lat="42.07540297347809" lon="13.59821026438506"><ele>920.3333333333333</ele><time>2026-04-27T10:45:02.001Z</time></trkpt><trkpt lat="42.07560085170353" lon="13.598221102512863"><ele>924.0</ele><time>2026-04-27T10:45:03.001Z</time></trkpt><trkpt lat="42.07579611424392" lon="13.59822270014141"><ele>927.3333333333333</ele><time>2026-04-27T10:45:04.001Z</time></trkpt><trkpt lat="42.075995886551325" lon="13.598211542682767"><ele>930.6666666666666</ele><time>2026-04-27T10:45:05.001Z</time></trkpt><trkpt lat="42.07618551511089" lon="13.598172333471062"><ele>934.0</ele><time>2026-04-27T10:45:06.001Z</time></trkpt><trkpt lat="42.076348387830755" lon="13.598104316173083"><ele>934.0</ele><time>2026-04-27T10:45:07.001Z</time></trkpt><trkpt lat="42.07647750049537" lon="13.597990786271467"><ele>934.0</ele><time>2026-04-27T10:45:08.001Z</time></trkpt><trkpt lat="42.07657037752095" lon="13.597852750993404"><ele>934.0</ele><time>2026-04-27T10:45:09.001Z</time></trkpt><trkpt lat="42.07664012903782" lon="13.597670684026205"><ele>934.0</ele><time>2026-04-27T10:45:10.001Z</time></trkpt><trkpt lat="42.076729306416425" lon="13.597524293815825"><ele>937.5</ele><time>2026-04-27T10:45:11.001Z</time></trkpt><trkpt lat="42.076820400988545" lon="13.597373672087386"><ele>941.0</ele><time>2026-04-27T10:45:12.001Z</time></trkpt><trkpt lat="42.07694665828807" lon="13.597299117157547"><ele>944.5</ele><time>2026-04-27T10:45:13.001Z</time></trkpt><trkpt lat="42.07708745413735" lon="13.597268391893701"><ele>948.0</ele><time>2026-04-27T10:45:14.001Z</time></trkpt><trkpt lat="42.07719898040732" lon="13.597300616269319"><ele>948.0</ele><time>2026-04-27T10:45:15.001Z</time></trkpt><trkpt lat="42.07726759823572" lon="13.597398524304175"><ele>948.0</ele><time>2026-04-27T10:45:16.001Z</time></trkpt><trkpt lat="42.077292270053675" lon="13.59753721675807"><ele>948.0</ele><time>2026-04-27T10:45:17.001Z</time></trkpt><trkpt lat="42.07732906771331" lon="13.597691682403308"><ele>948.0</ele><time>2026-04-27T10:45:18.001Z</time></trkpt><trkpt lat="42.07737456936004" lon="13.597857228473844"><ele>949.4</ele><time>2026-04-27T10:45:19.001Z</time></trkpt><trkpt lat="42.077438142915" lon="13.5979934312498"><ele>950.8</ele><time>2026-04-27T10:45:20.001Z</time></trkpt><trkpt lat="42.07751104870648" lon="13.59805469024303"><ele>952.2</ele><time>2026-04-27T10:45:21.001Z</time></trkpt><trkpt lat="42.07758773843774" lon="13.598052693665817"><ele>953.6</ele><time>2026-04-27T10:45:22.001Z</time></trkpt><trkpt lat="42.077655719399324" lon="13.597975990711207"><ele>955.0</ele><time>2026-04-27T10:45:23.001Z</time></trkpt><trkpt lat="42.077679629092245" lon="13.597850901905034"><ele>957.0</ele><time>2026-04-27T10:45:24.001Z</time></trkpt><trkpt lat="42.07764641020814" lon="13.59771598497219"><ele>959.0</ele><time>2026-04-27T10:45:25.001Z</time></trkpt><trkpt lat="42.077581696092764" lon="13.597586138755991"><ele>961.0</ele><time>2026-04-27T10:45:26.001Z</time></trkpt><trkpt lat="42.07751993679042" lon="13.597450124834095"><ele>963.0</ele><time>2026-04-27T10:45:27.001Z</time></trkpt><trkpt lat="42.07746095139468" lon="13.597306753285313"><ele>961.25</ele><time>2026-04-27T10:45:28.001Z</time></trkpt><trkpt lat="42.077406700892375" lon="13.597153785710915"><ele>959.5</ele><time>2026-04-27T10:45:29.001Z</time></trkpt><trkpt lat="42.07734499738408" lon="13.596990344651676"><ele>957.75</ele><time>2026-04-27T10:45:30.001Z</time></trkpt><trkpt lat="42.077279502238596" lon="13.596823720308372"><ele>956.0</ele><time>2026-04-27T10:45:31.001Z</time></trkpt><trkpt lat="42.07720871774013" lon="13.596648000303862"><ele>956.0</ele><time>2026-04-27T10:45:32.001Z</time></trkpt><trkpt lat="42.07714000905828" lon="13.596482703418067"><ele>956.0</ele><time>2026-04-27T10:45:33.001Z</time></trkpt><trkpt lat="42.07708658933055" lon="13.596307088396188"><ele>956.0</ele><time>2026-04-27T10:45:34.001Z</time></trkpt><trkpt lat="42.07706883165364" lon="13.596156840713254"><ele>956.0</ele><time>2026-04-27T10:45:35.001Z</time></trkpt><trkpt lat="42.077087519868655" lon="13.595994328320291"><ele>955.75</ele><time>2026-04-27T10:45:36.001Z</time></trkpt><trkpt lat="42.07714964654651" lon="13.595839120576123"><ele>955.5</ele><time>2026-04-27T10:45:37.001Z</time></trkpt><trkpt lat="42.07722628408535" lon="13.595692673590094"><ele>955.25</ele><time>2026-04-27T10:45:38Z</time></trkpt><trkpt lat="42.077322119672495" lon="13.595546375905325"><ele>955.0</ele><time>2026-04-27T10:45:39Z</time></trkpt><trkpt lat="42.07743108581784" lon="13.595409697766346"><ele>959.6666666666666</ele><time>2026-04-27T10:45:40Z</time></trkpt><trkpt lat="42.07755313200002" lon="13.595280228047372"><ele>964.3333333333333</ele><time>2026-04-27T10:45:41Z</time></trkpt><trkpt lat="42.077669752332646" lon="13.595151770431272"><ele>969.0</ele><time>2026-04-27T10:45:42Z</time></trkpt><trkpt lat="42.077795908119526" lon="13.595014072145203"><ele>969.0</ele><time>2026-04-27T10:45:43Z</time></trkpt><trkpt lat="42.07790996940186" lon="13.594877775806603"><ele>969.0</ele><time>2026-04-27T10:45:44Z</time></trkpt><trkpt lat="42.07802163125364" lon="13.594761204180227"><ele>969.0</ele><time>2026-04-27T10:45:45Z</time></trkpt><trkpt lat="42.07815036216349" lon="13.594697971726346"><ele>969.0</ele><time>2026-04-27T10:45:46Z</time></trkpt><trkpt lat="42.078264138492074" lon="13.594609063202988"><ele>973.25</ele><time>2026-04-27T10:45:47Z</time></trkpt><trkpt lat="42.07833034444985" lon="13.594482404831755"><ele>977.5</ele><time>2026-04-27T10:45:48Z</time></trkpt><trkpt lat="42.07836418228478" lon="13.59434426073907"><ele>981.75</ele><time>2026-04-27T10:45:49Z</time></trkpt><trkpt lat="42.0783520853909" lon="13.594173721094041"><ele>986.0</ele><time>2026-04-27T10:45:50Z</time></trkpt><trkpt lat="42.07830521778384" lon="13.594010148542132"><ele>986.0</ele><time>2026-04-27T10:45:51Z</time></trkpt><trkpt lat="42.078294129233306" lon="13.593857729130358"><ele>986.0</ele><time>2026-04-27T10:45:52Z</time></trkpt><trkpt lat="42.07833982800431" lon="13.593712365934769"><ele>986.0</ele><time>2026-04-27T10:45:53Z</time></trkpt><trkpt lat="42.078451344073635" lon="13.59362063094475"><ele>986.0</ele><time>2026-04-27T10:45:54Z</time></trkpt><trkpt lat="42.078568630961456" lon="13.59350140622057"><ele>982.6666666666667</ele><time>2026-04-27T10:45:55Z</time></trkpt><trkpt lat="42.07868188488768" lon="13.593371010730001"><ele>979.3333333333333</ele><time>2026-04-27T10:45:56Z</time></trkpt><trkpt lat="42.07880343512779" lon="13.593251189787269"><ele>976.0</ele><time>2026-04-27T10:45:57Z</time></trkpt><trkpt lat="42.078931604913116" lon="13.593128047679292"><ele>976.0</ele><time>2026-04-27T10:45:58Z</time></trkpt><trkpt lat="42.079055039215106" lon="13.593011204845162"><ele>976.0</ele><time>2026-04-27T10:45:59Z</time></trkpt><trkpt lat="42.07919065133062" lon="13.592888155163266"><ele>976.0</ele><time>2026-04-27T10:46:00Z</time></trkpt><trkpt lat="42.079322166703314" lon="13.592762551225684"><ele>980.6666666666666</ele><time>2026-04-27T10:46:01Z</time></trkpt><trkpt lat="42.079459186833425" lon="13.59264158408816"><ele>985.3333333333333</ele><time>2026-04-27T10:46:02Z</time></trkpt><trkpt lat="42.0795840692786" lon="13.592532847763023"><ele>990.0</ele><time>2026-04-27T10:46:03Z</time></trkpt><trkpt lat="42.07971210037109" lon="13.592417065936235"><ele>990.0</ele><time>2026-04-27T10:46:04Z</time></trkpt><trkpt lat="42.0798306599105" lon="13.592305699516723"><ele>990.0</ele><time>2026-04-27T10:46:05Z</time></trkpt><trkpt lat="42.07995335682484" lon="13.59219155758955"><ele>990.0</ele><time>2026-04-27T10:46:06Z</time></trkpt><trkpt lat="42.08006778220159" lon="13.592086421840749"><ele>990.0</ele><time>2026-04-27T10:46:07Z</time></trkpt><trkpt lat="42.08018693911092" lon="13.591990240937275"><ele>993.5</ele><time>2026-04-27T10:46:08Z</time></trkpt><trkpt lat="42.0803002621246" lon="13.591899816550482"><ele>997.0</ele><time>2026-04-27T10:46:09Z</time></trkpt><trkpt lat="42.080407733260365" lon="13.591818857326437"><ele>1000.5</ele><time>2026-04-27T10:46:10Z</time></trkpt><trkpt lat="42.08051818993516" lon="13.591736701709957"><ele>1004.0</ele><time>2026-04-27T10:46:11Z</time></trkpt><trkpt lat="42.08061563174804" lon="13.591648530521951"><ele>1004.0000000000001</ele><time>2026-04-27T10:46:12Z</time></trkpt><trkpt lat="42.080692054623434" lon="13.591550606263823"><ele>1004.0</ele><time>2026-04-27T10:46:13Z</time></trkpt><trkpt lat="42.08073692687517" lon="13.591445250458053"><ele>1004.0</ele><time>2026-04-27T10:46:14Z</time></trkpt><trkpt lat="42.08076122304495" lon="13.591337150933965"><ele>1004.0</ele><time>2026-04-27T10:46:15Z</time></trkpt><trkpt lat="42.08076700470895" lon="13.591235486274998"><ele>1004.0000000000001</ele><time>2026-04-27T10:46:16Z</time></trkpt><trkpt lat="42.08077451167233" lon="13.591130396676233"><ele>1004.0</ele><time>2026-04-27T10:46:17Z</time></trkpt><trkpt lat="42.080766876256256" lon="13.591024422391508"><ele>1005.0</ele><time>2026-04-27T10:46:18Z</time></trkpt><trkpt lat="42.08072544294655" lon="13.590936398646134"><ele>1006.0000000000001</ele><time>2026-04-27T10:46:19Z</time></trkpt><trkpt lat="42.080646807491675" lon="13.5908712419753"><ele>1007.0000000000001</ele><time>2026-04-27T10:46:20Z</time></trkpt><trkpt lat="42.080554058672355" lon="13.590823254628503"><ele>1008.0</ele><time>2026-04-27T10:46:21Z</time></trkpt><trkpt lat="42.08047460960765" lon="13.590760905134747"><ele>1009.0</ele><time>2026-04-27T10:46:22Z</time></trkpt><trkpt lat="42.080394675097715" lon="13.59068182144957"><ele>1008.9999999999999</ele><time>2026-04-27T10:46:23Z</time></trkpt><trkpt lat="42.080317803913324" lon="13.590596282014706"><ele>1009.0</ele><time>2026-04-27T10:46:24Z</time></trkpt><trkpt lat="42.08024075682072" lon="13.590526364711154"><ele>1009.0</ele><time>2026-04-27T10:46:25Z</time></trkpt><trkpt lat="42.080163240553446" lon="13.5904829030587"><ele>1009.0</ele><time>2026-04-27T10:46:26Z</time></trkpt><trkpt lat="42.08011429961716" lon="13.590422145407123"><ele>1008.9999999999999</ele><time>2026-04-27T10:46:27Z</time></trkpt><trkpt lat="42.08008911144547" lon="13.590343473781257"><ele>1009.0</ele><time>2026-04-27T10:46:28Z</time></trkpt><trkpt lat="42.08011791707486" lon="13.59025321861429"><ele>1008.9999999999999</ele><time>2026-04-27T10:46:30Z</time></trkpt><trkpt lat="42.0802203657392" lon="13.590258519830106"><ele>1009.0</ele><time>2026-04-27T10:46:33Z</time></trkpt><trkpt lat="42.080277905360326" lon="13.590315157919962"><ele>1009.0</ele><time>2026-04-27T10:46:34Z</time></trkpt><trkpt lat="42.08034238216307" lon="13.590356384108398"><ele>1009.0</ele><time>2026-04-27T10:46:35Z</time></trkpt><trkpt lat="42.080406964715266" lon="13.59037076444453"><ele>1008.9999999999999</ele><time>2026-04-27T10:46:36Z</time></trkpt><trkpt lat="42.08048090090525" lon="13.590397610768566"><ele>1009.0</ele><time>2026-04-27T10:46:37Z</time></trkpt><trkpt lat="42.08055046968855" lon="13.590441612914086"><ele>1008.9999999999999</ele><time>2026-04-27T10:46:38Z</time></trkpt><trkpt lat="42.08062252442347" lon="13.590446006967053"><ele>1009.0</ele><time>2026-04-27T10:46:39Z</time></trkpt><trkpt lat="42.08068857829093" lon="13.59047289542384"><ele>1009.0</ele><time>2026-04-27T10:46:40Z</time></trkpt><trkpt lat="42.08076442886481" lon="13.590520403662481"><ele>1009.0</ele><time>2026-04-27T10:46:42Z</time></trkpt><trkpt lat="42.08084938888204" lon="13.590567993714012"><ele>1008.9999999999999</ele><time>2026-04-27T10:46:45Z</time></trkpt><trkpt lat="42.080775587724844" lon="13.590529909257839"><ele>1009.0</ele><time>2026-04-27T10:47:38.001Z</time></trkpt><trkpt lat="42.08070149357095" lon="13.590468709515859"><ele>1008.9999999999999</ele><time>2026-04-27T10:47:40.001Z</time></trkpt><trkpt lat="42.08059105600673" lon="13.59045176968952"><ele>1009.0</ele><time>2026-04-27T10:47:42.001Z</time></trkpt><trkpt lat="42.08050090184534" lon="13.590425108951317"><ele>1009.0</ele><time>2026-04-27T10:47:44Z</time></trkpt><trkpt lat="42.08042298285758" lon="13.59036503237722"><ele>1009.0</ele><time>2026-04-27T10:47:46Z</time></trkpt><trkpt lat="42.08035386866324" lon="13.590394846657755"><ele>1008.9999999999999</ele><time>2026-04-27T10:49:16Z</time></trkpt><trkpt lat="42.08029744875716" lon="13.590333767393494"><ele>1009.0</ele><time>2026-04-27T10:49:24.001Z</time></trkpt><trkpt lat="42.08024502736644" lon="13.590283919628154"><ele>1009.2857142857143</ele><time>2026-04-27T10:49:28.001Z</time></trkpt><trkpt lat="42.08019107888286" lon="13.590229942390163"><ele>1009.5714285714284</ele><time>2026-04-27T10:49:34.001Z</time></trkpt><trkpt lat="42.08013914340992" lon="13.590174078694004"><ele>1009.8571428571428</ele><time>2026-04-27T10:49:39.001Z</time></trkpt><trkpt lat="42.08020463871442" lon="13.59013538545646"><ele>1010.1428571428571</ele><time>2026-04-27T10:50:51Z</time></trkpt><trkpt lat="42.0802725114959" lon="13.590143991274475"><ele>1010.4285714285713</ele><time>2026-04-27T10:50:59Z</time></trkpt><trkpt lat="42.0803413019613" lon="13.590161612279438"><ele>1010.7142857142856</ele><time>2026-04-27T10:51:05Z</time></trkpt><trkpt lat="42.08042559610551" lon="13.590126390868493"><ele>1010.9999999999999</ele><time>2026-04-27T10:51:17Z</time></trkpt><trkpt lat="42.080473492723854" lon="13.590068697487402"><ele>1011.0</ele><time>2026-04-27T10:51:24Z</time></trkpt><trkpt lat="42.08065653231988" lon="13.590325547445682"><ele>1011.0</ele><time>2026-04-27T10:51:37.072Z</time></trkpt><trkpt lat="42.08071553951747" lon="13.590282350409161"><ele>1011.0</ele><time>2026-04-27T10:51:43.075Z</time></trkpt><trkpt lat="42.080475084422375" lon="13.589948016764112"><ele>1011.0</ele><time>2026-04-27T10:51:49.04Z</time></trkpt><trkpt lat="42.080409831092844" lon="13.590207650258536"><ele>1010.9999999999999</ele><time>2026-04-27T10:51:50.001Z</time></trkpt><trkpt lat="42.080473444649684" lon="13.590238324245323"><ele>1010.9999999999999</ele><time>2026-04-27T10:51:59.001Z</time></trkpt><trkpt lat="42.08046791637529" lon="13.590338570753232"><ele>1011.0</ele><time>2026-04-27T10:52:03.001Z</time></trkpt><trkpt lat="42.08041101159911" lon="13.590398436536704"><ele>1011.0</ele><time>2026-04-27T10:52:08.001Z</time></trkpt><trkpt lat="42.080498439561374" lon="13.590386897070337"><ele>1010.6666666666666</ele><time>2026-04-27T10:54:41Z</time></trkpt><trkpt lat="42.080591144323236" lon="13.59044072764994"><ele>1010.3333333333333</ele><time>2026-04-27T10:54:43Z</time></trkpt><trkpt lat="42.08067251989144" lon="13.590465092428463"><ele>1010.0</ele><time>2026-04-27T10:54:46Z</time></trkpt><trkpt lat="42.08076081592956" lon="13.590494114906152"><ele>1009.6666666666666</ele><time>2026-04-27T10:54:48Z</time></trkpt><trkpt lat="42.08082216060248" lon="13.590518561930644"><ele>1009.3333333333333</ele><time>2026-04-27T10:54:51Z</time></trkpt><trkpt lat="42.080890792696614" lon="13.590531992295452"><ele>1009.0</ele><time>2026-04-27T10:55:13Z</time></trkpt><trkpt lat="42.080952902033594" lon="13.590549416970902"><ele>1010.8333333333333</ele><time>2026-04-27T10:55:16Z</time></trkpt><trkpt lat="42.08103476904104" lon="13.590574574314928"><ele>1012.6666666666666</ele><time>2026-04-27T10:55:19Z</time></trkpt><trkpt lat="42.08111438763327" lon="13.590603710667875"><ele>1014.5</ele><time>2026-04-27T10:55:22Z</time></trkpt><trkpt lat="42.08118580254653" lon="13.590614156079969"><ele>1016.3333333333333</ele><time>2026-04-27T10:55:25Z</time></trkpt><trkpt lat="42.0812669650605" lon="13.590615622205469"><ele>1018.1666666666666</ele><time>2026-04-27T10:55:28Z</time></trkpt><trkpt lat="42.08130806367231" lon="13.590508170643892"><ele>1020.0</ele><time>2026-04-27T10:55:41Z</time></trkpt><trkpt lat="42.081318443211295" lon="13.590422855656488"><ele>1020.6</ele><time>2026-04-27T10:55:43Z</time></trkpt><trkpt lat="42.08134196973878" lon="13.590289103653577"><ele>1021.2</ele><time>2026-04-27T10:55:47Z</time></trkpt><trkpt lat="42.08133783469996" lon="13.590149542415798"><ele>1021.8</ele><time>2026-04-27T10:55:49Z</time></trkpt><trkpt lat="42.08139449799467" lon="13.590077758566252"><ele>1022.4</ele><time>2026-04-27T10:55:52Z</time></trkpt><trkpt lat="42.081515410687174" lon="13.590103478336696"><ele>1023.0</ele><time>2026-04-27T10:55:54Z</time></trkpt><trkpt lat="42.0816230502191" lon="13.590060599735745"><ele>1023.3333333333334</ele><time>2026-04-27T10:55:56Z</time></trkpt><trkpt lat="42.081713578548054" lon="13.589937695301131"><ele>1023.6666666666667</ele><time>2026-04-27T10:55:58Z</time></trkpt><trkpt lat="42.081757961127686" lon="13.589863863119358"><ele>1024.0</ele><time>2026-04-27T10:55:59Z</time></trkpt><trkpt lat="42.08183564354221" lon="13.589827423791753"><ele>1024.3333333333335</ele><time>2026-04-27T10:56:00Z</time></trkpt><trkpt lat="42.081907449930775" lon="13.589797503482577"><ele>1024.6666666666667</ele><time>2026-04-27T10:56:01Z</time></trkpt><trkpt lat="42.08198568624729" lon="13.589744249473812"><ele>1025.0</ele><time>2026-04-27T10:56:02Z</time></trkpt><trkpt lat="42.08205550965867" lon="13.589719850159948"><ele>1025.0</ele><time>2026-04-27T10:56:03Z</time></trkpt><trkpt lat="42.082137760796584" lon="13.589720343720442"><ele>1025.0</ele><time>2026-04-27T10:56:04Z</time></trkpt><trkpt lat="42.082216581519056" lon="13.589709685856466"><ele>1025.0</ele><time>2026-04-27T10:56:05Z</time></trkpt><trkpt lat="42.08230323102635" lon="13.589683767466736"><ele>1025.0</ele><time>2026-04-27T10:56:06Z</time></trkpt><trkpt lat="42.08237436044601" lon="13.589685170527977"><ele>1025.0</ele><time>2026-04-27T10:56:07Z</time></trkpt><trkpt lat="42.08249525901962" lon="13.589699344501081"><ele>1025.0</ele><time>2026-04-27T10:56:08.999Z</time></trkpt><trkpt lat="42.08256445919162" lon="13.589670610780587"><ele>1025.5</ele><time>2026-04-27T10:56:09.999Z</time></trkpt><trkpt lat="42.082630078556505" lon="13.589673584888441"><ele>1026.0</ele><time>2026-04-27T10:56:10.999Z</time></trkpt><trkpt lat="42.08269212594228" lon="13.589722189529905"><ele>1026.5</ele><time>2026-04-27T10:56:11.999Z</time></trkpt><trkpt lat="42.082755701032845" lon="13.589744768421125"><ele>1027.0</ele><time>2026-04-27T10:56:12.999Z</time></trkpt><trkpt lat="42.08280502306909" lon="13.589808204408346"><ele>1027.5</ele><time>2026-04-27T10:56:15.999Z</time></trkpt><trkpt lat="42.0827286826099" lon="13.58973854891125"><ele>1028.0</ele><time>2026-04-27T10:56:18.999Z</time></trkpt><trkpt lat="42.08271107878385" lon="13.589598690525735"><ele>1024.0</ele><time>2026-04-27T10:56:19.999Z</time></trkpt><trkpt lat="42.08268807583386" lon="13.58945178717616"><ele>1020.0</ele><time>2026-04-27T10:56:21.999Z</time></trkpt><trkpt lat="42.08269880387549" lon="13.589346698384034"><ele>1016.0</ele><time>2026-04-27T10:56:22.999Z</time></trkpt><trkpt lat="42.08270301880072" lon="13.589174312121816"><ele>1012.0</ele><time>2026-04-27T10:56:24.999Z</time></trkpt><trkpt lat="42.082705298120885" lon="13.589081543681374"><ele>1008.0</ele><time>2026-04-27T10:56:25.999Z</time></trkpt><trkpt lat="42.082603177657134" lon="13.588979968551984"><ele>1008.0</ele><time>2026-04-27T10:56:26.999Z</time></trkpt><trkpt lat="42.0825748553778" lon="13.588860127904727"><ele>1008.0</ele><time>2026-04-27T10:56:28.999Z</time></trkpt><trkpt lat="42.08259508200989" lon="13.588762919650533"><ele>1008.0</ele><time>2026-04-27T10:56:31Z</time></trkpt><trkpt lat="42.082597340417124" lon="13.588675067418643"><ele>1008.0</ele><time>2026-04-27T10:56:34Z</time></trkpt><trkpt lat="42.08258527170182" lon="13.588784266307684"><ele>1008.0</ele><time>2026-04-27T10:56:36Z</time></trkpt><trkpt lat="42.08272625397957" lon="13.58872072794308"><ele>1008.0</ele><time>2026-04-27T10:56:37Z</time></trkpt><trkpt lat="42.08281988993139" lon="13.588740480968003"><ele>1008.0</ele><time>2026-04-27T10:56:38Z</time></trkpt><trkpt lat="42.08291351073599" lon="13.58875584816067"><ele>1008.0</ele><time>2026-04-27T10:56:39Z</time></trkpt><trkpt lat="42.08302853612049" lon="13.588775357470908"><ele>1008.0</ele><time>2026-04-27T10:56:40Z</time></trkpt><trkpt lat="42.083145033018184" lon="13.588834354481854"><ele>1008.0</ele><time>2026-04-27T10:56:41Z</time></trkpt><trkpt lat="42.08328338563513" lon="13.588843182553738"><ele>1005.75</ele><time>2026-04-27T10:56:42Z</time></trkpt><trkpt lat="42.083419212497624" lon="13.588836437501426"><ele>1003.5</ele><time>2026-04-27T10:56:43Z</time></trkpt><trkpt lat="42.083531242600195" lon="13.588850330652237"><ele>1001.25</ele><time>2026-04-27T10:56:44Z</time></trkpt><trkpt lat="42.08364140027817" lon="13.588853097108307"><ele>999.0</ele><time>2026-04-27T10:56:45Z</time></trkpt><trkpt lat="42.08375128854591" lon="13.58885585679665"><ele>999.0</ele><time>2026-04-27T10:56:46Z</time></trkpt><trkpt lat="42.08386113076557" lon="13.58885861532795"><ele>999.0000000000001</ele><time>2026-04-27T10:56:47Z</time></trkpt><trkpt lat="42.083970219557514" lon="13.588845230259379"><ele>999.0000000000001</ele><time>2026-04-27T10:56:48Z</time></trkpt><trkpt lat="42.084077247298325" lon="13.58885043696699"><ele>999.0</ele><time>2026-04-27T10:56:49Z</time></trkpt><trkpt lat="42.08417667723975" lon="13.588848156390204"><ele>999.0</ele><time>2026-04-27T10:56:50Z</time></trkpt><trkpt lat="42.08425528569724" lon="13.588828979979677"><ele>996.5</ele><time>2026-04-27T10:56:51Z</time></trkpt><trkpt lat="42.08436881575925" lon="13.58880779220733"><ele>994.0</ele><time>2026-04-27T10:56:52Z</time></trkpt><trkpt lat="42.08448573227409" lon="13.588808649185175"><ele>991.5</ele><time>2026-04-27T10:56:53Z</time></trkpt><trkpt lat="42.08460434008177" lon="13.588800715198389"><ele>989.0</ele><time>2026-04-27T10:56:54Z</time></trkpt><trkpt lat="42.0847351022384" lon="13.588789978597541"><ele>989.0000000000001</ele><time>2026-04-27T10:56:56Z</time></trkpt><trkpt lat="42.08483220937143" lon="13.588755789080022"><ele>989.0</ele><time>2026-04-27T10:56:58Z</time></trkpt><trkpt lat="42.084763766495044" lon="13.588616701469638"><ele>989.0</ele><time>2026-04-27T10:57:01Z</time></trkpt><trkpt lat="42.08469626813012" lon="13.588602006839867"><ele>989.0</ele><time>2026-04-27T10:57:02Z</time></trkpt><trkpt lat="42.08462898887212" lon="13.588608859076313"><ele>989.0000000000001</ele><time>2026-04-27T10:57:03Z</time></trkpt><trkpt lat="42.08455424432028" lon="13.588584404022212"><ele>989.0</ele><time>2026-04-27T10:57:04Z</time></trkpt><trkpt lat="42.08448308009813" lon="13.588540350513556"><ele>984.8000000000001</ele><time>2026-04-27T10:57:05Z</time></trkpt><trkpt lat="42.08440600382499" lon="13.588485166450392"><ele>980.6000000000001</ele><time>2026-04-27T10:57:06Z</time></trkpt><trkpt lat="42.08432165182939" lon="13.588414389341565"><ele>976.4</ele><time>2026-04-27T10:57:07Z</time></trkpt><trkpt lat="42.08422054663243" lon="13.58833378002573"><ele>972.2</ele><time>2026-04-27T10:57:08Z</time></trkpt><trkpt lat="42.08415920797512" lon="13.588247597656068"><ele>968.0</ele><time>2026-04-27T10:57:09Z</time></trkpt><trkpt lat="42.084133684187314" lon="13.588107443070786"><ele>968.0000000000001</ele><time>2026-04-27T10:57:11Z</time></trkpt><trkpt lat="42.084195595620166" lon="13.58800705776823"><ele>968.0</ele><time>2026-04-27T10:57:13Z</time></trkpt><trkpt lat="42.08425477756233" lon="13.58797007634037"><ele>968.0</ele><time>2026-04-27T10:57:14Z</time></trkpt><trkpt lat="42.08431591750808" lon="13.587933280793946"><ele>968.0</ele><time>2026-04-27T10:57:15Z</time></trkpt><trkpt lat="42.084389096791085" lon="13.587881030515286"><ele>968.0000000000001</ele><time>2026-04-27T10:57:16Z</time></trkpt><trkpt lat="42.08445906141164" lon="13.587806680321682"><ele>968.0</ele><time>2026-04-27T10:57:17Z</time></trkpt><trkpt lat="42.08451723047889" lon="13.587722718699432"><ele>965.4</ele><time>2026-04-27T10:57:18Z</time></trkpt><trkpt lat="42.08458296775858" lon="13.587611642200436"><ele>962.8</ele><time>2026-04-27T10:57:19Z</time></trkpt><trkpt lat="42.08467430506602" lon="13.587500384498874"><ele>960.2</ele><time>2026-04-27T10:57:20Z</time></trkpt><trkpt lat="42.08475687656005" lon="13.587403843125836"><ele>957.6</ele><time>2026-04-27T10:57:21Z</time></trkpt><trkpt lat="42.08484322103147" lon="13.587314255811732"><ele>955.0</ele><time>2026-04-27T10:57:22Z</time></trkpt><trkpt lat="42.08492838439891" lon="13.587235917786215"><ele>954.2</ele><time>2026-04-27T10:57:23Z</time></trkpt><trkpt lat="42.08502324465146" lon="13.587164065110022"><ele>953.4</ele><time>2026-04-27T10:57:24Z</time></trkpt><trkpt lat="42.08512807168379" lon="13.58710761393182"><ele>952.5999999999999</ele><time>2026-04-27T10:57:25Z</time></trkpt><trkpt lat="42.08523009329603" lon="13.587055522560528"><ele>951.8</ele><time>2026-04-27T10:57:26Z</time></trkpt><trkpt lat="42.08533899019009" lon="13.587034621503545"><ele>951.0</ele><time>2026-04-27T10:57:27Z</time></trkpt><trkpt lat="42.08542597439684" lon="13.586986835101165"><ele>950.0</ele><time>2026-04-27T10:57:28Z</time></trkpt><trkpt lat="42.08549188939911" lon="13.586917061931015"><ele>949.0</ele><time>2026-04-27T10:57:29Z</time></trkpt><trkpt lat="42.08553418348876" lon="13.586831203779036"><ele>948.0</ele><time>2026-04-27T10:57:30Z</time></trkpt><trkpt lat="42.085559361668864" lon="13.586722308106388"><ele>947.0</ele><time>2026-04-27T10:57:31Z</time></trkpt><trkpt lat="42.08552651124106" lon="13.586633663012655"><ele>946.0</ele><time>2026-04-27T10:57:32Z</time></trkpt><trkpt lat="42.08549952847812" lon="13.58655114897418"><ele>945.0</ele><time>2026-04-27T10:57:33Z</time></trkpt><trkpt lat="42.08545965023724" lon="13.586445958271144"><ele>945.0</ele><time>2026-04-27T10:57:34Z</time></trkpt><trkpt lat="42.08543033790153" lon="13.586333981586844"><ele>945.0</ele><time>2026-04-27T10:57:35Z</time></trkpt><trkpt lat="42.08537686239028" lon="13.586214842381594"><ele>945.0</ele><time>2026-04-27T10:57:36Z</time></trkpt><trkpt lat="42.08537396096446" lon="13.586052259448223"><ele>945.0</ele><time>2026-04-27T10:57:37Z</time></trkpt><trkpt lat="42.08535061664642" lon="13.585921133730983"><ele>945.0</ele><time>2026-04-27T10:57:38Z</time></trkpt><trkpt lat="42.08536613523701" lon="13.585813999322822"><ele>944.8</ele><time>2026-04-27T10:57:39Z</time></trkpt><trkpt lat="42.085412720247305" lon="13.585690897386378"><ele>944.6</ele><time>2026-04-27T10:57:40Z</time></trkpt><trkpt lat="42.08545677275932" lon="13.585586495406439"><ele>944.4000000000001</ele><time>2026-04-27T10:57:41Z</time></trkpt><trkpt lat="42.08549836130617" lon="13.585465819728814"><ele>944.2</ele><time>2026-04-27T10:57:42Z</time></trkpt><trkpt lat="42.08553246762112" lon="13.585318342643726"><ele>944.0</ele><time>2026-04-27T10:57:43Z</time></trkpt><trkpt lat="42.085592349454295" lon="13.585200796363512"><ele>943.6</ele><time>2026-04-27T10:57:44Z</time></trkpt><trkpt lat="42.08564046284749" lon="13.585070577766844"><ele>943.2</ele><time>2026-04-27T10:57:45Z</time></trkpt><trkpt lat="42.08568848819508" lon="13.584940597460406"><ele>942.8000000000001</ele><time>2026-04-27T10:57:46Z</time></trkpt><trkpt lat="42.08572172304638" lon="13.584811468773355"><ele>942.4000000000001</ele><time>2026-04-27T10:57:47Z</time></trkpt><trkpt lat="42.0857797916864" lon="13.584706976079637"><ele>942.0</ele><time>2026-04-27T10:57:48Z</time></trkpt><trkpt lat="42.08583405039628" lon="13.584579723628307"><ele>945.6666666666666</ele><time>2026-04-27T10:57:49Z</time></trkpt><trkpt lat="42.08587338059532" lon="13.584493956539593"><ele>949.3333333333333</ele><time>2026-04-27T10:57:50Z</time></trkpt><trkpt lat="42.085926723082224" lon="13.584433926828742"><ele>953.0</ele><time>2026-04-27T10:57:51Z</time></trkpt><trkpt lat="42.08599233850769" lon="13.584359441843679"><ele>956.6666666666666</ele><time>2026-04-27T10:57:52Z</time></trkpt><trkpt lat="42.08604582860992" lon="13.584307844761659"><ele>960.3333333333333</ele><time>2026-04-27T10:57:53Z</time></trkpt><trkpt lat="42.086103350456014" lon="13.584248479243616"><ele>964.0</ele><time>2026-04-27T10:57:55Z</time></trkpt><trkpt lat="42.086121994069515" lon="13.584119977410896"><ele>964.0</ele><time>2026-04-27T10:57:58Z</time></trkpt><trkpt lat="42.086095359075735" lon="13.58401346006984"><ele>964.0</ele><time>2026-04-27T10:57:59Z</time></trkpt><trkpt lat="42.086064176386174" lon="13.583864996093943"><ele>964.0</ele><time>2026-04-27T10:58:00Z</time></trkpt><trkpt lat="42.08602420347894" lon="13.583702424537227"><ele>964.0</ele><time>2026-04-27T10:58:01Z</time></trkpt><trkpt lat="42.08596213579612" lon="13.583512798316463"><ele>965.0</ele><time>2026-04-27T10:58:02Z</time></trkpt><trkpt lat="42.085891400271514" lon="13.583330017146194"><ele>966.0</ele><time>2026-04-27T10:58:03Z</time></trkpt><trkpt lat="42.08580002593384" lon="13.583142774549346"><ele>967.0</ele><time>2026-04-27T10:58:04Z</time></trkpt><trkpt lat="42.08570141804387" lon="13.58297157254164"><ele>965.25</ele><time>2026-04-27T10:58:05Z</time></trkpt><trkpt lat="42.08560691242366" lon="13.58279410684981"><ele>963.5</ele><time>2026-04-27T10:58:06Z</time></trkpt><trkpt lat="42.085528281045015" lon="13.582635998565356"><ele>961.75</ele><time>2026-04-27T10:58:07Z</time></trkpt><trkpt lat="42.085482480064464" lon="13.582462735563155"><ele>960.0</ele><time>2026-04-27T10:58:08Z</time></trkpt><trkpt lat="42.08541200044337" lon="13.58227387604947"><ele>960.0</ele><time>2026-04-27T10:58:09Z</time></trkpt><trkpt lat="42.08536269889531" lon="13.582076562931077"><ele>960.0</ele><time>2026-04-27T10:58:10Z</time></trkpt><trkpt lat="42.08530847386884" lon="13.581887954736205"><ele>960.0</ele><time>2026-04-27T10:58:11Z</time></trkpt><trkpt lat="42.08523961959236" lon="13.581696096350774"><ele>963.0</ele><time>2026-04-27T10:58:12Z</time></trkpt><trkpt lat="42.085163073628244" lon="13.58150054113214"><ele>966.0</ele><time>2026-04-27T10:58:13Z</time></trkpt><trkpt lat="42.08509907432017" lon="13.581302119489548"><ele>969.0</ele><time>2026-04-27T10:58:13.998Z</time></trkpt><trkpt lat="42.08502809766913" lon="13.581114673605773"><ele>970.5</ele><time>2026-04-27T10:58:14.998Z</time></trkpt><trkpt lat="42.084977035134585" lon="13.580947795454739"><ele>972.0</ele><time>2026-04-27T10:58:15.998Z</time></trkpt><trkpt lat="42.08493271203918" lon="13.580773950243804"><ele>973.5</ele><time>2026-04-27T10:58:16.998Z</time></trkpt><trkpt lat="42.084891921913425" lon="13.580608677565868"><ele>975.0</ele><time>2026-04-27T10:58:17.998Z</time></trkpt><trkpt lat="42.08485988492287" lon="13.580485140887118"><ele>975.0</ele><time>2026-04-27T10:58:18.998Z</time></trkpt><trkpt lat="42.08484296353641" lon="13.5803846963805"><ele>975.0</ele><time>2026-04-27T10:58:19.998Z</time></trkpt><trkpt lat="42.08483591624198" lon="13.580298878503127"><ele>975.0</ele><time>2026-04-27T10:58:20.998Z</time></trkpt><trkpt lat="42.08484018195152" lon="13.580203027088873"><ele>975.0</ele><time>2026-04-27T10:58:21.998Z</time></trkpt><trkpt lat="42.08483285390562" lon="13.580099879746108"><ele>975.0</ele><time>2026-04-27T10:58:22.998Z</time></trkpt><trkpt lat="42.08483377401747" lon="13.579975911526859"><ele>975.0</ele><time>2026-04-27T10:58:23.998Z</time></trkpt><trkpt lat="42.08484029708489" lon="13.579876138716092"><ele>975.4285714285713</ele><time>2026-04-27T10:58:24.998Z</time></trkpt><trkpt lat="42.08485356986583" lon="13.579782462535475"><ele>975.8571428571428</ele><time>2026-04-27T10:58:25.998Z</time></trkpt><trkpt lat="42.084882584373446" lon="13.579697481679014"><ele>976.2857142857142</ele><time>2026-04-27T10:58:26.999Z</time></trkpt><trkpt lat="42.08491943967295" lon="13.579621610488836"><ele>976.7142857142858</ele><time>2026-04-27T10:58:27.999Z</time></trkpt><trkpt lat="42.0849595478737" lon="13.57954706868356"><ele>977.1428571428572</ele><time>2026-04-27T10:58:28.999Z</time></trkpt><trkpt lat="42.085010192668705" lon="13.579456792944589"><ele>977.5714285714287</ele><time>2026-04-27T10:58:29.999Z</time></trkpt><trkpt lat="42.08505272914821" lon="13.57937764729695"><ele>978.0</ele><time>2026-04-27T10:58:30.999Z</time></trkpt><trkpt lat="42.08510067235034" lon="13.579312486431359"><ele>975.2</ele><time>2026-04-27T10:58:31.999Z</time></trkpt><trkpt lat="42.08515994644762" lon="13.579237423202848"><ele>972.4</ele><time>2026-04-27T10:58:32.999Z</time></trkpt><trkpt lat="42.085229930448065" lon="13.57911790926297"><ele>969.6000000000001</ele><time>2026-04-27T10:58:33.999Z</time></trkpt><trkpt lat="42.085302862621944" lon="13.579005758797601"><ele>966.8000000000001</ele><time>2026-04-27T10:58:34.999Z</time></trkpt><trkpt lat="42.08537581526277" lon="13.578927260679405"><ele>964.0</ele><time>2026-04-27T10:58:35.999Z</time></trkpt><trkpt lat="42.08545541698493" lon="13.578813051207618"><ele>964.0</ele><time>2026-04-27T10:58:36.999Z</time></trkpt><trkpt lat="42.08553930869472" lon="13.57872525301158"><ele>964.0000000000001</ele><time>2026-04-27T10:58:37.999Z</time></trkpt><trkpt lat="42.085618557845436" lon="13.578607822800269"><ele>964.0000000000001</ele><time>2026-04-27T10:58:38.999Z</time></trkpt><trkpt lat="42.08566435158177" lon="13.578496560777008"><ele>964.0</ele><time>2026-04-27T10:58:39.999Z</time></trkpt><trkpt lat="42.085714359376304" lon="13.578420104404168"><ele>964.0</ele><time>2026-04-27T10:58:40.999Z</time></trkpt><trkpt lat="42.08575902138262" lon="13.578331532530392"><ele>963.6666666666666</ele><time>2026-04-27T10:58:41.999Z</time></trkpt><trkpt lat="42.08581380409649" lon="13.578249522063771"><ele>963.3333333333333</ele><time>2026-04-27T10:58:42.999Z</time></trkpt><trkpt lat="42.08584882969064" lon="13.578128871303091"><ele>963.0</ele><time>2026-04-27T10:58:43.999Z</time></trkpt><trkpt lat="42.08589884203687" lon="13.578046392948801"><ele>962.6666666666667</ele><time>2026-04-27T10:58:44.999Z</time></trkpt><trkpt lat="42.085911557434336" lon="13.577960649736424"><ele>962.3333333333334</ele><time>2026-04-27T10:58:45.999Z</time></trkpt><trkpt lat="42.08595951161745" lon="13.577813946230807"><ele>962.0</ele><time>2026-04-27T10:58:47.999Z</time></trkpt><trkpt lat="42.08598483402628" lon="13.57770954321402"><ele>959.5000000000001</ele><time>2026-04-27T10:58:48.999Z</time></trkpt><trkpt lat="42.08601643524978" lon="13.577606201884075"><ele>957.0</ele><time>2026-04-27T10:58:49.999Z</time></trkpt><trkpt lat="42.08604916383247" lon="13.577529375301152"><ele>954.5</ele><time>2026-04-27T10:58:50.999Z</time></trkpt><trkpt lat="42.0860864360751" lon="13.577417690523049"><ele>952.0</ele><time>2026-04-27T10:58:53.999Z</time></trkpt><trkpt lat="42.086113818302536" lon="13.577306883211998"><ele>949.5000000000001</ele><time>2026-04-27T10:58:56.999Z</time></trkpt><trkpt lat="42.08610574397422" lon="13.577220461601526"><ele>947.0</ele><time>2026-04-27T10:58:58.999Z</time></trkpt><trkpt lat="42.086055674297675" lon="13.577129815319978"><ele>947.0</ele><time>2026-04-27T10:59:11.999Z</time></trkpt><trkpt lat="42.08599277001357" lon="13.577099781924368"><ele>947.0</ele><time>2026-04-27T10:59:13.999Z</time></trkpt><trkpt lat="42.085923388362744" lon="13.577127118655062"><ele>947.0</ele><time>2026-04-27T10:59:18.999Z</time></trkpt><trkpt lat="42.08582013429693" lon="13.57711667377265"><ele>947.0</ele><time>2026-04-27T10:59:20.999Z</time></trkpt><trkpt lat="42.08569419900253" lon="13.57715137990855"><ele>947.0</ele><time>2026-04-27T10:59:22.999Z</time></trkpt><trkpt lat="42.08558816687288" lon="13.577189118074676"><ele>944.6666666666667</ele><time>2026-04-27T10:59:24.999Z</time></trkpt><trkpt lat="42.085496482455156" lon="13.577210354686327"><ele>942.3333333333334</ele><time>2026-04-27T10:59:26.999Z</time></trkpt><trkpt lat="42.085431819161506" lon="13.577204493772195"><ele>940.0</ele><time>2026-04-27T10:59:27.999Z</time></trkpt><trkpt lat="42.08535284865585" lon="13.577191707386325"><ele>937.6666666666667</ele><time>2026-04-27T10:59:28.999Z</time></trkpt><trkpt lat="42.08527595032785" lon="13.577203599860859"><ele>935.3333333333334</ele><time>2026-04-27T10:59:29.999Z</time></trkpt><trkpt lat="42.08520711101627" lon="13.577315971092982"><ele>933.0</ele><time>2026-04-27T10:59:30.999Z</time></trkpt><trkpt lat="42.08507549689001" lon="13.577306672599049"><ele>933.0</ele><time>2026-04-27T10:59:32.999Z</time></trkpt><trkpt lat="42.084993834696874" lon="13.577251390668158"><ele>933.0</ele><time>2026-04-27T10:59:34.999Z</time></trkpt><trkpt lat="42.084942595394594" lon="13.577138184730353"><ele>933.0</ele><time>2026-04-27T10:59:36.999Z</time></trkpt><trkpt lat="42.08502074463204" lon="13.577036474959804"><ele>933.0</ele><time>2026-04-27T10:59:37.999Z</time></trkpt><trkpt lat="42.085083217778084" lon="13.576979115656115"><ele>933.0</ele><time>2026-04-27T10:59:38.999Z</time></trkpt><trkpt lat="42.08517030719345" lon="13.57689169523998"><ele>930.0</ele><time>2026-04-27T10:59:40.999Z</time></trkpt><trkpt lat="42.08525975766624" lon="13.576802647934544"><ele>927.0</ele><time>2026-04-27T10:59:42.999Z</time></trkpt><trkpt lat="42.08535478027338" lon="13.576782415847932"><ele>924.0</ele><time>2026-04-27T10:59:45Z</time></trkpt><trkpt lat="42.08542644534382" lon="13.576692062292146"><ele>921.0</ele><time>2026-04-27T10:59:47Z</time></trkpt><trkpt lat="42.0854644983637" lon="13.576578450150413"><ele>918.0</ele><time>2026-04-27T10:59:49Z</time></trkpt><trkpt lat="42.085415120274895" lon="13.576452078324998"><ele>918.0</ele><time>2026-04-27T10:59:51Z</time></trkpt><trkpt lat="42.08531203973671" lon="13.576440045480117"><ele>918.0</ele><time>2026-04-27T10:59:53Z</time></trkpt><trkpt lat="42.08522059525329" lon="13.576435340320183"><ele>918.0</ele><time>2026-04-27T10:59:55Z</time></trkpt><trkpt lat="42.0851400940873" lon="13.576421011118276"><ele>918.0</ele><time>2026-04-27T10:59:57Z</time></trkpt><trkpt lat="42.08507768550307" lon="13.576395828825955"><ele>918.0</ele><time>2026-04-27T10:59:58Z</time></trkpt><trkpt lat="42.08501862805342" lon="13.57635648258739"><ele>918.0</ele><time>2026-04-27T10:59:59Z</time></trkpt><trkpt lat="42.084960815082916" lon="13.576321859373325"><ele>916.5999999999999</ele><time>2026-04-27T11:00:00Z</time></trkpt><trkpt lat="42.084851280066964" lon="13.57627961134664"><ele>915.1999999999999</ele><time>2026-04-27T11:00:02Z</time></trkpt><trkpt lat="42.08473485893532" lon="13.576250274985414"><ele>913.8</ele><time>2026-04-27T11:00:04Z</time></trkpt><trkpt lat="42.08465488776556" lon="13.576239567438744"><ele>912.4</ele><time>2026-04-27T11:00:05Z</time></trkpt><trkpt lat="42.08452610972967" lon="13.576223406106532"><ele>911.0</ele><time>2026-04-27T11:00:07Z</time></trkpt><trkpt lat="42.084459068752246" lon="13.576197526377076"><ele>908.5000000000001</ele><time>2026-04-27T11:00:08Z</time></trkpt><trkpt lat="42.084381181982394" lon="13.576183000513122"><ele>906.0</ele><time>2026-04-27T11:00:09Z</time></trkpt><trkpt lat="42.08430939758747" lon="13.57616571484902"><ele>903.5</ele><time>2026-04-27T11:00:10Z</time></trkpt><trkpt lat="42.08424366208136" lon="13.576172648697856"><ele>901.0</ele><time>2026-04-27T11:00:11Z</time></trkpt><trkpt lat="42.08416356778994" lon="13.576146597306696"><ele>898.5000000000001</ele><time>2026-04-27T11:00:13Z</time></trkpt><trkpt lat="42.08407623520367" lon="13.57613391213235"><ele>896.0</ele><time>2026-04-27T11:00:15Z</time></trkpt><trkpt lat="42.08400334293893" lon="13.576113390170068"><ele>895.5000000000001</ele><time>2026-04-27T11:00:17Z</time></trkpt><trkpt lat="42.083901009768184" lon="13.576100291181362"><ele>895.0</ele><time>2026-04-27T11:00:19Z</time></trkpt><trkpt lat="42.083837228536616" lon="13.57609661185881"><ele>894.5</ele><time>2026-04-27T11:00:19.998Z</time></trkpt><trkpt lat="42.083762075977646" lon="13.576065226492453"><ele>894.0</ele><time>2026-04-27T11:00:20.998Z</time></trkpt><trkpt lat="42.0836603134596" lon="13.576039089720771"><ele>893.5000000000001</ele><time>2026-04-27T11:00:22.998Z</time></trkpt><trkpt lat="42.083584106973206" lon="13.575969010548087"><ele>893.0</ele><time>2026-04-27T11:00:24.998Z</time></trkpt><trkpt lat="42.08351002364506" lon="13.575872905635679"><ele>893.0000000000001</ele><time>2026-04-27T11:00:26.998Z</time></trkpt><trkpt lat="42.08344329517992" lon="13.57578797851349"><ele>893.0</ele><time>2026-04-27T11:00:28.998Z</time></trkpt><trkpt lat="42.08337325217074" lon="13.575711608422926"><ele>893.0</ele><time>2026-04-27T11:00:30.999Z</time></trkpt><trkpt lat="42.08332779395914" lon="13.575593833074933"><ele>893.0</ele><time>2026-04-27T11:00:32.999Z</time></trkpt><trkpt lat="42.08326861376935" lon="13.575541142097704"><ele>893.0000000000001</ele><time>2026-04-27T11:00:33.999Z</time></trkpt><trkpt lat="42.08324499260154" lon="13.575460577507528"><ele>893.0</ele><time>2026-04-27T11:00:34.999Z</time></trkpt><trkpt lat="42.08319890876809" lon="13.575360947066434"><ele>891.6666666666667</ele><time>2026-04-27T11:00:35.999Z</time></trkpt><trkpt lat="42.08316324411199" lon="13.575272524792132"><ele>890.3333333333334</ele><time>2026-04-27T11:00:36.999Z</time></trkpt><trkpt lat="42.083123176992956" lon="13.575166142337133"><ele>889.0</ele><time>2026-04-27T11:00:37.999Z</time></trkpt><trkpt lat="42.08308401004084" lon="13.575077816629056"><ele>887.6666666666667</ele><time>2026-04-27T11:00:38.999Z</time></trkpt><trkpt lat="42.08306136846622" lon="13.574971312177329"><ele>886.3333333333334</ele><time>2026-04-27T11:00:39.999Z</time></trkpt><trkpt lat="42.083038304236055" lon="13.574872189097505"><ele>885.0</ele><time>2026-04-27T11:00:40.999Z</time></trkpt><trkpt lat="42.0830142932823" lon="13.574767715940576"><ele>885.0</ele><time>2026-04-27T11:00:41.999Z</time></trkpt><trkpt lat="42.08298640605971" lon="13.574678879794968"><ele>885.0</ele><time>2026-04-27T11:00:42.999Z</time></trkpt><trkpt lat="42.08294634271876" lon="13.574590512056007"><ele>885.0</ele><time>2026-04-27T11:00:43.999Z</time></trkpt><trkpt lat="42.08285045875934" lon="13.574429632472368"><ele>885.0</ele><time>2026-04-27T11:00:45.999Z</time></trkpt><trkpt lat="42.08281599248994" lon="13.574319200035943"><ele>885.0</ele><time>2026-04-27T11:00:46.999Z</time></trkpt><trkpt lat="42.082778829157405" lon="13.574239511004652"><ele>884.0</ele><time>2026-04-27T11:00:47.999Z</time></trkpt><trkpt lat="42.08273171685458" lon="13.574164461857412"><ele>883.0</ele><time>2026-04-27T11:00:48.999Z</time></trkpt><trkpt lat="42.082692839625075" lon="13.574078870078159"><ele>882.0</ele><time>2026-04-27T11:00:49.999Z</time></trkpt><trkpt lat="42.08264398071024" lon="13.573997596201671"><ele>881.0</ele><time>2026-04-27T11:00:50.999Z</time></trkpt><trkpt lat="42.08259108119823" lon="13.573886992458636"><ele>880.0</ele><time>2026-04-27T11:00:51.999Z</time></trkpt><trkpt lat="42.082531146342376" lon="13.573761386522463"><ele>879.0</ele><time>2026-04-27T11:00:52.999Z</time></trkpt><trkpt lat="42.08247915312189" lon="13.573672114394917"><ele>878.2</ele><time>2026-04-27T11:00:53.999Z</time></trkpt><trkpt lat="42.08243088491914" lon="13.573583289123118"><ele>877.4000000000001</ele><time>2026-04-27T11:00:54.999Z</time></trkpt><trkpt lat="42.082378240828675" lon="13.573484640889298"><ele>876.6</ele><time>2026-04-27T11:00:55.999Z</time></trkpt><trkpt lat="42.08231181013293" lon="13.573349458772778"><ele>875.8</ele><time>2026-04-27T11:00:57.999Z</time></trkpt><trkpt lat="42.08227303970335" lon="13.573276605312293"><ele>875.0</ele><time>2026-04-27T11:00:58.999Z</time></trkpt><trkpt lat="42.08218859071083" lon="13.573171789518177"><ele>875.0</ele><time>2026-04-27T11:01:00.999Z</time></trkpt><trkpt lat="42.08209548189295" lon="13.573088024846625"><ele>875.0</ele><time>2026-04-27T11:01:02.999Z</time></trkpt><trkpt lat="42.082008497899295" lon="13.573000362703654"><ele>875.0</ele><time>2026-04-27T11:01:04.999Z</time></trkpt><trkpt lat="42.08192275289608" lon="13.572893336380517"><ele>875.0</ele><time>2026-04-27T11:01:06.999Z</time></trkpt><trkpt lat="42.08187259342869" lon="13.572832805853844"><ele>875.0</ele><time>2026-04-27T11:01:07.999Z</time></trkpt><trkpt lat="42.08182424178695" lon="13.572761845672057"><ele>874.6666666666667</ele><time>2026-04-27T11:01:08.999Z</time></trkpt><trkpt lat="42.08176420082118" lon="13.572673292787057"><ele>874.3333333333334</ele><time>2026-04-27T11:01:09.999Z</time></trkpt><trkpt lat="42.08171043103988" lon="13.572593989121138"><ele>874.0</ele><time>2026-04-27T11:01:10.999Z</time></trkpt><trkpt lat="42.08165425374237" lon="13.572537499215136"><ele>873.6666666666667</ele><time>2026-04-27T11:01:11.999Z</time></trkpt><trkpt lat="42.081603403704264" lon="13.572465841026583"><ele>873.3333333333334</ele><time>2026-04-27T11:01:12.999Z</time></trkpt><trkpt lat="42.081567078746815" lon="13.572393154067633"><ele>873.0</ele><time>2026-04-27T11:01:13.999Z</time></trkpt><trkpt lat="42.08150611803057" lon="13.572319023600455"><ele>873.0</ele><time>2026-04-27T11:01:15.999Z</time></trkpt><trkpt lat="42.08145291243144" lon="13.572230025642629"><ele>873.0</ele><time>2026-04-27T11:01:17.999Z</time></trkpt><trkpt lat="42.081427540276074" lon="13.57213165608375"><ele>873.0</ele><time>2026-04-27T11:01:19.999Z</time></trkpt><trkpt lat="42.081471176325955" lon="13.571988545743613"><ele>873.0</ele><time>2026-04-27T11:01:21.999Z</time></trkpt><trkpt lat="42.08150660096409" lon="13.571906396270395"><ele>873.0</ele><time>2026-04-27T11:01:24.999Z</time></trkpt><trkpt lat="42.08145935582706" lon="13.57178004598541"><ele>871.4</ele><time>2026-04-27T11:01:27Z</time></trkpt><trkpt lat="42.08138416065098" lon="13.571643364413756"><ele>869.8</ele><time>2026-04-27T11:01:29Z</time></trkpt><trkpt lat="42.08131193660579" lon="13.57155955287211"><ele>868.2</ele><time>2026-04-27T11:01:30Z</time></trkpt><trkpt lat="42.08123936532998" lon="13.57148570101073"><ele>866.6</ele><time>2026-04-27T11:01:31Z</time></trkpt><trkpt lat="42.08116265344369" lon="13.571429469675852"><ele>865.0</ele><time>2026-04-27T11:01:32Z</time></trkpt><trkpt lat="42.081107761620174" lon="13.571358590750165"><ele>865.0</ele><time>2026-04-27T11:01:33Z</time></trkpt><trkpt lat="42.08099662063982" lon="13.571248742291736"><ele>865.0</ele><time>2026-04-27T11:01:35Z</time></trkpt><trkpt lat="42.08094518581964" lon="13.571191247928393"><ele>865.0</ele><time>2026-04-27T11:01:36Z</time></trkpt><trkpt lat="42.08088799080724" lon="13.571124374047313"><ele>865.0</ele><time>2026-04-27T11:01:37Z</time></trkpt><trkpt lat="42.080835041721485" lon="13.571054998294821"><ele>865.0</ele><time>2026-04-27T11:01:38Z</time></trkpt><trkpt lat="42.08074924437728" lon="13.57091278265271"><ele>865.6</ele><time>2026-04-27T11:01:40Z</time></trkpt><trkpt lat="42.08069741500417" lon="13.570787798812106"><ele>866.2</ele><time>2026-04-27T11:01:41Z</time></trkpt><trkpt lat="42.08063410176765" lon="13.570652194113471"><ele>866.8</ele><time>2026-04-27T11:01:42Z</time></trkpt><trkpt lat="42.080586186000986" lon="13.570515027239534"><ele>867.4</ele><time>2026-04-27T11:01:43Z</time></trkpt><trkpt lat="42.08055660047482" lon="13.570387347431614"><ele>868.0</ele><time>2026-04-27T11:01:44Z</time></trkpt><trkpt lat="42.08052121945754" lon="13.57027610643524"><ele>868.0</ele><time>2026-04-27T11:01:45Z</time></trkpt><trkpt lat="42.080478297809506" lon="13.570128021971295"><ele>868.0</ele><time>2026-04-27T11:01:46Z</time></trkpt><trkpt lat="42.080441309860205" lon="13.569982187074437"><ele>868.0</ele><time>2026-04-27T11:01:47Z</time></trkpt><trkpt lat="42.08041107700003" lon="13.5698525994034"><ele>868.0</ele><time>2026-04-27T11:01:48Z</time></trkpt><trkpt lat="42.080385977226804" lon="13.569735230624413"><ele>868.0</ele><time>2026-04-27T11:01:49Z</time></trkpt><trkpt lat="42.080365992368655" lon="13.569622878788563"><ele>866.1666666666666</ele><time>2026-04-27T11:01:50Z</time></trkpt><trkpt lat="42.080335813192356" lon="13.569511065850536"><ele>864.3333333333333</ele><time>2026-04-27T11:01:51Z</time></trkpt><trkpt lat="42.08032114220153" lon="13.569395029777173"><ele>862.5</ele><time>2026-04-27T11:01:52Z</time></trkpt><trkpt lat="42.08030276769229" lon="13.569292186554847"><ele>860.6666666666667</ele><time>2026-04-27T11:01:53Z</time></trkpt><trkpt lat="42.08029137830871" lon="13.569207481420069"><ele>858.8333333333334</ele><time>2026-04-27T11:01:54Z</time></trkpt><trkpt lat="42.08028703865838" lon="13.56910713764289"><ele>857.0</ele><time>2026-04-27T11:01:55Z</time></trkpt><trkpt lat="42.08024985601748" lon="13.568995843462204"><ele>857.0</ele><time>2026-04-27T11:01:56Z</time></trkpt><trkpt lat="42.08020332656371" lon="13.568853862664305"><ele>857.0</ele><time>2026-04-27T11:01:57Z</time></trkpt><trkpt lat="42.08014910877225" lon="13.568755363706698"><ele>857.0</ele><time>2026-04-27T11:01:58Z</time></trkpt><trkpt lat="42.08012164064014" lon="13.568622894147914"><ele>857.0</ele><time>2026-04-27T11:01:59Z</time></trkpt><trkpt lat="42.08008912174748" lon="13.568487562520733"><ele>857.0</ele><time>2026-04-27T11:02:00Z</time></trkpt><trkpt lat="42.080060926574944" lon="13.568346739273665"><ele>854.4000000000001</ele><time>2026-04-27T11:02:01Z</time></trkpt><trkpt lat="42.08002806588287" lon="13.568202613021304"><ele>851.8000000000001</ele><time>2026-04-27T11:02:02Z</time></trkpt><trkpt lat="42.080014983325995" lon="13.568062603742716"><ele>849.2</ele><time>2026-04-27T11:02:03Z</time></trkpt><trkpt lat="42.08000595237317" lon="13.567927070661646"><ele>846.6</ele><time>2026-04-27T11:02:04Z</time></trkpt><trkpt lat="42.080023050673965" lon="13.567796947723535"><ele>844.0</ele><time>2026-04-27T11:02:05Z</time></trkpt><trkpt lat="42.08004590817457" lon="13.56767388745283"><ele>842.4000000000001</ele><time>2026-04-27T11:02:06Z</time></trkpt><trkpt lat="42.08008554356892" lon="13.567559956378878"><ele>840.8</ele><time>2026-04-27T11:02:07Z</time></trkpt><trkpt lat="42.08014373212989" lon="13.567443918541755"><ele>839.2</ele><time>2026-04-27T11:02:08Z</time></trkpt><trkpt lat="42.08019950636945" lon="13.567327282835832"><ele>837.5999999999999</ele><time>2026-04-27T11:02:09Z</time></trkpt><trkpt lat="42.08026881003304" lon="13.567215316302908"><ele>836.0</ele><time>2026-04-27T11:02:10Z</time></trkpt><trkpt lat="42.08033751952857" lon="13.567099313671621"><ele>836.4</ele><time>2026-04-27T11:02:11Z</time></trkpt><trkpt lat="42.08041121096539" lon="13.56699376330127"><ele>836.8</ele><time>2026-04-27T11:02:12Z</time></trkpt><trkpt lat="42.080489362208745" lon="13.566941309690794"><ele>837.1999999999999</ele><time>2026-04-27T11:02:13Z</time></trkpt><trkpt lat="42.08054391382364" lon="13.566852514863786"><ele>837.5999999999999</ele><time>2026-04-27T11:02:14Z</time></trkpt><trkpt lat="42.080595683143784" lon="13.566794526806627"><ele>838.0</ele><time>2026-04-27T11:02:15Z</time></trkpt><trkpt lat="42.08058326824809" lon="13.566607865083709"><ele>838.0</ele><time>2026-04-27T11:02:17Z</time></trkpt><trkpt lat="42.080542489418335" lon="13.566502439922742"><ele>838.0</ele><time>2026-04-27T11:02:18Z</time></trkpt><trkpt lat="42.08051161914839" lon="13.566377937421876"><ele>838.0</ele><time>2026-04-27T11:02:19Z</time></trkpt><trkpt lat="42.08047483675107" lon="13.56623097789391"><ele>838.0</ele><time>2026-04-27T11:02:20Z</time></trkpt><trkpt lat="42.080460168764496" lon="13.566107966397821"><ele>838.0</ele><time>2026-04-27T11:02:21Z</time></trkpt><trkpt lat="42.080455688123685" lon="13.566005624480816"><ele>838.0</ele><time>2026-04-27T11:02:22Z</time></trkpt><trkpt lat="42.080446155291824" lon="13.565873345568935"><ele>838.0</ele><time>2026-04-27T11:02:23Z</time></trkpt><trkpt lat="42.08045311216382" lon="13.565749011362623"><ele>838.0</ele><time>2026-04-27T11:02:24Z</time></trkpt><trkpt lat="42.080424791915384" lon="13.565632540868267"><ele>838.0</ele><time>2026-04-27T11:02:25Z</time></trkpt><trkpt lat="42.080387436424594" lon="13.565511912701604"><ele>838.0</ele><time>2026-04-27T11:02:25.998Z</time></trkpt><trkpt lat="42.08033948331573" lon="13.565394468357209"><ele>835.0</ele><time>2026-04-27T11:02:26.998Z</time></trkpt><trkpt lat="42.080281683735976" lon="13.56525511302981"><ele>832.0</ele><time>2026-04-27T11:02:27.998Z</time></trkpt><trkpt lat="42.08022504128262" lon="13.565097235761886"><ele>829.0</ele><time>2026-04-27T11:02:28.998Z</time></trkpt><trkpt lat="42.080163288812805" lon="13.564953632463462"><ele>826.0</ele><time>2026-04-27T11:02:29.998Z</time></trkpt><trkpt lat="42.08012185708507" lon="13.564782867369834"><ele>826.0</ele><time>2026-04-27T11:02:30.998Z</time></trkpt><trkpt lat="42.08008301946318" lon="13.564632863908484"><ele>826.0</ele><time>2026-04-27T11:02:31.998Z</time></trkpt><trkpt lat="42.08005605341071" lon="13.564493238083825"><ele>826.0</ele><time>2026-04-27T11:02:32.998Z</time></trkpt><trkpt lat="42.080039577580045" lon="13.564346601821766"><ele>826.0</ele><time>2026-04-27T11:02:33.998Z</time></trkpt><trkpt lat="42.08004891774055" lon="13.564196365019106"><ele>826.0</ele><time>2026-04-27T11:02:34.998Z</time></trkpt><trkpt lat="42.08003259965495" lon="13.564032233738088"><ele>824.0</ele><time>2026-04-27T11:02:35.998Z</time></trkpt><trkpt lat="42.08003071286016" lon="13.563857832135337"><ele>822.0</ele><time>2026-04-27T11:02:36.998Z</time></trkpt><trkpt lat="42.08002703510474" lon="13.56365373001474"><ele>820.0</ele><time>2026-04-27T11:02:37.998Z</time></trkpt><trkpt lat="42.080018224815696" lon="13.563470730998585"><ele>818.0</ele><time>2026-04-27T11:02:38.998Z</time></trkpt><trkpt lat="42.08000856577557" lon="13.563292298482352"><ele>817.8</ele><time>2026-04-27T11:02:39.998Z</time></trkpt><trkpt lat="42.08000202983346" lon="13.563135123818814"><ele>817.5999999999999</ele><time>2026-04-27T11:02:40.999Z</time></trkpt><trkpt lat="42.08000101555193" lon="13.563008087494136"><ele>817.4000000000001</ele><time>2026-04-27T11:02:41.999Z</time></trkpt><trkpt lat="42.08001619403216" lon="13.562890869688966"><ele>817.2</ele><time>2026-04-27T11:02:42.999Z</time></trkpt><trkpt lat="42.080031739470506" lon="13.562789326676521"><ele>817.0</ele><time>2026-04-27T11:02:43.999Z</time></trkpt><trkpt lat="42.08004543215526" lon="13.562680524191745"><ele>815.4999999999999</ele><time>2026-04-27T11:02:44.999Z</time></trkpt><trkpt lat="42.08004757717696" lon="13.56255725585021"><ele>814.0</ele><time>2026-04-27T11:02:45.999Z</time></trkpt><trkpt lat="42.080037598007" lon="13.562463679900064"><ele>812.5</ele><time>2026-04-27T11:02:46.999Z</time></trkpt><trkpt lat="42.08001673229329" lon="13.562351783243301"><ele>811.0</ele><time>2026-04-27T11:02:47.999Z</time></trkpt><trkpt lat="42.079968454594436" lon="13.562266108340681"><ele>809.4999999999999</ele><time>2026-04-27T11:02:48.999Z</time></trkpt><trkpt lat="42.07992581474665" lon="13.56217665007591"><ele>808.0</ele><time>2026-04-27T11:02:49.999Z</time></trkpt><trkpt lat="42.079889977802424" lon="13.562052959282717"><ele>811.8</ele><time>2026-04-27T11:02:50.999Z</time></trkpt><trkpt lat="42.07985521439207" lon="13.561970206916499"><ele>815.5999999999999</ele><time>2026-04-27T11:02:51.999Z</time></trkpt><trkpt lat="42.07984499737959" lon="13.56184345726851"><ele>819.4000000000001</ele><time>2026-04-27T11:02:52.999Z</time></trkpt><trkpt lat="42.07984563619299" lon="13.561699880122744"><ele>823.2</ele><time>2026-04-27T11:02:53.999Z</time></trkpt><trkpt lat="42.0798510125962" lon="13.561554622105492"><ele>827.0</ele><time>2026-04-27T11:02:54.999Z</time></trkpt><trkpt lat="42.079881196963676" lon="13.561438452096143"><ele>827.0000000000001</ele><time>2026-04-27T11:02:55.999Z</time></trkpt><trkpt lat="42.079920417934915" lon="13.561344150453202"><ele>827.0</ele><time>2026-04-27T11:02:56.999Z</time></trkpt><trkpt lat="42.07997804025305" lon="13.561240742068756"><ele>827.0</ele><time>2026-04-27T11:02:57.999Z</time></trkpt><trkpt lat="42.08004596364517" lon="13.561125207873514"><ele>827.0</ele><time>2026-04-27T11:02:58.999Z</time></trkpt><trkpt lat="42.08009149460927" lon="13.561029137940258"><ele>827.0000000000001</ele><time>2026-04-27T11:02:59.999Z</time></trkpt><trkpt lat="42.08012343387506" lon="13.560942283714233"><ele>827.0</ele><time>2026-04-27T11:03:00.999Z</time></trkpt><trkpt lat="42.08015107442854" lon="13.56086284158654"><ele>820.4000000000001</ele><time>2026-04-27T11:03:01.999Z</time></trkpt><trkpt lat="42.08013914209091" lon="13.5607476082651"><ele>813.8000000000001</ele><time>2026-04-27T11:03:02.999Z</time></trkpt><trkpt lat="42.08012708750385" lon="13.560611288350595"><ele>807.2</ele><time>2026-04-27T11:03:03.999Z</time></trkpt><trkpt lat="42.08006460615758" lon="13.56046744386329"><ele>800.6</ele><time>2026-04-27T11:03:04.999Z</time></trkpt><trkpt lat="42.080008326862284" lon="13.560327644065763"><ele>794.0</ele><time>2026-04-27T11:03:05.999Z</time></trkpt><trkpt lat="42.079961521036736" lon="13.560213943828979"><ele>796.4000000000001</ele><time>2026-04-27T11:03:06.999Z</time></trkpt><trkpt lat="42.07991678156533" lon="13.560109498456686"><ele>798.8</ele><time>2026-04-27T11:03:07.999Z</time></trkpt><trkpt lat="42.07985269486419" lon="13.560015834863139"><ele>801.2</ele><time>2026-04-27T11:03:08.999Z</time></trkpt><trkpt lat="42.07978859514036" lon="13.55990211641408"><ele>803.5999999999999</ele><time>2026-04-27T11:03:09.999Z</time></trkpt><trkpt lat="42.07973301260739" lon="13.559806110471818"><ele>806.0</ele><time>2026-04-27T11:03:10.999Z</time></trkpt><trkpt lat="42.07968065203606" lon="13.55968208234839"><ele>806.0</ele><time>2026-04-27T11:03:11.999Z</time></trkpt><trkpt lat="42.07961070462734" lon="13.55958562277831"><ele>806.0</ele><time>2026-04-27T11:03:12.999Z</time></trkpt><trkpt lat="42.07956430074729" lon="13.559458406025575"><ele>806.0</ele><time>2026-04-27T11:03:13.999Z</time></trkpt><trkpt lat="42.07950821576713" lon="13.559344998882542"><ele>806.0</ele><time>2026-04-27T11:03:14.999Z</time></trkpt><trkpt lat="42.07945355963362" lon="13.559224693709337"><ele>806.0</ele><time>2026-04-27T11:03:15.999Z</time></trkpt><trkpt lat="42.07940566837992" lon="13.559117840593304"><ele>801.1999999999999</ele><time>2026-04-27T11:03:16.999Z</time></trkpt><trkpt lat="42.079366676111356" lon="13.559033179391562"><ele>796.4</ele><time>2026-04-27T11:03:17.999Z</time></trkpt><trkpt lat="42.07931506769704" lon="13.558924516103973"><ele>791.6</ele><time>2026-04-27T11:03:18.999Z</time></trkpt><trkpt lat="42.07924702925852" lon="13.558819073342217"><ele>786.8</ele><time>2026-04-27T11:03:19.999Z</time></trkpt><trkpt lat="42.07919583066111" lon="13.55872793928563"><ele>782.0</ele><time>2026-04-27T11:03:20.999Z</time></trkpt><trkpt lat="42.07910956882338" lon="13.558610697920026"><ele>782.4000000000001</ele><time>2026-04-27T11:03:21.999Z</time></trkpt><trkpt lat="42.07902486268793" lon="13.558486421823295"><ele>782.8000000000001</ele><time>2026-04-27T11:03:22.999Z</time></trkpt><trkpt lat="42.07896641173547" lon="13.558354727110329"><ele>783.2</ele><time>2026-04-27T11:03:23.999Z</time></trkpt><trkpt lat="42.078910537126376" lon="13.558243586651486"><ele>783.6</ele><time>2026-04-27T11:03:25Z</time></trkpt><trkpt lat="42.07885496245883" lon="13.558116778927252"><ele>784.0</ele><time>2026-04-27T11:03:26Z</time></trkpt><trkpt lat="42.07879171568296" lon="13.557970551697363"><ele>779.0</ele><time>2026-04-27T11:03:27Z</time></trkpt><trkpt lat="42.07873155191243" lon="13.557839045200877"><ele>774.0</ele><time>2026-04-27T11:03:28Z</time></trkpt><trkpt lat="42.0786661356304" lon="13.557696057701513"><ele>769.0</ele><time>2026-04-27T11:03:29Z</time></trkpt><trkpt lat="42.07858810813031" lon="13.557563647900702"><ele>764.0</ele><time>2026-04-27T11:03:30Z</time></trkpt><trkpt lat="42.07852695407681" lon="13.55740078888761"><ele>764.0</ele><time>2026-04-27T11:03:31Z</time></trkpt><trkpt lat="42.07846848547852" lon="13.557256175780024"><ele>764.0</ele><time>2026-04-27T11:03:32Z</time></trkpt><trkpt lat="42.07841185711888" lon="13.55714186023879"><ele>764.0</ele><time>2026-04-27T11:03:33Z</time></trkpt><trkpt lat="42.07836194649885" lon="13.557018813128431"><ele>764.0</ele><time>2026-04-27T11:03:34Z</time></trkpt><trkpt lat="42.07830779354286" lon="13.556901411152774"><ele>764.0</ele><time>2026-04-27T11:03:35Z</time></trkpt><trkpt lat="42.07828078234135" lon="13.556789454946394"><ele>765.8000000000001</ele><time>2026-04-27T11:03:36Z</time></trkpt><trkpt lat="42.07825068737581" lon="13.556692524145047"><ele>767.6</ele><time>2026-04-27T11:03:37Z</time></trkpt><trkpt lat="42.078223691560154" lon="13.556555119099219"><ele>769.4</ele><time>2026-04-27T11:03:38Z</time></trkpt><trkpt lat="42.07820053231532" lon="13.556407252465018"><ele>771.2</ele><time>2026-04-27T11:03:39Z</time></trkpt><trkpt lat="42.078158457449845" lon="13.556250726781213"><ele>773.0</ele><time>2026-04-27T11:03:40Z</time></trkpt><trkpt lat="42.07814443773392" lon="13.556110547887322"><ele>773.0</ele><time>2026-04-27T11:03:41Z</time></trkpt><trkpt lat="42.07811714919572" lon="13.55598770911153"><ele>773.0</ele><time>2026-04-27T11:03:42Z</time></trkpt><trkpt lat="42.07806764600144" lon="13.555873857824484"><ele>773.0</ele><time>2026-04-27T11:03:43Z</time></trkpt><trkpt lat="42.07800686664407" lon="13.555736582855763"><ele>773.0</ele><time>2026-04-27T11:03:44Z</time></trkpt><trkpt lat="42.07793661010817" lon="13.555608341177875"><ele>773.0</ele><time>2026-04-27T11:03:45Z</time></trkpt><trkpt lat="42.07787414422842" lon="13.555489834693658"><ele>773.0</ele><time>2026-04-27T11:03:46Z</time></trkpt><trkpt lat="42.07781647012961" lon="13.555377433536027"><ele>773.0</ele><time>2026-04-27T11:03:47Z</time></trkpt><trkpt lat="42.077829192116326" lon="13.55525353823907"><ele>773.0</ele><time>2026-04-27T11:03:48Z</time></trkpt><trkpt lat="42.077816885341804" lon="13.555133666932544"><ele>773.0</ele><time>2026-04-27T11:03:49Z</time></trkpt><trkpt lat="42.077837368432036" lon="13.554997306412906"><ele>773.0</ele><time>2026-04-27T11:03:50Z</time></trkpt><trkpt lat="42.07782681681742" lon="13.554895207680504"><ele>770.0</ele><time>2026-04-27T11:03:51Z</time></trkpt><trkpt lat="42.07779887047948" lon="13.55479296753654"><ele>767.0</ele><time>2026-04-27T11:03:52Z</time></trkpt><trkpt lat="42.07773704477821" lon="13.554679829398538"><ele>764.0</ele><time>2026-04-27T11:03:53Z</time></trkpt><trkpt lat="42.07767100216627" lon="13.554571543213765"><ele>761.0</ele><time>2026-04-27T11:03:54Z</time></trkpt><trkpt lat="42.07760593102424" lon="13.554471953672811"><ele>758.0</ele><time>2026-04-27T11:03:55Z</time></trkpt><trkpt lat="42.07753677982545" lon="13.554398278011346"><ele>758.8</ele><time>2026-04-27T11:03:56Z</time></trkpt><trkpt lat="42.07744584459188" lon="13.554325578701656"><ele>759.5999999999999</ele><time>2026-04-27T11:03:57Z</time></trkpt><trkpt lat="42.077352090117365" lon="13.554241850672687"><ele>760.4000000000001</ele><time>2026-04-27T11:03:58Z</time></trkpt><trkpt lat="42.07727723397167" lon="13.554136337380717"><ele>761.2</ele><time>2026-04-27T11:03:59Z</time></trkpt><trkpt lat="42.07720749361276" lon="13.554061134406615"><ele>762.0</ele><time>2026-04-27T11:04:00Z</time></trkpt><trkpt lat="42.07718984766726" lon="13.553973655495469"><ele>762.0</ele><time>2026-04-27T11:04:01Z</time></trkpt><trkpt lat="42.07716360043463" lon="13.55387439432881"><ele>762.0</ele><time>2026-04-27T11:04:02Z</time></trkpt><trkpt lat="42.077128792378424" lon="13.55374683893798"><ele>762.0</ele><time>2026-04-27T11:04:03Z</time></trkpt><trkpt lat="42.077109622264636" lon="13.553634347876349"><ele>762.0</ele><time>2026-04-27T11:04:04Z</time></trkpt><trkpt lat="42.07707365676435" lon="13.553544113624547"><ele>762.0</ele><time>2026-04-27T11:04:05Z</time></trkpt><trkpt lat="42.07702255360819" lon="13.553431595700337"><ele>762.0</ele><time>2026-04-27T11:04:07Z</time></trkpt><trkpt lat="42.07709193868159" lon="13.553374226264552"><ele>759.0</ele><time>2026-04-27T11:04:19Z</time></trkpt><trkpt lat="42.07715977754667" lon="13.553331416068342"><ele>756.0</ele><time>2026-04-27T11:04:20Z</time></trkpt><trkpt lat="42.077249584324456" lon="13.553299817072487"><ele>753.0</ele><time>2026-04-27T11:04:21Z</time></trkpt><trkpt lat="42.07734593958493" lon="13.553276502919953"><ele>750.0</ele><time>2026-04-27T11:04:22Z</time></trkpt><trkpt lat="42.07744009282421" lon="13.553221918940949"><ele>747.0</ele><time>2026-04-27T11:04:23Z</time></trkpt><trkpt lat="42.07751908658439" lon="13.553136046843298"><ele>747.0</ele><time>2026-04-27T11:04:24Z</time></trkpt><trkpt lat="42.077569889475114" lon="13.553014443003804"><ele>747.0</ele><time>2026-04-27T11:04:25Z</time></trkpt><trkpt lat="42.077587751929" lon="13.552872107704594"><ele>747.0</ele><time>2026-04-27T11:04:26Z</time></trkpt><trkpt lat="42.077569245549626" lon="13.552715840616038"><ele>747.0</ele><time>2026-04-27T11:04:27Z</time></trkpt><trkpt lat="42.07752199803322" lon="13.552549528394545"><ele>747.0</ele><time>2026-04-27T11:04:28Z</time></trkpt><trkpt lat="42.07747356445303" lon="13.552389470174786"><ele>747.0</ele><time>2026-04-27T11:04:29Z</time></trkpt><trkpt lat="42.07743064367817" lon="13.552214397520538"><ele>747.0</ele><time>2026-04-27T11:04:30Z</time></trkpt><trkpt lat="42.077383988588366" lon="13.552042873688212"><ele>747.0</ele><time>2026-04-27T11:04:31Z</time></trkpt><trkpt lat="42.077332219965975" lon="13.551870106147053"><ele>747.0</ele><time>2026-04-27T11:04:31.999Z</time></trkpt><trkpt lat="42.07727882255245" lon="13.551703692378391"><ele>747.0</ele><time>2026-04-27T11:04:32.999Z</time></trkpt><trkpt lat="42.077220132137064" lon="13.551566059074297"><ele>747.0</ele><time>2026-04-27T11:04:33.999Z</time></trkpt><trkpt lat="42.077154659792825" lon="13.551435310220047"><ele>747.0</ele><time>2026-04-27T11:04:34.999Z</time></trkpt><trkpt lat="42.07707904383432" lon="13.551325193845166"><ele>747.0</ele><time>2026-04-27T11:04:35.999Z</time></trkpt><trkpt lat="42.07699602191029" lon="13.551238345381995"><ele>747.0</ele><time>2026-04-27T11:04:36.999Z</time></trkpt><trkpt lat="42.07691224086288" lon="13.55115980239069"><ele>747.0</ele><time>2026-04-27T11:04:37.999Z</time></trkpt><trkpt lat="42.076826678418605" lon="13.551091715922205"><ele>747.0</ele><time>2026-04-27T11:04:38.999Z</time></trkpt><trkpt lat="42.076750838834165" lon="13.551031246401765"><ele>747.0</ele><time>2026-04-27T11:04:39.999Z</time></trkpt><trkpt lat="42.07668843366687" lon="13.550984494030672"><ele>746.0</ele><time>2026-04-27T11:04:40.999Z</time></trkpt><trkpt lat="42.07659972447329" lon="13.55088818569534"><ele>745.0</ele><time>2026-04-27T11:04:42.999Z</time></trkpt><trkpt lat="42.07656129751606" lon="13.550778277833716"><ele>744.0</ele><time>2026-04-27T11:04:44.999Z</time></trkpt><trkpt lat="42.07656262174863" lon="13.550691533486058"><ele>743.0</ele><time>2026-04-27T11:04:51.999Z</time></trkpt><trkpt lat="42.076618165058605" lon="13.550635343724268"><ele>742.0</ele><time>2026-04-27T11:04:53.999Z</time></trkpt><trkpt lat="42.076685017780434" lon="13.550697315788941"><ele>741.0</ele><time>2026-04-27T11:04:54.999Z</time></trkpt><trkpt lat="42.07675884459402" lon="13.550690699588078"><ele>743.8</ele><time>2026-04-27T11:04:55.999Z</time></trkpt><trkpt lat="42.07684467619821" lon="13.550678908012744"><ele>746.5999999999999</ele><time>2026-04-27T11:04:56.999Z</time></trkpt><trkpt lat="42.07695099827753" lon="13.550639407708353"><ele>749.4</ele><time>2026-04-27T11:04:57.999Z</time></trkpt><trkpt lat="42.077055635344564" lon="13.550587282803106"><ele>752.2</ele><time>2026-04-27T11:04:58.999Z</time></trkpt><trkpt lat="42.07718640951035" lon="13.550525297224425"><ele>755.0</ele><time>2026-04-27T11:04:59.999Z</time></trkpt><trkpt lat="42.07732773192829" lon="13.55046558620365"><ele>757.6666666666666</ele><time>2026-04-27T11:05:00.999Z</time></trkpt><trkpt lat="42.07746336900659" lon="13.550405566857282"><ele>760.3333333333334</ele><time>2026-04-27T11:05:01.999Z</time></trkpt><trkpt lat="42.07761223181025" lon="13.550336935220507"><ele>763.0</ele><time>2026-04-27T11:05:02.999Z</time></trkpt><trkpt lat="42.077763977561595" lon="13.550268342101482"><ele>763.0</ele><time>2026-04-27T11:05:03.999Z</time></trkpt><trkpt lat="42.07793121586039" lon="13.550201610967251"><ele>763.0</ele><time>2026-04-27T11:05:04.999Z</time></trkpt><trkpt lat="42.0780864795831" lon="13.550135756957511"><ele>763.0</ele><time>2026-04-27T11:05:05.999Z</time></trkpt><trkpt lat="42.07824510367231" lon="13.550072009281918"><ele>767.6666666666667</ele><time>2026-04-27T11:05:06.999Z</time></trkpt><trkpt lat="42.078399635125066" lon="13.550004153112221"><ele>772.3333333333334</ele><time>2026-04-27T11:05:07.999Z</time></trkpt><trkpt lat="42.07855625941507" lon="13.549933763555748"><ele>777.0</ele><time>2026-04-27T11:05:08.999Z</time></trkpt><trkpt lat="42.07871477086549" lon="13.54987506216281"><ele>777.0</ele><time>2026-04-27T11:05:09.999Z</time></trkpt><trkpt lat="42.0788523297517" lon="13.549819673380073"><ele>777.0</ele><time>2026-04-27T11:05:10.999Z</time></trkpt><trkpt lat="42.07895996780603" lon="13.54976904667838"><ele>777.0</ele><time>2026-04-27T11:05:11.999Z</time></trkpt><trkpt lat="42.07907889248388" lon="13.549719771387926"><ele>777.0</ele><time>2026-04-27T11:05:13Z</time></trkpt><trkpt lat="42.07921495432493" lon="13.549662557118488"><ele>777.6</ele><time>2026-04-27T11:05:14Z</time></trkpt><trkpt lat="42.07936058710554" lon="13.549590679602064"><ele>778.2</ele><time>2026-04-27T11:05:15Z</time></trkpt><trkpt lat="42.079468280855885" lon="13.549537968257638"><ele>778.8</ele><time>2026-04-27T11:05:16Z</time></trkpt><trkpt lat="42.079544647355384" lon="13.549502659705546"><ele>779.4</ele><time>2026-04-27T11:05:17Z</time></trkpt><trkpt lat="42.07962669872524" lon="13.549498018346531"><ele>780.0</ele><time>2026-04-27T11:05:20Z</time></trkpt><trkpt lat="42.07974746002758" lon="13.549521140212455"><ele>780.0</ele><time>2026-04-27T11:05:22Z</time></trkpt><trkpt lat="42.07980673290952" lon="13.549356915385173"><ele>780.0</ele><time>2026-04-27T11:05:23Z</time></trkpt><trkpt lat="42.0799037716281" lon="13.549239211123444"><ele>780.0</ele><time>2026-04-27T11:05:24Z</time></trkpt><trkpt lat="42.080005430985544" lon="13.549120891572597"><ele>780.0</ele><time>2026-04-27T11:05:25Z</time></trkpt><trkpt lat="42.08011648053207" lon="13.548999728971138"><ele>779.75</ele><time>2026-04-27T11:05:26Z</time></trkpt><trkpt lat="42.080236013057174" lon="13.548876647159506"><ele>779.5</ele><time>2026-04-27T11:05:27Z</time></trkpt><trkpt lat="42.08033936399097" lon="13.548770957390813"><ele>779.25</ele><time>2026-04-27T11:05:28Z</time></trkpt><trkpt lat="42.08044823874058" lon="13.54866307919082"><ele>779.0</ele><time>2026-04-27T11:05:29Z</time></trkpt><trkpt lat="42.08054782199836" lon="13.548564510019359"><ele>779.0</ele><time>2026-04-27T11:05:30Z</time></trkpt><trkpt lat="42.08063337520237" lon="13.548475785452968"><ele>779.0</ele><time>2026-04-27T11:05:31Z</time></trkpt><trkpt lat="42.08070780346984" lon="13.548392029813229"><ele>779.0</ele><time>2026-04-27T11:05:32Z</time></trkpt><trkpt lat="42.080777952106565" lon="13.548310404964559"><ele>779.0</ele><time>2026-04-27T11:05:33Z</time></trkpt><trkpt lat="42.08085616664991" lon="13.548219487088488"><ele>779.0</ele><time>2026-04-27T11:05:34Z</time></trkpt><trkpt lat="42.080940961402696" lon="13.548125278178837"><ele>780.2</ele><time>2026-04-27T11:05:35Z</time></trkpt><trkpt lat="42.08102282168931" lon="13.548035154285586"><ele>781.4000000000001</ele><time>2026-04-27T11:05:36Z</time></trkpt><trkpt lat="42.08109570024989" lon="13.5479549461683"><ele>782.6</ele><time>2026-04-27T11:05:37Z</time></trkpt><trkpt lat="42.081170495482006" lon="13.547875492510547"><ele>783.8</ele><time>2026-04-27T11:05:38Z</time></trkpt><trkpt lat="42.081237501350806" lon="13.547803005952483"><ele>785.0</ele><time>2026-04-27T11:05:39Z</time></trkpt><trkpt lat="42.08131306518997" lon="13.547726584994995"><ele>782.6</ele><time>2026-04-27T11:05:40Z</time></trkpt><trkpt lat="42.08139683905765" lon="13.547644670650298"><ele>780.2</ele><time>2026-04-27T11:05:41Z</time></trkpt><trkpt lat="42.08148512321838" lon="13.54757025683075"><ele>777.8</ele><time>2026-04-27T11:05:42Z</time></trkpt><trkpt lat="42.08157557381872" lon="13.547498265759078"><ele>775.4</ele><time>2026-04-27T11:05:43Z</time></trkpt><trkpt lat="42.08167119532088" lon="13.5474433254443"><ele>773.0</ele><time>2026-04-27T11:05:44Z</time></trkpt><trkpt lat="42.08176798193902" lon="13.547389970733294"><ele>773.0</ele><time>2026-04-27T11:05:45Z</time></trkpt><trkpt lat="42.08186638676664" lon="13.547350319003435"><ele>773.0</ele><time>2026-04-27T11:05:46Z</time></trkpt><trkpt lat="42.081966949514" lon="13.547301873746607"><ele>773.0</ele><time>2026-04-27T11:05:47Z</time></trkpt><trkpt lat="42.08205813916945" lon="13.547267000114713"><ele>773.0</ele><time>2026-04-27T11:05:48Z</time></trkpt><trkpt lat="42.08214883800252" lon="13.54721463094211"><ele>773.0</ele><time>2026-04-27T11:05:49Z</time></trkpt><trkpt lat="42.08223178243417" lon="13.547149060218656"><ele>773.0</ele><time>2026-04-27T11:05:50Z</time></trkpt><trkpt lat="42.082306325464316" lon="13.547053986612239"><ele>773.0</ele><time>2026-04-27T11:05:51Z</time></trkpt><trkpt lat="42.082360328961656" lon="13.54692147256922"><ele>773.0</ele><time>2026-04-27T11:05:52Z</time></trkpt><trkpt lat="42.082408070947075" lon="13.546797930841798"><ele>773.0</ele><time>2026-04-27T11:05:53Z</time></trkpt><trkpt lat="42.08245818213418" lon="13.546666101069201"><ele>773.0</ele><time>2026-04-27T11:05:54Z</time></trkpt><trkpt lat="42.082495374565205" lon="13.546525192899793"><ele>773.75</ele><time>2026-04-27T11:05:55Z</time></trkpt><trkpt lat="42.08252540924875" lon="13.5463692835304"><ele>774.5</ele><time>2026-04-27T11:05:56Z</time></trkpt><trkpt lat="42.082552428517545" lon="13.546206445520221"><ele>775.25</ele><time>2026-04-27T11:05:57Z</time></trkpt><trkpt lat="42.08256631466754" lon="13.546049865398697"><ele>776.0</ele><time>2026-04-27T11:05:58Z</time></trkpt><trkpt lat="42.08258133764991" lon="13.545891525454136"><ele>774.5</ele><time>2026-04-27T11:05:59Z</time></trkpt><trkpt lat="42.0825841393441" lon="13.545728840859574"><ele>773.0</ele><time>2026-04-27T11:06:00Z</time></trkpt><trkpt lat="42.08258105856127" lon="13.545561307854888"><ele>771.5</ele><time>2026-04-27T11:06:01Z</time></trkpt><trkpt lat="42.082571228558976" lon="13.545388025870855"><ele>770.0</ele><time>2026-04-27T11:06:02Z</time></trkpt><trkpt lat="42.0825377898631" lon="13.545215422717382"><ele>769.5</ele><time>2026-04-27T11:06:03Z</time></trkpt><trkpt lat="42.08250390108994" lon="13.54505818227534"><ele>769.0</ele><time>2026-04-27T11:06:04Z</time></trkpt><trkpt lat="42.082472138450264" lon="13.544910294380712"><ele>768.5</ele><time>2026-04-27T11:06:05Z</time></trkpt><trkpt lat="42.08244167746301" lon="13.54476974913743"><ele>768.0</ele><time>2026-04-27T11:06:06Z</time></trkpt><trkpt lat="42.082416283585836" lon="13.544626678686951"><ele>764.5</ele><time>2026-04-27T11:06:07Z</time></trkpt><trkpt lat="42.08238734764847" lon="13.544470050640458"><ele>761.0</ele><time>2026-04-27T11:06:08Z</time></trkpt><trkpt lat="42.082362828840076" lon="13.54430639378568"><ele>757.5</ele><time>2026-04-27T11:06:09Z</time></trkpt><trkpt lat="42.08236566542894" lon="13.5441592686498"><ele>754.0</ele><time>2026-04-27T11:06:10Z</time></trkpt><trkpt lat="42.082369436912" lon="13.544019507478431"><ele>754.0</ele><time>2026-04-27T11:06:11Z</time></trkpt><trkpt lat="42.08237695840144" lon="13.543896749516945"><ele>754.0</ele><time>2026-04-27T11:06:12Z</time></trkpt><trkpt lat="42.0823775268996" lon="13.543774526334731"><ele>754.0</ele><time>2026-04-27T11:06:13Z</time></trkpt><trkpt lat="42.08236295722039" lon="13.543671196506866"><ele>754.0</ele><time>2026-04-27T11:06:14Z</time></trkpt><trkpt lat="42.082332243826826" lon="13.543579025247986"><ele>754.0</ele><time>2026-04-27T11:06:15Z</time></trkpt><trkpt lat="42.08230561199453" lon="13.543469674288092"><ele>754.0</ele><time>2026-04-27T11:06:17Z</time></trkpt><trkpt lat="42.08216622097198" lon="13.54350569569204"><ele>753.25</ele><time>2026-04-27T11:06:18Z</time></trkpt><trkpt lat="42.08208228568217" lon="13.543518864239145"><ele>752.5</ele><time>2026-04-27T11:06:19Z</time></trkpt><trkpt lat="42.08197156787433" lon="13.543515710156871"><ele>751.75</ele><time>2026-04-27T11:06:20Z</time></trkpt><trkpt lat="42.081846165138224" lon="13.543508447660841"><ele>751.0</ele><time>2026-04-27T11:06:21Z</time></trkpt><trkpt lat="42.08171302425837" lon="13.543508286939513"><ele>750.1999999999999</ele><time>2026-04-27T11:06:22Z</time></trkpt><trkpt lat="42.081589647980095" lon="13.543511715297607"><ele>749.4</ele><time>2026-04-27T11:06:23Z</time></trkpt><trkpt lat="42.08147004074227" lon="13.543504815320544"><ele>748.6</ele><time>2026-04-27T11:06:24Z</time></trkpt><trkpt lat="42.08136905268136" lon="13.543497104505759"><ele>747.8</ele><time>2026-04-27T11:06:25Z</time></trkpt><trkpt lat="42.08127621753549" lon="13.543495249223744"><ele>747.0</ele><time>2026-04-27T11:06:26.001Z</time></trkpt><trkpt lat="42.08118493512314" lon="13.54349208417973"><ele>747.0</ele><time>2026-04-27T11:06:27.001Z</time></trkpt><trkpt lat="42.081095532366724" lon="13.54348937093406"><ele>747.0</ele><time>2026-04-27T11:06:28.001Z</time></trkpt><trkpt lat="42.08099619450779" lon="13.543484171765575"><ele>747.0</ele><time>2026-04-27T11:06:29.001Z</time></trkpt><trkpt lat="42.08087703639435" lon="13.543487860037809"><ele>747.0</ele><time>2026-04-27T11:06:30.001Z</time></trkpt><trkpt lat="42.08075214464887" lon="13.543494004743794"><ele>747.0</ele><time>2026-04-27T11:06:31.001Z</time></trkpt><trkpt lat="42.080609998530974" lon="13.543492281793842"><ele>746.25</ele><time>2026-04-27T11:06:32.001Z</time></trkpt><trkpt lat="42.080462274622136" lon="13.54349283847957"><ele>745.5</ele><time>2026-04-27T11:06:33.001Z</time></trkpt><trkpt lat="42.0803207638133" lon="13.543487260089638"><ele>744.75</ele><time>2026-04-27T11:06:34.001Z</time></trkpt><trkpt lat="42.08018456198451" lon="13.543487751664015"><ele>744.0</ele><time>2026-04-27T11:06:35.001Z</time></trkpt><trkpt lat="42.080055405953715" lon="13.543484777134193"><ele>743.2</ele><time>2026-04-27T11:06:36.001Z</time></trkpt><trkpt lat="42.07992678702731" lon="13.543485297539867"><ele>742.4000000000001</ele><time>2026-04-27T11:06:37.001Z</time></trkpt><trkpt lat="42.07981853146492" lon="13.543477736332331"><ele>741.6</ele><time>2026-04-27T11:06:37.999Z</time></trkpt><trkpt lat="42.079731779283215" lon="13.543467665105812"><ele>740.8</ele><time>2026-04-27T11:06:39.999Z</time></trkpt><trkpt lat="42.07980673192716" lon="13.543464036625636"><ele>740.0</ele><time>2026-04-27T11:06:48.999Z</time></trkpt><trkpt lat="42.07979047325802" lon="13.543362395235715"><ele>740.0</ele><time>2026-04-27T11:06:49.999Z</time></trkpt><trkpt lat="42.07974678457358" lon="13.5432633858189"><ele>740.0</ele><time>2026-04-27T11:06:50.999Z</time></trkpt><trkpt lat="42.079700110696024" lon="13.543164500570821"><ele>740.0</ele><time>2026-04-27T11:06:51.999Z</time></trkpt><trkpt lat="42.07967813675981" lon="13.543060636756652"><ele>740.0</ele><time>2026-04-27T11:06:52.999Z</time></trkpt><trkpt lat="42.079637803585264" lon="13.54297067475822"><ele>740.0</ele><time>2026-04-27T11:06:53.999Z</time></trkpt><trkpt lat="42.079576022877696" lon="13.542916366925644"><ele>740.0</ele><time>2026-04-27T11:06:54.999Z</time></trkpt><trkpt lat="42.07951582496294" lon="13.542882449796837"><ele>740.2</ele><time>2026-04-27T11:06:55.999Z</time></trkpt><trkpt lat="42.079425054816724" lon="13.542850641217411"><ele>740.4</ele><time>2026-04-27T11:06:56.999Z</time></trkpt><trkpt lat="42.07932790020609" lon="13.54284352764338"><ele>740.5999999999999</ele><time>2026-04-27T11:06:57.999Z</time></trkpt><trkpt lat="42.07922246141627" lon="13.542819376563688"><ele>740.8</ele><time>2026-04-27T11:06:58.999Z</time></trkpt><trkpt lat="42.079122503184266" lon="13.542762984047712"><ele>741.0</ele><time>2026-04-27T11:06:59.999Z</time></trkpt><trkpt lat="42.07902671233344" lon="13.542711766181002"><ele>740.25</ele><time>2026-04-27T11:07:00.999Z</time></trkpt><trkpt lat="42.07893855296337" lon="13.542641359264099"><ele>739.5</ele><time>2026-04-27T11:07:01.999Z</time></trkpt><trkpt lat="42.07884599509412" lon="13.542561363821674"><ele>738.75</ele><time>2026-04-27T11:07:03Z</time></trkpt><trkpt lat="42.078764778827534" lon="13.542441391619917"><ele>738.0</ele><time>2026-04-27T11:07:04Z</time></trkpt><trkpt lat="42.07867998881034" lon="13.542312617670193"><ele>738.0</ele><time>2026-04-27T11:07:05Z</time></trkpt><trkpt lat="42.07859918756568" lon="13.542201967209545"><ele>738.0</ele><time>2026-04-27T11:07:06Z</time></trkpt><trkpt lat="42.078516711584854" lon="13.54210443076703"><ele>738.0</ele><time>2026-04-27T11:07:07Z</time></trkpt><trkpt lat="42.078433845949135" lon="13.54201825260977"><ele>738.0</ele><time>2026-04-27T11:07:08Z</time></trkpt><trkpt lat="42.078353887779414" lon="13.54195435831102"><ele>738.0</ele><time>2026-04-27T11:07:09Z</time></trkpt><trkpt lat="42.078275060427174" lon="13.541904526045348"><ele>736.4</ele><time>2026-04-27T11:07:10Z</time></trkpt><trkpt lat="42.0781981668723" lon="13.541871306366037"><ele>734.8</ele><time>2026-04-27T11:07:11Z</time></trkpt><trkpt lat="42.078096342162574" lon="13.541823120663059"><ele>733.2</ele><time>2026-04-27T11:07:12Z</time></trkpt><trkpt lat="42.077998644175935" lon="13.541783361404747"><ele>731.6</ele><time>2026-04-27T11:07:13Z</time></trkpt><trkpt lat="42.07788983972835" lon="13.541738116925291"><ele>730.0</ele><time>2026-04-27T11:07:14Z</time></trkpt><trkpt lat="42.07779471372568" lon="13.541677006650707"><ele>730.0</ele><time>2026-04-27T11:07:15Z</time></trkpt><trkpt lat="42.07772902815781" lon="13.541637766205831"><ele>730.0</ele><time>2026-04-27T11:07:16Z</time></trkpt><trkpt lat="42.07765984315887" lon="13.541599860590434"><ele>730.0</ele><time>2026-04-27T11:07:18Z</time></trkpt><trkpt lat="42.077718040962395" lon="13.541706155918533"><ele>730.0</ele><time>2026-04-27T11:07:23Z</time></trkpt><trkpt lat="42.077784899078985" lon="13.541714596969154"><ele>730.0</ele><time>2026-04-27T11:07:24Z</time></trkpt><trkpt lat="42.07786769011368" lon="13.541745546842295"><ele>730.0</ele><time>2026-04-27T11:07:25Z</time></trkpt><trkpt lat="42.07795046169919" lon="13.541783228011656"><ele>730.0</ele><time>2026-04-27T11:07:26Z</time></trkpt><trkpt lat="42.07804353879176" lon="13.541821407723843"><ele>730.0</ele><time>2026-04-27T11:07:27Z</time></trkpt><trkpt lat="42.078135832408556" lon="13.541858367828794"><ele>730.0</ele><time>2026-04-27T11:07:28Z</time></trkpt><trkpt lat="42.07822672486507" lon="13.541896751197545"><ele>730.0</ele><time>2026-04-27T11:07:29Z</time></trkpt><trkpt lat="42.0783039699101" lon="13.541944929384494"><ele>730.0</ele><time>2026-04-27T11:07:30Z</time></trkpt><trkpt lat="42.078368652209484" lon="13.541984411842675"><ele>730.0</ele><time>2026-04-27T11:07:32Z</time></trkpt><trkpt lat="42.0783794755554" lon="13.541895243974052"><ele>732.0</ele><time>2026-04-27T11:07:34Z</time></trkpt><trkpt lat="42.07833001930837" lon="13.54175299234029"><ele>734.0</ele><time>2026-04-27T11:07:36Z</time></trkpt><trkpt lat="42.07835190205181" lon="13.541663215732004"><ele>736.0</ele><time>2026-04-27T11:07:37Z</time></trkpt><trkpt lat="42.078403801648754" lon="13.541584485898204"><ele>738.0</ele><time>2026-04-27T11:07:38Z</time></trkpt><trkpt lat="42.07842410803581" lon="13.541434543063493"><ele>740.0</ele><time>2026-04-27T11:07:40Z</time></trkpt><trkpt lat="42.0783769092614" lon="13.541358424280638"><ele>740.0</ele><time>2026-04-27T11:07:41Z</time></trkpt><trkpt lat="42.078310423881206" lon="13.54125071183254"><ele>740.0</ele><time>2026-04-27T11:07:43Z</time></trkpt><trkpt lat="42.07836557348044" lon="13.54117439510164"><ele>740.0</ele><time>2026-04-27T11:07:45Z</time></trkpt><trkpt lat="42.078412475248314" lon="13.541077843329406"><ele>740.0</ele><time>2026-04-27T11:07:47Z</time></trkpt><trkpt lat="42.07834572495458" lon="13.540936335779667"><ele>740.0</ele><time>2026-04-27T11:07:49Z</time></trkpt><trkpt lat="42.07828212944406" lon="13.540837099574674"><ele>738.6</ele><time>2026-04-27T11:07:50Z</time></trkpt><trkpt lat="42.07822451140854" lon="13.540734711628328"><ele>737.2</ele><time>2026-04-27T11:07:51Z</time></trkpt><trkpt lat="42.07817192701187" lon="13.54062775850933"><ele>735.8</ele><time>2026-04-27T11:07:52Z</time></trkpt><trkpt lat="42.078110234822454" lon="13.540512469898282"><ele>734.4</ele><time>2026-04-27T11:07:53Z</time></trkpt><trkpt lat="42.07804886040134" lon="13.540406825408212"><ele>733.0</ele><time>2026-04-27T11:07:54Z</time></trkpt><trkpt lat="42.07801555210699" lon="13.540307276218305"><ele>733.0</ele><time>2026-04-27T11:07:55Z</time></trkpt><trkpt lat="42.07796990769925" lon="13.540246539212202"><ele>733.0</ele><time>2026-04-27T11:07:56Z</time></trkpt><trkpt lat="42.07801211573285" lon="13.540116924151233"><ele>733.0</ele><time>2026-04-27T11:07:58Z</time></trkpt><trkpt lat="42.07807408177278" lon="13.540058742919445"><ele>733.0</ele><time>2026-04-27T11:07:59Z</time></trkpt><trkpt lat="42.078142054839226" lon="13.539999132506297"><ele>733.0</ele><time>2026-04-27T11:08:00Z</time></trkpt><trkpt lat="42.07820921960724" lon="13.539946987783573"><ele>733.0</ele><time>2026-04-27T11:08:01Z</time></trkpt><trkpt lat="42.07827769471743" lon="13.539906396093322"><ele>734.8</ele><time>2026-04-27T11:08:02Z</time></trkpt><trkpt lat="42.078340290660805" lon="13.539928116336212"><ele>736.5999999999999</ele><time>2026-04-27T11:08:04Z</time></trkpt><trkpt lat="42.07835903601923" lon="13.540026992659534"><ele>738.4000000000001</ele><time>2026-04-27T11:08:06Z</time></trkpt><trkpt lat="42.07837373017759" lon="13.540120516945597"><ele>740.2</ele><time>2026-04-27T11:08:10.001Z</time></trkpt><trkpt lat="42.07843177821931" lon="13.540282656897443"><ele>742.0</ele><time>2026-04-27T11:08:12.001Z</time></trkpt><trkpt lat="42.07853410645238" lon="13.540452250872976"><ele>742.0</ele><time>2026-04-27T11:08:14.001Z</time></trkpt><trkpt lat="42.07858761858395" lon="13.540550951841892"><ele>742.0</ele><time>2026-04-27T11:08:15.001Z</time></trkpt><trkpt lat="42.07862332107709" lon="13.54064059302726"><ele>742.0</ele><time>2026-04-27T11:08:16.001Z</time></trkpt><trkpt lat="42.078657205113146" lon="13.540747937966957"><ele>742.0</ele><time>2026-04-27T11:08:18.001Z</time></trkpt><trkpt lat="42.0787184218245" lon="13.540778860568075"><ele>742.0</ele><time>2026-04-27T11:08:22.001Z</time></trkpt><trkpt lat="42.07857017261949" lon="13.540719842930535"><ele>742.0</ele><time>2026-04-27T11:08:25.001Z</time></trkpt><trkpt lat="42.07848491475034" lon="13.5405676981566"><ele>742.0</ele><time>2026-04-27T11:08:27.001Z</time></trkpt><trkpt lat="42.078436777187136" lon="13.540481794889116"><ele>742.0</ele><time>2026-04-27T11:08:28.001Z</time></trkpt><trkpt lat="42.07839214918513" lon="13.540402154474071"><ele>742.0</ele><time>2026-04-27T11:08:29.001Z</time></trkpt><trkpt lat="42.078327350377535" lon="13.540285483279956"><ele>742.0</ele><time>2026-04-27T11:08:31.001Z</time></trkpt><trkpt lat="42.07827406615269" lon="13.540184200675542"><ele>742.2</ele><time>2026-04-27T11:08:33.001Z</time></trkpt><trkpt lat="42.07837531300704" lon="13.540030428574577"><ele>742.4000000000001</ele><time>2026-04-27T11:08:35.001Z</time></trkpt><trkpt lat="42.07844447311076" lon="13.539991388544008"><ele>742.5999999999999</ele><time>2026-04-27T11:08:37.001Z</time></trkpt><trkpt lat="42.07852077584031" lon="13.540013195424127"><ele>742.8</ele><time>2026-04-27T11:08:38.001Z</time></trkpt><trkpt lat="42.07859621369125" lon="13.540011888003498"><ele>743.0</ele><time>2026-04-27T11:08:39.001Z</time></trkpt><trkpt lat="42.078681158098604" lon="13.53999868421336"><ele>743.0</ele><time>2026-04-27T11:08:40.001Z</time></trkpt><trkpt lat="42.07877115005727" lon="13.539995532764811"><ele>743.0</ele><time>2026-04-27T11:08:41.001Z</time></trkpt><trkpt lat="42.078867039557544" lon="13.539991414194024"><ele>743.0</ele><time>2026-04-27T11:08:42.001Z</time></trkpt><trkpt lat="42.07895230128148" lon="13.539985677199239"><ele>743.0</ele><time>2026-04-27T11:08:43.001Z</time></trkpt><trkpt lat="42.07905356846941" lon="13.539971908705066"><ele>743.0</ele><time>2026-04-27T11:08:45Z</time></trkpt><trkpt lat="42.07911981416171" lon="13.540037112950492"><ele>743.3333333333333</ele><time>2026-04-27T11:08:52Z</time></trkpt><trkpt lat="42.079139509671464" lon="13.540186648704495"><ele>743.6666666666666</ele><time>2026-04-27T11:08:54Z</time></trkpt><trkpt lat="42.079179509292786" lon="13.540266019590055"><ele>744.0</ele><time>2026-04-27T11:08:55Z</time></trkpt><trkpt lat="42.07921593776271" lon="13.540337566517206"><ele>744.3333333333334</ele><time>2026-04-27T11:08:56Z</time></trkpt><trkpt lat="42.07931114231795" lon="13.540378871211841"><ele>744.6666666666667</ele><time>2026-04-27T11:08:58Z</time></trkpt><trkpt lat="42.07937269758107" lon="13.540355564100809"><ele>745.0</ele><time>2026-04-27T11:08:59Z</time></trkpt><trkpt lat="42.079437144098" lon="13.540328473410094"><ele>745.0</ele><time>2026-04-27T11:09:00Z</time></trkpt><trkpt lat="42.079501799121374" lon="13.540315605420906"><ele>745.0</ele><time>2026-04-27T11:09:03Z</time></trkpt><trkpt lat="42.079581756458644" lon="13.540315620209697"><ele>745.0</ele><time>2026-04-27T11:09:08Z</time></trkpt><trkpt lat="42.079587865579455" lon="13.54044078562026"><ele>745.0</ele><time>2026-04-27T11:09:10Z</time></trkpt><trkpt lat="42.0796074087155" lon="13.54053454623572"><ele>745.0</ele><time>2026-04-27T11:09:11Z</time></trkpt><trkpt lat="42.07963309028987" lon="13.540639468231278"><ele>745.0</ele><time>2026-04-27T11:09:12Z</time></trkpt><trkpt lat="42.07966235669798" lon="13.540739347140484"><ele>744.8</ele><time>2026-04-27T11:09:13Z</time></trkpt><trkpt lat="42.07973282590636" lon="13.540823487548932"><ele>744.6</ele><time>2026-04-27T11:09:14Z</time></trkpt><trkpt lat="42.079812388786934" lon="13.540912353423115"><ele>744.4000000000001</ele><time>2026-04-27T11:09:15Z</time></trkpt><trkpt lat="42.079873743092485" lon="13.540980031100537"><ele>744.2</ele><time>2026-04-27T11:09:16Z</time></trkpt><trkpt lat="42.079979142081385" lon="13.541023743347708"><ele>744.0</ele><time>2026-04-27T11:09:17Z</time></trkpt><trkpt lat="42.08007838726059" lon="13.54106426995081"><ele>744.0</ele><time>2026-04-27T11:09:18Z</time></trkpt><trkpt lat="42.08018641081963" lon="13.541079945017543"><ele>744.0</ele><time>2026-04-27T11:09:19Z</time></trkpt><trkpt lat="42.08030095395791" lon="13.54108159226375"><ele>744.0</ele><time>2026-04-27T11:09:20Z</time></trkpt><trkpt lat="42.08040717153225" lon="13.54107923807321"><ele>744.0</ele><time>2026-04-27T11:09:21Z</time></trkpt><trkpt lat="42.08051780247474" lon="13.541064234649586"><ele>744.0</ele><time>2026-04-27T11:09:22Z</time></trkpt><trkpt lat="42.08062840873778" lon="13.541055294003954"><ele>744.0</ele><time>2026-04-27T11:09:23Z</time></trkpt><trkpt lat="42.08073191403381" lon="13.541055284109271"><ele>744.0</ele><time>2026-04-27T11:09:24Z</time></trkpt><trkpt lat="42.08084379309677" lon="13.541055744575532"><ele>744.0</ele><time>2026-04-27T11:09:25Z</time></trkpt><trkpt lat="42.08096251841932" lon="13.541051969517909"><ele>744.0</ele><time>2026-04-27T11:09:26Z</time></trkpt><trkpt lat="42.08107736250417" lon="13.541046401845662"><ele>744.0</ele><time>2026-04-27T11:09:27Z</time></trkpt><trkpt lat="42.081201281888866" lon="13.541044790137285"><ele>744.25</ele><time>2026-04-27T11:09:28Z</time></trkpt><trkpt lat="42.08132045896884" lon="13.541050845781916"><ele>744.5</ele><time>2026-04-27T11:09:29Z</time></trkpt><trkpt lat="42.08144348194588" lon="13.541063982346486"><ele>744.75</ele><time>2026-04-27T11:09:30Z</time></trkpt><trkpt lat="42.081550956406424" lon="13.541112392009682"><ele>745.0</ele><time>2026-04-27T11:09:31Z</time></trkpt><trkpt lat="42.08165731724934" lon="13.541119888578999"><ele>745.1666666666667</ele><time>2026-04-27T11:09:32Z</time></trkpt><trkpt lat="42.08174333263674" lon="13.541155514289875"><ele>745.3333333333334</ele><time>2026-04-27T11:09:33Z</time></trkpt><trkpt lat="42.08181727206254" lon="13.541193441175102"><ele>745.5</ele><time>2026-04-27T11:09:34Z</time></trkpt><trkpt lat="42.08188703336713" lon="13.541253089811958"><ele>745.6666666666666</ele><time>2026-04-27T11:09:35Z</time></trkpt><trkpt lat="42.081949117422674" lon="13.541333242224821"><ele>745.8333333333333</ele><time>2026-04-27T11:09:36Z</time></trkpt><trkpt lat="42.08200740254913" lon="13.541454750003021"><ele>746.0</ele><time>2026-04-27T11:09:38Z</time></trkpt><trkpt lat="42.082066300207785" lon="13.541554022507505"><ele>746.0</ele><time>2026-04-27T11:09:41Z</time></trkpt><trkpt lat="42.08212953729967" lon="13.541668920990258"><ele>746.0</ele><time>2026-04-27T11:09:43Z</time></trkpt><trkpt lat="42.08220769768851" lon="13.541617123007251"><ele>746.0</ele><time>2026-04-27T11:09:44Z</time></trkpt><trkpt lat="42.082212815079316" lon="13.541532440201275"><ele>746.0</ele><time>2026-04-27T11:09:46Z</time></trkpt><trkpt lat="42.082242980527894" lon="13.541613224090272"><ele>746.0</ele><time>2026-04-27T11:09:48Z</time></trkpt><trkpt lat="42.08218723731804" lon="13.541572960818026"><ele>746.0</ele><time>2026-04-27T11:12:52.001Z</time></trkpt><trkpt lat="42.08211694874204" lon="13.541531739976579"><ele>746.0</ele><time>2026-04-27T11:12:56Z</time></trkpt><trkpt lat="42.08209172584897" lon="13.541609577869085"><ele>746.0</ele><time>2026-04-27T11:13:00Z</time></trkpt><trkpt lat="42.08213957192099" lon="13.541713415321281"><ele>746.0</ele><time>2026-04-27T11:13:01Z</time></trkpt><trkpt lat="42.08218401014583" lon="13.541806310231479"><ele>746.0</ele><time>2026-04-27T11:13:03Z</time></trkpt><trkpt lat="42.082219809064334" lon="13.541887133294503"><ele>746.0</ele><time>2026-04-27T11:13:04Z</time></trkpt><trkpt lat="42.082259013589" lon="13.541974338025108"><ele>746.0</ele><time>2026-04-27T11:13:05Z</time></trkpt><trkpt lat="42.08230439480789" lon="13.542069795460007"><ele>746.1428571428571</ele><time>2026-04-27T11:13:06Z</time></trkpt><trkpt lat="42.08234420480527" lon="13.542156455312428"><ele>746.2857142857143</ele><time>2026-04-27T11:13:07Z</time></trkpt><trkpt lat="42.08238362931603" lon="13.542250062460102"><ele>746.4285714285713</ele><time>2026-04-27T11:13:08Z</time></trkpt><trkpt lat="42.08241789879313" lon="13.542335207194121"><ele>746.5714285714286</ele><time>2026-04-27T11:13:09Z</time></trkpt><trkpt lat="42.08245225163905" lon="13.54241688998759"><ele>746.7142857142857</ele><time>2026-04-27T11:13:10Z</time></trkpt><trkpt lat="42.08248710515363" lon="13.542490384699155"><ele>746.8571428571428</ele><time>2026-04-27T11:13:11Z</time></trkpt><trkpt lat="42.08252639964265" lon="13.542586733427807"><ele>747.0</ele><time>2026-04-27T11:13:13Z</time></trkpt><trkpt lat="42.08255265941174" lon="13.542700307390133"><ele>748.2</ele><time>2026-04-27T11:13:17Z</time></trkpt><trkpt lat="42.08267989083542" lon="13.542657684295992"><ele>749.4000000000001</ele><time>2026-04-27T11:13:19Z</time></trkpt><trkpt lat="42.08275199196992" lon="13.542616080539892"><ele>750.5999999999999</ele><time>2026-04-27T11:13:22Z</time></trkpt><trkpt lat="42.082797153637806" lon="13.542547215544243"><ele>751.8</ele><time>2026-04-27T11:13:25Z</time></trkpt><trkpt lat="42.08271068936391" lon="13.542624096427005"><ele>753.0</ele><time>2026-04-27T11:13:50Z</time></trkpt><trkpt lat="42.082604840046564" lon="13.542675770601011"><ele>753.0</ele><time>2026-04-27T11:13:52Z</time></trkpt><trkpt lat="42.08252059960795" lon="13.542669873357848"><ele>753.0</ele><time>2026-04-27T11:13:54Z</time></trkpt><trkpt lat="42.08250572722671" lon="13.542581473614733"><ele>753.0</ele><time>2026-04-27T11:15:47Z</time></trkpt><trkpt lat="42.082718112476854" lon="13.542586336629595"><ele>753.0</ele><time>2026-04-27T11:15:49Z</time></trkpt><trkpt lat="42.08250716749223" lon="13.54256635948578"><ele>750.0</ele><time>2026-04-27T11:15:50Z</time></trkpt><trkpt lat="42.0823479062608" lon="13.542051624262122"><ele>747.0</ele><time>2026-04-27T11:15:52Z</time></trkpt><trkpt lat="42.08229271571615" lon="13.54192559760866"><ele>746.8333333333334</ele><time>2026-04-27T11:15:53Z</time></trkpt><trkpt lat="42.082242897731746" lon="13.541806087393537"><ele>746.6666666666666</ele><time>2026-04-27T11:15:54Z</time></trkpt><trkpt lat="42.08220118076221" lon="13.541702059355602"><ele>746.5</ele><time>2026-04-27T11:15:55Z</time></trkpt><trkpt lat="42.082175761635355" lon="13.541622291517806"><ele>746.3333333333333</ele><time>2026-04-27T11:15:56Z</time></trkpt><trkpt lat="42.082180972689514" lon="13.541523211618564"><ele>746.1666666666666</ele><time>2026-04-27T11:15:58Z</time></trkpt><trkpt lat="42.08216536638286" lon="13.541424476363938"><ele>746.0</ele><time>2026-04-27T11:16:25.001Z</time></trkpt><trkpt lat="42.08223922412541" lon="13.541362372088278"><ele>746.0</ele><time>2026-04-27T11:16:27.001Z</time></trkpt><trkpt lat="42.0821671735517" lon="13.541374932819837"><ele>746.0</ele><time>2026-04-27T11:17:39Z</time></trkpt><trkpt lat="42.08210902434135" lon="13.541417760318863"><ele>746.0</ele><time>2026-04-27T11:17:44Z</time></trkpt><trkpt lat="42.082050457968414" lon="13.541368957223897"><ele>746.0</ele><time>2026-04-27T11:17:51.001Z</time></trkpt><trkpt lat="42.082006172051834" lon="13.54129629444037"><ele>746.0</ele><time>2026-04-27T11:17:58.001Z</time></trkpt><trkpt lat="42.08205135334674" lon="13.54123390282065"><ele>746.0</ele><time>2026-04-27T11:18:05.001Z</time></trkpt><trkpt lat="42.082008384658046" lon="13.541159840582289"><ele>746.0</ele><time>2026-04-27T11:18:17.001Z</time></trkpt><trkpt lat="42.081978552344395" lon="13.541074616400387"><ele>746.0</ele><time>2026-04-27T11:18:27.001Z</time></trkpt><trkpt lat="42.08193250413937" lon="13.540994033389019"><ele>746.0</ele><time>2026-04-27T11:18:45.002Z</time></trkpt><trkpt lat="42.08191247524353" lon="13.540912308735939"><ele>746.0</ele><time>2026-04-27T11:18:55.002Z</time></trkpt><trkpt lat="42.081790817131456" lon="13.540988378879916"><ele>746.0</ele><time>2026-04-27T11:19:31Z</time></trkpt><trkpt lat="42.08181633927853" lon="13.540897123904072"><ele>746.0</ele><time>2026-04-27T11:19:36.001Z</time></trkpt><trkpt lat="42.08188515092174" lon="13.540851152733412"><ele>746.0</ele><time>2026-04-27T11:19:37.001Z</time></trkpt><trkpt lat="42.08193811519557" lon="13.540796979584346"><ele>746.0</ele><time>2026-04-27T11:19:38.001Z</time></trkpt><trkpt lat="42.08197112364274" lon="13.540654978679763"><ele>746.0</ele><time>2026-04-27T11:20:43.001Z</time></trkpt><trkpt lat="42.08201200348601" lon="13.540570849182762"><ele>746.0</ele><time>2026-04-27T11:20:44.001Z</time></trkpt><trkpt lat="42.08206269453402" lon="13.54044699397226"><ele>746.0</ele><time>2026-04-27T11:20:46.001Z</time></trkpt><trkpt lat="42.08210808284414" lon="13.540322695512568"><ele>746.0</ele><time>2026-04-27T11:20:48.002Z</time></trkpt><trkpt lat="42.08213112940884" lon="13.54021261617487"><ele>745.6666666666666</ele><time>2026-04-27T11:20:50.002Z</time></trkpt><trkpt lat="42.08211360882519" lon="13.54010981461099"><ele>745.3333333333334</ele><time>2026-04-27T11:20:54.002Z</time></trkpt><trkpt lat="42.082137660500806" lon="13.540007987671416"><ele>745.0</ele><time>2026-04-27T11:20:56.002Z</time></trkpt><trkpt lat="42.082536985886044" lon="13.539837801310977"><ele>745.0</ele><time>2026-04-27T11:20:57.002Z</time></trkpt><trkpt lat="42.08215152573178" lon="13.540133747151405"><ele>745.0</ele><time>2026-04-27T11:20:58.078Z</time></trkpt><trkpt lat="42.081664427690036" lon="13.541112673160814"><ele>745.25</ele><time>2026-04-27T11:21:11.421Z</time></trkpt><trkpt lat="42.08178877687252" lon="13.541247999814937"><ele>745.5</ele><time>2026-04-27T11:21:47.348Z</time></trkpt><trkpt lat="42.08189312694964" lon="13.54129802821391"><ele>745.75</ele><time>2026-04-27T11:21:53.349Z</time></trkpt><trkpt lat="42.08193455721297" lon="13.541232969530663"><ele>746.0</ele><time>2026-04-27T11:21:59.449Z</time></trkpt><trkpt lat="42.08192250235865" lon="13.541044817457138"><ele>746.0</ele><time>2026-04-27T11:22:02.011Z</time></trkpt><trkpt lat="42.08192041554971" lon="13.540953248200827"><ele>746.0</ele><time>2026-04-27T11:22:04.014Z</time></trkpt><trkpt lat="42.081933294667316" lon="13.540868956039784"><ele>746.0</ele><time>2026-04-27T11:22:11.001Z</time></trkpt><trkpt lat="42.082165526137054" lon="13.540735277723408"><ele>746.0</ele><time>2026-04-27T11:22:26.001Z</time></trkpt><trkpt lat="42.08209398703454" lon="13.540775042714442"><ele>746.0</ele><time>2026-04-27T11:22:44.001Z</time></trkpt><trkpt lat="42.08202556577581" lon="13.54080675352534"><ele>746.0</ele><time>2026-04-27T11:22:48.001Z</time></trkpt><trkpt lat="42.081986127111506" lon="13.540946370940796"><ele>746.0</ele><time>2026-04-27T11:23:02.001Z</time></trkpt><trkpt lat="42.081972624577126" lon="13.541098261781357"><ele>746.0</ele><time>2026-04-27T11:23:09.001Z</time></trkpt><trkpt lat="42.081877626857015" lon="13.541119198549225"><ele>746.0</ele><time>2026-04-27T11:23:13.001Z</time></trkpt><trkpt lat="42.08190690096821" lon="13.54122381580578"><ele>746.0</ele><time>2026-04-27T11:23:18.001Z</time></trkpt><trkpt lat="42.08195033114835" lon="13.541359696573958"><ele>746.0</ele><time>2026-04-27T11:23:21.002Z</time></trkpt><trkpt lat="42.08205324980747" lon="13.541413540792611"><ele>746.0</ele><time>2026-04-27T11:23:24.002Z</time></trkpt><trkpt lat="42.08200580652501" lon="13.541543320708909"><ele>746.0</ele><time>2026-04-27T11:23:26.002Z</time></trkpt><trkpt lat="42.08200153444032" lon="13.541674293043611"><ele>746.0</ele><time>2026-04-27T11:23:31.002Z</time></trkpt><trkpt lat="42.082044921905556" lon="13.541581774507323"><ele>746.0</ele><time>2026-04-27T11:23:32.002Z</time></trkpt><trkpt lat="42.08200187225543" lon="13.541484523977523"><ele>746.0</ele><time>2026-04-27T11:23:33.002Z</time></trkpt><trkpt lat="42.08199397671541" lon="13.541294299253254"><ele>746.0</ele><time>2026-04-27T11:23:35.002Z</time></trkpt><trkpt lat="42.08201331369102" lon="13.541187217820534"><ele>746.0</ele><time>2026-04-27T11:23:36.002Z</time></trkpt><trkpt lat="42.081993980001165" lon="13.541287810234795"><ele>746.0</ele><time>2026-04-27T11:23:40.002Z</time></trkpt><trkpt lat="42.08191266567111" lon="13.541312505586935"><ele>746.0</ele><time>2026-04-27T11:23:43.002Z</time></trkpt><trkpt lat="42.08185181881294" lon="13.541226203182156"><ele>746.0</ele><time>2026-04-27T11:23:47.002Z</time></trkpt><trkpt lat="42.08188095827564" lon="13.541111451253117"><ele>746.0</ele><time>2026-04-27T11:23:49.002Z</time></trkpt><trkpt lat="42.08190317395906" lon="13.541021413009906"><ele>746.0</ele><time>2026-04-27T11:23:51.002Z</time></trkpt><trkpt lat="42.081893209616204" lon="13.540906788049702"><ele>746.0</ele><time>2026-04-27T11:23:54.002Z</time></trkpt><trkpt lat="42.08185853116718" lon="13.54082179215524"><ele>746.0</ele><time>2026-04-27T11:23:56.002Z</time></trkpt><trkpt lat="42.08196237578372" lon="13.540906409487508"><ele>746.0</ele><time>2026-04-27T11:24:01.002Z</time></trkpt><trkpt lat="42.08204137786697" lon="13.540911089919387"><ele>746.0</ele><time>2026-04-27T11:24:02.002Z</time></trkpt><trkpt lat="42.08209730592996" lon="13.540984718857047"><ele>746.0</ele><time>2026-04-27T11:24:12.002Z</time></trkpt><trkpt lat="42.08219943634297" lon="13.542394372413279"><ele>746.0</ele><time>2026-04-27T11:24:20.077Z</time></trkpt><trkpt lat="42.08183839697952" lon="13.541226155150428"><ele>746.0</ele><time>2026-04-27T11:24:50.443Z</time></trkpt><trkpt lat="42.081675514031794" lon="13.541164471881162"><ele>746.0</ele><time>2026-04-27T11:24:51.687Z</time></trkpt><trkpt lat="42.08194261015664" lon="13.541250121083003"><ele>746.0</ele><time>2026-04-27T11:25:15.659Z</time></trkpt><trkpt lat="42.08205946152836" lon="13.54132039729371"><ele>746.0</ele><time>2026-04-27T11:25:39.34Z</time></trkpt><trkpt lat="42.08206451570309" lon="13.541220276617178"><ele>746.0</ele><time>2026-04-27T11:26:35.015Z</time></trkpt><trkpt lat="42.082052651742714" lon="13.54130720683088"><ele>746.0</ele><time>2026-04-27T11:26:46.003Z</time></trkpt><trkpt lat="42.08206591070045" lon="13.541399873029556"><ele>746.0</ele><time>2026-04-27T11:26:58.003Z</time></trkpt><trkpt lat="42.08213274095852" lon="13.541420612328949"><ele>746.0</ele><time>2026-04-27T11:27:05.002Z</time></trkpt><trkpt lat="42.082196051643145" lon="13.54140209009936"><ele>746.0</ele><time>2026-04-27T11:27:11.002Z</time></trkpt><trkpt lat="42.082262217967866" lon="13.541400632471278"><ele>746.0</ele><time>2026-04-27T11:27:19.002Z</time></trkpt><trkpt lat="42.08222907472119" lon="13.541325730815462"><ele>746.0</ele><time>2026-04-27T11:56:35.999Z</time></trkpt><trkpt lat="42.082158953463626" lon="13.541384371849377"><ele>746.0</ele><time>2026-04-27T11:56:39.999Z</time></trkpt><trkpt lat="42.08211708790611" lon="13.541461952587353"><ele>746.0</ele><time>2026-04-27T11:56:43.999Z</time></trkpt><trkpt lat="42.08209281692016" lon="13.541548190085486"><ele>746.0</ele><time>2026-04-27T11:56:53.999Z</time></trkpt><trkpt lat="42.082121697769864" lon="13.541702460737758"><ele>746.0</ele><time>2026-04-27T11:56:55.999Z</time></trkpt><trkpt lat="42.082175120853705" lon="13.541784921635118"><ele>746.0</ele><time>2026-04-27T11:56:56.999Z</time></trkpt><trkpt lat="42.08223112906319" lon="13.541876373732213"><ele>746.0</ele><time>2026-04-27T11:56:57.999Z</time></trkpt><trkpt lat="42.08228108038505" lon="13.541974374411144"><ele>746.0</ele><time>2026-04-27T11:56:58.999Z</time></trkpt><trkpt lat="42.08232609775914" lon="13.542087276282537"><ele>746.0</ele><time>2026-04-27T11:56:59.999Z</time></trkpt><trkpt lat="42.082372269998345" lon="13.542212170270155"><ele>746.0</ele><time>2026-04-27T11:57:00.999Z</time></trkpt><trkpt lat="42.08241984747956" lon="13.542331836237018"><ele>746.0</ele><time>2026-04-27T11:57:01.999Z</time></trkpt><trkpt lat="42.08246664456797" lon="13.542440738565974"><ele>746.1666666666666</ele><time>2026-04-27T11:57:02.999Z</time></trkpt><trkpt lat="42.08250805144763" lon="13.542526465036364"><ele>746.3333333333333</ele><time>2026-04-27T11:57:03.999Z</time></trkpt><trkpt lat="42.08254284045684" lon="13.542599297307689"><ele>746.5</ele><time>2026-04-27T11:57:05.999Z</time></trkpt><trkpt lat="42.08253829821306" lon="13.542684788200953"><ele>746.6666666666666</ele><time>2026-04-27T11:57:19.999Z</time></trkpt><trkpt lat="42.08241451684608" lon="13.542759568402671"><ele>746.8333333333334</ele><time>2026-04-27T11:57:21.999Z</time></trkpt><trkpt lat="42.08235517356284" lon="13.54283708991801"><ele>747.0</ele><time>2026-04-27T11:57:22.999Z</time></trkpt><trkpt lat="42.08232121125052" lon="13.542935535615626"><ele>747.8</ele><time>2026-04-27T11:57:23.999Z</time></trkpt><trkpt lat="42.082302041060856" lon="13.543058239940395"><ele>748.6</ele><time>2026-04-27T11:57:24.999Z</time></trkpt><trkpt lat="42.08230107793669" lon="13.543156011122404"><ele>749.4</ele><time>2026-04-27T11:57:25.999Z</time></trkpt><trkpt lat="42.082283759630535" lon="13.54328769412334"><ele>750.1999999999999</ele><time>2026-04-27T11:57:27.999Z</time></trkpt><trkpt lat="42.08246088041814" lon="13.543221893203203"><ele>751.0</ele><time>2026-04-27T11:57:30.999Z</time></trkpt><trkpt lat="42.08248876652851" lon="13.543130529292302"><ele>752.6666666666667</ele><time>2026-04-27T11:57:31.999Z</time></trkpt><trkpt lat="42.08254163013369" lon="13.543049097779996"><ele>754.3333333333334</ele><time>2026-04-27T11:57:32.999Z</time></trkpt><trkpt lat="42.08261695375675" lon="13.542987092180764"><ele>756.0</ele><time>2026-04-27T11:57:33.999Z</time></trkpt><trkpt lat="42.08268997024154" lon="13.542952700452814"><ele>757.6666666666666</ele><time>2026-04-27T11:57:34.999Z</time></trkpt><trkpt lat="42.082762000371375" lon="13.54297275548299"><ele>759.3333333333333</ele><time>2026-04-27T11:57:35.999Z</time></trkpt><trkpt lat="42.08283439731482" lon="13.542996953613478"><ele>761.0</ele><time>2026-04-27T11:57:36.999Z</time></trkpt><trkpt lat="42.08292466437345" lon="13.54302330530556"><ele>761.0</ele><time>2026-04-27T11:57:37.999Z</time></trkpt><trkpt lat="42.08302670944854" lon="13.543056751807116"><ele>761.0</ele><time>2026-04-27T11:57:38.999Z</time></trkpt><trkpt lat="42.08313535282677" lon="13.54304782754502"><ele>761.0</ele><time>2026-04-27T11:57:39.999Z</time></trkpt><trkpt lat="42.08325087048875" lon="13.543066159114929"><ele>761.0</ele><time>2026-04-27T11:57:40.999Z</time></trkpt><trkpt lat="42.083371679535446" lon="13.543076390244755"><ele>765.0</ele><time>2026-04-27T11:57:41.999Z</time></trkpt><trkpt lat="42.083497777894884" lon="13.543081493049284"><ele>769.0</ele><time>2026-04-27T11:57:42.999Z</time></trkpt><trkpt lat="42.08361335527787" lon="13.543079349240996"><ele>773.0</ele><time>2026-04-27T11:57:43.999Z</time></trkpt><trkpt lat="42.0837332032324" lon="13.543091030846792"><ele>777.0</ele><time>2026-04-27T11:57:44.999Z</time></trkpt><trkpt lat="42.08384810214884" lon="13.543071051661501"><ele>777.0</ele><time>2026-04-27T11:57:45.999Z</time></trkpt><trkpt lat="42.08396296149181" lon="13.543028988781733"><ele>777.0</ele><time>2026-04-27T11:57:46.999Z</time></trkpt><trkpt lat="42.08407047619585" lon="13.542961207395587"><ele>777.0</ele><time>2026-04-27T11:57:47.999Z</time></trkpt><trkpt lat="42.08419368664063" lon="13.542934152861152"><ele>777.0</ele><time>2026-04-27T11:57:48.999Z</time></trkpt><trkpt lat="42.0843154622796" lon="13.542914051085024"><ele>779.25</ele><time>2026-04-27T11:57:49.999Z</time></trkpt><trkpt lat="42.084444079643596" lon="13.542943785863953"><ele>781.5</ele><time>2026-04-27T11:57:50.999Z</time></trkpt><trkpt lat="42.08457268427527" lon="13.54295794430457"><ele>783.75</ele><time>2026-04-27T11:57:51.999Z</time></trkpt><trkpt lat="42.08469482510169" lon="13.542949996522218"><ele>786.0</ele><time>2026-04-27T11:57:52.999Z</time></trkpt><trkpt lat="42.08481935864695" lon="13.542967695579682"><ele>788.25</ele><time>2026-04-27T11:57:53.999Z</time></trkpt><trkpt lat="42.08494535477761" lon="13.542976250748836"><ele>790.5</ele><time>2026-04-27T11:57:54.999Z</time></trkpt><trkpt lat="42.08507285680588" lon="13.543013918999048"><ele>792.75</ele><time>2026-04-27T11:57:55.999Z</time></trkpt><trkpt lat="42.08519339403324" lon="13.543008432380741"><ele>795.0</ele><time>2026-04-27T11:57:56.999Z</time></trkpt><trkpt lat="42.085314487609224" lon="13.54305021726283"><ele>795.0</ele><time>2026-04-27T11:57:57.999Z</time></trkpt><trkpt lat="42.08542418998391" lon="13.543120796582194"><ele>795.0</ele><time>2026-04-27T11:57:58.999Z</time></trkpt><trkpt lat="42.08553631634705" lon="13.543188887896354"><ele>795.0</ele><time>2026-04-27T11:57:59.999Z</time></trkpt><trkpt lat="42.08565160666537" lon="13.5432539329409"><ele>795.0</ele><time>2026-04-27T11:58:00.998Z</time></trkpt><trkpt lat="42.085772045556524" lon="13.54332072546957"><ele>794.75</ele><time>2026-04-27T11:58:01.998Z</time></trkpt><trkpt lat="42.08588839809549" lon="13.543376047948334"><ele>794.5</ele><time>2026-04-27T11:58:02.998Z</time></trkpt><trkpt lat="42.08600277764684" lon="13.54343268348202"><ele>794.25</ele><time>2026-04-27T11:58:03.998Z</time></trkpt><trkpt lat="42.086125823449485" lon="13.543483041817044"><ele>794.0</ele><time>2026-04-27T11:58:04.998Z</time></trkpt><trkpt lat="42.08625597061773" lon="13.543506851989347"><ele>794.0</ele><time>2026-04-27T11:58:05.998Z</time></trkpt><trkpt lat="42.08638060160605" lon="13.543553270175714"><ele>794.0</ele><time>2026-04-27T11:58:06.998Z</time></trkpt><trkpt lat="42.08650850639876" lon="13.543579199029"><ele>794.0</ele><time>2026-04-27T11:58:07.998Z</time></trkpt><trkpt lat="42.08663160453435" lon="13.543595540413516"><ele>794.0</ele><time>2026-04-27T11:58:08.998Z</time></trkpt><trkpt lat="42.086757688884774" lon="13.543585336426244"><ele>793.6</ele><time>2026-04-27T11:58:09.998Z</time></trkpt><trkpt lat="42.08686558116694" lon="13.543573583084546"><ele>793.2</ele><time>2026-04-27T11:58:10.998Z</time></trkpt><trkpt lat="42.08696297969423" lon="13.543556628140369"><ele>792.8000000000001</ele><time>2026-04-27T11:58:11.998Z</time></trkpt><trkpt lat="42.0870630831455" lon="13.54351353214189"><ele>792.4000000000001</ele><time>2026-04-27T11:58:12.998Z</time></trkpt><trkpt lat="42.08715543870266" lon="13.543424387504679"><ele>792.0</ele><time>2026-04-27T11:58:13.998Z</time></trkpt><trkpt lat="42.08724562455735" lon="13.543305993927355"><ele>792.0</ele><time>2026-04-27T11:58:14.998Z</time></trkpt><trkpt lat="42.08732655378621" lon="13.543188660410255"><ele>792.0</ele><time>2026-04-27T11:58:15.998Z</time></trkpt><trkpt lat="42.08738296896881" lon="13.543094592938708"><ele>792.0</ele><time>2026-04-27T11:58:16.998Z</time></trkpt><trkpt lat="42.087483050711846" lon="13.542961493968106"><ele>792.0</ele><time>2026-04-27T11:58:18.998Z</time></trkpt><trkpt lat="42.08752301584029" lon="13.542856432870128"><ele>792.0</ele><time>2026-04-27T11:58:19.998Z</time></trkpt><trkpt lat="42.087575083345484" lon="13.542755738935787"><ele>792.0</ele><time>2026-04-27T11:58:20.998Z</time></trkpt><trkpt lat="42.08761563245685" lon="13.542689140079998"><ele>792.0</ele><time>2026-04-27T11:58:25.998Z</time></trkpt><trkpt lat="42.08768374161647" lon="13.54266819275019"><ele>792.0</ele><time>2026-04-27T11:58:43.998Z</time></trkpt><trkpt lat="42.087743431091" lon="13.542529937435752"><ele>792.0</ele><time>2026-04-27T11:58:45.998Z</time></trkpt><trkpt lat="42.087781502979155" lon="13.542437680570325"><ele>792.0</ele><time>2026-04-27T11:58:46.998Z</time></trkpt><trkpt lat="42.087845148469675" lon="13.542347031478847"><ele>792.0</ele><time>2026-04-27T11:58:47.998Z</time></trkpt><trkpt lat="42.087908088662935" lon="13.54226529964499"><ele>792.0</ele><time>2026-04-27T11:58:48.998Z</time></trkpt><trkpt lat="42.08798893238984" lon="13.542179574197641"><ele>792.0</ele><time>2026-04-27T11:58:49.998Z</time></trkpt><trkpt lat="42.088066601930365" lon="13.5421193741558"><ele>792.0</ele><time>2026-04-27T11:58:50.998Z</time></trkpt><trkpt lat="42.088150486874866" lon="13.542075723578849"><ele>792.0</ele><time>2026-04-27T11:58:51.998Z</time></trkpt><trkpt lat="42.088238338689735" lon="13.54202753919295"><ele>792.0</ele><time>2026-04-27T11:58:52.998Z</time></trkpt><trkpt lat="42.08832341676749" lon="13.54196451504719"><ele>792.8</ele><time>2026-04-27T11:58:53.998Z</time></trkpt><trkpt lat="42.088418153620474" lon="13.541911915920906"><ele>793.6</ele><time>2026-04-27T11:58:54.998Z</time></trkpt><trkpt lat="42.08850621223349" lon="13.541862877835673"><ele>794.4</ele><time>2026-04-27T11:58:55.998Z</time></trkpt><trkpt lat="42.08858321791253" lon="13.541803704174736"><ele>795.1999999999999</ele><time>2026-04-27T11:58:56.998Z</time></trkpt><trkpt lat="42.088641122102636" lon="13.541726984954453"><ele>796.0</ele><time>2026-04-27T11:58:57.998Z</time></trkpt><trkpt lat="42.08868482007756" lon="13.541627755494465"><ele>796.0</ele><time>2026-04-27T11:58:58.998Z</time></trkpt><trkpt lat="42.08869460502795" lon="13.541507326590548"><ele>796.0</ele><time>2026-04-27T11:58:59.998Z</time></trkpt><trkpt lat="42.0886824660925" lon="13.54138403358353"><ele>796.0</ele><time>2026-04-27T11:59:00.998Z</time></trkpt><trkpt lat="42.08866137573248" lon="13.541252755868241"><ele>796.0</ele><time>2026-04-27T11:59:01.998Z</time></trkpt><trkpt lat="42.08862494147605" lon="13.541130705051177"><ele>796.0</ele><time>2026-04-27T11:59:02.998Z</time></trkpt><trkpt lat="42.08857443226163" lon="13.541017697083568"><ele>795.8</ele><time>2026-04-27T11:59:03.998Z</time></trkpt><trkpt lat="42.088511455739386" lon="13.540915372158793"><ele>795.5999999999999</ele><time>2026-04-27T11:59:04.998Z</time></trkpt><trkpt lat="42.08844792138552" lon="13.540813038048178"><ele>795.4</ele><time>2026-04-27T11:59:05.998Z</time></trkpt><trkpt lat="42.08838575040973" lon="13.540703658451545"><ele>795.2</ele><time>2026-04-27T11:59:06.998Z</time></trkpt><trkpt lat="42.08833473895262" lon="13.540587694436622"><ele>795.0</ele><time>2026-04-27T11:59:07.998Z</time></trkpt><trkpt lat="42.088309804351184" lon="13.54046274493316"><ele>794.8</ele><time>2026-04-27T11:59:08.998Z</time></trkpt><trkpt lat="42.08829895689048" lon="13.540318508164562"><ele>794.6</ele><time>2026-04-27T11:59:09.998Z</time></trkpt><trkpt lat="42.088295958492" lon="13.540169890265998"><ele>794.4000000000001</ele><time>2026-04-27T11:59:10.998Z</time></trkpt><trkpt lat="42.08829271503881" lon="13.540023074829737"><ele>794.2</ele><time>2026-04-27T11:59:11.998Z</time></trkpt><trkpt lat="42.08829376130203" lon="13.539876444228225"><ele>794.0</ele><time>2026-04-27T11:59:12.998Z</time></trkpt><trkpt lat="42.08829830213362" lon="13.539750536618724"><ele>794.0</ele><time>2026-04-27T11:59:13.998Z</time></trkpt><trkpt lat="42.08830911954842" lon="13.539609490168342"><ele>794.0</ele><time>2026-04-27T11:59:14.998Z</time></trkpt><trkpt lat="42.08832369522566" lon="13.539468322348197"><ele>794.0</ele><time>2026-04-27T11:59:15.998Z</time></trkpt><trkpt lat="42.088340431359434" lon="13.539340088572466"><ele>794.0</ele><time>2026-04-27T11:59:16.998Z</time></trkpt><trkpt lat="42.088356395412795" lon="13.539214236772093"><ele>794.0</ele><time>2026-04-27T11:59:17.998Z</time></trkpt><trkpt lat="42.08836501256908" lon="13.539096651833852"><ele>794.0000000000001</ele><time>2026-04-27T11:59:18.998Z</time></trkpt><trkpt lat="42.08836457427076" lon="13.538993760777291"><ele>794.0</ele><time>2026-04-27T11:59:19.998Z</time></trkpt><trkpt lat="42.08835945805859" lon="13.538901738690644"><ele>794.0</ele><time>2026-04-27T11:59:20.998Z</time></trkpt><trkpt lat="42.088348201508836" lon="13.538812938670107"><ele>794.0</ele><time>2026-04-27T11:59:21.998Z</time></trkpt><trkpt lat="42.08832888988494" lon="13.538685244674815"><ele>794.0000000000001</ele><time>2026-04-27T11:59:23.998Z</time></trkpt><trkpt lat="42.08836299050046" lon="13.538599713254625"><ele>794.0</ele><time>2026-04-27T11:59:26.998Z</time></trkpt><trkpt lat="42.088443461865936" lon="13.538602836284332"><ele>794.0000000000001</ele><time>2026-04-27T11:59:27.998Z</time></trkpt><trkpt lat="42.088506221337276" lon="13.53857000544241"><ele>794.0</ele><time>2026-04-27T11:59:28.998Z</time></trkpt><trkpt lat="42.088566885882074" lon="13.538538270141133"><ele>794.0</ele><time>2026-04-27T11:59:29.998Z</time></trkpt><trkpt lat="42.08864078922244" lon="13.5384985323707"><ele>794.0</ele><time>2026-04-27T11:59:30.998Z</time></trkpt><trkpt lat="42.088727362462905" lon="13.538451079106073"><ele>794.0000000000001</ele><time>2026-04-27T11:59:31.998Z</time></trkpt><trkpt lat="42.08881215673321" lon="13.538401789658577"><ele>794.0</ele><time>2026-04-27T11:59:32.998Z</time></trkpt><trkpt lat="42.08888589662602" lon="13.538345886692865"><ele>794.0</ele><time>2026-04-27T11:59:33.998Z</time></trkpt><trkpt lat="42.088956887241615" lon="13.538256646238443"><ele>794.0</ele><time>2026-04-27T11:59:34.998Z</time></trkpt><trkpt lat="42.08899224606247" lon="13.538122419610298"><ele>794.0</ele><time>2026-04-27T11:59:35.998Z</time></trkpt><trkpt lat="42.0890491388631" lon="13.538032712844913"><ele>794.0</ele><time>2026-04-27T11:59:36.998Z</time></trkpt><trkpt lat="42.08909834303115" lon="13.537930397431733"><ele>794.0</ele><time>2026-04-27T11:59:37.998Z</time></trkpt><trkpt lat="42.089148993358194" lon="13.537826066547568"><ele>796.25</ele><time>2026-04-27T11:59:38.998Z</time></trkpt><trkpt lat="42.08920349910546" lon="13.537693686130046"><ele>798.5</ele><time>2026-04-27T11:59:39.998Z</time></trkpt><trkpt lat="42.08928513952646" lon="13.537605733194914"><ele>800.75</ele><time>2026-04-27T11:59:40.998Z</time></trkpt><trkpt lat="42.089372529645615" lon="13.537510875532913"><ele>803.0</ele><time>2026-04-27T11:59:41.998Z</time></trkpt><trkpt lat="42.089458501153665" lon="13.537393620765204"><ele>803.0</ele><time>2026-04-27T11:59:42.998Z</time></trkpt><trkpt lat="42.08955404147593" lon="13.537290134731254"><ele>803.0</ele><time>2026-04-27T11:59:43.998Z</time></trkpt><trkpt lat="42.08965638667839" lon="13.537188712812272"><ele>803.0</ele><time>2026-04-27T11:59:44.998Z</time></trkpt><trkpt lat="42.089759679138076" lon="13.537078630134744"><ele>803.0</ele><time>2026-04-27T11:59:45.998Z</time></trkpt><trkpt lat="42.089862507864396" lon="13.53696376027375"><ele>804.8</ele><time>2026-04-27T11:59:46.999Z</time></trkpt><trkpt lat="42.08995395003798" lon="13.536838096463452"><ele>806.5999999999999</ele><time>2026-04-27T11:59:47.999Z</time></trkpt><trkpt lat="42.09004008588801" lon="13.53673223615786"><ele>808.4000000000001</ele><time>2026-04-27T11:59:48.999Z</time></trkpt><trkpt lat="42.0901159371434" lon="13.53663570710599"><ele>810.2</ele><time>2026-04-27T11:59:49.999Z</time></trkpt><trkpt lat="42.09018675128068" lon="13.536548679609508"><ele>812.0</ele><time>2026-04-27T11:59:50.999Z</time></trkpt><trkpt lat="42.09024561252139" lon="13.536473706370872"><ele>812.0</ele><time>2026-04-27T11:59:51.999Z</time></trkpt><trkpt lat="42.09028743873075" lon="13.536407178979202"><ele>812.0</ele><time>2026-04-27T11:59:52.999Z</time></trkpt><trkpt lat="42.09036744481804" lon="13.536363672981977"><ele>812.0</ele><time>2026-04-27T11:59:54.999Z</time></trkpt><trkpt lat="42.09031597680304" lon="13.53619207133455"><ele>812.0</ele><time>2026-04-27T11:59:55.999Z</time></trkpt><trkpt lat="42.09028765154025" lon="13.536082744173006"><ele>812.0</ele><time>2026-04-27T11:59:56.999Z</time></trkpt><trkpt lat="42.09025442046883" lon="13.53595669364037"><ele>811.2</ele><time>2026-04-27T11:59:57.999Z</time></trkpt><trkpt lat="42.090229423918395" lon="13.535801306022178"><ele>810.4000000000001</ele><time>2026-04-27T11:59:58.999Z</time></trkpt><trkpt lat="42.090208945316306" lon="13.53565492815906"><ele>809.5999999999999</ele><time>2026-04-27T11:59:59.999Z</time></trkpt><trkpt lat="42.090193657015206" lon="13.535512834981274"><ele>808.8</ele><time>2026-04-27T12:00:00.999Z</time></trkpt><trkpt lat="42.090197296051755" lon="13.53537041077427"><ele>808.0</ele><time>2026-04-27T12:00:01.999Z</time></trkpt><trkpt lat="42.090215340585395" lon="13.53523428936555"><ele>808.0</ele><time>2026-04-27T12:00:02.999Z</time></trkpt><trkpt lat="42.09023650536441" lon="13.535110862863998"><ele>808.0</ele><time>2026-04-27T12:00:03.999Z</time></trkpt><trkpt lat="42.09025440609446" lon="13.534967456178382"><ele>808.0</ele><time>2026-04-27T12:00:04.999Z</time></trkpt><trkpt lat="42.09026818952616" lon="13.534821753315901"><ele>808.0</ele><time>2026-04-27T12:00:05.999Z</time></trkpt><trkpt lat="42.090280426161776" lon="13.534690302030244"><ele>808.0</ele><time>2026-04-27T12:00:06.999Z</time></trkpt><trkpt lat="42.090305574626505" lon="13.534563683965722"><ele>808.0</ele><time>2026-04-27T12:00:07.999Z</time></trkpt><trkpt lat="42.09035963562229" lon="13.534429631513433"><ele>808.0</ele><time>2026-04-27T12:00:08.999Z</time></trkpt><trkpt lat="42.09043368363924" lon="13.534313116544674"><ele>808.0</ele><time>2026-04-27T12:00:09.999Z</time></trkpt><trkpt lat="42.0905140451175" lon="13.534199920007458"><ele>808.0</ele><time>2026-04-27T12:00:10.999Z</time></trkpt><trkpt lat="42.09059070446954" lon="13.534093043465296"><ele>808.0</ele><time>2026-04-27T12:00:11.999Z</time></trkpt><trkpt lat="42.09067718388783" lon="13.533952659224852"><ele>808.0</ele><time>2026-04-27T12:00:12.999Z</time></trkpt><trkpt lat="42.09075670502522" lon="13.533806898888708"><ele>808.0</ele><time>2026-04-27T12:00:13.999Z</time></trkpt><trkpt lat="42.09083272049674" lon="13.533659738944126"><ele>808.0</ele><time>2026-04-27T12:00:14.999Z</time></trkpt><trkpt lat="42.09091839506911" lon="13.53350815062855"><ele>809.5</ele><time>2026-04-27T12:00:15.999Z</time></trkpt><trkpt lat="42.09099648825632" lon="13.533356792338044"><ele>811.0</ele><time>2026-04-27T12:00:16.999Z</time></trkpt><trkpt lat="42.091078666665375" lon="13.533194252994361"><ele>812.5</ele><time>2026-04-27T12:00:17.999Z</time></trkpt><trkpt lat="42.09114021833069" lon="13.53303536427763"><ele>814.0</ele><time>2026-04-27T12:00:18.999Z</time></trkpt><trkpt lat="42.09119893582778" lon="13.532897953022832"><ele>814.25</ele><time>2026-04-27T12:00:19.999Z</time></trkpt><trkpt lat="42.091271253794645" lon="13.532768972202943"><ele>814.5</ele><time>2026-04-27T12:00:20.999Z</time></trkpt><trkpt lat="42.09136972221424" lon="13.532658957337857"><ele>814.75</ele><time>2026-04-27T12:00:21.999Z</time></trkpt><trkpt lat="42.09148663418668" lon="13.532538825734399"><ele>815.0</ele><time>2026-04-27T12:00:22.999Z</time></trkpt><trkpt lat="42.09161083861212" lon="13.532389225994198"><ele>816.6666666666667</ele><time>2026-04-27T12:00:23.999Z</time></trkpt><trkpt lat="42.09172624381326" lon="13.532229048881486"><ele>818.3333333333333</ele><time>2026-04-27T12:00:24.999Z</time></trkpt><trkpt lat="42.09182170312418" lon="13.532044840778985"><ele>820.0</ele><time>2026-04-27T12:00:25.998Z</time></trkpt><trkpt lat="42.091904292548705" lon="13.531847926911768"><ele>820.0</ele><time>2026-04-27T12:00:26.998Z</time></trkpt><trkpt lat="42.09196172417601" lon="13.531652413882078"><ele>820.0</ele><time>2026-04-27T12:00:27.998Z</time></trkpt><trkpt lat="42.09202156818673" lon="13.531438426490672"><ele>820.0</ele><time>2026-04-27T12:00:28.998Z</time></trkpt><trkpt lat="42.09206362124673" lon="13.531232198841261"><ele>819.3333333333333</ele><time>2026-04-27T12:00:29.998Z</time></trkpt><trkpt lat="42.09210330247906" lon="13.531023801546882"><ele>818.6666666666667</ele><time>2026-04-27T12:00:30.998Z</time></trkpt><trkpt lat="42.092151748135734" lon="13.53080426128481"><ele>818.0</ele><time>2026-04-27T12:00:31.998Z</time></trkpt><trkpt lat="42.0922093396342" lon="13.530587253926923"><ele>818.0</ele><time>2026-04-27T12:00:32.998Z</time></trkpt><trkpt lat="42.09226277610039" lon="13.530407625407985"><ele>818.0</ele><time>2026-04-27T12:00:33.998Z</time></trkpt><trkpt lat="42.09232161306109" lon="13.53022811991715"><ele>818.0</ele><time>2026-04-27T12:00:34.998Z</time></trkpt><trkpt lat="42.0923945823872" lon="13.530058745305158"><ele>818.0</ele><time>2026-04-27T12:00:35.998Z</time></trkpt><trkpt lat="42.0924734126578" lon="13.529880967791353"><ele>820.3333333333334</ele><time>2026-04-27T12:00:36.998Z</time></trkpt><trkpt lat="42.09255628527099" lon="13.529693831128574"><ele>822.6666666666667</ele><time>2026-04-27T12:00:37.998Z</time></trkpt><trkpt lat="42.09263683204489" lon="13.529506274835283"><ele>825.0</ele><time>2026-04-27T12:00:38.998Z</time></trkpt><trkpt lat="42.09271037443578" lon="13.529334814286974"><ele>825.0</ele><time>2026-04-27T12:00:39.998Z</time></trkpt><trkpt lat="42.09276656634281" lon="13.529162171158779"><ele>825.0</ele><time>2026-04-27T12:00:40.998Z</time></trkpt><trkpt lat="42.09282556161959" lon="13.528968515547197"><ele>825.0</ele><time>2026-04-27T12:00:41.998Z</time></trkpt><trkpt lat="42.09287639950058" lon="13.528788683383667"><ele>825.0</ele><time>2026-04-27T12:00:42.998Z</time></trkpt><trkpt lat="42.09294403594106" lon="13.528605214694206"><ele>824.0</ele><time>2026-04-27T12:00:43.998Z</time></trkpt><trkpt lat="42.09300926501673" lon="13.52844958512679"><ele>823.0</ele><time>2026-04-27T12:00:44.998Z</time></trkpt><trkpt lat="42.09307217405627" lon="13.528310084997152"><ele>822.0</ele><time>2026-04-27T12:00:45.998Z</time></trkpt><trkpt lat="42.09313241179776" lon="13.528192694108652"><ele>821.0</ele><time>2026-04-27T12:00:46.998Z</time></trkpt><trkpt lat="42.09320792362054" lon="13.528095143917751"><ele>822.75</ele><time>2026-04-27T12:00:47.998Z</time></trkpt><trkpt lat="42.09329545311931" lon="13.528000246075672"><ele>824.5</ele><time>2026-04-27T12:00:48.998Z</time></trkpt><trkpt lat="42.09339599939623" lon="13.527897035360818"><ele>826.25</ele><time>2026-04-27T12:00:49.998Z</time></trkpt><trkpt lat="42.093500021522594" lon="13.527804341297802"><ele>828.0</ele><time>2026-04-27T12:00:50.999Z</time></trkpt><trkpt lat="42.093575328723084" lon="13.527735919236997"><ele>828.0</ele><time>2026-04-27T12:00:51.999Z</time></trkpt><trkpt lat="42.09365066213508" lon="13.52767262335456"><ele>828.0</ele><time>2026-04-27T12:00:53.999Z</time></trkpt><trkpt lat="42.09374522142452" lon="13.527626753719153"><ele>828.0</ele><time>2026-04-27T12:00:55.999Z</time></trkpt><trkpt lat="42.09380295229312" lon="13.527586381223864"><ele>828.0</ele><time>2026-04-27T12:00:56.999Z</time></trkpt><trkpt lat="42.09387168659886" lon="13.527510392110612"><ele>828.0</ele><time>2026-04-27T12:00:58.999Z</time></trkpt><trkpt lat="42.09386694715019" lon="13.527374893863756"><ele>828.0</ele><time>2026-04-27T12:00:59.999Z</time></trkpt><trkpt lat="42.0938780739594" lon="13.527268083529133"><ele>828.0</ele><time>2026-04-27T12:01:00.999Z</time></trkpt><trkpt lat="42.09388299278774" lon="13.527161386314383"><ele>828.0</ele><time>2026-04-27T12:01:01.999Z</time></trkpt><trkpt lat="42.0938910358853" lon="13.527061605282814"><ele>828.0</ele><time>2026-04-27T12:01:02.999Z</time></trkpt><trkpt lat="42.09391273197888" lon="13.526933393121094"><ele>828.0</ele><time>2026-04-27T12:01:03.999Z</time></trkpt><trkpt lat="42.09392507222318" lon="13.526832417151171"><ele>828.0</ele><time>2026-04-27T12:01:04.999Z</time></trkpt><trkpt lat="42.09393950728315" lon="13.526747033178003"><ele>828.0</ele><time>2026-04-27T12:01:05.999Z</time></trkpt><trkpt lat="42.0939522487678" lon="13.52659879575905"><ele>827.5999999999999</ele><time>2026-04-27T12:01:06.999Z</time></trkpt><trkpt lat="42.09398741038223" lon="13.526458935338779"><ele>827.1999999999999</ele><time>2026-04-27T12:01:07.999Z</time></trkpt><trkpt lat="42.09401224697169" lon="13.526324961617414"><ele>826.8</ele><time>2026-04-27T12:01:08.999Z</time></trkpt><trkpt lat="42.09403035531956" lon="13.526189876562041"><ele>826.4</ele><time>2026-04-27T12:01:09.999Z</time></trkpt><trkpt lat="42.094040225037254" lon="13.526049009419753"><ele>826.0</ele><time>2026-04-27T12:01:10.999Z</time></trkpt><trkpt lat="42.09409031919559" lon="13.525953795121369"><ele>826.8333333333333</ele><time>2026-04-27T12:01:11.999Z</time></trkpt><trkpt lat="42.09412990682865" lon="13.525882011831388"><ele>827.6666666666666</ele><time>2026-04-27T12:01:12.999Z</time></trkpt><trkpt lat="42.094186082350944" lon="13.525783621740645"><ele>828.5</ele><time>2026-04-27T12:01:13.999Z</time></trkpt><trkpt lat="42.09420636331406" lon="13.525695930555052"><ele>829.3333333333333</ele><time>2026-04-27T12:01:14.999Z</time></trkpt><trkpt lat="42.09421565700104" lon="13.525573097502132"><ele>830.1666666666666</ele><time>2026-04-27T12:01:15.999Z</time></trkpt><trkpt lat="42.09422999088229" lon="13.525403829858202"><ele>831.0</ele><time>2026-04-27T12:01:17.999Z</time></trkpt><trkpt lat="42.094227544616565" lon="13.525311323277727"><ele>828.1999999999999</ele><time>2026-04-27T12:01:18.999Z</time></trkpt><trkpt lat="42.09426444234444" lon="13.525229905147452"><ele>825.4</ele><time>2026-04-27T12:01:19.999Z</time></trkpt><trkpt lat="42.09432646125862" lon="13.525146314571312"><ele>822.6</ele><time>2026-04-27T12:01:20.999Z</time></trkpt><trkpt lat="42.094411362723115" lon="13.52504500536559"><ele>819.8</ele><time>2026-04-27T12:01:21.999Z</time></trkpt><trkpt lat="42.09449215582504" lon="13.524954774328409"><ele>817.0</ele><time>2026-04-27T12:01:22.999Z</time></trkpt><trkpt lat="42.094553312091776" lon="13.524884103097344"><ele>817.0</ele><time>2026-04-27T12:01:23.999Z</time></trkpt><trkpt lat="42.094620421001316" lon="13.524813167733857"><ele>817.0</ele><time>2026-04-27T12:01:24.999Z</time></trkpt><trkpt lat="42.094711826872626" lon="13.52472363856386"><ele>817.0</ele><time>2026-04-27T12:01:25.999Z</time></trkpt><trkpt lat="42.09479460281259" lon="13.524646357339153"><ele>817.0</ele><time>2026-04-27T12:01:26.999Z</time></trkpt><trkpt lat="42.09486011369837" lon="13.524547603337906"><ele>817.0</ele><time>2026-04-27T12:01:27.999Z</time></trkpt><trkpt lat="42.09493498325293" lon="13.524497775924523"><ele>817.8</ele><time>2026-04-27T12:01:28.999Z</time></trkpt><trkpt lat="42.095015608389616" lon="13.52443978695618"><ele>818.6</ele><time>2026-04-27T12:01:29.999Z</time></trkpt><trkpt lat="42.09509301575644" lon="13.524371850614722"><ele>819.4</ele><time>2026-04-27T12:01:30.999Z</time></trkpt><trkpt lat="42.09517603065699" lon="13.524304360634396"><ele>820.1999999999999</ele><time>2026-04-27T12:01:31.999Z</time></trkpt><trkpt lat="42.095268653998794" lon="13.524225837559403"><ele>821.0</ele><time>2026-04-27T12:01:32.999Z</time></trkpt><trkpt lat="42.09536338466094" lon="13.524121919590671"><ele>821.0</ele><time>2026-04-27T12:01:33.999Z</time></trkpt><trkpt lat="42.09546315574051" lon="13.524040024125286"><ele>821.0</ele><time>2026-04-27T12:01:34.999Z</time></trkpt><trkpt lat="42.09555251797965" lon="13.52395065195719"><ele>821.0</ele><time>2026-04-27T12:01:35.999Z</time></trkpt><trkpt lat="42.09563249127739" lon="13.523850138319895"><ele>821.0</ele><time>2026-04-27T12:01:36.999Z</time></trkpt><trkpt lat="42.09569944378505" lon="13.523764214149056"><ele>821.0</ele><time>2026-04-27T12:01:37.999Z</time></trkpt><trkpt lat="42.09574920426872" lon="13.523619126035294"><ele>822.5999999999999</ele><time>2026-04-27T12:01:39.999Z</time></trkpt><trkpt lat="42.09578418553604" lon="13.52350476702853"><ele>824.2</ele><time>2026-04-27T12:01:40.999Z</time></trkpt><trkpt lat="42.095818081957695" lon="13.523371786711216"><ele>825.8</ele><time>2026-04-27T12:01:41.999Z</time></trkpt><trkpt lat="42.09584900477564" lon="13.523211577664839"><ele>827.4000000000001</ele><time>2026-04-27T12:01:42.999Z</time></trkpt><trkpt lat="42.09590192331678" lon="13.523114134363764"><ele>829.0</ele><time>2026-04-27T12:01:43.999Z</time></trkpt><trkpt lat="42.09593692952644" lon="13.523008646840502"><ele>829.8000000000001</ele><time>2026-04-27T12:01:44.999Z</time></trkpt><trkpt lat="42.095980771934194" lon="13.522894462254692"><ele>830.6</ele><time>2026-04-27T12:01:45.999Z</time></trkpt><trkpt lat="42.096021521559365" lon="13.522775236109732"><ele>831.4</ele><time>2026-04-27T12:01:46.999Z</time></trkpt><trkpt lat="42.096072712132475" lon="13.52266673531847"><ele>832.2</ele><time>2026-04-27T12:01:47.999Z</time></trkpt><trkpt lat="42.096110114410244" lon="13.522575338556834"><ele>833.0</ele><time>2026-04-27T12:01:48.999Z</time></trkpt><trkpt lat="42.09614101904205" lon="13.52239810636243"><ele>833.0</ele><time>2026-04-27T12:01:50.999Z</time></trkpt><trkpt lat="42.09617761661767" lon="13.522254709043963"><ele>833.0</ele><time>2026-04-27T12:01:52.999Z</time></trkpt><trkpt lat="42.096212514882225" lon="13.522177787635819"><ele>833.0</ele><time>2026-04-27T12:01:53.999Z</time></trkpt><trkpt lat="42.09620208574981" lon="13.521970413907763"><ele>833.0</ele><time>2026-04-27T12:01:55.999Z</time></trkpt><trkpt lat="42.09623188787406" lon="13.52189164779563"><ele>833.0</ele><time>2026-04-27T12:01:56.999Z</time></trkpt><trkpt lat="42.09627185573391" lon="13.521786010304197"><ele>833.6666666666667</ele><time>2026-04-27T12:01:58.999Z</time></trkpt><trkpt lat="42.09621732778787" lon="13.521644966745509"><ele>834.3333333333333</ele><time>2026-04-27T12:02:02.999Z</time></trkpt><trkpt lat="42.09642094501282" lon="13.521448077243699"><ele>835.0</ele><time>2026-04-27T12:02:03.999Z</time></trkpt><trkpt lat="42.09636179167988" lon="13.521684763636417"><ele>835.0</ele><time>2026-04-27T12:02:05.999Z</time></trkpt><trkpt lat="42.09634724566971" lon="13.521560440784476"><ele>835.0</ele><time>2026-04-27T12:02:07.999Z</time></trkpt><trkpt lat="42.09636954539844" lon="13.521472846912726"><ele>835.0</ele><time>2026-04-27T12:02:08.999Z</time></trkpt><trkpt lat="42.096378388330045" lon="13.521290614643386"><ele>835.0</ele><time>2026-04-27T12:02:10.999Z</time></trkpt><trkpt lat="42.096385741709724" lon="13.521178060968275"><ele>835.0</ele><time>2026-04-27T12:02:11.999Z</time></trkpt><trkpt lat="42.09639020631494" lon="13.521083605415523"><ele>834.8</ele><time>2026-04-27T12:02:12.999Z</time></trkpt><trkpt lat="42.096480828832235" lon="13.521008637521991"><ele>834.6</ele><time>2026-04-27T12:02:14.999Z</time></trkpt><trkpt lat="42.09652784096227" lon="13.520935102630386"><ele>834.4000000000001</ele><time>2026-04-27T12:02:15.999Z</time></trkpt><trkpt lat="42.096594579499374" lon="13.520853445635645"><ele>834.2</ele><time>2026-04-27T12:02:16.999Z</time></trkpt><trkpt lat="42.09666836625144" lon="13.520749272377374"><ele>834.0</ele><time>2026-04-27T12:02:17.999Z</time></trkpt><trkpt lat="42.09672724003491" lon="13.520650714109877"><ele>835.3333333333334</ele><time>2026-04-27T12:02:18.999Z</time></trkpt><trkpt lat="42.09679079794992" lon="13.520553402949874"><ele>836.6666666666667</ele><time>2026-04-27T12:02:19.999Z</time></trkpt><trkpt lat="42.09683708492055" lon="13.520470907839861"><ele>838.0</ele><time>2026-04-27T12:02:20.999Z</time></trkpt><trkpt lat="42.096890916022126" lon="13.5203963696984"><ele>839.3333333333334</ele><time>2026-04-27T12:02:21.999Z</time></trkpt><trkpt lat="42.09693617597811" lon="13.520327646396375"><ele>840.6666666666667</ele><time>2026-04-27T12:02:22.999Z</time></trkpt><trkpt lat="42.09698674225434" lon="13.520254168504978"><ele>842.0</ele><time>2026-04-27T12:02:23.999Z</time></trkpt><trkpt lat="42.097086773217725" lon="13.520193032186938"><ele>842.0000000000001</ele><time>2026-04-27T12:02:25.999Z</time></trkpt><trkpt lat="42.09714717018963" lon="13.520153573138035"><ele>842.0</ele><time>2026-04-27T12:02:26.999Z</time></trkpt><trkpt lat="42.097209255256885" lon="13.52011966515062"><ele>842.0</ele><time>2026-04-27T12:02:27.999Z</time></trkpt><trkpt lat="42.09733758668577" lon="13.520067688127986"><ele>842.0</ele><time>2026-04-27T12:02:29.999Z</time></trkpt><trkpt lat="42.097402518410114" lon="13.520048179143346"><ele>842.0000000000001</ele><time>2026-04-27T12:02:30.999Z</time></trkpt><trkpt lat="42.097423601281996" lon="13.519947853573438"><ele>842.0</ele><time>2026-04-27T12:02:33.997Z</time></trkpt><trkpt lat="42.097387940995" lon="13.519807694799164"><ele>842.0</ele><time>2026-04-27T12:02:35.997Z</time></trkpt><trkpt lat="42.09735098827833" lon="13.51970876256473"><ele>842.0</ele><time>2026-04-27T12:02:36.997Z</time></trkpt><trkpt lat="42.0973145953764" lon="13.51961587311556"><ele>842.0</ele><time>2026-04-27T12:02:38.997Z</time></trkpt><trkpt lat="42.09731366491827" lon="13.51945835775074"><ele>842.0</ele><time>2026-04-27T12:02:40.997Z</time></trkpt><trkpt lat="42.0972880683809" lon="13.519325284401607"><ele>842.0</ele><time>2026-04-27T12:02:42.997Z</time></trkpt><trkpt lat="42.097210618754545" lon="13.51919970951063"><ele>844.6</ele><time>2026-04-27T12:02:44.997Z</time></trkpt><trkpt lat="42.09716820697129" lon="13.519132013329008"><ele>847.2</ele><time>2026-04-27T12:02:45.998Z</time></trkpt><trkpt lat="42.09716683744966" lon="13.518976594997858"><ele>849.8</ele><time>2026-04-27T12:02:47.998Z</time></trkpt><trkpt lat="42.09719060230815" lon="13.51887774397987"><ele>852.4</ele><time>2026-04-27T12:02:48.998Z</time></trkpt><trkpt lat="42.09722764716136" lon="13.518772244457871"><ele>855.0</ele><time>2026-04-27T12:02:49.998Z</time></trkpt><trkpt lat="42.09726760065169" lon="13.518641722053799"><ele>858.5</ele><time>2026-04-27T12:02:50.998Z</time></trkpt><trkpt lat="42.09732434922081" lon="13.518482389663225"><ele>862.0</ele><time>2026-04-27T12:02:51.998Z</time></trkpt><trkpt lat="42.09737576817169" lon="13.518334761257233"><ele>865.5</ele><time>2026-04-27T12:02:52.998Z</time></trkpt><trkpt lat="42.09743274576417" lon="13.518181352877624"><ele>869.0</ele><time>2026-04-27T12:02:53.998Z</time></trkpt><trkpt lat="42.097494677315915" lon="13.518036388834819"><ele>870.75</ele><time>2026-04-27T12:02:54.998Z</time></trkpt><trkpt lat="42.097564750426336" lon="13.517912421818282"><ele>872.5</ele><time>2026-04-27T12:02:55.998Z</time></trkpt><trkpt lat="42.09762790870813" lon="13.517786492053471"><ele>874.25</ele><time>2026-04-27T12:02:56.998Z</time></trkpt><trkpt lat="42.097702997266225" lon="13.51763574420042"><ele>876.0</ele><time>2026-04-27T12:02:57.998Z</time></trkpt><trkpt lat="42.0977810342742" lon="13.517489996761023"><ele>876.0</ele><time>2026-04-27T12:02:58.998Z</time></trkpt><trkpt lat="42.09784787983572" lon="13.517347779056603"><ele>875.9999999999999</ele><time>2026-04-27T12:02:59.998Z</time></trkpt><trkpt lat="42.09789646512851" lon="13.517215160255674"><ele>875.9999999999999</ele><time>2026-04-27T12:03:00.998Z</time></trkpt><trkpt lat="42.097931784772726" lon="13.517087134301363"><ele>876.0</ele><time>2026-04-27T12:03:01.999Z</time></trkpt><trkpt lat="42.09796049671923" lon="13.51698922620811"><ele>876.0</ele><time>2026-04-27T12:03:02.999Z</time></trkpt><trkpt lat="42.097983795327536" lon="13.516896398271692"><ele>876.0</ele><time>2026-04-27T12:03:03.999Z</time></trkpt><trkpt lat="42.09802073195036" lon="13.516731213580437"><ele>876.0</ele><time>2026-04-27T12:03:04.999Z</time></trkpt><trkpt lat="42.09802706784728" lon="13.516643799459906"><ele>876.0</ele><time>2026-04-27T12:03:05.999Z</time></trkpt><trkpt lat="42.09804728668183" lon="13.516550134245438"><ele>876.0</ele><time>2026-04-27T12:03:06.999Z</time></trkpt><trkpt lat="42.098061743367424" lon="13.516460535930346"><ele>876.0</ele><time>2026-04-27T12:03:07.999Z</time></trkpt><trkpt lat="42.098078678944816" lon="13.51634347450998"><ele>876.0</ele><time>2026-04-27T12:03:08.999Z</time></trkpt><trkpt lat="42.09810137227216" lon="13.516217433737241"><ele>877.5999999999999</ele><time>2026-04-27T12:03:09.999Z</time></trkpt><trkpt lat="42.09813483637002" lon="13.516073639487868"><ele>879.1999999999999</ele><time>2026-04-27T12:03:10.999Z</time></trkpt><trkpt lat="42.09816823467605" lon="13.515956900984573"><ele>880.8000000000001</ele><time>2026-04-27T12:03:11.999Z</time></trkpt><trkpt lat="42.09820793631527" lon="13.515850996447545"><ele>882.4000000000001</ele><time>2026-04-27T12:03:12.999Z</time></trkpt><trkpt lat="42.09827213906809" lon="13.515754341770672"><ele>884.0</ele><time>2026-04-27T12:03:13.999Z</time></trkpt><trkpt lat="42.09835403146664" lon="13.515666166911949"><ele>887.2</ele><time>2026-04-27T12:03:14.999Z</time></trkpt><trkpt lat="42.09843878189016" lon="13.515560009504476"><ele>890.4000000000001</ele><time>2026-04-27T12:03:15.999Z</time></trkpt><trkpt lat="42.09850658653902" lon="13.515436748681095"><ele>893.6</ele><time>2026-04-27T12:03:16.999Z</time></trkpt><trkpt lat="42.09854841906678" lon="13.515339277266575"><ele>896.8</ele><time>2026-04-27T12:03:17.999Z</time></trkpt><trkpt lat="42.09859561270711" lon="13.515239231803681"><ele>900.0</ele><time>2026-04-27T12:03:18.999Z</time></trkpt><trkpt lat="42.0986547505443" lon="13.515127161899834"><ele>901.0</ele><time>2026-04-27T12:03:19.999Z</time></trkpt><trkpt lat="42.09871561305112" lon="13.515012720711319"><ele>902.0</ele><time>2026-04-27T12:03:20.999Z</time></trkpt><trkpt lat="42.098780013423756" lon="13.514887987670752"><ele>903.0</ele><time>2026-04-27T12:03:21.999Z</time></trkpt><trkpt lat="42.09884642213443" lon="13.514751110658496"><ele>904.0</ele><time>2026-04-27T12:03:22.999Z</time></trkpt><trkpt lat="42.09890037126975" lon="13.514622321952158"><ele>905.0</ele><time>2026-04-27T12:03:23.999Z</time></trkpt><trkpt lat="42.098938399391194" lon="13.514516578489307"><ele>905.8333333333334</ele><time>2026-04-27T12:03:24.999Z</time></trkpt><trkpt lat="42.09897353440312" lon="13.514404315658677"><ele>906.6666666666667</ele><time>2026-04-27T12:03:25.999Z</time></trkpt><trkpt lat="42.098976527532145" lon="13.51429855087277"><ele>907.5</ele><time>2026-04-27T12:03:27.999Z</time></trkpt><trkpt lat="42.09891664874613" lon="13.51425303148001"><ele>908.3333333333333</ele><time>2026-04-27T12:03:29.999Z</time></trkpt><trkpt lat="42.098827703718825" lon="13.514136569471548"><ele>909.1666666666666</ele><time>2026-04-27T12:03:31.999Z</time></trkpt><trkpt lat="42.09878510837272" lon="13.514034905356695"><ele>910.0</ele><time>2026-04-27T12:03:32.999Z</time></trkpt><trkpt lat="42.09874171202237" lon="13.513914906318828"><ele>910.0</ele><time>2026-04-27T12:03:33.999Z</time></trkpt><trkpt lat="42.09870255840662" lon="13.51378401811935"><ele>910.0</ele><time>2026-04-27T12:03:34.999Z</time></trkpt><trkpt lat="42.09866106217314" lon="13.51364461434503"><ele>910.0</ele><time>2026-04-27T12:03:35.999Z</time></trkpt><trkpt lat="42.09861724997547" lon="13.513517337063234"><ele>910.0</ele><time>2026-04-27T12:03:36.999Z</time></trkpt><trkpt lat="42.098578760930145" lon="13.513389536272394"><ele>910.0</ele><time>2026-04-27T12:03:37.999Z</time></trkpt><trkpt lat="42.0985557824814" lon="13.513268237430482"><ele>912.2</ele><time>2026-04-27T12:03:38.999Z</time></trkpt><trkpt lat="42.09854233279746" lon="13.513144267939486"><ele>914.4</ele><time>2026-04-27T12:03:39.999Z</time></trkpt><trkpt lat="42.0985428300425" lon="13.513006310016738"><ele>916.5999999999999</ele><time>2026-04-27T12:03:40.999Z</time></trkpt><trkpt lat="42.09852728045179" lon="13.512883107932563"><ele>918.8</ele><time>2026-04-27T12:03:41.999Z</time></trkpt><trkpt lat="42.09848928852657" lon="13.512754876982884"><ele>921.0</ele><time>2026-04-27T12:03:42.999Z</time></trkpt><trkpt lat="42.09844842590735" lon="13.51264921647427"><ele>921.8</ele><time>2026-04-27T12:03:43.999Z</time></trkpt><trkpt lat="42.09842235179031" lon="13.512550822633733"><ele>922.5999999999999</ele><time>2026-04-27T12:03:44.999Z</time></trkpt><trkpt lat="42.09841114433624" lon="13.51241479757937"><ele>923.4</ele><time>2026-04-27T12:03:45.999Z</time></trkpt><trkpt lat="42.09840746629173" lon="13.512268693057264"><ele>924.2</ele><time>2026-04-27T12:03:46.999Z</time></trkpt><trkpt lat="42.098402594495106" lon="13.512105997553075"><ele>925.0</ele><time>2026-04-27T12:03:47.999Z</time></trkpt><trkpt lat="42.09840010405301" lon="13.511945784797364"><ele>925.8</ele><time>2026-04-27T12:03:48.999Z</time></trkpt><trkpt lat="42.09841886643866" lon="13.511783539308528"><ele>926.6</ele><time>2026-04-27T12:03:49.999Z</time></trkpt><trkpt lat="42.0984465242198" lon="13.511626930669554"><ele>927.4000000000001</ele><time>2026-04-27T12:03:50.999Z</time></trkpt><trkpt lat="42.09845193542911" lon="13.511491059663003"><ele>928.2</ele><time>2026-04-27T12:03:51.999Z</time></trkpt><trkpt lat="42.09843681264061" lon="13.511390376002767"><ele>929.0</ele><time>2026-04-27T12:03:52.999Z</time></trkpt><trkpt lat="42.098404173337535" lon="13.511278103034766"><ele>930.4000000000001</ele><time>2026-04-27T12:03:53.999Z</time></trkpt><trkpt lat="42.09835268268046" lon="13.511169813465385"><ele>931.8000000000001</ele><time>2026-04-27T12:03:54.999Z</time></trkpt><trkpt lat="42.09827615362775" lon="13.511054678793895"><ele>933.1999999999999</ele><time>2026-04-27T12:03:55.999Z</time></trkpt><trkpt lat="42.09819977908705" lon="13.510951909040514"><ele>934.5999999999999</ele><time>2026-04-27T12:03:56.999Z</time></trkpt><trkpt lat="42.09814578869881" lon="13.510846180134386"><ele>936.0</ele><time>2026-04-27T12:03:57.999Z</time></trkpt><trkpt lat="42.09809518173057" lon="13.510722231870973"><ele>930.0</ele><time>2026-04-27T12:03:58.999Z</time></trkpt><trkpt lat="42.09805782797603" lon="13.510578662369724"><ele>924.0</ele><time>2026-04-27T12:03:59.999Z</time></trkpt><trkpt lat="42.09803174527933" lon="13.510414754046302"><ele>918.0</ele><time>2026-04-27T12:04:00.999Z</time></trkpt><trkpt lat="42.09794728051223" lon="13.510266979634835"><ele>912.0</ele><time>2026-04-27T12:04:01.999Z</time></trkpt><trkpt lat="42.09787581557294" lon="13.51011142551734"><ele>912.0</ele><time>2026-04-27T12:04:02.999Z</time></trkpt><trkpt lat="42.09781095238307" lon="13.509960741675581"><ele>912.0</ele><time>2026-04-27T12:04:03.999Z</time></trkpt><trkpt lat="42.097742705925704" lon="13.509828598463837"><ele>912.0</ele><time>2026-04-27T12:04:04.999Z</time></trkpt><trkpt lat="42.09768970544475" lon="13.509691669857991"><ele>912.0</ele><time>2026-04-27T12:04:05.999Z</time></trkpt><trkpt lat="42.09765516765246" lon="13.50956078010439"><ele>912.0</ele><time>2026-04-27T12:04:06.999Z</time></trkpt><trkpt lat="42.09762790217971" lon="13.509434404463061"><ele>912.0</ele><time>2026-04-27T12:04:07.999Z</time></trkpt><trkpt lat="42.097618221540216" lon="13.509341453640943"><ele>912.0</ele><time>2026-04-27T12:04:08.999Z</time></trkpt><trkpt lat="42.09768027619254" lon="13.509207731586544"><ele>912.0</ele><time>2026-04-27T12:04:10.999Z</time></trkpt><trkpt lat="42.097693062209295" lon="13.509102601865237"><ele>912.0</ele><time>2026-04-27T12:04:11.999Z</time></trkpt><trkpt lat="42.09773281051269" lon="13.508950875379961"><ele>912.0</ele><time>2026-04-27T12:04:12.999Z</time></trkpt><trkpt lat="42.097771527999576" lon="13.508786998340401"><ele>912.0</ele><time>2026-04-27T12:04:13.999Z</time></trkpt><trkpt lat="42.097796079338764" lon="13.5086080328385"><ele>912.0</ele><time>2026-04-27T12:04:14.999Z</time></trkpt><trkpt lat="42.0978106182838" lon="13.5084162254408"><ele>912.0</ele><time>2026-04-27T12:04:15.999Z</time></trkpt><trkpt lat="42.09781526162009" lon="13.50820661130076"><ele>912.0</ele><time>2026-04-27T12:04:16.999Z</time></trkpt><trkpt lat="42.09783303022127" lon="13.508010306400744"><ele>912.0</ele><time>2026-04-27T12:04:17.999Z</time></trkpt><trkpt lat="42.097866542096206" lon="13.507815712046819"><ele>912.0</ele><time>2026-04-27T12:04:18.999Z</time></trkpt><trkpt lat="42.09790283212788" lon="13.50763507703272"><ele>912.0</ele><time>2026-04-27T12:04:19.999Z</time></trkpt><trkpt lat="42.09793924755624" lon="13.507478608451835"><ele>912.2</ele><time>2026-04-27T12:04:20.999Z</time></trkpt><trkpt lat="42.09797681389787" lon="13.507363529613038"><ele>912.4000000000001</ele><time>2026-04-27T12:04:21.999Z</time></trkpt><trkpt lat="42.098054175270605" lon="13.507273051089077"><ele>912.5999999999999</ele><time>2026-04-27T12:04:22.999Z</time></trkpt><trkpt lat="42.09811673803132" lon="13.50718315416102"><ele>912.8</ele><time>2026-04-27T12:04:23.999Z</time></trkpt><trkpt lat="42.09822664026806" lon="13.507089973084213"><ele>913.0</ele><time>2026-04-27T12:04:24.999Z</time></trkpt><trkpt lat="42.09832205292832" lon="13.506986813781268"><ele>913.5</ele><time>2026-04-27T12:04:25.999Z</time></trkpt><trkpt lat="42.0984086132248" lon="13.50685345606881"><ele>914.0</ele><time>2026-04-27T12:04:26.999Z</time></trkpt><trkpt lat="42.098492251339565" lon="13.506744024093187"><ele>914.5</ele><time>2026-04-27T12:04:27.999Z</time></trkpt><trkpt lat="42.09854592445322" lon="13.50663298188968"><ele>915.0</ele><time>2026-04-27T12:04:29Z</time></trkpt><trkpt lat="42.09859025369951" lon="13.506506238830248"><ele>915.0</ele><time>2026-04-27T12:04:30Z</time></trkpt><trkpt lat="42.09861127900898" lon="13.506367420085146"><ele>915.0</ele><time>2026-04-27T12:04:31Z</time></trkpt><trkpt lat="42.09865635382204" lon="13.506212616010346"><ele>915.0</ele><time>2026-04-27T12:04:32Z</time></trkpt><trkpt lat="42.09870631727058" lon="13.506044739916964"><ele>915.0</ele><time>2026-04-27T12:04:33Z</time></trkpt><trkpt lat="42.09874689009259" lon="13.505862212381203"><ele>915.0</ele><time>2026-04-27T12:04:34Z</time></trkpt><trkpt lat="42.098795756757745" lon="13.505712465643073"><ele>915.0</ele><time>2026-04-27T12:04:35Z</time></trkpt><trkpt lat="42.09884341838365" lon="13.505579069685913"><ele>915.0</ele><time>2026-04-27T12:04:36Z</time></trkpt><trkpt lat="42.09889215556996" lon="13.505465419495351"><ele>915.0</ele><time>2026-04-27T12:04:37Z</time></trkpt><trkpt lat="42.098954303267234" lon="13.505351697348546"><ele>915.0</ele><time>2026-04-27T12:04:37.998Z</time></trkpt><trkpt lat="42.099005167976365" lon="13.505231771074028"><ele>917.75</ele><time>2026-04-27T12:04:38.998Z</time></trkpt><trkpt lat="42.09908661134395" lon="13.505117718800308"><ele>920.5</ele><time>2026-04-27T12:04:39.998Z</time></trkpt><trkpt lat="42.09918637820544" lon="13.505017946573748"><ele>923.25</ele><time>2026-04-27T12:04:40.998Z</time></trkpt><trkpt lat="42.09926901544245" lon="13.504899289255876"><ele>926.0</ele><time>2026-04-27T12:04:41.998Z</time></trkpt><trkpt lat="42.09936884233385" lon="13.504780724630878"><ele>926.0</ele><time>2026-04-27T12:04:42.998Z</time></trkpt><trkpt lat="42.09944703762868" lon="13.504640015863027"><ele>926.0</ele><time>2026-04-27T12:04:43.998Z</time></trkpt><trkpt lat="42.09952728478622" lon="13.504466832360869"><ele>926.0</ele><time>2026-04-27T12:04:44.998Z</time></trkpt><trkpt lat="42.099611033115636" lon="13.504289598067677"><ele>926.0</ele><time>2026-04-27T12:04:45.998Z</time></trkpt><trkpt lat="42.09970933383419" lon="13.504095428775955"><ele>927.6666666666667</ele><time>2026-04-27T12:04:46.998Z</time></trkpt><trkpt lat="42.099803832127904" lon="13.5038985874844"><ele>929.3333333333333</ele><time>2026-04-27T12:04:47.998Z</time></trkpt><trkpt lat="42.099888191245164" lon="13.503709812674876"><ele>931.0</ele><time>2026-04-27T12:04:48.998Z</time></trkpt><trkpt lat="42.09997888895214" lon="13.503509686347183"><ele>931.6666666666666</ele><time>2026-04-27T12:04:49.998Z</time></trkpt><trkpt lat="42.10007110094239" lon="13.503296082138949"><ele>932.3333333333333</ele><time>2026-04-27T12:04:50.998Z</time></trkpt><trkpt lat="42.10016477851962" lon="13.503099678062672"><ele>933.0</ele><time>2026-04-27T12:04:51.998Z</time></trkpt><trkpt lat="42.10025136632387" lon="13.502918753458317"><ele>936.3333333333333</ele><time>2026-04-27T12:04:52.998Z</time></trkpt><trkpt lat="42.100344412019815" lon="13.502744525429556"><ele>939.6666666666666</ele><time>2026-04-27T12:04:53.998Z</time></trkpt><trkpt lat="42.10043378459538" lon="13.502573187634308"><ele>943.0</ele><time>2026-04-27T12:04:54.998Z</time></trkpt><trkpt lat="42.10053470452321" lon="13.502405152313774"><ele>943.0</ele><time>2026-04-27T12:04:55.998Z</time></trkpt><trkpt lat="42.100637789607774" lon="13.502237784631106"><ele>943.0</ele><time>2026-04-27T12:04:56.998Z</time></trkpt><trkpt lat="42.10073553702208" lon="13.502103485020138"><ele>943.0</ele><time>2026-04-27T12:04:57.998Z</time></trkpt><trkpt lat="42.10084333739133" lon="13.501973624425956"><ele>943.0</ele><time>2026-04-27T12:04:58.999Z</time></trkpt><trkpt lat="42.10096812567503" lon="13.501838741195673"><ele>944.25</ele><time>2026-04-27T12:04:59.999Z</time></trkpt><trkpt lat="42.10108263074479" lon="13.501709471635756"><ele>945.5</ele><time>2026-04-27T12:05:00.999Z</time></trkpt><trkpt lat="42.10117526149156" lon="13.501585239910538"><ele>946.75</ele><time>2026-04-27T12:05:01.999Z</time></trkpt><trkpt lat="42.1012428889554" lon="13.501477558161262"><ele>948.0</ele><time>2026-04-27T12:05:02.999Z</time></trkpt><trkpt lat="42.10130477614794" lon="13.501361552686774"><ele>948.0</ele><time>2026-04-27T12:05:03.999Z</time></trkpt><trkpt lat="42.10135484981067" lon="13.50126326278479"><ele>948.0</ele><time>2026-04-27T12:05:04.999Z</time></trkpt><trkpt lat="42.10140627547644" lon="13.501165715989012"><ele>948.0</ele><time>2026-04-27T12:05:05.999Z</time></trkpt><trkpt lat="42.101477121970106" lon="13.501084333126643"><ele>948.0</ele><time>2026-04-27T12:05:07.999Z</time></trkpt><trkpt lat="42.10155490766545" lon="13.501123612679244"><ele>948.0</ele><time>2026-04-27T12:05:09.999Z</time></trkpt><trkpt lat="42.10155920808628" lon="13.50128808950419"><ele>949.25</ele><time>2026-04-27T12:05:10.999Z</time></trkpt><trkpt lat="42.10158454434158" lon="13.50142030257386"><ele>950.5</ele><time>2026-04-27T12:05:11.999Z</time></trkpt><trkpt lat="42.10162303844346" lon="13.501596022088437"><ele>951.75</ele><time>2026-04-27T12:05:12.999Z</time></trkpt><trkpt lat="42.1016664867655" lon="13.501779346371658"><ele>953.0</ele><time>2026-04-27T12:05:13.999Z</time></trkpt><trkpt lat="42.10173048652225" lon="13.501984492245848"><ele>951.0</ele><time>2026-04-27T12:05:14.999Z</time></trkpt><trkpt lat="42.1017880199432" lon="13.502190149158942"><ele>949.0</ele><time>2026-04-27T12:05:15.999Z</time></trkpt><trkpt lat="42.10183094333885" lon="13.502381127218191"><ele>947.0</ele><time>2026-04-27T12:05:16.999Z</time></trkpt><trkpt lat="42.10187237723235" lon="13.5025447976419"><ele>945.0</ele><time>2026-04-27T12:05:17.999Z</time></trkpt><trkpt lat="42.10194441817172" lon="13.502682995720306"><ele>945.0</ele><time>2026-04-27T12:05:18.999Z</time></trkpt><trkpt lat="42.102016875792145" lon="13.502815346010639"><ele>945.0</ele><time>2026-04-27T12:05:19.999Z</time></trkpt><trkpt lat="42.10208326787597" lon="13.502948798268969"><ele>945.0</ele><time>2026-04-27T12:05:20.999Z</time></trkpt><trkpt lat="42.10214101128105" lon="13.503055819048743"><ele>945.0</ele><time>2026-04-27T12:05:21.999Z</time></trkpt><trkpt lat="42.10217550836033" lon="13.503136033452444"><ele>945.0</ele><time>2026-04-27T12:05:22.999Z</time></trkpt><trkpt lat="42.1021611713629" lon="13.50328313396622"><ele>943.75</ele><time>2026-04-27T12:05:24.999Z</time></trkpt><trkpt lat="42.10212712855133" lon="13.503382039427809"><ele>942.5</ele><time>2026-04-27T12:05:25.999Z</time></trkpt><trkpt lat="42.10207671915679" lon="13.503513063918657"><ele>941.25</ele><time>2026-04-27T12:05:26.999Z</time></trkpt><trkpt lat="42.102014021942956" lon="13.50367307046084"><ele>940.0</ele><time>2026-04-27T12:05:27.999Z</time></trkpt><trkpt lat="42.10194921793933" lon="13.503836206567438"><ele>938.3333333333333</ele><time>2026-04-27T12:05:28.999Z</time></trkpt><trkpt lat="42.101890247248235" lon="13.504022564022636"><ele>936.6666666666667</ele><time>2026-04-27T12:05:29.999Z</time></trkpt><trkpt lat="42.101806581788935" lon="13.504205400269527"><ele>935.0</ele><time>2026-04-27T12:05:30.999Z</time></trkpt><trkpt lat="42.10172107004405" lon="13.50439071601144"><ele>935.0</ele><time>2026-04-27T12:05:31.999Z</time></trkpt><trkpt lat="42.101640155317" lon="13.504575805287413"><ele>935.0</ele><time>2026-04-27T12:05:32.999Z</time></trkpt><trkpt lat="42.10154187028217" lon="13.504747625930658"><ele>935.0</ele><time>2026-04-27T12:05:33.999Z</time></trkpt><trkpt lat="42.10146191384588" lon="13.504906618712823"><ele>933.6666666666667</ele><time>2026-04-27T12:05:34.999Z</time></trkpt><trkpt lat="42.1014204494601" lon="13.50508746266224"><ele>932.3333333333333</ele><time>2026-04-27T12:05:35.999Z</time></trkpt><trkpt lat="42.10138093093278" lon="13.505290804755385"><ele>931.0</ele><time>2026-04-27T12:05:36.999Z</time></trkpt><trkpt lat="42.10134126391602" lon="13.50550393369617"><ele>930.3333333333333</ele><time>2026-04-27T12:05:38Z</time></trkpt><trkpt lat="42.101308070922336" lon="13.505720986358288"><ele>929.6666666666667</ele><time>2026-04-27T12:05:39Z</time></trkpt><trkpt lat="42.10125081609373" lon="13.505926341356679"><ele>929.0</ele><time>2026-04-27T12:05:40Z</time></trkpt><trkpt lat="42.101209796344634" lon="13.506152233476191"><ele>929.6666666666667</ele><time>2026-04-27T12:05:41Z</time></trkpt><trkpt lat="42.1011817070974" lon="13.506370910953288"><ele>930.3333333333333</ele><time>2026-04-27T12:05:42Z</time></trkpt><trkpt lat="42.101161320770935" lon="13.506594015940461"><ele>931.0</ele><time>2026-04-27T12:05:43Z</time></trkpt><trkpt lat="42.10115789688279" lon="13.506826531481103"><ele>931.0</ele><time>2026-04-27T12:05:44Z</time></trkpt><trkpt lat="42.10114208601649" lon="13.507039043250662"><ele>931.0</ele><time>2026-04-27T12:05:45Z</time></trkpt><trkpt lat="42.10115600966723" lon="13.50724212203608"><ele>931.0</ele><time>2026-04-27T12:05:46Z</time></trkpt><trkpt lat="42.101182019486906" lon="13.50745586114836"><ele>933.0</ele><time>2026-04-27T12:05:47Z</time></trkpt><trkpt lat="42.10116320362032" lon="13.507649690968677"><ele>935.0</ele><time>2026-04-27T12:05:48Z</time></trkpt><trkpt lat="42.10114139329446" lon="13.507814474612935"><ele>937.0</ele><time>2026-04-27T12:05:49Z</time></trkpt><trkpt lat="42.101112069810334" lon="13.508016213301973"><ele>939.0</ele><time>2026-04-27T12:05:50Z</time></trkpt><trkpt lat="42.101093242905584" lon="13.508222104451368"><ele>941.3333333333333</ele><time>2026-04-27T12:05:51Z</time></trkpt><trkpt lat="42.10107126193721" lon="13.50842442634182"><ele>943.6666666666666</ele><time>2026-04-27T12:05:52Z</time></trkpt><trkpt lat="42.10104484259499" lon="13.508640354877537"><ele>946.0</ele><time>2026-04-27T12:05:53Z</time></trkpt><trkpt lat="42.10102288874313" lon="13.508841904936462"><ele>948.5</ele><time>2026-04-27T12:05:54Z</time></trkpt><trkpt lat="42.100987948498656" lon="13.509011242779467"><ele>951.0</ele><time>2026-04-27T12:05:55Z</time></trkpt><trkpt lat="42.100936681550515" lon="13.509172518602066"><ele>953.5</ele><time>2026-04-27T12:05:56Z</time></trkpt><trkpt lat="42.10084261300055" lon="13.509302823908284"><ele>956.0</ele><time>2026-04-27T12:05:57Z</time></trkpt><trkpt lat="42.100775054319286" lon="13.509433221229944"><ele>956.0</ele><time>2026-04-27T12:05:58Z</time></trkpt><trkpt lat="42.10074619145301" lon="13.509536498325332"><ele>956.0</ele><time>2026-04-27T12:05:59Z</time></trkpt><trkpt lat="42.100696476880906" lon="13.509607698650036"><ele>956.0</ele><time>2026-04-27T12:06:01Z</time></trkpt><trkpt lat="42.10073850073258" lon="13.509823999169845"><ele>956.0</ele><time>2026-04-27T12:06:03Z</time></trkpt><trkpt lat="42.10087966587455" lon="13.509503909920477"><ele>956.0</ele><time>2026-04-27T12:06:05Z</time></trkpt><trkpt lat="42.100934464054376" lon="13.509394903078146"><ele>956.0</ele><time>2026-04-27T12:06:06Z</time></trkpt><trkpt lat="42.1010039416689" lon="13.50927405630553"><ele>956.0</ele><time>2026-04-27T12:06:07Z</time></trkpt><trkpt lat="42.10109651665284" lon="13.509125184225278"><ele>956.0</ele><time>2026-04-27T12:06:08Z</time></trkpt><trkpt lat="42.101202039111456" lon="13.508965210690555"><ele>956.0</ele><time>2026-04-27T12:06:09Z</time></trkpt><trkpt lat="42.10131550643629" lon="13.508807784789132"><ele>956.0</ele><time>2026-04-27T12:06:10Z</time></trkpt><trkpt lat="42.10144619017706" lon="13.508645350616524"><ele>956.0</ele><time>2026-04-27T12:06:11Z</time></trkpt><trkpt lat="42.10158276027817" lon="13.508477916155842"><ele>955.0</ele><time>2026-04-27T12:06:12Z</time></trkpt><trkpt lat="42.101719407144074" lon="13.50831102464367"><ele>954.0</ele><time>2026-04-27T12:06:13Z</time></trkpt><trkpt lat="42.101848246089375" lon="13.508149210156066"><ele>953.0</ele><time>2026-04-27T12:06:14Z</time></trkpt><trkpt lat="42.1019812662849" lon="13.507980493145366"><ele>951.0</ele><time>2026-04-27T12:06:15Z</time></trkpt><trkpt lat="42.102101046536134" lon="13.507819750702422"><ele>949.0</ele><time>2026-04-27T12:06:16Z</time></trkpt><trkpt lat="42.10221577732664" lon="13.5076377617955"><ele>947.0</ele><time>2026-04-27T12:06:17Z</time></trkpt><trkpt lat="42.10232087597291" lon="13.507443947019663"><ele>951.0</ele><time>2026-04-27T12:06:18Z</time></trkpt><trkpt lat="42.10241631120278" lon="13.507239058992463"><ele>955.0</ele><time>2026-04-27T12:06:19Z</time></trkpt><trkpt lat="42.10250188808173" lon="13.507033858447281"><ele>959.0</ele><time>2026-04-27T12:06:20Z</time></trkpt><trkpt lat="42.102579443404494" lon="13.506823618579629"><ele>959.0</ele><time>2026-04-27T12:06:21Z</time></trkpt><trkpt lat="42.10266143904113" lon="13.506594692375561"><ele>959.0</ele><time>2026-04-27T12:06:22Z</time></trkpt><trkpt lat="42.10273350661819" lon="13.506382624247895"><ele>959.0</ele><time>2026-04-27T12:06:23Z</time></trkpt><trkpt lat="42.10279760271001" lon="13.506166106350193"><ele>956.3333333333334</ele><time>2026-04-27T12:06:24Z</time></trkpt><trkpt lat="42.10285682995273" lon="13.505940693570372"><ele>953.6666666666667</ele><time>2026-04-27T12:06:25Z</time></trkpt><trkpt lat="42.102921416716846" lon="13.505716385136624"><ele>951.0</ele><time>2026-04-27T12:06:26Z</time></trkpt><trkpt lat="42.10298502177581" lon="13.5055034504701"><ele>949.75</ele><time>2026-04-27T12:06:27Z</time></trkpt><trkpt lat="42.10305046369643" lon="13.505304587993129"><ele>948.5</ele><time>2026-04-27T12:06:28Z</time></trkpt><trkpt lat="42.103119107810485" lon="13.505137143621273"><ele>947.25</ele><time>2026-04-27T12:06:29Z</time></trkpt><trkpt lat="42.10319937827868" lon="13.505001071418263"><ele>946.0</ele><time>2026-04-27T12:06:30Z</time></trkpt><trkpt lat="42.103305241613455" lon="13.50489081684017"><ele>951.25</ele><time>2026-04-27T12:06:31Z</time></trkpt><trkpt lat="42.103436973347506" lon="13.50483326151701"><ele>956.5</ele><time>2026-04-27T12:06:32Z</time></trkpt><trkpt lat="42.10356577279503" lon="13.504761413058736"><ele>961.75</ele><time>2026-04-27T12:06:33Z</time></trkpt><trkpt lat="42.103691178161206" lon="13.504671605900363"><ele>967.0</ele><time>2026-04-27T12:06:34Z</time></trkpt><trkpt lat="42.10382415818771" lon="13.50459538667032"><ele>968.0</ele><time>2026-04-27T12:06:35Z</time></trkpt><trkpt lat="42.10394971186675" lon="13.504500020667745"><ele>969.0</ele><time>2026-04-27T12:06:36Z</time></trkpt><trkpt lat="42.10407161281918" lon="13.504383562255045"><ele>970.0</ele><time>2026-04-27T12:06:37Z</time></trkpt><trkpt lat="42.104181498471156" lon="13.50424938930052"><ele>971.0</ele><time>2026-04-27T12:06:38Z</time></trkpt><trkpt lat="42.10428818162346" lon="13.504099205811402"><ele>971.0</ele><time>2026-04-27T12:06:39Z</time></trkpt><trkpt lat="42.104384082135525" lon="13.503945338765995"><ele>971.0</ele><time>2026-04-27T12:06:40Z</time></trkpt><trkpt lat="42.104476448727894" lon="13.50377943608481"><ele>971.0</ele><time>2026-04-27T12:06:41Z</time></trkpt><trkpt lat="42.104557748668405" lon="13.503604160219716"><ele>970.0</ele><time>2026-04-27T12:06:42Z</time></trkpt><trkpt lat="42.10463728621987" lon="13.50341845632633"><ele>969.0</ele><time>2026-04-27T12:06:42.998Z</time></trkpt><trkpt lat="42.10471837941242" lon="13.503227014686395"><ele>968.0</ele><time>2026-04-27T12:06:43.998Z</time></trkpt><trkpt lat="42.104802558064314" lon="13.50303936725825"><ele>968.3333333333334</ele><time>2026-04-27T12:06:44.998Z</time></trkpt><trkpt lat="42.1048741646439" lon="13.502850271911132"><ele>968.6666666666667</ele><time>2026-04-27T12:06:45.998Z</time></trkpt><trkpt lat="42.10494472438547" lon="13.502645934939432"><ele>969.0</ele><time>2026-04-27T12:06:46.998Z</time></trkpt><trkpt lat="42.105005527165346" lon="13.502434247831388"><ele>974.3333333333333</ele><time>2026-04-27T12:06:47.998Z</time></trkpt><trkpt lat="42.10506549880464" lon="13.50221326474347"><ele>979.6666666666666</ele><time>2026-04-27T12:06:48.998Z</time></trkpt><trkpt lat="42.10512309039271" lon="13.50198414893614"><ele>985.0</ele><time>2026-04-27T12:06:49.998Z</time></trkpt><trkpt lat="42.105182040935816" lon="13.501749792484024"><ele>985.0</ele><time>2026-04-27T12:06:50.998Z</time></trkpt><trkpt lat="42.10524319789096" lon="13.501516626767662"><ele>985.0</ele><time>2026-04-27T12:06:51.998Z</time></trkpt><trkpt lat="42.10529862244338" lon="13.501275200113021"><ele>985.0</ele><time>2026-04-27T12:06:52.998Z</time></trkpt><trkpt lat="42.10534438247215" lon="13.50103850405741"><ele>984.6666666666666</ele><time>2026-04-27T12:06:53.998Z</time></trkpt><trkpt lat="42.105386894543955" lon="13.500794779693942"><ele>984.3333333333333</ele><time>2026-04-27T12:06:54.998Z</time></trkpt><trkpt lat="42.1054174017764" lon="13.500545322889485"><ele>984.0</ele><time>2026-04-27T12:06:55.998Z</time></trkpt><trkpt lat="42.105423230620644" lon="13.50032286982007"><ele>986.6666666666667</ele><time>2026-04-27T12:06:56.998Z</time></trkpt><trkpt lat="42.10543883369992" lon="13.500123104995762"><ele>989.3333333333334</ele><time>2026-04-27T12:06:57.998Z</time></trkpt><trkpt lat="42.10541547343659" lon="13.49991609283666"><ele>992.0</ele><time>2026-04-27T12:06:58.999Z</time></trkpt><trkpt lat="42.10535225512548" lon="13.499713748142346"><ele>995.6666666666667</ele><time>2026-04-27T12:06:59.999Z</time></trkpt><trkpt lat="42.105250930026244" lon="13.499544196973488"><ele>999.3333333333333</ele><time>2026-04-27T12:07:00.999Z</time></trkpt><trkpt lat="42.10511463765447" lon="13.499393748815924"><ele>1003.0</ele><time>2026-04-27T12:07:01.999Z</time></trkpt><trkpt lat="42.104983007723646" lon="13.499255783634291"><ele>999.3333333333333</ele><time>2026-04-27T12:07:02.999Z</time></trkpt><trkpt lat="42.10485114058457" lon="13.499107160589451"><ele>995.6666666666667</ele><time>2026-04-27T12:07:03.999Z</time></trkpt><trkpt lat="42.10473573282999" lon="13.498967513399954"><ele>992.0</ele><time>2026-04-27T12:07:04.999Z</time></trkpt><trkpt lat="42.10464023202742" lon="13.498808306697503"><ele>994.0</ele><time>2026-04-27T12:07:05.999Z</time></trkpt><trkpt lat="42.10456554088813" lon="13.498627141154483"><ele>996.0</ele><time>2026-04-27T12:07:06.999Z</time></trkpt><trkpt lat="42.10452483776821" lon="13.498438411489506"><ele>998.0</ele><time>2026-04-27T12:07:07.999Z</time></trkpt><trkpt lat="42.104511908088774" lon="13.498233164729614"><ele>998.0</ele><time>2026-04-27T12:07:08.999Z</time></trkpt><trkpt lat="42.10453880418969" lon="13.498046825148375"><ele>998.0</ele><time>2026-04-27T12:07:09.999Z</time></trkpt><trkpt lat="42.10463197359932" lon="13.497886815395386"><ele>998.0</ele><time>2026-04-27T12:07:10.999Z</time></trkpt><trkpt lat="42.10472916468722" lon="13.497745917523158"><ele>998.0</ele><time>2026-04-27T12:07:11.999Z</time></trkpt><trkpt lat="42.104839470117454" lon="13.497603738684855"><ele>1001.0</ele><time>2026-04-27T12:07:12.999Z</time></trkpt><trkpt lat="42.10497317424003" lon="13.497490971063609"><ele>1004.0</ele><time>2026-04-27T12:07:13.999Z</time></trkpt><trkpt lat="42.10511800651074" lon="13.497380253641143"><ele>1007.0</ele><time>2026-04-27T12:07:14.999Z</time></trkpt><trkpt lat="42.10525817025757" lon="13.497270485066029"><ele>1007.0</ele><time>2026-04-27T12:07:15.999Z</time></trkpt><trkpt lat="42.105413463718016" lon="13.497145226001985"><ele>1007.0</ele><time>2026-04-27T12:07:16.999Z</time></trkpt><trkpt lat="42.10555724863027" lon="13.49702316253968"><ele>1007.0</ele><time>2026-04-27T12:07:17.999Z</time></trkpt><trkpt lat="42.105712497365246" lon="13.496895896437819"><ele>1008.0</ele><time>2026-04-27T12:07:18.999Z</time></trkpt><trkpt lat="42.10586569389526" lon="13.496772123557395"><ele>1009.0</ele><time>2026-04-27T12:07:19.999Z</time></trkpt><trkpt lat="42.10601332553253" lon="13.496650810767164"><ele>1010.0</ele><time>2026-04-27T12:07:20.999Z</time></trkpt><trkpt lat="42.10614853322133" lon="13.496534156097738"><ele>1010.0</ele><time>2026-04-27T12:07:21.999Z</time></trkpt><trkpt lat="42.10628493217087" lon="13.496413528985634"><ele>1010.0</ele><time>2026-04-27T12:07:23Z</time></trkpt><trkpt lat="42.106407246747104" lon="13.49627010813476"><ele>1010.0</ele><time>2026-04-27T12:07:24Z</time></trkpt><trkpt lat="42.106498667685614" lon="13.496108543285924"><ele>1009.25</ele><time>2026-04-27T12:07:25Z</time></trkpt><trkpt lat="42.10657137190751" lon="13.495940409193995"><ele>1008.5</ele><time>2026-04-27T12:07:26Z</time></trkpt><trkpt lat="42.10663927563459" lon="13.495772688271726"><ele>1007.75</ele><time>2026-04-27T12:07:27Z</time></trkpt><trkpt lat="42.106682469891666" lon="13.49559771336544"><ele>1007.0</ele><time>2026-04-27T12:07:28Z</time></trkpt><trkpt lat="42.10670307393548" lon="13.495420241386398"><ele>1009.75</ele><time>2026-04-27T12:07:29Z</time></trkpt><trkpt lat="42.10672883634195" lon="13.495249099230382"><ele>1012.5</ele><time>2026-04-27T12:07:30Z</time></trkpt><trkpt lat="42.10676892169329" lon="13.495069118372479"><ele>1015.25</ele><time>2026-04-27T12:07:31Z</time></trkpt><trkpt lat="42.10680799192417" lon="13.494886576870835"><ele>1018.0</ele><time>2026-04-27T12:07:32Z</time></trkpt><trkpt lat="42.10684563086595" lon="13.49469789830993"><ele>1017.3333333333333</ele><time>2026-04-27T12:07:33Z</time></trkpt><trkpt lat="42.10689168639621" lon="13.494506008761036"><ele>1016.6666666666667</ele><time>2026-04-27T12:07:34Z</time></trkpt><trkpt lat="42.10694986005171" lon="13.4943294198717"><ele>1016.0</ele><time>2026-04-27T12:07:35Z</time></trkpt><trkpt lat="42.10703984281952" lon="13.494149874573733"><ele>1016.0</ele><time>2026-04-27T12:07:36Z</time></trkpt><trkpt lat="42.107145819394" lon="13.494003159269484"><ele>1016.0</ele><time>2026-04-27T12:07:37Z</time></trkpt><trkpt lat="42.1072697411887" lon="13.493865715799336"><ele>1016.0</ele><time>2026-04-27T12:07:38Z</time></trkpt><trkpt lat="42.107380155115806" lon="13.493721323481322"><ele>1019.5</ele><time>2026-04-27T12:07:39Z</time></trkpt><trkpt lat="42.10748745582859" lon="13.4935659817406"><ele>1023.0</ele><time>2026-04-27T12:07:40Z</time></trkpt><trkpt lat="42.10759028886313" lon="13.493411022406503"><ele>1026.5</ele><time>2026-04-27T12:07:41Z</time></trkpt><trkpt lat="42.10767097536475" lon="13.493260605729697"><ele>1030.0</ele><time>2026-04-27T12:07:42Z</time></trkpt><trkpt lat="42.10771153939036" lon="13.493070606106278"><ele>1032.0</ele><time>2026-04-27T12:07:43Z</time></trkpt><trkpt lat="42.107705946793395" lon="13.492862412067485"><ele>1034.0</ele><time>2026-04-27T12:07:44Z</time></trkpt><trkpt lat="42.107660201843544" lon="13.492652836125684"><ele>1036.0</ele><time>2026-04-27T12:07:45Z</time></trkpt><trkpt lat="42.10759945819311" lon="13.492455386644295"><ele>1036.0</ele><time>2026-04-27T12:07:46Z</time></trkpt><trkpt lat="42.10755064365837" lon="13.492248646529985"><ele>1036.0</ele><time>2026-04-27T12:07:47Z</time></trkpt><trkpt lat="42.10750924809595" lon="13.492047760666244"><ele>1036.0</ele><time>2026-04-27T12:07:48Z</time></trkpt><trkpt lat="42.10744895891312" lon="13.491851211949154"><ele>1030.6666666666665</ele><time>2026-04-27T12:07:49Z</time></trkpt><trkpt lat="42.107361642921475" lon="13.491660162117444"><ele>1025.3333333333333</ele><time>2026-04-27T12:07:50Z</time></trkpt><trkpt lat="42.1072618492343" lon="13.491510940623273"><ele>1020.0</ele><time>2026-04-27T12:07:51Z</time></trkpt><trkpt lat="42.10716383530407" lon="13.491362074887768"><ele>1022.25</ele><time>2026-04-27T12:07:52Z</time></trkpt><trkpt lat="42.10709171143529" lon="13.491199261145393"><ele>1024.5</ele><time>2026-04-27T12:07:53Z</time></trkpt><trkpt lat="42.10706050065373" lon="13.491018322738443"><ele>1026.75</ele><time>2026-04-27T12:07:54Z</time></trkpt><trkpt lat="42.107073548216434" lon="13.490797974407062"><ele>1029.0</ele><time>2026-04-27T12:07:55Z</time></trkpt><trkpt lat="42.10711028597096" lon="13.490590627606107"><ele>1030.3333333333333</ele><time>2026-04-27T12:07:56Z</time></trkpt><trkpt lat="42.10715132581066" lon="13.49037672303341"><ele>1031.6666666666665</ele><time>2026-04-27T12:07:57Z</time></trkpt><trkpt lat="42.10719639783255" lon="13.490155779717767"><ele>1033.0</ele><time>2026-04-27T12:07:58Z</time></trkpt><trkpt lat="42.10724136522032" lon="13.489935714505476"><ele>1033.0</ele><time>2026-04-27T12:07:59Z</time></trkpt><trkpt lat="42.10729024583864" lon="13.489705934070788"><ele>1033.0</ele><time>2026-04-27T12:08:00Z</time></trkpt><trkpt lat="42.10733538602032" lon="13.489482543665698"><ele>1033.0</ele><time>2026-04-27T12:08:01Z</time></trkpt><trkpt lat="42.107380780915676" lon="13.48926454192143"><ele>1037.6666666666665</ele><time>2026-04-27T12:08:02Z</time></trkpt><trkpt lat="42.10743099838557" lon="13.489043417636942"><ele>1042.3333333333333</ele><time>2026-04-27T12:08:03Z</time></trkpt><trkpt lat="42.10749882340185" lon="13.48883932239798"><ele>1047.0</ele><time>2026-04-27T12:08:04Z</time></trkpt><trkpt lat="42.10761252685617" lon="13.488707638343143"><ele>1047.0</ele><time>2026-04-27T12:08:05Z</time></trkpt><trkpt lat="42.10775579123799" lon="13.488591251449133"><ele>1047.0</ele><time>2026-04-27T12:08:06Z</time></trkpt><trkpt lat="42.10788893350478" lon="13.488498431167368"><ele>1047.0</ele><time>2026-04-27T12:08:07Z</time></trkpt><trkpt lat="42.108061589727335" lon="13.48844219985966"><ele>1047.0</ele><time>2026-04-27T12:08:08Z</time></trkpt><trkpt lat="42.10821375082579" lon="13.488395682765592"><ele>1047.0</ele><time>2026-04-27T12:08:09Z</time></trkpt><trkpt lat="42.10837545284735" lon="13.488325417709964"><ele>1047.0</ele><time>2026-04-27T12:08:10Z</time></trkpt><trkpt lat="42.10851673252294" lon="13.488233669059172"><ele>1050.3333333333333</ele><time>2026-04-27T12:08:11Z</time></trkpt><trkpt lat="42.108657634786795" lon="13.488103203839403"><ele>1053.6666666666665</ele><time>2026-04-27T12:08:12Z</time></trkpt><trkpt lat="42.10878442827653" lon="13.487949936616058"><ele>1057.0</ele><time>2026-04-27T12:08:13Z</time></trkpt><trkpt lat="42.10889545452639" lon="13.48777178022248"><ele>1057.0</ele><time>2026-04-27T12:08:14Z</time></trkpt><trkpt lat="42.10899942232181" lon="13.487582590980258"><ele>1057.0</ele><time>2026-04-27T12:08:15Z</time></trkpt><trkpt lat="42.109101605020626" lon="13.487387195459661"><ele>1057.0</ele><time>2026-04-27T12:08:16Z</time></trkpt><trkpt lat="42.10920286678164" lon="13.48718547607226"><ele>1061.0</ele><time>2026-04-27T12:08:17Z</time></trkpt><trkpt lat="42.10929977081723" lon="13.486979672896549"><ele>1065.0</ele><time>2026-04-27T12:08:18.001Z</time></trkpt><trkpt lat="42.10939204528658" lon="13.486771266156593"><ele>1069.0</ele><time>2026-04-27T12:08:19.001Z</time></trkpt><trkpt lat="42.10949666829528" lon="13.48655998604379"><ele>1069.0</ele><time>2026-04-27T12:08:20.001Z</time></trkpt><trkpt lat="42.10959847601413" lon="13.486352791082895"><ele>1069.0</ele><time>2026-04-27T12:08:21.001Z</time></trkpt><trkpt lat="42.10969886474687" lon="13.486150990224973"><ele>1069.0</ele><time>2026-04-27T12:08:22.001Z</time></trkpt><trkpt lat="42.1098009368624" lon="13.485942985042055"><ele>1067.3333333333333</ele><time>2026-04-27T12:08:23.001Z</time></trkpt><trkpt lat="42.10989419870649" lon="13.485759340000925"><ele>1065.6666666666667</ele><time>2026-04-27T12:08:24.001Z</time></trkpt><trkpt lat="42.1099760450692" lon="13.485564924790598"><ele>1064.0</ele><time>2026-04-27T12:08:25.001Z</time></trkpt><trkpt lat="42.110025655558786" lon="13.485353395615387"><ele>1070.3333333333335</ele><time>2026-04-27T12:08:26.001Z</time></trkpt><trkpt lat="42.110037411359194" lon="13.485128834210593"><ele>1076.6666666666667</ele><time>2026-04-27T12:08:27.001Z</time></trkpt><trkpt lat="42.110015394337154" lon="13.484886590189955"><ele>1083.0</ele><time>2026-04-27T12:08:28.001Z</time></trkpt><trkpt lat="42.10998171060267" lon="13.484651116883173"><ele>1085.0</ele><time>2026-04-27T12:08:29.001Z</time></trkpt><trkpt lat="42.109952774621505" lon="13.484410279130847"><ele>1087.0</ele><time>2026-04-27T12:08:30.001Z</time></trkpt><trkpt lat="42.10993524950168" lon="13.48416868089105"><ele>1089.0</ele><time>2026-04-27T12:08:31.001Z</time></trkpt><trkpt lat="42.109935329119594" lon="13.48392726737625"><ele>1088.6666666666667</ele><time>2026-04-27T12:08:32.001Z</time></trkpt><trkpt lat="42.10996794722971" lon="13.48370736622192"><ele>1088.3333333333335</ele><time>2026-04-27T12:08:33.001Z</time></trkpt><trkpt lat="42.11002298568858" lon="13.483480562917084"><ele>1088.0</ele><time>2026-04-27T12:08:34.001Z</time></trkpt><trkpt lat="42.1101002226584" lon="13.48326349867993"><ele>1088.0</ele><time>2026-04-27T12:08:35.001Z</time></trkpt><trkpt lat="42.11020512284043" lon="13.483049748241928"><ele>1088.0</ele><time>2026-04-27T12:08:36.001Z</time></trkpt><trkpt lat="42.110323180521014" lon="13.482873611950518"><ele>1088.0</ele><time>2026-04-27T12:08:37.001Z</time></trkpt><trkpt lat="42.110461592370264" lon="13.482698437785533"><ele>1085.6666666666667</ele><time>2026-04-27T12:08:38.001Z</time></trkpt><trkpt lat="42.11059860051252" lon="13.482546960064434"><ele>1083.3333333333333</ele><time>2026-04-27T12:08:39.001Z</time></trkpt><trkpt lat="42.110740990934936" lon="13.48239181943946"><ele>1081.0</ele><time>2026-04-27T12:08:40.001Z</time></trkpt><trkpt lat="42.11087027795065" lon="13.482229757996473"><ele>1086.0</ele><time>2026-04-27T12:08:41.001Z</time></trkpt><trkpt lat="42.11098391467688" lon="13.482046978538069"><ele>1091.0</ele><time>2026-04-27T12:08:42.001Z</time></trkpt><trkpt lat="42.11106162330178" lon="13.481837215993124"><ele>1096.0</ele><time>2026-04-27T12:08:43.001Z</time></trkpt><trkpt lat="42.11111390665746" lon="13.481613330939776"><ele>1096.0</ele><time>2026-04-27T12:08:44.001Z</time></trkpt><trkpt lat="42.111161718094614" lon="13.481381447871216"><ele>1096.0</ele><time>2026-04-27T12:08:45.001Z</time></trkpt><trkpt lat="42.11119698009199" lon="13.48115964748611"><ele>1096.0</ele><time>2026-04-27T12:08:46.001Z</time></trkpt><trkpt lat="42.11123455992349" lon="13.480944626234098"><ele>1096.3333333333333</ele><time>2026-04-27T12:08:47.001Z</time></trkpt><trkpt lat="42.11127637372854" lon="13.480711290673261"><ele>1096.6666666666667</ele><time>2026-04-27T12:08:48.001Z</time></trkpt><trkpt lat="42.11130933473318" lon="13.48048654721403"><ele>1097.0</ele><time>2026-04-27T12:08:48.999Z</time></trkpt><trkpt lat="42.11133544594992" lon="13.480257816648166"><ele>1097.6666666666667</ele><time>2026-04-27T12:08:49.999Z</time></trkpt><trkpt lat="42.111346708087055" lon="13.480026323200425"><ele>1098.3333333333333</ele><time>2026-04-27T12:08:50.999Z</time></trkpt><trkpt lat="42.11134043582411" lon="13.47978713801628"><ele>1099.0</ele><time>2026-04-27T12:08:51.999Z</time></trkpt><trkpt lat="42.11130409611289" lon="13.47955801561077"><ele>1102.0</ele><time>2026-04-27T12:08:52.999Z</time></trkpt><trkpt lat="42.11124382185905" lon="13.479329711331289"><ele>1105.0</ele><time>2026-04-27T12:08:53.999Z</time></trkpt><trkpt lat="42.11117208594967" lon="13.479119467655881"><ele>1108.0</ele><time>2026-04-27T12:08:54.999Z</time></trkpt><trkpt lat="42.11111142349216" lon="13.478899520682905"><ele>1109.0</ele><time>2026-04-27T12:08:55.999Z</time></trkpt><trkpt lat="42.11105708213549" lon="13.47867811970906"><ele>1110.0</ele><time>2026-04-27T12:08:57Z</time></trkpt><trkpt lat="42.11101041436252" lon="13.478456038581196"><ele>1111.0</ele><time>2026-04-27T12:08:58Z</time></trkpt><trkpt lat="42.110976544368405" lon="13.478216258092761"><ele>1111.0</ele><time>2026-04-27T12:08:59Z</time></trkpt><trkpt lat="42.110963042439536" lon="13.47797112682033"><ele>1111.0</ele><time>2026-04-27T12:09:00Z</time></trkpt><trkpt lat="42.110957762899076" lon="13.477725362409704"><ele>1111.0</ele><time>2026-04-27T12:09:01Z</time></trkpt><trkpt lat="42.11094206841241" lon="13.477504648591044"><ele>1110.75</ele><time>2026-04-27T12:09:02Z</time></trkpt><trkpt lat="42.110903322110175" lon="13.477304865480278"><ele>1110.5</ele><time>2026-04-27T12:09:03Z</time></trkpt><trkpt lat="42.11084416352853" lon="13.477142160814726"><ele>1110.25</ele><time>2026-04-27T12:09:04Z</time></trkpt><trkpt lat="42.110768753015485" lon="13.476967676526897"><ele>1110.0</ele><time>2026-04-27T12:09:05Z</time></trkpt><trkpt lat="42.11067262663773" lon="13.476797708038276"><ele>1105.6666666666667</ele><time>2026-04-27T12:09:06Z</time></trkpt><trkpt lat="42.11056261378253" lon="13.476633864862245"><ele>1101.3333333333335</ele><time>2026-04-27T12:09:07Z</time></trkpt><trkpt lat="42.11045616672709" lon="13.476464638372585"><ele>1097.0</ele><time>2026-04-27T12:09:08Z</time></trkpt><trkpt lat="42.11036776505845" lon="13.476293616611548"><ele>1098.6666666666667</ele><time>2026-04-27T12:09:09Z</time></trkpt><trkpt lat="42.11029205356393" lon="13.476092340006282"><ele>1100.3333333333333</ele><time>2026-04-27T12:09:10Z</time></trkpt><trkpt lat="42.1102411424781" lon="13.47589344933913"><ele>1102.0</ele><time>2026-04-27T12:09:11Z</time></trkpt><trkpt lat="42.11019747448018" lon="13.47565490104393"><ele>1102.0</ele><time>2026-04-27T12:09:12Z</time></trkpt><trkpt lat="42.11015820650822" lon="13.475438980649923"><ele>1102.0</ele><time>2026-04-27T12:09:13Z</time></trkpt><trkpt lat="42.110125703724606" lon="13.475200842059335"><ele>1102.0</ele><time>2026-04-27T12:09:14Z</time></trkpt><trkpt lat="42.110082188933966" lon="13.474968861920972"><ele>1101.6666666666665</ele><time>2026-04-27T12:09:15Z</time></trkpt><trkpt lat="42.11002405372119" lon="13.47474815173441"><ele>1101.3333333333333</ele><time>2026-04-27T12:09:16Z</time></trkpt><trkpt lat="42.109954546956715" lon="13.474539566053062"><ele>1101.0</ele><time>2026-04-27T12:09:17Z</time></trkpt><trkpt lat="42.10986592663519" lon="13.474337289868123"><ele>1098.6666666666667</ele><time>2026-04-27T12:09:18Z</time></trkpt><trkpt lat="42.109768914654516" lon="13.474122293768461"><ele>1096.3333333333335</ele><time>2026-04-27T12:09:19Z</time></trkpt><trkpt lat="42.10967765521878" lon="13.473912867487265"><ele>1094.0</ele><time>2026-04-27T12:09:20Z</time></trkpt><trkpt lat="42.109583253821135" lon="13.473707548722716"><ele>1094.0</ele><time>2026-04-27T12:09:21Z</time></trkpt><trkpt lat="42.109491722658085" lon="13.473497177592357"><ele>1094.0</ele><time>2026-04-27T12:09:22Z</time></trkpt><trkpt lat="42.109393182222924" lon="13.473280375550399"><ele>1094.0</ele><time>2026-04-27T12:09:23Z</time></trkpt><trkpt lat="42.10930731520637" lon="13.473065750999151"><ele>1095.0</ele><time>2026-04-27T12:09:24Z</time></trkpt><trkpt lat="42.10922138367782" lon="13.472839405956195"><ele>1096.0</ele><time>2026-04-27T12:09:25Z</time></trkpt><trkpt lat="42.10916115445066" lon="13.472606414578921"><ele>1097.0</ele><time>2026-04-27T12:09:26Z</time></trkpt><trkpt lat="42.10908644943514" lon="13.472378300949224"><ele>1094.6666666666667</ele><time>2026-04-27T12:09:27Z</time></trkpt><trkpt lat="42.109037216595425" lon="13.472132263073394"><ele>1092.3333333333333</ele><time>2026-04-27T12:09:28Z</time></trkpt><trkpt lat="42.10898305648973" lon="13.471883201278493"><ele>1090.0</ele><time>2026-04-27T12:09:29Z</time></trkpt><trkpt lat="42.10892197566149" lon="13.47166492861488"><ele>1090.0</ele><time>2026-04-27T12:09:30Z</time></trkpt><trkpt lat="42.108871376292235" lon="13.471436623170128"><ele>1090.0</ele><time>2026-04-27T12:09:31Z</time></trkpt><trkpt lat="42.10883722169383" lon="13.471210544134905"><ele>1090.0</ele><time>2026-04-27T12:09:32Z</time></trkpt><trkpt lat="42.10881477705772" lon="13.470970374578574"><ele>1090.3333333333333</ele><time>2026-04-27T12:09:33Z</time></trkpt><trkpt lat="42.10881725795739" lon="13.470720390278903"><ele>1090.6666666666667</ele><time>2026-04-27T12:09:34Z</time></trkpt><trkpt lat="42.108838663688246" lon="13.470472333845507"><ele>1091.0</ele><time>2026-04-27T12:09:35.001Z</time></trkpt><trkpt lat="42.1088587982999" lon="13.470221232382658"><ele>1089.6666666666667</ele><time>2026-04-27T12:09:36.001Z</time></trkpt><trkpt lat="42.10884007140504" lon="13.469994014033958"><ele>1088.3333333333333</ele><time>2026-04-27T12:09:37.001Z</time></trkpt><trkpt lat="42.1087916620201" lon="13.469759934972588"><ele>1087.0</ele><time>2026-04-27T12:09:38.001Z</time></trkpt><trkpt lat="42.1087232745544" lon="13.469522113379991"><ele>1086.6666666666665</ele><time>2026-04-27T12:09:39.001Z</time></trkpt><trkpt lat="42.108641991952716" lon="13.469289706469565"><ele>1086.3333333333333</ele><time>2026-04-27T12:09:40.001Z</time></trkpt><trkpt lat="42.10856020081012" lon="13.469062617849069"><ele>1086.0</ele><time>2026-04-27T12:09:41.001Z</time></trkpt><trkpt lat="42.10847541957494" lon="13.46883255813989"><ele>1084.6666666666667</ele><time>2026-04-27T12:09:42.001Z</time></trkpt><trkpt lat="42.10839242239136" lon="13.46860503999676"><ele>1083.3333333333335</ele><time>2026-04-27T12:09:43.001Z</time></trkpt><trkpt lat="42.108306676433365" lon="13.468375670691564"><ele>1082.0</ele><time>2026-04-27T12:09:44.001Z</time></trkpt><trkpt lat="42.10822507065555" lon="13.46815711288303"><ele>1084.0</ele><time>2026-04-27T12:09:45.001Z</time></trkpt><trkpt lat="42.10814613682969" lon="13.467937103786813"><ele>1086.0</ele><time>2026-04-27T12:09:46.001Z</time></trkpt><trkpt lat="42.108066285313726" lon="13.467712923604513"><ele>1088.0</ele><time>2026-04-27T12:09:47.001Z</time></trkpt><trkpt lat="42.107984093373865" lon="13.467493648830931"><ele>1088.0</ele><time>2026-04-27T12:09:48.001Z</time></trkpt><trkpt lat="42.10791132696743" lon="13.467276136331952"><ele>1088.0</ele><time>2026-04-27T12:09:49.001Z</time></trkpt><trkpt lat="42.10782822813198" lon="13.46705510628557"><ele>1088.0</ele><time>2026-04-27T12:09:50.001Z</time></trkpt><trkpt lat="42.10775088096559" lon="13.466834492274456"><ele>1089.6666666666667</ele><time>2026-04-27T12:09:51.001Z</time></trkpt><trkpt lat="42.107676145396255" lon="13.46662361751165"><ele>1091.3333333333333</ele><time>2026-04-27T12:09:52.001Z</time></trkpt><trkpt lat="42.10759976724232" lon="13.466408316155286"><ele>1093.0</ele><time>2026-04-27T12:09:53.001Z</time></trkpt><trkpt lat="42.107524147479786" lon="13.466204180444887"><ele>1095.3333333333333</ele><time>2026-04-27T12:09:54.001Z</time></trkpt><trkpt lat="42.10746460997919" lon="13.466019032427626"><ele>1097.6666666666667</ele><time>2026-04-27T12:09:55.001Z</time></trkpt><trkpt lat="42.10740864914091" lon="13.465813422532078"><ele>1100.0</ele><time>2026-04-27T12:09:56.001Z</time></trkpt><trkpt lat="42.10738347572625" lon="13.465606850806717"><ele>1098.6666666666667</ele><time>2026-04-27T12:09:57.001Z</time></trkpt><trkpt lat="42.10737849129884" lon="13.465405799092284"><ele>1097.3333333333333</ele><time>2026-04-27T12:09:58.001Z</time></trkpt><trkpt lat="42.1073956574454" lon="13.465198379968436"><ele>1096.0</ele><time>2026-04-27T12:09:59.001Z</time></trkpt><trkpt lat="42.107434881339856" lon="13.464987639022773"><ele>1097.0</ele><time>2026-04-27T12:10:00.001Z</time></trkpt><trkpt lat="42.107493347254525" lon="13.464793229039714"><ele>1098.0</ele><time>2026-04-27T12:10:01.001Z</time></trkpt><trkpt lat="42.10757515626819" lon="13.464598243867862"><ele>1099.0</ele><time>2026-04-27T12:10:02.001Z</time></trkpt><trkpt lat="42.10767086541065" lon="13.464427956700483"><ele>1099.0</ele><time>2026-04-27T12:10:03.001Z</time></trkpt><trkpt lat="42.10777112568543" lon="13.464267009338474"><ele>1099.0</ele><time>2026-04-27T12:10:04.001Z</time></trkpt><trkpt lat="42.10787371842767" lon="13.464089416290781"><ele>1099.0</ele><time>2026-04-27T12:10:05.001Z</time></trkpt><trkpt lat="42.107967914048466" lon="13.463910837320537"><ele>1099.0</ele><time>2026-04-27T12:10:06.001Z</time></trkpt><trkpt lat="42.10806796717284" lon="13.463725687077604"><ele>1099.0</ele><time>2026-04-27T12:10:07.001Z</time></trkpt><trkpt lat="42.108164950780015" lon="13.463541228870142"><ele>1099.0</ele><time>2026-04-27T12:10:08.001Z</time></trkpt><trkpt lat="42.10826524808894" lon="13.463356857953274"><ele>1101.6666666666665</ele><time>2026-04-27T12:10:09.001Z</time></trkpt><trkpt lat="42.1083665976576" lon="13.463166127448169"><ele>1104.3333333333333</ele><time>2026-04-27T12:10:10.001Z</time></trkpt><trkpt lat="42.108447238090505" lon="13.462972683318634"><ele>1107.0</ele><time>2026-04-27T12:10:11.001Z</time></trkpt><trkpt lat="42.10852868116414" lon="13.462770769677672"><ele>1108.3333333333333</ele><time>2026-04-27T12:10:12.001Z</time></trkpt><trkpt lat="42.10858785554956" lon="13.462562195484672"><ele>1109.6666666666665</ele><time>2026-04-27T12:10:13.001Z</time></trkpt><trkpt lat="42.10863600941281" lon="13.462357971393105"><ele>1111.0</ele><time>2026-04-27T12:10:14.001Z</time></trkpt><trkpt lat="42.108685651624256" lon="13.462169637135556"><ele>1111.2</ele><time>2026-04-27T12:10:15.001Z</time></trkpt><trkpt lat="42.10872749298532" lon="13.461993337939507"><ele>1111.3999999999999</ele><time>2026-04-27T12:10:16.001Z</time></trkpt><trkpt lat="42.108768369014335" lon="13.461815900478122"><ele>1111.6</ele><time>2026-04-27T12:10:17.001Z</time></trkpt><trkpt lat="42.10880418659908" lon="13.46168569681882"><ele>1111.8</ele><time>2026-04-27T12:10:18.001Z</time></trkpt><trkpt lat="42.108828673693715" lon="13.461603273866482"><ele>1112.0</ele><time>2026-04-27T12:10:19.001Z</time></trkpt><trkpt lat="42.1088454217751" lon="13.46151950903812"><ele>1112.0</ele><time>2026-04-27T12:10:22.001Z</time></trkpt><trkpt lat="42.108770440287685" lon="13.461575434932751"><ele>1112.0</ele><time>2026-04-27T12:10:26.001Z</time></trkpt><trkpt lat="42.108708569141385" lon="13.4614869408067"><ele>1112.0</ele><time>2026-04-27T12:10:30.001Z</time></trkpt><trkpt lat="42.108715183705975" lon="13.461390585327983"><ele>1112.0</ele><time>2026-04-27T12:10:31.001Z</time></trkpt><trkpt lat="42.10869506121021" lon="13.46128167406592"><ele>1112.0</ele><time>2026-04-27T12:10:32.002Z</time></trkpt><trkpt lat="42.10864937803115" lon="13.461180919066049"><ele>1112.0</ele><time>2026-04-27T12:10:33.002Z</time></trkpt><trkpt lat="42.108634126083004" lon="13.461073540117068"><ele>1110.6</ele><time>2026-04-27T12:10:34.002Z</time></trkpt><trkpt lat="42.10860763700995" lon="13.460942927194898"><ele>1109.2</ele><time>2026-04-27T12:10:35.002Z</time></trkpt><trkpt lat="42.108583039534274" lon="13.460794001400323"><ele>1107.8</ele><time>2026-04-27T12:10:36.002Z</time></trkpt><trkpt lat="42.1085511168646" lon="13.460653754453684"><ele>1106.4</ele><time>2026-04-27T12:10:37.002Z</time></trkpt><trkpt lat="42.10853857470962" lon="13.460508800535969"><ele>1105.0</ele><time>2026-04-27T12:10:38.002Z</time></trkpt><trkpt lat="42.10849887050831" lon="13.460382954382045"><ele>1102.6</ele><time>2026-04-27T12:10:39.002Z</time></trkpt><trkpt lat="42.10846898740059" lon="13.460272686433292"><ele>1100.2</ele><time>2026-04-27T12:10:40.002Z</time></trkpt><trkpt lat="42.10843796617511" lon="13.460175080486078"><ele>1097.8</ele><time>2026-04-27T12:10:41.002Z</time></trkpt><trkpt lat="42.10844842341976" lon="13.460041601311612"><ele>1095.4</ele><time>2026-04-27T12:10:43.002Z</time></trkpt><trkpt lat="42.108521676867674" lon="13.459967594949605"><ele>1093.0</ele><time>2026-04-27T12:10:45.002Z</time></trkpt><trkpt lat="42.10858550332646" lon="13.459832095945446"><ele>1093.0</ele><time>2026-04-27T12:10:47.002Z</time></trkpt><trkpt lat="42.10858679639909" lon="13.459746377681515"><ele>1093.0</ele><time>2026-04-27T12:10:48.002Z</time></trkpt><trkpt lat="42.10857676745936" lon="13.459585127788646"><ele>1093.0</ele><time>2026-04-27T12:10:50.002Z</time></trkpt><trkpt lat="42.10854456369498" lon="13.45947497587219"><ele>1093.0</ele><time>2026-04-27T12:10:51.002Z</time></trkpt><trkpt lat="42.108527617839684" lon="13.459343184812568"><ele>1093.0</ele><time>2026-04-27T12:10:52.002Z</time></trkpt><trkpt lat="42.10852178990284" lon="13.459210614544707"><ele>1091.1666666666665</ele><time>2026-04-27T12:10:53.002Z</time></trkpt><trkpt lat="42.108512140955476" lon="13.45907546884824"><ele>1089.3333333333333</ele><time>2026-04-27T12:10:54.002Z</time></trkpt><trkpt lat="42.10850552879372" lon="13.45893785726926"><ele>1087.5</ele><time>2026-04-27T12:10:55.001Z</time></trkpt><trkpt lat="42.10850620906217" lon="13.458818120643935"><ele>1085.6666666666667</ele><time>2026-04-27T12:10:56.001Z</time></trkpt><trkpt lat="42.10851485392685" lon="13.458720977458029"><ele>1083.8333333333335</ele><time>2026-04-27T12:10:57.001Z</time></trkpt><trkpt lat="42.10852417741631" lon="13.458636474070328"><ele>1082.0</ele><time>2026-04-27T12:10:58.001Z</time></trkpt><trkpt lat="42.10853942548044" lon="13.458551793088844"><ele>1080.7142857142858</ele><time>2026-04-27T12:10:59.001Z</time></trkpt><trkpt lat="42.10854418382085" lon="13.458463672290842"><ele>1079.4285714285716</ele><time>2026-04-27T12:11:00.001Z</time></trkpt><trkpt lat="42.108549953437254" lon="13.45837003592718"><ele>1078.142857142857</ele><time>2026-04-27T12:11:01.001Z</time></trkpt><trkpt lat="42.10855798966284" lon="13.458276602800241"><ele>1076.857142857143</ele><time>2026-04-27T12:11:02.001Z</time></trkpt><trkpt lat="42.10856413270805" lon="13.458168009209498"><ele>1075.5714285714284</ele><time>2026-04-27T12:11:03.001Z</time></trkpt><trkpt lat="42.10856468378637" lon="13.45806251021143"><ele>1074.2857142857142</ele><time>2026-04-27T12:11:04.001Z</time></trkpt><trkpt lat="42.1085635359602" lon="13.457952744159341"><ele>1073.0</ele><time>2026-04-27T12:11:05.001Z</time></trkpt><trkpt lat="42.108577969757164" lon="13.457852084028072"><ele>1071.2</ele><time>2026-04-27T12:11:06.001Z</time></trkpt><trkpt lat="42.10861210561741" lon="13.457747836315011"><ele>1069.4</ele><time>2026-04-27T12:11:07.001Z</time></trkpt><trkpt lat="42.10866019721364" lon="13.45762157249653"><ele>1067.6000000000001</ele><time>2026-04-27T12:11:08.001Z</time></trkpt><trkpt lat="42.10868963843705" lon="13.45748417458097"><ele>1065.8</ele><time>2026-04-27T12:11:09.001Z</time></trkpt><trkpt lat="42.10866803485223" lon="13.457368677993797"><ele>1064.0</ele><time>2026-04-27T12:11:10.001Z</time></trkpt><trkpt lat="42.10865970633498" lon="13.457272856293281"><ele>1062.0</ele><time>2026-04-27T12:11:11.001Z</time></trkpt><trkpt lat="42.10864392922792" lon="13.45707177701717"><ele>1060.0</ele><time>2026-04-27T12:11:12.001Z</time></trkpt><trkpt lat="42.108645725164074" lon="13.456954877663906"><ele>1058.0</ele><time>2026-04-27T12:11:13.001Z</time></trkpt><trkpt lat="42.10864901970919" lon="13.45684829679416"><ele>1056.0</ele><time>2026-04-27T12:11:14.001Z</time></trkpt><trkpt lat="42.108672340720915" lon="13.45673848866199"><ele>1054.0</ele><time>2026-04-27T12:11:15.001Z</time></trkpt><trkpt lat="42.108659587568994" lon="13.456609229077232"><ele>1054.0</ele><time>2026-04-27T12:11:16.001Z</time></trkpt><trkpt lat="42.10866035972801" lon="13.456464731051714"><ele>1054.0</ele><time>2026-04-27T12:11:17.001Z</time></trkpt><trkpt lat="42.108651779377865" lon="13.456338835775806"><ele>1054.0</ele><time>2026-04-27T12:11:18.001Z</time></trkpt><trkpt lat="42.108639796720176" lon="13.45621742274237"><ele>1054.0</ele><time>2026-04-27T12:11:19.001Z</time></trkpt><trkpt lat="42.10862499956187" lon="13.456090266049138"><ele>1054.0</ele><time>2026-04-27T12:11:20.001Z</time></trkpt><trkpt lat="42.108587495192374" lon="13.455954412599654"><ele>1052.6000000000001</ele><time>2026-04-27T12:11:21.001Z</time></trkpt><trkpt lat="42.10853795450866" lon="13.45582054142867"><ele>1051.2</ele><time>2026-04-27T12:11:22.001Z</time></trkpt><trkpt lat="42.108491359427816" lon="13.455711460426116"><ele>1049.8000000000002</ele><time>2026-04-27T12:11:23.001Z</time></trkpt><trkpt lat="42.108468656452914" lon="13.455595811095263"><ele>1048.4</ele><time>2026-04-27T12:11:24.001Z</time></trkpt><trkpt lat="42.108469957261775" lon="13.455491384013408"><ele>1047.0</ele><time>2026-04-27T12:11:25.001Z</time></trkpt><trkpt lat="42.10844981597467" lon="13.455384455845627"><ele>1046.0</ele><time>2026-04-27T12:11:26.001Z</time></trkpt><trkpt lat="42.10843019998419" lon="13.45527184845937"><ele>1045.0</ele><time>2026-04-27T12:11:27.001Z</time></trkpt><trkpt lat="42.10840619142253" lon="13.455167648296872"><ele>1044.0</ele><time>2026-04-27T12:11:28.001Z</time></trkpt><trkpt lat="42.10839171053319" lon="13.455064150540943"><ele>1043.0</ele><time>2026-04-27T12:11:29.001Z</time></trkpt><trkpt lat="42.108373386429896" lon="13.454954826900645"><ele>1042.0</ele><time>2026-04-27T12:11:30.001Z</time></trkpt><trkpt lat="42.10834134052851" lon="13.45481754949345"><ele>1041.0</ele><time>2026-04-27T12:11:31.001Z</time></trkpt><trkpt lat="42.10833114017556" lon="13.454683324168759"><ele>1040.0</ele><time>2026-04-27T12:11:32.001Z</time></trkpt><trkpt lat="42.10829934533579" lon="13.454568018494136"><ele>1039.0</ele><time>2026-04-27T12:11:33.001Z</time></trkpt><trkpt lat="42.10828985247519" lon="13.454445284476488"><ele>1038.0</ele><time>2026-04-27T12:11:34.001Z</time></trkpt><trkpt lat="42.1082747580093" lon="13.454312965145002"><ele>1037.0</ele><time>2026-04-27T12:11:35.001Z</time></trkpt><trkpt lat="42.108268914207734" lon="13.45414400028774"><ele>1036.0</ele><time>2026-04-27T12:11:36.001Z</time></trkpt><trkpt lat="42.108247886440026" lon="13.45399349741471"><ele>1034.3999999999999</ele><time>2026-04-27T12:11:37.001Z</time></trkpt><trkpt lat="42.10823913759432" lon="13.453835046304059"><ele>1032.8</ele><time>2026-04-27T12:11:38.001Z</time></trkpt><trkpt lat="42.1082243953783" lon="13.45368292490603"><ele>1031.1999999999998</ele><time>2026-04-27T12:11:39.001Z</time></trkpt><trkpt lat="42.10820922008101" lon="13.4535436872175"><ele>1029.6</ele><time>2026-04-27T12:11:40.001Z</time></trkpt><trkpt lat="42.108193636470595" lon="13.453404743932055"><ele>1028.0</ele><time>2026-04-27T12:11:41.001Z</time></trkpt><trkpt lat="42.108170330395644" lon="13.453274193864601"><ele>1026.4</ele><time>2026-04-27T12:11:42.001Z</time></trkpt><trkpt lat="42.10812422960903" lon="13.453129477033807"><ele>1024.8</ele><time>2026-04-27T12:11:43.001Z</time></trkpt><trkpt lat="42.108074851589336" lon="13.45299097747397"><ele>1023.2</ele><time>2026-04-27T12:11:44.001Z</time></trkpt><trkpt lat="42.10804645862294" lon="13.452863055652003"><ele>1021.6</ele><time>2026-04-27T12:11:45.001Z</time></trkpt><trkpt lat="42.108039683794566" lon="13.452730401282874"><ele>1020.0</ele><time>2026-04-27T12:11:46.001Z</time></trkpt><trkpt lat="42.10803762504509" lon="13.452558987300032"><ele>1018.5</ele><time>2026-04-27T12:11:47.001Z</time></trkpt><trkpt lat="42.10805305091053" lon="13.452387428235754"><ele>1017.0</ele><time>2026-04-27T12:11:48.001Z</time></trkpt><trkpt lat="42.10804316162054" lon="13.452219086366336"><ele>1015.5</ele><time>2026-04-27T12:11:49.001Z</time></trkpt><trkpt lat="42.10803855663412" lon="13.452079145808556"><ele>1014.0</ele><time>2026-04-27T12:11:50.001Z</time></trkpt><trkpt lat="42.108036948254636" lon="13.451948632307808"><ele>1014.0</ele><time>2026-04-27T12:11:51.001Z</time></trkpt><trkpt lat="42.107995271126846" lon="13.451804787333456"><ele>1014.0</ele><time>2026-04-27T12:11:52.001Z</time></trkpt><trkpt lat="42.10795080405088" lon="13.451690145805749"><ele>1014.0</ele><time>2026-04-27T12:11:53.001Z</time></trkpt><trkpt lat="42.107952682913805" lon="13.451577718305533"><ele>1014.0</ele><time>2026-04-27T12:11:54.001Z</time></trkpt><trkpt lat="42.107960206721096" lon="13.451484465606148"><ele>1014.0</ele><time>2026-04-27T12:11:55.001Z</time></trkpt><trkpt lat="42.107961744616475" lon="13.451393727271629"><ele>1014.0</ele><time>2026-04-27T12:11:56.001Z</time></trkpt><trkpt lat="42.107963290525994" lon="13.451302515851022"><ele>1013.75</ele><time>2026-04-27T12:11:57.001Z</time></trkpt><trkpt lat="42.10796533237697" lon="13.451182043182763"><ele>1013.5</ele><time>2026-04-27T12:11:58.001Z</time></trkpt><trkpt lat="42.107790632940784" lon="13.451027814066514"><ele>1013.25</ele><time>2026-04-27T12:11:59.001Z</time></trkpt><trkpt lat="42.107738097652216" lon="13.450880788016715"><ele>1013.0</ele><time>2026-04-27T12:12:00.001Z</time></trkpt><trkpt lat="42.10768566423623" lon="13.450740850471133"><ele>1013.0</ele><time>2026-04-27T12:12:01.001Z</time></trkpt><trkpt lat="42.107621043610564" lon="13.450614788723419"><ele>1013.0</ele><time>2026-04-27T12:12:02.001Z</time></trkpt><trkpt lat="42.10755716733275" lon="13.450483982888494"><ele>1013.0</ele><time>2026-04-27T12:12:03.001Z</time></trkpt><trkpt lat="42.10749836844827" lon="13.450357550778282"><ele>1013.0</ele><time>2026-04-27T12:12:04.001Z</time></trkpt><trkpt lat="42.10743502635243" lon="13.450215968744946"><ele>1011.4</ele><time>2026-04-27T12:12:05.001Z</time></trkpt><trkpt lat="42.10738008752623" lon="13.450111421043026"><ele>1009.8</ele><time>2026-04-27T12:12:06.001Z</time></trkpt><trkpt lat="42.10731218935704" lon="13.449982299932243"><ele>1008.2</ele><time>2026-04-27T12:12:07.001Z</time></trkpt><trkpt lat="42.10725432446999" lon="13.449857583162855"><ele>1006.6</ele><time>2026-04-27T12:12:08.001Z</time></trkpt><trkpt lat="42.10718999617998" lon="13.449746843502957"><ele>1005.0</ele><time>2026-04-27T12:12:09.001Z</time></trkpt><trkpt lat="42.1071301136569" lon="13.449618594757874"><ele>1004.4</ele><time>2026-04-27T12:12:10.001Z</time></trkpt><trkpt lat="42.107066091477584" lon="13.449498822387273"><ele>1003.8</ele><time>2026-04-27T12:12:11.002Z</time></trkpt><trkpt lat="42.10701160684715" lon="13.449407998968097"><ele>1003.2</ele><time>2026-04-27T12:12:12.002Z</time></trkpt><trkpt lat="42.106963632678905" lon="13.449294898484714"><ele>1002.6</ele><time>2026-04-27T12:12:13.002Z</time></trkpt><trkpt lat="42.10691909564933" lon="13.449164651118142"><ele>1002.0</ele><time>2026-04-27T12:12:14.002Z</time></trkpt><trkpt lat="42.10686769621665" lon="13.449022913760691"><ele>1002.0</ele><time>2026-04-27T12:12:15.002Z</time></trkpt><trkpt lat="42.10681937103879" lon="13.448883300953604"><ele>1002.0</ele><time>2026-04-27T12:12:16.002Z</time></trkpt><trkpt lat="42.106760911653105" lon="13.448741802374391"><ele>1002.0</ele><time>2026-04-27T12:12:17.002Z</time></trkpt><trkpt lat="42.1067087462614" lon="13.448616535445693"><ele>1002.0</ele><time>2026-04-27T12:12:18.002Z</time></trkpt><trkpt lat="42.106665263309964" lon="13.448481761941819"><ele>1001.6</ele><time>2026-04-27T12:12:19.002Z</time></trkpt><trkpt lat="42.10661647807634" lon="13.448365728616842"><ele>1001.2</ele><time>2026-04-27T12:12:20.002Z</time></trkpt><trkpt lat="42.10656934737457" lon="13.448248612594242"><ele>1000.8</ele><time>2026-04-27T12:12:21.002Z</time></trkpt><trkpt lat="42.10652539062678" lon="13.448146974718044"><ele>1000.4</ele><time>2026-04-27T12:12:22.002Z</time></trkpt><trkpt lat="42.106408434842194" lon="13.448051999498537"><ele>1000.0</ele><time>2026-04-27T12:12:24.002Z</time></trkpt><trkpt lat="42.1063048521791" lon="13.448042157874571"><ele>998.8</ele><time>2026-04-27T12:12:25.002Z</time></trkpt><trkpt lat="42.10619744728023" lon="13.44802728160968"><ele>997.6</ele><time>2026-04-27T12:12:26.002Z</time></trkpt><trkpt lat="42.10609591831099" lon="13.447994434789281"><ele>996.4000000000001</ele><time>2026-04-27T12:12:27.002Z</time></trkpt><trkpt lat="42.106021396822285" lon="13.447953880415623"><ele>995.2</ele><time>2026-04-27T12:12:28.002Z</time></trkpt><trkpt lat="42.105950529210325" lon="13.44789222447666"><ele>994.0</ele><time>2026-04-27T12:12:29.002Z</time></trkpt><trkpt lat="42.10588332209861" lon="13.447732226658964"><ele>993.6</ele><time>2026-04-27T12:12:31.002Z</time></trkpt><trkpt lat="42.10584594300048" lon="13.44759110211942"><ele>993.2</ele><time>2026-04-27T12:12:32.002Z</time></trkpt><trkpt lat="42.10580273005789" lon="13.44745726781023"><ele>992.8000000000001</ele><time>2026-04-27T12:12:33.002Z</time></trkpt><trkpt lat="42.10577378883583" lon="13.447336075247904"><ele>992.4000000000001</ele><time>2026-04-27T12:12:34.002Z</time></trkpt><trkpt lat="42.105750641713335" lon="13.447207322386339"><ele>992.0</ele><time>2026-04-27T12:12:35.002Z</time></trkpt><trkpt lat="42.10573472713437" lon="13.447102513576446"><ele>990.8</ele><time>2026-04-27T12:12:36.002Z</time></trkpt><trkpt lat="42.10570665345609" lon="13.44692341225225"><ele>989.6</ele><time>2026-04-27T12:12:38.002Z</time></trkpt><trkpt lat="42.105725782244264" lon="13.44680829990042"><ele>988.3999999999999</ele><time>2026-04-27T12:12:39.002Z</time></trkpt><trkpt lat="42.105762377908164" lon="13.446710222723517"><ele>987.1999999999999</ele><time>2026-04-27T12:12:40.002Z</time></trkpt><trkpt lat="42.105808422092196" lon="13.446631303584402"><ele>986.0</ele><time>2026-04-27T12:12:41.002Z</time></trkpt><trkpt lat="42.105857116504815" lon="13.446549249496147"><ele>986.0000000000001</ele><time>2026-04-27T12:12:42.002Z</time></trkpt><trkpt lat="42.10586087832725" lon="13.446456855745097"><ele>986.0</ele><time>2026-04-27T12:12:43.002Z</time></trkpt><trkpt lat="42.10583209419803" lon="13.446345835282921"><ele>986.0</ele><time>2026-04-27T12:12:44.002Z</time></trkpt><trkpt lat="42.10578868820629" lon="13.446237154057615"><ele>986.0</ele><time>2026-04-27T12:12:45.002Z</time></trkpt><trkpt lat="42.10573295751064" lon="13.44613594742432"><ele>986.0000000000001</ele><time>2026-04-27T12:12:46.002Z</time></trkpt><trkpt lat="42.105681603661516" lon="13.446054042314577"><ele>986.0</ele><time>2026-04-27T12:12:47.002Z</time></trkpt><trkpt lat="42.10562119187409" lon="13.445941321699873"><ele>984.1999999999999</ele><time>2026-04-27T12:12:48.002Z</time></trkpt><trkpt lat="42.10559183314237" lon="13.445842120553884"><ele>982.3999999999999</ele><time>2026-04-27T12:12:49.002Z</time></trkpt><trkpt lat="42.10555019585546" lon="13.445722065092603"><ele>980.6</ele><time>2026-04-27T12:12:50.002Z</time></trkpt><trkpt lat="42.10548830340513" lon="13.445590529909794"><ele>978.8</ele><time>2026-04-27T12:12:51.002Z</time></trkpt><trkpt lat="42.105426670019625" lon="13.445459767581221"><ele>977.0</ele><time>2026-04-27T12:12:52.002Z</time></trkpt><trkpt lat="42.10537217125472" lon="13.445317933114447"><ele>977.0</ele><time>2026-04-27T12:12:53.002Z</time></trkpt><trkpt lat="42.10533838956825" lon="13.445183636966933"><ele>977.0</ele><time>2026-04-27T12:12:54.002Z</time></trkpt><trkpt lat="42.10529892798364" lon="13.445056030311077"><ele>977.0</ele><time>2026-04-27T12:12:55.002Z</time></trkpt><trkpt lat="42.10525096065432" lon="13.444927569611792"><ele>977.0</ele><time>2026-04-27T12:12:56.002Z</time></trkpt><trkpt lat="42.10519382509199" lon="13.444789501202084"><ele>977.0</ele><time>2026-04-27T12:12:57.002Z</time></trkpt><trkpt lat="42.10514359520205" lon="13.444634281140782"><ele>976.5</ele><time>2026-04-27T12:12:58.002Z</time></trkpt><trkpt lat="42.10508058213116" lon="13.444472222939993"><ele>976.0</ele><time>2026-04-27T12:12:59.002Z</time></trkpt><trkpt lat="42.10502050026281" lon="13.444305021224151"><ele>975.5</ele><time>2026-04-27T12:13:00.002Z</time></trkpt><trkpt lat="42.10494865626253" lon="13.444135542952294"><ele>975.0</ele><time>2026-04-27T12:13:01.001Z</time></trkpt><trkpt lat="42.104882359916786" lon="13.443972235225782"><ele>974.5</ele><time>2026-04-27T12:13:02.001Z</time></trkpt><trkpt lat="42.10482135305196" lon="13.443838379974302"><ele>974.0</ele><time>2026-04-27T12:13:03.001Z</time></trkpt><trkpt lat="42.10473870709318" lon="13.443723270058419"><ele>973.5</ele><time>2026-04-27T12:13:04.001Z</time></trkpt><trkpt lat="42.104649982960396" lon="13.443587114625577"><ele>973.0</ele><time>2026-04-27T12:13:05.001Z</time></trkpt><trkpt lat="42.10457835072385" lon="13.443409718776502"><ele>973.0</ele><time>2026-04-27T12:13:06.001Z</time></trkpt><trkpt lat="42.10452933168997" lon="13.443237191575607"><ele>973.0</ele><time>2026-04-27T12:13:07.001Z</time></trkpt><trkpt lat="42.10446366044636" lon="13.443080362732816"><ele>973.0</ele><time>2026-04-27T12:13:08.001Z</time></trkpt><trkpt lat="42.10435977025837" lon="13.442915964546161"><ele>973.0</ele><time>2026-04-27T12:13:09.001Z</time></trkpt><trkpt lat="42.10425519863134" lon="13.442762426538284"><ele>973.0</ele><time>2026-04-27T12:13:10.001Z</time></trkpt><trkpt lat="42.10416557878954" lon="13.442623834490075"><ele>973.0</ele><time>2026-04-27T12:13:11.001Z</time></trkpt><trkpt lat="42.104091557803045" lon="13.442468275241223"><ele>973.0</ele><time>2026-04-27T12:13:12.001Z</time></trkpt><trkpt lat="42.10403052761801" lon="13.442302182198809"><ele>973.0</ele><time>2026-04-27T12:13:13.001Z</time></trkpt><trkpt lat="42.1039584106062" lon="13.442094072082556"><ele>972.0</ele><time>2026-04-27T12:13:14.001Z</time></trkpt><trkpt lat="42.10389329569592" lon="13.441885342143909"><ele>971.0</ele><time>2026-04-27T12:13:15.001Z</time></trkpt><trkpt lat="42.10381366111083" lon="13.441685386268029"><ele>970.0</ele><time>2026-04-27T12:13:16.001Z</time></trkpt><trkpt lat="42.103738462427934" lon="13.441500449823401"><ele>970.0</ele><time>2026-04-27T12:13:17.001Z</time></trkpt><trkpt lat="42.10363878584523" lon="13.441346151212416"><ele>970.0</ele><time>2026-04-27T12:13:18.001Z</time></trkpt><trkpt lat="42.10351972961367" lon="13.441199553223727"><ele>970.0</ele><time>2026-04-27T12:13:19.001Z</time></trkpt><trkpt lat="42.10342206961194" lon="13.441063421578248"><ele>970.75</ele><time>2026-04-27T12:13:20.001Z</time></trkpt><trkpt lat="42.10334203538342" lon="13.440924012888349"><ele>971.5</ele><time>2026-04-27T12:13:21.001Z</time></trkpt><trkpt lat="42.10328353969444" lon="13.440790489844403"><ele>972.25</ele><time>2026-04-27T12:13:22.001Z</time></trkpt><trkpt lat="42.10323742328512" lon="13.44066735719686"><ele>973.0</ele><time>2026-04-27T12:13:23.001Z</time></trkpt><trkpt lat="42.103171741235464" lon="13.440528428322725"><ele>972.75</ele><time>2026-04-27T12:13:24.001Z</time></trkpt><trkpt lat="42.103085366394644" lon="13.440405857669127"><ele>972.5</ele><time>2026-04-27T12:13:25.001Z</time></trkpt><trkpt lat="42.10298893115507" lon="13.440283997280662"><ele>972.25</ele><time>2026-04-27T12:13:26.001Z</time></trkpt><trkpt lat="42.10287754157087" lon="13.440170753855758"><ele>972.0</ele><time>2026-04-27T12:13:27.001Z</time></trkpt><trkpt lat="42.10278333214935" lon="13.440086995135871"><ele>972.0</ele><time>2026-04-27T12:13:28.001Z</time></trkpt><trkpt lat="42.10266692898993" lon="13.440033447797708"><ele>972.0</ele><time>2026-04-27T12:13:29.001Z</time></trkpt><trkpt lat="42.102535561848384" lon="13.439995677459788"><ele>972.0</ele><time>2026-04-27T12:13:30.001Z</time></trkpt><trkpt lat="42.10242533257644" lon="13.439950434018455"><ele>972.0</ele><time>2026-04-27T12:13:31.001Z</time></trkpt><trkpt lat="42.10234126785351" lon="13.439876913895505"><ele>971.75</ele><time>2026-04-27T12:13:32.001Z</time></trkpt><trkpt lat="42.102249619361096" lon="13.439756393509821"><ele>971.5</ele><time>2026-04-27T12:13:33.001Z</time></trkpt><trkpt lat="42.1021529358059" lon="13.439605035092178"><ele>971.25</ele><time>2026-04-27T12:13:34.001Z</time></trkpt><trkpt lat="42.10205435724758" lon="13.439450128368465"><ele>971.0</ele><time>2026-04-27T12:13:35.001Z</time></trkpt><trkpt lat="42.101947834552945" lon="13.439283553088622"><ele>972.6666666666667</ele><time>2026-04-27T12:13:36.001Z</time></trkpt><trkpt lat="42.101844622114996" lon="13.439132785781096"><ele>974.3333333333333</ele><time>2026-04-27T12:13:37.001Z</time></trkpt><trkpt lat="42.10171630224502" lon="13.43896901156155"><ele>976.0</ele><time>2026-04-27T12:13:38.001Z</time></trkpt><trkpt lat="42.10160769727488" lon="13.438833395531168"><ele>975.6666666666666</ele><time>2026-04-27T12:13:39.001Z</time></trkpt><trkpt lat="42.10150511150656" lon="13.43867785544482"><ele>975.3333333333333</ele><time>2026-04-27T12:13:40.001Z</time></trkpt><trkpt lat="42.101411674046666" lon="13.438530006022338"><ele>975.0</ele><time>2026-04-27T12:13:41.001Z</time></trkpt><trkpt lat="42.101319855353644" lon="13.438361168683661"><ele>975.0</ele><time>2026-04-27T12:13:42.001Z</time></trkpt><trkpt lat="42.10122130524534" lon="13.438173793283397"><ele>975.0</ele><time>2026-04-27T12:13:43.001Z</time></trkpt><trkpt lat="42.10112315796119" lon="13.43799797681387"><ele>975.0</ele><time>2026-04-27T12:13:44.001Z</time></trkpt><trkpt lat="42.10101824089209" lon="13.437832666743475"><ele>975.0</ele><time>2026-04-27T12:13:45.001Z</time></trkpt><trkpt lat="42.10092285050511" lon="13.437675177191805"><ele>975.0</ele><time>2026-04-27T12:13:46.001Z</time></trkpt><trkpt lat="42.10085952358117" lon="13.43755235460226"><ele>975.0</ele><time>2026-04-27T12:13:47.001Z</time></trkpt><trkpt lat="42.10080659299727" lon="13.437449972164481"><ele>975.0</ele><time>2026-04-27T12:13:48.001Z</time></trkpt><trkpt lat="42.10072884505853" lon="13.43731690367172"><ele>974.4</ele><time>2026-04-27T12:13:50.001Z</time></trkpt><trkpt lat="42.10067089389279" lon="13.437203374689542"><ele>973.8</ele><time>2026-04-27T12:13:52.001Z</time></trkpt><trkpt lat="42.10060341813292" lon="13.437116334551392"><ele>973.2</ele><time>2026-04-27T12:13:53.001Z</time></trkpt><trkpt lat="42.10053889028174" lon="13.43699895995428"><ele>972.6</ele><time>2026-04-27T12:13:54.001Z</time></trkpt><trkpt lat="42.10048259468868" lon="13.436873410259933"><ele>972.0</ele><time>2026-04-27T12:13:55.001Z</time></trkpt><trkpt lat="42.10041625334359" lon="13.436730484905691"><ele>972.0</ele><time>2026-04-27T12:13:56.001Z</time></trkpt><trkpt lat="42.100345646629115" lon="13.436587708080456"><ele>972.0</ele><time>2026-04-27T12:13:57.001Z</time></trkpt><trkpt lat="42.100283038143246" lon="13.436451172504526"><ele>972.0</ele><time>2026-04-27T12:13:58.001Z</time></trkpt><trkpt lat="42.10021188644482" lon="13.436323719627229"><ele>972.0</ele><time>2026-04-27T12:13:59.001Z</time></trkpt><trkpt lat="42.10014072642411" lon="13.436177419238795"><ele>972.0</ele><time>2026-04-27T12:14:00.001Z</time></trkpt><trkpt lat="42.100091735808185" lon="13.436035769616348"><ele>972.0</ele><time>2026-04-27T12:14:01.001Z</time></trkpt><trkpt lat="42.10004565319509" lon="13.43591124925554"><ele>972.0</ele><time>2026-04-27T12:14:02.001Z</time></trkpt><trkpt lat="42.0999960910765" lon="13.435776013312227"><ele>972.0</ele><time>2026-04-27T12:14:03.001Z</time></trkpt><trkpt lat="42.09994973134733" lon="13.435683101795846"><ele>972.0</ele><time>2026-04-27T12:14:04.001Z</time></trkpt><trkpt lat="42.09991263675339" lon="13.435569137220472"><ele>972.0</ele><time>2026-04-27T12:14:05.001Z</time></trkpt><trkpt lat="42.099874672252184" lon="13.435481170901987"><ele>972.0</ele><time>2026-04-27T12:14:06.001Z</time></trkpt><trkpt lat="42.09983406846557" lon="13.435352984762316"><ele>972.0</ele><time>2026-04-27T12:14:07.001Z</time></trkpt><trkpt lat="42.09979204750894" lon="13.435246958675291"><ele>972.0</ele><time>2026-04-27T12:14:08.001Z</time></trkpt><trkpt lat="42.09975158701078" lon="13.435111769387024"><ele>972.0</ele><time>2026-04-27T12:14:09.001Z</time></trkpt><trkpt lat="42.09971672010916" lon="13.434990748793545"><ele>972.4000000000001</ele><time>2026-04-27T12:14:10.001Z</time></trkpt><trkpt lat="42.09966758921094" lon="13.434868168206634"><ele>972.8000000000001</ele><time>2026-04-27T12:14:11.001Z</time></trkpt><trkpt lat="42.09961969293491" lon="13.434748972642295"><ele>973.2</ele><time>2026-04-27T12:14:12.001Z</time></trkpt><trkpt lat="42.0995809457734" lon="13.434656051927327"><ele>973.6</ele><time>2026-04-27T12:14:13.002Z</time></trkpt><trkpt lat="42.09952374097757" lon="13.434533350975586"><ele>974.0</ele><time>2026-04-27T12:14:14.002Z</time></trkpt><trkpt lat="42.09947836137778" lon="13.434411916321297"><ele>974.1666666666667</ele><time>2026-04-27T12:14:15.002Z</time></trkpt><trkpt lat="42.099438143107434" lon="13.434293768488965"><ele>974.3333333333334</ele><time>2026-04-27T12:14:16.002Z</time></trkpt><trkpt lat="42.099398700410816" lon="13.43419940217164"><ele>974.5</ele><time>2026-04-27T12:14:17.002Z</time></trkpt><trkpt lat="42.09938279870852" lon="13.434102566138451"><ele>974.6666666666667</ele><time>2026-04-27T12:14:18.002Z</time></trkpt><trkpt lat="42.09936809405165" lon="13.433983322210363"><ele>974.8333333333334</ele><time>2026-04-27T12:14:20.002Z</time></trkpt><trkpt lat="42.09935357133633" lon="13.433870224442424"><ele>975.0</ele><time>2026-04-27T12:14:23.002Z</time></trkpt><trkpt lat="42.09924263845826" lon="13.433775714016852"><ele>974.4</ele><time>2026-04-27T12:14:25.002Z</time></trkpt><trkpt lat="42.09916793112385" lon="13.433708170368758"><ele>973.8</ele><time>2026-04-27T12:14:26.002Z</time></trkpt><trkpt lat="42.099086656356626" lon="13.43362496216796"><ele>973.2</ele><time>2026-04-27T12:14:27.002Z</time></trkpt><trkpt lat="42.09898863671011" lon="13.433521348952643"><ele>972.6</ele><time>2026-04-27T12:14:28.002Z</time></trkpt><trkpt lat="42.09889284991202" lon="13.433423156209827"><ele>972.0</ele><time>2026-04-27T12:14:29.002Z</time></trkpt><trkpt lat="42.09878953037617" lon="13.433321359995215"><ele>972.0</ele><time>2026-04-27T12:14:30.002Z</time></trkpt><trkpt lat="42.0986856203115" lon="13.433218208506595"><ele>972.0</ele><time>2026-04-27T12:14:31.002Z</time></trkpt><trkpt lat="42.09857440080146" lon="13.433107974354972"><ele>972.0</ele><time>2026-04-27T12:14:32.002Z</time></trkpt><trkpt lat="42.098466746028535" lon="13.432999473875363"><ele>972.0</ele><time>2026-04-27T12:14:33.002Z</time></trkpt><trkpt lat="42.09836476133402" lon="13.432888315026334"><ele>971.25</ele><time>2026-04-27T12:14:34.002Z</time></trkpt><trkpt lat="42.09826679349267" lon="13.43278695155943"><ele>970.5</ele><time>2026-04-27T12:14:35.002Z</time></trkpt><trkpt lat="42.098171593084956" lon="13.432691404764524"><ele>969.75</ele><time>2026-04-27T12:14:36.002Z</time></trkpt><trkpt lat="42.09808437528796" lon="13.4326021151295"><ele>969.0</ele><time>2026-04-27T12:14:37.002Z</time></trkpt><trkpt lat="42.098003504910956" lon="13.432518738010348"><ele>969.0</ele><time>2026-04-27T12:14:38.002Z</time></trkpt><trkpt lat="42.09794077896327" lon="13.432454333957523"><ele>969.0000000000001</ele><time>2026-04-27T12:14:39.002Z</time></trkpt><trkpt lat="42.09790301912455" lon="13.432377741993891"><ele>969.0000000000001</ele><time>2026-04-27T12:14:41.002Z</time></trkpt><trkpt lat="42.098093086439235" lon="13.432271132584138"><ele>969.0</ele><time>2026-04-27T12:14:46.002Z</time></trkpt><trkpt lat="42.09817023904112" lon="13.432304619865537"><ele>969.0</ele><time>2026-04-27T12:14:47.002Z</time></trkpt><trkpt lat="42.09826021313633" lon="13.432385447497424"><ele>967.5</ele><time>2026-04-27T12:14:48.002Z</time></trkpt><trkpt lat="42.098370309227604" lon="13.432492713268008"><ele>966.0</ele><time>2026-04-27T12:14:49.002Z</time></trkpt><trkpt lat="42.09848592514957" lon="13.432606084581822"><ele>964.5</ele><time>2026-04-27T12:14:50.002Z</time></trkpt><trkpt lat="42.098591392841556" lon="13.432698677062868"><ele>963.0</ele><time>2026-04-27T12:14:51.002Z</time></trkpt><trkpt lat="42.098696404773364" lon="13.43278797542372"><ele>963.0</ele><time>2026-04-27T12:14:52.002Z</time></trkpt><trkpt lat="42.098805871256246" lon="13.432865362486975"><ele>963.0</ele><time>2026-04-27T12:14:53.002Z</time></trkpt><trkpt lat="42.098936728676144" lon="13.432932466035915"><ele>963.0</ele><time>2026-04-27T12:14:54.002Z</time></trkpt><trkpt lat="42.09906756777224" lon="13.432973709117665"><ele>963.0</ele><time>2026-04-27T12:14:55.002Z</time></trkpt><trkpt lat="42.099177934720515" lon="13.432988580518778"><ele>964.0</ele><time>2026-04-27T12:14:56.002Z</time></trkpt><trkpt lat="42.099269342508784" lon="13.43299979227206"><ele>965.0</ele><time>2026-04-27T12:14:57.002Z</time></trkpt><trkpt lat="42.09933246025688" lon="13.433039497137786"><ele>966.0</ele><time>2026-04-27T12:14:58.002Z</time></trkpt><trkpt lat="42.09938873809291" lon="13.433095478903148"><ele>967.0</ele><time>2026-04-27T12:14:59.002Z</time></trkpt><trkpt lat="42.09945140310579" lon="13.433125848491658"><ele>968.0</ele><time>2026-04-27T12:15:00.002Z</time></trkpt><trkpt lat="42.09956376072772" lon="13.433029737207107"><ele>969.0</ele><time>2026-04-27T12:15:02.002Z</time></trkpt><trkpt lat="42.09962943304844" lon="13.432967355115734"><ele>965.8333333333334</ele><time>2026-04-27T12:15:03.002Z</time></trkpt><trkpt lat="42.09972042175734" lon="13.432940084289035"><ele>962.6666666666667</ele><time>2026-04-27T12:15:04.002Z</time></trkpt><trkpt lat="42.09981280274067" lon="13.432897675703977"><ele>959.5</ele><time>2026-04-27T12:15:05.002Z</time></trkpt><trkpt lat="42.09988128331679" lon="13.43286150012419"><ele>956.3333333333334</ele><time>2026-04-27T12:15:06.002Z</time></trkpt><trkpt lat="42.099948523808756" lon="13.432818477382146"><ele>953.1666666666667</ele><time>2026-04-27T12:15:07.001Z</time></trkpt><trkpt lat="42.09999706793949" lon="13.43275371387738"><ele>950.0</ele><time>2026-04-27T12:15:08.001Z</time></trkpt><trkpt lat="42.10005310397857" lon="13.432683066185463"><ele>950.0000000000001</ele><time>2026-04-27T12:15:09.001Z</time></trkpt><trkpt lat="42.1001031138314" lon="13.432609805609738"><ele>950.0</ele><time>2026-04-27T12:15:10.001Z</time></trkpt><trkpt lat="42.100145938693636" lon="13.432521632724523"><ele>950.0</ele><time>2026-04-27T12:15:11.001Z</time></trkpt><trkpt lat="42.10019123830473" lon="13.432434235750714"><ele>950.0</ele><time>2026-04-27T12:15:12.001Z</time></trkpt><trkpt lat="42.100212163943" lon="13.432342293876614"><ele>950.0000000000001</ele><time>2026-04-27T12:15:13.001Z</time></trkpt><trkpt lat="42.10026241514009" lon="13.432209546969979"><ele>950.0</ele><time>2026-04-27T12:15:15.001Z</time></trkpt><trkpt lat="42.1003288781918" lon="13.432124479461764"><ele>949.3333333333334</ele><time>2026-04-27T12:15:17.001Z</time></trkpt><trkpt lat="42.1002944138179" lon="13.43205167201203"><ele>948.6666666666667</ele><time>2026-04-27T12:15:20.001Z</time></trkpt><trkpt lat="42.10021188548192" lon="13.432010867984992"><ele>948.0</ele><time>2026-04-27T12:15:22.001Z</time></trkpt><trkpt lat="42.10014516363856" lon="13.431919896890404"><ele>947.3333333333333</ele><time>2026-04-27T12:15:24.001Z</time></trkpt><trkpt lat="42.10008536853206" lon="13.43185884021534"><ele>946.6666666666666</ele><time>2026-04-27T12:15:26.001Z</time></trkpt><trkpt lat="42.10000467285007" lon="13.431854529407195"><ele>946.0</ele><time>2026-04-27T12:15:29.001Z</time></trkpt><trkpt lat="42.099918781783444" lon="13.43180918302207"><ele>944.8333333333333</ele><time>2026-04-27T12:15:31.001Z</time></trkpt><trkpt lat="42.09985458125053" lon="13.431766527115805"><ele>943.6666666666666</ele><time>2026-04-27T12:15:32.001Z</time></trkpt><trkpt lat="42.099796458291756" lon="13.43172968747103"><ele>942.5</ele><time>2026-04-27T12:15:33.001Z</time></trkpt><trkpt lat="42.09973292783544" lon="13.43162314047515"><ele>941.3333333333333</ele><time>2026-04-27T12:15:36.001Z</time></trkpt><trkpt lat="42.09962593831118" lon="13.431573255312165"><ele>940.1666666666666</ele><time>2026-04-27T12:15:38.001Z</time></trkpt><trkpt lat="42.099568406169794" lon="13.431535661220282"><ele>939.0</ele><time>2026-04-27T12:15:40.001Z</time></trkpt><trkpt lat="42.099486377245015" lon="13.431492520998418"><ele>939.0</ele><time>2026-04-27T12:15:42.001Z</time></trkpt><trkpt lat="42.09944201149315" lon="13.431426028265436"><ele>939.0</ele><time>2026-04-27T12:15:43.001Z</time></trkpt><trkpt lat="42.09938721632263" lon="13.431340622950195"><ele>939.0</ele><time>2026-04-27T12:15:44.001Z</time></trkpt><trkpt lat="42.09933896925233" lon="13.431209515016626"><ele>939.0</ele><time>2026-04-27T12:15:46.001Z</time></trkpt><trkpt lat="42.0992961395417" lon="13.43113661216868"><ele>939.0</ele><time>2026-04-27T12:15:48.001Z</time></trkpt><trkpt lat="42.09924609872057" lon="13.431078598908053"><ele>939.0</ele><time>2026-04-27T12:15:50.001Z</time></trkpt><trkpt lat="42.09919348545511" lon="13.431012576222006"><ele>938.6</ele><time>2026-04-27T12:15:51.001Z</time></trkpt><trkpt lat="42.09912245374154" lon="13.430890883018023"><ele>938.2</ele><time>2026-04-27T12:15:53.001Z</time></trkpt><trkpt lat="42.099088031916956" lon="13.430813304546394"><ele>937.8000000000001</ele><time>2026-04-27T12:15:54.001Z</time></trkpt><trkpt lat="42.099050589121205" lon="13.430729566430662"><ele>937.4000000000001</ele><time>2026-04-27T12:15:55.001Z</time></trkpt><trkpt lat="42.09897308608207" lon="13.430588325967005"><ele>937.0</ele><time>2026-04-27T12:15:57.001Z</time></trkpt><trkpt lat="42.09893715151899" lon="13.43050990011869"><ele>937.8</ele><time>2026-04-27T12:15:58.001Z</time></trkpt><trkpt lat="42.098890828020224" lon="13.430441760388824"><ele>938.6</ele><time>2026-04-27T12:15:59.001Z</time></trkpt><trkpt lat="42.09882828083824" lon="13.430301467381954"><ele>939.3999999999999</ele><time>2026-04-27T12:16:01.001Z</time></trkpt><trkpt lat="42.098800431412165" lon="13.430163032280909"><ele>940.1999999999999</ele><time>2026-04-27T12:16:03.001Z</time></trkpt><trkpt lat="42.098763327398466" lon="13.430080978068244"><ele>941.0</ele><time>2026-04-27T12:16:04.001Z</time></trkpt><trkpt lat="42.09872487705673" lon="13.429938669878597"><ele>941.0</ele><time>2026-04-27T12:16:06.001Z</time></trkpt><trkpt lat="42.09868874756099" lon="13.429818082152515"><ele>940.9999999999999</ele><time>2026-04-27T12:16:08.001Z</time></trkpt><trkpt lat="42.09866318370479" lon="13.429660753003663"><ele>940.9999999999999</ele><time>2026-04-27T12:16:10.001Z</time></trkpt><trkpt lat="42.09864191096461" lon="13.42949949494853"><ele>941.0</ele><time>2026-04-27T12:16:12.001Z</time></trkpt><trkpt lat="42.09862778058195" lon="13.429358418978547"><ele>941.0</ele><time>2026-04-27T12:16:14.001Z</time></trkpt><trkpt lat="42.09859636467732" lon="13.429207788293018"><ele>942.5000000000001</ele><time>2026-04-27T12:16:16.001Z</time></trkpt><trkpt lat="42.09857210017728" lon="13.429049281344232"><ele>944.0</ele><time>2026-04-27T12:16:18.001Z</time></trkpt><trkpt lat="42.09855723767768" lon="13.428965318066453"><ele>945.5</ele><time>2026-04-27T12:16:19.001Z</time></trkpt><trkpt lat="42.098553478377596" lon="13.428875527194082"><ele>947.0</ele><time>2026-04-27T12:16:20.002Z</time></trkpt><trkpt lat="42.09854751283782" lon="13.428768512136848"><ele>948.5000000000001</ele><time>2026-04-27T12:16:21.002Z</time></trkpt><trkpt lat="42.098523646077936" lon="13.428670258575634"><ele>950.0</ele><time>2026-04-27T12:16:22.002Z</time></trkpt><trkpt lat="42.098499535027116" lon="13.428556433162319"><ele>951.25</ele><time>2026-04-27T12:16:23.002Z</time></trkpt><trkpt lat="42.098475282402426" lon="13.428417642408572"><ele>952.5</ele><time>2026-04-27T12:16:24.002Z</time></trkpt><trkpt lat="42.09843680974626" lon="13.428291868133464"><ele>953.75</ele><time>2026-04-27T12:16:25.002Z</time></trkpt><trkpt lat="42.098385715935954" lon="13.428143652935514"><ele>955.0</ele><time>2026-04-27T12:16:26.002Z</time></trkpt><trkpt lat="42.09834949694191" lon="13.42798480418283"><ele>955.2</ele><time>2026-04-27T12:16:27.002Z</time></trkpt><trkpt lat="42.09831251843514" lon="13.427830664467603"><ele>955.4</ele><time>2026-04-27T12:16:28.002Z</time></trkpt><trkpt lat="42.098279214183286" lon="13.427703701906616"><ele>955.5999999999999</ele><time>2026-04-27T12:16:29.002Z</time></trkpt><trkpt lat="42.09824946915201" lon="13.427585828131775"><ele>955.8</ele><time>2026-04-27T12:16:30.002Z</time></trkpt><trkpt lat="42.09821292914518" lon="13.427457460221294"><ele>956.0</ele><time>2026-04-27T12:16:31.002Z</time></trkpt><trkpt lat="42.09818623809344" lon="13.427338942556169"><ele>951.8</ele><time>2026-04-27T12:16:32.002Z</time></trkpt><trkpt lat="42.09815132288934" lon="13.42722313511377"><ele>947.5999999999999</ele><time>2026-04-27T12:16:33.002Z</time></trkpt><trkpt lat="42.09811375134205" lon="13.427109854524911"><ele>943.4</ele><time>2026-04-27T12:16:34.002Z</time></trkpt><trkpt lat="42.09808049326843" lon="13.42699809856282"><ele>939.2</ele><time>2026-04-27T12:16:35.002Z</time></trkpt><trkpt lat="42.09805480842869" lon="13.42687819381444"><ele>935.0</ele><time>2026-04-27T12:16:36.002Z</time></trkpt><trkpt lat="42.09801951047979" lon="13.426706045088334"><ele>935.0</ele><time>2026-04-27T12:16:37.002Z</time></trkpt><trkpt lat="42.097982733656735" lon="13.426540249455398"><ele>935.0</ele><time>2026-04-27T12:16:38.002Z</time></trkpt><trkpt lat="42.097954966619504" lon="13.426370358394907"><ele>935.0</ele><time>2026-04-27T12:16:39.002Z</time></trkpt><trkpt lat="42.09793368900773" lon="13.426199751651268"><ele>935.0</ele><time>2026-04-27T12:16:40.002Z</time></trkpt><trkpt lat="42.09791214512093" lon="13.426076807007076"><ele>935.1666666666667</ele><time>2026-04-27T12:16:41.002Z</time></trkpt><trkpt lat="42.097900219372086" lon="13.425990908823625"><ele>935.3333333333334</ele><time>2026-04-27T12:16:42.002Z</time></trkpt><trkpt lat="42.09788733272518" lon="13.425846715735373"><ele>935.5</ele><time>2026-04-27T12:16:44.002Z</time></trkpt><trkpt lat="42.09795672853904" lon="13.425857317572468"><ele>935.6666666666667</ele><time>2026-04-27T12:17:09.002Z</time></trkpt><trkpt lat="42.098043069392645" lon="13.425912685774824"><ele>935.8333333333334</ele><time>2026-04-27T12:17:12.002Z</time></trkpt><trkpt lat="42.09811189602455" lon="13.426028000485443"><ele>936.0</ele><time>2026-04-27T12:17:14.001Z</time></trkpt><trkpt lat="42.09820024987038" lon="13.426060813251881"><ele>939.3333333333334</ele><time>2026-04-27T12:17:16.001Z</time></trkpt><trkpt lat="42.09826353523431" lon="13.426073665426394"><ele>942.6666666666667</ele><time>2026-04-27T12:17:18.001Z</time></trkpt><trkpt lat="42.09833746801438" lon="13.426038728746787"><ele>946.0</ele><time>2026-04-27T12:17:20.001Z</time></trkpt><trkpt lat="42.09842475329423" lon="13.426014784346604"><ele>949.3333333333334</ele><time>2026-04-27T12:17:22.001Z</time></trkpt><trkpt lat="42.0984914081577" lon="13.425934609505827"><ele>952.6666666666667</ele><time>2026-04-27T12:17:24.001Z</time></trkpt><trkpt lat="42.09852724209851" lon="13.425863764053469"><ele>956.0</ele><time>2026-04-27T12:17:25.001Z</time></trkpt><trkpt lat="42.09860803038201" lon="13.425772566366488"><ele>956.0</ele><time>2026-04-27T12:17:27.001Z</time></trkpt><trkpt lat="42.09871292718004" lon="13.425697522656268"><ele>955.9999999999999</ele><time>2026-04-27T12:17:29.001Z</time></trkpt><trkpt lat="42.098772006311535" lon="13.425647589755993"><ele>955.9999999999999</ele><time>2026-04-27T12:17:30.001Z</time></trkpt><trkpt lat="42.09889206650168" lon="13.425532201478779"><ele>956.0</ele><time>2026-04-27T12:17:32.001Z</time></trkpt><trkpt lat="42.09894465270084" lon="13.425450118677805"><ele>956.0</ele><time>2026-04-27T12:17:33.001Z</time></trkpt><trkpt lat="42.09899971084908" lon="13.425342560192979"><ele>955.6666666666667</ele><time>2026-04-27T12:17:34.001Z</time></trkpt><trkpt lat="42.09901430534439" lon="13.4252576443933"><ele>955.3333333333334</ele><time>2026-04-27T12:17:35.001Z</time></trkpt><trkpt lat="42.09904332525819" lon="13.425172008040274"><ele>955.0</ele><time>2026-04-27T12:17:36.001Z</time></trkpt><trkpt lat="42.099093010190785" lon="13.425097939651382"><ele>954.6666666666667</ele><time>2026-04-27T12:17:37.001Z</time></trkpt><trkpt lat="42.09915165715844" lon="13.42500543163996"><ele>954.3333333333334</ele><time>2026-04-27T12:17:38.001Z</time></trkpt><trkpt lat="42.09920406126805" lon="13.4248967776956"><ele>954.0</ele><time>2026-04-27T12:17:39.001Z</time></trkpt><trkpt lat="42.09923277364676" lon="13.424772885532706"><ele>953.2</ele><time>2026-04-27T12:17:40.001Z</time></trkpt><trkpt lat="42.09924542334318" lon="13.42462606232849"><ele>952.4000000000001</ele><time>2026-04-27T12:17:41.001Z</time></trkpt><trkpt lat="42.099266033878614" lon="13.42448088502613"><ele>951.6</ele><time>2026-04-27T12:17:42.001Z</time></trkpt><trkpt lat="42.09928204406217" lon="13.424349277390782"><ele>950.8</ele><time>2026-04-27T12:17:43.001Z</time></trkpt><trkpt lat="42.09928975211744" lon="13.424189928369621"><ele>950.0</ele><time>2026-04-27T12:17:44.001Z</time></trkpt><trkpt lat="42.099294973124245" lon="13.424047570321163"><ele>950.0</ele><time>2026-04-27T12:17:45.001Z</time></trkpt><trkpt lat="42.09932523435166" lon="13.423861738174784"><ele>950.0</ele><time>2026-04-27T12:17:46.001Z</time></trkpt><trkpt lat="42.099364643313734" lon="13.423662021369728"><ele>950.0</ele><time>2026-04-27T12:17:47.001Z</time></trkpt><trkpt lat="42.09937869928477" lon="13.423508160870442"><ele>950.0</ele><time>2026-04-27T12:17:48.001Z</time></trkpt><trkpt lat="42.099396405614904" lon="13.423322326704712"><ele>949.25</ele><time>2026-04-27T12:17:49.001Z</time></trkpt><trkpt lat="42.09940685643395" lon="13.423131083568528"><ele>948.5</ele><time>2026-04-27T12:17:50.001Z</time></trkpt><trkpt lat="42.09942613618453" lon="13.42293141755319"><ele>947.75</ele><time>2026-04-27T12:17:51.001Z</time></trkpt><trkpt lat="42.09941974978199" lon="13.42274407800184"><ele>947.0</ele><time>2026-04-27T12:17:52.001Z</time></trkpt><trkpt lat="42.099414163483836" lon="13.422524309294024"><ele>946.0</ele><time>2026-04-27T12:17:53.001Z</time></trkpt><trkpt lat="42.099406307803946" lon="13.42231677082124"><ele>945.0</ele><time>2026-04-27T12:17:54.001Z</time></trkpt><trkpt lat="42.09939760970185" lon="13.422091708861894"><ele>944.0</ele><time>2026-04-27T12:17:55.001Z</time></trkpt><trkpt lat="42.09940237567354" lon="13.421878050964477"><ele>943.0</ele><time>2026-04-27T12:17:56.001Z</time></trkpt><trkpt lat="42.099404771918785" lon="13.421660544044098"><ele>942.0</ele><time>2026-04-27T12:17:57.001Z</time></trkpt><trkpt lat="42.099415011328716" lon="13.421459072422866"><ele>941.0</ele><time>2026-04-27T12:17:58.001Z</time></trkpt><trkpt lat="42.099429022568515" lon="13.421249365998214"><ele>939.0</ele><time>2026-04-27T12:17:59.001Z</time></trkpt><trkpt lat="42.09942862155969" lon="13.421059625647857"><ele>937.0</ele><time>2026-04-27T12:18:00.001Z</time></trkpt><trkpt lat="42.099442198878606" lon="13.420831723150389"><ele>935.0</ele><time>2026-04-27T12:18:01.001Z</time></trkpt><trkpt lat="42.099454872504175" lon="13.420598059836193"><ele>932.6666666666667</ele><time>2026-04-27T12:18:02.001Z</time></trkpt><trkpt lat="42.09945456065632" lon="13.420387005137592"><ele>930.3333333333333</ele><time>2026-04-27T12:18:03.001Z</time></trkpt><trkpt lat="42.099447393541695" lon="13.42016229247043"><ele>928.0</ele><time>2026-04-27T12:18:04.001Z</time></trkpt><trkpt lat="42.09943003905104" lon="13.419963543257035"><ele>928.0</ele><time>2026-04-27T12:18:05.001Z</time></trkpt><trkpt lat="42.09943281268477" lon="13.419807037867017"><ele>928.0</ele><time>2026-04-27T12:18:06.001Z</time></trkpt><trkpt lat="42.09945975029432" lon="13.419659114061934"><ele>928.0</ele><time>2026-04-27T12:18:07.001Z</time></trkpt><trkpt lat="42.099484203986115" lon="13.419528740131904"><ele>928.0</ele><time>2026-04-27T12:18:08.001Z</time></trkpt><trkpt lat="42.09950853885283" lon="13.419365610148027"><ele>927.8</ele><time>2026-04-27T12:18:09.001Z</time></trkpt><trkpt lat="42.09953677131134" lon="13.41928191621138"><ele>927.5999999999999</ele><time>2026-04-27T12:18:10.001Z</time></trkpt><trkpt lat="42.099545213790805" lon="13.41918424297157"><ele>927.4000000000001</ele><time>2026-04-27T12:18:11.001Z</time></trkpt><trkpt lat="42.09953747660417" lon="13.419085820294393"><ele>927.2</ele><time>2026-04-27T12:18:12.001Z</time></trkpt><trkpt lat="42.09959449007376" lon="13.418806120412869"><ele>927.0</ele><time>2026-04-27T12:18:13.001Z</time></trkpt><trkpt lat="42.0995981741221" lon="13.418602621325432"><ele>925.3333333333333</ele><time>2026-04-27T12:18:14.001Z</time></trkpt><trkpt lat="42.099620631281084" lon="13.418382470251643"><ele>923.6666666666666</ele><time>2026-04-27T12:18:15.001Z</time></trkpt><trkpt lat="42.09965640741092" lon="13.41815212912145"><ele>922.0</ele><time>2026-04-27T12:18:16.001Z</time></trkpt><trkpt lat="42.09970074517027" lon="13.417928783433126"><ele>920.6666666666666</ele><time>2026-04-27T12:18:17.001Z</time></trkpt><trkpt lat="42.09974279670158" lon="13.417705113259919"><ele>919.3333333333333</ele><time>2026-04-27T12:18:18.001Z</time></trkpt><trkpt lat="42.09978487386842" lon="13.417467691223383"><ele>918.0</ele><time>2026-04-27T12:18:19.001Z</time></trkpt><trkpt lat="42.09982187081181" lon="13.417213341229584"><ele>916.0</ele><time>2026-04-27T12:18:20.001Z</time></trkpt><trkpt lat="42.09985604940555" lon="13.416958370955514"><ele>914.0</ele><time>2026-04-27T12:18:21.001Z</time></trkpt><trkpt lat="42.09989203553699" lon="13.416739840074577"><ele>912.0</ele><time>2026-04-27T12:18:22.001Z</time></trkpt><trkpt lat="42.09991484147165" lon="13.416526741389943"><ele>911.0</ele><time>2026-04-27T12:18:23.001Z</time></trkpt><trkpt lat="42.099923513832834" lon="13.416316249210746"><ele>910.0</ele><time>2026-04-27T12:18:24.001Z</time></trkpt><trkpt lat="42.09993888930722" lon="13.416097930010363"><ele>909.0</ele><time>2026-04-27T12:18:25.001Z</time></trkpt><trkpt lat="42.099969859846524" lon="13.415880231765382"><ele>909.0</ele><time>2026-04-27T12:18:26.001Z</time></trkpt><trkpt lat="42.1000040779779" lon="13.415655021992302"><ele>909.0</ele><time>2026-04-27T12:18:27.001Z</time></trkpt><trkpt lat="42.100039178978314" lon="13.415420046165847"><ele>909.0</ele><time>2026-04-27T12:18:28.001Z</time></trkpt><trkpt lat="42.10007634419149" lon="13.415189636487176"><ele>908.0</ele><time>2026-04-27T12:18:29.001Z</time></trkpt><trkpt lat="42.10010623481092" lon="13.414983187323866"><ele>907.0</ele><time>2026-04-27T12:18:30.001Z</time></trkpt><trkpt lat="42.100130808534246" lon="13.414803937316854"><ele>906.0</ele><time>2026-04-27T12:18:31.001Z</time></trkpt><trkpt lat="42.10015361962273" lon="13.414615414797224"><ele>905.0</ele><time>2026-04-27T12:18:32.001Z</time></trkpt><trkpt lat="42.10018160563293" lon="13.414433460125887"><ele>903.5</ele><time>2026-04-27T12:18:33.001Z</time></trkpt><trkpt lat="42.10020836238348" lon="13.414261403666265"><ele>902.0</ele><time>2026-04-27T12:18:34.001Z</time></trkpt><trkpt lat="42.10026531364248" lon="13.414086314342445"><ele>900.5</ele><time>2026-04-27T12:18:35.002Z</time></trkpt><trkpt lat="42.10031910243784" lon="13.413876671956098"><ele>899.0</ele><time>2026-04-27T12:18:36.002Z</time></trkpt><trkpt lat="42.10035660960148" lon="13.413664833478991"><ele>898.6666666666667</ele><time>2026-04-27T12:18:37.002Z</time></trkpt><trkpt lat="42.10038919098566" lon="13.413442144040907"><ele>898.3333333333333</ele><time>2026-04-27T12:18:38.002Z</time></trkpt><trkpt lat="42.10044562328116" lon="13.41323342612486"><ele>898.0</ele><time>2026-04-27T12:18:39.002Z</time></trkpt><trkpt lat="42.1004960928766" lon="13.413058540629795"><ele>897.0</ele><time>2026-04-27T12:18:40.002Z</time></trkpt><trkpt lat="42.10053431958465" lon="13.412912883789474"><ele>896.0</ele><time>2026-04-27T12:18:41.002Z</time></trkpt><trkpt lat="42.100577735814845" lon="13.41277374696479"><ele>895.0</ele><time>2026-04-27T12:18:42.002Z</time></trkpt><trkpt lat="42.100613626450055" lon="13.412628485614412"><ele>894.0</ele><time>2026-04-27T12:18:43.002Z</time></trkpt><trkpt lat="42.100613254200816" lon="13.412462838768215"><ele>894.0</ele><time>2026-04-27T12:18:44.002Z</time></trkpt><trkpt lat="42.100608054747056" lon="13.412301632402688"><ele>894.0</ele><time>2026-04-27T12:18:45.002Z</time></trkpt><trkpt lat="42.10063584749452" lon="13.412170574858104"><ele>894.0</ele><time>2026-04-27T12:18:46.002Z</time></trkpt><trkpt lat="42.10069490286288" lon="13.412031826799577"><ele>894.0</ele><time>2026-04-27T12:18:47.002Z</time></trkpt><trkpt lat="42.10075204242074" lon="13.411861074184241"><ele>892.2</ele><time>2026-04-27T12:18:48.002Z</time></trkpt><trkpt lat="42.10080139811417" lon="13.411678137287486"><ele>890.4000000000001</ele><time>2026-04-27T12:18:49.002Z</time></trkpt><trkpt lat="42.100840708472596" lon="13.41153320835956"><ele>888.6</ele><time>2026-04-27T12:18:50.002Z</time></trkpt><trkpt lat="42.10088591299486" lon="13.411429037876678"><ele>886.8</ele><time>2026-04-27T12:18:51.002Z</time></trkpt><trkpt lat="42.10095160084511" lon="13.41133333841556"><ele>885.0</ele><time>2026-04-27T12:18:52.002Z</time></trkpt><trkpt lat="42.101030767292755" lon="13.411204975128388"><ele>884.0</ele><time>2026-04-27T12:18:53.002Z</time></trkpt><trkpt lat="42.10110115127043" lon="13.411027171480729"><ele>883.0</ele><time>2026-04-27T12:18:54.002Z</time></trkpt><trkpt lat="42.10117016086401" lon="13.410860965835912"><ele>882.0</ele><time>2026-04-27T12:18:55.002Z</time></trkpt><trkpt lat="42.101232217699646" lon="13.410693381466487"><ele>881.0</ele><time>2026-04-27T12:18:56.002Z</time></trkpt><trkpt lat="42.10127165055687" lon="13.410511941496276"><ele>880.6666666666667</ele><time>2026-04-27T12:18:57.002Z</time></trkpt><trkpt lat="42.101346714702586" lon="13.410294550848052"><ele>880.3333333333333</ele><time>2026-04-27T12:18:58.002Z</time></trkpt><trkpt lat="42.10142588586792" lon="13.410081232224755"><ele>880.0</ele><time>2026-04-27T12:18:59.002Z</time></trkpt><trkpt lat="42.10150465688129" lon="13.409916810676153"><ele>879.0</ele><time>2026-04-27T12:19:00.002Z</time></trkpt><trkpt lat="42.1015855485197" lon="13.409726371933575"><ele>878.0</ele><time>2026-04-27T12:19:01.002Z</time></trkpt><trkpt lat="42.10166756053022" lon="13.409524986604506"><ele>877.0</ele><time>2026-04-27T12:19:02.002Z</time></trkpt><trkpt lat="42.101752078453686" lon="13.409351520480037"><ele>875.25</ele><time>2026-04-27T12:19:03.002Z</time></trkpt><trkpt lat="42.10182895067453" lon="13.40915418825719"><ele>873.5</ele><time>2026-04-27T12:19:04.002Z</time></trkpt><trkpt lat="42.10191066793905" lon="13.408973463461201"><ele>871.75</ele><time>2026-04-27T12:19:05.002Z</time></trkpt><trkpt lat="42.10199083980096" lon="13.408842268784408"><ele>870.0</ele><time>2026-04-27T12:19:06.002Z</time></trkpt><trkpt lat="42.102092222125336" lon="13.408692148900949"><ele>869.0</ele><time>2026-04-27T12:19:07.002Z</time></trkpt><trkpt lat="42.10219552475808" lon="13.408530803693086"><ele>868.0</ele><time>2026-04-27T12:19:08.002Z</time></trkpt><trkpt lat="42.102276006180205" lon="13.40836333350053"><ele>867.0</ele><time>2026-04-27T12:19:09.002Z</time></trkpt><trkpt lat="42.10235406541901" lon="13.408178376157013"><ele>866.25</ele><time>2026-04-27T12:19:10.002Z</time></trkpt><trkpt lat="42.10242028817249" lon="13.407984609256186"><ele>865.5</ele><time>2026-04-27T12:19:11.002Z</time></trkpt><trkpt lat="42.10248231425863" lon="13.407802274674525"><ele>864.75</ele><time>2026-04-27T12:19:12.002Z</time></trkpt><trkpt lat="42.102524438709345" lon="13.407626346115908"><ele>864.0</ele><time>2026-04-27T12:19:13.002Z</time></trkpt><trkpt lat="42.10255490996187" lon="13.407461210820063"><ele>864.0</ele><time>2026-04-27T12:19:14.002Z</time></trkpt><trkpt lat="42.102561278952194" lon="13.407295835238246"><ele>864.0</ele><time>2026-04-27T12:19:15.002Z</time></trkpt><trkpt lat="42.10252888978081" lon="13.407139436252036"><ele>864.0</ele><time>2026-04-27T12:19:16.002Z</time></trkpt><trkpt lat="42.10249071070054" lon="13.406963752225572"><ele>864.0</ele><time>2026-04-27T12:19:17.002Z</time></trkpt><trkpt lat="42.10247149726643" lon="13.406787515533544"><ele>862.0</ele><time>2026-04-27T12:19:18.002Z</time></trkpt><trkpt lat="42.10248408236347" lon="13.40658878181377"><ele>860.0</ele><time>2026-04-27T12:19:19.001Z</time></trkpt><trkpt lat="42.10251349240619" lon="13.406378236188447"><ele>858.0</ele><time>2026-04-27T12:19:20.001Z</time></trkpt><trkpt lat="42.10256001217392" lon="13.406152144054847"><ele>857.0</ele><time>2026-04-27T12:19:21.001Z</time></trkpt><trkpt lat="42.10259499143985" lon="13.40593847912367"><ele>856.0</ele><time>2026-04-27T12:19:22.001Z</time></trkpt><trkpt lat="42.10260457709273" lon="13.405750020119488"><ele>855.0</ele><time>2026-04-27T12:19:23.001Z</time></trkpt><trkpt lat="42.1026212655312" lon="13.405565318029137"><ele>854.0</ele><time>2026-04-27T12:19:24.001Z</time></trkpt><trkpt lat="42.102674560453416" lon="13.405395763169771"><ele>853.0</ele><time>2026-04-27T12:19:25.001Z</time></trkpt><trkpt lat="42.10274271332471" lon="13.405203602107852"><ele>852.0</ele><time>2026-04-27T12:19:26.001Z</time></trkpt><trkpt lat="42.102832192858806" lon="13.404996526298422"><ele>851.0</ele><time>2026-04-27T12:19:27.001Z</time></trkpt><trkpt lat="42.10291250483626" lon="13.404778214597222"><ele>850.25</ele><time>2026-04-27T12:19:28.001Z</time></trkpt><trkpt lat="42.1029721834803" lon="13.404590418788914"><ele>849.5</ele><time>2026-04-27T12:19:29.001Z</time></trkpt><trkpt lat="42.103027697702466" lon="13.404401363139838"><ele>848.75</ele><time>2026-04-27T12:19:30.001Z</time></trkpt><trkpt lat="42.103078947328974" lon="13.404223388516085"><ele>848.0</ele><time>2026-04-27T12:19:31.001Z</time></trkpt><trkpt lat="42.103146976880744" lon="13.404038658049256"><ele>848.0</ele><time>2026-04-27T12:19:32.001Z</time></trkpt><trkpt lat="42.103218805718875" lon="13.4038652730467"><ele>848.0</ele><time>2026-04-27T12:19:33.001Z</time></trkpt><trkpt lat="42.103298940405416" lon="13.403685833550796"><ele>848.0</ele><time>2026-04-27T12:19:34.001Z</time></trkpt><trkpt lat="42.10337085077843" lon="13.403529752170884"><ele>848.0</ele><time>2026-04-27T12:19:35.001Z</time></trkpt><trkpt lat="42.103463067840295" lon="13.40336812750532"><ele>847.0</ele><time>2026-04-27T12:19:36.001Z</time></trkpt><trkpt lat="42.10353840254472" lon="13.40320726054662"><ele>846.0</ele><time>2026-04-27T12:19:37.001Z</time></trkpt><trkpt lat="42.10361209659399" lon="13.403024894441463"><ele>845.0</ele><time>2026-04-27T12:19:38.001Z</time></trkpt><trkpt lat="42.10369863201788" lon="13.40285759250459"><ele>844.0</ele><time>2026-04-27T12:19:39.001Z</time></trkpt><trkpt lat="42.103791988573654" lon="13.402674318685317"><ele>843.6666666666666</ele><time>2026-04-27T12:19:40.001Z</time></trkpt><trkpt lat="42.10388936806451" lon="13.402511224780403"><ele>843.3333333333333</ele><time>2026-04-27T12:19:41.001Z</time></trkpt><trkpt lat="42.103993578251234" lon="13.40236677687545"><ele>843.0</ele><time>2026-04-27T12:19:42.001Z</time></trkpt><trkpt lat="42.10409671859165" lon="13.402222390913613"><ele>841.6666666666667</ele><time>2026-04-27T12:19:43.001Z</time></trkpt><trkpt lat="42.10421225021397" lon="13.402085884136921"><ele>840.3333333333334</ele><time>2026-04-27T12:19:44.001Z</time></trkpt><trkpt lat="42.10432864917152" lon="13.401895313774098"><ele>839.0</ele><time>2026-04-27T12:19:45.001Z</time></trkpt><trkpt lat="42.10443997947993" lon="13.401676533599145"><ele>839.0</ele><time>2026-04-27T12:19:46.001Z</time></trkpt><trkpt lat="42.10454423201153" lon="13.401468593740406"><ele>839.0</ele><time>2026-04-27T12:19:47.001Z</time></trkpt><trkpt lat="42.10464669667927" lon="13.401276672965597"><ele>839.0</ele><time>2026-04-27T12:19:48.001Z</time></trkpt><trkpt lat="42.104740006363805" lon="13.401120334734204"><ele>838.6666666666667</ele><time>2026-04-27T12:19:49.001Z</time></trkpt><trkpt lat="42.10485414278351" lon="13.400932305852185"><ele>838.3333333333333</ele><time>2026-04-27T12:19:50.001Z</time></trkpt><trkpt lat="42.1049414681394" lon="13.400750839869856"><ele>838.0</ele><time>2026-04-27T12:19:51.001Z</time></trkpt><trkpt lat="42.10503891122149" lon="13.400566658343536"><ele>836.6666666666666</ele><time>2026-04-27T12:19:52.001Z</time></trkpt><trkpt lat="42.105127786123234" lon="13.40039069718486"><ele>835.3333333333333</ele><time>2026-04-27T12:19:53.001Z</time></trkpt><trkpt lat="42.10522176997389" lon="13.400229331099018"><ele>834.0</ele><time>2026-04-27T12:19:54.001Z</time></trkpt><trkpt lat="42.10531709298443" lon="13.400069777196427"><ele>834.0</ele><time>2026-04-27T12:19:55.001Z</time></trkpt><trkpt lat="42.105409651618515" lon="13.399901630759494"><ele>834.0</ele><time>2026-04-27T12:19:56.001Z</time></trkpt><trkpt lat="42.10547283819739" lon="13.399753127134643"><ele>834.0</ele><time>2026-04-27T12:19:57.001Z</time></trkpt><trkpt lat="42.105526607218195" lon="13.39960957125104"><ele>834.0</ele><time>2026-04-27T12:19:58.001Z</time></trkpt><trkpt lat="42.10557710063537" lon="13.39946695131899"><ele>833.8000000000001</ele><time>2026-04-27T12:19:59.001Z</time></trkpt><trkpt lat="42.1056163745048" lon="13.399350443068146"><ele>833.6</ele><time>2026-04-27T12:20:00.001Z</time></trkpt><trkpt lat="42.10563642884376" lon="13.399208333343791"><ele>833.4</ele><time>2026-04-27T12:20:01.001Z</time></trkpt><trkpt lat="42.105634712731195" lon="13.399055804562316"><ele>833.2</ele><time>2026-04-27T12:20:02.001Z</time></trkpt><trkpt lat="42.105634407600924" lon="13.398931197156847"><ele>833.0</ele><time>2026-04-27T12:20:03.001Z</time></trkpt><trkpt lat="42.10565435453566" lon="13.398812054877851"><ele>833.0</ele><time>2026-04-27T12:20:04.001Z</time></trkpt><trkpt lat="42.10568861184347" lon="13.398693000740986"><ele>833.0</ele><time>2026-04-27T12:20:05.001Z</time></trkpt><trkpt lat="42.10575207082812" lon="13.398585980021098"><ele>833.0</ele><time>2026-04-27T12:20:06.001Z</time></trkpt><trkpt lat="42.105838007395214" lon="13.398491389772484"><ele>833.0</ele><time>2026-04-27T12:20:07.001Z</time></trkpt><trkpt lat="42.10594688713464" lon="13.398413883411322"><ele>833.0</ele><time>2026-04-27T12:20:08.001Z</time></trkpt><trkpt lat="42.106067978810486" lon="13.39832859473473"><ele>833.0</ele><time>2026-04-27T12:20:09.001Z</time></trkpt><trkpt lat="42.10618752526553" lon="13.398236617650296"><ele>833.0</ele><time>2026-04-27T12:20:10.001Z</time></trkpt><trkpt lat="42.106307484874925" lon="13.398154514697096"><ele>833.0</ele><time>2026-04-27T12:20:11.001Z</time></trkpt><trkpt lat="42.106426579596466" lon="13.398073576724556"><ele>833.0</ele><time>2026-04-27T12:20:12.001Z</time></trkpt><trkpt lat="42.10654668257479" lon="13.397989198144385"><ele>834.0</ele><time>2026-04-27T12:20:13.001Z</time></trkpt><trkpt lat="42.106646680610915" lon="13.397905070581025"><ele>835.0</ele><time>2026-04-27T12:20:14.001Z</time></trkpt><trkpt lat="42.106732526792754" lon="13.397783324998798"><ele>836.0</ele><time>2026-04-27T12:20:15.001Z</time></trkpt><trkpt lat="42.10681450746522" lon="13.397652654860453"><ele>837.0</ele><time>2026-04-27T12:20:16.001Z</time></trkpt><trkpt lat="42.10689630526044" lon="13.39750755975008"><ele>837.0</ele><time>2026-04-27T12:20:17.001Z</time></trkpt><trkpt lat="42.10697653551925" lon="13.39736280068943"><ele>837.0</ele><time>2026-04-27T12:20:18.001Z</time></trkpt><trkpt lat="42.10705383344596" lon="13.397221275097724"><ele>837.0</ele><time>2026-04-27T12:20:19.001Z</time></trkpt><trkpt lat="42.10711735338651" lon="13.397094200936944"><ele>837.0</ele><time>2026-04-27T12:20:20.001Z</time></trkpt><trkpt lat="42.107166786010225" lon="13.396976449552696"><ele>837.4000000000001</ele><time>2026-04-27T12:20:21.001Z</time></trkpt><trkpt lat="42.10719277583181" lon="13.396898048038123"><ele>837.8000000000001</ele><time>2026-04-27T12:20:22.001Z</time></trkpt><trkpt lat="42.10724338390582" lon="13.396807592325189"><ele>838.2</ele><time>2026-04-27T12:20:24.001Z</time></trkpt><trkpt lat="42.107131050746624" lon="13.396668015802295"><ele>838.6</ele><time>2026-04-27T12:20:25.001Z</time></trkpt><trkpt lat="42.10707492586268" lon="13.396542676827481"><ele>839.0</ele><time>2026-04-27T12:20:26.001Z</time></trkpt><trkpt lat="42.107013900715344" lon="13.396423153522838"><ele>840.0</ele><time>2026-04-27T12:20:27.001Z</time></trkpt><trkpt lat="42.10694709992811" lon="13.396285795830558"><ele>841.0</ele><time>2026-04-27T12:20:28.001Z</time></trkpt><trkpt lat="42.10688103896064" lon="13.396135131866838"><ele>842.0</ele><time>2026-04-27T12:20:29.001Z</time></trkpt><trkpt lat="42.10682045558308" lon="13.395993345685204"><ele>843.0</ele><time>2026-04-27T12:20:30.001Z</time></trkpt><trkpt lat="42.10676440703064" lon="13.395855926652155"><ele>843.0</ele><time>2026-04-27T12:20:31.001Z</time></trkpt><trkpt lat="42.106707138101996" lon="13.39572336152243"><ele>843.0</ele><time>2026-04-27T12:20:32.001Z</time></trkpt><trkpt lat="42.106648281052045" lon="13.39558821345988"><ele>843.0</ele><time>2026-04-27T12:20:33.001Z</time></trkpt><trkpt lat="42.10658787210864" lon="13.395452516045191"><ele>843.0</ele><time>2026-04-27T12:20:34.001Z</time></trkpt><trkpt lat="42.10652294212498" lon="13.39531586374561"><ele>842.75</ele><time>2026-04-27T12:20:35.001Z</time></trkpt><trkpt lat="42.10645970511007" lon="13.395181846040897"><ele>842.5</ele><time>2026-04-27T12:20:36.001Z</time></trkpt><trkpt lat="42.10639461450855" lon="13.39503601324597"><ele>842.25</ele><time>2026-04-27T12:20:37.001Z</time></trkpt><trkpt lat="42.10633119076131" lon="13.394895740277244"><ele>842.0</ele><time>2026-04-27T12:20:38.001Z</time></trkpt><trkpt lat="42.10626955875663" lon="13.394759246595026"><ele>842.2</ele><time>2026-04-27T12:20:39.001Z</time></trkpt><trkpt lat="42.10620690692326" lon="13.394629491699176"><ele>842.4000000000001</ele><time>2026-04-27T12:20:40.001Z</time></trkpt><trkpt lat="42.10614375828418" lon="13.394513713422526"><ele>842.5999999999999</ele><time>2026-04-27T12:20:41.001Z</time></trkpt><trkpt lat="42.106119519337696" lon="13.394415830471434"><ele>842.8</ele><time>2026-04-27T12:20:42.001Z</time></trkpt><trkpt lat="42.10606614760483" lon="13.3943150346769"><ele>843.0</ele><time>2026-04-27T12:20:44.001Z</time></trkpt><trkpt lat="42.106029374498085" lon="13.394182923874503"><ele>843.0</ele><time>2026-04-27T12:20:47.001Z</time></trkpt><trkpt lat="42.1059056422574" lon="13.394171694721924"><ele>843.0</ele><time>2026-04-27T12:20:48.001Z</time></trkpt><trkpt lat="42.105814207614614" lon="13.39412784620289"><ele>843.0</ele><time>2026-04-27T12:20:49.001Z</time></trkpt><trkpt lat="42.10572952873484" lon="13.394096051973024"><ele>843.0</ele><time>2026-04-27T12:20:50.001Z</time></trkpt><trkpt lat="42.105655016451784" lon="13.394066885231856"><ele>843.0</ele><time>2026-04-27T12:20:51.001Z</time></trkpt><trkpt lat="42.10557792730977" lon="13.394021956938879"><ele>841.5</ele><time>2026-04-27T12:20:53.001Z</time></trkpt><trkpt lat="42.105484943472945" lon="13.393988761262092"><ele>840.0</ele><time>2026-04-27T12:20:59.002Z</time></trkpt><trkpt lat="42.10541661845917" lon="13.393976739491983"><ele>838.5</ele><time>2026-04-27T12:21:00.002Z</time></trkpt><trkpt lat="42.105332571357536" lon="13.394001267683887"><ele>837.0</ele><time>2026-04-27T12:21:01.002Z</time></trkpt><trkpt lat="42.10524993469323" lon="13.394047508781686"><ele>835.5</ele><time>2026-04-27T12:21:02.002Z</time></trkpt><trkpt lat="42.105170654791806" lon="13.394130192451685"><ele>834.0</ele><time>2026-04-27T12:21:03.002Z</time></trkpt><trkpt lat="42.10508946803174" lon="13.394243151569182"><ele>834.0</ele><time>2026-04-27T12:21:04.002Z</time></trkpt><trkpt lat="42.10500236992157" lon="13.394362840173823"><ele>834.0</ele><time>2026-04-27T12:21:05.002Z</time></trkpt><trkpt lat="42.10491046664693" lon="13.394482605478913"><ele>834.0</ele><time>2026-04-27T12:21:06.002Z</time></trkpt><trkpt lat="42.10481865206735" lon="13.394600418424975"><ele>834.0</ele><time>2026-04-27T12:21:07.002Z</time></trkpt><trkpt lat="42.104724973071285" lon="13.394711935657323"><ele>832.0</ele><time>2026-04-27T12:21:08.002Z</time></trkpt><trkpt lat="42.10462510503203" lon="13.394807148853182"><ele>830.0</ele><time>2026-04-27T12:21:09.002Z</time></trkpt><trkpt lat="42.10450693413503" lon="13.394874282370012"><ele>828.0</ele><time>2026-04-27T12:21:10.002Z</time></trkpt><trkpt lat="42.104372064799776" lon="13.394920028839111"><ele>826.0</ele><time>2026-04-27T12:21:11.002Z</time></trkpt><trkpt lat="42.104232789475" lon="13.39493569075657"><ele>826.0</ele><time>2026-04-27T12:21:12.002Z</time></trkpt><trkpt lat="42.10410088544465" lon="13.394993297600216"><ele>826.0</ele><time>2026-04-27T12:21:13.002Z</time></trkpt><trkpt lat="42.10396473582053" lon="13.395030499901718"><ele>826.0</ele><time>2026-04-27T12:21:14.002Z</time></trkpt><trkpt lat="42.10384082304789" lon="13.395062882821518"><ele>826.0</ele><time>2026-04-27T12:21:15.002Z</time></trkpt><trkpt lat="42.103720196912896" lon="13.395098650166924"><ele>825.25</ele><time>2026-04-27T12:21:16.002Z</time></trkpt><trkpt lat="42.103606020141925" lon="13.395130106860524"><ele>824.5</ele><time>2026-04-27T12:21:17.002Z</time></trkpt><trkpt lat="42.10349681179457" lon="13.395154493139714"><ele>823.75</ele><time>2026-04-27T12:21:18.002Z</time></trkpt><trkpt lat="42.103382279320385" lon="13.395155093582343"><ele>823.0</ele><time>2026-04-27T12:21:19.002Z</time></trkpt><trkpt lat="42.10326521572834" lon="13.395124091727896"><ele>822.25</ele><time>2026-04-27T12:21:20.002Z</time></trkpt><trkpt lat="42.103147183127135" lon="13.395081149338376"><ele>821.5</ele><time>2026-04-27T12:21:21.002Z</time></trkpt><trkpt lat="42.10302518801873" lon="13.395058505028103"><ele>820.75</ele><time>2026-04-27T12:21:22.002Z</time></trkpt><trkpt lat="42.102899359593266" lon="13.39502913423271"><ele>820.0</ele><time>2026-04-27T12:21:23.002Z</time></trkpt><trkpt lat="42.10279139989263" lon="13.394846425450693"><ele>820.0</ele><time>2026-04-27T12:21:24.002Z</time></trkpt><trkpt lat="42.10267564249496" lon="13.394731293722662"><ele>820.0</ele><time>2026-04-27T12:21:25Z</time></trkpt><trkpt lat="42.10255735201867" lon="13.394606676686301"><ele>820.0</ele><time>2026-04-27T12:21:26Z</time></trkpt><trkpt lat="42.10243796113103" lon="13.394481983392497"><ele>820.0</ele><time>2026-04-27T12:21:27Z</time></trkpt><trkpt lat="42.10231070668079" lon="13.394347270815677"><ele>819.3333333333333</ele><time>2026-04-27T12:21:28Z</time></trkpt><trkpt lat="42.10217525352543" lon="13.394203948909007"><ele>818.6666666666667</ele><time>2026-04-27T12:21:29Z</time></trkpt><trkpt lat="42.1020497415149" lon="13.394070371096994"><ele>818.0</ele><time>2026-04-27T12:21:30Z</time></trkpt><trkpt lat="42.101918928048384" lon="13.393930272687907"><ele>817.6666666666667</ele><time>2026-04-27T12:21:31Z</time></trkpt><trkpt lat="42.10177233862842" lon="13.393783745079899"><ele>817.3333333333333</ele><time>2026-04-27T12:21:32Z</time></trkpt><trkpt lat="42.10163530071041" lon="13.393644880806505"><ele>817.0</ele><time>2026-04-27T12:21:33Z</time></trkpt><trkpt lat="42.10149105542545" lon="13.39349716680628"><ele>817.0</ele><time>2026-04-27T12:21:34Z</time></trkpt><trkpt lat="42.10135039964527" lon="13.39335209216545"><ele>817.0</ele><time>2026-04-27T12:21:35Z</time></trkpt><trkpt lat="42.101212330348794" lon="13.393202376934706"><ele>817.0</ele><time>2026-04-27T12:21:36Z</time></trkpt><trkpt lat="42.10105702135112" lon="13.39303824634222"><ele>816.0</ele><time>2026-04-27T12:21:37Z</time></trkpt><trkpt lat="42.10092457753976" lon="13.392896898359634"><ele>815.0</ele><time>2026-04-27T12:21:38Z</time></trkpt><trkpt lat="42.100772566126786" lon="13.392731731231367"><ele>814.0</ele><time>2026-04-27T12:21:39Z</time></trkpt><trkpt lat="42.10063338529779" lon="13.39258402958047"><ele>814.0</ele><time>2026-04-27T12:21:40Z</time></trkpt><trkpt lat="42.10048097617342" lon="13.39242505961192"><ele>814.0</ele><time>2026-04-27T12:21:41Z</time></trkpt><trkpt lat="42.100332994074954" lon="13.392280593899455"><ele>814.0</ele><time>2026-04-27T12:21:42Z</time></trkpt><trkpt lat="42.10019200904029" lon="13.392140583130697"><ele>814.0</ele><time>2026-04-27T12:21:43Z</time></trkpt><trkpt lat="42.10004060229834" lon="13.391973021888223"><ele>814.0</ele><time>2026-04-27T12:21:44Z</time></trkpt><trkpt lat="42.09989196371287" lon="13.39181620472191"><ele>814.0</ele><time>2026-04-27T12:21:45Z</time></trkpt><trkpt lat="42.099745338799586" lon="13.391662804617754"><ele>814.0</ele><time>2026-04-27T12:21:46Z</time></trkpt><trkpt lat="42.09959568085638" lon="13.391512752060288"><ele>814.0</ele><time>2026-04-27T12:21:47Z</time></trkpt><trkpt lat="42.09944438511811" lon="13.391350741757243"><ele>814.0</ele><time>2026-04-27T12:21:48Z</time></trkpt><trkpt lat="42.09929374165579" lon="13.391188089789821"><ele>813.0</ele><time>2026-04-27T12:21:49Z</time></trkpt><trkpt lat="42.0991420598161" lon="13.391030033179405"><ele>812.0</ele><time>2026-04-27T12:21:50.001Z</time></trkpt><trkpt lat="42.098990799574985" lon="13.390870322100266"><ele>811.0</ele><time>2026-04-27T12:21:51.001Z</time></trkpt><trkpt lat="42.09883915431821" lon="13.390715670684791"><ele>811.0</ele><time>2026-04-27T12:21:52.001Z</time></trkpt><trkpt lat="42.09870541550059" lon="13.390571631291536"><ele>811.0</ele><time>2026-04-27T12:21:53.001Z</time></trkpt><trkpt lat="42.098583044569104" lon="13.39044620117022"><ele>811.0</ele><time>2026-04-27T12:21:54.001Z</time></trkpt><trkpt lat="42.0984644596629" lon="13.390327427495508"><ele>810.3333333333333</ele><time>2026-04-27T12:21:55.001Z</time></trkpt><trkpt lat="42.09834754123482" lon="13.390209268381668"><ele>809.6666666666667</ele><time>2026-04-27T12:21:56.001Z</time></trkpt><trkpt lat="42.09822646040004" lon="13.390075250717153"><ele>809.0</ele><time>2026-04-27T12:21:57.001Z</time></trkpt><trkpt lat="42.09809785385207" lon="13.3899466730706"><ele>809.0</ele><time>2026-04-27T12:21:58.001Z</time></trkpt><trkpt lat="42.097969095452015" lon="13.389806088771872"><ele>809.0</ele><time>2026-04-27T12:21:59.001Z</time></trkpt><trkpt lat="42.09784315958087" lon="13.389678109637849"><ele>809.0</ele><time>2026-04-27T12:22:00.001Z</time></trkpt><trkpt lat="42.097709899743045" lon="13.389544917810602"><ele>807.6666666666667</ele><time>2026-04-27T12:22:01.001Z</time></trkpt><trkpt lat="42.09758747317046" lon="13.389417878253473"><ele>806.3333333333333</ele><time>2026-04-27T12:22:02.001Z</time></trkpt><trkpt lat="42.09746086003209" lon="13.389289984019946"><ele>805.0</ele><time>2026-04-27T12:22:03.001Z</time></trkpt><trkpt lat="42.097344521559975" lon="13.389144934094503"><ele>804.75</ele><time>2026-04-27T12:22:04.001Z</time></trkpt><trkpt lat="42.097236731383916" lon="13.389002197703473"><ele>804.5</ele><time>2026-04-27T12:22:05.001Z</time></trkpt><trkpt lat="42.09715337425191" lon="13.388843276441408"><ele>804.25</ele><time>2026-04-27T12:22:06.001Z</time></trkpt><trkpt lat="42.09708949291571" lon="13.388692485803672"><ele>804.0</ele><time>2026-04-27T12:22:07.001Z</time></trkpt><trkpt lat="42.09703596493654" lon="13.388519126211483"><ele>803.75</ele><time>2026-04-27T12:22:08.001Z</time></trkpt><trkpt lat="42.09700361718442" lon="13.388348952403275"><ele>803.5</ele><time>2026-04-27T12:22:09.001Z</time></trkpt><trkpt lat="42.09700602373891" lon="13.388239575690024"><ele>803.25</ele><time>2026-04-27T12:22:10.001Z</time></trkpt><trkpt lat="42.09703085906819" lon="13.388159761865726"><ele>803.0</ele><time>2026-04-27T12:22:14.001Z</time></trkpt><trkpt lat="42.09688911167097" lon="13.388478607975381"><ele>803.0</ele><time>2026-04-27T12:22:19.001Z</time></trkpt><trkpt lat="42.096984224334236" lon="13.388305124125244"><ele>803.0</ele><time>2026-04-27T12:22:20.001Z</time></trkpt><trkpt lat="42.09705338525268" lon="13.388396054323284"><ele>803.0</ele><time>2026-04-27T12:22:21.001Z</time></trkpt><trkpt lat="42.097162062760766" lon="13.388431923115688"><ele>803.0</ele><time>2026-04-27T12:22:23.001Z</time></trkpt><trkpt lat="42.097266182509685" lon="13.388420680274555"><ele>803.0</ele><time>2026-04-27T12:22:24.001Z</time></trkpt><trkpt lat="42.09739089284945" lon="13.38842423652076"><ele>803.0</ele><time>2026-04-27T12:22:25.001Z</time></trkpt><trkpt lat="42.09752587392889" lon="13.388414202503341"><ele>803.0</ele><time>2026-04-27T12:22:26.001Z</time></trkpt><trkpt lat="42.097663924349014" lon="13.388407327283348"><ele>803.0</ele><time>2026-04-27T12:22:27.001Z</time></trkpt><trkpt lat="42.09782070751724" lon="13.388471336325955"><ele>802.75</ele><time>2026-04-27T12:22:28.001Z</time></trkpt><trkpt lat="42.09795639468191" lon="13.388470484426378"><ele>802.5</ele><time>2026-04-27T12:22:29.001Z</time></trkpt><trkpt lat="42.09807823918253" lon="13.388453674016853"><ele>802.25</ele><time>2026-04-27T12:22:30.001Z</time></trkpt><trkpt lat="42.098218083231124" lon="13.388414539665188"><ele>802.0</ele><time>2026-04-27T12:22:31.001Z</time></trkpt><trkpt lat="42.098351789698164" lon="13.388373744134105"><ele>802.0</ele><time>2026-04-27T12:22:32.001Z</time></trkpt><trkpt lat="42.09847809151017" lon="13.388401685232209"><ele>802.0</ele><time>2026-04-27T12:22:33.001Z</time></trkpt><trkpt lat="42.098594887442665" lon="13.388446110439626"><ele>802.0</ele><time>2026-04-27T12:22:34.001Z</time></trkpt><trkpt lat="42.098717861382426" lon="13.388514348453995"><ele>802.0</ele><time>2026-04-27T12:22:35.001Z</time></trkpt><trkpt lat="42.09883370717391" lon="13.388583339611618"><ele>802.0</ele><time>2026-04-27T12:22:36.001Z</time></trkpt><trkpt lat="42.09897202170951" lon="13.388597553588642"><ele>802.0</ele><time>2026-04-27T12:22:37.001Z</time></trkpt><trkpt lat="42.09912523209025" lon="13.388637981615766"><ele>802.0</ele><time>2026-04-27T12:22:38.001Z</time></trkpt><trkpt lat="42.09926569885476" lon="13.388648182592625"><ele>802.0</ele><time>2026-04-27T12:22:39.001Z</time></trkpt><trkpt lat="42.099368079449576" lon="13.388588495367529"><ele>802.0</ele><time>2026-04-27T12:22:40.001Z</time></trkpt><trkpt lat="42.09949107918765" lon="13.38857104781557"><ele>802.0</ele><time>2026-04-27T12:22:41.001Z</time></trkpt><trkpt lat="42.0995702637364" lon="13.388554239513859"><ele>802.0</ele><time>2026-04-27T12:22:42.001Z</time></trkpt><trkpt lat="42.09966219690356" lon="13.388542512753341"><ele>802.0</ele><time>2026-04-27T12:22:43.001Z</time></trkpt><trkpt lat="42.099731318486505" lon="13.388522894955873"><ele>802.0</ele><time>2026-04-27T12:22:44.001Z</time></trkpt><trkpt lat="42.09986967319412" lon="13.388424986648284"><ele>804.0</ele><time>2026-04-27T12:22:46.001Z</time></trkpt><trkpt lat="42.09996219037794" lon="13.388406332898953"><ele>806.0</ele><time>2026-04-27T12:22:47.001Z</time></trkpt><trkpt lat="42.10025220617194" lon="13.388915120424844"><ele>806.0000000000001</ele><time>2026-04-27T12:22:48.001Z</time></trkpt><trkpt lat="42.1003176255568" lon="13.388854198405813"><ele>806.0</ele><time>2026-04-27T12:22:49.001Z</time></trkpt><trkpt lat="42.10037771639723" lon="13.388808916018695"><ele>806.0</ele><time>2026-04-27T12:22:51.001Z</time></trkpt><trkpt lat="42.10046728780853" lon="13.388900841857167"><ele>806.0</ele><time>2026-04-27T12:22:53.001Z</time></trkpt><trkpt lat="42.10054099198582" lon="13.388948633756463"><ele>806.0000000000001</ele><time>2026-04-27T12:22:54.001Z</time></trkpt><trkpt lat="42.100605992327004" lon="13.388989979709567"><ele>806.0</ele><time>2026-04-27T12:22:55.001Z</time></trkpt><trkpt lat="42.10067753368179" lon="13.389027839733282"><ele>806.0000000000001</ele><time>2026-04-27T12:22:56.001Z</time></trkpt><trkpt lat="42.10073729771312" lon="13.389057364878438"><ele>806.0</ele><time>2026-04-27T12:22:57.001Z</time></trkpt><trkpt lat="42.100801702566685" lon="13.389103590728457"><ele>806.0</ele><time>2026-04-27T12:22:58.001Z</time></trkpt><trkpt lat="42.10086648480829" lon="13.389153883970843"><ele>806.0</ele><time>2026-04-27T12:22:59.001Z</time></trkpt><trkpt lat="42.10093883165535" lon="13.389203175556533"><ele>806.0000000000001</ele><time>2026-04-27T12:23:00.001Z</time></trkpt><trkpt lat="42.101013027144795" lon="13.389248821024571"><ele>806.0</ele><time>2026-04-27T12:23:01.001Z</time></trkpt><trkpt lat="42.10109279759193" lon="13.38928214038728"><ele>806.1999999999999</ele><time>2026-04-27T12:23:02.001Z</time></trkpt><trkpt lat="42.101185813584806" lon="13.389308054920134"><ele>806.4</ele><time>2026-04-27T12:23:03.001Z</time></trkpt><trkpt lat="42.10128053572964" lon="13.38934113994402"><ele>806.6</ele><time>2026-04-27T12:23:04.001Z</time></trkpt><trkpt lat="42.101380403004" lon="13.389374995300104"><ele>806.8</ele><time>2026-04-27T12:23:05.001Z</time></trkpt><trkpt lat="42.101483557420856" lon="13.38941763786274"><ele>807.0</ele><time>2026-04-27T12:23:06.001Z</time></trkpt><trkpt lat="42.10157732847892" lon="13.389459645076244"><ele>807.8333333333334</ele><time>2026-04-27T12:23:07.001Z</time></trkpt><trkpt lat="42.10166755664289" lon="13.38949253080243"><ele>808.6666666666667</ele><time>2026-04-27T12:23:08.001Z</time></trkpt><trkpt lat="42.10173312628065" lon="13.389523098222"><ele>809.5</ele><time>2026-04-27T12:23:09.001Z</time></trkpt><trkpt lat="42.10180967425142" lon="13.389524345508104"><ele>810.3333333333334</ele><time>2026-04-27T12:23:10.001Z</time></trkpt><trkpt lat="42.101905676127146" lon="13.389525594006411"><ele>811.1666666666667</ele><time>2026-04-27T12:23:11.002Z</time></trkpt><trkpt lat="42.10198942665059" lon="13.389541445771295"><ele>812.0</ele><time>2026-04-27T12:23:12.002Z</time></trkpt><trkpt lat="42.102075079808785" lon="13.389565034176593"><ele>812.0</ele><time>2026-04-27T12:23:13.002Z</time></trkpt><trkpt lat="42.10215762407737" lon="13.389587074319856"><ele>812.0</ele><time>2026-04-27T12:23:14.002Z</time></trkpt><trkpt lat="42.10226183594058" lon="13.389618152886493"><ele>812.0</ele><time>2026-04-27T12:23:15.002Z</time></trkpt><trkpt lat="42.102350091817094" lon="13.389651104351943"><ele>812.0</ele><time>2026-04-27T12:23:16.002Z</time></trkpt><trkpt lat="42.10244267563039" lon="13.389672571752694"><ele>812.0</ele><time>2026-04-27T12:23:17.002Z</time></trkpt><trkpt lat="42.10255905183411" lon="13.389698281673896"><ele>812.6</ele><time>2026-04-27T12:23:18.002Z</time></trkpt><trkpt lat="42.102649206357746" lon="13.389705791373"><ele>813.2</ele><time>2026-04-27T12:23:19.002Z</time></trkpt><trkpt lat="42.10274973926832" lon="13.38970182364046"><ele>813.8</ele><time>2026-04-27T12:23:20.002Z</time></trkpt><trkpt lat="42.102853930501844" lon="13.389680270743927"><ele>814.4</ele><time>2026-04-27T12:23:21.002Z</time></trkpt><trkpt lat="42.102953152769466" lon="13.38965889923869"><ele>815.0</ele><time>2026-04-27T12:23:22.002Z</time></trkpt><trkpt lat="42.10305417590869" lon="13.389636051745073"><ele>815.8</ele><time>2026-04-27T12:23:23.002Z</time></trkpt><trkpt lat="42.10316465903226" lon="13.389617766944138"><ele>816.6</ele><time>2026-04-27T12:23:24.002Z</time></trkpt><trkpt lat="42.103285302310326" lon="13.389599066834762"><ele>817.4000000000001</ele><time>2026-04-27T12:23:25.002Z</time></trkpt><trkpt lat="42.103386012725394" lon="13.389574808006996"><ele>818.2</ele><time>2026-04-27T12:23:26.002Z</time></trkpt><trkpt lat="42.103483059884134" lon="13.389554270868796"><ele>819.0</ele><time>2026-04-27T12:23:27.002Z</time></trkpt><trkpt lat="42.10356360425024" lon="13.389529367968514"><ele>821.0</ele><time>2026-04-27T12:23:28.002Z</time></trkpt><trkpt lat="42.103635400303425" lon="13.389505392967978"><ele>823.0</ele><time>2026-04-27T12:23:29.002Z</time></trkpt><trkpt lat="42.10367105118178" lon="13.389428578695119"><ele>825.0</ele><time>2026-04-27T12:23:32.001Z</time></trkpt><trkpt lat="42.10358117219549" lon="13.38931067787524"><ele>827.0</ele><time>2026-04-27T12:23:34.001Z</time></trkpt><trkpt lat="42.103507314057204" lon="13.389190750941097"><ele>829.0</ele><time>2026-04-27T12:23:35.001Z</time></trkpt><trkpt lat="42.10344728777634" lon="13.389047010326884"><ele>829.0</ele><time>2026-04-27T12:23:36.001Z</time></trkpt><trkpt lat="42.10338787863709" lon="13.388879696666892"><ele>829.0</ele><time>2026-04-27T12:23:37.001Z</time></trkpt><trkpt lat="42.10332684909836" lon="13.388701331615152"><ele>829.0</ele><time>2026-04-27T12:23:38.001Z</time></trkpt><trkpt lat="42.103256513883764" lon="13.388517647950373"><ele>829.0</ele><time>2026-04-27T12:23:39.001Z</time></trkpt><trkpt lat="42.1031836895533" lon="13.388365693101823"><ele>828.2</ele><time>2026-04-27T12:23:40.001Z</time></trkpt><trkpt lat="42.10313281112423" lon="13.388248903897587"><ele>827.4000000000001</ele><time>2026-04-27T12:23:41.001Z</time></trkpt><trkpt lat="42.103119597073636" lon="13.388088650623217"><ele>826.6</ele><time>2026-04-27T12:23:43.001Z</time></trkpt><trkpt lat="42.10320353302933" lon="13.387947018005757"><ele>825.8</ele><time>2026-04-27T12:23:45.001Z</time></trkpt><trkpt lat="42.103210174124925" lon="13.387857525061502"><ele>825.0</ele><time>2026-04-27T12:23:46.001Z</time></trkpt><trkpt lat="42.1031782571683" lon="13.387754023100113"><ele>825.0</ele><time>2026-04-27T12:23:47.001Z</time></trkpt><trkpt lat="42.10313171600164" lon="13.387661014232254"><ele>825.0</ele><time>2026-04-27T12:23:48.001Z</time></trkpt><trkpt lat="42.103083164668526" lon="13.387540404018125"><ele>825.0</ele><time>2026-04-27T12:23:49.001Z</time></trkpt><trkpt lat="42.103031913670584" lon="13.387397481597985"><ele>825.0</ele><time>2026-04-27T12:23:50.001Z</time></trkpt><trkpt lat="42.10298736312566" lon="13.387255191687267"><ele>825.0</ele><time>2026-04-27T12:23:51.001Z</time></trkpt><trkpt lat="42.10294970249735" lon="13.387137967783161"><ele>825.0</ele><time>2026-04-27T12:23:52.001Z</time></trkpt><trkpt lat="42.10291669221959" lon="13.387046859893898"><ele>825.0</ele><time>2026-04-27T12:23:53.001Z</time></trkpt><trkpt lat="42.10295139899731" lon="13.386936640228143"><ele>825.0</ele><time>2026-04-27T12:23:55.001Z</time></trkpt><trkpt lat="42.10298761578245" lon="13.386786384952913"><ele>825.0</ele><time>2026-04-27T12:23:57.001Z</time></trkpt><trkpt lat="42.10294982622533" lon="13.38668558684572"><ele>825.0</ele><time>2026-04-27T12:23:58.001Z</time></trkpt><trkpt lat="42.10289383445808" lon="13.38658305891731"><ele>825.0</ele><time>2026-04-27T12:23:59.001Z</time></trkpt><trkpt lat="42.102824030245436" lon="13.386443840767068"><ele>825.0</ele><time>2026-04-27T12:24:00.001Z</time></trkpt><trkpt lat="42.102763278765806" lon="13.386299470039258"><ele>825.0</ele><time>2026-04-27T12:24:01.001Z</time></trkpt><trkpt lat="42.10270719799683" lon="13.38616088601286"><ele>825.0</ele><time>2026-04-27T12:24:02.001Z</time></trkpt><trkpt lat="42.10263883968431" lon="13.386024986213974"><ele>825.1666666666666</ele><time>2026-04-27T12:24:03.001Z</time></trkpt><trkpt lat="42.102571077150905" lon="13.38590052331988"><ele>825.3333333333333</ele><time>2026-04-27T12:24:04.001Z</time></trkpt><trkpt lat="42.10251632405634" lon="13.385800604448898"><ele>825.5</ele><time>2026-04-27T12:24:05.001Z</time></trkpt><trkpt lat="42.102461716433986" lon="13.385703676316375"><ele>825.6666666666666</ele><time>2026-04-27T12:24:06.001Z</time></trkpt><trkpt lat="42.10241901958405" lon="13.38562762436455"><ele>825.8333333333333</ele><time>2026-04-27T12:24:07.001Z</time></trkpt><trkpt lat="42.10237539206899" lon="13.385563141024518"><ele>826.0</ele><time>2026-04-27T12:24:08.001Z</time></trkpt><trkpt lat="42.10230747584756" lon="13.385456731386332"><ele>826.4</ele><time>2026-04-27T12:24:10.001Z</time></trkpt><trkpt lat="42.102320920696236" lon="13.385301804336832"><ele>826.8</ele><time>2026-04-27T12:24:13.001Z</time></trkpt><trkpt lat="42.102355217683865" lon="13.385216938311093"><ele>827.1999999999999</ele><time>2026-04-27T12:24:14.001Z</time></trkpt><trkpt lat="42.10241691259163" lon="13.385113063404015"><ele>827.5999999999999</ele><time>2026-04-27T12:24:15.001Z</time></trkpt><trkpt lat="42.10248771614737" lon="13.385022898391341"><ele>828.0</ele><time>2026-04-27T12:24:16.001Z</time></trkpt><trkpt lat="42.10255827447708" lon="13.384931086501462"><ele>828.0</ele><time>2026-04-27T12:24:17.001Z</time></trkpt><trkpt lat="42.10265193215123" lon="13.384816256220256"><ele>828.0</ele><time>2026-04-27T12:24:18.001Z</time></trkpt><trkpt lat="42.10273129279189" lon="13.38473799608852"><ele>828.0</ele><time>2026-04-27T12:24:19.001Z</time></trkpt><trkpt lat="42.10280035009985" lon="13.384694075864283"><ele>828.0</ele><time>2026-04-27T12:24:20.001Z</time></trkpt><trkpt lat="42.102881590005836" lon="13.384652205768875"><ele>828.0</ele><time>2026-04-27T12:24:21.001Z</time></trkpt><trkpt lat="42.102953276203486" lon="13.384582944478439"><ele>828.25</ele><time>2026-04-27T12:24:22.001Z</time></trkpt><trkpt lat="42.10302809000599" lon="13.384477620080867"><ele>828.5</ele><time>2026-04-27T12:24:23.001Z</time></trkpt><trkpt lat="42.10311407953132" lon="13.384353662806387"><ele>828.75</ele><time>2026-04-27T12:24:24.001Z</time></trkpt><trkpt lat="42.10320796789621" lon="13.384215928803485"><ele>829.0</ele><time>2026-04-27T12:24:25.001Z</time></trkpt><trkpt lat="42.103296698580934" lon="13.384079618392452"><ele>830.2</ele><time>2026-04-27T12:24:26.001Z</time></trkpt><trkpt lat="42.103361220421824" lon="13.383947611203455"><ele>831.4000000000001</ele><time>2026-04-27T12:24:27.001Z</time></trkpt><trkpt lat="42.10341603042203" lon="13.38382961929053"><ele>832.6</ele><time>2026-04-27T12:24:28.001Z</time></trkpt><trkpt lat="42.1034728151768" lon="13.383730287898272"><ele>833.8</ele><time>2026-04-27T12:24:29.001Z</time></trkpt><trkpt lat="42.103538981581636" lon="13.383653420130102"><ele>835.0</ele><time>2026-04-27T12:24:30.001Z</time></trkpt><trkpt lat="42.10363021536675" lon="13.383579486051232"><ele>835.0</ele><time>2026-04-27T12:24:31.001Z</time></trkpt><trkpt lat="42.10373901403855" lon="13.383489940506328"><ele>835.0</ele><time>2026-04-27T12:24:32.001Z</time></trkpt><trkpt lat="42.103854011627504" lon="13.383385650181275"><ele>835.0</ele><time>2026-04-27T12:24:33.001Z</time></trkpt><trkpt lat="42.10393800138088" lon="13.383288915648494"><ele>835.0</ele><time>2026-04-27T12:24:34.001Z</time></trkpt><trkpt lat="42.104015912482225" lon="13.383205550383034"><ele>837.25</ele><time>2026-04-27T12:24:35.001Z</time></trkpt><trkpt lat="42.10411464227796" lon="13.383151508231885"><ele>839.5</ele><time>2026-04-27T12:24:36.001Z</time></trkpt><trkpt lat="42.10422528540284" lon="13.383109425327353"><ele>841.75</ele><time>2026-04-27T12:24:37.001Z</time></trkpt><trkpt lat="42.104352637789425" lon="13.383051514901164"><ele>844.0</ele><time>2026-04-27T12:24:38.001Z</time></trkpt><trkpt lat="42.104485158543156" lon="13.382974295121697"><ele>844.0</ele><time>2026-04-27T12:24:39.001Z</time></trkpt><trkpt lat="42.10462384124761" lon="13.382901013633976"><ele>844.0</ele><time>2026-04-27T12:24:40.001Z</time></trkpt><trkpt lat="42.104773033210876" lon="13.382839304961161"><ele>844.0</ele><time>2026-04-27T12:24:41.001Z</time></trkpt><trkpt lat="42.10489025166831" lon="13.382787612617445"><ele>844.0</ele><time>2026-04-27T12:24:42.001Z</time></trkpt><trkpt lat="42.104991686097684" lon="13.382742513205233"><ele>845.5</ele><time>2026-04-27T12:24:43.001Z</time></trkpt><trkpt lat="42.10508828295447" lon="13.382734782771779"><ele>847.0</ele><time>2026-04-27T12:24:44.001Z</time></trkpt><trkpt lat="42.10518473105628" lon="13.38275394289632"><ele>848.5</ele><time>2026-04-27T12:24:45.001Z</time></trkpt><trkpt lat="42.10530546622416" lon="13.382787407147207"><ele>850.0</ele><time>2026-04-27T12:24:46.001Z</time></trkpt><trkpt lat="42.105445248311845" lon="13.382819099246142"><ele>850.0</ele><time>2026-04-27T12:24:47.001Z</time></trkpt><trkpt lat="42.105579526272834" lon="13.382813040391898"><ele>850.0</ele><time>2026-04-27T12:24:48.001Z</time></trkpt><trkpt lat="42.10571965357946" lon="13.382819532824847"><ele>850.0</ele><time>2026-04-27T12:24:49.001Z</time></trkpt><trkpt lat="42.105855348593835" lon="13.382848006678914"><ele>850.0</ele><time>2026-04-27T12:24:50.001Z</time></trkpt><trkpt lat="42.10599715952326" lon="13.382859251851665"><ele>851.75</ele><time>2026-04-27T12:24:51.001Z</time></trkpt><trkpt lat="42.10613807170886" lon="13.382842080821801"><ele>853.5</ele><time>2026-04-27T12:24:52.001Z</time></trkpt><trkpt lat="42.10628864295391" lon="13.382836723067097"><ele>855.25</ele><time>2026-04-27T12:24:53.001Z</time></trkpt><trkpt lat="42.106400119839776" lon="13.38283245486533"><ele>857.0</ele><time>2026-04-27T12:24:54.001Z</time></trkpt><trkpt lat="42.10649029015679" lon="13.382845774524412"><ele>857.0</ele><time>2026-04-27T12:24:55.001Z</time></trkpt><trkpt lat="42.10656772955671" lon="13.38287789494567"><ele>857.0</ele><time>2026-04-27T12:24:56.001Z</time></trkpt><trkpt lat="42.10662726273745" lon="13.38294672674847"><ele>857.0</ele><time>2026-04-27T12:24:57.001Z</time></trkpt><trkpt lat="42.106684639704085" lon="13.383063562779045"><ele>857.0</ele><time>2026-04-27T12:24:58.001Z</time></trkpt><trkpt lat="42.10673275469104" lon="13.38317517488956"><ele>857.0</ele><time>2026-04-27T12:24:59.001Z</time></trkpt><trkpt lat="42.10683976399884" lon="13.383183120266853"><ele>858.3333333333334</ele><time>2026-04-27T12:25:01.001Z</time></trkpt><trkpt lat="42.106938803027184" lon="13.383304588763451"><ele>859.6666666666667</ele><time>2026-04-27T12:25:03.001Z</time></trkpt><trkpt lat="42.1069551592322" lon="13.383416114325586"><ele>861.0</ele><time>2026-04-27T12:25:04.001Z</time></trkpt><trkpt lat="42.10697502919412" lon="13.383511094661355"><ele>862.3333333333333</ele><time>2026-04-27T12:25:05.001Z</time></trkpt><trkpt lat="42.10705493970617" lon="13.383470976083242"><ele>863.6666666666666</ele><time>2026-04-27T12:25:08.001Z</time></trkpt><trkpt lat="42.10710026241044" lon="13.383398317438639"><ele>865.0</ele><time>2026-04-27T12:25:09.001Z</time></trkpt><trkpt lat="42.107169068273166" lon="13.383317386586384"><ele>865.0</ele><time>2026-04-27T12:25:10.001Z</time></trkpt><trkpt lat="42.10726703981913" lon="13.383227390615124"><ele>865.0</ele><time>2026-04-27T12:25:11.001Z</time></trkpt><trkpt lat="42.107355125005576" lon="13.383139792006238"><ele>865.0</ele><time>2026-04-27T12:25:12.001Z</time></trkpt><trkpt lat="42.107436950904045" lon="13.383056406788258"><ele>865.0</ele><time>2026-04-27T12:25:13.001Z</time></trkpt><trkpt lat="42.10751279676151" lon="13.383018075063177"><ele>865.0</ele><time>2026-04-27T12:25:14.001Z</time></trkpt><trkpt lat="42.1075810129034" lon="13.382972993269464"><ele>867.0</ele><time>2026-04-27T12:25:15.001Z</time></trkpt><trkpt lat="42.10765680826744" lon="13.3828986844769"><ele>869.0</ele><time>2026-04-27T12:25:16.001Z</time></trkpt><trkpt lat="42.10774356431182" lon="13.382884824370148"><ele>871.0</ele><time>2026-04-27T12:25:17.001Z</time></trkpt><trkpt lat="42.10783850029954" lon="13.382879555410511"><ele>873.0</ele><time>2026-04-27T12:25:18.001Z</time></trkpt><trkpt lat="42.107953448560494" lon="13.382850998607365"><ele>875.0</ele><time>2026-04-27T12:25:19.002Z</time></trkpt><trkpt lat="42.10807723759656" lon="13.382809263089685"><ele>875.0</ele><time>2026-04-27T12:25:20.002Z</time></trkpt><trkpt lat="42.10820707113065" lon="13.38279115378941"><ele>875.0</ele><time>2026-04-27T12:25:21.002Z</time></trkpt><trkpt lat="42.10833193824023" lon="13.382783365557"><ele>875.0</ele><time>2026-04-27T12:25:22.002Z</time></trkpt><trkpt lat="42.108442411126994" lon="13.382761570225647"><ele>875.0</ele><time>2026-04-27T12:25:23.002Z</time></trkpt><trkpt lat="42.10855318437589" lon="13.382737258398674"><ele>875.6666666666667</ele><time>2026-04-27T12:25:24.002Z</time></trkpt><trkpt lat="42.108629275013385" lon="13.38272859945973"><ele>876.3333333333334</ele><time>2026-04-27T12:25:25.002Z</time></trkpt><trkpt lat="42.10871782109627" lon="13.382691887498199"><ele>877.0</ele><time>2026-04-27T12:25:26.002Z</time></trkpt><trkpt lat="42.10879757921365" lon="13.382616227694218"><ele>877.6666666666667</ele><time>2026-04-27T12:25:27.002Z</time></trkpt><trkpt lat="42.108866597822114" lon="13.382575553984411"><ele>878.3333333333334</ele><time>2026-04-27T12:25:28.002Z</time></trkpt><trkpt lat="42.10894792181263" lon="13.382557956971754"><ele>879.0</ele><time>2026-04-27T12:25:29.002Z</time></trkpt><trkpt lat="42.10901809108228" lon="13.382521678185535"><ele>880.5</ele><time>2026-04-27T12:25:30.002Z</time></trkpt><trkpt lat="42.10910527064193" lon="13.382445107570677"><ele>882.0</ele><time>2026-04-27T12:25:31.002Z</time></trkpt><trkpt lat="42.10919947129366" lon="13.38240029659167"><ele>883.5</ele><time>2026-04-27T12:25:32.002Z</time></trkpt><trkpt lat="42.10932584110376" lon="13.382351615076008"><ele>885.0</ele><time>2026-04-27T12:25:33.002Z</time></trkpt><trkpt lat="42.109456240719204" lon="13.38227523553575"><ele>885.0</ele><time>2026-04-27T12:25:34.002Z</time></trkpt><trkpt lat="42.10958067818968" lon="13.382213353562403"><ele>885.0</ele><time>2026-04-27T12:25:35.002Z</time></trkpt><trkpt lat="42.109668115285196" lon="13.382159908834216"><ele>885.0</ele><time>2026-04-27T12:25:36.001Z</time></trkpt><trkpt lat="42.10973891631688" lon="13.38208512179293"><ele>885.0</ele><time>2026-04-27T12:25:37.001Z</time></trkpt><trkpt lat="42.10979826388522" lon="13.382032647357251"><ele>885.0</ele><time>2026-04-27T12:25:38.001Z</time></trkpt><trkpt lat="42.109912361773574" lon="13.382048389622033"><ele>886.4</ele><time>2026-04-27T12:25:40.001Z</time></trkpt><trkpt lat="42.10998878014498" lon="13.382091048326924"><ele>887.8</ele><time>2026-04-27T12:25:41.001Z</time></trkpt><trkpt lat="42.110082412047525" lon="13.382140249839187"><ele>889.2</ele><time>2026-04-27T12:25:42.001Z</time></trkpt><trkpt lat="42.110171992641504" lon="13.38214353555628"><ele>890.6</ele><time>2026-04-27T12:25:43.001Z</time></trkpt><trkpt lat="42.11027440073446" lon="13.382124017197826"><ele>892.0</ele><time>2026-04-27T12:25:44.001Z</time></trkpt><trkpt lat="42.110384405805384" lon="13.382085989006265"><ele>892.0</ele><time>2026-04-27T12:25:45.001Z</time></trkpt><trkpt lat="42.110469642165256" lon="13.382042450985228"><ele>892.0</ele><time>2026-04-27T12:25:46.001Z</time></trkpt><trkpt lat="42.11055635568915" lon="13.381984989123927"><ele>892.0</ele><time>2026-04-27T12:25:48.001Z</time></trkpt><trkpt lat="42.110566206461336" lon="13.381852364647058"><ele>892.0</ele><time>2026-04-27T12:25:50.001Z</time></trkpt><trkpt lat="42.11052792338289" lon="13.38175182305783"><ele>892.0</ele><time>2026-04-27T12:25:51.001Z</time></trkpt><trkpt lat="42.1105127879552" lon="13.381616439263714"><ele>892.0</ele><time>2026-04-27T12:25:52.001Z</time></trkpt><trkpt lat="42.11051406138612" lon="13.381452409588256"><ele>892.0</ele><time>2026-04-27T12:25:53.001Z</time></trkpt><trkpt lat="42.11051177251971" lon="13.381266587887188"><ele>892.0</ele><time>2026-04-27T12:25:54.001Z</time></trkpt><trkpt lat="42.110516937592244" lon="13.381073300210186"><ele>892.0</ele><time>2026-04-27T12:25:55.001Z</time></trkpt><trkpt lat="42.110523704658036" lon="13.380868597464056"><ele>892.5</ele><time>2026-04-27T12:25:56.001Z</time></trkpt><trkpt lat="42.11052773636874" lon="13.380674350635868"><ele>893.0</ele><time>2026-04-27T12:25:57.001Z</time></trkpt><trkpt lat="42.11051081933514" lon="13.380455455613133"><ele>893.5</ele><time>2026-04-27T12:25:58.001Z</time></trkpt><trkpt lat="42.11049726805611" lon="13.38028395403517"><ele>894.0</ele><time>2026-04-27T12:25:59.001Z</time></trkpt><trkpt lat="42.110500217210515" lon="13.380178148803456"><ele>894.2</ele><time>2026-04-27T12:26:00.001Z</time></trkpt><trkpt lat="42.110528734458974" lon="13.380082868097658"><ele>894.4000000000001</ele><time>2026-04-27T12:26:02.001Z</time></trkpt><trkpt lat="42.11058830348613" lon="13.379987676764713"><ele>894.6</ele><time>2026-04-27T12:26:04.001Z</time></trkpt><trkpt lat="42.11055793857559" lon="13.37978312265487"><ele>894.8</ele><time>2026-04-27T12:26:06.001Z</time></trkpt><trkpt lat="42.11049588649307" lon="13.379641901231565"><ele>895.0</ele><time>2026-04-27T12:26:07.001Z</time></trkpt><trkpt lat="42.11040927283598" lon="13.379508260285231"><ele>896.6</ele><time>2026-04-27T12:26:08.001Z</time></trkpt><trkpt lat="42.110300622542994" lon="13.379382188763136"><ele>898.2</ele><time>2026-04-27T12:26:09.001Z</time></trkpt><trkpt lat="42.11019985243227" lon="13.379305207401343"><ele>899.8</ele><time>2026-04-27T12:26:10.001Z</time></trkpt><trkpt lat="42.1101159234294" lon="13.379276931020529"><ele>901.4</ele><time>2026-04-27T12:26:11.001Z</time></trkpt><trkpt lat="42.110034923974204" lon="13.37928109159508"><ele>903.0</ele><time>2026-04-27T12:26:12.001Z</time></trkpt><trkpt lat="42.10992672384429" lon="13.379301073957809"><ele>901.25</ele><time>2026-04-27T12:26:13.001Z</time></trkpt><trkpt lat="42.10980059581088" lon="13.379296499952778"><ele>899.5</ele><time>2026-04-27T12:26:14.001Z</time></trkpt><trkpt lat="42.109675351821785" lon="13.379269899356084"><ele>897.75</ele><time>2026-04-27T12:26:15.001Z</time></trkpt><trkpt lat="42.109541308994885" lon="13.37923777833105"><ele>896.0</ele><time>2026-04-27T12:26:16.001Z</time></trkpt><trkpt lat="42.1094188096888" lon="13.37919135930019"><ele>896.0</ele><time>2026-04-27T12:26:17.001Z</time></trkpt><trkpt lat="42.10933384789209" lon="13.379151957457026"><ele>895.9999999999999</ele><time>2026-04-27T12:26:18.001Z</time></trkpt><trkpt lat="42.109235531668936" lon="13.379071600085203"><ele>895.9999999999999</ele><time>2026-04-27T12:26:20.001Z</time></trkpt><trkpt lat="42.10921173545134" lon="13.378915315273405"><ele>896.0</ele><time>2026-04-27T12:26:22.001Z</time></trkpt><trkpt lat="42.10921985924026" lon="13.378818286737346"><ele>896.0</ele><time>2026-04-27T12:26:23.001Z</time></trkpt><trkpt lat="42.10918397155045" lon="13.378692192228234"><ele>896.75</ele><time>2026-04-27T12:26:24.001Z</time></trkpt><trkpt lat="42.109119861800885" lon="13.378534070213014"><ele>897.5</ele><time>2026-04-27T12:26:25.001Z</time></trkpt><trkpt lat="42.109043861624876" lon="13.37838639117812"><ele>898.25</ele><time>2026-04-27T12:26:26.001Z</time></trkpt><trkpt lat="42.108960227817114" lon="13.378231422440779"><ele>899.0</ele><time>2026-04-27T12:26:27.001Z</time></trkpt><trkpt lat="42.108868000150956" lon="13.37807551153045"><ele>902.25</ele><time>2026-04-27T12:26:28.001Z</time></trkpt><trkpt lat="42.10876820380672" lon="13.377942079661633"><ele>905.5</ele><time>2026-04-27T12:26:29.001Z</time></trkpt><trkpt lat="42.10866364694029" lon="13.377829514587741"><ele>908.75</ele><time>2026-04-27T12:26:30.001Z</time></trkpt><trkpt lat="42.10854097419612" lon="13.377742682263847"><ele>912.0</ele><time>2026-04-27T12:26:31.001Z</time></trkpt><trkpt lat="42.10840581572782" lon="13.37768511190557"><ele>912.0</ele><time>2026-04-27T12:26:32.001Z</time></trkpt><trkpt lat="42.10829915492566" lon="13.377627921418318"><ele>912.0</ele><time>2026-04-27T12:26:33.001Z</time></trkpt><trkpt lat="42.1082023541438" lon="13.377625830835452"><ele>912.0</ele><time>2026-04-27T12:26:34.001Z</time></trkpt><trkpt lat="42.108105641626146" lon="13.377597530762861"><ele>912.0</ele><time>2026-04-27T12:26:35.001Z</time></trkpt><trkpt lat="42.108012759983886" lon="13.37760880798675"><ele>912.0</ele><time>2026-04-27T12:26:36.001Z</time></trkpt><trkpt lat="42.1079249264104" lon="13.377626352724386"><ele>911.8</ele><time>2026-04-27T12:26:37.001Z</time></trkpt><trkpt lat="42.10782556522897" lon="13.377650141886605"><ele>911.6</ele><time>2026-04-27T12:26:38.001Z</time></trkpt><trkpt lat="42.10772431549084" lon="13.377631816774107"><ele>911.3999999999999</ele><time>2026-04-27T12:26:39.001Z</time></trkpt><trkpt lat="42.10764144510577" lon="13.377586529511241"><ele>911.1999999999999</ele><time>2026-04-27T12:26:40.001Z</time></trkpt><trkpt lat="42.10756567603156" lon="13.377530157149206"><ele>911.0</ele><time>2026-04-27T12:26:41.001Z</time></trkpt><trkpt lat="42.1074418793472" lon="13.377390068886148"><ele>911.0</ele><time>2026-04-27T12:26:42.001Z</time></trkpt><trkpt lat="42.10740223733064" lon="13.377308651320515"><ele>910.9999999999999</ele><time>2026-04-27T12:26:46.001Z</time></trkpt><trkpt lat="42.10729594481123" lon="13.377254891148208"><ele>910.9999999999999</ele><time>2026-04-27T12:26:48.001Z</time></trkpt><trkpt lat="42.107219648668085" lon="13.377227509786183"><ele>911.0</ele><time>2026-04-27T12:26:52.001Z</time></trkpt><trkpt lat="42.107131464436016" lon="13.377196599216608"><ele>911.0</ele><time>2026-04-27T12:26:54.001Z</time></trkpt><trkpt lat="42.10700924984558" lon="13.377133706899057"><ele>910.1999999999999</ele><time>2026-04-27T12:26:56.001Z</time></trkpt><trkpt lat="42.10695223045447" lon="13.377083956853598"><ele>909.3999999999999</ele><time>2026-04-27T12:26:57.001Z</time></trkpt><trkpt lat="42.10687647621337" lon="13.377006006921263"><ele>908.6</ele><time>2026-04-27T12:26:58.001Z</time></trkpt><trkpt lat="42.106809514565505" lon="13.376944700409762"><ele>907.8</ele><time>2026-04-27T12:26:59.001Z</time></trkpt><trkpt lat="42.10670431171133" lon="13.376847925213626"><ele>907.0</ele><time>2026-04-27T12:27:01.001Z</time></trkpt><trkpt lat="42.106592099812076" lon="13.376757400859777"><ele>905.3333333333333</ele><time>2026-04-27T12:27:03.001Z</time></trkpt><trkpt lat="42.10652559345845" lon="13.376719382148522"><ele>903.6666666666666</ele><time>2026-04-27T12:27:04.001Z</time></trkpt><trkpt lat="42.106437521292335" lon="13.376681994834776"><ele>902.0</ele><time>2026-04-27T12:27:05.001Z</time></trkpt><trkpt lat="42.10635258365554" lon="13.376619079053237"><ele>900.3333333333333</ele><time>2026-04-27T12:27:06.001Z</time></trkpt><trkpt lat="42.10625840589086" lon="13.376584467291611"><ele>898.6666666666666</ele><time>2026-04-27T12:27:07.001Z</time></trkpt><trkpt lat="42.10617616734961" lon="13.37656733290978"><ele>897.0</ele><time>2026-04-27T12:27:08.001Z</time></trkpt><trkpt lat="42.106111117769856" lon="13.376534206850595"><ele>897.0</ele><time>2026-04-27T12:27:09.001Z</time></trkpt><trkpt lat="42.10605089301614" lon="13.376496103726277"><ele>897.0</ele><time>2026-04-27T12:27:10.001Z</time></trkpt><trkpt lat="42.105974550558074" lon="13.376411602235502"><ele>897.0</ele><time>2026-04-27T12:27:12.001Z</time></trkpt><trkpt lat="42.1059276629386" lon="13.376281479377328"><ele>897.0</ele><time>2026-04-27T12:27:14.001Z</time></trkpt><trkpt lat="42.10582089563501" lon="13.376190100030419"><ele>897.0</ele><time>2026-04-27T12:27:16.001Z</time></trkpt><trkpt lat="42.10575649029499" lon="13.376070913994779"><ele>893.4000000000001</ele><time>2026-04-27T12:27:18.001Z</time></trkpt><trkpt lat="42.105708600959126" lon="13.375985636223385"><ele>889.8000000000001</ele><time>2026-04-27T12:27:19.001Z</time></trkpt><trkpt lat="42.10565350256796" lon="13.375888735466319"><ele>886.2</ele><time>2026-04-27T12:27:20.001Z</time></trkpt><trkpt lat="42.105570570544955" lon="13.37578011643374"><ele>882.6</ele><time>2026-04-27T12:27:21.001Z</time></trkpt><trkpt lat="42.10549296212641" lon="13.375713629967684"><ele>879.0</ele><time>2026-04-27T12:27:22.001Z</time></trkpt><trkpt lat="42.10539889652929" lon="13.375613750526426"><ele>879.6666666666666</ele><time>2026-04-27T12:27:23.001Z</time></trkpt><trkpt lat="42.105319977727895" lon="13.375520128302671"><ele>880.3333333333333</ele><time>2026-04-27T12:27:24.001Z</time></trkpt><trkpt lat="42.10527959670739" lon="13.375429312015147"><ele>881.0</ele><time>2026-04-27T12:27:25.002Z</time></trkpt><trkpt lat="42.105235316393895" lon="13.375350744986957"><ele>881.6666666666666</ele><time>2026-04-27T12:27:26.002Z</time></trkpt><trkpt lat="42.105182868164135" lon="13.375287823963943"><ele>882.3333333333333</ele><time>2026-04-27T12:27:27.002Z</time></trkpt><trkpt lat="42.105131900334406" lon="13.375220352305911"><ele>883.0</ele><time>2026-04-27T12:27:28.002Z</time></trkpt><trkpt lat="42.10506406711717" lon="13.375181153572557"><ele>883.0</ele><time>2026-04-27T12:27:29.002Z</time></trkpt><trkpt lat="42.10502774180869" lon="13.375087442697684"><ele>883.0</ele><time>2026-04-27T12:27:31.002Z</time></trkpt><trkpt lat="42.10504480401379" lon="13.37496003244759"><ele>883.0</ele><time>2026-04-27T12:27:33.002Z</time></trkpt><trkpt lat="42.10493018240905" lon="13.37482679378414"><ele>883.0</ele><time>2026-04-27T12:27:35.002Z</time></trkpt><trkpt lat="42.10486155177493" lon="13.374751213917484"><ele>883.0</ele><time>2026-04-27T12:27:36.002Z</time></trkpt><trkpt lat="42.10481859824964" lon="13.374640169973484"><ele>880.8</ele><time>2026-04-27T12:27:37.002Z</time></trkpt><trkpt lat="42.1047927036284" lon="13.374511217755229"><ele>878.5999999999999</ele><time>2026-04-27T12:27:38.002Z</time></trkpt><trkpt lat="42.10477266334561" lon="13.374421251746522"><ele>876.4000000000001</ele><time>2026-04-27T12:27:39.002Z</time></trkpt><trkpt lat="42.10469596457376" lon="13.37431962392944"><ele>874.2</ele><time>2026-04-27T12:27:41.002Z</time></trkpt><trkpt lat="42.10458407421497" lon="13.374314764657512"><ele>872.0</ele><time>2026-04-27T12:27:43.001Z</time></trkpt><trkpt lat="42.10449676651583" lon="13.374267574427643"><ele>872.0</ele><time>2026-04-27T12:27:45.001Z</time></trkpt><trkpt lat="42.10446019256809" lon="13.374173803463107"><ele>872.0</ele><time>2026-04-27T12:27:46.001Z</time></trkpt><trkpt lat="42.10440113915111" lon="13.374042955415337"><ele>872.0</ele><time>2026-04-27T12:27:47.001Z</time></trkpt><trkpt lat="42.10433180207542" lon="13.373893231377348"><ele>872.0</ele><time>2026-04-27T12:27:48.001Z</time></trkpt><trkpt lat="42.1042435238805" lon="13.373750463084864"><ele>873.0</ele><time>2026-04-27T12:27:49.001Z</time></trkpt><trkpt lat="42.10415736462568" lon="13.373644124971163"><ele>874.0</ele><time>2026-04-27T12:27:50.001Z</time></trkpt><trkpt lat="42.10407313820262" lon="13.373542175593053"><ele>875.0</ele><time>2026-04-27T12:27:51.001Z</time></trkpt><trkpt lat="42.104004549378715" lon="13.373452154449843"><ele>876.0</ele><time>2026-04-27T12:27:52.001Z</time></trkpt><trkpt lat="42.10395412187044" lon="13.373355288941818"><ele>877.0</ele><time>2026-04-27T12:27:53.001Z</time></trkpt><trkpt lat="42.10390550085987" lon="13.373260153090138"><ele>877.0</ele><time>2026-04-27T12:27:54.001Z</time></trkpt><trkpt lat="42.10382930495229" lon="13.373176281389293"><ele>877.0</ele><time>2026-04-27T12:27:55.001Z</time></trkpt><trkpt lat="42.10374055578009" lon="13.373084875896337"><ele>877.0</ele><time>2026-04-27T12:27:56.001Z</time></trkpt><trkpt lat="42.10365124415384" lon="13.37299500452741"><ele>877.0</ele><time>2026-04-27T12:27:57.001Z</time></trkpt><trkpt lat="42.1035769610747" lon="13.372889380319902"><ele>877.0</ele><time>2026-04-27T12:27:58.001Z</time></trkpt><trkpt lat="42.10351569448757" lon="13.372764689061556"><ele>876.9999999999999</ele><time>2026-04-27T12:27:59.001Z</time></trkpt><trkpt lat="42.103468998790504" lon="13.372676753334868"><ele>877.0</ele><time>2026-04-27T12:28:00.001Z</time></trkpt><trkpt lat="42.10342169454333" lon="13.372610539887573"><ele>877.0</ele><time>2026-04-27T12:28:02.001Z</time></trkpt><trkpt lat="42.10336188240315" lon="13.372557893409308"><ele>877.0</ele><time>2026-04-27T12:28:03.001Z</time></trkpt><trkpt lat="42.103311321824364" lon="13.372497816153626"><ele>876.9999999999999</ele><time>2026-04-27T12:28:04.001Z</time></trkpt><trkpt lat="42.10331311257857" lon="13.372351160817098"><ele>877.0</ele><time>2026-04-27T12:28:06.001Z</time></trkpt><trkpt lat="42.10330661971609" lon="13.37226552145795"><ele>876.9999999999999</ele><time>2026-04-27T12:28:07.001Z</time></trkpt><trkpt lat="42.103260349026314" lon="13.372205563244062"><ele>877.0</ele><time>2026-04-27T12:28:08.001Z</time></trkpt><trkpt lat="42.10319592725651" lon="13.372146006789368"><ele>877.0</ele><time>2026-04-27T12:28:09.001Z</time></trkpt><trkpt lat="42.10313819784288" lon="13.372085688586726"><ele>877.0</ele><time>2026-04-27T12:28:10.001Z</time></trkpt><trkpt lat="42.10306315664151" lon="13.37196149335975"><ele>876.9999999999999</ele><time>2026-04-27T12:28:12.001Z</time></trkpt><trkpt lat="42.1030030808905" lon="13.371917593323186"><ele>877.0</ele><time>2026-04-27T12:28:13.001Z</time></trkpt><trkpt lat="42.102939746528634" lon="13.371887337605795"><ele>874.8</ele><time>2026-04-27T12:28:14.001Z</time></trkpt><trkpt lat="42.10288466170882" lon="13.371836215173913"><ele>872.6</ele><time>2026-04-27T12:28:15.001Z</time></trkpt><trkpt lat="42.10277649608058" lon="13.371718587194747"><ele>870.3999999999999</ele><time>2026-04-27T12:28:17.001Z</time></trkpt><trkpt lat="42.10271224480971" lon="13.371639668152241"><ele>868.1999999999999</ele><time>2026-04-27T12:28:18.001Z</time></trkpt><trkpt lat="42.10266430354478" lon="13.371565085913163"><ele>866.0</ele><time>2026-04-27T12:28:19.001Z</time></trkpt><trkpt lat="42.10261676973962" lon="13.371440662307867"><ele>866.0</ele><time>2026-04-27T12:28:20.001Z</time></trkpt><trkpt lat="42.10259309376465" lon="13.371359454191984"><ele>865.9999999999999</ele><time>2026-04-27T12:28:21.001Z</time></trkpt><trkpt lat="42.1025254025853" lon="13.371316202122605"><ele>865.9999999999999</ele><time>2026-04-27T12:28:22.001Z</time></trkpt><trkpt lat="42.102443786375616" lon="13.371252039405357"><ele>866.0</ele><time>2026-04-27T12:28:23.001Z</time></trkpt><trkpt lat="42.10232052318028" lon="13.371135388914588"><ele>866.0</ele><time>2026-04-27T12:28:25.001Z</time></trkpt><trkpt lat="42.102247720364275" lon="13.371077646361842"><ele>862.8</ele><time>2026-04-27T12:28:26.001Z</time></trkpt><trkpt lat="42.102133328503626" lon="13.370978166049163"><ele>859.5999999999999</ele><time>2026-04-27T12:28:28.001Z</time></trkpt><trkpt lat="42.102079567631804" lon="13.370916343583179"><ele>856.4</ele><time>2026-04-27T12:28:29.001Z</time></trkpt><trkpt lat="42.10201900733827" lon="13.370870106523455"><ele>853.2</ele><time>2026-04-27T12:28:30.001Z</time></trkpt><trkpt lat="42.10195066800692" lon="13.370836877325987"><ele>850.0</ele><time>2026-04-27T12:28:31.001Z</time></trkpt><trkpt lat="42.101857435289865" lon="13.370735884736792"><ele>850.0</ele><time>2026-04-27T12:28:33.001Z</time></trkpt><trkpt lat="42.10174883195752" lon="13.370681391584903"><ele>850.0</ele><time>2026-04-27T12:28:35.001Z</time></trkpt><trkpt lat="42.10166394123014" lon="13.370599761139518"><ele>850.0</ele><time>2026-04-27T12:28:37.001Z</time></trkpt><trkpt lat="42.101575124364295" lon="13.37050502421477"><ele>850.0</ele><time>2026-04-27T12:28:39.001Z</time></trkpt><trkpt lat="42.101491079768486" lon="13.370551997949361"><ele>850.0</ele><time>2026-04-27T12:28:41.001Z</time></trkpt><trkpt lat="42.10139228285365" lon="13.370551322747964"><ele>846.3333333333333</ele><time>2026-04-27T12:28:43.001Z</time></trkpt><trkpt lat="42.10129298081498" lon="13.370506662054243"><ele>842.6666666666666</ele><time>2026-04-27T12:28:45.001Z</time></trkpt><trkpt lat="42.1012033456062" lon="13.370515375740444"><ele>839.0</ele><time>2026-04-27T12:28:47.001Z</time></trkpt><trkpt lat="42.10113919320237" lon="13.370551656880643"><ele>835.3333333333333</ele><time>2026-04-27T12:28:49.001Z</time></trkpt><trkpt lat="42.10106932943241" lon="13.370625440540781"><ele>831.6666666666666</ele><time>2026-04-27T12:28:51.001Z</time></trkpt><trkpt lat="42.10098927701942" lon="13.370683954681468"><ele>828.0</ele><time>2026-04-27T12:28:53.001Z</time></trkpt><trkpt lat="42.10093021832897" lon="13.370728528638427"><ele>828.0</ele><time>2026-04-27T12:28:55.001Z</time></trkpt><trkpt lat="42.10084097548938" lon="13.370692793830743"><ele>828.0</ele><time>2026-04-27T12:28:57.001Z</time></trkpt><trkpt lat="42.100790066902846" lon="13.370639097537998"><ele>828.0</ele><time>2026-04-27T12:28:58.001Z</time></trkpt><trkpt lat="42.10072872264107" lon="13.370588628703649"><ele>828.0</ele><time>2026-04-27T12:28:59.001Z</time></trkpt><trkpt lat="42.10066655900368" lon="13.370544101112726"><ele>828.0</ele><time>2026-04-27T12:29:00.001Z</time></trkpt><trkpt lat="42.10057491373489" lon="13.370475351688546"><ele>828.0</ele><time>2026-04-27T12:29:02.001Z</time></trkpt><trkpt lat="42.100476396301055" lon="13.370449106735245"><ele>826.1666666666666</ele><time>2026-04-27T12:29:05.001Z</time></trkpt><trkpt lat="42.10038863802602" lon="13.370482589305853"><ele>824.3333333333333</ele><time>2026-04-27T12:29:07.001Z</time></trkpt><trkpt lat="42.100327837344295" lon="13.370516920257224"><ele>822.5</ele><time>2026-04-27T12:29:08.001Z</time></trkpt><trkpt lat="42.10026385737098" lon="13.370589462620757"><ele>820.6666666666666</ele><time>2026-04-27T12:29:10.001Z</time></trkpt><trkpt lat="42.10016445553875" lon="13.370533480540336"><ele>818.8333333333333</ele><time>2026-04-27T12:29:13.001Z</time></trkpt><trkpt lat="42.100106973539255" lon="13.37048893236573"><ele>817.0</ele><time>2026-04-27T12:29:14.001Z</time></trkpt><trkpt lat="42.10002515226412" lon="13.370424747817074"><ele>817.0</ele><time>2026-04-27T12:29:15.001Z</time></trkpt><trkpt lat="42.099943827311485" lon="13.37034786271184"><ele>817.0</ele><time>2026-04-27T12:29:16.001Z</time></trkpt><trkpt lat="42.09986042950279" lon="13.370280381001852"><ele>817.0</ele><time>2026-04-27T12:29:17.001Z</time></trkpt><trkpt lat="42.09977231238023" lon="13.370208784651366"><ele>817.0</ele><time>2026-04-27T12:29:18.001Z</time></trkpt><trkpt lat="42.09969624562605" lon="13.370128073445137"><ele>817.0</ele><time>2026-04-27T12:29:19.001Z</time></trkpt><trkpt lat="42.0996130683596" lon="13.37005203174339"><ele>814.0</ele><time>2026-04-27T12:29:20.001Z</time></trkpt><trkpt lat="42.099548055226464" lon="13.369971515848867"><ele>811.0</ele><time>2026-04-27T12:29:21.001Z</time></trkpt><trkpt lat="42.0994744265924" lon="13.369875865322777"><ele>808.0</ele><time>2026-04-27T12:29:22.001Z</time></trkpt><trkpt lat="42.099387484359816" lon="13.36975662494238"><ele>805.0</ele><time>2026-04-27T12:29:23.001Z</time></trkpt><trkpt lat="42.0993097399125" lon="13.36964797461644"><ele>802.0</ele><time>2026-04-27T12:29:24.001Z</time></trkpt><trkpt lat="42.09924164628425" lon="13.369555903043793"><ele>802.0</ele><time>2026-04-27T12:29:25.001Z</time></trkpt><trkpt lat="42.09916589845421" lon="13.369474011024936"><ele>802.0</ele><time>2026-04-27T12:29:26.001Z</time></trkpt><trkpt lat="42.099078230032006" lon="13.369395340416776"><ele>802.0</ele><time>2026-04-27T12:29:27.001Z</time></trkpt><trkpt lat="42.09900656621356" lon="13.369297549284374"><ele>802.0</ele><time>2026-04-27T12:29:28.001Z</time></trkpt><trkpt lat="42.098930662342234" lon="13.369207542214124"><ele>802.0</ele><time>2026-04-27T12:29:29.001Z</time></trkpt><trkpt lat="42.09885919462415" lon="13.369132636758152"><ele>801.6</ele><time>2026-04-27T12:29:30.001Z</time></trkpt><trkpt lat="42.09880170271153" lon="13.369078412611875"><ele>801.2</ele><time>2026-04-27T12:29:31.001Z</time></trkpt><trkpt lat="42.09873869677715" lon="13.369005803580764"><ele>800.8</ele><time>2026-04-27T12:29:32.001Z</time></trkpt><trkpt lat="42.09867983193941" lon="13.368951388260571"><ele>800.4</ele><time>2026-04-27T12:29:33.001Z</time></trkpt><trkpt lat="42.09858408904116" lon="13.368902464775687"><ele>800.0</ele><time>2026-04-27T12:29:34.001Z</time></trkpt><trkpt lat="42.098467329824835" lon="13.368834960862133"><ele>800.0</ele><time>2026-04-27T12:29:35.001Z</time></trkpt><trkpt lat="42.098358463704415" lon="13.368765998226003"><ele>800.0</ele><time>2026-04-27T12:29:36.001Z</time></trkpt><trkpt lat="42.09825522383034" lon="13.368716096685151"><ele>800.0</ele><time>2026-04-27T12:29:37.001Z</time></trkpt><trkpt lat="42.098168254096656" lon="13.368664834416148"><ele>800.0</ele><time>2026-04-27T12:29:38.001Z</time></trkpt><trkpt lat="42.098068576735194" lon="13.368617686997814"><ele>800.0</ele><time>2026-04-27T12:29:39.001Z</time></trkpt><trkpt lat="42.097955105599" lon="13.36856563046064"><ele>797.2</ele><time>2026-04-27T12:29:40.001Z</time></trkpt><trkpt lat="42.097849933922994" lon="13.368522007967956"><ele>794.4</ele><time>2026-04-27T12:29:41.001Z</time></trkpt><trkpt lat="42.09776005931671" lon="13.368485673437824"><ele>791.5999999999999</ele><time>2026-04-27T12:29:42.002Z</time></trkpt><trkpt lat="42.09766956392134" lon="13.368436369733109"><ele>788.8</ele><time>2026-04-27T12:29:43.002Z</time></trkpt><trkpt lat="42.09758222873116" lon="13.368395985810674"><ele>786.0</ele><time>2026-04-27T12:29:44.002Z</time></trkpt><trkpt lat="42.09749149091294" lon="13.368374533103303"><ele>783.3333333333334</ele><time>2026-04-27T12:29:45.002Z</time></trkpt><trkpt lat="42.09741689947657" lon="13.36835821782493"><ele>780.6666666666667</ele><time>2026-04-27T12:29:46.002Z</time></trkpt><trkpt lat="42.097321888679176" lon="13.368328590745033"><ele>778.0</ele><time>2026-04-27T12:29:47.002Z</time></trkpt><trkpt lat="42.097239271152375" lon="13.36830698606559"><ele>775.3333333333334</ele><time>2026-04-27T12:29:48.001Z</time></trkpt><trkpt lat="42.097156412819814" lon="13.368273295527326"><ele>772.6666666666667</ele><time>2026-04-27T12:29:49.001Z</time></trkpt><trkpt lat="42.097080613848846" lon="13.368239491589181"><ele>770.0</ele><time>2026-04-27T12:29:50.001Z</time></trkpt><trkpt lat="42.09699672535749" lon="13.368193645587231"><ele>770.0</ele><time>2026-04-27T12:29:51.001Z</time></trkpt><trkpt lat="42.09691219384701" lon="13.368142161511518"><ele>770.0</ele><time>2026-04-27T12:29:52.001Z</time></trkpt><trkpt lat="42.09683276773106" lon="13.368081306680134"><ele>770.0</ele><time>2026-04-27T12:29:53.001Z</time></trkpt><trkpt lat="42.096744853022535" lon="13.368009789471033"><ele>770.0</ele><time>2026-04-27T12:29:54.001Z</time></trkpt><trkpt lat="42.09667851283262" lon="13.367930504115874"><ele>770.0</ele><time>2026-04-27T12:29:55.001Z</time></trkpt><trkpt lat="42.09662231325944" lon="13.367858262482047"><ele>767.1666666666667</ele><time>2026-04-27T12:29:56.001Z</time></trkpt><trkpt lat="42.09656546694557" lon="13.367787169294447"><ele>764.3333333333334</ele><time>2026-04-27T12:29:57.001Z</time></trkpt><trkpt lat="42.09651288446059" lon="13.367733881086837"><ele>761.5</ele><time>2026-04-27T12:29:58.001Z</time></trkpt><trkpt lat="42.09640824292456" lon="13.367637001821313"><ele>758.6666666666667</ele><time>2026-04-27T12:30:00Z</time></trkpt><trkpt lat="42.09636190968981" lon="13.36756903724382"><ele>755.8333333333334</ele><time>2026-04-27T12:30:01Z</time></trkpt><trkpt lat="42.0963238009304" lon="13.367489125563193"><ele>753.0</ele><time>2026-04-27T12:30:02Z</time></trkpt><trkpt lat="42.09620869371563" lon="13.367377225085233"><ele>753.0</ele><time>2026-04-27T12:30:04Z</time></trkpt><trkpt lat="42.09612526499436" lon="13.3672785047824"><ele>753.0</ele><time>2026-04-27T12:30:06Z</time></trkpt><trkpt lat="42.095991839993054" lon="13.367200314117724"><ele>753.0</ele><time>2026-04-27T12:30:08Z</time></trkpt><trkpt lat="42.09594237102304" lon="13.367143536547813"><ele>753.0</ele><time>2026-04-27T12:30:09Z</time></trkpt><trkpt lat="42.09586812749758" lon="13.367130733641462"><ele>753.0</ele><time>2026-04-27T12:30:10Z</time></trkpt><trkpt lat="42.09580728352556" lon="13.36709265422399"><ele>749.4</ele><time>2026-04-27T12:30:11Z</time></trkpt><trkpt lat="42.09569538660803" lon="13.36705466363588"><ele>745.8</ele><time>2026-04-27T12:30:12Z</time></trkpt><trkpt lat="42.09558759769412" lon="13.367015272497685"><ele>742.2</ele><time>2026-04-27T12:30:13Z</time></trkpt><trkpt lat="42.09548044510939" lon="13.366992570491764"><ele>738.6</ele><time>2026-04-27T12:30:14.001Z</time></trkpt><trkpt lat="42.095388950844914" lon="13.366926242772438"><ele>735.0</ele><time>2026-04-27T12:30:15.001Z</time></trkpt><trkpt lat="42.095293286954565" lon="13.366873973305797"><ele>735.0</ele><time>2026-04-27T12:30:16.001Z</time></trkpt><trkpt lat="42.095194062099274" lon="13.366818003499924"><ele>735.0</ele><time>2026-04-27T12:30:17.001Z</time></trkpt><trkpt lat="42.09509465213054" lon="13.366764966019987"><ele>735.0</ele><time>2026-04-27T12:30:18.001Z</time></trkpt><trkpt lat="42.095001371474766" lon="13.366716716408776"><ele>735.0</ele><time>2026-04-27T12:30:19.001Z</time></trkpt><trkpt lat="42.094905765693866" lon="13.366676800694705"><ele>735.0</ele><time>2026-04-27T12:30:20.001Z</time></trkpt><trkpt lat="42.094803611316934" lon="13.366653727714246"><ele>734.8333333333334</ele><time>2026-04-27T12:30:21.001Z</time></trkpt><trkpt lat="42.09471255247678" lon="13.366649680196385"><ele>734.6666666666666</ele><time>2026-04-27T12:30:22.001Z</time></trkpt><trkpt lat="42.09464244299063" lon="13.366634065825016"><ele>734.5</ele><time>2026-04-27T12:30:23.001Z</time></trkpt><trkpt lat="42.0945432607976" lon="13.366601882891361"><ele>734.3333333333333</ele><time>2026-04-27T12:30:24.001Z</time></trkpt><trkpt lat="42.09448265305678" lon="13.366511785466276"><ele>734.1666666666666</ele><time>2026-04-27T12:30:25.001Z</time></trkpt><trkpt lat="42.094415461555144" lon="13.366433737970727"><ele>734.0</ele><time>2026-04-27T12:30:26.001Z</time></trkpt><trkpt lat="42.09434957915778" lon="13.366369104453675"><ele>733.25</ele><time>2026-04-27T12:30:27.001Z</time></trkpt><trkpt lat="42.0943099380212" lon="13.366292570408081"><ele>732.5</ele><time>2026-04-27T12:30:28.001Z</time></trkpt><trkpt lat="42.094270074707715" lon="13.366200618923544"><ele>731.75</ele><time>2026-04-27T12:30:30.001Z</time></trkpt><trkpt lat="42.094437874297526" lon="13.365987373005458"><ele>731.0</ele><time>2026-04-27T12:30:32.001Z</time></trkpt><trkpt lat="42.094524182806374" lon="13.36586581840751"><ele>731.0</ele><time>2026-04-27T12:30:33.001Z</time></trkpt><trkpt lat="42.09460321225251" lon="13.365727538986926"><ele>731.0</ele><time>2026-04-27T12:30:34.001Z</time></trkpt><trkpt lat="42.09470642044941" lon="13.365599142928717"><ele>731.0</ele><time>2026-04-27T12:30:35.001Z</time></trkpt><trkpt lat="42.094808109723544" lon="13.36546232756178"><ele>731.0</ele><time>2026-04-27T12:30:36.001Z</time></trkpt><trkpt lat="42.09490583394917" lon="13.365332142890416"><ele>730.5</ele><time>2026-04-27T12:30:37.001Z</time></trkpt><trkpt lat="42.094996120367774" lon="13.365204004204145"><ele>730.0</ele><time>2026-04-27T12:30:38.001Z</time></trkpt><trkpt lat="42.09507973834425" lon="13.365083757650702"><ele>729.5</ele><time>2026-04-27T12:30:39.001Z</time></trkpt><trkpt lat="42.09516106594857" lon="13.364956811180267"><ele>729.0</ele><time>2026-04-27T12:30:40.001Z</time></trkpt><trkpt lat="42.09524628060281" lon="13.36483089305087"><ele>729.0</ele><time>2026-04-27T12:30:41.001Z</time></trkpt><trkpt lat="42.095326200208255" lon="13.364713191972555"><ele>729.0</ele><time>2026-04-27T12:30:42.001Z</time></trkpt><trkpt lat="42.095399454967804" lon="13.364599660661032"><ele>729.0</ele><time>2026-04-27T12:30:43.001Z</time></trkpt><trkpt lat="42.095480281848104" lon="13.36449924156294"><ele>729.0</ele><time>2026-04-27T12:30:44.001Z</time></trkpt><trkpt lat="42.09557320598378" lon="13.364392143629413"><ele>728.75</ele><time>2026-04-27T12:30:45.001Z</time></trkpt><trkpt lat="42.09568007531453" lon="13.36427225630253"><ele>728.5</ele><time>2026-04-27T12:30:46.001Z</time></trkpt><trkpt lat="42.0957813023953" lon="13.364145063519125"><ele>728.25</ele><time>2026-04-27T12:30:47.001Z</time></trkpt><trkpt lat="42.09588066812354" lon="13.36397787261893"><ele>728.0</ele><time>2026-04-27T12:30:48.001Z</time></trkpt><trkpt lat="42.09598723757656" lon="13.363842150334996"><ele>726.5</ele><time>2026-04-27T12:30:49.001Z</time></trkpt><trkpt lat="42.096085567492004" lon="13.363691728977996"><ele>725.0</ele><time>2026-04-27T12:30:50.001Z</time></trkpt><trkpt lat="42.09617759518805" lon="13.363532049472449"><ele>723.5</ele><time>2026-04-27T12:30:51.001Z</time></trkpt><trkpt lat="42.09627729044309" lon="13.363380384197196"><ele>722.0</ele><time>2026-04-27T12:30:52.001Z</time></trkpt><trkpt lat="42.096379600851606" lon="13.36321687355792"><ele>722.0</ele><time>2026-04-27T12:30:53.001Z</time></trkpt><trkpt lat="42.09648308138502" lon="13.363059293478306"><ele>722.0</ele><time>2026-04-27T12:30:54.001Z</time></trkpt><trkpt lat="42.09658471512463" lon="13.362902490135909"><ele>722.0</ele><time>2026-04-27T12:30:55.001Z</time></trkpt><trkpt lat="42.09670351495821" lon="13.362731942385363"><ele>720.0</ele><time>2026-04-27T12:30:56.001Z</time></trkpt><trkpt lat="42.09681043536533" lon="13.36256712343254"><ele>718.0</ele><time>2026-04-27T12:30:57.001Z</time></trkpt><trkpt lat="42.09692658499948" lon="13.36239688508537"><ele>716.0</ele><time>2026-04-27T12:30:58.001Z</time></trkpt><trkpt lat="42.097039647712" lon="13.362224874280132"><ele>715.6666666666666</ele><time>2026-04-27T12:30:59.001Z</time></trkpt><trkpt lat="42.09715664325038" lon="13.362046596630352"><ele>715.3333333333334</ele><time>2026-04-27T12:31:00.001Z</time></trkpt><trkpt lat="42.09726696339603" lon="13.361877390904906"><ele>715.0</ele><time>2026-04-27T12:31:01.001Z</time></trkpt><trkpt lat="42.09738776440188" lon="13.361700935524416"><ele>714.6666666666667</ele><time>2026-04-27T12:31:02.001Z</time></trkpt><trkpt lat="42.09749892882528" lon="13.361538373504114"><ele>714.3333333333334</ele><time>2026-04-27T12:31:03.001Z</time></trkpt><trkpt lat="42.09760352434631" lon="13.361372479204167"><ele>714.0</ele><time>2026-04-27T12:31:04.001Z</time></trkpt><trkpt lat="42.09770868049543" lon="13.361223183364729"><ele>714.0</ele><time>2026-04-27T12:31:05.001Z</time></trkpt><trkpt lat="42.097807013133135" lon="13.361067013286496"><ele>714.0</ele><time>2026-04-27T12:31:06.001Z</time></trkpt><trkpt lat="42.09790582560488" lon="13.360905327540516"><ele>714.0</ele><time>2026-04-27T12:31:07.001Z</time></trkpt><trkpt lat="42.09802254878224" lon="13.360742590774493"><ele>714.0</ele><time>2026-04-27T12:31:08.001Z</time></trkpt><trkpt lat="42.098134472283476" lon="13.360591857905613"><ele>714.0</ele><time>2026-04-27T12:31:09.001Z</time></trkpt><trkpt lat="42.09824873448382" lon="13.360432014409609"><ele>714.0</ele><time>2026-04-27T12:31:10.001Z</time></trkpt><trkpt lat="42.098370228783196" lon="13.360278828215234"><ele>712.3333333333334</ele><time>2026-04-27T12:31:11.001Z</time></trkpt><trkpt lat="42.09850331072377" lon="13.360124857899411"><ele>710.6666666666667</ele><time>2026-04-27T12:31:12.001Z</time></trkpt><trkpt lat="42.09862608933915" lon="13.35997291938882"><ele>709.0</ele><time>2026-04-27T12:31:13.001Z</time></trkpt><trkpt lat="42.09874971113488" lon="13.359827229262992"><ele>708.6666666666667</ele><time>2026-04-27T12:31:14.001Z</time></trkpt><trkpt lat="42.09887854460251" lon="13.35969114598012"><ele>708.3333333333334</ele><time>2026-04-27T12:31:15.001Z</time></trkpt><trkpt lat="42.09901269975972" lon="13.359549386541762"><ele>708.0</ele><time>2026-04-27T12:31:16.001Z</time></trkpt><trkpt lat="42.09913778967176" lon="13.359401518568934"><ele>708.0</ele><time>2026-04-27T12:31:17.001Z</time></trkpt><trkpt lat="42.099255918675595" lon="13.359255130744149"><ele>708.0</ele><time>2026-04-27T12:31:18.001Z</time></trkpt><trkpt lat="42.0993822311899" lon="13.359104260285873"><ele>708.0</ele><time>2026-04-27T12:31:19.001Z</time></trkpt><trkpt lat="42.099493167763576" lon="13.358949852326967"><ele>708.0</ele><time>2026-04-27T12:31:20.001Z</time></trkpt><trkpt lat="42.099613341245835" lon="13.358803731153367"><ele>708.0</ele><time>2026-04-27T12:31:21.001Z</time></trkpt><trkpt lat="42.099719500200244" lon="13.358641965695133"><ele>708.0</ele><time>2026-04-27T12:31:22.001Z</time></trkpt><trkpt lat="42.09984033058381" lon="13.358489326671076"><ele>708.6666666666666</ele><time>2026-04-27T12:31:23.001Z</time></trkpt><trkpt lat="42.09994907130795" lon="13.358342481103621"><ele>709.3333333333333</ele><time>2026-04-27T12:31:24.001Z</time></trkpt><trkpt lat="42.10007776564091" lon="13.358199585494571"><ele>710.0</ele><time>2026-04-27T12:31:25.001Z</time></trkpt><trkpt lat="42.100202884800304" lon="13.358069727173124"><ele>709.6666666666666</ele><time>2026-04-27T12:31:26.001Z</time></trkpt><trkpt lat="42.1003365980568" lon="13.357931939376087"><ele>709.3333333333334</ele><time>2026-04-27T12:31:27.001Z</time></trkpt><trkpt lat="42.100463422637276" lon="13.35779932205416"><ele>709.0</ele><time>2026-04-27T12:31:28.001Z</time></trkpt><trkpt lat="42.10060407722612" lon="13.357669300339634"><ele>709.0</ele><time>2026-04-27T12:31:29.001Z</time></trkpt><trkpt lat="42.100728874618866" lon="13.35753041995637"><ele>709.0</ele><time>2026-04-27T12:31:30.001Z</time></trkpt><trkpt lat="42.100843527076414" lon="13.35739762522992"><ele>709.0</ele><time>2026-04-27T12:31:31.001Z</time></trkpt><trkpt lat="42.100946825698486" lon="13.35726584735476"><ele>709.25</ele><time>2026-04-27T12:31:32.001Z</time></trkpt><trkpt lat="42.1010742175613" lon="13.357175909663002"><ele>709.5</ele><time>2026-04-27T12:31:33.001Z</time></trkpt><trkpt lat="42.101195777116345" lon="13.357079560250996"><ele>709.75</ele><time>2026-04-27T12:31:34.001Z</time></trkpt><trkpt lat="42.101327642157344" lon="13.35696369706085"><ele>710.0</ele><time>2026-04-27T12:31:35.001Z</time></trkpt><trkpt lat="42.10146021756367" lon="13.356864845082185"><ele>711.6666666666666</ele><time>2026-04-27T12:31:36.001Z</time></trkpt><trkpt lat="42.101584916081784" lon="13.356743639334882"><ele>713.3333333333334</ele><time>2026-04-27T12:31:37.001Z</time></trkpt><trkpt lat="42.10169984710152" lon="13.356602168247022"><ele>715.0</ele><time>2026-04-27T12:31:38.001Z</time></trkpt><trkpt lat="42.10182302980932" lon="13.356473259209944"><ele>714.3333333333334</ele><time>2026-04-27T12:31:39.001Z</time></trkpt><trkpt lat="42.1019482399843" lon="13.356330474736243"><ele>713.6666666666666</ele><time>2026-04-27T12:31:40.001Z</time></trkpt><trkpt lat="42.102068245866846" lon="13.356184656223554"><ele>713.0</ele><time>2026-04-27T12:31:41.001Z</time></trkpt><trkpt lat="42.10218833683976" lon="13.356018871019431"><ele>713.0</ele><time>2026-04-27T12:31:42.001Z</time></trkpt><trkpt lat="42.102293701482154" lon="13.355841782626708"><ele>713.0</ele><time>2026-04-27T12:31:43.001Z</time></trkpt><trkpt lat="42.10241973922032" lon="13.35567551347586"><ele>713.0</ele><time>2026-04-27T12:31:44.001Z</time></trkpt><trkpt lat="42.10253967270826" lon="13.355515131904388"><ele>713.0</ele><time>2026-04-27T12:31:45.001Z</time></trkpt><trkpt lat="42.102667600124875" lon="13.355350383789435"><ele>713.0</ele><time>2026-04-27T12:31:46.001Z</time></trkpt><trkpt lat="42.10279803188155" lon="13.355187636545836"><ele>713.0</ele><time>2026-04-27T12:31:47.001Z</time></trkpt><trkpt lat="42.10292510386813" lon="13.355025612062153"><ele>713.0</ele><time>2026-04-27T12:31:48.001Z</time></trkpt><trkpt lat="42.10305066724872" lon="13.354867993517393"><ele>713.0</ele><time>2026-04-27T12:31:49.001Z</time></trkpt><trkpt lat="42.10317881567121" lon="13.354706453819507"><ele>713.0</ele><time>2026-04-27T12:31:50.001Z</time></trkpt><trkpt lat="42.1033087417162" lon="13.3545427130121"><ele>716.3333333333333</ele><time>2026-04-27T12:31:51.001Z</time></trkpt><trkpt lat="42.10342846974161" lon="13.35438134320179"><ele>719.6666666666666</ele><time>2026-04-27T12:31:52.001Z</time></trkpt><trkpt lat="42.10355101898564" lon="13.354215436146266"><ele>723.0</ele><time>2026-04-27T12:31:53Z</time></trkpt><trkpt lat="42.10367470225484" lon="13.354049682662955"><ele>723.0</ele><time>2026-04-27T12:31:54Z</time></trkpt><trkpt lat="42.103791474741456" lon="13.353888581807066"><ele>723.0</ele><time>2026-04-27T12:31:55Z</time></trkpt><trkpt lat="42.10391257128443" lon="13.353730813602239"><ele>723.0</ele><time>2026-04-27T12:31:56Z</time></trkpt><trkpt lat="42.104024498006204" lon="13.353573946115988"><ele>725.3333333333334</ele><time>2026-04-27T12:31:57Z</time></trkpt><trkpt lat="42.10414185381494" lon="13.353420019875998"><ele>727.6666666666667</ele><time>2026-04-27T12:31:58Z</time></trkpt><trkpt lat="42.10427353828197" lon="13.353277827235143"><ele>730.0</ele><time>2026-04-27T12:31:59Z</time></trkpt><trkpt lat="42.104399467461526" lon="13.353159185202202"><ele>730.0</ele><time>2026-04-27T12:32:00Z</time></trkpt><trkpt lat="42.104554722104645" lon="13.35305950125749"><ele>730.0</ele><time>2026-04-27T12:32:01Z</time></trkpt><trkpt lat="42.104690652276126" lon="13.352940361046697"><ele>730.0</ele><time>2026-04-27T12:32:02Z</time></trkpt><trkpt lat="42.10483475018787" lon="13.352827474582478"><ele>733.3333333333334</ele><time>2026-04-27T12:32:03Z</time></trkpt><trkpt lat="42.1049783396575" lon="13.352709563415077"><ele>736.6666666666666</ele><time>2026-04-27T12:32:04Z</time></trkpt><trkpt lat="42.105121680680455" lon="13.352595578720834"><ele>740.0</ele><time>2026-04-27T12:32:05Z</time></trkpt><trkpt lat="42.105266981116316" lon="13.352474737441328"><ele>740.0</ele><time>2026-04-27T12:32:06Z</time></trkpt><trkpt lat="42.10541594650858" lon="13.35235876946748"><ele>740.0</ele><time>2026-04-27T12:32:07Z</time></trkpt><trkpt lat="42.10556393779541" lon="13.352238636693844"><ele>740.0</ele><time>2026-04-27T12:32:08Z</time></trkpt><trkpt lat="42.10570886570604" lon="13.352117582936543"><ele>741.3333333333333</ele><time>2026-04-27T12:32:09Z</time></trkpt><trkpt lat="42.10585875181392" lon="13.35200353269283"><ele>742.6666666666666</ele><time>2026-04-27T12:32:10Z</time></trkpt><trkpt lat="42.10600252932785" lon="13.35188114751309"><ele>744.0</ele><time>2026-04-27T12:32:11Z</time></trkpt><trkpt lat="42.10613949694747" lon="13.35175702568137"><ele>744.0</ele><time>2026-04-27T12:32:12Z</time></trkpt><trkpt lat="42.106268785386355" lon="13.351643574496988"><ele>744.0</ele><time>2026-04-27T12:32:13Z</time></trkpt><trkpt lat="42.10638442934143" lon="13.35155329038024"><ele>744.0</ele><time>2026-04-27T12:32:14Z</time></trkpt><trkpt lat="42.10649502402197" lon="13.35148128017239"><ele>744.0</ele><time>2026-04-27T12:32:15Z</time></trkpt><trkpt lat="42.106614225516495" lon="13.351442322572803"><ele>744.6</ele><time>2026-04-27T12:32:16Z</time></trkpt><trkpt lat="42.106731865889834" lon="13.35137645467832"><ele>745.2</ele><time>2026-04-27T12:32:17Z</time></trkpt><trkpt lat="42.106837000279626" lon="13.351331604934037"><ele>745.8000000000001</ele><time>2026-04-27T12:32:18Z</time></trkpt><trkpt lat="42.10690959453494" lon="13.351292022597308"><ele>746.4000000000001</ele><time>2026-04-27T12:32:19Z</time></trkpt><trkpt lat="42.10695878982226" lon="13.351235217699683"><ele>747.0</ele><time>2026-04-27T12:32:20Z</time></trkpt><trkpt lat="42.106988370093475" lon="13.351136810967544"><ele>747.0</ele><time>2026-04-27T12:32:21Z</time></trkpt><trkpt lat="42.10700408271715" lon="13.351008655573606"><ele>747.0</ele><time>2026-04-27T12:32:22Z</time></trkpt><trkpt lat="42.10702412299432" lon="13.350865582826941"><ele>747.0</ele><time>2026-04-27T12:32:23Z</time></trkpt><trkpt lat="42.107049061511226" lon="13.350725285492118"><ele>747.0</ele><time>2026-04-27T12:32:24Z</time></trkpt><trkpt lat="42.10707202838608" lon="13.350589345987759"><ele>747.0</ele><time>2026-04-27T12:32:25Z</time></trkpt><trkpt lat="42.107093283486535" lon="13.350453231501936"><ele>747.4000000000001</ele><time>2026-04-27T12:32:26Z</time></trkpt><trkpt lat="42.10711355769018" lon="13.350324269416998"><ele>747.8000000000001</ele><time>2026-04-27T12:32:27Z</time></trkpt><trkpt lat="42.10713441811418" lon="13.350204857475227"><ele>748.2</ele><time>2026-04-27T12:32:28Z</time></trkpt><trkpt lat="42.10716232637675" lon="13.350095887952836"><ele>748.6</ele><time>2026-04-27T12:32:29Z</time></trkpt><trkpt lat="42.10722225835135" lon="13.34998454776688"><ele>749.0</ele><time>2026-04-27T12:32:30Z</time></trkpt><trkpt lat="42.107297548602205" lon="13.349875067966344"><ele>749.0</ele><time>2026-04-27T12:32:31Z</time></trkpt><trkpt lat="42.10738420025931" lon="13.34975356505429"><ele>749.0</ele><time>2026-04-27T12:32:32Z</time></trkpt><trkpt lat="42.1074697743399" lon="13.349629852562982"><ele>749.0</ele><time>2026-04-27T12:32:33Z</time></trkpt><trkpt lat="42.10756015929592" lon="13.349505703416657"><ele>749.0</ele><time>2026-04-27T12:32:34.001Z</time></trkpt><trkpt lat="42.10763952676581" lon="13.349401213584986"><ele>749.3333333333333</ele><time>2026-04-27T12:32:35.001Z</time></trkpt><trkpt lat="42.10770397384524" lon="13.349315184790699"><ele>749.6666666666666</ele><time>2026-04-27T12:32:36.001Z</time></trkpt><trkpt lat="42.10778524303697" lon="13.349360456675523"><ele>750.0</ele><time>2026-04-27T12:32:47.001Z</time></trkpt><trkpt lat="42.10785136445052" lon="13.349362282608837"><ele>750.3333333333334</ele><time>2026-04-27T12:32:48.001Z</time></trkpt><trkpt lat="42.10791897586929" lon="13.34936424824901"><ele>750.6666666666667</ele><time>2026-04-27T12:32:49.001Z</time></trkpt><trkpt lat="42.10801407249297" lon="13.349368320754689"><ele>751.0</ele><time>2026-04-27T12:32:50.001Z</time></trkpt><trkpt lat="42.10813407254141" lon="13.349357671788585"><ele>752.75</ele><time>2026-04-27T12:32:51.001Z</time></trkpt><trkpt lat="42.108273262927504" lon="13.34938320530092"><ele>754.5</ele><time>2026-04-27T12:32:52.001Z</time></trkpt><trkpt lat="42.10841160196205" lon="13.349394627136432"><ele>756.25</ele><time>2026-04-27T12:32:53.001Z</time></trkpt><trkpt lat="42.108533326312696" lon="13.34940467719483"><ele>758.0</ele><time>2026-04-27T12:32:54.001Z</time></trkpt><trkpt lat="42.10864159307896" lon="13.349412235435718"><ele>758.0</ele><time>2026-04-27T12:32:55.001Z</time></trkpt><trkpt lat="42.10875086174367" lon="13.34941410538243"><ele>758.0</ele><time>2026-04-27T12:32:56.001Z</time></trkpt><trkpt lat="42.10886042500793" lon="13.349412932132017"><ele>758.0</ele><time>2026-04-27T12:32:57.001Z</time></trkpt><trkpt lat="42.108971293484295" lon="13.349407692056198"><ele>758.0</ele><time>2026-04-27T12:32:58.001Z</time></trkpt><trkpt lat="42.10905742980985" lon="13.349398557664461"><ele>758.0</ele><time>2026-04-27T12:32:59.001Z</time></trkpt><trkpt lat="42.10914581608715" lon="13.349354246302303"><ele>759.0</ele><time>2026-04-27T12:33:00.001Z</time></trkpt><trkpt lat="42.10930026525234" lon="13.349312212450242"><ele>760.0</ele><time>2026-04-27T12:33:01.001Z</time></trkpt><trkpt lat="42.10943308085336" lon="13.349276835992361"><ele>761.0</ele><time>2026-04-27T12:33:02.001Z</time></trkpt><trkpt lat="42.10955234328719" lon="13.349233332342843"><ele>762.0</ele><time>2026-04-27T12:33:03.001Z</time></trkpt><trkpt lat="42.10967560453352" lon="13.349155742183978"><ele>762.0</ele><time>2026-04-27T12:33:04.001Z</time></trkpt><trkpt lat="42.109804306476896" lon="13.349106155725158"><ele>762.0</ele><time>2026-04-27T12:33:05.001Z</time></trkpt><trkpt lat="42.10991664780286" lon="13.349064518835341"><ele>762.0</ele><time>2026-04-27T12:33:06.001Z</time></trkpt><trkpt lat="42.109992444983064" lon="13.349020415699522"><ele>762.0</ele><time>2026-04-27T12:33:07.001Z</time></trkpt><trkpt lat="42.11006925304863" lon="13.34894894786775"><ele>762.0</ele><time>2026-04-27T12:33:08.001Z</time></trkpt><trkpt lat="42.11016716108383" lon="13.348830794236822"><ele>763.3333333333334</ele><time>2026-04-27T12:33:09.001Z</time></trkpt><trkpt lat="42.110261622492864" lon="13.348733611578325"><ele>764.6666666666667</ele><time>2026-04-27T12:33:10.001Z</time></trkpt><trkpt lat="42.110323888393694" lon="13.348656614583126"><ele>766.0</ele><time>2026-04-27T12:33:11.001Z</time></trkpt><trkpt lat="42.11036867348504" lon="13.34859147841123"><ele>767.3333333333334</ele><time>2026-04-27T12:33:12.001Z</time></trkpt><trkpt lat="42.11043678351222" lon="13.348632165000536"><ele>768.6666666666667</ele><time>2026-04-27T12:33:13.001Z</time></trkpt><trkpt lat="42.11053616867096" lon="13.348609370362086"><ele>770.0</ele><time>2026-04-27T12:33:14.001Z</time></trkpt><trkpt lat="42.11067173780665" lon="13.34863030432316"><ele>771.5</ele><time>2026-04-27T12:33:15.001Z</time></trkpt><trkpt lat="42.11079113233325" lon="13.348614637486373"><ele>773.0</ele><time>2026-04-27T12:33:16.001Z</time></trkpt><trkpt lat="42.11094033687565" lon="13.348612306043561"><ele>774.5</ele><time>2026-04-27T12:33:17.001Z</time></trkpt><trkpt lat="42.11109234057713" lon="13.348615156414313"><ele>776.0</ele><time>2026-04-27T12:33:18.001Z</time></trkpt><trkpt lat="42.11125076310321" lon="13.348627986575039"><ele>776.0</ele><time>2026-04-27T12:33:19.001Z</time></trkpt><trkpt lat="42.11141040223231" lon="13.348642407941297"><ele>776.0</ele><time>2026-04-27T12:33:20.001Z</time></trkpt><trkpt lat="42.1115482872455" lon="13.348644067118741"><ele>776.0</ele><time>2026-04-27T12:33:21.001Z</time></trkpt><trkpt lat="42.1116854501598" lon="13.34862102453106"><ele>776.0</ele><time>2026-04-27T12:33:22.001Z</time></trkpt><trkpt lat="42.11183869405672" lon="13.348584379284906"><ele>776.5</ele><time>2026-04-27T12:33:23.001Z</time></trkpt><trkpt lat="42.11196996945537" lon="13.34856260760339"><ele>777.0</ele><time>2026-04-27T12:33:24.001Z</time></trkpt><trkpt lat="42.11210640459315" lon="13.348595151421115"><ele>777.5</ele><time>2026-04-27T12:33:25.001Z</time></trkpt><trkpt lat="42.112243146753265" lon="13.348617652598415"><ele>778.0</ele><time>2026-04-27T12:33:26.001Z</time></trkpt><trkpt lat="42.11239299857034" lon="13.348610629154765"><ele>780.25</ele><time>2026-04-27T12:33:27.001Z</time></trkpt><trkpt lat="42.1125358663642" lon="13.348598063748353"><ele>782.5</ele><time>2026-04-27T12:33:28.001Z</time></trkpt><trkpt lat="42.11268414581927" lon="13.348581956379126"><ele>784.75</ele><time>2026-04-27T12:33:29.001Z</time></trkpt><trkpt lat="42.112829982633144" lon="13.348549400692102"><ele>787.0</ele><time>2026-04-27T12:33:30.001Z</time></trkpt><trkpt lat="42.11299917011997" lon="13.348503513633302"><ele>787.0</ele><time>2026-04-27T12:33:31.001Z</time></trkpt><trkpt lat="42.113154491653525" lon="13.34845152697733"><ele>787.0</ele><time>2026-04-27T12:33:32.001Z</time></trkpt><trkpt lat="42.11330792819108" lon="13.348391389879952"><ele>787.0</ele><time>2026-04-27T12:33:33.001Z</time></trkpt><trkpt lat="42.11343442104738" lon="13.34831136840279"><ele>788.3333333333333</ele><time>2026-04-27T12:33:34.001Z</time></trkpt><trkpt lat="42.11357819510812" lon="13.348208526010968"><ele>789.6666666666667</ele><time>2026-04-27T12:33:35.001Z</time></trkpt><trkpt lat="42.113708481585206" lon="13.348132565971012"><ele>791.0</ele><time>2026-04-27T12:33:36.001Z</time></trkpt><trkpt lat="42.11385876424191" lon="13.348069437649137"><ele>791.0</ele><time>2026-04-27T12:33:37.001Z</time></trkpt><trkpt lat="42.11399408898883" lon="13.348004365896267"><ele>791.0</ele><time>2026-04-27T12:33:38.001Z</time></trkpt><trkpt lat="42.11415121593578" lon="13.347924336604393"><ele>791.0</ele><time>2026-04-27T12:33:39.001Z</time></trkpt><trkpt lat="42.11428097397469" lon="13.347834550670628"><ele>792.25</ele><time>2026-04-27T12:33:40.001Z</time></trkpt><trkpt lat="42.11439263285806" lon="13.347767127296061"><ele>793.5</ele><time>2026-04-27T12:33:41.001Z</time></trkpt><trkpt lat="42.114525888472485" lon="13.347757722603394"><ele>794.75</ele><time>2026-04-27T12:33:42.001Z</time></trkpt><trkpt lat="42.11466189736047" lon="13.347722302055045"><ele>796.0</ele><time>2026-04-27T12:33:43.001Z</time></trkpt><trkpt lat="42.114800753641" lon="13.347720859501923"><ele>797.5</ele><time>2026-04-27T12:33:44.001Z</time></trkpt><trkpt lat="42.114930580346766" lon="13.3477363654527"><ele>799.0</ele><time>2026-04-27T12:33:45.001Z</time></trkpt><trkpt lat="42.11504340573648" lon="13.34774306544852"><ele>800.5</ele><time>2026-04-27T12:33:46.001Z</time></trkpt><trkpt lat="42.11515183575086" lon="13.34771928522405"><ele>802.0</ele><time>2026-04-27T12:33:47.001Z</time></trkpt><trkpt lat="42.11526618326929" lon="13.347705227962237"><ele>802.0</ele><time>2026-04-27T12:33:48.001Z</time></trkpt><trkpt lat="42.11539171410607" lon="13.347661809101837"><ele>802.0</ele><time>2026-04-27T12:33:49.001Z</time></trkpt><trkpt lat="42.11550703785641" lon="13.34759909211794"><ele>802.0</ele><time>2026-04-27T12:33:50.001Z</time></trkpt><trkpt lat="42.115625352606" lon="13.347502721033162"><ele>802.0</ele><time>2026-04-27T12:33:51.001Z</time></trkpt><trkpt lat="42.115765982428044" lon="13.347387285883062"><ele>803.0</ele><time>2026-04-27T12:33:52.001Z</time></trkpt><trkpt lat="42.115907049475254" lon="13.347279513320018"><ele>804.0</ele><time>2026-04-27T12:33:53.001Z</time></trkpt><trkpt lat="42.11602831973022" lon="13.347174225632914"><ele>805.0</ele><time>2026-04-27T12:33:54.001Z</time></trkpt><trkpt lat="42.11614199471902" lon="13.347090766300921"><ele>806.0</ele><time>2026-04-27T12:33:55.001Z</time></trkpt><trkpt lat="42.116270251285634" lon="13.347017027257989"><ele>806.5</ele><time>2026-04-27T12:33:56.001Z</time></trkpt><trkpt lat="42.116399003578294" lon="13.346943335503628"><ele>807.0</ele><time>2026-04-27T12:33:57.001Z</time></trkpt><trkpt lat="42.11653244490103" lon="13.346877641216619"><ele>807.5</ele><time>2026-04-27T12:33:58.001Z</time></trkpt><trkpt lat="42.11664225349095" lon="13.346817698695686"><ele>808.0</ele><time>2026-04-27T12:33:59Z</time></trkpt><trkpt lat="42.11677204700971" lon="13.346788584811193"><ele>809.6666666666666</ele><time>2026-04-27T12:34:00Z</time></trkpt><trkpt lat="42.11691358954915" lon="13.346746595404724"><ele>811.3333333333333</ele><time>2026-04-27T12:34:01Z</time></trkpt><trkpt lat="42.11706650407253" lon="13.346684952136856"><ele>813.0</ele><time>2026-04-27T12:34:02Z</time></trkpt><trkpt lat="42.11721790709534" lon="13.346612588532354"><ele>813.0</ele><time>2026-04-27T12:34:03Z</time></trkpt><trkpt lat="42.11735493135361" lon="13.346545619526774"><ele>813.0</ele><time>2026-04-27T12:34:04Z</time></trkpt><trkpt lat="42.1175058810593" lon="13.346463142464481"><ele>813.0</ele><time>2026-04-27T12:34:05Z</time></trkpt><trkpt lat="42.11763479031203" lon="13.346384015125686"><ele>815.3333333333333</ele><time>2026-04-27T12:34:06Z</time></trkpt><trkpt lat="42.11777009949258" lon="13.346317133151866"><ele>817.6666666666666</ele><time>2026-04-27T12:34:07Z</time></trkpt><trkpt lat="42.11792030397236" lon="13.346267276866742"><ele>820.0</ele><time>2026-04-27T12:34:08Z</time></trkpt><trkpt lat="42.118078884984016" lon="13.346229895965863"><ele>821.3333333333333</ele><time>2026-04-27T12:34:09Z</time></trkpt><trkpt lat="42.11823787491109" lon="13.34620763872547"><ele>822.6666666666667</ele><time>2026-04-27T12:34:10Z</time></trkpt><trkpt lat="42.11839302427609" lon="13.34618071264354"><ele>824.0</ele><time>2026-04-27T12:34:11Z</time></trkpt><trkpt lat="42.118561911525426" lon="13.346134815160845"><ele>824.0</ele><time>2026-04-27T12:34:12Z</time></trkpt><trkpt lat="42.118721711814466" lon="13.34608049315326"><ele>824.0</ele><time>2026-04-27T12:34:13Z</time></trkpt><trkpt lat="42.118880449590094" lon="13.346022099204044"><ele>824.0</ele><time>2026-04-27T12:34:14Z</time></trkpt><trkpt lat="42.11905179900687" lon="13.345956107945097"><ele>826.0</ele><time>2026-04-27T12:34:15Z</time></trkpt><trkpt lat="42.119221702812375" lon="13.345881270777085"><ele>828.0</ele><time>2026-04-27T12:34:16Z</time></trkpt><trkpt lat="42.11939063598891" lon="13.345804216952425"><ele>830.0</ele><time>2026-04-27T12:34:17Z</time></trkpt><trkpt lat="42.1195625473182" lon="13.345745023719621"><ele>830.0</ele><time>2026-04-27T12:34:18Z</time></trkpt><trkpt lat="42.11974006734569" lon="13.345686122754557"><ele>830.0</ele><time>2026-04-27T12:34:19Z</time></trkpt><trkpt lat="42.119914776455985" lon="13.345623378498773"><ele>830.0</ele><time>2026-04-27T12:34:20Z</time></trkpt><trkpt lat="42.120086894945494" lon="13.345535902496739"><ele>833.3333333333334</ele><time>2026-04-27T12:34:21Z</time></trkpt><trkpt lat="42.12024082681655" lon="13.345446082604475"><ele>836.6666666666667</ele><time>2026-04-27T12:34:22Z</time></trkpt><trkpt lat="42.12039192641899" lon="13.34536399572937"><ele>840.0</ele><time>2026-04-27T12:34:23Z</time></trkpt><trkpt lat="42.120536259297886" lon="13.345297091975498"><ele>840.0</ele><time>2026-04-27T12:34:24Z</time></trkpt><trkpt lat="42.12069024254267" lon="13.345249337794376"><ele>840.0</ele><time>2026-04-27T12:34:25Z</time></trkpt><trkpt lat="42.12084903500074" lon="13.345228025917619"><ele>840.0</ele><time>2026-04-27T12:34:26Z</time></trkpt><trkpt lat="42.12102863628776" lon="13.345223082133424"><ele>841.3333333333333</ele><time>2026-04-27T12:34:27Z</time></trkpt><trkpt lat="42.12119070221451" lon="13.345206588769809"><ele>842.6666666666666</ele><time>2026-04-27T12:34:28Z</time></trkpt><trkpt lat="42.12135024244764" lon="13.345165708182984"><ele>844.0</ele><time>2026-04-27T12:34:29Z</time></trkpt><trkpt lat="42.12151155571638" lon="13.345100375468588"><ele>845.25</ele><time>2026-04-27T12:34:30Z</time></trkpt><trkpt lat="42.12164874450563" lon="13.345009876508723"><ele>846.5</ele><time>2026-04-27T12:34:31Z</time></trkpt><trkpt lat="42.12177596708115" lon="13.344905765798567"><ele>847.75</ele><time>2026-04-27T12:34:32Z</time></trkpt><trkpt lat="42.12190387056423" lon="13.344817421719952"><ele>849.0</ele><time>2026-04-27T12:34:33Z</time></trkpt><trkpt lat="42.12201363398409" lon="13.344767174610782"><ele>849.0</ele><time>2026-04-27T12:34:34Z</time></trkpt><trkpt lat="42.122123052877605" lon="13.34473442654136"><ele>849.0</ele><time>2026-04-27T12:34:35Z</time></trkpt><trkpt lat="42.122213926891945" lon="13.344715938016162"><ele>849.0</ele><time>2026-04-27T12:34:36Z</time></trkpt><trkpt lat="42.12227738162396" lon="13.3446652876876"><ele>849.0</ele><time>2026-04-27T12:34:37Z</time></trkpt><trkpt lat="42.12235841596522" lon="13.34478627736249"><ele>849.0</ele><time>2026-04-27T12:34:38Z</time></trkpt><trkpt lat="42.12241482185361" lon="13.344841891076113"><ele>850.6</ele><time>2026-04-27T12:34:39Z</time></trkpt><trkpt lat="42.122549007295575" lon="13.344785522906573"><ele>852.2</ele><time>2026-04-27T12:34:40Z</time></trkpt><trkpt lat="42.12261981432405" lon="13.344769677183098"><ele>853.8000000000001</ele><time>2026-04-27T12:34:41Z</time></trkpt><trkpt lat="42.12268989852502" lon="13.344734352197317"><ele>855.4000000000001</ele><time>2026-04-27T12:34:42Z</time></trkpt><trkpt lat="42.122755906676986" lon="13.34473496348439"><ele>857.0</ele><time>2026-04-27T12:34:43Z</time></trkpt><trkpt lat="42.1228614662221" lon="13.344661668078434"><ele>858.0</ele><time>2026-04-27T12:34:45Z</time></trkpt><trkpt lat="42.12296550319186" lon="13.344623008090974"><ele>859.0</ele><time>2026-04-27T12:34:47Z</time></trkpt><trkpt lat="42.12306343131065" lon="13.344586838370724"><ele>860.0</ele><time>2026-04-27T12:34:49Z</time></trkpt><trkpt lat="42.12319365621228" lon="13.34454094408852"><ele>861.0</ele><time>2026-04-27T12:34:51Z</time></trkpt><trkpt lat="42.12326745476194" lon="13.34450428328856"><ele>862.0</ele><time>2026-04-27T12:34:52Z</time></trkpt><trkpt lat="42.123360681022774" lon="13.34443070104681"><ele>862.75</ele><time>2026-04-27T12:34:53Z</time></trkpt><trkpt lat="42.123441623671226" lon="13.344368524199876"><ele>863.5</ele><time>2026-04-27T12:34:54Z</time></trkpt><trkpt lat="42.12354062278962" lon="13.344304668988096"><ele>864.25</ele><time>2026-04-27T12:34:55Z</time></trkpt><trkpt lat="42.123657472955465" lon="13.344226779167066"><ele>865.0</ele><time>2026-04-27T12:34:56.001Z</time></trkpt><trkpt lat="42.12378904036999" lon="13.344161318732317"><ele>865.0</ele><time>2026-04-27T12:34:57.001Z</time></trkpt><trkpt lat="42.123929029320394" lon="13.344119675383046"><ele>865.0</ele><time>2026-04-27T12:34:58.001Z</time></trkpt><trkpt lat="42.12408621099841" lon="13.344045785402125"><ele>865.0</ele><time>2026-04-27T12:34:59.001Z</time></trkpt><trkpt lat="42.12423866377169" lon="13.344012856974976"><ele>866.25</ele><time>2026-04-27T12:35:00.001Z</time></trkpt><trkpt lat="42.1243685651141" lon="13.343956281131302"><ele>867.5</ele><time>2026-04-27T12:35:01.001Z</time></trkpt><trkpt lat="42.12450295063252" lon="13.343891244036854"><ele>868.75</ele><time>2026-04-27T12:35:02.001Z</time></trkpt><trkpt lat="42.12464170016105" lon="13.343815813354375"><ele>870.0</ele><time>2026-04-27T12:35:03.001Z</time></trkpt><trkpt lat="42.124744213750425" lon="13.343752548315878"><ele>870.8</ele><time>2026-04-27T12:35:04.001Z</time></trkpt><trkpt lat="42.12484739339067" lon="13.34371382922972"><ele>871.6</ele><time>2026-04-27T12:35:05.001Z</time></trkpt><trkpt lat="42.12494970297387" lon="13.343679021573099"><ele>872.4000000000001</ele><time>2026-04-27T12:35:06.001Z</time></trkpt><trkpt lat="42.12501750279494" lon="13.343662187154758"><ele>873.2</ele><time>2026-04-27T12:35:07.001Z</time></trkpt><trkpt lat="42.12509715894893" lon="13.343668349660064"><ele>874.0</ele><time>2026-04-27T12:35:09.001Z</time></trkpt><trkpt lat="42.12506728323692" lon="13.34348209157701"><ele>874.0</ele><time>2026-04-27T12:35:11.001Z</time></trkpt><trkpt lat="42.12501739867615" lon="13.343396699633637"><ele>874.0000000000001</ele><time>2026-04-27T12:35:12.001Z</time></trkpt><trkpt lat="42.12497222176147" lon="13.343288052180112"><ele>874.0000000000001</ele><time>2026-04-27T12:35:13.001Z</time></trkpt><trkpt lat="42.12490232722603" lon="13.343178855581323"><ele>874.0</ele><time>2026-04-27T12:35:14.001Z</time></trkpt><trkpt lat="42.12481229953459" lon="13.343109311896074"><ele>874.0</ele><time>2026-04-27T12:35:15.001Z</time></trkpt><trkpt lat="42.12470439601338" lon="13.343060983436892"><ele>878.6666666666666</ele><time>2026-04-27T12:35:16.001Z</time></trkpt><trkpt lat="42.12456830081394" lon="13.342974998613302"><ele>883.3333333333333</ele><time>2026-04-27T12:35:17.001Z</time></trkpt><trkpt lat="42.124437354313955" lon="13.342875274907453"><ele>888.0</ele><time>2026-04-27T12:35:18.001Z</time></trkpt><trkpt lat="42.12428986699403" lon="13.342769543168664"><ele>888.0</ele><time>2026-04-27T12:35:19.001Z</time></trkpt><trkpt lat="42.124165304661204" lon="13.342701620331837"><ele>888.0</ele><time>2026-04-27T12:35:20.001Z</time></trkpt><trkpt lat="42.12403871754078" lon="13.342631682099451"><ele>888.0</ele><time>2026-04-27T12:35:21.001Z</time></trkpt><trkpt lat="42.12392540250175" lon="13.342582427201808"><ele>888.0</ele><time>2026-04-27T12:35:22.001Z</time></trkpt><trkpt lat="42.12382005238474" lon="13.342515130519736"><ele>887.6666666666666</ele><time>2026-04-27T12:35:23.001Z</time></trkpt><trkpt lat="42.12372196918338" lon="13.342450080325792"><ele>887.3333333333333</ele><time>2026-04-27T12:35:24.001Z</time></trkpt><trkpt lat="42.123635354738205" lon="13.342410390442987"><ele>887.0</ele><time>2026-04-27T12:35:25.001Z</time></trkpt><trkpt lat="42.12358892338955" lon="13.342320441332296"><ele>886.6666666666666</ele><time>2026-04-27T12:35:27.001Z</time></trkpt><trkpt lat="42.1235520217715" lon="13.342389622926493"><ele>886.3333333333333</ele><time>2026-04-27T12:35:30.001Z</time></trkpt><trkpt lat="42.1236124992796" lon="13.342326371419103"><ele>886.0</ele><time>2026-04-27T12:35:33.001Z</time></trkpt><trkpt lat="42.12367668011596" lon="13.342343969164466"><ele>886.0</ele><time>2026-04-27T12:35:34.001Z</time></trkpt><trkpt lat="42.12375299163456" lon="13.342347931402792"><ele>886.0</ele><time>2026-04-27T12:35:35.001Z</time></trkpt><trkpt lat="42.12381366635641" lon="13.342325258074315"><ele>886.0</ele><time>2026-04-27T12:35:36.001Z</time></trkpt><trkpt lat="42.12388659424257" lon="13.342301957482645"><ele>886.0</ele><time>2026-04-27T12:35:37.001Z</time></trkpt><trkpt lat="42.12395651509152" lon="13.34226620566416"><ele>886.0</ele><time>2026-04-27T12:35:38.001Z</time></trkpt><trkpt lat="42.124032469755704" lon="13.342232876496709"><ele>886.0</ele><time>2026-04-27T12:35:39.001Z</time></trkpt><trkpt lat="42.12410711567706" lon="13.342208148053986"><ele>886.0</ele><time>2026-04-27T12:35:40.001Z</time></trkpt><trkpt lat="42.12418186283188" lon="13.342183772848582"><ele>886.3333333333333</ele><time>2026-04-27T12:35:41.001Z</time></trkpt><trkpt lat="42.12425434865909" lon="13.342164079000884"><ele>886.6666666666666</ele><time>2026-04-27T12:35:42.001Z</time></trkpt><trkpt lat="42.124327216040584" lon="13.342153325890989"><ele>887.0</ele><time>2026-04-27T12:35:43.001Z</time></trkpt><trkpt lat="42.12444414976859" lon="13.342158806761264"><ele>887.3333333333333</ele><time>2026-04-27T12:35:45.001Z</time></trkpt><trkpt lat="42.124502999613235" lon="13.342190930943175"><ele>887.6666666666666</ele><time>2026-04-27T12:35:46.001Z</time></trkpt><trkpt lat="42.124567922022784" lon="13.34221433072397"><ele>888.0</ele><time>2026-04-27T12:35:47.001Z</time></trkpt><trkpt lat="42.12464503015929" lon="13.342251083198322"><ele>888.0</ele><time>2026-04-27T12:35:48.001Z</time></trkpt><trkpt lat="42.12476318491911" lon="13.34230424059756"><ele>888.0</ele><time>2026-04-27T12:35:50.001Z</time></trkpt><trkpt lat="42.124830882109144" lon="13.342326832959946"><ele>888.0</ele><time>2026-04-27T12:35:51.001Z</time></trkpt><trkpt lat="42.12489748749969" lon="13.342339505347494"><ele>888.0</ele><time>2026-04-27T12:35:52.001Z</time></trkpt><trkpt lat="42.124966899252534" lon="13.342343764452501"><ele>888.0</ele><time>2026-04-27T12:35:53.001Z</time></trkpt><trkpt lat="42.12503873126519" lon="13.342336623197815"><ele>888.0</ele><time>2026-04-27T12:35:54.001Z</time></trkpt><trkpt lat="42.12511695788857" lon="13.342330103961299"><ele>888.0</ele><time>2026-04-27T12:35:55.001Z</time></trkpt><trkpt lat="42.12519175139728" lon="13.342323401430175"><ele>888.0</ele><time>2026-04-27T12:35:56.001Z</time></trkpt><trkpt lat="42.12526211491714" lon="13.342316470554046"><ele>888.0</ele><time>2026-04-27T12:35:57.001Z</time></trkpt><trkpt lat="42.12534021247414" lon="13.342302332774837"><ele>888.0</ele><time>2026-04-27T12:35:58.001Z</time></trkpt><trkpt lat="42.12541924105024" lon="13.342285665516075"><ele>888.0</ele><time>2026-04-27T12:35:59.001Z</time></trkpt><trkpt lat="42.12548606365864" lon="13.342265602521385"><ele>888.0</ele><time>2026-04-27T12:36:00.001Z</time></trkpt><trkpt lat="42.12555583086788" lon="13.342242788124095"><ele>888.0</ele><time>2026-04-27T12:36:01.001Z</time></trkpt><trkpt lat="42.12562876788479" lon="13.34222524564871"><ele>891.3333333333334</ele><time>2026-04-27T12:36:02.001Z</time></trkpt><trkpt lat="42.12569793740524" lon="13.342199971503334"><ele>894.6666666666667</ele><time>2026-04-27T12:36:03.001Z</time></trkpt><trkpt lat="42.12577664228791" lon="13.342182272655196"><ele>898.0</ele><time>2026-04-27T12:36:04.001Z</time></trkpt><trkpt lat="42.12586476701533" lon="13.342157023345408"><ele>901.3333333333334</ele><time>2026-04-27T12:36:05Z</time></trkpt><trkpt lat="42.125987587451824" lon="13.342099246479616"><ele>904.6666666666667</ele><time>2026-04-27T12:36:07Z</time></trkpt><trkpt lat="42.12605310224437" lon="13.342067163099616"><ele>908.0</ele><time>2026-04-27T12:36:08Z</time></trkpt><trkpt lat="42.12612722417162" lon="13.342035086661566"><ele>908.3333333333334</ele><time>2026-04-27T12:36:09Z</time></trkpt><trkpt lat="42.12619408841805" lon="13.342004547494211"><ele>908.6666666666667</ele><time>2026-04-27T12:36:10Z</time></trkpt><trkpt lat="42.126276517666724" lon="13.34197080789403"><ele>909.0</ele><time>2026-04-27T12:36:11Z</time></trkpt><trkpt lat="42.12635094495473" lon="13.341942009466317"><ele>909.3333333333333</ele><time>2026-04-27T12:36:12Z</time></trkpt><trkpt lat="42.12642299575721" lon="13.34191292940623"><ele>909.6666666666666</ele><time>2026-04-27T12:36:13Z</time></trkpt><trkpt lat="42.12650109491782" lon="13.34187855726331"><ele>910.0</ele><time>2026-04-27T12:36:14Z</time></trkpt><trkpt lat="42.126578212286496" lon="13.341847655256975"><ele>908.1666666666666</ele><time>2026-04-27T12:36:15Z</time></trkpt><trkpt lat="42.1266538538956" lon="13.3418103566092"><ele>906.3333333333333</ele><time>2026-04-27T12:36:16Z</time></trkpt><trkpt lat="42.12672506777373" lon="13.341768297389207"><ele>904.5</ele><time>2026-04-27T12:36:17Z</time></trkpt><trkpt lat="42.126807194279394" lon="13.34172671266791"><ele>902.6666666666667</ele><time>2026-04-27T12:36:18Z</time></trkpt><trkpt lat="42.12689516780969" lon="13.341687133804015"><ele>900.8333333333334</ele><time>2026-04-27T12:36:19Z</time></trkpt><trkpt lat="42.12699005956902" lon="13.341653761935127"><ele>899.0</ele><time>2026-04-27T12:36:20Z</time></trkpt><trkpt lat="42.12709536242073" lon="13.341638123418356"><ele>899.0</ele><time>2026-04-27T12:36:21Z</time></trkpt><trkpt lat="42.127209971064275" lon="13.341632038002398"><ele>899.0</ele><time>2026-04-27T12:36:22Z</time></trkpt><trkpt lat="42.12733182944904" lon="13.34162969735551"><ele>899.0</ele><time>2026-04-27T12:36:23Z</time></trkpt><trkpt lat="42.12744815637737" lon="13.341636773272484"><ele>899.0</ele><time>2026-04-27T12:36:24Z</time></trkpt><trkpt lat="42.12756605556806" lon="13.341649474263763"><ele>899.4000000000001</ele><time>2026-04-27T12:36:25Z</time></trkpt><trkpt lat="42.12768482779865" lon="13.341668457440775"><ele>899.8000000000001</ele><time>2026-04-27T12:36:26Z</time></trkpt><trkpt lat="42.127790968671164" lon="13.341692015313935"><ele>900.1999999999999</ele><time>2026-04-27T12:36:27Z</time></trkpt><trkpt lat="42.12787252415981" lon="13.341709890510876"><ele>900.5999999999999</ele><time>2026-04-27T12:36:28Z</time></trkpt><trkpt lat="42.12794867668664" lon="13.341732692583655"><ele>901.0</ele><time>2026-04-27T12:36:29Z</time></trkpt><trkpt lat="42.12802037518655" lon="13.341759716097101"><ele>901.0</ele><time>2026-04-27T12:36:30Z</time></trkpt><trkpt lat="42.12808822846305" lon="13.341781557815347"><ele>900.9999999999999</ele><time>2026-04-27T12:36:31Z</time></trkpt><trkpt lat="42.12815070674189" lon="13.341807342008114"><ele>900.9999999999999</ele><time>2026-04-27T12:36:32Z</time></trkpt><trkpt lat="42.12823163376196" lon="13.34186748813272"><ele>901.0</ele><time>2026-04-27T12:36:34Z</time></trkpt><trkpt lat="42.12830182163872" lon="13.341899598619277"><ele>901.0</ele><time>2026-04-27T12:36:36Z</time></trkpt><trkpt lat="42.12844263485466" lon="13.342004327384837"><ele>903.0</ele><time>2026-04-27T12:36:37Z</time></trkpt><trkpt lat="42.128607449739185" lon="13.34200612725315"><ele>905.0</ele><time>2026-04-27T12:36:38Z</time></trkpt><trkpt lat="42.12871475994197" lon="13.341973343771837"><ele>907.0</ele><time>2026-04-27T12:36:39Z</time></trkpt><trkpt lat="42.128801179422666" lon="13.341938922351284"><ele>909.0</ele><time>2026-04-27T12:36:40Z</time></trkpt><trkpt lat="42.128910919774036" lon="13.341893704797108"><ele>909.0</ele><time>2026-04-27T12:36:41Z</time></trkpt><trkpt lat="42.12901658351779" lon="13.341846967602496"><ele>909.0000000000001</ele><time>2026-04-27T12:36:42Z</time></trkpt><trkpt lat="42.12912101408663" lon="13.341800775892148"><ele>909.0000000000001</ele><time>2026-04-27T12:36:43Z</time></trkpt><trkpt lat="42.12918729673103" lon="13.341751537041148"><ele>909.0</ele><time>2026-04-27T12:36:44Z</time></trkpt><trkpt lat="42.12926585312799" lon="13.341693543660135"><ele>909.0</ele><time>2026-04-27T12:36:45Z</time></trkpt><trkpt lat="42.12933395084899" lon="13.34161585891119"><ele>911.0</ele><time>2026-04-27T12:36:46Z</time></trkpt><trkpt lat="42.12940596890385" lon="13.341552988814238"><ele>913.0</ele><time>2026-04-27T12:36:47Z</time></trkpt><trkpt lat="42.129491999827486" lon="13.34147827251866"><ele>915.0</ele><time>2026-04-27T12:36:48Z</time></trkpt><trkpt lat="42.129367471382125" lon="13.340594545579375"><ele>919.8</ele><time>2026-04-27T12:36:49Z</time></trkpt><trkpt lat="42.12944529359451" lon="13.340517487952042"><ele>924.6</ele><time>2026-04-27T12:36:50Z</time></trkpt><trkpt lat="42.12949847983508" lon="13.340420903476785"><ele>929.4000000000001</ele><time>2026-04-27T12:36:51Z</time></trkpt><trkpt lat="42.12955994894067" lon="13.34032026002214"><ele>934.2</ele><time>2026-04-27T12:36:52Z</time></trkpt><trkpt lat="42.129599752618034" lon="13.34022464818328"><ele>939.0</ele><time>2026-04-27T12:36:53Z</time></trkpt><trkpt lat="42.129655598534804" lon="13.340135675547446"><ele>939.0</ele><time>2026-04-27T12:36:54Z</time></trkpt><trkpt lat="42.12973771916597" lon="13.340022736245556"><ele>939.0</ele><time>2026-04-27T12:36:55Z</time></trkpt><trkpt lat="42.129818820193286" lon="13.339908274957896"><ele>939.0</ele><time>2026-04-27T12:36:56Z</time></trkpt><trkpt lat="42.129878543215035" lon="13.339795211018046"><ele>939.0</ele><time>2026-04-27T12:36:57Z</time></trkpt><trkpt lat="42.12994412917538" lon="13.3396583107146"><ele>937.4000000000001</ele><time>2026-04-27T12:36:58Z</time></trkpt><trkpt lat="42.12998285453387" lon="13.339548403835432"><ele>935.8000000000001</ele><time>2026-04-27T12:36:59Z</time></trkpt><trkpt lat="42.130028279972855" lon="13.33943148384933"><ele>934.1999999999999</ele><time>2026-04-27T12:37:01Z</time></trkpt><trkpt lat="42.13013479697471" lon="13.339322221896236"><ele>932.5999999999999</ele><time>2026-04-27T12:37:03.001Z</time></trkpt><trkpt lat="42.13019639782592" lon="13.339290497962196"><ele>931.0</ele><time>2026-04-27T12:37:04.001Z</time></trkpt><trkpt lat="42.13030762637655" lon="13.339206255788913"><ele>931.0</ele><time>2026-04-27T12:37:06.001Z</time></trkpt><trkpt lat="42.13036048473739" lon="13.339151491235858"><ele>930.9999999999999</ele><time>2026-04-27T12:37:07.001Z</time></trkpt><trkpt lat="42.13047811519349" lon="13.33910209215116"><ele>930.9999999999999</ele><time>2026-04-27T12:37:09.001Z</time></trkpt><trkpt lat="42.130558709505884" lon="13.339080152058472"><ele>931.0</ele><time>2026-04-27T12:37:10.001Z</time></trkpt><trkpt lat="42.13068235994751" lon="13.33906602851333"><ele>931.0</ele><time>2026-04-27T12:37:12.001Z</time></trkpt><trkpt lat="42.130769630465004" lon="13.339047273472765"><ele>932.1666666666666</ele><time>2026-04-27T12:37:13.001Z</time></trkpt><trkpt lat="42.13086657608798" lon="13.339018334519443"><ele>933.3333333333333</ele><time>2026-04-27T12:37:14.001Z</time></trkpt><trkpt lat="42.13095655355053" lon="13.338991489298914"><ele>934.5</ele><time>2026-04-27T12:37:15.001Z</time></trkpt><trkpt lat="42.13103601568955" lon="13.338968052912024"><ele>935.6666666666667</ele><time>2026-04-27T12:37:16.001Z</time></trkpt><trkpt lat="42.13111275277718" lon="13.338950416351206"><ele>936.8333333333334</ele><time>2026-04-27T12:37:17.001Z</time></trkpt><trkpt lat="42.13120073736632" lon="13.338913209429473"><ele>938.0</ele><time>2026-04-27T12:37:18.001Z</time></trkpt><trkpt lat="42.13129688100012" lon="13.338867469771401"><ele>941.8</ele><time>2026-04-27T12:37:19.001Z</time></trkpt><trkpt lat="42.1314030261506" lon="13.338829399860316"><ele>945.5999999999999</ele><time>2026-04-27T12:37:20.001Z</time></trkpt><trkpt lat="42.131518846386456" lon="13.338786344575395"><ele>949.4000000000001</ele><time>2026-04-27T12:37:21.001Z</time></trkpt><trkpt lat="42.131614669188856" lon="13.338760168352703"><ele>953.2</ele><time>2026-04-27T12:37:22.001Z</time></trkpt><trkpt lat="42.13170179060482" lon="13.338738558163689"><ele>957.0</ele><time>2026-04-27T12:37:23.001Z</time></trkpt><trkpt lat="42.13180236730861" lon="13.338686363463891"><ele>957.0</ele><time>2026-04-27T12:37:24.001Z</time></trkpt><trkpt lat="42.131889416003695" lon="13.338628693477197"><ele>957.0</ele><time>2026-04-27T12:37:25.001Z</time></trkpt><trkpt lat="42.131967750789805" lon="13.338561095979584"><ele>957.0</ele><time>2026-04-27T12:37:26.001Z</time></trkpt><trkpt lat="42.13204197608135" lon="13.338499188077312"><ele>957.0</ele><time>2026-04-27T12:37:27.001Z</time></trkpt><trkpt lat="42.13209747755199" lon="13.338444132097772"><ele>957.0</ele><time>2026-04-27T12:37:28.001Z</time></trkpt><trkpt lat="42.132181895407356" lon="13.338390446819712"><ele>957.0</ele><time>2026-04-27T12:37:29.001Z</time></trkpt><trkpt lat="42.132267237896656" lon="13.338348776280604"><ele>957.0</ele><time>2026-04-27T12:37:30.001Z</time></trkpt><trkpt lat="42.132356687944856" lon="13.338314072446034"><ele>957.0</ele><time>2026-04-27T12:37:31.001Z</time></trkpt><trkpt lat="42.13245135244905" lon="13.338295135327183"><ele>957.0</ele><time>2026-04-27T12:37:32.001Z</time></trkpt><trkpt lat="42.132538233613765" lon="13.338261547392026"><ele>957.0</ele><time>2026-04-27T12:37:33.001Z</time></trkpt><trkpt lat="42.13262830934319" lon="13.338217578149754"><ele>957.0</ele><time>2026-04-27T12:37:34.001Z</time></trkpt><trkpt lat="42.13272278707186" lon="13.338189947814408"><ele>955.8</ele><time>2026-04-27T12:37:35.001Z</time></trkpt><trkpt lat="42.132807295544026" lon="13.33815909739777"><ele>954.6</ele><time>2026-04-27T12:37:36.001Z</time></trkpt><trkpt lat="42.132927569930104" lon="13.338090722130708"><ele>953.3999999999999</ele><time>2026-04-27T12:37:38.001Z</time></trkpt><trkpt lat="42.1330007265006" lon="13.338051053645566"><ele>952.1999999999999</ele><time>2026-04-27T12:37:39.001Z</time></trkpt><trkpt lat="42.133079241344234" lon="13.338015250345101"><ele>951.0</ele><time>2026-04-27T12:37:40.001Z</time></trkpt><trkpt lat="42.133152234809046" lon="13.337995278658791"><ele>956.0</ele><time>2026-04-27T12:37:41.001Z</time></trkpt><trkpt lat="42.13322800844989" lon="13.338020264665072"><ele>961.0</ele><time>2026-04-27T12:37:43.001Z</time></trkpt><trkpt lat="42.13332393591934" lon="13.337999552538609"><ele>966.0</ele><time>2026-04-27T12:37:45.001Z</time></trkpt><trkpt lat="42.1334149541736" lon="13.337991494793998"><ele>971.0</ele><time>2026-04-27T12:37:47.001Z</time></trkpt><trkpt lat="42.13348503879756" lon="13.338006452509273"><ele>976.0</ele><time>2026-04-27T12:37:50.001Z</time></trkpt><trkpt lat="42.133552998241555" lon="13.338004857691745"><ele>981.0</ele><time>2026-04-27T12:37:56.001Z</time></trkpt><trkpt lat="42.1336209094904" lon="13.33801310589061"><ele>981.0</ele><time>2026-04-27T12:37:59.001Z</time></trkpt><trkpt lat="42.13369763273698" lon="13.338018530957129"><ele>980.9999999999999</ele><time>2026-04-27T12:41:55.001Z</time></trkpt><trkpt lat="42.133816962235834" lon="13.338034089836734"><ele>980.9999999999999</ele><time>2026-04-27T12:41:57.001Z</time></trkpt><trkpt lat="42.13392216884424" lon="13.33805350520881"><ele>981.0</ele><time>2026-04-27T12:41:59.001Z</time></trkpt><trkpt lat="42.13398549386446" lon="13.338062955923034"><ele>981.0</ele><time>2026-04-27T12:42:00.001Z</time></trkpt><trkpt lat="42.13407367929381" lon="13.338077892793832"><ele>981.1666666666666</ele><time>2026-04-27T12:42:02.001Z</time></trkpt><trkpt lat="42.13414742369701" lon="13.338070214836325"><ele>981.3333333333333</ele><time>2026-04-27T12:42:03.001Z</time></trkpt><trkpt lat="42.13420883092753" lon="13.33804484491929"><ele>981.5</ele><time>2026-04-27T12:42:04.001Z</time></trkpt><trkpt lat="42.13428240403435" lon="13.33802246165585"><ele>981.6666666666666</ele><time>2026-04-27T12:42:05.001Z</time></trkpt><trkpt lat="42.13434135638842" lon="13.337991818080813"><ele>981.8333333333333</ele><time>2026-04-27T12:42:06.001Z</time></trkpt><trkpt lat="42.13440920277829" lon="13.33796048000918"><ele>982.0</ele><time>2026-04-27T12:42:07.001Z</time></trkpt><trkpt lat="42.134519581608885" lon="13.337928858560815"><ele>981.9999999999999</ele><time>2026-04-27T12:42:09.001Z</time></trkpt><trkpt lat="42.13462110217018" lon="13.337920787589198"><ele>982.0</ele><time>2026-04-27T12:42:11.001Z</time></trkpt><trkpt lat="42.13469888910525" lon="13.3378985675224"><ele>982.0</ele><time>2026-04-27T12:42:14.001Z</time></trkpt><trkpt lat="42.134720815338554" lon="13.337782476168776"><ele>982.0</ele><time>2026-04-27T12:42:16.001Z</time></trkpt><trkpt lat="42.13471967571603" lon="13.337691982057114"><ele>981.9999999999999</ele><time>2026-04-27T12:42:17.001Z</time></trkpt><trkpt lat="42.13473920439453" lon="13.337596315788883"><ele>982.0</ele><time>2026-04-27T12:42:18.001Z</time></trkpt><trkpt lat="42.1347755719711" lon="13.337522784002681"><ele>981.9999999999999</ele><time>2026-04-27T12:42:19.001Z</time></trkpt><trkpt lat="42.134828520839164" lon="13.337473058604523"><ele>982.0</ele><time>2026-04-27T12:42:20.001Z</time></trkpt><trkpt lat="42.134891466786335" lon="13.337407414897731"><ele>982.0</ele><time>2026-04-27T12:42:21.001Z</time></trkpt><trkpt lat="42.13496398429674" lon="13.337337073519562"><ele>982.0</ele><time>2026-04-27T12:42:22.001Z</time></trkpt><trkpt lat="42.135052566669785" lon="13.337264300112725"><ele>981.9999999999999</ele><time>2026-04-27T12:42:23.001Z</time></trkpt><trkpt lat="42.135115607462566" lon="13.337193737198808"><ele>982.0</ele><time>2026-04-27T12:42:24.001Z</time></trkpt><trkpt lat="42.135187492480185" lon="13.337108350013743"><ele>985.4000000000001</ele><time>2026-04-27T12:42:25.001Z</time></trkpt><trkpt lat="42.135253629190366" lon="13.337022920297898"><ele>988.8000000000001</ele><time>2026-04-27T12:42:26.001Z</time></trkpt><trkpt lat="42.13532281685911" lon="13.336940580844745"><ele>992.2</ele><time>2026-04-27T12:42:27.001Z</time></trkpt><trkpt lat="42.13545091026686" lon="13.336839273026131"><ele>995.6</ele><time>2026-04-27T12:42:29.001Z</time></trkpt><trkpt lat="42.13554987704102" lon="13.336761813536722"><ele>999.0</ele><time>2026-04-27T12:42:30.001Z</time></trkpt><trkpt lat="42.135611355652955" lon="13.336697036563951"><ele>999.0</ele><time>2026-04-27T12:42:31.001Z</time></trkpt><trkpt lat="42.13568326995824" lon="13.336614071200017"><ele>999.0000000000001</ele><time>2026-04-27T12:42:34.001Z</time></trkpt><trkpt lat="42.13577858407694" lon="13.336504130982997"><ele>999.0000000000001</ele><time>2026-04-27T12:42:36Z</time></trkpt><trkpt lat="42.13582545020223" lon="13.33641375389281"><ele>999.0</ele><time>2026-04-27T12:42:37Z</time></trkpt><trkpt lat="42.13588365601426" lon="13.33632212424502"><ele>999.0</ele><time>2026-04-27T12:42:38Z</time></trkpt><trkpt lat="42.135937128427116" lon="13.336263495064973"><ele>1001.5</ele><time>2026-04-27T12:42:39Z</time></trkpt><trkpt lat="42.136016915148545" lon="13.336140933451079"><ele>1004.0</ele><time>2026-04-27T12:42:41Z</time></trkpt><trkpt lat="42.136057010026676" lon="13.336069384908905"><ele>1006.5</ele><time>2026-04-27T12:42:42Z</time></trkpt><trkpt lat="42.13609917775929" lon="13.33600500760878"><ele>1009.0</ele><time>2026-04-27T12:42:43Z</time></trkpt><trkpt lat="42.13614478725375" lon="13.335943444345197"><ele>1011.5</ele><time>2026-04-27T12:42:44Z</time></trkpt><trkpt lat="42.1362176581403" lon="13.335846209771486"><ele>1014.0</ele><time>2026-04-27T12:42:46Z</time></trkpt><trkpt lat="42.136304335077384" lon="13.335728929247292"><ele>1014.0</ele><time>2026-04-27T12:42:48Z</time></trkpt><trkpt lat="42.13636831474667" lon="13.335609056898393"><ele>1014.0000000000001</ele><time>2026-04-27T12:42:50Z</time></trkpt><trkpt lat="42.136390595978035" lon="13.335487632327014"><ele>1014.0000000000001</ele><time>2026-04-27T12:42:53Z</time></trkpt><trkpt lat="42.136377392186255" lon="13.335392365641232"><ele>1014.0</ele><time>2026-04-27T12:42:55Z</time></trkpt><trkpt lat="42.13637770124373" lon="13.335294698047036"><ele>1014.0</ele><time>2026-04-27T12:43:02Z</time></trkpt><trkpt lat="42.13638920293121" lon="13.335114851900586"><ele>1017.8333333333334</ele><time>2026-04-27T12:43:04Z</time></trkpt><trkpt lat="42.136388243058846" lon="13.335016587778727"><ele>1021.6666666666667</ele><time>2026-04-27T12:43:05Z</time></trkpt><trkpt lat="42.13639337978331" lon="13.334860682424898"><ele>1025.5</ele><time>2026-04-27T12:43:07Z</time></trkpt><trkpt lat="42.13637270390889" lon="13.334775440082053"><ele>1029.3333333333335</ele><time>2026-04-27T12:43:08Z</time></trkpt><trkpt lat="42.13631596365431" lon="13.334688399634283"><ele>1033.1666666666667</ele><time>2026-04-27T12:43:10Z</time></trkpt><trkpt lat="42.136354720219636" lon="13.334586333277564"><ele>1037.0</ele><time>2026-04-27T12:43:12Z</time></trkpt><trkpt lat="42.136419096801305" lon="13.33455693230863"><ele>1039.0</ele><time>2026-04-27T12:43:13Z</time></trkpt><trkpt lat="42.13646773090212" lon="13.334489224192094"><ele>1041.0</ele><time>2026-04-27T12:43:15Z</time></trkpt><trkpt lat="42.136427263374536" lon="13.334360176937846"><ele>1043.0</ele><time>2026-04-27T12:43:16Z</time></trkpt><trkpt lat="42.136480370126854" lon="13.334311399983255"><ele>1045.0</ele><time>2026-04-27T12:43:18Z</time></trkpt><trkpt lat="42.13655522514479" lon="13.334252148716198"><ele>1047.0</ele><time>2026-04-27T12:43:27Z</time></trkpt><trkpt lat="42.13647893279103" lon="13.334137743762033"><ele>1049.0</ele><time>2026-04-27T12:43:32Z</time></trkpt><trkpt lat="42.1363566051384" lon="13.33408889148482"><ele>1050.8</ele><time>2026-04-27T12:43:34Z</time></trkpt><trkpt lat="42.136288297340755" lon="13.334092638513766"><ele>1052.6000000000001</ele><time>2026-04-27T12:43:35Z</time></trkpt><trkpt lat="42.136275441052774" lon="13.333870893718037"><ele>1054.4</ele><time>2026-04-27T12:43:38Z</time></trkpt><trkpt lat="42.13629475139208" lon="13.333762630978148"><ele>1056.2</ele><time>2026-04-27T12:43:39Z</time></trkpt><trkpt lat="42.13631795941364" lon="13.33365175728678"><ele>1058.0</ele><time>2026-04-27T12:43:40Z</time></trkpt><trkpt lat="42.13632599883016" lon="13.333556906049404"><ele>1062.4</ele><time>2026-04-27T12:43:41Z</time></trkpt><trkpt lat="42.13633808629617" lon="13.333460296372687"><ele>1066.8</ele><time>2026-04-27T12:43:42Z</time></trkpt><trkpt lat="42.13637204943083" lon="13.333357211047641"><ele>1071.2</ele><time>2026-04-27T12:43:44Z</time></trkpt><trkpt lat="42.13639778967885" lon="13.33320788036712"><ele>1075.6</ele><time>2026-04-27T12:43:46Z</time></trkpt><trkpt lat="42.136417170364616" lon="13.333067570342132"><ele>1080.0</ele><time>2026-04-27T12:43:48Z</time></trkpt><trkpt lat="42.13641156760953" lon="13.332929153160203"><ele>1082.8333333333333</ele><time>2026-04-27T12:43:50Z</time></trkpt><trkpt lat="42.13638903763589" lon="13.332799913633002"><ele>1085.6666666666667</ele><time>2026-04-27T12:43:52Z</time></trkpt><trkpt lat="42.13636889834741" lon="13.332696892643806"><ele>1088.5</ele><time>2026-04-27T12:43:54Z</time></trkpt><trkpt lat="42.13636270191499" lon="13.332595794096656"><ele>1091.3333333333335</ele><time>2026-04-27T12:43:56Z</time></trkpt><trkpt lat="42.13634577807799" lon="13.332484470180745"><ele>1094.1666666666667</ele><time>2026-04-27T12:43:58Z</time></trkpt><trkpt lat="42.13634110637986" lon="13.332335975627437"><ele>1097.0</ele><time>2026-04-27T12:44:00Z</time></trkpt><trkpt lat="42.136348583858044" lon="13.332228285333706"><ele>1098.3333333333335</ele><time>2026-04-27T12:44:01Z</time></trkpt><trkpt lat="42.136370546170475" lon="13.332114814869895"><ele>1099.6666666666667</ele><time>2026-04-27T12:44:02.001Z</time></trkpt><trkpt lat="42.13639763478563" lon="13.332026721984391"><ele>1101.0</ele><time>2026-04-27T12:44:03.001Z</time></trkpt><trkpt lat="42.13642459468797" lon="13.331897998320072"><ele>1102.3333333333333</ele><time>2026-04-27T12:44:04.001Z</time></trkpt><trkpt lat="42.13645319856752" lon="13.331787995947032"><ele>1103.6666666666665</ele><time>2026-04-27T12:44:05.001Z</time></trkpt><trkpt lat="42.13648222699102" lon="13.331693331395583"><ele>1105.0</ele><time>2026-04-27T12:44:06.001Z</time></trkpt><trkpt lat="42.13651168315981" lon="13.331588725066206"><ele>1105.0</ele><time>2026-04-27T12:44:07.001Z</time></trkpt><trkpt lat="42.1365453453061" lon="13.331469182240642"><ele>1105.0</ele><time>2026-04-27T12:44:09.001Z</time></trkpt><trkpt lat="42.13649392004192" lon="13.331400577173207"><ele>1105.0</ele><time>2026-04-27T12:44:11.001Z</time></trkpt><trkpt lat="42.13639946721041" lon="13.331372132170706"><ele>1105.0</ele><time>2026-04-27T12:44:12.001Z</time></trkpt><trkpt lat="42.136301472234706" lon="13.331348222079782"><ele>1105.0</ele><time>2026-04-27T12:44:13.001Z</time></trkpt><trkpt lat="42.13621422544534" lon="13.33133260193901"><ele>1105.0</ele><time>2026-04-27T12:44:14.001Z</time></trkpt><trkpt lat="42.13611615620165" lon="13.331352981122144"><ele>1105.0</ele><time>2026-04-27T12:44:15.001Z</time></trkpt><trkpt lat="42.13602351816472" lon="13.33137255270025"><ele>1105.0</ele><time>2026-04-27T12:44:16.001Z</time></trkpt><trkpt lat="42.13593024222122" lon="13.331374999609139"><ele>1105.0</ele><time>2026-04-27T12:44:17.001Z</time></trkpt><trkpt lat="42.135847407055294" lon="13.331400138569649"><ele>1105.0</ele><time>2026-04-27T12:44:18.001Z</time></trkpt><trkpt lat="42.13575925411517" lon="13.331417637573693"><ele>1105.1666666666665</ele><time>2026-04-27T12:44:19.001Z</time></trkpt><trkpt lat="42.135653762876" lon="13.331420176473625"><ele>1105.3333333333333</ele><time>2026-04-27T12:44:20.001Z</time></trkpt><trkpt lat="42.135579041420584" lon="13.33140387488792"><ele>1105.5</ele><time>2026-04-27T12:44:21.001Z</time></trkpt><trkpt lat="42.13550688182703" lon="13.331396753432621"><ele>1105.6666666666667</ele><time>2026-04-27T12:44:22.001Z</time></trkpt><trkpt lat="42.13541993553539" lon="13.331438552615744"><ele>1105.8333333333335</ele><time>2026-04-27T12:44:23.001Z</time></trkpt><trkpt lat="42.13534738900659" lon="13.331502852908256"><ele>1106.0</ele><time>2026-04-27T12:44:24.001Z</time></trkpt><trkpt lat="42.1352694950064" lon="13.331581676643074"><ele>1106.0</ele><time>2026-04-27T12:44:25.001Z</time></trkpt><trkpt lat="42.13517466602752" lon="13.331637674666286"><ele>1106.0</ele><time>2026-04-27T12:44:26.001Z</time></trkpt><trkpt lat="42.13505996413532" lon="13.331677460129168"><ele>1106.0</ele><time>2026-04-27T12:44:27.001Z</time></trkpt><trkpt lat="42.1349669395265" lon="13.331693938387605"><ele>1106.0</ele><time>2026-04-27T12:44:28.001Z</time></trkpt><trkpt lat="42.13487844928948" lon="13.331718468983235"><ele>1106.0</ele><time>2026-04-27T12:44:28.999Z</time></trkpt><trkpt lat="42.13480456743264" lon="13.331779694840135"><ele>1105.1666666666667</ele><time>2026-04-27T12:44:29.999Z</time></trkpt><trkpt lat="42.13473960686992" lon="13.331849053275567"><ele>1104.3333333333335</ele><time>2026-04-27T12:44:30.999Z</time></trkpt><trkpt lat="42.13467741229415" lon="13.331924209180722"><ele>1103.5</ele><time>2026-04-27T12:44:31.999Z</time></trkpt><trkpt lat="42.134623024364686" lon="13.331976739093044"><ele>1102.6666666666667</ele><time>2026-04-27T12:44:32.999Z</time></trkpt><trkpt lat="42.13455522330422" lon="13.332020497229149"><ele>1101.8333333333333</ele><time>2026-04-27T12:44:34.999Z</time></trkpt><trkpt lat="42.134573900303444" lon="13.332116517309958"><ele>1101.0</ele><time>2026-04-27T12:45:02Z</time></trkpt><trkpt lat="42.13466007273026" lon="13.332038597605598"><ele>1101.0</ele><time>2026-04-27T12:45:05Z</time></trkpt><trkpt lat="42.13465613965842" lon="13.331952439505809"><ele>1101.0</ele><time>2026-04-27T12:45:06Z</time></trkpt><trkpt lat="42.13466396681562" lon="13.331849946607747"><ele>1101.0</ele><time>2026-04-27T12:45:08Z</time></trkpt><trkpt lat="42.134684769315264" lon="13.331752830793787"><ele>1101.0</ele><time>2026-04-27T12:45:11Z</time></trkpt><trkpt lat="42.13474766450977" lon="13.331677575101645"><ele>1101.0</ele><time>2026-04-27T12:45:29Z</time></trkpt><trkpt lat="42.13477674243929" lon="13.331598889620315"><ele>1101.0</ele><time>2026-04-27T12:45:33Z</time></trkpt><trkpt lat="42.13479118508445" lon="13.331494956599794"><ele>1101.0</ele><time>2026-04-27T12:45:37Z</time></trkpt><trkpt lat="42.13482716088342" lon="13.331349783228541"><ele>1101.8333333333333</ele><time>2026-04-27T12:45:39Z</time></trkpt><trkpt lat="42.13485944372965" lon="13.331275139446468"><ele>1102.6666666666667</ele><time>2026-04-27T12:45:40Z</time></trkpt><trkpt lat="42.13491623246039" lon="13.331185790758258"><ele>1103.5</ele><time>2026-04-27T12:45:41Z</time></trkpt><trkpt lat="42.13497773585976" lon="13.331122138960495"><ele>1104.3333333333335</ele><time>2026-04-27T12:45:42Z</time></trkpt><trkpt lat="42.1350553339999" lon="13.331051174070216"><ele>1105.1666666666667</ele><time>2026-04-27T12:45:43Z</time></trkpt><trkpt lat="42.135134462476906" lon="13.331000091320243"><ele>1106.0</ele><time>2026-04-27T12:45:44Z</time></trkpt><trkpt lat="42.13520289909858" lon="13.330981051995584"><ele>1106.0</ele><time>2026-04-27T12:45:45Z</time></trkpt><trkpt lat="42.13526851404912" lon="13.330981891716304"><ele>1106.0</ele><time>2026-04-27T12:45:46Z</time></trkpt><trkpt lat="42.13533223851582" lon="13.33097156071339"><ele>1106.0</ele><time>2026-04-27T12:45:47Z</time></trkpt><trkpt lat="42.1354275406242" lon="13.33092289915468"><ele>1106.0</ele><time>2026-04-27T12:45:49Z</time></trkpt><trkpt lat="42.1355201364051" lon="13.330902589388677"><ele>1106.0</ele><time>2026-04-27T12:45:51Z</time></trkpt><trkpt lat="42.13558676727994" lon="13.33082762916238"><ele>1106.0</ele><time>2026-04-27T12:45:53Z</time></trkpt><trkpt lat="42.135618101677856" lon="13.330745610074262"><ele>1106.0</ele><time>2026-04-27T12:45:54Z</time></trkpt><trkpt lat="42.135630914300854" lon="13.330653768684929"><ele>1106.0</ele><time>2026-04-27T12:45:55Z</time></trkpt><trkpt lat="42.13563781709918" lon="13.330542348029088"><ele>1106.0</ele><time>2026-04-27T12:45:56Z</time></trkpt><trkpt lat="42.13564708747721" lon="13.330438451391412"><ele>1106.0</ele><time>2026-04-27T12:45:57Z</time></trkpt><trkpt lat="42.1356675266609" lon="13.330300197953598"><ele>1106.0</ele><time>2026-04-27T12:45:58Z</time></trkpt><trkpt lat="42.135690886319566" lon="13.330166436127781"><ele>1106.0</ele><time>2026-04-27T12:45:59Z</time></trkpt><trkpt lat="42.135710172422876" lon="13.330048679906952"><ele>1108.2</ele><time>2026-04-27T12:46:00Z</time></trkpt><trkpt lat="42.13574447249402" lon="13.329928143616755"><ele>1110.3999999999999</ele><time>2026-04-27T12:46:01Z</time></trkpt><trkpt lat="42.135761636832385" lon="13.329809154693649"><ele>1112.6</ele><time>2026-04-27T12:46:02Z</time></trkpt><trkpt lat="42.13579752198344" lon="13.32969259614669"><ele>1114.8</ele><time>2026-04-27T12:46:03Z</time></trkpt><trkpt lat="42.13586226546658" lon="13.329605019359839"><ele>1117.0</ele><time>2026-04-27T12:46:04Z</time></trkpt><trkpt lat="42.13593639678835" lon="13.32954544508292"><ele>1117.8</ele><time>2026-04-27T12:46:05Z</time></trkpt><trkpt lat="42.1360172352559" lon="13.32947195901889"><ele>1118.6</ele><time>2026-04-27T12:46:06Z</time></trkpt><trkpt lat="42.13609782462605" lon="13.329389374596312"><ele>1119.3999999999999</ele><time>2026-04-27T12:46:07Z</time></trkpt><trkpt lat="42.13615287814532" lon="13.32931188961044"><ele>1120.2</ele><time>2026-04-27T12:46:08Z</time></trkpt><trkpt lat="42.13623088595208" lon="13.329156707659259"><ele>1121.0</ele><time>2026-04-27T12:46:10Z</time></trkpt><trkpt lat="42.13632284585327" lon="13.329036665366706"><ele>1121.0</ele><time>2026-04-27T12:46:12Z</time></trkpt><trkpt lat="42.13640762016112" lon="13.328922434409177"><ele>1121.0</ele><time>2026-04-27T12:46:14Z</time></trkpt><trkpt lat="42.13648824497956" lon="13.3288288341024"><ele>1121.0</ele><time>2026-04-27T12:46:16Z</time></trkpt><trkpt lat="42.136556882409856" lon="13.328741171059045"><ele>1121.0</ele><time>2026-04-27T12:46:18Z</time></trkpt><trkpt lat="42.13649518343468" lon="13.32869340058541"><ele>1121.0</ele><time>2026-04-27T12:46:20Z</time></trkpt><trkpt lat="42.13644083508894" lon="13.32873969071306"><ele>1121.0</ele><time>2026-04-27T12:46:22Z</time></trkpt><trkpt lat="42.13642695414753" lon="13.328896693788188"><ele>1121.0</ele><time>2026-04-27T12:46:24Z</time></trkpt><trkpt lat="42.136394676953074" lon="13.328983772859289"><ele>1121.0</ele><time>2026-04-27T12:46:25Z</time></trkpt><trkpt lat="42.136320048496316" lon="13.329044604382771"><ele>1121.0</ele><time>2026-04-27T12:46:26Z</time></trkpt><trkpt lat="42.13625015487956" lon="13.329116923396066"><ele>1121.0</ele><time>2026-04-27T12:46:27Z</time></trkpt><trkpt lat="42.13618094831906" lon="13.329212997842056"><ele>1121.0</ele><time>2026-04-27T12:46:28Z</time></trkpt><trkpt lat="42.13611807059724" lon="13.329327250646966"><ele>1121.0</ele><time>2026-04-27T12:46:29Z</time></trkpt><trkpt lat="42.13606157222114" lon="13.329436782452328"><ele>1121.0</ele><time>2026-04-27T12:46:30Z</time></trkpt><trkpt lat="42.135995245021185" lon="13.329529133716596"><ele>1121.0</ele><time>2026-04-27T12:46:31Z</time></trkpt><trkpt lat="42.13589075062376" lon="13.329625667622091"><ele>1121.0</ele><time>2026-04-27T12:46:33Z</time></trkpt><trkpt lat="42.135835772579576" lon="13.329674979133008"><ele>1120.3333333333335</ele><time>2026-04-27T12:46:34Z</time></trkpt><trkpt lat="42.13577277812418" lon="13.329763822474227"><ele>1119.6666666666667</ele><time>2026-04-27T12:46:35.999Z</time></trkpt><trkpt lat="42.13569178119206" lon="13.329754933698588"><ele>1119.0</ele><time>2026-04-27T12:46:38.999Z</time></trkpt><trkpt lat="42.13563460723437" lon="13.329692188855054"><ele>1118.3333333333333</ele><time>2026-04-27T12:46:40.999Z</time></trkpt><trkpt lat="42.13558865040118" lon="13.329615616481703"><ele>1117.6666666666665</ele><time>2026-04-27T12:46:42.999Z</time></trkpt><trkpt lat="42.13556752965403" lon="13.329534834594487"><ele>1117.0</ele><time>2026-04-27T12:46:45.999Z</time></trkpt><trkpt lat="42.13563569378789" lon="13.32948310873375"><ele>1117.0</ele><time>2026-04-27T12:47:07.999Z</time></trkpt><trkpt lat="42.13566443490057" lon="13.329568701944936"><ele>1117.0</ele><time>2026-04-27T12:47:11.999Z</time></trkpt><trkpt lat="42.135677054617865" lon="13.329663730760808"><ele>1117.0</ele><time>2026-04-27T12:47:17.999Z</time></trkpt><trkpt lat="42.13574387735447" lon="13.329735381827838"><ele>1117.0</ele><time>2026-04-27T12:47:20Z</time></trkpt><trkpt lat="42.13573726835595" lon="13.32988706255981"><ele>1117.0</ele><time>2026-04-27T12:47:22Z</time></trkpt><trkpt lat="42.135718348913095" lon="13.330006277906762"><ele>1117.0</ele><time>2026-04-27T12:47:23Z</time></trkpt><trkpt lat="42.13570507663714" lon="13.330089781110562"><ele>1116.1666666666665</ele><time>2026-04-27T12:47:24Z</time></trkpt><trkpt lat="42.13569575812108" lon="13.330174018239523"><ele>1115.3333333333333</ele><time>2026-04-27T12:47:25Z</time></trkpt><trkpt lat="42.135676405359625" lon="13.330277060111639"><ele>1114.5</ele><time>2026-04-27T12:47:26Z</time></trkpt><trkpt lat="42.13565346884222" lon="13.330387030621479"><ele>1113.6666666666667</ele><time>2026-04-27T12:47:27Z</time></trkpt><trkpt lat="42.135633968871495" lon="13.330495643164243"><ele>1112.8333333333335</ele><time>2026-04-27T12:47:28Z</time></trkpt><trkpt lat="42.13562279596398" lon="13.330615271681102"><ele>1112.0</ele><time>2026-04-27T12:47:29Z</time></trkpt><trkpt lat="42.13561088409046" lon="13.330727576317985"><ele>1110.8</ele><time>2026-04-27T12:47:30Z</time></trkpt><trkpt lat="42.13559498639087" lon="13.330848264113794"><ele>1109.6</ele><time>2026-04-27T12:47:31Z</time></trkpt><trkpt lat="42.135574257480314" lon="13.331006475251716"><ele>1108.3999999999999</ele><time>2026-04-27T12:47:32Z</time></trkpt><trkpt lat="42.135560723009306" lon="13.331130836638788"><ele>1107.2</ele><time>2026-04-27T12:47:33Z</time></trkpt><trkpt lat="42.135521389495175" lon="13.331255254254678"><ele>1106.0</ele><time>2026-04-27T12:47:34Z</time></trkpt><trkpt lat="42.13548108271661" lon="13.331378511206264"><ele>1106.0</ele><time>2026-04-27T12:47:35Z</time></trkpt><trkpt lat="42.13543250174497" lon="13.331463964316209"><ele>1106.0</ele><time>2026-04-27T12:47:36Z</time></trkpt><trkpt lat="42.135364864617145" lon="13.331538648990096"><ele>1106.0</ele><time>2026-04-27T12:47:37Z</time></trkpt><trkpt lat="42.13528589992809" lon="13.331594817920301"><ele>1106.0</ele><time>2026-04-27T12:47:38Z</time></trkpt><trkpt lat="42.135193837704875" lon="13.33164325635121"><ele>1106.0</ele><time>2026-04-27T12:47:39Z</time></trkpt><trkpt lat="42.135081410932195" lon="13.331685331680136"><ele>1106.0</ele><time>2026-04-27T12:47:40Z</time></trkpt><trkpt lat="42.134992693868774" lon="13.331712102709448"><ele>1106.0</ele><time>2026-04-27T12:47:41Z</time></trkpt><trkpt lat="42.13490775119789" lon="13.331736694260595"><ele>1106.0</ele><time>2026-04-27T12:47:42Z</time></trkpt><trkpt lat="42.1348375374165" lon="13.331783995572026"><ele>1106.0</ele><time>2026-04-27T12:47:43Z</time></trkpt><trkpt lat="42.13477377883005" lon="13.331831141085708"><ele>1106.0</ele><time>2026-04-27T12:47:44Z</time></trkpt><trkpt lat="42.13471039482512" lon="13.331905030432019"><ele>1106.0</ele><time>2026-04-27T12:47:45Z</time></trkpt><trkpt lat="42.13464030912386" lon="13.331968746240445"><ele>1105.1666666666667</ele><time>2026-04-27T12:47:46Z</time></trkpt><trkpt lat="42.134574835941585" lon="13.332015552211187"><ele>1104.3333333333335</ele><time>2026-04-27T12:47:47Z</time></trkpt><trkpt lat="42.13450938474682" lon="13.332048709748578"><ele>1103.5</ele><time>2026-04-27T12:47:48Z</time></trkpt><trkpt lat="42.13442524359442" lon="13.332053781565827"><ele>1102.6666666666667</ele><time>2026-04-27T12:47:50Z</time></trkpt><trkpt lat="42.134354874974306" lon="13.33206889574731"><ele>1101.8333333333333</ele><time>2026-04-27T12:48:12Z</time></trkpt><trkpt lat="42.13423786830023" lon="13.33207860662205"><ele>1101.0</ele><time>2026-04-27T12:48:14Z</time></trkpt><trkpt lat="42.13415537829881" lon="13.33208277152254"><ele>1101.0</ele><time>2026-04-27T12:48:15Z</time></trkpt><trkpt lat="42.134063641140344" lon="13.332089592162887"><ele>1101.0</ele><time>2026-04-27T12:48:16Z</time></trkpt><trkpt lat="42.133985724277885" lon="13.33209216561225"><ele>1101.0</ele><time>2026-04-27T12:48:17Z</time></trkpt><trkpt lat="42.133908726883554" lon="13.332092507643074"><ele>1101.0</ele><time>2026-04-27T12:48:18Z</time></trkpt><trkpt lat="42.13383360478411" lon="13.332092906148654"><ele>1101.0</ele><time>2026-04-27T12:48:19Z</time></trkpt><trkpt lat="42.133760283622564" lon="13.332080691721103"><ele>1101.0</ele><time>2026-04-27T12:48:20Z</time></trkpt><trkpt lat="42.13367418270554" lon="13.332050159108487"><ele>1100.2</ele><time>2026-04-27T12:48:21Z</time></trkpt><trkpt lat="42.13361100199018" lon="13.33201165707885"><ele>1099.3999999999999</ele><time>2026-04-27T12:48:22Z</time></trkpt><trkpt lat="42.13354826914128" lon="13.331978043853148"><ele>1098.6</ele><time>2026-04-27T12:48:23Z</time></trkpt><trkpt lat="42.133451450001914" lon="13.331925157279723"><ele>1097.8</ele><time>2026-04-27T12:48:25Z</time></trkpt><trkpt lat="42.13336912564322" lon="13.331830056897374"><ele>1097.0</ele><time>2026-04-27T12:48:27Z</time></trkpt><trkpt lat="42.13332014360529" lon="13.33169862704664"><ele>1097.0</ele><time>2026-04-27T12:48:29Z</time></trkpt><trkpt lat="42.133282818147755" lon="13.331515600877221"><ele>1097.0</ele><time>2026-04-27T12:48:31Z</time></trkpt><trkpt lat="42.13323666768443" lon="13.331424038543696"><ele>1097.0</ele><time>2026-04-27T12:48:32Z</time></trkpt><trkpt lat="42.133196977264724" lon="13.331337016908778"><ele>1097.0</ele><time>2026-04-27T12:48:33Z</time></trkpt><trkpt lat="42.13314912361409" lon="13.331257766732891"><ele>1097.0</ele><time>2026-04-27T12:48:34Z</time></trkpt><trkpt lat="42.13307222946888" lon="13.331163471073186"><ele>1093.25</ele><time>2026-04-27T12:48:35Z</time></trkpt><trkpt lat="42.13297081428866" lon="13.331062357787776"><ele>1089.5</ele><time>2026-04-27T12:48:36Z</time></trkpt><trkpt lat="42.13284699166507" lon="13.330969574758791"><ele>1085.75</ele><time>2026-04-27T12:48:37Z</time></trkpt><trkpt lat="42.132731511859596" lon="13.33088309108038"><ele>1082.0</ele><time>2026-04-27T12:48:38Z</time></trkpt><trkpt lat="42.13261934380337" lon="13.330795314051974"><ele>1082.0</ele><time>2026-04-27T12:48:39Z</time></trkpt><trkpt lat="42.13249990486595" lon="13.330705047596894"><ele>1082.0</ele><time>2026-04-27T12:48:40Z</time></trkpt><trkpt lat="42.132387351227784" lon="13.33061324661996"><ele>1082.0</ele><time>2026-04-27T12:48:40.999Z</time></trkpt><trkpt lat="42.13225865664049" lon="13.330516952491294"><ele>1082.0</ele><time>2026-04-27T12:48:41.999Z</time></trkpt><trkpt lat="42.13214442656292" lon="13.330423378025856"><ele>1078.5</ele><time>2026-04-27T12:48:42.999Z</time></trkpt><trkpt lat="42.132018172330454" lon="13.330331931650651"><ele>1075.0</ele><time>2026-04-27T12:48:43.999Z</time></trkpt><trkpt lat="42.131887206371566" lon="13.330274490423815"><ele>1071.5</ele><time>2026-04-27T12:48:44.999Z</time></trkpt><trkpt lat="42.13173125988432" lon="13.330202352156322"><ele>1068.0</ele><time>2026-04-27T12:48:45.999Z</time></trkpt><trkpt lat="42.13160235710666" lon="13.330143088905995"><ele>1067.0</ele><time>2026-04-27T12:48:46.999Z</time></trkpt><trkpt lat="42.131495600214734" lon="13.330078933196917"><ele>1066.0</ele><time>2026-04-27T12:48:47.999Z</time></trkpt><trkpt lat="42.13141829095906" lon="13.330000061536767"><ele>1065.0</ele><time>2026-04-27T12:48:48.999Z</time></trkpt><trkpt lat="42.13137063279153" lon="13.329908253534025"><ele>1064.0</ele><time>2026-04-27T12:48:49.999Z</time></trkpt><trkpt lat="42.13133632430958" lon="13.329807461197895"><ele>1063.0</ele><time>2026-04-27T12:48:50.999Z</time></trkpt><trkpt lat="42.13127729917139" lon="13.329696067706365"><ele>1062.8333333333333</ele><time>2026-04-27T12:48:51.999Z</time></trkpt><trkpt lat="42.13120133713358" lon="13.32960696833187"><ele>1062.6666666666665</ele><time>2026-04-27T12:48:52.999Z</time></trkpt><trkpt lat="42.13112243811239" lon="13.329579396866114"><ele>1062.5</ele><time>2026-04-27T12:48:53.999Z</time></trkpt><trkpt lat="42.13102269851044" lon="13.32956209227681"><ele>1062.3333333333333</ele><time>2026-04-27T12:48:54.999Z</time></trkpt><trkpt lat="42.1309329266867" lon="13.329545737580853"><ele>1062.1666666666667</ele><time>2026-04-27T12:48:55.999Z</time></trkpt><trkpt lat="42.1308648871065" lon="13.32951151477329"><ele>1062.0</ele><time>2026-04-27T12:48:57Z</time></trkpt><trkpt lat="42.13079757093564" lon="13.329475153195046"><ele>1062.0</ele><time>2026-04-27T12:48:58Z</time></trkpt><trkpt lat="42.13072525655544" lon="13.329413468662601"><ele>1062.0</ele><time>2026-04-27T12:49:00Z</time></trkpt><trkpt lat="42.130747064263225" lon="13.32932370081355"><ele>1062.0</ele><time>2026-04-27T12:49:02Z</time></trkpt><trkpt lat="42.13069725713869" lon="13.329155579918474"><ele>1062.0</ele><time>2026-04-27T12:49:07Z</time></trkpt><trkpt lat="42.13069061880011" lon="13.329025386055578"><ele>1062.0</ele><time>2026-04-27T12:49:08Z</time></trkpt><trkpt lat="42.130679538743884" lon="13.328886788430866"><ele>1062.0</ele><time>2026-04-27T12:49:09Z</time></trkpt><trkpt lat="42.13067205357" lon="13.328744061306454"><ele>1062.0</ele><time>2026-04-27T12:49:10Z</time></trkpt><trkpt lat="42.13066736625015" lon="13.328595261158869"><ele>1062.0</ele><time>2026-04-27T12:49:11Z</time></trkpt><trkpt lat="42.1306526912822" lon="13.328466934142908"><ele>1062.0</ele><time>2026-04-27T12:49:12Z</time></trkpt><trkpt lat="42.13068680380261" lon="13.328351269304378"><ele>1062.0</ele><time>2026-04-27T12:49:13Z</time></trkpt><trkpt lat="42.13069293358953" lon="13.328243306811219"><ele>1062.0</ele><time>2026-04-27T12:49:14Z</time></trkpt><trkpt lat="42.130720587306456" lon="13.32816178029768"><ele>1062.0</ele><time>2026-04-27T12:49:15Z</time></trkpt><trkpt lat="42.130719414781936" lon="13.328037854034285"><ele>1062.0</ele><time>2026-04-27T12:49:17Z</time></trkpt><trkpt lat="42.13060796503806" lon="13.327995985189277"><ele>1062.0</ele><time>2026-04-27T12:49:20Z</time></trkpt><trkpt lat="42.130539354835236" lon="13.327976892984505"><ele>1062.0</ele><time>2026-04-27T12:49:21Z</time></trkpt><trkpt lat="42.1304660101422" lon="13.328064327816072"><ele>1062.0</ele><time>2026-04-27T12:49:22Z</time></trkpt><trkpt lat="42.13040505294309" lon="13.328101125187207"><ele>1062.5</ele><time>2026-04-27T12:49:23Z</time></trkpt><trkpt lat="42.130313513543804" lon="13.327836015293029"><ele>1063.0</ele><time>2026-04-27T12:49:26Z</time></trkpt><trkpt lat="42.130371871052425" lon="13.327705409439597"><ele>1063.5</ele><time>2026-04-27T12:49:28Z</time></trkpt><trkpt lat="42.13040967304843" lon="13.327605883708507"><ele>1064.0</ele><time>2026-04-27T12:49:29Z</time></trkpt><trkpt lat="42.13041330889196" lon="13.327511403239464"><ele>1064.0</ele><time>2026-04-27T12:49:30Z</time></trkpt><trkpt lat="42.13040261036605" lon="13.327402685786621"><ele>1064.0</ele><time>2026-04-27T12:49:31Z</time></trkpt><trkpt lat="42.130393536941064" lon="13.327292775944207"><ele>1064.0</ele><time>2026-04-27T12:49:32Z</time></trkpt><trkpt lat="42.13041119388576" lon="13.327020965082456"><ele>1064.0</ele><time>2026-04-27T12:49:33Z</time></trkpt><trkpt lat="42.13043985884145" lon="13.326839365486682"><ele>1065.5</ele><time>2026-04-27T12:49:34Z</time></trkpt><trkpt lat="42.13048340862306" lon="13.326690031934705"><ele>1067.0</ele><time>2026-04-27T12:49:35Z</time></trkpt><trkpt lat="42.13052587410169" lon="13.326539011873805"><ele>1068.5</ele><time>2026-04-27T12:49:36Z</time></trkpt><trkpt lat="42.13054165487972" lon="13.326367829915226"><ele>1070.0</ele><time>2026-04-27T12:49:37Z</time></trkpt><trkpt lat="42.130553970644485" lon="13.326184321112096"><ele>1071.8</ele><time>2026-04-27T12:49:38Z</time></trkpt><trkpt lat="42.13056386035793" lon="13.326007860516096"><ele>1073.6</ele><time>2026-04-27T12:49:39Z</time></trkpt><trkpt lat="42.13057087614462" lon="13.325872467363823"><ele>1075.4</ele><time>2026-04-27T12:49:40Z</time></trkpt><trkpt lat="42.13057058981587" lon="13.325742104480197"><ele>1077.2</ele><time>2026-04-27T12:49:41Z</time></trkpt><trkpt lat="42.13056069893416" lon="13.32560285922577"><ele>1079.0</ele><time>2026-04-27T12:49:42Z</time></trkpt><trkpt lat="42.13056022871085" lon="13.325461678369834"><ele>1079.8333333333335</ele><time>2026-04-27T12:49:43Z</time></trkpt><trkpt lat="42.13059009621113" lon="13.32534116835741"><ele>1080.6666666666667</ele><time>2026-04-27T12:49:44Z</time></trkpt><trkpt lat="42.13061361018373" lon="13.325255602255933"><ele>1081.5</ele><time>2026-04-27T12:49:45Z</time></trkpt><trkpt lat="42.13059496325241" lon="13.325126939931733"><ele>1082.3333333333333</ele><time>2026-04-27T12:49:47Z</time></trkpt><trkpt lat="42.13056045368322" lon="13.325034538708104"><ele>1083.1666666666665</ele><time>2026-04-27T12:49:48Z</time></trkpt><trkpt lat="42.13053607116693" lon="13.324916583420483"><ele>1084.0</ele><time>2026-04-27T12:49:49Z</time></trkpt><trkpt lat="42.13051688005039" lon="13.324801272002588"><ele>1084.0</ele><time>2026-04-27T12:49:50Z</time></trkpt><trkpt lat="42.130506798618754" lon="13.324692652294894"><ele>1084.0</ele><time>2026-04-27T12:49:51Z</time></trkpt><trkpt lat="42.13053378593357" lon="13.32459615697229"><ele>1084.0</ele><time>2026-04-27T12:49:52Z</time></trkpt><trkpt lat="42.13056844896606" lon="13.324519314349592"><ele>1084.0</ele><time>2026-04-27T12:49:53Z</time></trkpt><trkpt lat="42.130614201638046" lon="13.324441097682785"><ele>1084.0</ele><time>2026-04-27T12:49:54Z</time></trkpt><trkpt lat="42.13068311958354" lon="13.324370519979107"><ele>1084.0</ele><time>2026-04-27T12:49:55Z</time></trkpt><trkpt lat="42.130738527052756" lon="13.324322645359777"><ele>1084.0</ele><time>2026-04-27T12:49:56Z</time></trkpt><trkpt lat="42.130755059754115" lon="13.324154056269785"><ele>1084.0</ele><time>2026-04-27T12:49:58Z</time></trkpt><trkpt lat="42.130744006266745" lon="13.32402890230805"><ele>1084.0</ele><time>2026-04-27T12:49:59Z</time></trkpt><trkpt lat="42.13072127925873" lon="13.323900675278916"><ele>1084.0</ele><time>2026-04-27T12:50:00Z</time></trkpt><trkpt lat="42.130694338399664" lon="13.323761780230342"><ele>1084.0</ele><time>2026-04-27T12:50:01Z</time></trkpt><trkpt lat="42.13069824476775" lon="13.323644213137468"><ele>1085.0</ele><time>2026-04-27T12:50:02Z</time></trkpt><trkpt lat="42.130721535047996" lon="13.32351793656037"><ele>1086.0</ele><time>2026-04-27T12:50:03Z</time></trkpt><trkpt lat="42.13075353081496" lon="13.323366683182053"><ele>1087.0</ele><time>2026-04-27T12:50:04Z</time></trkpt><trkpt lat="42.13078828615543" lon="13.323202065841775"><ele>1088.0</ele><time>2026-04-27T12:50:05Z</time></trkpt><trkpt lat="42.130826460209256" lon="13.32303971490051"><ele>1085.8</ele><time>2026-04-27T12:50:06Z</time></trkpt><trkpt lat="42.13085857820951" lon="13.322908667663654"><ele>1083.6</ele><time>2026-04-27T12:50:07Z</time></trkpt><trkpt lat="42.13089086749523" lon="13.322779185011596"><ele>1081.4</ele><time>2026-04-27T12:50:08Z</time></trkpt><trkpt lat="42.130925045411665" lon="13.322638866020993"><ele>1079.2</ele><time>2026-04-27T12:50:09Z</time></trkpt><trkpt lat="42.13095154739281" lon="13.32252642408805"><ele>1077.0</ele><time>2026-04-27T12:50:10Z</time></trkpt><trkpt lat="42.13098393550837" lon="13.32243735873425"><ele>1077.0</ele><time>2026-04-27T12:50:11Z</time></trkpt><trkpt lat="42.13100906443502" lon="13.322344648456465"><ele>1077.0</ele><time>2026-04-27T12:50:12Z</time></trkpt><trkpt lat="42.131000597412495" lon="13.322252332802092"><ele>1077.0</ele><time>2026-04-27T12:50:13Z</time></trkpt><trkpt lat="42.13097631642291" lon="13.32213783328277"><ele>1077.0</ele><time>2026-04-27T12:50:14Z</time></trkpt><trkpt lat="42.13095109141052" lon="13.321996784209786"><ele>1077.0</ele><time>2026-04-27T12:50:15Z</time></trkpt><trkpt lat="42.1309221889936" lon="13.321825997798776"><ele>1077.0</ele><time>2026-04-27T12:50:16Z</time></trkpt><trkpt lat="42.13091108489708" lon="13.321639368358852"><ele>1077.0</ele><time>2026-04-27T12:50:17Z</time></trkpt><trkpt lat="42.130909495905655" lon="13.321437987306405"><ele>1077.0</ele><time>2026-04-27T12:50:18Z</time></trkpt><trkpt lat="42.13090373026881" lon="13.321235996213836"><ele>1077.0</ele><time>2026-04-27T12:50:19Z</time></trkpt><trkpt lat="42.13089581854319" lon="13.32106074894987"><ele>1076.5</ele><time>2026-04-27T12:50:20Z</time></trkpt><trkpt lat="42.1308862792964" lon="13.320892179985737"><ele>1076.0</ele><time>2026-04-27T12:50:21Z</time></trkpt><trkpt lat="42.13087161624632" lon="13.320717569153185"><ele>1075.5</ele><time>2026-04-27T12:50:22Z</time></trkpt><trkpt lat="42.13085635061554" lon="13.320541297519112"><ele>1075.0</ele><time>2026-04-27T12:50:23Z</time></trkpt><trkpt lat="42.13084095262991" lon="13.32039676662852"><ele>1075.0</ele><time>2026-04-27T12:50:24Z</time></trkpt><trkpt lat="42.1308482126186" lon="13.320309385301487"><ele>1075.0</ele><time>2026-04-27T12:50:25Z</time></trkpt><trkpt lat="42.13093550645445" lon="13.320207680855802"><ele>1075.0</ele><time>2026-04-27T12:50:27Z</time></trkpt><trkpt lat="42.130982858097866" lon="13.320127681113938"><ele>1075.0</ele><time>2026-04-27T12:50:28Z</time></trkpt><trkpt lat="42.13098181604634" lon="13.320020553775292"><ele>1075.0</ele><time>2026-04-27T12:50:30Z</time></trkpt><trkpt lat="42.13092783570905" lon="13.319930112994646"><ele>1075.0</ele><time>2026-04-27T12:50:32Z</time></trkpt><trkpt lat="42.130973318925385" lon="13.319789442406968"><ele>1075.3333333333333</ele><time>2026-04-27T12:50:34Z</time></trkpt><trkpt lat="42.13100224164824" lon="13.319687485792485"><ele>1075.6666666666665</ele><time>2026-04-27T12:50:35Z</time></trkpt><trkpt lat="42.13103150404034" lon="13.319610777897868"><ele>1076.0</ele><time>2026-04-27T12:50:36Z</time></trkpt><trkpt lat="42.13105736758713" lon="13.319449164137282"><ele>1076.3333333333333</ele><time>2026-04-27T12:50:38Z</time></trkpt><trkpt lat="42.13109223200155" lon="13.319357541183475"><ele>1076.6666666666667</ele><time>2026-04-27T12:50:39Z</time></trkpt><trkpt lat="42.13114183914851" lon="13.31930342459556"><ele>1077.0</ele><time>2026-04-27T12:50:40Z</time></trkpt><trkpt lat="42.1312049005621" lon="13.31925579749868"><ele>1077.0</ele><time>2026-04-27T12:50:41Z</time></trkpt><trkpt lat="42.13126477802185" lon="13.319186307843301"><ele>1077.0</ele><time>2026-04-27T12:50:42Z</time></trkpt><trkpt lat="42.1313018087344" lon="13.31910317296768"><ele>1077.0</ele><time>2026-04-27T12:50:43Z</time></trkpt><trkpt lat="42.131328324818824" lon="13.318978354621732"><ele>1077.0</ele><time>2026-04-27T12:50:44Z</time></trkpt><trkpt lat="42.13137209037262" lon="13.318829562636589"><ele>1077.0</ele><time>2026-04-27T12:50:45Z</time></trkpt><trkpt lat="42.131411519188795" lon="13.31871266549885"><ele>1075.8</ele><time>2026-04-27T12:50:46Z</time></trkpt><trkpt lat="42.13144545843771" lon="13.31861072794307"><ele>1074.6</ele><time>2026-04-27T12:50:47Z</time></trkpt><trkpt lat="42.131509166590426" lon="13.318444418820292"><ele>1073.3999999999999</ele><time>2026-04-27T12:50:49Z</time></trkpt><trkpt lat="42.13154891293882" lon="13.318371480351733"><ele>1072.2</ele><time>2026-04-27T12:50:50Z</time></trkpt><trkpt lat="42.13166154062044" lon="13.318260011256767"><ele>1071.0</ele><time>2026-04-27T12:50:52Z</time></trkpt><trkpt lat="42.131729569312164" lon="13.318199640850768"><ele>1069.2</ele><time>2026-04-27T12:50:53Z</time></trkpt><trkpt lat="42.13179393991725" lon="13.31811662104935"><ele>1067.3999999999999</ele><time>2026-04-27T12:50:54Z</time></trkpt><trkpt lat="42.131865407711764" lon="13.31800423837728"><ele>1065.6</ele><time>2026-04-27T12:50:55Z</time></trkpt><trkpt lat="42.13193654540014" lon="13.317887849339892"><ele>1063.8</ele><time>2026-04-27T12:50:56Z</time></trkpt><trkpt lat="42.131934158567056" lon="13.31774452478462"><ele>1062.0</ele><time>2026-04-27T12:50:58Z</time></trkpt><trkpt lat="42.131929332250245" lon="13.317659664593593"><ele>1060.8</ele><time>2026-04-27T12:50:59Z</time></trkpt><trkpt lat="42.131990623562004" lon="13.317535856650409"><ele>1059.6</ele><time>2026-04-27T12:51:01Z</time></trkpt><trkpt lat="42.13203997269756" lon="13.317448919258549"><ele>1058.3999999999999</ele><time>2026-04-27T12:51:02Z</time></trkpt><trkpt lat="42.13208727386003" lon="13.317322299627211"><ele>1057.2</ele><time>2026-04-27T12:51:03Z</time></trkpt><trkpt lat="42.132158843606675" lon="13.317219382863057"><ele>1056.0</ele><time>2026-04-27T12:51:04Z</time></trkpt><trkpt lat="42.13224580313976" lon="13.317094632085757"><ele>1055.6</ele><time>2026-04-27T12:51:05Z</time></trkpt><trkpt lat="42.132326434979085" lon="13.316994545856296"><ele>1055.1999999999998</ele><time>2026-04-27T12:51:06Z</time></trkpt><trkpt lat="42.13239527172262" lon="13.316907927982419"><ele>1054.8000000000002</ele><time>2026-04-27T12:51:07Z</time></trkpt><trkpt lat="42.132456726219466" lon="13.316829651128957"><ele>1054.4</ele><time>2026-04-27T12:51:08Z</time></trkpt><trkpt lat="42.13252723976693" lon="13.316761937215015"><ele>1054.0</ele><time>2026-04-27T12:51:09Z</time></trkpt><trkpt lat="42.13260971653866" lon="13.316657228273174"><ele>1054.0</ele><time>2026-04-27T12:51:10Z</time></trkpt><trkpt lat="42.132685619374286" lon="13.316548078434115"><ele>1054.0</ele><time>2026-04-27T12:51:11Z</time></trkpt><trkpt lat="42.13274625661137" lon="13.316454713107806"><ele>1054.0</ele><time>2026-04-27T12:51:12Z</time></trkpt><trkpt lat="42.1328134620025" lon="13.316359943784226"><ele>1054.0</ele><time>2026-04-27T12:51:13Z</time></trkpt><trkpt lat="42.13287731128762" lon="13.316265741418803"><ele>1054.0</ele><time>2026-04-27T12:51:14Z</time></trkpt><trkpt lat="42.13292553102839" lon="13.316187335384342"><ele>1053.3333333333333</ele><time>2026-04-27T12:51:15Z</time></trkpt><trkpt lat="42.132967753087044" lon="13.316116368384249"><ele>1052.6666666666665</ele><time>2026-04-27T12:51:16Z</time></trkpt><trkpt lat="42.13304570907951" lon="13.316004413078364"><ele>1052.0</ele><time>2026-04-27T12:51:18Z</time></trkpt><trkpt lat="42.13308620549274" lon="13.315859803957656"><ele>1051.3333333333333</ele><time>2026-04-27T12:51:20Z</time></trkpt><trkpt lat="42.133083687486234" lon="13.315767296809502"><ele>1050.6666666666667</ele><time>2026-04-27T12:51:21Z</time></trkpt><trkpt lat="42.133062270072976" lon="13.315669046148864"><ele>1050.0</ele><time>2026-04-27T12:51:22Z</time></trkpt><trkpt lat="42.13302651711084" lon="13.315582883008885"><ele>1049.6666666666667</ele><time>2026-04-27T12:51:23Z</time></trkpt><trkpt lat="42.13296896673885" lon="13.315530363179969"><ele>1049.3333333333333</ele><time>2026-04-27T12:51:24Z</time></trkpt><trkpt lat="42.13289410958278" lon="13.31551095337847"><ele>1049.0</ele><time>2026-04-27T12:51:25Z</time></trkpt><trkpt lat="42.13280829838781" lon="13.315500484586389"><ele>1048.6666666666665</ele><time>2026-04-27T12:51:26Z</time></trkpt><trkpt lat="42.132736932767806" lon="13.315479610453504"><ele>1048.3333333333333</ele><time>2026-04-27T12:51:27Z</time></trkpt><trkpt lat="42.132667820540306" lon="13.31539947286751"><ele>1048.0</ele><time>2026-04-27T12:51:28Z</time></trkpt><trkpt lat="42.132609063496254" lon="13.315279346519729"><ele>1048.0</ele><time>2026-04-27T12:51:29Z</time></trkpt><trkpt lat="42.13254765112861" lon="13.315139769500165"><ele>1048.0</ele><time>2026-04-27T12:51:30Z</time></trkpt><trkpt lat="42.13250325682279" lon="13.314986893937823"><ele>1048.0</ele><time>2026-04-27T12:51:31Z</time></trkpt><trkpt lat="42.13248436977777" lon="13.314850941214928"><ele>1048.0</ele><time>2026-04-27T12:51:32Z</time></trkpt><trkpt lat="42.13243825036152" lon="13.314719649223978"><ele>1048.0</ele><time>2026-04-27T12:51:33Z</time></trkpt><trkpt lat="42.13239504027825" lon="13.314606426410341"><ele>1048.0</ele><time>2026-04-27T12:51:34Z</time></trkpt><trkpt lat="42.13233109580988" lon="13.31450519102056"><ele>1048.0</ele><time>2026-04-27T12:51:35Z</time></trkpt><trkpt lat="42.13224143595205" lon="13.314402530576427"><ele>1048.0</ele><time>2026-04-27T12:51:36Z</time></trkpt><trkpt lat="42.13213355791955" lon="13.314291423858215"><ele>1048.0</ele><time>2026-04-27T12:51:37Z</time></trkpt><trkpt lat="42.132027250673595" lon="13.314166610608472"><ele>1048.1666666666665</ele><time>2026-04-27T12:51:38Z</time></trkpt><trkpt lat="42.13194826656073" lon="13.314062561093543"><ele>1048.3333333333333</ele><time>2026-04-27T12:51:39Z</time></trkpt><trkpt lat="42.131904903947934" lon="13.313998720837898"><ele>1048.5</ele><time>2026-04-27T12:51:40Z</time></trkpt><trkpt lat="42.131850752298234" lon="13.313902931171423"><ele>1048.6666666666667</ele><time>2026-04-27T12:51:42Z</time></trkpt><trkpt lat="42.13182720335486" lon="13.313784468816108"><ele>1048.8333333333335</ele><time>2026-04-27T12:51:45Z</time></trkpt><trkpt lat="42.13182330685857" lon="13.313663395502209"><ele>1049.0</ele><time>2026-04-27T12:51:47Z</time></trkpt><trkpt lat="42.131820735066505" lon="13.313572456641165"><ele>1049.6000000000001</ele><time>2026-04-27T12:51:48Z</time></trkpt><trkpt lat="42.13181807207192" lon="13.313464063135736"><ele>1050.2</ele><time>2026-04-27T12:51:49Z</time></trkpt><trkpt lat="42.13182573156251" lon="13.313324766145591"><ele>1050.8000000000002</ele><time>2026-04-27T12:51:50Z</time></trkpt><trkpt lat="42.13182557212983" lon="13.313189813092492"><ele>1051.4</ele><time>2026-04-27T12:51:51Z</time></trkpt><trkpt lat="42.131825943582896" lon="13.313042234440273"><ele>1052.0</ele><time>2026-04-27T12:51:52Z</time></trkpt><trkpt lat="42.13182885012552" lon="13.312903643023228"><ele>1052.6</ele><time>2026-04-27T12:51:53Z</time></trkpt><trkpt lat="42.13184689630655" lon="13.312783662273889"><ele>1053.2</ele><time>2026-04-27T12:51:54Z</time></trkpt><trkpt lat="42.131877759260895" lon="13.312667115451866"><ele>1053.8</ele><time>2026-04-27T12:51:55Z</time></trkpt><trkpt lat="42.13192819508791" lon="13.312557806888199"><ele>1054.4</ele><time>2026-04-27T12:51:56Z</time></trkpt><trkpt lat="42.13199423377629" lon="13.312462191655442"><ele>1055.0</ele><time>2026-04-27T12:51:57Z</time></trkpt><trkpt lat="42.132067678068424" lon="13.312386196950143"><ele>1055.0</ele><time>2026-04-27T12:51:58Z</time></trkpt><trkpt lat="42.132134070463096" lon="13.312313225029914"><ele>1055.0</ele><time>2026-04-27T12:51:59Z</time></trkpt><trkpt lat="42.132176732716985" lon="13.312244225732725"><ele>1055.0</ele><time>2026-04-27T12:52:00Z</time></trkpt><trkpt lat="42.132206985125" lon="13.312090932288788"><ele>1055.0</ele><time>2026-04-27T12:52:02Z</time></trkpt><trkpt lat="42.132303793318954" lon="13.312014636411645"><ele>1055.0</ele><time>2026-04-27T12:52:04Z</time></trkpt><trkpt lat="42.1323804600326" lon="13.311914770081207"><ele>1053.0</ele><time>2026-04-27T12:52:06Z</time></trkpt><trkpt lat="42.13239912035055" lon="13.31182967291467"><ele>1051.0</ele><time>2026-04-27T12:52:07Z</time></trkpt><trkpt lat="42.13244423621842" lon="13.311749964491169"><ele>1049.0</ele><time>2026-04-27T12:52:08Z</time></trkpt><trkpt lat="42.132522997561836" lon="13.311700575706714"><ele>1047.0</ele><time>2026-04-27T12:52:09Z</time></trkpt><trkpt lat="42.13261068240873" lon="13.311654817552524"><ele>1045.0</ele><time>2026-04-27T12:52:10Z</time></trkpt><trkpt lat="42.13268540929371" lon="13.311618800201623"><ele>1043.0</ele><time>2026-04-27T12:52:11Z</time></trkpt><trkpt lat="42.132746033071776" lon="13.311565364353383"><ele>1043.0</ele><time>2026-04-27T12:52:12Z</time></trkpt><trkpt lat="42.13278960542458" lon="13.311470763598383"><ele>1043.0</ele><time>2026-04-27T12:52:13Z</time></trkpt><trkpt lat="42.13282461249136" lon="13.311381455454294"><ele>1043.0</ele><time>2026-04-27T12:52:14Z</time></trkpt><trkpt lat="42.13285870879137" lon="13.311303455097216"><ele>1043.0</ele><time>2026-04-27T12:52:15Z</time></trkpt><trkpt lat="42.13292631274282" lon="13.311248451542115"><ele>1043.0</ele><time>2026-04-27T12:52:16Z</time></trkpt><trkpt lat="42.13300664421078" lon="13.31121645787369"><ele>1043.0</ele><time>2026-04-27T12:52:17Z</time></trkpt><trkpt lat="42.13309896571864" lon="13.311177845033148"><ele>1044.0</ele><time>2026-04-27T12:52:18Z</time></trkpt><trkpt lat="42.13319807797982" lon="13.311153042150405"><ele>1045.0</ele><time>2026-04-27T12:52:19Z</time></trkpt><trkpt lat="42.133259506825766" lon="13.311125456682802"><ele>1046.0</ele><time>2026-04-27T12:52:20Z</time></trkpt><trkpt lat="42.13325809076452" lon="13.31098395529304"><ele>1047.0</ele><time>2026-04-27T12:52:22Z</time></trkpt><trkpt lat="42.133262891240946" lon="13.310879836734753"><ele>1048.0</ele><time>2026-04-27T12:52:23Z</time></trkpt><trkpt lat="42.133298810605915" lon="13.310791449946755"><ele>1049.0</ele><time>2026-04-27T12:52:24Z</time></trkpt><trkpt lat="42.13334179280362" lon="13.310704122503173"><ele>1047.3333333333335</ele><time>2026-04-27T12:52:25Z</time></trkpt><trkpt lat="42.13339704587544" lon="13.310649323895417"><ele>1045.6666666666667</ele><time>2026-04-27T12:52:26Z</time></trkpt><trkpt lat="42.13346242074978" lon="13.310596903283995"><ele>1044.0</ele><time>2026-04-27T12:52:27Z</time></trkpt><trkpt lat="42.13352199215866" lon="13.310536810861594"><ele>1042.3333333333333</ele><time>2026-04-27T12:52:28Z</time></trkpt><trkpt lat="42.13356145171369" lon="13.31046458158436"><ele>1040.6666666666665</ele><time>2026-04-27T12:53:04Z</time></trkpt><trkpt lat="42.13362162959946" lon="13.310372200002748"><ele>1039.0</ele><time>2026-04-27T12:53:34Z</time></trkpt><trkpt lat="42.1336758237044" lon="13.31025138235312"><ele>1039.0</ele><time>2026-04-27T12:53:36Z</time></trkpt><trkpt lat="42.13371068815495" lon="13.310155925834765"><ele>1039.0</ele><time>2026-04-27T12:53:38Z</time></trkpt><trkpt lat="42.13377624736711" lon="13.310053057298786"><ele>1039.0</ele><time>2026-04-27T12:53:40Z</time></trkpt><trkpt lat="42.13386559205101" lon="13.310022887854386"><ele>1039.0</ele><time>2026-04-27T12:53:42Z</time></trkpt><trkpt lat="42.1339400608029" lon="13.31000666159342"><ele>1039.0</ele><time>2026-04-27T12:53:43Z</time></trkpt><trkpt lat="42.13403939990189" lon="13.309985125008819"><ele>1039.0</ele><time>2026-04-27T12:53:45Z</time></trkpt><trkpt lat="42.13409602398087" lon="13.309841985515163"><ele>1035.3333333333333</ele><time>2026-04-27T12:53:47Z</time></trkpt><trkpt lat="42.13415126394653" lon="13.309717817123213"><ele>1031.6666666666665</ele><time>2026-04-27T12:53:49Z</time></trkpt><trkpt lat="42.134127822754344" lon="13.309583297386734"><ele>1028.0</ele><time>2026-04-27T12:53:51Z</time></trkpt><trkpt lat="42.13412646947122" lon="13.309471220671353"><ele>1024.3333333333333</ele><time>2026-04-27T12:53:53Z</time></trkpt><trkpt lat="42.134170237254104" lon="13.309404844562073"><ele>1020.6666666666666</ele><time>2026-04-27T12:53:54Z</time></trkpt><trkpt lat="42.13423054647851" lon="13.309327966814266"><ele>1017.0</ele><time>2026-04-27T12:53:55Z</time></trkpt><trkpt lat="42.134266669192016" lon="13.309257046013691"><ele>1017.0</ele><time>2026-04-27T12:53:56Z</time></trkpt><trkpt lat="42.1343335750034" lon="13.309107459261167"><ele>1017.0</ele><time>2026-04-27T12:53:58Z</time></trkpt><trkpt lat="42.13437755269712" lon="13.309036709723319"><ele>1017.0</ele><time>2026-04-27T12:53:59Z</time></trkpt><trkpt lat="42.134483085273146" lon="13.308933540221323"><ele>1017.0</ele><time>2026-04-27T12:54:01Z</time></trkpt><trkpt lat="42.13457341000089" lon="13.308812978205914"><ele>1017.0</ele><time>2026-04-27T12:54:03Z</time></trkpt><trkpt lat="42.13468009249658" lon="13.308719275414258"><ele>1017.0</ele><time>2026-04-27T12:54:05Z</time></trkpt><trkpt lat="42.13471994003217" lon="13.308632079582374"><ele>1017.0</ele><time>2026-04-27T12:54:07Z</time></trkpt><trkpt lat="42.134696830219696" lon="13.308508778888474"><ele>1017.0</ele><time>2026-04-27T12:54:09Z</time></trkpt><trkpt lat="42.134689295775054" lon="13.308396799899624"><ele>1017.0</ele><time>2026-04-27T12:54:11Z</time></trkpt><trkpt lat="42.134702370413486" lon="13.308226369589212"><ele>1017.0</ele><time>2026-04-27T12:54:13Z</time></trkpt><trkpt lat="42.134695031564206" lon="13.308105280192272"><ele>1017.0</ele><time>2026-04-27T12:54:14Z</time></trkpt><trkpt lat="42.13469289650533" lon="13.308006164590235"><ele>1017.0</ele><time>2026-04-27T12:54:15Z</time></trkpt><trkpt lat="42.134715296214175" lon="13.307892065500074"><ele>1017.0</ele><time>2026-04-27T12:54:16Z</time></trkpt><trkpt lat="42.134733064610444" lon="13.307800476131696"><ele>1017.0</ele><time>2026-04-27T12:54:17Z</time></trkpt><trkpt lat="42.13480196647514" lon="13.30769593291072"><ele>1017.0</ele><time>2026-04-27T12:54:19Z</time></trkpt><trkpt lat="42.134844628438294" lon="13.307619898061859"><ele>1015.0</ele><time>2026-04-27T12:54:20Z</time></trkpt><trkpt lat="42.13485704900809" lon="13.307460448655643"><ele>1013.0</ele><time>2026-04-27T12:54:22Z</time></trkpt><trkpt lat="42.13480223390293" lon="13.307383224099535"><ele>1011.0</ele><time>2026-04-27T12:54:23Z</time></trkpt><trkpt lat="42.134725783718004" lon="13.307280169438785"><ele>1009.0</ele><time>2026-04-27T12:54:24Z</time></trkpt><trkpt lat="42.13466035445729" lon="13.307152105509994"><ele>1007.0</ele><time>2026-04-27T12:54:25Z</time></trkpt><trkpt lat="42.13461139883174" lon="13.307054485670273"><ele>1004.5000000000001</ele><time>2026-04-27T12:54:26Z</time></trkpt><trkpt lat="42.13455895263472" lon="13.306949223734462"><ele>1002.0</ele><time>2026-04-27T12:54:27Z</time></trkpt><trkpt lat="42.13452653302599" lon="13.306832816076591"><ele>999.5</ele><time>2026-04-27T12:54:28Z</time></trkpt><trkpt lat="42.134501999227716" lon="13.306728643161259"><ele>997.0</ele><time>2026-04-27T12:54:29Z</time></trkpt><trkpt lat="42.13451940572668" lon="13.306644463297928"><ele>994.5000000000001</ele><time>2026-04-27T12:54:30Z</time></trkpt><trkpt lat="42.13451162114458" lon="13.306513677278378"><ele>992.0</ele><time>2026-04-27T12:54:31Z</time></trkpt><trkpt lat="42.13450770601485" lon="13.306400516998252"><ele>989.4000000000001</ele><time>2026-04-27T12:54:32Z</time></trkpt><trkpt lat="42.134529180212326" lon="13.306279519143743"><ele>986.8000000000001</ele><time>2026-04-27T12:54:33Z</time></trkpt><trkpt lat="42.134546254942464" lon="13.306165346005422"><ele>984.2</ele><time>2026-04-27T12:54:34Z</time></trkpt><trkpt lat="42.13451133963824" lon="13.306090006099183"><ele>981.6</ele><time>2026-04-27T12:54:36Z</time></trkpt><trkpt lat="42.134396957704084" lon="13.306008586937674"><ele>979.0</ele><time>2026-04-27T12:54:38Z</time></trkpt><trkpt lat="42.13438373128535" lon="13.305853838482848"><ele>979.0</ele><time>2026-04-27T12:54:40Z</time></trkpt><trkpt lat="42.134390802428726" lon="13.305732571378027"><ele>979.0000000000001</ele><time>2026-04-27T12:54:41Z</time></trkpt><trkpt lat="42.134378746966675" lon="13.305618005799337"><ele>979.0000000000001</ele><time>2026-04-27T12:54:42Z</time></trkpt><trkpt lat="42.13435874629768" lon="13.305499744031286"><ele>979.0</ele><time>2026-04-27T12:54:43Z</time></trkpt><trkpt lat="42.13434527712557" lon="13.305382832734963"><ele>979.0</ele><time>2026-04-27T12:54:44Z</time></trkpt><trkpt lat="42.13433383801479" lon="13.305233411875884"><ele>977.4999999999999</ele><time>2026-04-27T12:54:45Z</time></trkpt><trkpt lat="42.134307812382175" lon="13.305080076409501"><ele>976.0</ele><time>2026-04-27T12:54:46Z</time></trkpt><trkpt lat="42.13427680366938" lon="13.304931774489518"><ele>974.5</ele><time>2026-04-27T12:54:47Z</time></trkpt><trkpt lat="42.1342496600545" lon="13.304835445754964"><ele>973.0</ele><time>2026-04-27T12:54:48Z</time></trkpt><trkpt lat="42.13423180262777" lon="13.304743267035951"><ele>971.4999999999999</ele><time>2026-04-27T12:54:49Z</time></trkpt><trkpt lat="42.13422135431621" lon="13.30465742805864"><ele>970.0</ele><time>2026-04-27T12:54:50Z</time></trkpt><trkpt lat="42.134228921175826" lon="13.30455080415554"><ele>968.6666666666666</ele><time>2026-04-27T12:54:51Z</time></trkpt><trkpt lat="42.1342414940661" lon="13.304436876428746"><ele>967.3333333333333</ele><time>2026-04-27T12:54:52Z</time></trkpt><trkpt lat="42.13422844368227" lon="13.304342123480325"><ele>966.0</ele><time>2026-04-27T12:54:53Z</time></trkpt><trkpt lat="42.13421487943259" lon="13.304229046353502"><ele>964.6666666666667</ele><time>2026-04-27T12:54:54Z</time></trkpt><trkpt lat="42.134204100075415" lon="13.304120908866949"><ele>963.3333333333334</ele><time>2026-04-27T12:54:55Z</time></trkpt><trkpt lat="42.13417900762784" lon="13.303982571534064"><ele>962.0</ele><time>2026-04-27T12:54:56Z</time></trkpt><trkpt lat="42.13415925601572" lon="13.303835817651265"><ele>961.6</ele><time>2026-04-27T12:54:57.001Z</time></trkpt><trkpt lat="42.1341342461344" lon="13.303683827701287"><ele>961.2</ele><time>2026-04-27T12:54:58Z</time></trkpt><trkpt lat="42.13411936934948" lon="13.30356014517745"><ele>960.8</ele><time>2026-04-27T12:54:59Z</time></trkpt><trkpt lat="42.134123449562566" lon="13.303448653289074"><ele>960.4</ele><time>2026-04-27T12:55:00Z</time></trkpt><trkpt lat="42.134163003595546" lon="13.303350442610018"><ele>960.0</ele><time>2026-04-27T12:55:01Z</time></trkpt><trkpt lat="42.13421368285389" lon="13.30326479979355"><ele>960.0</ele><time>2026-04-27T12:55:02Z</time></trkpt><trkpt lat="42.13426715331538" lon="13.30312828326628"><ele>960.0</ele><time>2026-04-27T12:55:03Z</time></trkpt><trkpt lat="42.13432572817336" lon="13.302988537331712"><ele>960.0</ele><time>2026-04-27T12:55:04Z</time></trkpt><trkpt lat="42.134391712356866" lon="13.302848325820397"><ele>960.0</ele><time>2026-04-27T12:55:05Z</time></trkpt><trkpt lat="42.1344411199331" lon="13.302739845501051"><ele>961.0</ele><time>2026-04-27T12:55:06Z</time></trkpt><trkpt lat="42.134492024820986" lon="13.302606477902595"><ele>962.0</ele><time>2026-04-27T12:55:07Z</time></trkpt><trkpt lat="42.13454450808258" lon="13.302460755129971"><ele>963.0</ele><time>2026-04-27T12:55:08Z</time></trkpt><trkpt lat="42.134585773830445" lon="13.302331579474993"><ele>964.0</ele><time>2026-04-27T12:55:09Z</time></trkpt><trkpt lat="42.13457486078175" lon="13.302217190987852"><ele>965.0</ele><time>2026-04-27T12:55:11Z</time></trkpt><trkpt lat="42.134543856075105" lon="13.302140577045781"><ele>966.2</ele><time>2026-04-27T12:55:13Z</time></trkpt><trkpt lat="42.13465582718231" lon="13.30203169935895"><ele>967.4</ele><time>2026-04-27T12:55:15Z</time></trkpt><trkpt lat="42.1347348742703" lon="13.30192833598663"><ele>968.5999999999999</ele><time>2026-04-27T12:55:16Z</time></trkpt><trkpt lat="42.134758417532424" lon="13.301846568357442"><ele>969.8</ele><time>2026-04-27T12:55:17Z</time></trkpt><trkpt lat="42.13477701904017" lon="13.3017168114956"><ele>971.0</ele><time>2026-04-27T12:55:18Z</time></trkpt><trkpt lat="42.13481071199629" lon="13.301601912996606"><ele>971.0</ele><time>2026-04-27T12:55:19Z</time></trkpt><trkpt lat="42.13486706037872" lon="13.301520474816092"><ele>970.9999999999999</ele><time>2026-04-27T12:55:20Z</time></trkpt><trkpt lat="42.13494246085661" lon="13.301451301602036"><ele>970.9999999999999</ele><time>2026-04-27T12:55:21Z</time></trkpt><trkpt lat="42.13503893915149" lon="13.3013708545985"><ele>971.0</ele><time>2026-04-27T12:55:22Z</time></trkpt><trkpt lat="42.135139777812746" lon="13.30126315378449"><ele>971.0</ele><time>2026-04-27T12:55:23Z</time></trkpt><trkpt lat="42.13521811243202" lon="13.301152942013998"><ele>965.8</ele><time>2026-04-27T12:55:24Z</time></trkpt><trkpt lat="42.13527886028283" lon="13.301058202230841"><ele>960.5999999999999</ele><time>2026-04-27T12:55:25Z</time></trkpt><trkpt lat="42.135331263889924" lon="13.301001193322202"><ele>955.4</ele><time>2026-04-27T12:55:26Z</time></trkpt><trkpt lat="42.13543411774707" lon="13.300914569360073"><ele>950.2</ele><time>2026-04-27T12:55:28Z</time></trkpt><trkpt lat="42.135508242378506" lon="13.300879407341775"><ele>945.0</ele><time>2026-04-27T12:55:29Z</time></trkpt><trkpt lat="42.135598142276415" lon="13.300851479061647"><ele>945.0</ele><time>2026-04-27T12:55:30Z</time></trkpt><trkpt lat="42.135660620552564" lon="13.300808044957456"><ele>945.0</ele><time>2026-04-27T12:55:31Z</time></trkpt><trkpt lat="42.13568842076672" lon="13.30072237027637"><ele>945.0</ele><time>2026-04-27T12:55:32Z</time></trkpt><trkpt lat="42.13578823353118" lon="13.30065407136512"><ele>945.0</ele><time>2026-04-27T12:55:34Z</time></trkpt><trkpt lat="42.135934830391506" lon="13.300693897868072"><ele>945.0</ele><time>2026-04-27T12:55:36Z</time></trkpt><trkpt lat="42.13600485533289" lon="13.300680902527905"><ele>944.8</ele><time>2026-04-27T12:55:37Z</time></trkpt><trkpt lat="42.13610200305247" lon="13.300649322910731"><ele>944.6</ele><time>2026-04-27T12:55:38Z</time></trkpt><trkpt lat="42.13619822555049" lon="13.300585277581323"><ele>944.4000000000001</ele><time>2026-04-27T12:55:39Z</time></trkpt><trkpt lat="42.13628489205267" lon="13.300512155515337"><ele>944.2</ele><time>2026-04-27T12:55:40Z</time></trkpt><trkpt lat="42.136360974953526" lon="13.300376963158572"><ele>944.0</ele><time>2026-04-27T12:55:42Z</time></trkpt><trkpt lat="42.13639161355885" lon="13.30029929751039"><ele>943.5000000000001</ele><time>2026-04-27T12:55:43Z</time></trkpt><trkpt lat="42.136443470761186" lon="13.300202590679245"><ele>943.0</ele><time>2026-04-27T12:55:44Z</time></trkpt><trkpt lat="42.13648404390348" lon="13.300135552020299"><ele>942.5</ele><time>2026-04-27T12:55:45Z</time></trkpt><trkpt lat="42.136529927692486" lon="13.300063767741614"><ele>942.0</ele><time>2026-04-27T12:55:46Z</time></trkpt><trkpt lat="42.136597738658445" lon="13.299956006669415"><ele>941.5000000000001</ele><time>2026-04-27T12:55:47Z</time></trkpt><trkpt lat="42.13665819906566" lon="13.299851456763205"><ele>941.0</ele><time>2026-04-27T12:55:48Z</time></trkpt><trkpt lat="42.13671621046188" lon="13.299721652960224"><ele>939.1999999999999</ele><time>2026-04-27T12:55:49Z</time></trkpt><trkpt lat="42.136749606780484" lon="13.29960027246332"><ele>937.3999999999999</ele><time>2026-04-27T12:55:50Z</time></trkpt><trkpt lat="42.13677288561232" lon="13.299488155496332"><ele>935.6</ele><time>2026-04-27T12:55:51Z</time></trkpt><trkpt lat="42.136790799237225" lon="13.29933548683955"><ele>933.8</ele><time>2026-04-27T12:55:52Z</time></trkpt><trkpt lat="42.136811639728364" lon="13.299164368608261"><ele>932.0</ele><time>2026-04-27T12:55:53Z</time></trkpt><trkpt lat="42.13683613713998" lon="13.29898334014192"><ele>931.0</ele><time>2026-04-27T12:55:54Z</time></trkpt><trkpt lat="42.13687256705348" lon="13.298773597201013"><ele>930.0</ele><time>2026-04-27T12:55:55Z</time></trkpt><trkpt lat="42.13690906518125" lon="13.298598894627805"><ele>929.0</ele><time>2026-04-27T12:55:56Z</time></trkpt><trkpt lat="42.13694537071905" lon="13.298431803604117"><ele>928.0</ele><time>2026-04-27T12:55:57Z</time></trkpt><trkpt lat="42.13698839422013" lon="13.298296468283933"><ele>928.0</ele><time>2026-04-27T12:55:58Z</time></trkpt><trkpt lat="42.137011327493774" lon="13.298216249363312"><ele>928.0</ele><time>2026-04-27T12:55:59Z</time></trkpt><trkpt lat="42.1369799165818" lon="13.298079701317915"><ele>928.0</ele><time>2026-04-27T12:56:01Z</time></trkpt><trkpt lat="42.13689730235001" lon="13.298078381102577"><ele>928.0</ele><time>2026-04-27T12:56:03Z</time></trkpt><trkpt lat="42.136794497444384" lon="13.298153147234629"><ele>928.0</ele><time>2026-04-27T12:56:05Z</time></trkpt><trkpt lat="42.13664728996938" lon="13.298111614154962"><ele>928.8</ele><time>2026-04-27T12:56:07Z</time></trkpt><trkpt lat="42.1365670703032" lon="13.298035857379267"><ele>929.5999999999999</ele><time>2026-04-27T12:56:09Z</time></trkpt><trkpt lat="42.13651633788202" lon="13.297883363174954"><ele>930.4000000000001</ele><time>2026-04-27T12:56:11Z</time></trkpt><trkpt lat="42.13651939060688" lon="13.29778609840307"><ele>931.2</ele><time>2026-04-27T12:56:12Z</time></trkpt><trkpt lat="42.136557378843584" lon="13.297698710986925"><ele>932.0</ele><time>2026-04-27T12:56:13Z</time></trkpt><trkpt lat="42.136621032359244" lon="13.297600977821538"><ele>932.0</ele><time>2026-04-27T12:56:14Z</time></trkpt><trkpt lat="42.136680029418976" lon="13.297499514148065"><ele>932.0</ele><time>2026-04-27T12:56:15Z</time></trkpt><trkpt lat="42.13670575097679" lon="13.29739804890647"><ele>932.0</ele><time>2026-04-27T12:56:16Z</time></trkpt><trkpt lat="42.13669910696296" lon="13.297277881533681"><ele>932.0</ele><time>2026-04-27T12:56:17Z</time></trkpt><trkpt lat="42.13669308553667" lon="13.297097079670161"><ele>932.0</ele><time>2026-04-27T12:56:18Z</time></trkpt><trkpt lat="42.13668109037215" lon="13.296931863718092"><ele>931.0</ele><time>2026-04-27T12:56:19Z</time></trkpt><trkpt lat="42.136686225105194" lon="13.29674279871425"><ele>930.0</ele><time>2026-04-27T12:56:20Z</time></trkpt><trkpt lat="42.136711366549655" lon="13.2966031141759"><ele>929.0</ele><time>2026-04-27T12:56:21Z</time></trkpt><trkpt lat="42.136729595083914" lon="13.296467041443107"><ele>928.0</ele><time>2026-04-27T12:56:22Z</time></trkpt><trkpt lat="42.13670769887179" lon="13.296311378904536"><ele>926.75</ele><time>2026-04-27T12:56:23Z</time></trkpt><trkpt lat="42.13667360669828" lon="13.29614004678142"><ele>925.5</ele><time>2026-04-27T12:56:24Z</time></trkpt><trkpt lat="42.13665786971874" lon="13.295959645743315"><ele>924.25</ele><time>2026-04-27T12:56:25Z</time></trkpt><trkpt lat="42.13665499641734" lon="13.295787092458841"><ele>923.0</ele><time>2026-04-27T12:56:26Z</time></trkpt><trkpt lat="42.13664600997113" lon="13.295648547224781"><ele>921.75</ele><time>2026-04-27T12:56:27Z</time></trkpt><trkpt lat="42.13665693898546" lon="13.295518012193932"><ele>920.5</ele><time>2026-04-27T12:56:28Z</time></trkpt><trkpt lat="42.13667176238952" lon="13.295354270008884"><ele>919.25</ele><time>2026-04-27T12:56:29Z</time></trkpt><trkpt lat="42.136667830492215" lon="13.295188198258856"><ele>918.0</ele><time>2026-04-27T12:56:30Z</time></trkpt><trkpt lat="42.136637528094916" lon="13.295010173049855"><ele>918.0</ele><time>2026-04-27T12:56:31Z</time></trkpt><trkpt lat="42.13659714414767" lon="13.294853384714006"><ele>918.0</ele><time>2026-04-27T12:56:32Z</time></trkpt><trkpt lat="42.13657006371988" lon="13.294707193506634"><ele>918.0</ele><time>2026-04-27T12:56:33Z</time></trkpt><trkpt lat="42.13654320637725" lon="13.294549554800678"><ele>918.0</ele><time>2026-04-27T12:56:34Z</time></trkpt><trkpt lat="42.13651457995113" lon="13.294378610860218"><ele>916.2</ele><time>2026-04-27T12:56:35Z</time></trkpt><trkpt lat="42.136493890739445" lon="13.29424065269511"><ele>914.4</ele><time>2026-04-27T12:56:36Z</time></trkpt><trkpt lat="42.136474392812595" lon="13.29411519773571"><ele>912.6000000000001</ele><time>2026-04-27T12:56:37Z</time></trkpt><trkpt lat="42.136482092409594" lon="13.29402085766766"><ele>910.8000000000001</ele><time>2026-04-27T12:56:38Z</time></trkpt><trkpt lat="42.13650525669815" lon="13.293913200072808"><ele>909.0</ele><time>2026-04-27T12:56:39Z</time></trkpt><trkpt lat="42.13646942965755" lon="13.29377331853052"><ele>909.0</ele><time>2026-04-27T12:56:41Z</time></trkpt><trkpt lat="42.13640961304568" lon="13.29371871890246"><ele>909.0</ele><time>2026-04-27T12:56:42Z</time></trkpt><trkpt lat="42.13635692026208" lon="13.293660101803537"><ele>909.0</ele><time>2026-04-27T12:56:43Z</time></trkpt><trkpt lat="42.136319967368415" lon="13.293533530714045"><ele>909.0</ele><time>2026-04-27T12:56:44Z</time></trkpt><trkpt lat="42.13631554051317" lon="13.293417805357779"><ele>909.0</ele><time>2026-04-27T12:56:45Z</time></trkpt><trkpt lat="42.13631988609001" lon="13.293321263994416"><ele>909.0</ele><time>2026-04-27T12:56:46Z</time></trkpt><trkpt lat="42.1362962654408" lon="13.293183323412451"><ele>908.6</ele><time>2026-04-27T12:56:47Z</time></trkpt><trkpt lat="42.13624931424504" lon="13.29305975579764"><ele>908.2</ele><time>2026-04-27T12:56:48Z</time></trkpt><trkpt lat="42.13620296263001" lon="13.292905455628816"><ele>907.8000000000001</ele><time>2026-04-27T12:56:49Z</time></trkpt><trkpt lat="42.13618659817398" lon="13.292761446440075"><ele>907.4000000000001</ele><time>2026-04-27T12:56:50Z</time></trkpt><trkpt lat="42.13618993569534" lon="13.292633172968774"><ele>907.0</ele><time>2026-04-27T12:56:51Z</time></trkpt><trkpt lat="42.13621321646808" lon="13.292451360830038"><ele>907.0</ele><time>2026-04-27T12:56:52Z</time></trkpt><trkpt lat="42.13623161348561" lon="13.292274559343008"><ele>907.0</ele><time>2026-04-27T12:56:53Z</time></trkpt><trkpt lat="42.13625787322013" lon="13.2921088022689"><ele>907.0</ele><time>2026-04-27T12:56:54Z</time></trkpt><trkpt lat="42.13627752657998" lon="13.291959699354285"><ele>907.0</ele><time>2026-04-27T12:56:55Z</time></trkpt><trkpt lat="42.136285281761204" lon="13.291814955804133"><ele>905.2</ele><time>2026-04-27T12:56:56Z</time></trkpt><trkpt lat="42.13629127761455" lon="13.291670785602411"><ele>903.4000000000001</ele><time>2026-04-27T12:56:57Z</time></trkpt><trkpt lat="42.13629497300293" lon="13.291576357884711"><ele>901.5999999999999</ele><time>2026-04-27T12:56:58Z</time></trkpt><trkpt lat="42.1363007559824" lon="13.291444996383653"><ele>899.8</ele><time>2026-04-27T12:57:00Z</time></trkpt><trkpt lat="42.13640161656895" lon="13.291366061422998"><ele>898.0</ele><time>2026-04-27T12:57:02Z</time></trkpt><trkpt lat="42.13645235543222" lon="13.291290143101829"><ele>896.8</ele><time>2026-04-27T12:57:03Z</time></trkpt><trkpt lat="42.13648566324954" lon="13.291171299086217"><ele>895.5999999999999</ele><time>2026-04-27T12:57:04Z</time></trkpt><trkpt lat="42.13650337606987" lon="13.291021395172924"><ele>894.4000000000001</ele><time>2026-04-27T12:57:05Z</time></trkpt><trkpt lat="42.13652291465775" lon="13.290930641827401"><ele>893.2</ele><time>2026-04-27T12:57:06Z</time></trkpt><trkpt lat="42.136553593402816" lon="13.290803077216815"><ele>892.0</ele><time>2026-04-27T12:57:07Z</time></trkpt><trkpt lat="42.13666172950267" lon="13.290740689116944"><ele>892.0</ele><time>2026-04-27T12:57:09Z</time></trkpt><trkpt lat="42.13673393904469" lon="13.290752438809376"><ele>892.0</ele><time>2026-04-27T12:57:10Z</time></trkpt><trkpt lat="42.13683849202279" lon="13.29074149834077"><ele>892.0</ele><time>2026-04-27T12:57:11Z</time></trkpt><trkpt lat="42.13696048271547" lon="13.290740950174687"><ele>892.0</ele><time>2026-04-27T12:57:12Z</time></trkpt><trkpt lat="42.137087875798294" lon="13.290744499450057"><ele>892.0</ele><time>2026-04-27T12:57:13Z</time></trkpt><trkpt lat="42.13718360219034" lon="13.290741642597174"><ele>892.0</ele><time>2026-04-27T12:57:14Z</time></trkpt><trkpt lat="42.137251565696914" lon="13.290679125931014"><ele>892.0</ele><time>2026-04-27T12:57:16Z</time></trkpt><trkpt lat="42.137226066746486" lon="13.290535632800134"><ele>892.0</ele><time>2026-04-27T12:57:18Z</time></trkpt><trkpt lat="42.137127944685595" lon="13.290496520741138"><ele>892.0</ele><time>2026-04-27T12:57:20Z</time></trkpt><trkpt lat="42.13705658138719" lon="13.290485595342227"><ele>892.0</ele><time>2026-04-27T12:57:21Z</time></trkpt><trkpt lat="42.13696839293801" lon="13.290449798474148"><ele>889.4999999999999</ele><time>2026-04-27T12:57:22Z</time></trkpt><trkpt lat="42.13688056778578" lon="13.290408305450702"><ele>887.0</ele><time>2026-04-27T12:57:23Z</time></trkpt><trkpt lat="42.13681441427888" lon="13.290369154575659"><ele>884.5</ele><time>2026-04-27T12:57:24Z</time></trkpt><trkpt lat="42.136809316674295" lon="13.290247631129798"><ele>882.0</ele><time>2026-04-27T12:57:26Z</time></trkpt><trkpt lat="42.136860111377736" lon="13.290189542663592"><ele>879.4999999999999</ele><time>2026-04-27T12:57:27Z</time></trkpt><trkpt lat="42.13693814937586" lon="13.290107858603278"><ele>877.0</ele><time>2026-04-27T12:57:28Z</time></trkpt><trkpt lat="42.137018637894215" lon="13.29000663689089"><ele>877.0</ele><time>2026-04-27T12:57:29Z</time></trkpt><trkpt lat="42.13709255972312" lon="13.289908433518342"><ele>877.0</ele><time>2026-04-27T12:57:30Z</time></trkpt><trkpt lat="42.13715233451159" lon="13.289809037928173"><ele>877.0</ele><time>2026-04-27T12:57:31Z</time></trkpt><trkpt lat="42.13718106901345" lon="13.289684263719495"><ele>877.0</ele><time>2026-04-27T12:57:32Z</time></trkpt><trkpt lat="42.13719085322825" lon="13.289559759014486"><ele>877.0</ele><time>2026-04-27T12:57:33Z</time></trkpt><trkpt lat="42.137195086520315" lon="13.289448609135347"><ele>874.2</ele><time>2026-04-27T12:57:34Z</time></trkpt><trkpt lat="42.13715177608078" lon="13.289330789796793"><ele>871.4000000000001</ele><time>2026-04-27T12:57:36Z</time></trkpt><trkpt lat="42.13704943663584" lon="13.289222921621246"><ele>868.5999999999999</ele><time>2026-04-27T12:57:38Z</time></trkpt><trkpt lat="42.1370659409638" lon="13.289093276591315"><ele>865.8</ele><time>2026-04-27T12:57:40Z</time></trkpt><trkpt lat="42.13715997593282" lon="13.289013151768835"><ele>863.0</ele><time>2026-04-27T12:57:42Z</time></trkpt><trkpt lat="42.13722686291022" lon="13.288951875354796"><ele>861.0</ele><time>2026-04-27T12:57:43Z</time></trkpt><trkpt lat="42.1372075021439" lon="13.288772738563413"><ele>859.0</ele><time>2026-04-27T12:57:45Z</time></trkpt><trkpt lat="42.137154039909845" lon="13.288655926251257"><ele>857.0</ele><time>2026-04-27T12:57:46Z</time></trkpt><trkpt lat="42.13709105711633" lon="13.288525617164742"><ele>855.0</ele><time>2026-04-27T12:57:47Z</time></trkpt><trkpt lat="42.13703370148198" lon="13.288372815362136"><ele>855.0</ele><time>2026-04-27T12:57:48Z</time></trkpt><trkpt lat="42.137008573219404" lon="13.288214862225425"><ele>855.0</ele><time>2026-04-27T12:57:49Z</time></trkpt><trkpt lat="42.137016913504816" lon="13.28809691012826"><ele>855.0</ele><time>2026-04-27T12:57:50Z</time></trkpt><trkpt lat="42.137068320674565" lon="13.287995974193846"><ele>855.0</ele><time>2026-04-27T12:57:52Z</time></trkpt><trkpt lat="42.13716470236512" lon="13.288042797970327"><ele>855.0</ele><time>2026-04-27T12:57:54Z</time></trkpt><trkpt lat="42.1371995079453" lon="13.288119926300181"><ele>855.0</ele><time>2026-04-27T12:57:55Z</time></trkpt><trkpt lat="42.137253897882765" lon="13.288244680526358"><ele>855.0</ele><time>2026-04-27T12:57:57Z</time></trkpt><trkpt lat="42.137373215255735" lon="13.288311019835884"><ele>855.0</ele><time>2026-04-27T12:57:59Z</time></trkpt><trkpt lat="42.13743258084785" lon="13.288355370277465"><ele>855.0</ele><time>2026-04-27T12:58:00Z</time></trkpt><trkpt lat="42.13750845961742" lon="13.288406268275851"><ele>855.0</ele><time>2026-04-27T12:58:01Z</time></trkpt><trkpt lat="42.13759503274293" lon="13.288472730613677"><ele>855.3333333333334</ele><time>2026-04-27T12:58:02Z</time></trkpt><trkpt lat="42.13768060479274" lon="13.28854350500447"><ele>855.6666666666667</ele><time>2026-04-27T12:58:03Z</time></trkpt><trkpt lat="42.137745164220085" lon="13.288595543399447"><ele>856.0</ele><time>2026-04-27T12:58:04Z</time></trkpt><trkpt lat="42.13781283184329" lon="13.288610752691026"><ele>856.3333333333334</ele><time>2026-04-27T12:58:05Z</time></trkpt><trkpt lat="42.1378738829785" lon="13.288564461133005"><ele>856.6666666666667</ele><time>2026-04-27T12:58:06Z</time></trkpt><trkpt lat="42.137918123526255" lon="13.288490526151877"><ele>857.0</ele><time>2026-04-27T12:58:07Z</time></trkpt><trkpt lat="42.13794815774976" lon="13.288383953411525"><ele>857.0</ele><time>2026-04-27T12:58:08Z</time></trkpt><trkpt lat="42.13794312755896" lon="13.28824746650981"><ele>857.0</ele><time>2026-04-27T12:58:09.001Z</time></trkpt><trkpt lat="42.137921957044604" lon="13.288102004018217"><ele>857.0</ele><time>2026-04-27T12:58:10.001Z</time></trkpt><trkpt lat="42.13787293605285" lon="13.287947752991267"><ele>857.0</ele><time>2026-04-27T12:58:11.001Z</time></trkpt><trkpt lat="42.13780956866953" lon="13.287794261698993"><ele>855.0</ele><time>2026-04-27T12:58:12.001Z</time></trkpt><trkpt lat="42.1377491458236" lon="13.28762988155296"><ele>853.0</ele><time>2026-04-27T12:58:13.001Z</time></trkpt><trkpt lat="42.1377076910156" lon="13.287442525688833"><ele>851.0</ele><time>2026-04-27T12:58:14.001Z</time></trkpt><trkpt lat="42.13768268692085" lon="13.287292189208209"><ele>849.0</ele><time>2026-04-27T12:58:15.001Z</time></trkpt><trkpt lat="42.137681063762884" lon="13.28713684949519"><ele>847.4000000000001</ele><time>2026-04-27T12:58:16.001Z</time></trkpt><trkpt lat="42.13769384845346" lon="13.287004195605201"><ele>845.8</ele><time>2026-04-27T12:58:17.001Z</time></trkpt><trkpt lat="42.137693966733934" lon="13.286889402828626"><ele>844.2</ele><time>2026-04-27T12:58:18.001Z</time></trkpt><trkpt lat="42.137689524413595" lon="13.286775897671184"><ele>842.5999999999999</ele><time>2026-04-27T12:58:19.001Z</time></trkpt><trkpt lat="42.13767817486453" lon="13.28667338091182"><ele>841.0</ele><time>2026-04-27T12:58:20.001Z</time></trkpt><trkpt lat="42.1376523138369" lon="13.286500227864336"><ele>840.5999999999999</ele><time>2026-04-27T12:58:21.001Z</time></trkpt><trkpt lat="42.13765174630614" lon="13.28636713042662"><ele>840.2</ele><time>2026-04-27T12:58:22.001Z</time></trkpt><trkpt lat="42.13764541765146" lon="13.286241304452963"><ele>839.8</ele><time>2026-04-27T12:58:23.001Z</time></trkpt><trkpt lat="42.13763295928385" lon="13.286108083823619"><ele>839.4000000000001</ele><time>2026-04-27T12:58:24.001Z</time></trkpt><trkpt lat="42.13760646626036" lon="13.285997336753457"><ele>839.0</ele><time>2026-04-27T12:58:25.001Z</time></trkpt><trkpt lat="42.13757339703414" lon="13.285903722175311"><ele>839.0</ele><time>2026-04-27T12:58:26.001Z</time></trkpt><trkpt lat="42.13758987985209" lon="13.285739680755492"><ele>839.0</ele><time>2026-04-27T12:58:28.001Z</time></trkpt><trkpt lat="42.13763378585676" lon="13.28566524025614"><ele>839.0</ele><time>2026-04-27T12:58:29.001Z</time></trkpt><trkpt lat="42.13777103258795" lon="13.285671065452428"><ele>839.0</ele><time>2026-04-27T12:58:31.001Z</time></trkpt><trkpt lat="42.1378772465675" lon="13.2857438322997"><ele>839.0</ele><time>2026-04-27T12:58:32.001Z</time></trkpt><trkpt lat="42.13801279919819" lon="13.285816246749318"><ele>839.0</ele><time>2026-04-27T12:58:33.001Z</time></trkpt><trkpt lat="42.138132024146465" lon="13.285862986676113"><ele>839.0</ele><time>2026-04-27T12:58:34.001Z</time></trkpt><trkpt lat="42.13823325542746" lon="13.285873380514923"><ele>839.0</ele><time>2026-04-27T12:58:35.001Z</time></trkpt><trkpt lat="42.138299765928444" lon="13.285911000780798"><ele>839.0</ele><time>2026-04-27T12:58:36.001Z</time></trkpt><trkpt lat="42.13836848842526" lon="13.285948437600432"><ele>839.2</ele><time>2026-04-27T12:58:38.001Z</time></trkpt><trkpt lat="42.13848216053649" lon="13.285877997132468"><ele>839.4000000000001</ele><time>2026-04-27T12:58:40.001Z</time></trkpt><trkpt lat="42.13859710452675" lon="13.285872309726035"><ele>839.6</ele><time>2026-04-27T12:58:41.001Z</time></trkpt><trkpt lat="42.13870340697763" lon="13.285869766416369"><ele>839.8</ele><time>2026-04-27T12:58:42.001Z</time></trkpt><trkpt lat="42.13878888773724" lon="13.285855052265575"><ele>840.0</ele><time>2026-04-27T12:58:43.001Z</time></trkpt><trkpt lat="42.13892958157077" lon="13.285876870981454"><ele>840.0</ele><time>2026-04-27T12:58:45.001Z</time></trkpt><trkpt lat="42.13901271400967" lon="13.285909696992139"><ele>840.0</ele><time>2026-04-27T12:58:46.001Z</time></trkpt><trkpt lat="42.13910488615949" lon="13.285926087955799"><ele>840.0</ele><time>2026-04-27T12:58:47.001Z</time></trkpt><trkpt lat="42.13921623287879" lon="13.28591737786379"><ele>840.0</ele><time>2026-04-27T12:58:48.001Z</time></trkpt><trkpt lat="42.13935446315295" lon="13.285894908362396"><ele>840.0</ele><time>2026-04-27T12:58:49.001Z</time></trkpt><trkpt lat="42.139506543272894" lon="13.285900214988123"><ele>839.25</ele><time>2026-04-27T12:58:50.001Z</time></trkpt><trkpt lat="42.13964688546489" lon="13.285913882844975"><ele>838.5</ele><time>2026-04-27T12:58:51.001Z</time></trkpt><trkpt lat="42.139784705616876" lon="13.285917041968807"><ele>837.75</ele><time>2026-04-27T12:58:52.001Z</time></trkpt><trkpt lat="42.139912314757325" lon="13.285916127465876"><ele>837.0</ele><time>2026-04-27T12:58:53.001Z</time></trkpt><trkpt lat="42.14004842932247" lon="13.285919886478693"><ele>834.5</ele><time>2026-04-27T12:58:54.001Z</time></trkpt><trkpt lat="42.14017145555561" lon="13.285946905019681"><ele>832.0</ele><time>2026-04-27T12:58:55.001Z</time></trkpt><trkpt lat="42.14029875908883" lon="13.28596635209618"><ele>829.5</ele><time>2026-04-27T12:58:56.001Z</time></trkpt><trkpt lat="42.140427528282096" lon="13.285986179863606"><ele>827.0</ele><time>2026-04-27T12:58:57.001Z</time></trkpt><trkpt lat="42.140509022048256" lon="13.285998639658231"><ele>827.0000000000001</ele><time>2026-04-27T12:58:58.001Z</time></trkpt><trkpt lat="42.14060166253675" lon="13.286011186891395"><ele>827.0</ele><time>2026-04-27T12:58:59.001Z</time></trkpt><trkpt lat="42.14069481363927" lon="13.28600754407111"><ele>827.0</ele><time>2026-04-27T12:59:00.001Z</time></trkpt><trkpt lat="42.14079662464409" lon="13.286004070417414"><ele>827.0</ele><time>2026-04-27T12:59:01.001Z</time></trkpt><trkpt lat="42.140870374755956" lon="13.285989366712165"><ele>827.0000000000001</ele><time>2026-04-27T12:59:02.001Z</time></trkpt><trkpt lat="42.14093578980135" lon="13.285975730141278"><ele>827.0</ele><time>2026-04-27T12:59:03.001Z</time></trkpt><trkpt lat="42.14104793294762" lon="13.286058478368442"><ele>825.6666666666667</ele><time>2026-04-27T12:59:05.001Z</time></trkpt><trkpt lat="42.141108556379564" lon="13.286124168401674"><ele>824.3333333333334</ele><time>2026-04-27T12:59:06.001Z</time></trkpt><trkpt lat="42.14118396413694" lon="13.286155515213848"><ele>823.0</ele><time>2026-04-27T12:59:07.001Z</time></trkpt><trkpt lat="42.14126792222017" lon="13.286147645395854"><ele>821.6666666666667</ele><time>2026-04-27T12:59:08.001Z</time></trkpt><trkpt lat="42.14135171830872" lon="13.286104069599062"><ele>820.3333333333334</ele><time>2026-04-27T12:59:09.001Z</time></trkpt><trkpt lat="42.141447582009604" lon="13.286036927410303"><ele>819.0</ele><time>2026-04-27T12:59:10.001Z</time></trkpt><trkpt lat="42.14154460505882" lon="13.285983386694785"><ele>814.0</ele><time>2026-04-27T12:59:11.001Z</time></trkpt><trkpt lat="42.14166620089009" lon="13.285965140062645"><ele>809.0</ele><time>2026-04-27T12:59:12.001Z</time></trkpt><trkpt lat="42.14178324476777" lon="13.285967439496947"><ele>804.0</ele><time>2026-04-27T12:59:13.001Z</time></trkpt><trkpt lat="42.1419018782764" lon="13.285989433228787"><ele>799.0</ele><time>2026-04-27T12:59:14.001Z</time></trkpt><trkpt lat="42.14201665840475" lon="13.285987903307866"><ele>798.9999999999999</ele><time>2026-04-27T12:59:15.001Z</time></trkpt><trkpt lat="42.14211160171861" lon="13.285996186973922"><ele>799.0</ele><time>2026-04-27T12:59:16.001Z</time></trkpt><trkpt lat="42.142198896260254" lon="13.285992988273316"><ele>799.0</ele><time>2026-04-27T12:59:17.001Z</time></trkpt><trkpt lat="42.14226683649917" lon="13.28599120990045"><ele>799.0</ele><time>2026-04-27T12:59:18.001Z</time></trkpt><trkpt lat="42.14234208689726" lon="13.285953037623697"><ele>798.9999999999999</ele><time>2026-04-27T12:59:19.001Z</time></trkpt><trkpt lat="42.14244140630065" lon="13.285928145803187"><ele>799.0</ele><time>2026-04-27T12:59:21.001Z</time></trkpt><trkpt lat="42.1425297159339" lon="13.28603055919988"><ele>795.6666666666666</ele><time>2026-04-27T12:59:23.001Z</time></trkpt><trkpt lat="42.1425562434217" lon="13.286116204427783"><ele>792.3333333333333</ele><time>2026-04-27T12:59:24.001Z</time></trkpt><trkpt lat="42.14258450711577" lon="13.286193797352752"><ele>789.0</ele><time>2026-04-27T12:59:25.001Z</time></trkpt><trkpt lat="42.142653315258784" lon="13.286283313217941"><ele>785.6666666666667</ele><time>2026-04-27T12:59:26.001Z</time></trkpt><trkpt lat="42.142722682956865" lon="13.286335854644701"><ele>782.3333333333334</ele><time>2026-04-27T12:59:27.001Z</time></trkpt><trkpt lat="42.14281666349115" lon="13.28637942841237"><ele>779.0</ele><time>2026-04-27T12:59:28.001Z</time></trkpt><trkpt lat="42.14290933862335" lon="13.286421814371684"><ele>782.6</ele><time>2026-04-27T12:59:29.001Z</time></trkpt><trkpt lat="42.142973499717684" lon="13.28648214187856"><ele>786.2</ele><time>2026-04-27T12:59:30.001Z</time></trkpt><trkpt lat="42.14302984282897" lon="13.286571428481707"><ele>789.8000000000001</ele><time>2026-04-27T12:59:31.001Z</time></trkpt><trkpt lat="42.143092490146365" lon="13.286688830253105"><ele>793.4000000000001</ele><time>2026-04-27T12:59:32.001Z</time></trkpt><trkpt lat="42.14315921556537" lon="13.286828259981856"><ele>797.0</ele><time>2026-04-27T12:59:33.001Z</time></trkpt><trkpt lat="42.143206026617136" lon="13.286959811438333"><ele>794.0</ele><time>2026-04-27T12:59:34.001Z</time></trkpt><trkpt lat="42.14323836173619" lon="13.287088560085458"><ele>791.0</ele><time>2026-04-27T12:59:35.001Z</time></trkpt><trkpt lat="42.143253171370446" lon="13.287191615764202"><ele>788.0</ele><time>2026-04-27T12:59:36.001Z</time></trkpt><trkpt lat="42.14326339245038" lon="13.287316630487528"><ele>785.0</ele><time>2026-04-27T12:59:37.001Z</time></trkpt><trkpt lat="42.14325392476628" lon="13.287448139317767"><ele>782.0</ele><time>2026-04-27T12:59:38.001Z</time></trkpt><trkpt lat="42.14324870303891" lon="13.287585761230922"><ele>782.0</ele><time>2026-04-27T12:59:39.001Z</time></trkpt><trkpt lat="42.14328719191471" lon="13.287725926361784"><ele>782.0</ele><time>2026-04-27T12:59:41.001Z</time></trkpt><trkpt lat="42.14338682597598" lon="13.287797702335057"><ele>782.0</ele><time>2026-04-27T12:59:43.001Z</time></trkpt><trkpt lat="42.14346986887889" lon="13.287819470718581"><ele>782.0</ele><time>2026-04-27T12:59:45.001Z</time></trkpt><trkpt lat="42.143581888616765" lon="13.287871769609284"><ele>782.0</ele><time>2026-04-27T12:59:47.001Z</time></trkpt><trkpt lat="42.1437056021422" lon="13.287845231853584"><ele>782.0000000000001</ele><time>2026-04-27T12:59:49.001Z</time></trkpt><trkpt lat="42.143758264893" lon="13.287769487621972"><ele>782.0</ele><time>2026-04-27T12:59:50.001Z</time></trkpt><trkpt lat="42.143807196668114" lon="13.287677291985608"><ele>782.0</ele><time>2026-04-27T12:59:51.001Z</time></trkpt><trkpt lat="42.143861880707185" lon="13.287580150848274"><ele>782.0</ele><time>2026-04-27T12:59:52.001Z</time></trkpt><trkpt lat="42.14393655870616" lon="13.28749299356123"><ele>782.0000000000001</ele><time>2026-04-27T12:59:53.001Z</time></trkpt><trkpt lat="42.14401498820813" lon="13.287446602738115"><ele>782.0</ele><time>2026-04-27T12:59:54.001Z</time></trkpt><trkpt lat="42.14410044767676" lon="13.28740210951897"><ele>783.0000000000001</ele><time>2026-04-27T12:59:55.001Z</time></trkpt><trkpt lat="42.144168757855894" lon="13.287391524016956"><ele>784.0</ele><time>2026-04-27T12:59:56.001Z</time></trkpt><trkpt lat="42.14426349797019" lon="13.287389697226066"><ele>785.0</ele><time>2026-04-27T12:59:57.001Z</time></trkpt><trkpt lat="42.14435233846857" lon="13.287414102736152"><ele>786.0</ele><time>2026-04-27T12:59:58.001Z</time></trkpt><trkpt lat="42.144439487448864" lon="13.287401101238538"><ele>787.0000000000001</ele><time>2026-04-27T12:59:59.001Z</time></trkpt><trkpt lat="42.1445119321529" lon="13.287406016602189"><ele>788.0</ele><time>2026-04-27T13:00:00.001Z</time></trkpt><trkpt lat="42.1445798381287" lon="13.287370107975317"><ele>788.0000000000001</ele><time>2026-04-27T13:00:01.001Z</time></trkpt><trkpt lat="42.14466071319894" lon="13.287381266051588"><ele>788.0</ele><time>2026-04-27T13:00:02.001Z</time></trkpt><trkpt lat="42.14474346838955" lon="13.287368073331496"><ele>788.0</ele><time>2026-04-27T13:00:03.001Z</time></trkpt><trkpt lat="42.144823138856744" lon="13.287383324657073"><ele>788.0</ele><time>2026-04-27T13:00:04.001Z</time></trkpt><trkpt lat="42.144903185482406" lon="13.287432743574627"><ele>788.0000000000001</ele><time>2026-04-27T13:00:05.001Z</time></trkpt><trkpt lat="42.14496543119867" lon="13.287516275894706"><ele>788.0</ele><time>2026-04-27T13:00:06.001Z</time></trkpt><trkpt lat="42.145031734324775" lon="13.28757847982902"><ele>789.5999999999999</ele><time>2026-04-27T13:00:07.001Z</time></trkpt><trkpt lat="42.14507467007554" lon="13.287719793762719"><ele>791.1999999999999</ele><time>2026-04-27T13:00:09.001Z</time></trkpt><trkpt lat="42.1450435991098" lon="13.287808104929558"><ele>792.8</ele><time>2026-04-27T13:00:10.001Z</time></trkpt><trkpt lat="42.145020500818326" lon="13.287908179855922"><ele>794.4</ele><time>2026-04-27T13:00:11.001Z</time></trkpt><trkpt lat="42.144987690427264" lon="13.288036812910827"><ele>796.0</ele><time>2026-04-27T13:00:12.001Z</time></trkpt><trkpt lat="42.144969035065024" lon="13.288180267162044"><ele>796.25</ele><time>2026-04-27T13:00:13.001Z</time></trkpt><trkpt lat="42.14495722735027" lon="13.288341676495902"><ele>796.5</ele><time>2026-04-27T13:00:14.001Z</time></trkpt><trkpt lat="42.144957743500854" lon="13.288509194955274"><ele>796.75</ele><time>2026-04-27T13:00:15.001Z</time></trkpt><trkpt lat="42.14495587242484" lon="13.288679406120904"><ele>797.0</ele><time>2026-04-27T13:00:16.001Z</time></trkpt><trkpt lat="42.14495392279275" lon="13.288819295445666"><ele>796.4000000000001</ele><time>2026-04-27T13:00:17.001Z</time></trkpt><trkpt lat="42.144950940207515" lon="13.288952351391323"><ele>795.8000000000001</ele><time>2026-04-27T13:00:18.001Z</time></trkpt><trkpt lat="42.144952030254466" lon="13.28907187341246"><ele>795.2</ele><time>2026-04-27T13:00:19.001Z</time></trkpt><trkpt lat="42.14495013990969" lon="13.289197994619533"><ele>794.6</ele><time>2026-04-27T13:00:20.001Z</time></trkpt><trkpt lat="42.14496142995256" lon="13.2893576852814"><ele>794.0</ele><time>2026-04-27T13:00:21.001Z</time></trkpt><trkpt lat="42.1449669644885" lon="13.28947866574501"><ele>794.0</ele><time>2026-04-27T13:00:22.001Z</time></trkpt><trkpt lat="42.14497535055576" lon="13.289609546576358"><ele>794.0</ele><time>2026-04-27T13:00:23.001Z</time></trkpt><trkpt lat="42.14499131338" lon="13.289730147671266"><ele>794.0</ele><time>2026-04-27T13:00:24.001Z</time></trkpt><trkpt lat="42.14502892564347" lon="13.289872374009093"><ele>794.0</ele><time>2026-04-27T13:00:25.001Z</time></trkpt><trkpt lat="42.14510017486701" lon="13.289999688913651"><ele>794.0</ele><time>2026-04-27T13:00:26.001Z</time></trkpt><trkpt lat="42.14514208360664" lon="13.290133748193595"><ele>795.0</ele><time>2026-04-27T13:00:27.001Z</time></trkpt><trkpt lat="42.14521202102404" lon="13.290266720183947"><ele>796.0</ele><time>2026-04-27T13:00:28.001Z</time></trkpt><trkpt lat="42.145280541427425" lon="13.29034582512734"><ele>797.0</ele><time>2026-04-27T13:00:29.001Z</time></trkpt><trkpt lat="42.14535022999254" lon="13.290472144066364"><ele>798.0</ele><time>2026-04-27T13:00:30.001Z</time></trkpt><trkpt lat="42.14545170301552" lon="13.290567727262609"><ele>799.0</ele><time>2026-04-27T13:00:31.001Z</time></trkpt><trkpt lat="42.14554256122251" lon="13.290678046045922"><ele>800.0</ele><time>2026-04-27T13:00:32.001Z</time></trkpt><trkpt lat="42.145644834919686" lon="13.29075466210043"><ele>801.0</ele><time>2026-04-27T13:00:33.001Z</time></trkpt><trkpt lat="42.14572601173805" lon="13.290844334910773"><ele>802.0</ele><time>2026-04-27T13:00:34.001Z</time></trkpt><trkpt lat="42.14581817656102" lon="13.290912146219858"><ele>803.0</ele><time>2026-04-27T13:00:35.001Z</time></trkpt><trkpt lat="42.145896159487194" lon="13.290996368296517"><ele>800.5000000000001</ele><time>2026-04-27T13:00:36.001Z</time></trkpt><trkpt lat="42.14597096996916" lon="13.291069078788478"><ele>798.0</ele><time>2026-04-27T13:00:37.001Z</time></trkpt><trkpt lat="42.14602837419166" lon="13.291130530170301"><ele>795.5</ele><time>2026-04-27T13:00:38.001Z</time></trkpt><trkpt lat="42.14609422400222" lon="13.29120583888981"><ele>793.0</ele><time>2026-04-27T13:00:40.001Z</time></trkpt><trkpt lat="42.14618099245243" lon="13.291114261059173"><ele>790.5000000000001</ele><time>2026-04-27T13:00:44.001Z</time></trkpt><trkpt lat="42.14612874705852" lon="13.291202813845722"><ele>788.0</ele><time>2026-04-27T13:00:50.001Z</time></trkpt><trkpt lat="42.146192601185554" lon="13.291362457684865"><ele>789.2</ele><time>2026-04-27T13:00:52.001Z</time></trkpt><trkpt lat="42.146276852961826" lon="13.29145785635541"><ele>790.4</ele><time>2026-04-27T13:00:53.001Z</time></trkpt><trkpt lat="42.146353306695445" lon="13.291535354359704"><ele>791.6</ele><time>2026-04-27T13:00:54.001Z</time></trkpt><trkpt lat="42.14642874141308" lon="13.291621109007203"><ele>792.8000000000001</ele><time>2026-04-27T13:00:55.001Z</time></trkpt><trkpt lat="42.1464976778233" lon="13.291721559895942"><ele>794.0</ele><time>2026-04-27T13:00:56.001Z</time></trkpt><trkpt lat="42.146566122404835" lon="13.291816667087904"><ele>791.6666666666667</ele><time>2026-04-27T13:00:57.001Z</time></trkpt><trkpt lat="42.1466169180215" lon="13.291880748954307"><ele>789.3333333333334</ele><time>2026-04-27T13:00:58.001Z</time></trkpt><trkpt lat="42.14667640406559" lon="13.291913084047042"><ele>787.0</ele><time>2026-04-27T13:00:59.001Z</time></trkpt><trkpt lat="42.14678711042244" lon="13.291892967152215"><ele>784.6666666666667</ele><time>2026-04-27T13:01:01.001Z</time></trkpt><trkpt lat="42.146848763954964" lon="13.29181749953317"><ele>782.3333333333334</ele><time>2026-04-27T13:01:02.001Z</time></trkpt><trkpt lat="42.14692031193278" lon="13.29173374822156"><ele>780.0</ele><time>2026-04-27T13:01:03.001Z</time></trkpt><trkpt lat="42.14699411661069" lon="13.291644862923194"><ele>780.0</ele><time>2026-04-27T13:01:04.001Z</time></trkpt><trkpt lat="42.147059567662644" lon="13.291580285992797"><ele>780.0</ele><time>2026-04-27T13:01:05.001Z</time></trkpt><trkpt lat="42.14711928851519" lon="13.291538587143949"><ele>780.0</ele><time>2026-04-27T13:01:06.001Z</time></trkpt><trkpt lat="42.14718290929237" lon="13.291530434014527"><ele>780.0</ele><time>2026-04-27T13:01:07.001Z</time></trkpt><trkpt lat="42.14727673107574" lon="13.291529168226456"><ele>780.0</ele><time>2026-04-27T13:01:08.001Z</time></trkpt><trkpt lat="42.14734392699265" lon="13.291543562769766"><ele>780.0</ele><time>2026-04-27T13:01:09.001Z</time></trkpt><trkpt lat="42.147407147304236" lon="13.291572494636636"><ele>780.0</ele><time>2026-04-27T13:01:10.001Z</time></trkpt><trkpt lat="42.14751546611713" lon="13.291630160145667"><ele>776.6</ele><time>2026-04-27T13:01:12.001Z</time></trkpt><trkpt lat="42.1475919851993" lon="13.291494480913489"><ele>773.2</ele><time>2026-04-27T13:01:16.001Z</time></trkpt><trkpt lat="42.1475311383508" lon="13.291406460572045"><ele>769.8</ele><time>2026-04-27T13:01:17.001Z</time></trkpt><trkpt lat="42.14747506578068" lon="13.291299973785037"><ele>766.4</ele><time>2026-04-27T13:01:18.001Z</time></trkpt><trkpt lat="42.147433013299604" lon="13.29121865110302"><ele>763.0</ele><time>2026-04-27T13:01:19.001Z</time></trkpt><trkpt lat="42.14739637095462" lon="13.291049076100094"><ele>760.5</ele><time>2026-04-27T13:01:21.001Z</time></trkpt><trkpt lat="42.1474701689226" lon="13.290913311540978"><ele>758.0</ele><time>2026-04-27T13:01:23.001Z</time></trkpt><trkpt lat="42.14753721502169" lon="13.290806346570756"><ele>755.5</ele><time>2026-04-27T13:01:24.001Z</time></trkpt><trkpt lat="42.1476064696492" lon="13.290677883726895"><ele>753.0</ele><time>2026-04-27T13:01:25.001Z</time></trkpt><trkpt lat="42.14767915742937" lon="13.290534274118997"><ele>753.0</ele><time>2026-04-27T13:01:26.001Z</time></trkpt><trkpt lat="42.147752575325256" lon="13.290419142107021"><ele>753.0</ele><time>2026-04-27T13:01:27.001Z</time></trkpt><trkpt lat="42.147830389382214" lon="13.290356231140095"><ele>753.0</ele><time>2026-04-27T13:01:28.001Z</time></trkpt><trkpt lat="42.14792830549736" lon="13.290301895072684"><ele>753.0</ele><time>2026-04-27T13:01:29.001Z</time></trkpt><trkpt lat="42.148036957468236" lon="13.290242653403926"><ele>753.0</ele><time>2026-04-27T13:01:30.001Z</time></trkpt><trkpt lat="42.14814561633217" lon="13.290177092073204"><ele>749.5</ele><time>2026-04-27T13:01:31.001Z</time></trkpt><trkpt lat="42.14825899059563" lon="13.290101122215965"><ele>746.0</ele><time>2026-04-27T13:01:32.001Z</time></trkpt><trkpt lat="42.14836920086796" lon="13.290026687967456"><ele>742.5</ele><time>2026-04-27T13:01:33.001Z</time></trkpt><trkpt lat="42.14847859458241" lon="13.289945504415993"><ele>739.0</ele><time>2026-04-27T13:01:34.001Z</time></trkpt><trkpt lat="42.14858947397909" lon="13.289836955557698"><ele>738.5</ele><time>2026-04-27T13:01:35.001Z</time></trkpt><trkpt lat="42.14871472084855" lon="13.289731973623114"><ele>738.0</ele><time>2026-04-27T13:01:36.001Z</time></trkpt><trkpt lat="42.14883457889051" lon="13.289651349693358"><ele>737.5</ele><time>2026-04-27T13:01:37.001Z</time></trkpt><trkpt lat="42.14894090387394" lon="13.28956346096669"><ele>737.0</ele><time>2026-04-27T13:01:38.001Z</time></trkpt><trkpt lat="42.149040671753134" lon="13.289462882991756"><ele>737.75</ele><time>2026-04-27T13:01:39.001Z</time></trkpt><trkpt lat="42.149121958613485" lon="13.289336780422648"><ele>738.5</ele><time>2026-04-27T13:01:40.001Z</time></trkpt><trkpt lat="42.149202685868545" lon="13.28920205275331"><ele>739.25</ele><time>2026-04-27T13:01:41.001Z</time></trkpt><trkpt lat="42.14927210803771" lon="13.289068440680726"><ele>740.0</ele><time>2026-04-27T13:01:42.001Z</time></trkpt><trkpt lat="42.14933728594477" lon="13.288961131107468"><ele>740.6</ele><time>2026-04-27T13:01:43.001Z</time></trkpt><trkpt lat="42.14942147238919" lon="13.288875562390185"><ele>741.2</ele><time>2026-04-27T13:01:44.001Z</time></trkpt><trkpt lat="42.14949941825011" lon="13.28880788476394"><ele>741.8</ele><time>2026-04-27T13:01:45.001Z</time></trkpt><trkpt lat="42.14959974010033" lon="13.288710113107927"><ele>742.4</ele><time>2026-04-27T13:01:46.001Z</time></trkpt><trkpt lat="42.14969634088316" lon="13.288603718751116"><ele>743.0</ele><time>2026-04-27T13:01:47.001Z</time></trkpt><trkpt lat="42.14981005471916" lon="13.288466443925811"><ele>740.3333333333333</ele><time>2026-04-27T13:01:48.001Z</time></trkpt><trkpt lat="42.14991346083433" lon="13.288316457997883"><ele>737.6666666666666</ele><time>2026-04-27T13:01:49.001Z</time></trkpt><trkpt lat="42.150008320558705" lon="13.28815819798345"><ele>735.0</ele><time>2026-04-27T13:01:50.001Z</time></trkpt><trkpt lat="42.1500937935821" lon="13.287988347397572"><ele>734.5</ele><time>2026-04-27T13:01:51.001Z</time></trkpt><trkpt lat="42.150173454123866" lon="13.287844106881119"><ele>734.0</ele><time>2026-04-27T13:01:52.001Z</time></trkpt><trkpt lat="42.15024247983657" lon="13.287695885365709"><ele>733.5</ele><time>2026-04-27T13:01:53.001Z</time></trkpt><trkpt lat="42.150319939163204" lon="13.287558835099912"><ele>733.0</ele><time>2026-04-27T13:01:54.001Z</time></trkpt><trkpt lat="42.15039238701125" lon="13.287424393491559"><ele>733.0</ele><time>2026-04-27T13:01:55.001Z</time></trkpt><trkpt lat="42.15044859235278" lon="13.287289580728"><ele>733.0</ele><time>2026-04-27T13:01:56.001Z</time></trkpt><trkpt lat="42.15050518337521" lon="13.287177646108237"><ele>733.0</ele><time>2026-04-27T13:01:57.001Z</time></trkpt><trkpt lat="42.150591613113555" lon="13.28706690862946"><ele>733.0</ele><time>2026-04-27T13:01:58.001Z</time></trkpt><trkpt lat="42.15066341217805" lon="13.28697596556722"><ele>733.0</ele><time>2026-04-27T13:01:59.001Z</time></trkpt><trkpt lat="42.15072250592428" lon="13.286911928577316"><ele>732.25</ele><time>2026-04-27T13:02:00.001Z</time></trkpt><trkpt lat="42.150854208914545" lon="13.286855299592995"><ele>731.5</ele><time>2026-04-27T13:02:02.001Z</time></trkpt><trkpt lat="42.1509332693503" lon="13.286751152361866"><ele>730.75</ele><time>2026-04-27T13:02:03.001Z</time></trkpt><trkpt lat="42.15102098720759" lon="13.286659069472034"><ele>730.0</ele><time>2026-04-27T13:02:04.001Z</time></trkpt><trkpt lat="42.15111174004661" lon="13.286550237001853"><ele>730.0</ele><time>2026-04-27T13:02:05.001Z</time></trkpt><trkpt lat="42.15120007333537" lon="13.286433898571923"><ele>730.0</ele><time>2026-04-27T13:02:06.001Z</time></trkpt><trkpt lat="42.1512789465519" lon="13.286299597395075"><ele>730.0</ele><time>2026-04-27T13:02:07.001Z</time></trkpt><trkpt lat="42.15135458750728" lon="13.286150074440776"><ele>730.0</ele><time>2026-04-27T13:02:08.001Z</time></trkpt><trkpt lat="42.15143361840526" lon="13.286019870368975"><ele>729.6</ele><time>2026-04-27T13:02:09.001Z</time></trkpt><trkpt lat="42.151509660952584" lon="13.28591151250097"><ele>729.2</ele><time>2026-04-27T13:02:10.001Z</time></trkpt><trkpt lat="42.15158880404907" lon="13.28581212839221"><ele>728.8</ele><time>2026-04-27T13:02:11.001Z</time></trkpt><trkpt lat="42.151691709173406" lon="13.285751162893742"><ele>728.4</ele><time>2026-04-27T13:02:12.001Z</time></trkpt><trkpt lat="42.15176866102729" lon="13.285667900165764"><ele>728.0</ele><time>2026-04-27T13:02:13.001Z</time></trkpt><trkpt lat="42.15186780732996" lon="13.285562876992262"><ele>727.5</ele><time>2026-04-27T13:02:14.001Z</time></trkpt><trkpt lat="42.15195805037066" lon="13.28544157819706"><ele>727.0</ele><time>2026-04-27T13:02:15.001Z</time></trkpt><trkpt lat="42.15206331037316" lon="13.285325624854208"><ele>726.5</ele><time>2026-04-27T13:02:16.001Z</time></trkpt><trkpt lat="42.15217709917941" lon="13.285202262418244"><ele>726.0</ele><time>2026-04-27T13:02:17.001Z</time></trkpt><trkpt lat="42.152288825294704" lon="13.285079916507634"><ele>726.0</ele><time>2026-04-27T13:02:18.001Z</time></trkpt><trkpt lat="42.15239708670536" lon="13.284971466767963"><ele>726.0</ele><time>2026-04-27T13:02:19.001Z</time></trkpt><trkpt lat="42.152509293570176" lon="13.284863571170016"><ele>726.0</ele><time>2026-04-27T13:02:20.001Z</time></trkpt><trkpt lat="42.15261534878206" lon="13.284739639495806"><ele>726.0</ele><time>2026-04-27T13:02:21.001Z</time></trkpt><trkpt lat="42.15272950737835" lon="13.284612877089842"><ele>725.3333333333334</ele><time>2026-04-27T13:02:22.001Z</time></trkpt><trkpt lat="42.15283419140241" lon="13.284483814718323"><ele>724.6666666666667</ele><time>2026-04-27T13:02:23.001Z</time></trkpt><trkpt lat="42.152947243820556" lon="13.284343866922612"><ele>724.0</ele><time>2026-04-27T13:02:24.001Z</time></trkpt><trkpt lat="42.15305238775013" lon="13.2841904929419"><ele>724.0</ele><time>2026-04-27T13:02:25.001Z</time></trkpt><trkpt lat="42.153156664313826" lon="13.284030015889916"><ele>724.0</ele><time>2026-04-27T13:02:26.001Z</time></trkpt><trkpt lat="42.15325654670863" lon="13.283882264672227"><ele>724.0</ele><time>2026-04-27T13:02:27.001Z</time></trkpt><trkpt lat="42.15335118937066" lon="13.28374258622357"><ele>724.0</ele><time>2026-04-27T13:02:28.001Z</time></trkpt><trkpt lat="42.153424205780965" lon="13.283591685968693"><ele>724.75</ele><time>2026-04-27T13:02:29.001Z</time></trkpt><trkpt lat="42.153505914816996" lon="13.283433254989639"><ele>725.5</ele><time>2026-04-27T13:02:30.001Z</time></trkpt><trkpt lat="42.15359748367541" lon="13.28326742120933"><ele>726.25</ele><time>2026-04-27T13:02:31.001Z</time></trkpt><trkpt lat="42.15369675795823" lon="13.283125833448624"><ele>727.0</ele><time>2026-04-27T13:02:32.001Z</time></trkpt><trkpt lat="42.15380396449176" lon="13.282965628442268"><ele>727.0</ele><time>2026-04-27T13:02:33.001Z</time></trkpt><trkpt lat="42.15391467824895" lon="13.282817532191281"><ele>727.0</ele><time>2026-04-27T13:02:34.001Z</time></trkpt><trkpt lat="42.15403287313029" lon="13.282664134488424"><ele>727.0</ele><time>2026-04-27T13:02:35.001Z</time></trkpt><trkpt lat="42.15415045374629" lon="13.282511555481024"><ele>727.3333333333334</ele><time>2026-04-27T13:02:36.001Z</time></trkpt><trkpt lat="42.15426978124982" lon="13.282350638858263"><ele>727.6666666666666</ele><time>2026-04-27T13:02:37.001Z</time></trkpt><trkpt lat="42.15439038570269" lon="13.282191747437874"><ele>728.0</ele><time>2026-04-27T13:02:38.001Z</time></trkpt><trkpt lat="42.15451872642076" lon="13.28205236305544"><ele>728.3333333333333</ele><time>2026-04-27T13:02:39.001Z</time></trkpt><trkpt lat="42.1546633728043" lon="13.281922946042279"><ele>728.6666666666666</ele><time>2026-04-27T13:02:40.001Z</time></trkpt><trkpt lat="42.154812104478374" lon="13.281821642366246"><ele>729.0</ele><time>2026-04-27T13:02:41.001Z</time></trkpt><trkpt lat="42.154968809907025" lon="13.281728753034416"><ele>729.3333333333334</ele><time>2026-04-27T13:02:42.001Z</time></trkpt><trkpt lat="42.15513189431501" lon="13.281624570786137"><ele>729.6666666666667</ele><time>2026-04-27T13:02:43.001Z</time></trkpt><trkpt lat="42.15527172677769" lon="13.281519534916377"><ele>730.0</ele><time>2026-04-27T13:02:44.001Z</time></trkpt><trkpt lat="42.15542855931706" lon="13.281368980894078"><ele>730.0</ele><time>2026-04-27T13:02:45.001Z</time></trkpt><trkpt lat="42.15556495456223" lon="13.281220407818823"><ele>730.0</ele><time>2026-04-27T13:02:46.001Z</time></trkpt><trkpt lat="42.15570116013729" lon="13.281089137791328"><ele>730.0</ele><time>2026-04-27T13:02:47.001Z</time></trkpt><trkpt lat="42.15584135650036" lon="13.280957067903849"><ele>731.3333333333334</ele><time>2026-04-27T13:02:48.001Z</time></trkpt><trkpt lat="42.15599454399171" lon="13.280845112048755"><ele>732.6666666666666</ele><time>2026-04-27T13:02:49.001Z</time></trkpt><trkpt lat="42.15615971882003" lon="13.280719647583544"><ele>734.0</ele><time>2026-04-27T13:02:50.001Z</time></trkpt><trkpt lat="42.156304225047904" lon="13.280594112148584"><ele>734.3333333333333</ele><time>2026-04-27T13:02:51.001Z</time></trkpt><trkpt lat="42.156453382548484" lon="13.280474167300019"><ele>734.6666666666666</ele><time>2026-04-27T13:02:52.001Z</time></trkpt><trkpt lat="42.15659301765681" lon="13.28034696889799"><ele>735.0</ele><time>2026-04-27T13:02:53.001Z</time></trkpt><trkpt lat="42.15672837310875" lon="13.280221703389794"><ele>736.0</ele><time>2026-04-27T13:02:54.001Z</time></trkpt><trkpt lat="42.156873384289575" lon="13.280107069890041"><ele>737.0</ele><time>2026-04-27T13:02:55.001Z</time></trkpt><trkpt lat="42.157040197135906" lon="13.28000079738214"><ele>738.0</ele><time>2026-04-27T13:02:56.001Z</time></trkpt><trkpt lat="42.1571937795121" lon="13.279915726545436"><ele>738.0</ele><time>2026-04-27T13:02:57.001Z</time></trkpt><trkpt lat="42.15734671269074" lon="13.279836160296872"><ele>738.0</ele><time>2026-04-27T13:02:58.001Z</time></trkpt><trkpt lat="42.15751342171783" lon="13.279775796593873"><ele>738.0</ele><time>2026-04-27T13:02:59.001Z</time></trkpt><trkpt lat="42.157690546066306" lon="13.279715814428286"><ele>738.3333333333334</ele><time>2026-04-27T13:03:00.001Z</time></trkpt><trkpt lat="42.15786379135141" lon="13.279655236621407"><ele>738.6666666666667</ele><time>2026-04-27T13:03:01.001Z</time></trkpt><trkpt lat="42.15803702800448" lon="13.279601066366006"><ele>739.0</ele><time>2026-04-27T13:03:02.001Z</time></trkpt><trkpt lat="42.15821010075127" lon="13.279559191647099"><ele>740.3333333333334</ele><time>2026-04-27T13:03:03.001Z</time></trkpt><trkpt lat="42.15838496231252" lon="13.279520264219467"><ele>741.6666666666666</ele><time>2026-04-27T13:03:04.001Z</time></trkpt><trkpt lat="42.158536856865176" lon="13.279503066671484"><ele>743.0</ele><time>2026-04-27T13:03:05.001Z</time></trkpt><trkpt lat="42.158685648697585" lon="13.279477274612194"><ele>743.0</ele><time>2026-04-27T13:03:06.001Z</time></trkpt><trkpt lat="42.15883779864458" lon="13.279450253213117"><ele>743.0</ele><time>2026-04-27T13:03:07.001Z</time></trkpt><trkpt lat="42.15898925511399" lon="13.27942616855082"><ele>743.0</ele><time>2026-04-27T13:03:08.001Z</time></trkpt><trkpt lat="42.15914977060718" lon="13.27938369537817"><ele>744.6666666666666</ele><time>2026-04-27T13:03:09.001Z</time></trkpt><trkpt lat="42.159307408312664" lon="13.279333557465213"><ele>746.3333333333334</ele><time>2026-04-27T13:03:10.001Z</time></trkpt><trkpt lat="42.15946901750332" lon="13.27927918481638"><ele>748.0</ele><time>2026-04-27T13:03:11.001Z</time></trkpt><trkpt lat="42.15963129802649" lon="13.279229127735498"><ele>748.0</ele><time>2026-04-27T13:03:12.001Z</time></trkpt><trkpt lat="42.159802926406556" lon="13.279210751288996"><ele>748.0</ele><time>2026-04-27T13:03:13.001Z</time></trkpt><trkpt lat="42.159976839045356" lon="13.279173238450038"><ele>748.0</ele><time>2026-04-27T13:03:14.001Z</time></trkpt><trkpt lat="42.160138522045294" lon="13.279135223296748"><ele>749.0</ele><time>2026-04-27T13:03:15.001Z</time></trkpt><trkpt lat="42.16031502925457" lon="13.27908698677665"><ele>750.0</ele><time>2026-04-27T13:03:16.001Z</time></trkpt><trkpt lat="42.16047878677352" lon="13.279036993818487"><ele>751.0</ele><time>2026-04-27T13:03:17.001Z</time></trkpt><trkpt lat="42.16065200077941" lon="13.278955016274104"><ele>752.0</ele><time>2026-04-27T13:03:18.001Z</time></trkpt><trkpt lat="42.160812609377935" lon="13.27889344110018"><ele>753.0</ele><time>2026-04-27T13:03:19.001Z</time></trkpt><trkpt lat="42.16097783700174" lon="13.278840596672087"><ele>754.0</ele><time>2026-04-27T13:03:20.001Z</time></trkpt><trkpt lat="42.16113114963775" lon="13.278796639095805"><ele>754.0</ele><time>2026-04-27T13:03:21.001Z</time></trkpt><trkpt lat="42.1612999975265" lon="13.27874497234237"><ele>754.0</ele><time>2026-04-27T13:03:22Z</time></trkpt><trkpt lat="42.16146792051722" lon="13.278692472854832"><ele>754.0</ele><time>2026-04-27T13:03:23Z</time></trkpt><trkpt lat="42.1616307650537" lon="13.278640996914694"><ele>755.0</ele><time>2026-04-27T13:03:24Z</time></trkpt><trkpt lat="42.16178923870335" lon="13.278593809799657"><ele>756.0</ele><time>2026-04-27T13:03:25Z</time></trkpt><trkpt lat="42.16195520493975" lon="13.278537102464512"><ele>757.0</ele><time>2026-04-27T13:03:26Z</time></trkpt><trkpt lat="42.162123400970664" lon="13.27848806350324"><ele>757.0</ele><time>2026-04-27T13:03:27Z</time></trkpt><trkpt lat="42.16229318622665" lon="13.278422625963222"><ele>757.0</ele><time>2026-04-27T13:03:28Z</time></trkpt><trkpt lat="42.16246249129281" lon="13.278357326830974"><ele>757.0</ele><time>2026-04-27T13:03:29Z</time></trkpt><trkpt lat="42.162630540273504" lon="13.278305080321575"><ele>758.3333333333334</ele><time>2026-04-27T13:03:30Z</time></trkpt><trkpt lat="42.16280234509368" lon="13.27826955321162"><ele>759.6666666666666</ele><time>2026-04-27T13:03:31Z</time></trkpt><trkpt lat="42.16296797684461" lon="13.278197959491644"><ele>761.0</ele><time>2026-04-27T13:03:32Z</time></trkpt><trkpt lat="42.16313833521395" lon="13.27814782917904"><ele>762.3333333333333</ele><time>2026-04-27T13:03:33Z</time></trkpt><trkpt lat="42.1633056154896" lon="13.278100928104163"><ele>763.6666666666666</ele><time>2026-04-27T13:03:34Z</time></trkpt><trkpt lat="42.16344584948031" lon="13.278043861014352"><ele>765.0</ele><time>2026-04-27T13:03:35Z</time></trkpt><trkpt lat="42.16358898123207" lon="13.277968698611604"><ele>765.0</ele><time>2026-04-27T13:03:36Z</time></trkpt><trkpt lat="42.1637287460197" lon="13.277877661590345"><ele>765.0</ele><time>2026-04-27T13:03:37Z</time></trkpt><trkpt lat="42.163854311789315" lon="13.277772641733366"><ele>765.0</ele><time>2026-04-27T13:03:38Z</time></trkpt><trkpt lat="42.16395696767334" lon="13.277680008751341"><ele>765.0</ele><time>2026-04-27T13:03:39Z</time></trkpt><trkpt lat="42.164053948034216" lon="13.27760608936128"><ele>765.0</ele><time>2026-04-27T13:03:40Z</time></trkpt><trkpt lat="42.16415301193336" lon="13.277547242208913"><ele>765.0</ele><time>2026-04-27T13:03:41Z</time></trkpt><trkpt lat="42.164268589151135" lon="13.277499426193648"><ele>765.0</ele><time>2026-04-27T13:03:42Z</time></trkpt><trkpt lat="42.164392870636554" lon="13.277472139833959"><ele>765.0</ele><time>2026-04-27T13:03:43Z</time></trkpt><trkpt lat="42.164528878169655" lon="13.277466927529224"><ele>765.0</ele><time>2026-04-27T13:03:44Z</time></trkpt><trkpt lat="42.164675011843926" lon="13.277479644843686"><ele>765.0</ele><time>2026-04-27T13:03:45Z</time></trkpt><trkpt lat="42.16482864168252" lon="13.277489849904619"><ele>765.0</ele><time>2026-04-27T13:03:46Z</time></trkpt><trkpt lat="42.16497684047726" lon="13.277493672329514"><ele>765.0</ele><time>2026-04-27T13:03:47Z</time></trkpt><trkpt lat="42.16511654131061" lon="13.277495857085585"><ele>764.5</ele><time>2026-04-27T13:03:48Z</time></trkpt><trkpt lat="42.165266322543246" lon="13.277483508102165"><ele>764.0</ele><time>2026-04-27T13:03:49Z</time></trkpt><trkpt lat="42.165413434306714" lon="13.277461416486668"><ele>763.5</ele><time>2026-04-27T13:03:50Z</time></trkpt><trkpt lat="42.16555458519109" lon="13.277464213340526"><ele>763.0</ele><time>2026-04-27T13:03:51Z</time></trkpt><trkpt lat="42.165681106269275" lon="13.277474686288128"><ele>762.5999999999999</ele><time>2026-04-27T13:03:52Z</time></trkpt><trkpt lat="42.165800693480215" lon="13.27746909921757"><ele>762.1999999999999</ele><time>2026-04-27T13:03:53Z</time></trkpt><trkpt lat="42.165909420595725" lon="13.277447096787496"><ele>761.8</ele><time>2026-04-27T13:03:54Z</time></trkpt><trkpt lat="42.166006370991056" lon="13.277414684542013"><ele>761.4</ele><time>2026-04-27T13:03:55Z</time></trkpt><trkpt lat="42.1661008375164" lon="13.277379048356055"><ele>761.0</ele><time>2026-04-27T13:03:56Z</time></trkpt><trkpt lat="42.16618421793561" lon="13.277331450332815"><ele>761.0</ele><time>2026-04-27T13:03:57Z</time></trkpt><trkpt lat="42.166258502703506" lon="13.27729827730561"><ele>761.0</ele><time>2026-04-27T13:03:58Z</time></trkpt><trkpt lat="42.166334543359554" lon="13.277268627326945"><ele>761.0</ele><time>2026-04-27T13:03:59Z</time></trkpt><trkpt lat="42.1664201202761" lon="13.277236638944128"><ele>761.0</ele><time>2026-04-27T13:04:00Z</time></trkpt><trkpt lat="42.16651614034131" lon="13.277190449724557"><ele>761.0</ele><time>2026-04-27T13:04:01Z</time></trkpt><trkpt lat="42.16662408084609" lon="13.277126932074637"><ele>762.0</ele><time>2026-04-27T13:04:02Z</time></trkpt><trkpt lat="42.166721373296255" lon="13.277052763970163"><ele>763.0</ele><time>2026-04-27T13:04:03Z</time></trkpt><trkpt lat="42.16682907175853" lon="13.27697707025952"><ele>764.0</ele><time>2026-04-27T13:04:04Z</time></trkpt><trkpt lat="42.16693518379395" lon="13.276965197764664"><ele>765.0</ele><time>2026-04-27T13:04:05Z</time></trkpt><trkpt lat="42.16702277351492" lon="13.276963083876735"><ele>766.0</ele><time>2026-04-27T13:04:06Z</time></trkpt><trkpt lat="42.16710775258026" lon="13.276965912811091"><ele>766.0</ele><time>2026-04-27T13:04:07Z</time></trkpt><trkpt lat="42.16719650104844" lon="13.276975240481708"><ele>766.0</ele><time>2026-04-27T13:04:08Z</time></trkpt><trkpt lat="42.16727906586309" lon="13.276981253364449"><ele>766.0</ele><time>2026-04-27T13:04:09Z</time></trkpt><trkpt lat="42.16738313737829" lon="13.276970655146929"><ele>766.0</ele><time>2026-04-27T13:04:10Z</time></trkpt><trkpt lat="42.167483288815575" lon="13.276904255491948"><ele>766.0</ele><time>2026-04-27T13:04:12Z</time></trkpt><trkpt lat="42.16751293526071" lon="13.276786461721436"><ele>768.1999999999999</ele><time>2026-04-27T13:04:14.001Z</time></trkpt><trkpt lat="42.16754713870352" lon="13.276659224020865"><ele>770.4</ele><time>2026-04-27T13:04:16.001Z</time></trkpt><trkpt lat="42.167584286874785" lon="13.276572241174348"><ele>772.6</ele><time>2026-04-27T13:04:17.001Z</time></trkpt><trkpt lat="42.16762893082205" lon="13.276489896252862"><ele>774.8</ele><time>2026-04-27T13:04:18.001Z</time></trkpt><trkpt lat="42.167657393266744" lon="13.27637506989782"><ele>777.0</ele><time>2026-04-27T13:04:19.001Z</time></trkpt><trkpt lat="42.16770466198474" lon="13.276238020544357"><ele>777.8333333333334</ele><time>2026-04-27T13:04:20.001Z</time></trkpt><trkpt lat="42.16777035257828" lon="13.276222921121748"><ele>778.6666666666667</ele><time>2026-04-27T13:04:21.001Z</time></trkpt><trkpt lat="42.167839711526454" lon="13.276196471207022"><ele>779.5</ele><time>2026-04-27T13:04:22.001Z</time></trkpt><trkpt lat="42.16790489059204" lon="13.276225043646404"><ele>780.3333333333334</ele><time>2026-04-27T13:04:23.001Z</time></trkpt><trkpt lat="42.16798421290054" lon="13.276266012873242"><ele>781.1666666666667</ele><time>2026-04-27T13:04:24.001Z</time></trkpt><trkpt lat="42.16808790740343" lon="13.276300110972375"><ele>782.0</ele><time>2026-04-27T13:04:25.001Z</time></trkpt><trkpt lat="42.16819151411789" lon="13.276306771614017"><ele>782.0</ele><time>2026-04-27T13:04:26.001Z</time></trkpt><trkpt lat="42.16829235685077" lon="13.276294420340415"><ele>782.0</ele><time>2026-04-27T13:04:27.001Z</time></trkpt><trkpt lat="42.16841938885782" lon="13.27628326060864"><ele>782.0</ele><time>2026-04-27T13:04:28.001Z</time></trkpt><trkpt lat="42.16854133087689" lon="13.276242070003759"><ele>782.0</ele><time>2026-04-27T13:04:29.001Z</time></trkpt><trkpt lat="42.168692330626946" lon="13.276205902218535"><ele>782.0</ele><time>2026-04-27T13:04:30.001Z</time></trkpt><trkpt lat="42.168839906466594" lon="13.276184552374485"><ele>782.0</ele><time>2026-04-27T13:04:31.001Z</time></trkpt><trkpt lat="42.16899453272512" lon="13.276107740182649"><ele>782.0</ele><time>2026-04-27T13:04:32.001Z</time></trkpt><trkpt lat="42.16915200373437" lon="13.276054859685816"><ele>784.3333333333334</ele><time>2026-04-27T13:04:33.001Z</time></trkpt><trkpt lat="42.169319012992766" lon="13.276013801839824"><ele>786.6666666666667</ele><time>2026-04-27T13:04:34.001Z</time></trkpt><trkpt lat="42.169490429018346" lon="13.27596638641366"><ele>789.0</ele><time>2026-04-27T13:04:35.001Z</time></trkpt><trkpt lat="42.16965984600815" lon="13.275914421130905"><ele>789.0</ele><time>2026-04-27T13:04:36.001Z</time></trkpt><trkpt lat="42.16981052992451" lon="13.275869900132054"><ele>789.0</ele><time>2026-04-27T13:04:37.001Z</time></trkpt><trkpt lat="42.16995743643588" lon="13.275821302486838"><ele>789.0</ele><time>2026-04-27T13:04:38.001Z</time></trkpt><trkpt lat="42.1701012071638" lon="13.2757780854462"><ele>790.25</ele><time>2026-04-27T13:04:39.001Z</time></trkpt><trkpt lat="42.17024694903084" lon="13.275746450967299"><ele>791.5</ele><time>2026-04-27T13:04:40.001Z</time></trkpt><trkpt lat="42.17039360123717" lon="13.27571570881462"><ele>792.75</ele><time>2026-04-27T13:04:41.001Z</time></trkpt><trkpt lat="42.17051705816292" lon="13.275702078418822"><ele>794.0</ele><time>2026-04-27T13:04:42.001Z</time></trkpt><trkpt lat="42.17062627320527" lon="13.275688275876078"><ele>795.2</ele><time>2026-04-27T13:04:43.001Z</time></trkpt><trkpt lat="42.17071793599613" lon="13.275680084065993"><ele>796.4000000000001</ele><time>2026-04-27T13:04:44.001Z</time></trkpt><trkpt lat="42.17078927816655" lon="13.275659770491853"><ele>797.6</ele><time>2026-04-27T13:04:45.001Z</time></trkpt><trkpt lat="42.17086401606037" lon="13.275643361532838"><ele>798.8</ele><time>2026-04-27T13:04:46.001Z</time></trkpt><trkpt lat="42.17095340220921" lon="13.275633123368237"><ele>800.0</ele><time>2026-04-27T13:04:47.001Z</time></trkpt><trkpt lat="42.1710770781189" lon="13.275631507270987"><ele>800.0</ele><time>2026-04-27T13:04:48.001Z</time></trkpt><trkpt lat="42.171215488153024" lon="13.275654923449334"><ele>800.0</ele><time>2026-04-27T13:04:49.001Z</time></trkpt><trkpt lat="42.171367640843336" lon="13.275679783685632"><ele>800.0</ele><time>2026-04-27T13:04:50.001Z</time></trkpt><trkpt lat="42.171524595856205" lon="13.275720611214835"><ele>800.3333333333334</ele><time>2026-04-27T13:04:51.001Z</time></trkpt><trkpt lat="42.17167489121877" lon="13.275792057335178"><ele>800.6666666666667</ele><time>2026-04-27T13:04:52.001Z</time></trkpt><trkpt lat="42.17181756640636" lon="13.275894874866358"><ele>801.0</ele><time>2026-04-27T13:04:53.001Z</time></trkpt><trkpt lat="42.171963696886586" lon="13.275992423270798"><ele>801.0</ele><time>2026-04-27T13:04:54.001Z</time></trkpt><trkpt lat="42.172089549210924" lon="13.276049032770771"><ele>801.0</ele><time>2026-04-27T13:04:55.001Z</time></trkpt><trkpt lat="42.17223825216917" lon="13.276084057710204"><ele>801.0</ele><time>2026-04-27T13:04:56.001Z</time></trkpt><trkpt lat="42.17236796399726" lon="13.276132581822244"><ele>801.0</ele><time>2026-04-27T13:04:57.001Z</time></trkpt><trkpt lat="42.172491668372594" lon="13.276205452037923"><ele>801.25</ele><time>2026-04-27T13:04:58.001Z</time></trkpt><trkpt lat="42.172620537364836" lon="13.276266104685444"><ele>801.5</ele><time>2026-04-27T13:04:59.001Z</time></trkpt><trkpt lat="42.17275105812062" lon="13.276301102019282"><ele>801.75</ele><time>2026-04-27T13:05:00.001Z</time></trkpt><trkpt lat="42.17286007273961" lon="13.276340742096867"><ele>802.0</ele><time>2026-04-27T13:05:01.001Z</time></trkpt><trkpt lat="42.17296012596623" lon="13.276364946462405"><ele>802.0</ele><time>2026-04-27T13:05:02.001Z</time></trkpt><trkpt lat="42.173070345293056" lon="13.276381592065263"><ele>802.0</ele><time>2026-04-27T13:05:03.001Z</time></trkpt><trkpt lat="42.173182087199976" lon="13.276387026467003"><ele>802.0</ele><time>2026-04-27T13:05:04.001Z</time></trkpt><trkpt lat="42.17327656632663" lon="13.276356662935502"><ele>802.0</ele><time>2026-04-27T13:05:05.001Z</time></trkpt><trkpt lat="42.17336214630928" lon="13.27630621043396"><ele>802.0</ele><time>2026-04-27T13:05:06.001Z</time></trkpt><trkpt lat="42.173432840641205" lon="13.276265257921198"><ele>804.5</ele><time>2026-04-27T13:05:07.001Z</time></trkpt><trkpt lat="42.173526366511055" lon="13.276237942110116"><ele>807.0</ele><time>2026-04-27T13:05:08.001Z</time></trkpt><trkpt lat="42.173639875125666" lon="13.27618878367286"><ele>809.5</ele><time>2026-04-27T13:05:09.001Z</time></trkpt><trkpt lat="42.173767725867684" lon="13.27615008409876"><ele>812.0</ele><time>2026-04-27T13:05:10.001Z</time></trkpt><trkpt lat="42.17388790294396" lon="13.276109139772974"><ele>812.0000000000001</ele><time>2026-04-27T13:05:11.001Z</time></trkpt><trkpt lat="42.17398745781069" lon="13.276110764789895"><ele>812.0</ele><time>2026-04-27T13:05:12.001Z</time></trkpt><trkpt lat="42.17405456451287" lon="13.276086537853008"><ele>812.0</ele><time>2026-04-27T13:05:13.001Z</time></trkpt><trkpt lat="42.17411036828659" lon="13.276138068587466"><ele>812.0</ele><time>2026-04-27T13:05:14.001Z</time></trkpt><trkpt lat="42.174133650653474" lon="13.276227146434397"><ele>812.0000000000001</ele><time>2026-04-27T13:05:15.001Z</time></trkpt><trkpt lat="42.174243238491144" lon="13.276262377648818"><ele>812.0</ele><time>2026-04-27T13:05:16.001Z</time></trkpt><trkpt lat="42.17433248144695" lon="13.276335929001384"><ele>814.75</ele><time>2026-04-27T13:05:17.001Z</time></trkpt><trkpt lat="42.17443557225114" lon="13.2764106784607"><ele>817.5</ele><time>2026-04-27T13:05:18.001Z</time></trkpt><trkpt lat="42.17453638848256" lon="13.27651003252881"><ele>820.25</ele><time>2026-04-27T13:05:19.001Z</time></trkpt><trkpt lat="42.17464756116508" lon="13.276585586372537"><ele>823.0</ele><time>2026-04-27T13:05:20.001Z</time></trkpt><trkpt lat="42.17477641449475" lon="13.276627555297953"><ele>824.5</ele><time>2026-04-27T13:05:21.001Z</time></trkpt><trkpt lat="42.17490426922025" lon="13.276639800847853"><ele>826.0</ele><time>2026-04-27T13:05:22.001Z</time></trkpt><trkpt lat="42.17502902436574" lon="13.276586990292499"><ele>827.5</ele><time>2026-04-27T13:05:23.001Z</time></trkpt><trkpt lat="42.17513653233078" lon="13.276451720538363"><ele>829.0</ele><time>2026-04-27T13:05:24.001Z</time></trkpt><trkpt lat="42.175227372203075" lon="13.276321674017439"><ele>829.25</ele><time>2026-04-27T13:05:25.001Z</time></trkpt><trkpt lat="42.17529552205844" lon="13.276179054419291"><ele>829.5</ele><time>2026-04-27T13:05:26.001Z</time></trkpt><trkpt lat="42.175365932870655" lon="13.276027334637932"><ele>829.75</ele><time>2026-04-27T13:05:27.001Z</time></trkpt><trkpt lat="42.17544221305215" lon="13.27586404771224"><ele>830.0</ele><time>2026-04-27T13:05:28Z</time></trkpt><trkpt lat="42.17550974902838" lon="13.275712472806994"><ele>830.0</ele><time>2026-04-27T13:05:29Z</time></trkpt><trkpt lat="42.17557564953589" lon="13.275583918109316"><ele>830.0</ele><time>2026-04-27T13:05:30Z</time></trkpt><trkpt lat="42.17565237482915" lon="13.275482622370102"><ele>830.0</ele><time>2026-04-27T13:05:31Z</time></trkpt><trkpt lat="42.17575753417041" lon="13.275411925264786"><ele>830.0</ele><time>2026-04-27T13:05:32Z</time></trkpt><trkpt lat="42.1758855408604" lon="13.275365458875285"><ele>830.0</ele><time>2026-04-27T13:05:33Z</time></trkpt><trkpt lat="42.17602442625691" lon="13.275328443727192"><ele>830.0</ele><time>2026-04-27T13:05:34Z</time></trkpt><trkpt lat="42.17616810221973" lon="13.275289544439591"><ele>830.0</ele><time>2026-04-27T13:05:35Z</time></trkpt><trkpt lat="42.17632078784667" lon="13.275242472908126"><ele>830.0</ele><time>2026-04-27T13:05:36Z</time></trkpt><trkpt lat="42.17646963453093" lon="13.275198287939102"><ele>828.0</ele><time>2026-04-27T13:05:37Z</time></trkpt><trkpt lat="42.17660535890875" lon="13.275155578108981"><ele>826.0</ele><time>2026-04-27T13:05:38Z</time></trkpt><trkpt lat="42.176739791466794" lon="13.27511813579573"><ele>824.0</ele><time>2026-04-27T13:05:39Z</time></trkpt><trkpt lat="42.176870128942646" lon="13.275078401700691"><ele>822.0</ele><time>2026-04-27T13:05:40Z</time></trkpt><trkpt lat="42.17699270202696" lon="13.275039557726217"><ele>822.0</ele><time>2026-04-27T13:05:41Z</time></trkpt><trkpt lat="42.17709827930997" lon="13.275006422145564"><ele>822.0</ele><time>2026-04-27T13:05:42Z</time></trkpt><trkpt lat="42.177187212684395" lon="13.274995390650021"><ele>822.0</ele><time>2026-04-27T13:05:43Z</time></trkpt><trkpt lat="42.17726180121341" lon="13.275025102022092"><ele>822.0</ele><time>2026-04-27T13:05:44Z</time></trkpt><trkpt lat="42.17731811688668" lon="13.275098113774787"><ele>822.0</ele><time>2026-04-27T13:05:45Z</time></trkpt><trkpt lat="42.1773441097758" lon="13.275192988613371"><ele>822.0</ele><time>2026-04-27T13:05:46Z</time></trkpt><trkpt lat="42.177334621428294" lon="13.275290441345355"><ele>821.4000000000001</ele><time>2026-04-27T13:05:47Z</time></trkpt><trkpt lat="42.177428385263205" lon="13.275267744813364"><ele>820.8000000000001</ele><time>2026-04-27T13:05:51Z</time></trkpt><trkpt lat="42.17743745978726" lon="13.275177357177672"><ele>820.2</ele><time>2026-04-27T13:05:52Z</time></trkpt><trkpt lat="42.177488541232655" lon="13.27508935176441"><ele>819.6</ele><time>2026-04-27T13:05:54Z</time></trkpt><trkpt lat="42.17750260228287" lon="13.274959432401202"><ele>819.0</ele><time>2026-04-27T13:05:57Z</time></trkpt><trkpt lat="42.17752543108062" lon="13.275462464084754"><ele>819.0</ele><time>2026-04-27T13:05:59Z</time></trkpt><trkpt lat="42.177527227379976" lon="13.275588172233402"><ele>819.0</ele><time>2026-04-27T13:06:00Z</time></trkpt><trkpt lat="42.1775507716064" lon="13.275732796796717"><ele>819.0</ele><time>2026-04-27T13:06:01Z</time></trkpt><trkpt lat="42.177587551351515" lon="13.275864102443652"><ele>819.0</ele><time>2026-04-27T13:06:02Z</time></trkpt><trkpt lat="42.1776211423233" lon="13.275971550827274"><ele>819.0</ele><time>2026-04-27T13:06:03Z</time></trkpt><trkpt lat="42.17764396939059" lon="13.276075040102205"><ele>819.2</ele><time>2026-04-27T13:06:04Z</time></trkpt><trkpt lat="42.17765904674889" lon="13.276194017439725"><ele>819.4000000000001</ele><time>2026-04-27T13:06:05Z</time></trkpt><trkpt lat="42.17766082723799" lon="13.276316699722459"><ele>819.6</ele><time>2026-04-27T13:06:06Z</time></trkpt><trkpt lat="42.177652602836886" lon="13.2764461930486"><ele>819.8</ele><time>2026-04-27T13:06:07Z</time></trkpt><trkpt lat="42.17763669056905" lon="13.276583199195384"><ele>820.0</ele><time>2026-04-27T13:06:08Z</time></trkpt><trkpt lat="42.177611300214494" lon="13.276722286470482"><ele>820.5</ele><time>2026-04-27T13:06:09Z</time></trkpt><trkpt lat="42.17758638767424" lon="13.276869496461055"><ele>821.0</ele><time>2026-04-27T13:06:10Z</time></trkpt><trkpt lat="42.17756428758183" lon="13.277031460726928"><ele>821.5</ele><time>2026-04-27T13:06:11Z</time></trkpt><trkpt lat="42.17755700007334" lon="13.277203410586953"><ele>822.0</ele><time>2026-04-27T13:06:12Z</time></trkpt><trkpt lat="42.17754840836928" lon="13.277390126570557"><ele>822.5</ele><time>2026-04-27T13:06:13Z</time></trkpt><trkpt lat="42.17753834310326" lon="13.277560183815103"><ele>823.0</ele><time>2026-04-27T13:06:14Z</time></trkpt><trkpt lat="42.17753730880418" lon="13.277727063572636"><ele>823.5</ele><time>2026-04-27T13:06:15Z</time></trkpt><trkpt lat="42.17753519870412" lon="13.27787516966297"><ele>824.0</ele><time>2026-04-27T13:06:16Z</time></trkpt><trkpt lat="42.17750600233083" lon="13.278003525062433"><ele>824.4000000000001</ele><time>2026-04-27T13:06:17Z</time></trkpt><trkpt lat="42.17746707385566" lon="13.278130325687238"><ele>824.8</ele><time>2026-04-27T13:06:18Z</time></trkpt><trkpt lat="42.17742597218469" lon="13.278235017817051"><ele>825.2</ele><time>2026-04-27T13:06:19Z</time></trkpt><trkpt lat="42.17736265834768" lon="13.278332848938575"><ele>825.5999999999999</ele><time>2026-04-27T13:06:20Z</time></trkpt><trkpt lat="42.17727478108065" lon="13.278429453188906"><ele>826.0</ele><time>2026-04-27T13:06:21Z</time></trkpt><trkpt lat="42.17719370158181" lon="13.278521136772351"><ele>827.4</ele><time>2026-04-27T13:06:22Z</time></trkpt><trkpt lat="42.17713904827621" lon="13.278630021860932"><ele>828.8</ele><time>2026-04-27T13:06:23Z</time></trkpt><trkpt lat="42.17709491127306" lon="13.278765038186734"><ele>830.1999999999999</ele><time>2026-04-27T13:06:24Z</time></trkpt><trkpt lat="42.17701358517183" lon="13.278861479155772"><ele>831.5999999999999</ele><time>2026-04-27T13:06:25Z</time></trkpt><trkpt lat="42.17694685572435" lon="13.278919738400457"><ele>833.0</ele><time>2026-04-27T13:06:26Z</time></trkpt><trkpt lat="42.17687781661162" lon="13.278970053448656"><ele>833.4</ele><time>2026-04-27T13:06:28Z</time></trkpt><trkpt lat="42.17696553862816" lon="13.27914606516846"><ele>833.8</ele><time>2026-04-27T13:06:30Z</time></trkpt><trkpt lat="42.17702410157284" lon="13.279234741611887"><ele>834.2</ele><time>2026-04-27T13:06:31Z</time></trkpt><trkpt lat="42.177057484459745" lon="13.279347706926696"><ele>834.6</ele><time>2026-04-27T13:06:32Z</time></trkpt><trkpt lat="42.17710155835223" lon="13.279465792958161"><ele>835.0</ele><time>2026-04-27T13:06:33Z</time></trkpt><trkpt lat="42.17713623739353" lon="13.279564242019061"><ele>835.0</ele><time>2026-04-27T13:06:34Z</time></trkpt><trkpt lat="42.17717403479259" lon="13.27963763178332"><ele>835.0</ele><time>2026-04-27T13:06:35Z</time></trkpt><trkpt lat="42.177208696916004" lon="13.27973501378101"><ele>835.0</ele><time>2026-04-27T13:06:36Z</time></trkpt><trkpt lat="42.17726852689819" lon="13.279848078009028"><ele>835.0</ele><time>2026-04-27T13:06:37Z</time></trkpt><trkpt lat="42.17734443636712" lon="13.279966618862069"><ele>835.0</ele><time>2026-04-27T13:06:38Z</time></trkpt><trkpt lat="42.177402793163886" lon="13.280104674535089"><ele>835.25</ele><time>2026-04-27T13:06:39Z</time></trkpt><trkpt lat="42.177476041880126" lon="13.280230495558056"><ele>835.5</ele><time>2026-04-27T13:06:40Z</time></trkpt><trkpt lat="42.17755055778106" lon="13.280384780859016"><ele>835.75</ele><time>2026-04-27T13:06:41Z</time></trkpt><trkpt lat="42.1776272322832" lon="13.280537497306796"><ele>836.0</ele><time>2026-04-27T13:06:42Z</time></trkpt><trkpt lat="42.177715348093706" lon="13.28067162716437"><ele>836.75</ele><time>2026-04-27T13:06:43Z</time></trkpt><trkpt lat="42.17778311639734" lon="13.28082541838061"><ele>837.5</ele><time>2026-04-27T13:06:44Z</time></trkpt><trkpt lat="42.177872220459186" lon="13.280972066765187"><ele>838.25</ele><time>2026-04-27T13:06:45Z</time></trkpt><trkpt lat="42.1779307103526" lon="13.281117247564554"><ele>839.0</ele><time>2026-04-27T13:06:46Z</time></trkpt><trkpt lat="42.17797901917991" lon="13.28125596164238"><ele>839.0</ele><time>2026-04-27T13:06:47Z</time></trkpt><trkpt lat="42.17802445693034" lon="13.28140370716715"><ele>839.0</ele><time>2026-04-27T13:06:48Z</time></trkpt><trkpt lat="42.17806151378408" lon="13.281543251660027"><ele>839.0</ele><time>2026-04-27T13:06:49Z</time></trkpt><trkpt lat="42.17809265539629" lon="13.28166390575889"><ele>839.0</ele><time>2026-04-27T13:06:50Z</time></trkpt><trkpt lat="42.178124279721345" lon="13.28178981379095"><ele>839.0</ele><time>2026-04-27T13:06:51Z</time></trkpt><trkpt lat="42.178159798668155" lon="13.281903022734063"><ele>839.5</ele><time>2026-04-27T13:06:52Z</time></trkpt><trkpt lat="42.178194848337476" lon="13.282190091851332"><ele>840.0</ele><time>2026-04-27T13:06:53Z</time></trkpt><trkpt lat="42.178245179825105" lon="13.282246060781292"><ele>840.5</ele><time>2026-04-27T13:06:54Z</time></trkpt><trkpt lat="42.17835920019076" lon="13.28240838312231"><ele>841.0</ele><time>2026-04-27T13:06:55Z</time></trkpt><trkpt lat="42.1787479137214" lon="13.281803575032562"><ele>841.0</ele><time>2026-04-27T13:06:56Z</time></trkpt><trkpt lat="42.17882227738355" lon="13.2817452423156"><ele>841.0</ele><time>2026-04-27T13:06:57Z</time></trkpt><trkpt lat="42.17890498009337" lon="13.281673066333845"><ele>841.0</ele><time>2026-04-27T13:06:58Z</time></trkpt><trkpt lat="42.17898214867742" lon="13.281592761392815"><ele>841.0</ele><time>2026-04-27T13:06:59Z</time></trkpt><trkpt lat="42.179046012009884" lon="13.281555201959518"><ele>841.0</ele><time>2026-04-27T13:07:00Z</time></trkpt><trkpt lat="42.17914919242178" lon="13.281561086010177"><ele>839.5999999999999</ele><time>2026-04-27T13:07:02Z</time></trkpt><trkpt lat="42.17918453680128" lon="13.28164244860968"><ele>838.2</ele><time>2026-04-27T13:07:03Z</time></trkpt><trkpt lat="42.17920239260122" lon="13.28172617510824"><ele>836.8</ele><time>2026-04-27T13:07:04Z</time></trkpt><trkpt lat="42.17924419642265" lon="13.281794747834478"><ele>835.4000000000001</ele><time>2026-04-27T13:07:05Z</time></trkpt><trkpt lat="42.1793261193311" lon="13.281851464737034"><ele>834.0</ele><time>2026-04-27T13:07:07Z</time></trkpt><trkpt lat="42.17942869243825" lon="13.281671877997313"><ele>834.0</ele><time>2026-04-27T13:07:10.001Z</time></trkpt><trkpt lat="42.179468422901316" lon="13.281551238332922"><ele>834.0</ele><time>2026-04-27T13:07:11.001Z</time></trkpt><trkpt lat="42.17953847558554" lon="13.281406805950347"><ele>834.0</ele><time>2026-04-27T13:07:12.001Z</time></trkpt><trkpt lat="42.17963886669114" lon="13.281240960369146"><ele>834.0</ele><time>2026-04-27T13:07:13.001Z</time></trkpt><trkpt lat="42.179728272844685" lon="13.281058900815111"><ele>832.6666666666667</ele><time>2026-04-27T13:07:14.001Z</time></trkpt><trkpt lat="42.17981713984862" lon="13.280851144373496"><ele>831.3333333333334</ele><time>2026-04-27T13:07:15.001Z</time></trkpt><trkpt lat="42.17990447419154" lon="13.280650160519565"><ele>830.0</ele><time>2026-04-27T13:07:16.001Z</time></trkpt><trkpt lat="42.18000077798431" lon="13.280467578518333"><ele>828.75</ele><time>2026-04-27T13:07:17.001Z</time></trkpt><trkpt lat="42.18008626876149" lon="13.280314192069847"><ele>827.5</ele><time>2026-04-27T13:07:18.001Z</time></trkpt><trkpt lat="42.18016885111533" lon="13.280178750351823"><ele>826.25</ele><time>2026-04-27T13:07:19.001Z</time></trkpt><trkpt lat="42.18027759962446" lon="13.280055423423002"><ele>825.0</ele><time>2026-04-27T13:07:20.001Z</time></trkpt><trkpt lat="42.18040018447806" lon="13.279929021602953"><ele>825.0</ele><time>2026-04-27T13:07:21.001Z</time></trkpt><trkpt lat="42.18053161923679" lon="13.279796918280672"><ele>825.0</ele><time>2026-04-27T13:07:22.001Z</time></trkpt><trkpt lat="42.18063517921362" lon="13.279672592356711"><ele>825.0</ele><time>2026-04-27T13:07:23.001Z</time></trkpt><trkpt lat="42.180699397355646" lon="13.279553125587812"><ele>825.0</ele><time>2026-04-27T13:07:24.001Z</time></trkpt><trkpt lat="42.180718435988915" lon="13.279440116685917"><ele>824.2</ele><time>2026-04-27T13:07:25.001Z</time></trkpt><trkpt lat="42.180697300915156" lon="13.279337959192103"><ele>823.4</ele><time>2026-04-27T13:07:26.001Z</time></trkpt><trkpt lat="42.1806500946765" lon="13.279223038481248"><ele>822.5999999999999</ele><time>2026-04-27T13:07:27.001Z</time></trkpt><trkpt lat="42.18060304596998" lon="13.27907900427928"><ele>821.8</ele><time>2026-04-27T13:07:28.001Z</time></trkpt><trkpt lat="42.18056786624599" lon="13.278911544104771"><ele>821.0</ele><time>2026-04-27T13:07:29.001Z</time></trkpt><trkpt lat="42.18055822103302" lon="13.278723351264958"><ele>820.3333333333334</ele><time>2026-04-27T13:07:30.001Z</time></trkpt><trkpt lat="42.18060080363757" lon="13.2785260728539"><ele>819.6666666666667</ele><time>2026-04-27T13:07:31.001Z</time></trkpt><trkpt lat="42.180619588269565" lon="13.278304874590768"><ele>819.0</ele><time>2026-04-27T13:07:32.001Z</time></trkpt><trkpt lat="42.180653973697005" lon="13.278090965377208"><ele>817.6666666666667</ele><time>2026-04-27T13:07:33.001Z</time></trkpt><trkpt lat="42.18068403601991" lon="13.277867422845686"><ele>816.3333333333334</ele><time>2026-04-27T13:07:34Z</time></trkpt><trkpt lat="42.18071826924855" lon="13.277632928589489"><ele>815.0</ele><time>2026-04-27T13:07:35Z</time></trkpt><trkpt lat="42.18074714061248" lon="13.277410063016566"><ele>814.3333333333334</ele><time>2026-04-27T13:07:36Z</time></trkpt><trkpt lat="42.18077836330705" lon="13.277175005076918"><ele>813.6666666666667</ele><time>2026-04-27T13:07:37Z</time></trkpt><trkpt lat="42.18081143893361" lon="13.27694717127313"><ele>813.0</ele><time>2026-04-27T13:07:38Z</time></trkpt><trkpt lat="42.180850421383255" lon="13.276717411356639"><ele>813.0</ele><time>2026-04-27T13:07:39Z</time></trkpt><trkpt lat="42.180892126885304" lon="13.276494025602277"><ele>813.0</ele><time>2026-04-27T13:07:40Z</time></trkpt><trkpt lat="42.18092974440024" lon="13.276285465748606"><ele>813.0</ele><time>2026-04-27T13:07:41Z</time></trkpt><trkpt lat="42.18095836473478" lon="13.276060038530035"><ele>812.3333333333333</ele><time>2026-04-27T13:07:42Z</time></trkpt><trkpt lat="42.18099310370112" lon="13.27584855943338"><ele>811.6666666666666</ele><time>2026-04-27T13:07:43Z</time></trkpt><trkpt lat="42.181025751213085" lon="13.275661758493225"><ele>811.0</ele><time>2026-04-27T13:07:44Z</time></trkpt><trkpt lat="42.181066195582424" lon="13.275462366146725"><ele>810.3333333333333</ele><time>2026-04-27T13:07:45Z</time></trkpt><trkpt lat="42.18111017390467" lon="13.27525874901939"><ele>809.6666666666667</ele><time>2026-04-27T13:07:46Z</time></trkpt><trkpt lat="42.18115613546485" lon="13.275057470659778"><ele>809.0</ele><time>2026-04-27T13:07:47Z</time></trkpt><trkpt lat="42.18119527069504" lon="13.274872987241443"><ele>808.0</ele><time>2026-04-27T13:07:48Z</time></trkpt><trkpt lat="42.18123291816336" lon="13.27469874091753"><ele>807.0</ele><time>2026-04-27T13:07:49Z</time></trkpt><trkpt lat="42.18126619321844" lon="13.274531906908257"><ele>806.0</ele><time>2026-04-27T13:07:50Z</time></trkpt><trkpt lat="42.18130066542777" lon="13.274371086178068"><ele>805.0</ele><time>2026-04-27T13:07:51Z</time></trkpt><trkpt lat="42.18133678402613" lon="13.274224200845298"><ele>804.9999999999999</ele><time>2026-04-27T13:07:52Z</time></trkpt><trkpt lat="42.18136803135319" lon="13.274109008182204"><ele>805.0</ele><time>2026-04-27T13:07:53Z</time></trkpt><trkpt lat="42.1813926874789" lon="13.274023525053513"><ele>805.0</ele><time>2026-04-27T13:07:54Z</time></trkpt><trkpt lat="42.18141937989631" lon="13.273942222253748"><ele>805.0</ele><time>2026-04-27T13:07:56Z</time></trkpt><trkpt lat="42.18142547315771" lon="13.27383634888051"><ele>804.9999999999999</ele><time>2026-04-27T13:08:04Z</time></trkpt><trkpt lat="42.181451549297876" lon="13.273696192132741"><ele>805.0</ele><time>2026-04-27T13:08:06Z</time></trkpt><trkpt lat="42.18158568229735" lon="13.273833525002132"><ele>804.5</ele><time>2026-04-27T13:08:07Z</time></trkpt><trkpt lat="42.181641620706245" lon="13.273589177872148"><ele>804.0</ele><time>2026-04-27T13:08:08Z</time></trkpt><trkpt lat="42.181726011629564" lon="13.273494784119949"><ele>803.5</ele><time>2026-04-27T13:08:09Z</time></trkpt><trkpt lat="42.18180988862434" lon="13.273376667792213"><ele>803.0</ele><time>2026-04-27T13:08:10Z</time></trkpt><trkpt lat="42.18188584346345" lon="13.273253831714122"><ele>802.75</ele><time>2026-04-27T13:08:11Z</time></trkpt><trkpt lat="42.18181744873856" lon="13.273069445247375"><ele>802.5</ele><time>2026-04-27T13:08:12Z</time></trkpt><trkpt lat="42.1818611019102" lon="13.272966349122708"><ele>802.25</ele><time>2026-04-27T13:08:13Z</time></trkpt><trkpt lat="42.181903657910546" lon="13.272865844199057"><ele>802.0</ele><time>2026-04-27T13:08:14Z</time></trkpt><trkpt lat="42.1820974264873" lon="13.27290084433305"><ele>802.0</ele><time>2026-04-27T13:08:15Z</time></trkpt><trkpt lat="42.18216433025834" lon="13.272820872954894"><ele>802.0</ele><time>2026-04-27T13:08:16Z</time></trkpt><trkpt lat="42.182263601057244" lon="13.272722448734733"><ele>802.0</ele><time>2026-04-27T13:08:17Z</time></trkpt><trkpt lat="42.18238522084771" lon="13.272615657468565"><ele>802.0</ele><time>2026-04-27T13:08:18Z</time></trkpt><trkpt lat="42.18250831123042" lon="13.272498548845311"><ele>802.0</ele><time>2026-04-27T13:08:19Z</time></trkpt><trkpt lat="42.18262010009438" lon="13.272360331435523"><ele>802.0</ele><time>2026-04-27T13:08:20Z</time></trkpt><trkpt lat="42.18270526196247" lon="13.27220599099633"><ele>802.0</ele><time>2026-04-27T13:08:21Z</time></trkpt><trkpt lat="42.18279739908359" lon="13.272056213720699"><ele>802.0</ele><time>2026-04-27T13:08:22Z</time></trkpt><trkpt lat="42.182899864237235" lon="13.271915929501423"><ele>802.0</ele><time>2026-04-27T13:08:23Z</time></trkpt><trkpt lat="42.1829801244911" lon="13.271776770176094"><ele>802.0</ele><time>2026-04-27T13:08:24Z</time></trkpt><trkpt lat="42.18305008629755" lon="13.271634770406852"><ele>802.0</ele><time>2026-04-27T13:08:25Z</time></trkpt><trkpt lat="42.18310798839512" lon="13.271494187764763"><ele>802.0</ele><time>2026-04-27T13:08:26Z</time></trkpt><trkpt lat="42.18316431244675" lon="13.271326277607251"><ele>801.5</ele><time>2026-04-27T13:08:27Z</time></trkpt><trkpt lat="42.18323159372809" lon="13.271168851242676"><ele>801.0</ele><time>2026-04-27T13:08:28Z</time></trkpt><trkpt lat="42.183322069725904" lon="13.271039190306988"><ele>800.5</ele><time>2026-04-27T13:08:29Z</time></trkpt><trkpt lat="42.183411772407986" lon="13.27095348972471"><ele>800.0</ele><time>2026-04-27T13:08:30Z</time></trkpt><trkpt lat="42.183483279374194" lon="13.270927696100577"><ele>800.0</ele><time>2026-04-27T13:08:31Z</time></trkpt><trkpt lat="42.183576597023134" lon="13.270940414485993"><ele>800.0</ele><time>2026-04-27T13:08:32Z</time></trkpt><trkpt lat="42.183683472056344" lon="13.270948290188533"><ele>800.0</ele><time>2026-04-27T13:08:33Z</time></trkpt><trkpt lat="42.18381986789189" lon="13.270960870663663"><ele>800.0</ele><time>2026-04-27T13:08:34Z</time></trkpt><trkpt lat="42.18396123774625" lon="13.270951927402615"><ele>800.0</ele><time>2026-04-27T13:08:35Z</time></trkpt><trkpt lat="42.184121609246304" lon="13.27092236481569"><ele>800.0</ele><time>2026-04-27T13:08:36Z</time></trkpt><trkpt lat="42.184254597558464" lon="13.270903666031275"><ele>800.0</ele><time>2026-04-27T13:08:37Z</time></trkpt><trkpt lat="42.18437424081804" lon="13.270866039397118"><ele>800.0</ele><time>2026-04-27T13:08:38Z</time></trkpt><trkpt lat="42.18449470184041" lon="13.270782701423965"><ele>800.0</ele><time>2026-04-27T13:08:39Z</time></trkpt><trkpt lat="42.18461700945008" lon="13.270675956412473"><ele>800.0</ele><time>2026-04-27T13:08:40Z</time></trkpt><trkpt lat="42.18474915595774" lon="13.270557237192218"><ele>800.0</ele><time>2026-04-27T13:08:41Z</time></trkpt><trkpt lat="42.184883376938046" lon="13.270419763217616"><ele>800.6666666666667</ele><time>2026-04-27T13:08:42Z</time></trkpt><trkpt lat="42.185012841956" lon="13.270286583439072"><ele>801.3333333333333</ele><time>2026-04-27T13:08:43Z</time></trkpt><trkpt lat="42.18514642795033" lon="13.27014933256071"><ele>802.0</ele><time>2026-04-27T13:08:44Z</time></trkpt><trkpt lat="42.18527037513166" lon="13.270041025425472"><ele>802.0</ele><time>2026-04-27T13:08:45Z</time></trkpt><trkpt lat="42.18539092318332" lon="13.269960079552975"><ele>802.0</ele><time>2026-04-27T13:08:46Z</time></trkpt><trkpt lat="42.18552600584352" lon="13.26986603626464"><ele>802.0</ele><time>2026-04-27T13:08:47Z</time></trkpt><trkpt lat="42.18566871767648" lon="13.269762868261125"><ele>802.0</ele><time>2026-04-27T13:08:48Z</time></trkpt><trkpt lat="42.185813630434254" lon="13.269664140920337"><ele>802.3333333333333</ele><time>2026-04-27T13:08:49Z</time></trkpt><trkpt lat="42.185975625495466" lon="13.269562082504192"><ele>802.6666666666667</ele><time>2026-04-27T13:08:50Z</time></trkpt><trkpt lat="42.18609836286542" lon="13.269481346478551"><ele>803.0</ele><time>2026-04-27T13:08:51Z</time></trkpt><trkpt lat="42.18623379572751" lon="13.269383963048767"><ele>803.0</ele><time>2026-04-27T13:08:52Z</time></trkpt><trkpt lat="42.18637013427811" lon="13.269296597326422"><ele>803.0</ele><time>2026-04-27T13:08:53Z</time></trkpt><trkpt lat="42.18650443766917" lon="13.269230238259999"><ele>803.0</ele><time>2026-04-27T13:08:54Z</time></trkpt><trkpt lat="42.18663825616464" lon="13.269156375449114"><ele>803.0</ele><time>2026-04-27T13:08:55Z</time></trkpt><trkpt lat="42.1867629238612" lon="13.269083098095924"><ele>803.0</ele><time>2026-04-27T13:08:56Z</time></trkpt><trkpt lat="42.18688414770455" lon="13.268990011211457"><ele>803.0</ele><time>2026-04-27T13:08:57Z</time></trkpt><trkpt lat="42.18700063999569" lon="13.26887700585148"><ele>803.0</ele><time>2026-04-27T13:08:58Z</time></trkpt><trkpt lat="42.18713275195145" lon="13.2687486990431"><ele>803.0</ele><time>2026-04-27T13:08:59Z</time></trkpt><trkpt lat="42.18725402300843" lon="13.26863259406802"><ele>802.6666666666667</ele><time>2026-04-27T13:09:00Z</time></trkpt><trkpt lat="42.187391649130745" lon="13.26852128462647"><ele>802.3333333333333</ele><time>2026-04-27T13:09:01Z</time></trkpt><trkpt lat="42.187517157894945" lon="13.268430456536072"><ele>802.0</ele><time>2026-04-27T13:09:02Z</time></trkpt><trkpt lat="42.1876477366986" lon="13.268331740809773"><ele>802.0</ele><time>2026-04-27T13:09:03Z</time></trkpt><trkpt lat="42.187782830691624" lon="13.268225094961888"><ele>802.0</ele><time>2026-04-27T13:09:04Z</time></trkpt><trkpt lat="42.18789605605887" lon="13.268130115493472"><ele>802.0</ele><time>2026-04-27T13:09:05.001Z</time></trkpt><trkpt lat="42.187992261174784" lon="13.268048714316578"><ele>802.0</ele><time>2026-04-27T13:09:06.001Z</time></trkpt><trkpt lat="42.188073765784075" lon="13.26797628705436"><ele>802.0</ele><time>2026-04-27T13:09:07.001Z</time></trkpt><trkpt lat="42.18814521986099" lon="13.267920117697072"><ele>802.0</ele><time>2026-04-27T13:09:08.001Z</time></trkpt><trkpt lat="42.1882344236212" lon="13.26787763757711"><ele>802.0</ele><time>2026-04-27T13:09:09.001Z</time></trkpt><trkpt lat="42.1883500414194" lon="13.267859824274868"><ele>802.0</ele><time>2026-04-27T13:09:10.001Z</time></trkpt><trkpt lat="42.18847846551115" lon="13.267821862705286"><ele>802.0</ele><time>2026-04-27T13:09:11.001Z</time></trkpt><trkpt lat="42.18861765807132" lon="13.267760837504127"><ele>802.75</ele><time>2026-04-27T13:09:12.001Z</time></trkpt><trkpt lat="42.18875008543076" lon="13.267705098313249"><ele>803.5</ele><time>2026-04-27T13:09:13.001Z</time></trkpt><trkpt lat="42.188869475220834" lon="13.26763570811291"><ele>804.25</ele><time>2026-04-27T13:09:14.001Z</time></trkpt><trkpt lat="42.18896752275703" lon="13.267548976260645"><ele>805.0</ele><time>2026-04-27T13:09:15.001Z</time></trkpt><trkpt lat="42.18906998716005" lon="13.267451880541069"><ele>805.3333333333333</ele><time>2026-04-27T13:09:16.001Z</time></trkpt><trkpt lat="42.18919806464335" lon="13.267363841047608"><ele>805.6666666666667</ele><time>2026-04-27T13:09:17.001Z</time></trkpt><trkpt lat="42.18932979253085" lon="13.267270629505413"><ele>806.0</ele><time>2026-04-27T13:09:18.001Z</time></trkpt><trkpt lat="42.189467494420896" lon="13.267151721776886"><ele>805.3333333333334</ele><time>2026-04-27T13:09:19.001Z</time></trkpt><trkpt lat="42.18959477563319" lon="13.267020847647409"><ele>804.6666666666667</ele><time>2026-04-27T13:09:20.001Z</time></trkpt><trkpt lat="42.189730510177895" lon="13.2668771292119"><ele>804.0</ele><time>2026-04-27T13:09:21.001Z</time></trkpt><trkpt lat="42.189861656821236" lon="13.266753794313018"><ele>805.3333333333333</ele><time>2026-04-27T13:09:22.001Z</time></trkpt><trkpt lat="42.18999361439435" lon="13.266656902491057"><ele>806.6666666666666</ele><time>2026-04-27T13:09:23.001Z</time></trkpt><trkpt lat="42.19013672102454" lon="13.266571489907177"><ele>808.0</ele><time>2026-04-27T13:09:24.001Z</time></trkpt><trkpt lat="42.190271613578126" lon="13.266500677885029"><ele>807.5</ele><time>2026-04-27T13:09:25.001Z</time></trkpt><trkpt lat="42.19037298583748" lon="13.266417696107"><ele>807.0</ele><time>2026-04-27T13:09:26.001Z</time></trkpt><trkpt lat="42.19047811087862" lon="13.26629448556788"><ele>806.5</ele><time>2026-04-27T13:09:27.001Z</time></trkpt><trkpt lat="42.1906048318748" lon="13.2661547722877"><ele>806.0</ele><time>2026-04-27T13:09:28.001Z</time></trkpt><trkpt lat="42.19075033247169" lon="13.266011550108614"><ele>806.3333333333334</ele><time>2026-04-27T13:09:29.001Z</time></trkpt><trkpt lat="42.190873846357285" lon="13.265880495375125"><ele>806.6666666666667</ele><time>2026-04-27T13:09:30.001Z</time></trkpt><trkpt lat="42.190979009449926" lon="13.265714858637882"><ele>807.0</ele><time>2026-04-27T13:09:31.001Z</time></trkpt><trkpt lat="42.191086724879895" lon="13.265552805889913"><ele>807.0</ele><time>2026-04-27T13:09:32.001Z</time></trkpt><trkpt lat="42.19120686373223" lon="13.265401073332633"><ele>807.0</ele><time>2026-04-27T13:09:33.001Z</time></trkpt><trkpt lat="42.19132702803289" lon="13.265289113403577"><ele>807.0</ele><time>2026-04-27T13:09:34.001Z</time></trkpt><trkpt lat="42.19142757487004" lon="13.265158130384224"><ele>807.5</ele><time>2026-04-27T13:09:35.001Z</time></trkpt><trkpt lat="42.19151937917446" lon="13.264985744182413"><ele>808.0</ele><time>2026-04-27T13:09:36.001Z</time></trkpt><trkpt lat="42.19160682704742" lon="13.264818484821522"><ele>808.5</ele><time>2026-04-27T13:09:37.001Z</time></trkpt><trkpt lat="42.19170138314875" lon="13.264693466659155"><ele>809.0</ele><time>2026-04-27T13:09:38.001Z</time></trkpt><trkpt lat="42.191811372831495" lon="13.26463268876164"><ele>809.0</ele><time>2026-04-27T13:09:39.001Z</time></trkpt><trkpt lat="42.19192722390131" lon="13.264537804396728"><ele>809.0</ele><time>2026-04-27T13:09:40Z</time></trkpt><trkpt lat="42.19206338228035" lon="13.264454346282712"><ele>809.0</ele><time>2026-04-27T13:09:41Z</time></trkpt><trkpt lat="42.19218851393927" lon="13.264370119005733"><ele>809.0</ele><time>2026-04-27T13:09:42Z</time></trkpt><trkpt lat="42.1923252910445" lon="13.264313335550302"><ele>810.3333333333334</ele><time>2026-04-27T13:09:43Z</time></trkpt><trkpt lat="42.19247269066595" lon="13.26425572038669"><ele>811.6666666666667</ele><time>2026-04-27T13:09:44Z</time></trkpt><trkpt lat="42.192624287046755" lon="13.264175478272858"><ele>813.0</ele><time>2026-04-27T13:09:45Z</time></trkpt><trkpt lat="42.19277770374086" lon="13.264078497721574"><ele>813.0</ele><time>2026-04-27T13:09:46Z</time></trkpt><trkpt lat="42.19292787180589" lon="13.263977581331392"><ele>813.0</ele><time>2026-04-27T13:09:47Z</time></trkpt><trkpt lat="42.19306705615466" lon="13.263913209117211"><ele>813.0</ele><time>2026-04-27T13:09:48Z</time></trkpt><trkpt lat="42.193200595981516" lon="13.263836186352238"><ele>813.3333333333333</ele><time>2026-04-27T13:09:49Z</time></trkpt><trkpt lat="42.193325356942076" lon="13.26374305074663"><ele>813.6666666666666</ele><time>2026-04-27T13:09:50Z</time></trkpt><trkpt lat="42.193465746507364" lon="13.263632961395244"><ele>814.0</ele><time>2026-04-27T13:09:51Z</time></trkpt><trkpt lat="42.19360427621294" lon="13.263516754665034"><ele>814.0</ele><time>2026-04-27T13:09:52Z</time></trkpt><trkpt lat="42.19374671243731" lon="13.26339289717275"><ele>814.0</ele><time>2026-04-27T13:09:53Z</time></trkpt><trkpt lat="42.193889194535494" lon="13.263271116839595"><ele>814.0</ele><time>2026-04-27T13:09:54Z</time></trkpt><trkpt lat="42.19400738723373" lon="13.263180366405154"><ele>814.25</ele><time>2026-04-27T13:09:55Z</time></trkpt><trkpt lat="42.19412017550942" lon="13.263109800578182"><ele>814.5</ele><time>2026-04-27T13:09:56Z</time></trkpt><trkpt lat="42.19422440906523" lon="13.263035018519806"><ele>814.75</ele><time>2026-04-27T13:09:57Z</time></trkpt><trkpt lat="42.19432405079682" lon="13.262978563254665"><ele>815.0</ele><time>2026-04-27T13:09:58Z</time></trkpt><trkpt lat="42.194437107979475" lon="13.26296660973215"><ele>815.0</ele><time>2026-04-27T13:09:59Z</time></trkpt><trkpt lat="42.19458090534953" lon="13.262946251254075"><ele>815.0</ele><time>2026-04-27T13:10:00Z</time></trkpt><trkpt lat="42.19472626785852" lon="13.262895109551824"><ele>815.0</ele><time>2026-04-27T13:10:01Z</time></trkpt><trkpt lat="42.194846306356965" lon="13.262854303092565"><ele>815.0</ele><time>2026-04-27T13:10:02Z</time></trkpt><trkpt lat="42.19495803319641" lon="13.262833014158405"><ele>815.0</ele><time>2026-04-27T13:10:03Z</time></trkpt><trkpt lat="42.195058473742634" lon="13.262850370087191"><ele>815.0</ele><time>2026-04-27T13:10:04Z</time></trkpt><trkpt lat="42.19516010376257" lon="13.262891663179868"><ele>815.0</ele><time>2026-04-27T13:10:05Z</time></trkpt><trkpt lat="42.195260342012034" lon="13.262944622165406"><ele>815.0</ele><time>2026-04-27T13:10:06Z</time></trkpt><trkpt lat="42.19534168942276" lon="13.262983858962539"><ele>815.0</ele><time>2026-04-27T13:10:07Z</time></trkpt><trkpt lat="42.19540855829105" lon="13.26299805514635"><ele>815.0</ele><time>2026-04-27T13:10:08Z</time></trkpt><trkpt lat="42.195509227703816" lon="13.262909592536277"><ele>815.0</ele><time>2026-04-27T13:10:10Z</time></trkpt><trkpt lat="42.19556031956962" lon="13.26282152793473"><ele>815.0</ele><time>2026-04-27T13:10:11Z</time></trkpt><trkpt lat="42.19560928990911" lon="13.262696163828604"><ele>815.0</ele><time>2026-04-27T13:10:12Z</time></trkpt><trkpt lat="42.195655110184084" lon="13.262541727878839"><ele>815.0</ele><time>2026-04-27T13:10:13Z</time></trkpt><trkpt lat="42.195708034320404" lon="13.262374773228284"><ele>815.0</ele><time>2026-04-27T13:10:14Z</time></trkpt><trkpt lat="42.19577295093779" lon="13.262195864214064"><ele>815.0</ele><time>2026-04-27T13:10:15Z</time></trkpt><trkpt lat="42.19584047398617" lon="13.262043090421269"><ele>815.0</ele><time>2026-04-27T13:10:16Z</time></trkpt><trkpt lat="42.19591237779231" lon="13.26189723738675"><ele>815.0</ele><time>2026-04-27T13:10:17Z</time></trkpt><trkpt lat="42.195965365823646" lon="13.261733461576801"><ele>815.0</ele><time>2026-04-27T13:10:18Z</time></trkpt><trkpt lat="42.196017629687404" lon="13.261545732983102"><ele>815.0</ele><time>2026-04-27T13:10:19Z</time></trkpt><trkpt lat="42.19607638380575" lon="13.26135302465429"><ele>815.0</ele><time>2026-04-27T13:10:20Z</time></trkpt><trkpt lat="42.196133656672245" lon="13.261183014027875"><ele>815.0</ele><time>2026-04-27T13:10:21Z</time></trkpt><trkpt lat="42.19617504770295" lon="13.261016819412903"><ele>814.8</ele><time>2026-04-27T13:10:22Z</time></trkpt><trkpt lat="42.19620786165394" lon="13.260826299828963"><ele>814.6</ele><time>2026-04-27T13:10:23Z</time></trkpt><trkpt lat="42.19623018382133" lon="13.260657767734576"><ele>814.4000000000001</ele><time>2026-04-27T13:10:24Z</time></trkpt><trkpt lat="42.196259023214" lon="13.260531734163118"><ele>814.2</ele><time>2026-04-27T13:10:25Z</time></trkpt><trkpt lat="42.19629654766639" lon="13.26046179217923"><ele>814.0</ele><time>2026-04-27T13:10:26Z</time></trkpt><trkpt lat="42.19635242409906" lon="13.260416081775496"><ele>813.4000000000001</ele><time>2026-04-27T13:10:27Z</time></trkpt><trkpt lat="42.1964272204357" lon="13.260383301944742"><ele>812.8</ele><time>2026-04-27T13:10:28Z</time></trkpt><trkpt lat="42.19651935797896" lon="13.260363179846385"><ele>812.2</ele><time>2026-04-27T13:10:29Z</time></trkpt><trkpt lat="42.19662730055427" lon="13.260352585829875"><ele>811.5999999999999</ele><time>2026-04-27T13:10:30Z</time></trkpt><trkpt lat="42.196745166172974" lon="13.260361941232544"><ele>811.0</ele><time>2026-04-27T13:10:31Z</time></trkpt><trkpt lat="42.19687582295172" lon="13.260352241300296"><ele>811.0</ele><time>2026-04-27T13:10:32Z</time></trkpt><trkpt lat="42.19699882369143" lon="13.260321924476074"><ele>811.0</ele><time>2026-04-27T13:10:33Z</time></trkpt><trkpt lat="42.197123854501584" lon="13.260265795772142"><ele>811.0</ele><time>2026-04-27T13:10:34Z</time></trkpt><trkpt lat="42.197256045942545" lon="13.260202868308749"><ele>811.0</ele><time>2026-04-27T13:10:35Z</time></trkpt><trkpt lat="42.197382738089" lon="13.260152683200717"><ele>811.0</ele><time>2026-04-27T13:10:36Z</time></trkpt><trkpt lat="42.197504121305954" lon="13.260080684464775"><ele>811.0</ele><time>2026-04-27T13:10:37Z</time></trkpt><trkpt lat="42.197638262581386" lon="13.259982451607334"><ele>811.0</ele><time>2026-04-27T13:10:38.001Z</time></trkpt><trkpt lat="42.19776467189127" lon="13.259856826264798"><ele>811.0</ele><time>2026-04-27T13:10:39.001Z</time></trkpt><trkpt lat="42.197883516415764" lon="13.259724831121494"><ele>811.5</ele><time>2026-04-27T13:10:40.001Z</time></trkpt><trkpt lat="42.19802146526898" lon="13.259588843554097"><ele>812.0</ele><time>2026-04-27T13:10:41.001Z</time></trkpt><trkpt lat="42.19813169284523" lon="13.259480716664747"><ele>812.5</ele><time>2026-04-27T13:10:42.001Z</time></trkpt><trkpt lat="42.198222397929605" lon="13.259412454538564"><ele>813.0</ele><time>2026-04-27T13:10:43.001Z</time></trkpt><trkpt lat="42.19829033625928" lon="13.259390874532961"><ele>813.0</ele><time>2026-04-27T13:10:44.001Z</time></trkpt><trkpt lat="42.19836905867614" lon="13.259432387912504"><ele>813.0</ele><time>2026-04-27T13:10:45.001Z</time></trkpt><trkpt lat="42.19846067726949" lon="13.259429227030845"><ele>813.0</ele><time>2026-04-27T13:10:46.001Z</time></trkpt><trkpt lat="42.19856229961454" lon="13.259428477288774"><ele>813.0</ele><time>2026-04-27T13:10:47.001Z</time></trkpt><trkpt lat="42.19866722973663" lon="13.259398195483065"><ele>813.0</ele><time>2026-04-27T13:10:48.001Z</time></trkpt><trkpt lat="42.1987716318351" lon="13.259339407495807"><ele>813.0</ele><time>2026-04-27T13:10:49.001Z</time></trkpt><trkpt lat="42.19888454517491" lon="13.25926451337851"><ele>813.0</ele><time>2026-04-27T13:10:50.001Z</time></trkpt><trkpt lat="42.19900937448077" lon="13.259182514400052"><ele>813.0</ele><time>2026-04-27T13:10:51.001Z</time></trkpt><trkpt lat="42.19913493488586" lon="13.259100239894641"><ele>813.0</ele><time>2026-04-27T13:10:52.001Z</time></trkpt><trkpt lat="42.19924712744796" lon="13.2590244780843"><ele>813.5999999999999</ele><time>2026-04-27T13:10:53.001Z</time></trkpt><trkpt lat="42.19934331746054" lon="13.258978522736843"><ele>814.1999999999999</ele><time>2026-04-27T13:10:54.001Z</time></trkpt><trkpt lat="42.19944066438008" lon="13.259011325138568"><ele>814.8</ele><time>2026-04-27T13:10:55.001Z</time></trkpt><trkpt lat="42.19955310579058" lon="13.25903223761902"><ele>815.4</ele><time>2026-04-27T13:10:56.001Z</time></trkpt><trkpt lat="42.19967787003264" lon="13.25909519684845"><ele>816.0</ele><time>2026-04-27T13:10:57.001Z</time></trkpt><trkpt lat="42.19975948474658" lon="13.259164484347382"><ele>816.0</ele><time>2026-04-27T13:10:58.001Z</time></trkpt><trkpt lat="42.19981838746428" lon="13.259212048014941"><ele>816.0</ele><time>2026-04-27T13:10:59.001Z</time></trkpt><trkpt lat="42.19988931217139" lon="13.258987568946798"><ele>816.0</ele><time>2026-04-27T13:11:04.001Z</time></trkpt><trkpt lat="42.19984496371746" lon="13.258891999988279"><ele>816.0</ele><time>2026-04-27T13:11:05.001Z</time></trkpt><trkpt lat="42.19980388487471" lon="13.258761331268706"><ele>816.0</ele><time>2026-04-27T13:11:06.001Z</time></trkpt><trkpt lat="42.199761451671385" lon="13.258624328414209"><ele>815.75</ele><time>2026-04-27T13:11:07.001Z</time></trkpt><trkpt lat="42.19971567684439" lon="13.258476096182827"><ele>815.5</ele><time>2026-04-27T13:11:08.001Z</time></trkpt><trkpt lat="42.1996637020934" lon="13.258317754236293"><ele>815.25</ele><time>2026-04-27T13:11:09.001Z</time></trkpt><trkpt lat="42.19961610924914" lon="13.258171323286497"><ele>815.0</ele><time>2026-04-27T13:11:10.001Z</time></trkpt><trkpt lat="42.199577188840536" lon="13.258042044655458"><ele>815.3333333333334</ele><time>2026-04-27T13:11:11.001Z</time></trkpt><trkpt lat="42.19956210557311" lon="13.257936758038921"><ele>815.6666666666667</ele><time>2026-04-27T13:11:12.001Z</time></trkpt><trkpt lat="42.199574418779434" lon="13.257831765844804"><ele>816.0</ele><time>2026-04-27T13:11:13.001Z</time></trkpt><trkpt lat="42.19960312810401" lon="13.257739636845896"><ele>816.3333333333333</ele><time>2026-04-27T13:11:14.001Z</time></trkpt><trkpt lat="42.19963316349816" lon="13.257598465360928"><ele>816.6666666666666</ele><time>2026-04-27T13:11:15.001Z</time></trkpt><trkpt lat="42.19965161955392" lon="13.2574672677484"><ele>817.0</ele><time>2026-04-27T13:11:16.001Z</time></trkpt><trkpt lat="42.19968712120249" lon="13.257356112655735"><ele>817.8333333333333</ele><time>2026-04-27T13:11:17.001Z</time></trkpt><trkpt lat="42.19973106629123" lon="13.257269332615746"><ele>818.6666666666666</ele><time>2026-04-27T13:11:18.001Z</time></trkpt><trkpt lat="42.199782739320135" lon="13.257216647866729"><ele>819.5</ele><time>2026-04-27T13:11:19.001Z</time></trkpt><trkpt lat="42.19985959039207" lon="13.257209168175988"><ele>820.3333333333333</ele><time>2026-04-27T13:11:20.001Z</time></trkpt><trkpt lat="42.19988557452822" lon="13.257110779844622"><ele>821.1666666666666</ele><time>2026-04-27T13:11:22.001Z</time></trkpt><trkpt lat="42.19977995093716" lon="13.256992781341767"><ele>822.0</ele><time>2026-04-27T13:11:24.001Z</time></trkpt><trkpt lat="42.199709273055966" lon="13.25690078548232"><ele>822.0</ele><time>2026-04-27T13:11:25.001Z</time></trkpt><trkpt lat="42.199658104755436" lon="13.256776615601993"><ele>822.0</ele><time>2026-04-27T13:11:26.001Z</time></trkpt><trkpt lat="42.199625760519446" lon="13.256692825023997"><ele>822.0</ele><time>2026-04-27T13:11:27.001Z</time></trkpt><trkpt lat="42.1996788208018" lon="13.256639505225785"><ele>822.0</ele><time>2026-04-27T13:11:29.001Z</time></trkpt><trkpt lat="42.19974801663441" lon="13.25672683361572"><ele>822.0</ele><time>2026-04-27T13:11:31.001Z</time></trkpt><trkpt lat="42.19982453086007" lon="13.256777010340837"><ele>822.0</ele><time>2026-04-27T13:11:32.001Z</time></trkpt><trkpt lat="42.199913988356734" lon="13.256852360316845"><ele>825.0</ele><time>2026-04-27T13:11:33.001Z</time></trkpt><trkpt lat="42.19999446435231" lon="13.256908518544847"><ele>828.0</ele><time>2026-04-27T13:11:34.001Z</time></trkpt><trkpt lat="42.200099925773884" lon="13.256953201404139"><ele>831.0</ele><time>2026-04-27T13:11:35.001Z</time></trkpt><trkpt lat="42.20022321775171" lon="13.256963132902486"><ele>834.0</ele><time>2026-04-27T13:11:36.001Z</time></trkpt><trkpt lat="42.20034176973446" lon="13.256977920308497"><ele>837.0</ele><time>2026-04-27T13:11:37.001Z</time></trkpt><trkpt lat="42.200459844687934" lon="13.256999667946817"><ele>837.0</ele><time>2026-04-27T13:11:38.001Z</time></trkpt><trkpt lat="42.20058513233937" lon="13.25701505774732"><ele>837.0</ele><time>2026-04-27T13:11:39.001Z</time></trkpt><trkpt lat="42.20070959360384" lon="13.257035409497746"><ele>837.0</ele><time>2026-04-27T13:11:40.001Z</time></trkpt><trkpt lat="42.20082495879966" lon="13.257055984437047"><ele>837.0</ele><time>2026-04-27T13:11:41.001Z</time></trkpt><trkpt lat="42.20089810069414" lon="13.257069761550959"><ele>837.0</ele><time>2026-04-27T13:11:42.001Z</time></trkpt><trkpt lat="42.2009214794144" lon="13.256986974864102"><ele>839.6666666666666</ele><time>2026-04-27T13:11:47.001Z</time></trkpt><trkpt lat="42.20086469040795" lon="13.25689792385076"><ele>842.3333333333333</ele><time>2026-04-27T13:11:49.001Z</time></trkpt><trkpt lat="42.2009884641425" lon="13.256854621101906"><ele>845.0</ele><time>2026-04-27T13:11:52.001Z</time></trkpt><trkpt lat="42.20106516306508" lon="13.256856396679607"><ele>847.6666666666666</ele><time>2026-04-27T13:11:53.001Z</time></trkpt><trkpt lat="42.2011353998612" lon="13.256862970543526"><ele>850.3333333333333</ele><time>2026-04-27T13:11:54Z</time></trkpt><trkpt lat="42.20121307949343" lon="13.25687462559118"><ele>853.0</ele><time>2026-04-27T13:11:55Z</time></trkpt><trkpt lat="42.20128349124712" lon="13.256872895464806"><ele>852.9999999999999</ele><time>2026-04-27T13:11:56Z</time></trkpt><trkpt lat="42.20136075356244" lon="13.256860822432484"><ele>853.0</ele><time>2026-04-27T13:11:57Z</time></trkpt><trkpt lat="42.201434428965634" lon="13.256851231400445"><ele>853.0</ele><time>2026-04-27T13:11:58Z</time></trkpt><trkpt lat="42.201510306531326" lon="13.256840829794"><ele>853.0</ele><time>2026-04-27T13:11:59Z</time></trkpt><trkpt lat="42.201584794033266" lon="13.256839129254319"><ele>852.9999999999999</ele><time>2026-04-27T13:12:00Z</time></trkpt><trkpt lat="42.201669571420666" lon="13.256838150178167"><ele>853.0</ele><time>2026-04-27T13:12:01Z</time></trkpt><trkpt lat="42.20175956017406" lon="13.256835796359425"><ele>856.4</ele><time>2026-04-27T13:12:02Z</time></trkpt><trkpt lat="42.20185170067072" lon="13.25684148513527"><ele>859.8</ele><time>2026-04-27T13:12:03Z</time></trkpt><trkpt lat="42.20193610791399" lon="13.256849446159057"><ele>863.2</ele><time>2026-04-27T13:12:04Z</time></trkpt><trkpt lat="42.20202649688739" lon="13.256857482512372"><ele>866.6</ele><time>2026-04-27T13:12:05Z</time></trkpt><trkpt lat="42.20213117117678" lon="13.256848953690657"><ele>870.0</ele><time>2026-04-27T13:12:06Z</time></trkpt><trkpt lat="42.20222439190409" lon="13.256832229164631"><ele>870.0</ele><time>2026-04-27T13:12:07Z</time></trkpt><trkpt lat="42.20230509601185" lon="13.256821251737447"><ele>870.0</ele><time>2026-04-27T13:12:08Z</time></trkpt><trkpt lat="42.202380063748215" lon="13.256794224074838"><ele>870.0</ele><time>2026-04-27T13:12:09Z</time></trkpt><trkpt lat="42.20244619115611" lon="13.256764417478506"><ele>870.0</ele><time>2026-04-27T13:12:10Z</time></trkpt><trkpt lat="42.20252253825168" lon="13.25675279309386"><ele>870.0</ele><time>2026-04-27T13:12:11Z</time></trkpt><trkpt lat="42.20260684006833" lon="13.256726045946147"><ele>870.0</ele><time>2026-04-27T13:12:12Z</time></trkpt><trkpt lat="42.202691522361526" lon="13.256682282025581"><ele>871.4</ele><time>2026-04-27T13:12:13Z</time></trkpt><trkpt lat="42.20276525050514" lon="13.2566517388587"><ele>872.8</ele><time>2026-04-27T13:12:14Z</time></trkpt><trkpt lat="42.202858120295815" lon="13.256547522442927"><ele>874.2</ele><time>2026-04-27T13:12:16Z</time></trkpt><trkpt lat="42.20291086332061" lon="13.256464926138761"><ele>875.6</ele><time>2026-04-27T13:12:17Z</time></trkpt><trkpt lat="42.202963162352226" lon="13.256368782784568"><ele>877.0</ele><time>2026-04-27T13:12:18Z</time></trkpt><trkpt lat="42.20301233753253" lon="13.256257301995625"><ele>878.2</ele><time>2026-04-27T13:12:19Z</time></trkpt><trkpt lat="42.20304895987732" lon="13.256141464825744"><ele>879.4000000000001</ele><time>2026-04-27T13:12:20Z</time></trkpt><trkpt lat="42.203093167307976" lon="13.256031157319203"><ele>880.5999999999999</ele><time>2026-04-27T13:12:21Z</time></trkpt><trkpt lat="42.2031722952578" lon="13.25593584666974"><ele>881.8</ele><time>2026-04-27T13:12:22Z</time></trkpt><trkpt lat="42.20325419464509" lon="13.255811352085425"><ele>883.0</ele><time>2026-04-27T13:12:23Z</time></trkpt><trkpt lat="42.20330187244516" lon="13.255696579602425"><ele>885.2</ele><time>2026-04-27T13:12:24Z</time></trkpt><trkpt lat="42.20334832601251" lon="13.25558990382744"><ele>887.4</ele><time>2026-04-27T13:12:25Z</time></trkpt><trkpt lat="42.20331872011306" lon="13.255414715480459"><ele>889.6000000000001</ele><time>2026-04-27T13:12:27Z</time></trkpt><trkpt lat="42.203280407959994" lon="13.255303565559442"><ele>891.8000000000001</ele><time>2026-04-27T13:12:28.001Z</time></trkpt><trkpt lat="42.20327622898677" lon="13.25517538899857"><ele>894.0</ele><time>2026-04-27T13:12:29.001Z</time></trkpt><trkpt lat="42.20325642291474" lon="13.255035578475141"><ele>894.0</ele><time>2026-04-27T13:12:30.001Z</time></trkpt><trkpt lat="42.20328206303964" lon="13.25490920657043"><ele>894.0</ele><time>2026-04-27T13:12:32.001Z</time></trkpt><trkpt lat="42.20336419947231" lon="13.254994719678393"><ele>894.0</ele><time>2026-04-27T13:12:35.001Z</time></trkpt><trkpt lat="42.20341147426804" lon="13.255054934797972"><ele>894.0</ele><time>2026-04-27T13:12:36.001Z</time></trkpt><trkpt lat="42.20346598156002" lon="13.255124362292056"><ele>894.0</ele><time>2026-04-27T13:12:37.001Z</time></trkpt><trkpt lat="42.20352867238981" lon="13.25522942907062"><ele>894.0</ele><time>2026-04-27T13:12:38.001Z</time></trkpt><trkpt lat="42.20365401486086" lon="13.25520886018004"><ele>894.0</ele><time>2026-04-27T13:12:39.001Z</time></trkpt><trkpt lat="42.20374016672899" lon="13.255277917955107"><ele>894.0000000000001</ele><time>2026-04-27T13:12:40.001Z</time></trkpt><trkpt lat="42.203836528904226" lon="13.255364984148418"><ele>894.0000000000001</ele><time>2026-04-27T13:12:41.001Z</time></trkpt><trkpt lat="42.20391960096715" lon="13.255455364789812"><ele>894.0</ele><time>2026-04-27T13:12:42.001Z</time></trkpt><trkpt lat="42.20400313606494" lon="13.255552128003865"><ele>894.0</ele><time>2026-04-27T13:12:43.001Z</time></trkpt><trkpt lat="42.20408083092064" lon="13.255653867608912"><ele>895.5</ele><time>2026-04-27T13:12:44.001Z</time></trkpt><trkpt lat="42.2041596374673" lon="13.255781949208497"><ele>897.0</ele><time>2026-04-27T13:12:45.001Z</time></trkpt><trkpt lat="42.20425638003834" lon="13.25590879419871"><ele>898.5</ele><time>2026-04-27T13:12:46.001Z</time></trkpt><trkpt lat="42.2043812925692" lon="13.256018542811727"><ele>900.0</ele><time>2026-04-27T13:12:47.001Z</time></trkpt><trkpt lat="42.20453587144829" lon="13.256109885029216"><ele>900.0</ele><time>2026-04-27T13:12:48.001Z</time></trkpt><trkpt lat="42.204693844545965" lon="13.256196042390876"><ele>900.0</ele><time>2026-04-27T13:12:49.001Z</time></trkpt><trkpt lat="42.20484026794165" lon="13.256306675632926"><ele>900.0</ele><time>2026-04-27T13:12:50.001Z</time></trkpt><trkpt lat="42.20493658049648" lon="13.25645579564179"><ele>903.3333333333333</ele><time>2026-04-27T13:12:51.001Z</time></trkpt><trkpt lat="42.20503017344795" lon="13.256610568907796"><ele>906.6666666666666</ele><time>2026-04-27T13:12:52.001Z</time></trkpt><trkpt lat="42.205115048716905" lon="13.256773414008574"><ele>910.0</ele><time>2026-04-27T13:12:53.001Z</time></trkpt><trkpt lat="42.20521690876516" lon="13.25693548112057"><ele>910.0</ele><time>2026-04-27T13:12:54.001Z</time></trkpt><trkpt lat="42.20530548629133" lon="13.257128428067482"><ele>910.0</ele><time>2026-04-27T13:12:55.001Z</time></trkpt><trkpt lat="42.20536465262694" lon="13.257340506654149"><ele>910.0</ele><time>2026-04-27T13:12:56.001Z</time></trkpt><trkpt lat="42.20544208428796" lon="13.25753556338778"><ele>907.0</ele><time>2026-04-27T13:12:57.001Z</time></trkpt><trkpt lat="42.20553044302153" lon="13.25768999808552"><ele>904.0</ele><time>2026-04-27T13:12:58.001Z</time></trkpt><trkpt lat="42.20559651201336" lon="13.257831370527255"><ele>901.0</ele><time>2026-04-27T13:12:59.001Z</time></trkpt><trkpt lat="42.20568788324692" lon="13.25791826246561"><ele>898.0</ele><time>2026-04-27T13:13:00.001Z</time></trkpt><trkpt lat="42.205821483869336" lon="13.257956345844713"><ele>902.75</ele><time>2026-04-27T13:13:01.001Z</time></trkpt><trkpt lat="42.20596197648419" lon="13.258022493982912"><ele>907.5</ele><time>2026-04-27T13:13:02.001Z</time></trkpt><trkpt lat="42.2060767484378" lon="13.258119874019545"><ele>912.25</ele><time>2026-04-27T13:13:03.001Z</time></trkpt><trkpt lat="42.20616875650372" lon="13.258192227140565"><ele>917.0</ele><time>2026-04-27T13:13:04.001Z</time></trkpt><trkpt lat="42.20619070823211" lon="13.258334052832494"><ele>917.0</ele><time>2026-04-27T13:13:05.001Z</time></trkpt><trkpt lat="42.20616808109953" lon="13.258465130503755"><ele>917.0</ele><time>2026-04-27T13:13:06.001Z</time></trkpt><trkpt lat="42.206161214361586" lon="13.258651347356434"><ele>917.0</ele><time>2026-04-27T13:13:07.001Z</time></trkpt><trkpt lat="42.20615147406734" lon="13.258867136543124"><ele>917.0</ele><time>2026-04-27T13:13:08.001Z</time></trkpt><trkpt lat="42.20614119116522" lon="13.259084617509163"><ele>915.5</ele><time>2026-04-27T13:13:09.001Z</time></trkpt><trkpt lat="42.206140183829454" lon="13.259307133264393"><ele>914.0</ele><time>2026-04-27T13:13:10.001Z</time></trkpt><trkpt lat="42.20615599632313" lon="13.259509321295777"><ele>912.5</ele><time>2026-04-27T13:13:11.001Z</time></trkpt><trkpt lat="42.20617830103241" lon="13.259685010303192"><ele>911.0</ele><time>2026-04-27T13:13:12.001Z</time></trkpt><trkpt lat="42.20623944532997" lon="13.259832957680043"><ele>909.0</ele><time>2026-04-27T13:13:13.001Z</time></trkpt><trkpt lat="42.206340228010866" lon="13.259972160947424"><ele>907.0</ele><time>2026-04-27T13:13:14.001Z</time></trkpt><trkpt lat="42.206464638842604" lon="13.260120379951026"><ele>905.0</ele><time>2026-04-27T13:13:15.001Z</time></trkpt><trkpt lat="42.2065697772618" lon="13.26028998733032"><ele>912.0</ele><time>2026-04-27T13:13:16.001Z</time></trkpt><trkpt lat="42.20667936511796" lon="13.260453032344001"><ele>919.0</ele><time>2026-04-27T13:13:17.001Z</time></trkpt><trkpt lat="42.206785537452944" lon="13.260622698021447"><ele>926.0</ele><time>2026-04-27T13:13:18.001Z</time></trkpt><trkpt lat="42.20690191550109" lon="13.260782491440395"><ele>926.0</ele><time>2026-04-27T13:13:19.001Z</time></trkpt><trkpt lat="42.20700207501172" lon="13.260956030843756"><ele>926.0</ele><time>2026-04-27T13:13:20.001Z</time></trkpt><trkpt lat="42.20709598791306" lon="13.26114447125911"><ele>926.0</ele><time>2026-04-27T13:13:21.001Z</time></trkpt><trkpt lat="42.20718050081589" lon="13.26131493706048"><ele>930.25</ele><time>2026-04-27T13:13:22.001Z</time></trkpt><trkpt lat="42.20726817736305" lon="13.261485589861387"><ele>934.5</ele><time>2026-04-27T13:13:23.001Z</time></trkpt><trkpt lat="42.20735019356856" lon="13.261637545807151"><ele>938.75</ele><time>2026-04-27T13:13:24.001Z</time></trkpt><trkpt lat="42.2074443730697" lon="13.261773421028403"><ele>943.0</ele><time>2026-04-27T13:13:25.001Z</time></trkpt><trkpt lat="42.20755020293537" lon="13.26186144064714"><ele>942.9999999999999</ele><time>2026-04-27T13:13:26.001Z</time></trkpt><trkpt lat="42.20764332479361" lon="13.261919096052306"><ele>943.0</ele><time>2026-04-27T13:13:27.001Z</time></trkpt><trkpt lat="42.20771609886612" lon="13.261909575332758"><ele>943.0</ele><time>2026-04-27T13:13:28.001Z</time></trkpt><trkpt lat="42.20777631301021" lon="13.261847997581361"><ele>943.0</ele><time>2026-04-27T13:13:29.001Z</time></trkpt><trkpt lat="42.20784340773123" lon="13.261750367598893"><ele>942.9999999999999</ele><time>2026-04-27T13:13:30.001Z</time></trkpt><trkpt lat="42.2078945181507" lon="13.261648001933192"><ele>943.0</ele><time>2026-04-27T13:13:31.001Z</time></trkpt><trkpt lat="42.207922641313566" lon="13.26157016877329"><ele>942.9999999999999</ele><time>2026-04-27T13:13:32.001Z</time></trkpt><trkpt lat="42.20787157791579" lon="13.261515188381296"><ele>943.0</ele><time>2026-04-27T13:13:33.001Z</time></trkpt><trkpt lat="42.20775453057408" lon="13.261526372702205"><ele>943.0</ele><time>2026-04-27T13:13:35.001Z</time></trkpt><trkpt lat="42.207690061757155" lon="13.261602461792986"><ele>943.0</ele><time>2026-04-27T13:13:36.001Z</time></trkpt><trkpt lat="42.20760569659899" lon="13.261531283478158"><ele>942.9999999999999</ele><time>2026-04-27T13:13:38.001Z</time></trkpt><trkpt lat="42.207590389296236" lon="13.261430827832802"><ele>943.0</ele><time>2026-04-27T13:13:39.001Z</time></trkpt><trkpt lat="42.20755562531807" lon="13.261309669585586"><ele>938.75</ele><time>2026-04-27T13:13:40.001Z</time></trkpt><trkpt lat="42.20750978806726" lon="13.261171006461069"><ele>934.5</ele><time>2026-04-27T13:13:41.001Z</time></trkpt><trkpt lat="42.20745477000332" lon="13.261036533834984"><ele>930.25</ele><time>2026-04-27T13:13:42.001Z</time></trkpt><trkpt lat="42.20739456707491" lon="13.260903728886031"><ele>926.0</ele><time>2026-04-27T13:13:43.001Z</time></trkpt><trkpt lat="42.20732055688689" lon="13.260753955793353"><ele>930.25</ele><time>2026-04-27T13:13:44.001Z</time></trkpt><trkpt lat="42.20725426414302" lon="13.26058956391462"><ele>934.5</ele><time>2026-04-27T13:13:45.001Z</time></trkpt><trkpt lat="42.207184574394134" lon="13.260422757004"><ele>938.75</ele><time>2026-04-27T13:13:46.001Z</time></trkpt><trkpt lat="42.20711494030314" lon="13.260251623844509"><ele>943.0</ele><time>2026-04-27T13:13:47.001Z</time></trkpt><trkpt lat="42.20704998290516" lon="13.260069257100145"><ele>943.0</ele><time>2026-04-27T13:13:48.001Z</time></trkpt><trkpt lat="42.2070047271679" lon="13.259851547632861"><ele>943.0</ele><time>2026-04-27T13:13:49.001Z</time></trkpt><trkpt lat="42.206943378389845" lon="13.259675197141835"><ele>943.0</ele><time>2026-04-27T13:13:50.001Z</time></trkpt><trkpt lat="42.20691174418433" lon="13.25953814138964"><ele>943.0</ele><time>2026-04-27T13:13:51.001Z</time></trkpt><trkpt lat="42.20690285023794" lon="13.259435656656184"><ele>945.0</ele><time>2026-04-27T13:13:52.001Z</time></trkpt><trkpt lat="42.20692770342518" lon="13.259316026139906"><ele>947.0</ele><time>2026-04-27T13:13:53.001Z</time></trkpt><trkpt lat="42.206986585768085" lon="13.259173035738133"><ele>949.0</ele><time>2026-04-27T13:13:54.001Z</time></trkpt><trkpt lat="42.207060083356986" lon="13.259010285190463"><ele>951.0</ele><time>2026-04-27T13:13:55.001Z</time></trkpt><trkpt lat="42.207138867594665" lon="13.258845236189105"><ele>951.0</ele><time>2026-04-27T13:13:56.001Z</time></trkpt><trkpt lat="42.20720614843151" lon="13.25867805256171"><ele>951.0</ele><time>2026-04-27T13:13:57.001Z</time></trkpt><trkpt lat="42.20725124152832" lon="13.258482991842891"><ele>951.0</ele><time>2026-04-27T13:13:58.001Z</time></trkpt><trkpt lat="42.207278929321724" lon="13.258261327394315"><ele>954.75</ele><time>2026-04-27T13:13:59.001Z</time></trkpt><trkpt lat="42.20729567124694" lon="13.258039058409755"><ele>958.5</ele><time>2026-04-27T13:14:00.001Z</time></trkpt><trkpt lat="42.20729309635328" lon="13.25784251405758"><ele>962.25</ele><time>2026-04-27T13:14:01.001Z</time></trkpt><trkpt lat="42.20726566487203" lon="13.257680504101911"><ele>966.0</ele><time>2026-04-27T13:14:02.001Z</time></trkpt><trkpt lat="42.20719390539188" lon="13.257529002747"><ele>966.0</ele><time>2026-04-27T13:14:03.001Z</time></trkpt><trkpt lat="42.20708790181731" lon="13.257383085639496"><ele>966.0</ele><time>2026-04-27T13:14:04.001Z</time></trkpt><trkpt lat="42.20695877809173" lon="13.257248906717733"><ele>966.0</ele><time>2026-04-27T13:14:05.001Z</time></trkpt><trkpt lat="42.2068455729573" lon="13.257075137146423"><ele>971.25</ele><time>2026-04-27T13:14:06Z</time></trkpt><trkpt lat="42.20672281383301" lon="13.256941300027721"><ele>976.5</ele><time>2026-04-27T13:14:07Z</time></trkpt><trkpt lat="42.20665497298082" lon="13.2567853155982"><ele>981.75</ele><time>2026-04-27T13:14:08Z</time></trkpt><trkpt lat="42.20659917890157" lon="13.25661786240508"><ele>987.0</ele><time>2026-04-27T13:14:09Z</time></trkpt><trkpt lat="42.20653745149493" lon="13.256418977676292"><ele>979.0</ele><time>2026-04-27T13:14:10Z</time></trkpt><trkpt lat="42.20648953985272" lon="13.25620476645725"><ele>971.0</ele><time>2026-04-27T13:14:11Z</time></trkpt><trkpt lat="42.206450842679544" lon="13.255987321583822"><ele>963.0</ele><time>2026-04-27T13:14:12Z</time></trkpt><trkpt lat="42.20642012327178" lon="13.255790302004858"><ele>967.0</ele><time>2026-04-27T13:14:13Z</time></trkpt><trkpt lat="42.20644845920824" lon="13.255573492363318"><ele>971.0</ele><time>2026-04-27T13:14:14Z</time></trkpt><trkpt lat="42.20645228737378" lon="13.255347829434854"><ele>975.0</ele><time>2026-04-27T13:14:15Z</time></trkpt><trkpt lat="42.206475742276794" lon="13.25511111211208"><ele>975.0</ele><time>2026-04-27T13:14:16Z</time></trkpt><trkpt lat="42.20647104662847" lon="13.254862370564219"><ele>975.0</ele><time>2026-04-27T13:14:17Z</time></trkpt><trkpt lat="42.20644494092351" lon="13.25462185954315"><ele>975.0</ele><time>2026-04-27T13:14:18Z</time></trkpt><trkpt lat="42.20641218078534" lon="13.254421358894318"><ele>974.75</ele><time>2026-04-27T13:14:19Z</time></trkpt><trkpt lat="42.206387872821274" lon="13.254245093369324"><ele>974.5</ele><time>2026-04-27T13:14:20Z</time></trkpt><trkpt lat="42.206412047987556" lon="13.254072149574604"><ele>974.25</ele><time>2026-04-27T13:14:21Z</time></trkpt><trkpt lat="42.206438759185964" lon="13.253873513100615"><ele>974.0</ele><time>2026-04-27T13:14:22Z</time></trkpt><trkpt lat="42.20647253148594" lon="13.253650689354151"><ele>983.6666666666667</ele><time>2026-04-27T13:14:23Z</time></trkpt><trkpt lat="42.20656050913466" lon="13.253433375452508"><ele>993.3333333333333</ele><time>2026-04-27T13:14:24Z</time></trkpt><trkpt lat="42.20664043548497" lon="13.25321842060267"><ele>1003.0</ele><time>2026-04-27T13:14:25Z</time></trkpt><trkpt lat="42.206697989096256" lon="13.253003019699927"><ele>1003.0</ele><time>2026-04-27T13:14:26Z</time></trkpt><trkpt lat="42.20675219471061" lon="13.25283852851026"><ele>1003.0</ele><time>2026-04-27T13:14:27Z</time></trkpt><trkpt lat="42.206810160007436" lon="13.25272432382924"><ele>1003.0</ele><time>2026-04-27T13:14:28Z</time></trkpt><trkpt lat="42.20684612422162" lon="13.252623737264559"><ele>1003.0</ele><time>2026-04-27T13:14:30Z</time></trkpt><trkpt lat="42.20684617850666" lon="13.252810731042134"><ele>1003.0</ele><time>2026-04-27T13:14:33Z</time></trkpt><trkpt lat="42.20682866342679" lon="13.252929285826815"><ele>1003.0</ele><time>2026-04-27T13:14:34Z</time></trkpt><trkpt lat="42.20681531766648" lon="13.253052369267769"><ele>1003.0</ele><time>2026-04-27T13:14:35Z</time></trkpt><trkpt lat="42.20680302516872" lon="13.253202386867223"><ele>1003.0</ele><time>2026-04-27T13:14:36Z</time></trkpt><trkpt lat="42.20680291854697" lon="13.25337077771867"><ele>1003.0</ele><time>2026-04-27T13:14:37Z</time></trkpt><trkpt lat="42.20680413960792" lon="13.253519061238551"><ele>1004.0</ele><time>2026-04-27T13:14:38Z</time></trkpt><trkpt lat="42.206831291111364" lon="13.253655323981754"><ele>1005.0</ele><time>2026-04-27T13:14:39Z</time></trkpt><trkpt lat="42.20685428031493" lon="13.253797744322894"><ele>1006.0</ele><time>2026-04-27T13:14:40Z</time></trkpt><trkpt lat="42.206869150745746" lon="13.253920981459721"><ele>1007.0</ele><time>2026-04-27T13:14:41Z</time></trkpt><trkpt lat="42.20690030677077" lon="13.254032089994077"><ele>1008.0</ele><time>2026-04-27T13:14:42Z</time></trkpt><trkpt lat="42.20694969706128" lon="13.25411594173823"><ele>1008.75</ele><time>2026-04-27T13:14:43Z</time></trkpt><trkpt lat="42.2070063828458" lon="13.254221658261905"><ele>1009.5</ele><time>2026-04-27T13:14:44Z</time></trkpt><trkpt lat="42.20703318134301" lon="13.25436077954209"><ele>1010.25</ele><time>2026-04-27T13:14:45Z</time></trkpt><trkpt lat="42.20705100983781" lon="13.25453377407175"><ele>1011.0</ele><time>2026-04-27T13:14:46Z</time></trkpt><trkpt lat="42.207094729282936" lon="13.254693236734314"><ele>1009.3333333333333</ele><time>2026-04-27T13:14:47Z</time></trkpt><trkpt lat="42.20716254451355" lon="13.254867138650411"><ele>1007.6666666666666</ele><time>2026-04-27T13:14:48Z</time></trkpt><trkpt lat="42.20721334710223" lon="13.255065272157355"><ele>1006.0</ele><time>2026-04-27T13:14:49Z</time></trkpt><trkpt lat="42.20724007894811" lon="13.255287385765143"><ele>1006.0</ele><time>2026-04-27T13:14:50Z</time></trkpt><trkpt lat="42.207291584126075" lon="13.255492475629158"><ele>1006.0</ele><time>2026-04-27T13:14:51Z</time></trkpt><trkpt lat="42.20732474418351" lon="13.255714576803202"><ele>1006.0</ele><time>2026-04-27T13:14:52Z</time></trkpt><trkpt lat="42.20737687643744" lon="13.255913905445167"><ele>1013.75</ele><time>2026-04-27T13:14:53Z</time></trkpt><trkpt lat="42.207425854493614" lon="13.256082263313754"><ele>1021.5</ele><time>2026-04-27T13:14:54Z</time></trkpt><trkpt lat="42.207466972195206" lon="13.256229565519623"><ele>1029.25</ele><time>2026-04-27T13:14:55Z</time></trkpt><trkpt lat="42.20751949400676" lon="13.256351319780201"><ele>1037.0</ele><time>2026-04-27T13:14:56Z</time></trkpt><trkpt lat="42.20759360075555" lon="13.256448774394547"><ele>1033.25</ele><time>2026-04-27T13:14:57Z</time></trkpt><trkpt lat="42.20769482806408" lon="13.256544337455272"><ele>1029.5</ele><time>2026-04-27T13:14:58Z</time></trkpt><trkpt lat="42.20780859595602" lon="13.256651587139263"><ele>1025.75</ele><time>2026-04-27T13:14:59Z</time></trkpt><trkpt lat="42.207916825530724" lon="13.256773729560239"><ele>1022.0</ele><time>2026-04-27T13:15:00Z</time></trkpt><trkpt lat="42.208021285527806" lon="13.256907270063316"><ele>1022.0</ele><time>2026-04-27T13:15:01Z</time></trkpt><trkpt lat="42.20811283851095" lon="13.257055261979492"><ele>1022.0</ele><time>2026-04-27T13:15:02Z</time></trkpt><trkpt lat="42.20820136109282" lon="13.25720542820695"><ele>1022.0</ele><time>2026-04-27T13:15:03Z</time></trkpt><trkpt lat="42.208282861377796" lon="13.257383321324633"><ele>1022.0</ele><time>2026-04-27T13:15:04Z</time></trkpt><trkpt lat="42.20834321577845" lon="13.25755004087598"><ele>1026.25</ele><time>2026-04-27T13:15:05Z</time></trkpt><trkpt lat="42.208353257902296" lon="13.257719158097673"><ele>1030.5</ele><time>2026-04-27T13:15:06Z</time></trkpt><trkpt lat="42.20837624496656" lon="13.257916811250025"><ele>1034.75</ele><time>2026-04-27T13:15:07Z</time></trkpt><trkpt lat="42.20839051044966" lon="13.258129864898075"><ele>1039.0</ele><time>2026-04-27T13:15:08Z</time></trkpt><trkpt lat="42.208416926212145" lon="13.25833698770607"><ele>1039.0</ele><time>2026-04-27T13:15:09Z</time></trkpt><trkpt lat="42.20843753334691" lon="13.258508895496616"><ele>1039.0</ele><time>2026-04-27T13:15:10Z</time></trkpt><trkpt lat="42.208463772360744" lon="13.258662745476094"><ele>1039.0</ele><time>2026-04-27T13:15:11Z</time></trkpt><trkpt lat="42.208502263663945" lon="13.258802874844518"><ele>1039.0</ele><time>2026-04-27T13:15:12Z</time></trkpt><trkpt lat="42.208538292730594" lon="13.258926976603213"><ele>1037.8333333333333</ele><time>2026-04-27T13:15:13Z</time></trkpt><trkpt lat="42.20858348806774" lon="13.258992741780704"><ele>1036.6666666666665</ele><time>2026-04-27T13:15:14Z</time></trkpt><trkpt lat="42.20864391847459" lon="13.259043285881312"><ele>1035.5</ele><time>2026-04-27T13:15:15Z</time></trkpt><trkpt lat="42.2087142539635" lon="13.259070286430006"><ele>1034.3333333333333</ele><time>2026-04-27T13:15:16Z</time></trkpt><trkpt lat="42.2088004601769" lon="13.259114554853529"><ele>1033.1666666666667</ele><time>2026-04-27T13:15:17Z</time></trkpt><trkpt lat="42.20889043650546" lon="13.259125707540809"><ele>1032.0</ele><time>2026-04-27T13:15:18Z</time></trkpt><trkpt lat="42.20899099139441" lon="13.259142914176268"><ele>1037.6</ele><time>2026-04-27T13:15:19Z</time></trkpt><trkpt lat="42.20908843609691" lon="13.259159161236214"><ele>1043.2</ele><time>2026-04-27T13:15:20.001Z</time></trkpt><trkpt lat="42.20920440443995" lon="13.259192681407248"><ele>1048.8</ele><time>2026-04-27T13:15:21.001Z</time></trkpt><trkpt lat="42.20930761841845" lon="13.2592119116348"><ele>1054.4</ele><time>2026-04-27T13:15:22.001Z</time></trkpt><trkpt lat="42.20941852318675" lon="13.259243396927664"><ele>1060.0</ele><time>2026-04-27T13:15:23.001Z</time></trkpt><trkpt lat="42.20951623260257" lon="13.259271459142454"><ele>1060.0</ele><time>2026-04-27T13:15:24.001Z</time></trkpt><trkpt lat="42.209619864949744" lon="13.259292288586886"><ele>1060.0</ele><time>2026-04-27T13:15:25.001Z</time></trkpt><trkpt lat="42.209726802158364" lon="13.259327870580254"><ele>1060.0</ele><time>2026-04-27T13:15:26.001Z</time></trkpt><trkpt lat="42.20984240282951" lon="13.259371171285135"><ele>1060.0</ele><time>2026-04-27T13:15:27.001Z</time></trkpt><trkpt lat="42.20995999480863" lon="13.25942487087655"><ele>1058.75</ele><time>2026-04-27T13:15:28.001Z</time></trkpt><trkpt lat="42.210078427809535" lon="13.259504415742194"><ele>1057.5</ele><time>2026-04-27T13:15:29.001Z</time></trkpt><trkpt lat="42.210188612339486" lon="13.259584441179472"><ele>1056.25</ele><time>2026-04-27T13:15:30.001Z</time></trkpt><trkpt lat="42.21031105462331" lon="13.259701627965992"><ele>1055.0</ele><time>2026-04-27T13:15:31.001Z</time></trkpt><trkpt lat="42.2104258871918" lon="13.259831078240296"><ele>1055.0</ele><time>2026-04-27T13:15:32.001Z</time></trkpt><trkpt lat="42.210522324987444" lon="13.259959742101225"><ele>1055.0</ele><time>2026-04-27T13:15:33.001Z</time></trkpt><trkpt lat="42.210599903932874" lon="13.26011582701581"><ele>1055.0</ele><time>2026-04-27T13:15:34.001Z</time></trkpt><trkpt lat="42.2106700111054" lon="13.260260725894637"><ele>1055.0</ele><time>2026-04-27T13:15:35.001Z</time></trkpt><trkpt lat="42.210748816388424" lon="13.26040310775927"><ele>1058.0</ele><time>2026-04-27T13:15:36.001Z</time></trkpt><trkpt lat="42.21085214990913" lon="13.260528846896168"><ele>1061.0</ele><time>2026-04-27T13:15:37.001Z</time></trkpt><trkpt lat="42.21095380562425" lon="13.260649016454758"><ele>1064.0</ele><time>2026-04-27T13:15:38.001Z</time></trkpt><trkpt lat="42.21106300885562" lon="13.26074818063153"><ele>1067.0</ele><time>2026-04-27T13:15:39.001Z</time></trkpt><trkpt lat="42.21114653494072" lon="13.260811486881902"><ele>1067.0</ele><time>2026-04-27T13:15:40.001Z</time></trkpt><trkpt lat="42.21125311405174" lon="13.260870563019042"><ele>1067.0</ele><time>2026-04-27T13:15:41.001Z</time></trkpt><trkpt lat="42.21136037662667" lon="13.260919350543704"><ele>1067.0</ele><time>2026-04-27T13:15:42.001Z</time></trkpt><trkpt lat="42.21147734061843" lon="13.260966959369117"><ele>1067.0</ele><time>2026-04-27T13:15:43.001Z</time></trkpt><trkpt lat="42.21159702096652" lon="13.261007983374364"><ele>1073.8</ele><time>2026-04-27T13:15:44.001Z</time></trkpt><trkpt lat="42.21169938779555" lon="13.261030031603685"><ele>1080.6</ele><time>2026-04-27T13:15:45.001Z</time></trkpt><trkpt lat="42.21176709094537" lon="13.261103933077994"><ele>1087.3999999999999</ele><time>2026-04-27T13:15:46.001Z</time></trkpt><trkpt lat="42.21185823662813" lon="13.2611855378786"><ele>1094.2</ele><time>2026-04-27T13:15:47.001Z</time></trkpt><trkpt lat="42.21195331779931" lon="13.26124784156557"><ele>1101.0</ele><time>2026-04-27T13:15:48.001Z</time></trkpt><trkpt lat="42.212016075291416" lon="13.261289819442057"><ele>1101.0</ele><time>2026-04-27T13:15:49.001Z</time></trkpt><trkpt lat="42.2121116376541" lon="13.261307885404337"><ele>1101.0</ele><time>2026-04-27T13:15:50.001Z</time></trkpt><trkpt lat="42.212228822747264" lon="13.261286524004865"><ele>1101.0</ele><time>2026-04-27T13:15:51.001Z</time></trkpt><trkpt lat="42.21233508076161" lon="13.261263736845484"><ele>1101.0</ele><time>2026-04-27T13:15:52.001Z</time></trkpt><trkpt lat="42.21245260568797" lon="13.261248920844366"><ele>1101.0</ele><time>2026-04-27T13:15:53.001Z</time></trkpt><trkpt lat="42.21253666712482" lon="13.26124100029397"><ele>1100.6</ele><time>2026-04-27T13:15:54.001Z</time></trkpt><trkpt lat="42.212591495417975" lon="13.261286540492858"><ele>1100.1999999999998</ele><time>2026-04-27T13:15:55.001Z</time></trkpt><trkpt lat="42.21265014845071" lon="13.261361337305956"><ele>1099.8000000000002</ele><time>2026-04-27T13:15:56.001Z</time></trkpt><trkpt lat="42.2126642299777" lon="13.261474140977688"><ele>1099.4</ele><time>2026-04-27T13:15:57.001Z</time></trkpt><trkpt lat="42.21273278179072" lon="13.261608833959828"><ele>1099.0</ele><time>2026-04-27T13:15:58.001Z</time></trkpt><trkpt lat="42.21279443689818" lon="13.261747080616765"><ele>1099.0</ele><time>2026-04-27T13:15:59.001Z</time></trkpt><trkpt lat="42.212865263677934" lon="13.261867351507632"><ele>1099.0</ele><time>2026-04-27T13:16:00.001Z</time></trkpt><trkpt lat="42.212940710507496" lon="13.261986892357989"><ele>1099.0</ele><time>2026-04-27T13:16:01.001Z</time></trkpt><trkpt lat="42.213022820122376" lon="13.262049867377275"><ele>1099.0</ele><time>2026-04-27T13:16:02.001Z</time></trkpt><trkpt lat="42.213113794376476" lon="13.262169739313979"><ele>1101.6666666666665</ele><time>2026-04-27T13:16:03.001Z</time></trkpt><trkpt lat="42.213205395957644" lon="13.26230388502804"><ele>1104.3333333333333</ele><time>2026-04-27T13:16:04.001Z</time></trkpt><trkpt lat="42.2133070470491" lon="13.262439605924982"><ele>1107.0</ele><time>2026-04-27T13:16:05.001Z</time></trkpt><trkpt lat="42.21344451727619" lon="13.26258746247659"><ele>1107.0</ele><time>2026-04-27T13:16:06.001Z</time></trkpt><trkpt lat="42.21356202859438" lon="13.262704342988759"><ele>1107.0</ele><time>2026-04-27T13:16:07.001Z</time></trkpt><trkpt lat="42.2136754959517" lon="13.262807894936183"><ele>1107.0</ele><time>2026-04-27T13:16:08.001Z</time></trkpt><trkpt lat="42.21377403104981" lon="13.262902728114984"><ele>1107.0</ele><time>2026-04-27T13:16:09.001Z</time></trkpt><trkpt lat="42.213868201482136" lon="13.262988750521234"><ele>1107.0</ele><time>2026-04-27T13:16:10.001Z</time></trkpt><trkpt lat="42.21397515160984" lon="13.263050371323573"><ele>1107.0</ele><time>2026-04-27T13:16:11.001Z</time></trkpt><trkpt lat="42.21409345540005" lon="13.263092912036251"><ele>1107.0</ele><time>2026-04-27T13:16:12.001Z</time></trkpt><trkpt lat="42.214209253650004" lon="13.263123406435055"><ele>1107.0</ele><time>2026-04-27T13:16:13.001Z</time></trkpt><trkpt lat="42.21431321500445" lon="13.26315411762079"><ele>1105.5</ele><time>2026-04-27T13:16:14.001Z</time></trkpt><trkpt lat="42.21441925393753" lon="13.263164159135258"><ele>1104.0</ele><time>2026-04-27T13:16:15.001Z</time></trkpt><trkpt lat="42.21453872939239" lon="13.263157170201742"><ele>1102.5</ele><time>2026-04-27T13:16:16.001Z</time></trkpt><trkpt lat="42.21467317964782" lon="13.263140028802091"><ele>1101.0</ele><time>2026-04-27T13:16:17.001Z</time></trkpt><trkpt lat="42.21478570870328" lon="13.26311707840076"><ele>1101.2</ele><time>2026-04-27T13:16:18.001Z</time></trkpt><trkpt lat="42.214888885443365" lon="13.263097504077692"><ele>1101.3999999999999</ele><time>2026-04-27T13:16:19Z</time></trkpt><trkpt lat="42.21499405663086" lon="13.263122163268514"><ele>1101.6</ele><time>2026-04-27T13:16:20Z</time></trkpt><trkpt lat="42.215107997209515" lon="13.263165443448177"><ele>1101.8</ele><time>2026-04-27T13:16:21Z</time></trkpt><trkpt lat="42.215191144650866" lon="13.26320916698285"><ele>1102.0</ele><time>2026-04-27T13:16:22Z</time></trkpt><trkpt lat="42.215347014028985" lon="13.263325437430446"><ele>1101.2</ele><time>2026-04-27T13:16:24Z</time></trkpt><trkpt lat="42.21544559998563" lon="13.263407036692808"><ele>1100.4</ele><time>2026-04-27T13:16:25Z</time></trkpt><trkpt lat="42.2155252888823" lon="13.26351613604674"><ele>1099.6</ele><time>2026-04-27T13:16:26Z</time></trkpt><trkpt lat="42.215572607459734" lon="13.263606602164506"><ele>1098.8</ele><time>2026-04-27T13:16:27Z</time></trkpt><trkpt lat="42.21555816873488" lon="13.263705831003698"><ele>1098.0</ele><time>2026-04-27T13:16:28Z</time></trkpt><trkpt lat="42.21550320833527" lon="13.263778170813548"><ele>1098.0</ele><time>2026-04-27T13:16:30Z</time></trkpt><trkpt lat="42.21541668438581" lon="13.263784722907687"><ele>1098.0</ele><time>2026-04-27T13:16:31Z</time></trkpt><trkpt lat="42.21536429090868" lon="13.26384941435879"><ele>1098.0</ele><time>2026-04-27T13:16:32Z</time></trkpt><trkpt lat="42.215323111115445" lon="13.263937148988779"><ele>1098.0</ele><time>2026-04-27T13:16:33Z</time></trkpt><trkpt lat="42.21531781906463" lon="13.264033923130606"><ele>1098.0</ele><time>2026-04-27T13:16:34Z</time></trkpt><trkpt lat="42.21537804162822" lon="13.264105046369098"><ele>1098.0</ele><time>2026-04-27T13:16:35Z</time></trkpt><trkpt lat="42.21543609692599" lon="13.264157353237962"><ele>1098.0</ele><time>2026-04-27T13:16:36Z</time></trkpt><trkpt lat="42.21549359274915" lon="13.264216937092261"><ele>1098.0</ele><time>2026-04-27T13:16:37Z</time></trkpt><trkpt lat="42.2155966752064" lon="13.264287349415529"><ele>1098.0</ele><time>2026-04-27T13:16:38Z</time></trkpt><trkpt lat="42.215720294908024" lon="13.26430415135481"><ele>1098.0</ele><time>2026-04-27T13:16:39Z</time></trkpt><trkpt lat="42.21584173080107" lon="13.264317191472891"><ele>1098.0</ele><time>2026-04-27T13:16:40Z</time></trkpt><trkpt lat="42.21594747105466" lon="13.264327645321131"><ele>1101.0</ele><time>2026-04-27T13:16:41Z</time></trkpt><trkpt lat="42.21601549187114" lon="13.264355745356745"><ele>1104.0</ele><time>2026-04-27T13:16:42Z</time></trkpt><trkpt lat="42.21607707595597" lon="13.264404943798127"><ele>1107.0</ele><time>2026-04-27T13:16:43Z</time></trkpt><trkpt lat="42.21613877243869" lon="13.264556735366897"><ele>1110.0</ele><time>2026-04-27T13:16:45Z</time></trkpt><trkpt lat="42.21616209875121" lon="13.264679823760897"><ele>1113.0</ele><time>2026-04-27T13:16:46Z</time></trkpt><trkpt lat="42.21616331449688" lon="13.264801011934715"><ele>1114.5</ele><time>2026-04-27T13:16:47Z</time></trkpt><trkpt lat="42.2161488566882" lon="13.264915666692568"><ele>1116.0</ele><time>2026-04-27T13:16:48Z</time></trkpt><trkpt lat="42.21613190910951" lon="13.265054408759243"><ele>1117.5</ele><time>2026-04-27T13:16:49Z</time></trkpt><trkpt lat="42.21611618948208" lon="13.265173243570132"><ele>1119.0</ele><time>2026-04-27T13:16:50Z</time></trkpt><trkpt lat="42.21613634558101" lon="13.265266127237828"><ele>1120.5</ele><time>2026-04-27T13:16:51Z</time></trkpt><trkpt lat="42.2161866577312" lon="13.265355493130068"><ele>1122.0</ele><time>2026-04-27T13:16:52Z</time></trkpt><trkpt lat="42.21628414952418" lon="13.265438232395972"><ele>1122.0</ele><time>2026-04-27T13:16:53Z</time></trkpt><trkpt lat="42.216396656010815" lon="13.265535914255327"><ele>1122.0</ele><time>2026-04-27T13:16:54Z</time></trkpt><trkpt lat="42.216497598817696" lon="13.26564934840444"><ele>1122.0</ele><time>2026-04-27T13:16:55Z</time></trkpt><trkpt lat="42.21656559767899" lon="13.265765913887307"><ele>1122.0</ele><time>2026-04-27T13:16:56Z</time></trkpt><trkpt lat="42.21665101407752" lon="13.265841394325296"><ele>1121.5</ele><time>2026-04-27T13:16:57Z</time></trkpt><trkpt lat="42.21675758616431" lon="13.26591858362224"><ele>1121.0</ele><time>2026-04-27T13:16:58Z</time></trkpt><trkpt lat="42.21689409671361" lon="13.26600551660421"><ele>1120.5</ele><time>2026-04-27T13:16:59Z</time></trkpt><trkpt lat="42.21701041623084" lon="13.266061997262025"><ele>1120.0</ele><time>2026-04-27T13:17:00Z</time></trkpt><trkpt lat="42.21713355635541" lon="13.266038682235004"><ele>1120.0</ele><time>2026-04-27T13:17:01Z</time></trkpt><trkpt lat="42.21723099772626" lon="13.266053690617456"><ele>1120.0</ele><time>2026-04-27T13:17:02Z</time></trkpt><trkpt lat="42.21733586773219" lon="13.26606054702301"><ele>1120.0</ele><time>2026-04-27T13:17:03Z</time></trkpt><trkpt lat="42.21743067184799" lon="13.266057407911193"><ele>1120.0</ele><time>2026-04-27T13:17:04Z</time></trkpt><trkpt lat="42.21753026042135" lon="13.26604835299534"><ele>1120.0</ele><time>2026-04-27T13:17:05Z</time></trkpt><trkpt lat="42.217625759748174" lon="13.266034408394537"><ele>1118.0</ele><time>2026-04-27T13:17:06Z</time></trkpt><trkpt lat="42.21771687061925" lon="13.266126605767875"><ele>1116.0</ele><time>2026-04-27T13:17:08Z</time></trkpt><trkpt lat="42.21777142225014" lon="13.266185521022162"><ele>1114.0</ele><time>2026-04-27T13:17:09Z</time></trkpt><trkpt lat="42.21785802289425" lon="13.26625910990227"><ele>1112.0</ele><time>2026-04-27T13:17:10Z</time></trkpt><trkpt lat="42.21794625093927" lon="13.266293604489386"><ele>1110.0</ele><time>2026-04-27T13:17:11Z</time></trkpt><trkpt lat="42.218074969657344" lon="13.266280928379615"><ele>1110.6</ele><time>2026-04-27T13:17:13Z</time></trkpt><trkpt lat="42.21815420724375" lon="13.266184075972161"><ele>1111.2</ele><time>2026-04-27T13:17:14Z</time></trkpt><trkpt lat="42.2181927380899" lon="13.266067401020575"><ele>1111.8</ele><time>2026-04-27T13:17:15Z</time></trkpt><trkpt lat="42.218245665725995" lon="13.265970873005086"><ele>1112.4</ele><time>2026-04-27T13:17:17Z</time></trkpt><trkpt lat="42.218303941068385" lon="13.265905092030247"><ele>1113.0</ele><time>2026-04-27T13:17:18Z</time></trkpt><trkpt lat="42.218393811379066" lon="13.265871586920925"><ele>1113.0</ele><time>2026-04-27T13:17:19Z</time></trkpt><trkpt lat="42.21851234088238" lon="13.26584679434065"><ele>1113.0</ele><time>2026-04-27T13:17:20Z</time></trkpt><trkpt lat="42.21859638939121" lon="13.26584027700786"><ele>1113.0</ele><time>2026-04-27T13:17:21Z</time></trkpt><trkpt lat="42.2186531262279" lon="13.265801343556063"><ele>1113.0</ele><time>2026-04-27T13:17:22Z</time></trkpt><trkpt lat="42.21871863759267" lon="13.265763004560641"><ele>1113.0</ele><time>2026-04-27T13:17:23Z</time></trkpt><trkpt lat="42.218920747365544" lon="13.265687148276818"><ele>1113.75</ele><time>2026-04-27T13:17:24Z</time></trkpt><trkpt lat="42.21905348221848" lon="13.265604870440757"><ele>1114.5</ele><time>2026-04-27T13:17:25Z</time></trkpt><trkpt lat="42.219161832906686" lon="13.26557439628137"><ele>1115.25</ele><time>2026-04-27T13:17:26Z</time></trkpt><trkpt lat="42.21922848108873" lon="13.265507430799177"><ele>1116.0</ele><time>2026-04-27T13:17:27Z</time></trkpt><trkpt lat="42.21931639472419" lon="13.265415514368698"><ele>1116.0</ele><time>2026-04-27T13:17:28Z</time></trkpt><trkpt lat="42.219407911208904" lon="13.265353829003734"><ele>1116.0</ele><time>2026-04-27T13:17:29Z</time></trkpt><trkpt lat="42.21947887933788" lon="13.265287479563892"><ele>1116.0</ele><time>2026-04-27T13:17:30Z</time></trkpt><trkpt lat="42.219552544243165" lon="13.265192592556996"><ele>1116.0</ele><time>2026-04-27T13:17:31Z</time></trkpt><trkpt lat="42.21966589033465" lon="13.265092694543359"><ele>1116.0</ele><time>2026-04-27T13:17:32Z</time></trkpt><trkpt lat="42.21975585353994" lon="13.264984007038391"><ele>1117.3999999999999</ele><time>2026-04-27T13:17:33Z</time></trkpt><trkpt lat="42.21981746706561" lon="13.26487332303386"><ele>1118.8</ele><time>2026-04-27T13:17:34Z</time></trkpt><trkpt lat="42.219891529506725" lon="13.26473329454168"><ele>1120.1999999999998</ele><time>2026-04-27T13:17:35Z</time></trkpt><trkpt lat="42.219964040823335" lon="13.264612232482335"><ele>1121.6</ele><time>2026-04-27T13:17:36Z</time></trkpt><trkpt lat="42.2200377920216" lon="13.264548783992707"><ele>1123.0</ele><time>2026-04-27T13:17:37Z</time></trkpt><trkpt lat="42.22012234662271" lon="13.264565229049323"><ele>1123.0</ele><time>2026-04-27T13:17:38Z</time></trkpt><trkpt lat="42.22020071759198" lon="13.264623805047885"><ele>1123.0</ele><time>2026-04-27T13:17:40Z</time></trkpt><trkpt lat="42.220319796563444" lon="13.264698609935156"><ele>1123.0</ele><time>2026-04-27T13:17:42Z</time></trkpt><trkpt lat="42.22039826368302" lon="13.264704512508812"><ele>1123.0</ele><time>2026-04-27T13:17:43Z</time></trkpt><trkpt lat="42.22047414375366" lon="13.264728447832008"><ele>1123.0</ele><time>2026-04-27T13:17:44Z</time></trkpt><trkpt lat="42.22054793228905" lon="13.264751723410264"><ele>1123.0</ele><time>2026-04-27T13:17:45Z</time></trkpt><trkpt lat="42.22063966303516" lon="13.26476993124764"><ele>1123.0</ele><time>2026-04-27T13:17:46Z</time></trkpt><trkpt lat="42.22073798268209" lon="13.264789927310472"><ele>1123.0</ele><time>2026-04-27T13:17:47Z</time></trkpt><trkpt lat="42.22087636341153" lon="13.264838838333045"><ele>1123.0</ele><time>2026-04-27T13:17:48Z</time></trkpt><trkpt lat="42.22099375119049" lon="13.264868504275412"><ele>1124.2</ele><time>2026-04-27T13:17:49Z</time></trkpt><trkpt lat="42.22110577205888" lon="13.264931457278067"><ele>1125.4</ele><time>2026-04-27T13:17:50Z</time></trkpt><trkpt lat="42.221199900728415" lon="13.265004764199995"><ele>1126.6000000000001</ele><time>2026-04-27T13:17:51Z</time></trkpt><trkpt lat="42.22128596898493" lon="13.265119108592915"><ele>1127.8</ele><time>2026-04-27T13:17:52Z</time></trkpt><trkpt lat="42.221353098163135" lon="13.265210179779988"><ele>1129.0</ele><time>2026-04-27T13:17:53Z</time></trkpt><trkpt lat="42.221417619659064" lon="13.265268402889271"><ele>1128.0</ele><time>2026-04-27T13:17:54Z</time></trkpt><trkpt lat="42.22150290209771" lon="13.26524844227431"><ele>1127.0</ele><time>2026-04-27T13:17:56Z</time></trkpt><trkpt lat="42.221545382898704" lon="13.265182911608509"><ele>1126.0</ele><time>2026-04-27T13:17:57Z</time></trkpt><trkpt lat="42.22159507928611" lon="13.265086821132716"><ele>1125.0</ele><time>2026-04-27T13:17:58Z</time></trkpt><trkpt lat="42.22167703818304" lon="13.264980958364934"><ele>1124.0</ele><time>2026-04-27T13:17:59Z</time></trkpt><trkpt lat="42.221788227631535" lon="13.264897080691222"><ele>1124.0</ele><time>2026-04-27T13:18:00Z</time></trkpt><trkpt lat="42.221878500840226" lon="13.26479680557977"><ele>1124.0</ele><time>2026-04-27T13:18:01Z</time></trkpt><trkpt lat="42.2219316562948" lon="13.264691007933076"><ele>1124.0</ele><time>2026-04-27T13:18:02Z</time></trkpt><trkpt lat="42.221991864577184" lon="13.264606871193285"><ele>1124.0</ele><time>2026-04-27T13:18:03Z</time></trkpt><trkpt lat="42.222047805511856" lon="13.264553566059591"><ele>1124.0</ele><time>2026-04-27T13:18:04.001Z</time></trkpt><trkpt lat="42.2221520285929" lon="13.264500863640453"><ele>1124.6000000000001</ele><time>2026-04-27T13:18:06.001Z</time></trkpt><trkpt lat="42.22223654692285" lon="13.26446031669442"><ele>1125.2</ele><time>2026-04-27T13:18:07.001Z</time></trkpt><trkpt lat="42.222337242121796" lon="13.264402644162526"><ele>1125.8000000000002</ele><time>2026-04-27T13:18:08.001Z</time></trkpt><trkpt lat="42.22243407692978" lon="13.264311171602087"><ele>1126.4</ele><time>2026-04-27T13:18:09.001Z</time></trkpt><trkpt lat="42.22252725263944" lon="13.26418602328616"><ele>1127.0</ele><time>2026-04-27T13:18:10.001Z</time></trkpt><trkpt lat="42.22259742123497" lon="13.26410425067497"><ele>1127.0</ele><time>2026-04-27T13:18:11.001Z</time></trkpt><trkpt lat="42.22269344395963" lon="13.264051857857638"><ele>1127.0</ele><time>2026-04-27T13:18:13.001Z</time></trkpt><trkpt lat="42.22276643246939" lon="13.26403397741787"><ele>1127.0</ele><time>2026-04-27T13:18:14.001Z</time></trkpt><trkpt lat="42.22285803665971" lon="13.263978274613283"><ele>1127.0</ele><time>2026-04-27T13:18:15.001Z</time></trkpt><trkpt lat="42.22295209920057" lon="13.263890286714652"><ele>1127.0</ele><time>2026-04-27T13:18:16.001Z</time></trkpt><trkpt lat="42.22305179875743" lon="13.263804732641077"><ele>1127.0</ele><time>2026-04-27T13:18:17.001Z</time></trkpt><trkpt lat="42.22316399666647" lon="13.26372377366946"><ele>1127.0</ele><time>2026-04-27T13:18:18.001Z</time></trkpt><trkpt lat="42.22328394631279" lon="13.263645119854559"><ele>1127.0</ele><time>2026-04-27T13:18:19.001Z</time></trkpt><trkpt lat="42.22338221264279" lon="13.263574355530507"><ele>1127.0</ele><time>2026-04-27T13:18:20Z</time></trkpt><trkpt lat="42.22345246920212" lon="13.2634779868977"><ele>1127.0</ele><time>2026-04-27T13:18:21Z</time></trkpt><trkpt lat="42.22350046310947" lon="13.263399392290232"><ele>1127.0</ele><time>2026-04-27T13:18:22Z</time></trkpt><trkpt lat="42.22355988949471" lon="13.263368671406404"><ele>1127.0</ele><time>2026-04-27T13:18:23Z</time></trkpt><trkpt lat="42.22362964905265" lon="13.263372772266171"><ele>1127.0</ele><time>2026-04-27T13:18:24Z</time></trkpt><trkpt lat="42.22370116794199" lon="13.26339557662732"><ele>1127.0</ele><time>2026-04-27T13:18:25Z</time></trkpt><trkpt lat="42.223815846046584" lon="13.26342039971768"><ele>1127.0</ele><time>2026-04-27T13:18:26Z</time></trkpt><trkpt lat="42.2239322855356" lon="13.263433453154322"><ele>1129.5</ele><time>2026-04-27T13:18:27Z</time></trkpt><trkpt lat="42.22406461177523" lon="13.263443966399398"><ele>1132.0</ele><time>2026-04-27T13:18:28Z</time></trkpt><trkpt lat="42.22419608777669" lon="13.263453613872871"><ele>1134.5</ele><time>2026-04-27T13:18:29Z</time></trkpt><trkpt lat="42.224314367513756" lon="13.263458458565896"><ele>1137.0</ele><time>2026-04-27T13:18:30Z</time></trkpt><trkpt lat="42.22444762156714" lon="13.263452071244824"><ele>1137.0</ele><time>2026-04-27T13:18:31Z</time></trkpt><trkpt lat="42.22456386077111" lon="13.263458113584516"><ele>1137.0</ele><time>2026-04-27T13:18:32Z</time></trkpt><trkpt lat="42.224682756094715" lon="13.26346709498201"><ele>1137.0</ele><time>2026-04-27T13:18:33Z</time></trkpt><trkpt lat="42.224784836838715" lon="13.26345345259802"><ele>1137.0</ele><time>2026-04-27T13:18:34Z</time></trkpt><trkpt lat="42.22490413288628" lon="13.263400095283703"><ele>1138.6</ele><time>2026-04-27T13:18:35Z</time></trkpt><trkpt lat="42.225028079646286" lon="13.263358162680717"><ele>1140.2</ele><time>2026-04-27T13:18:36Z</time></trkpt><trkpt lat="42.22512363868183" lon="13.263328577871599"><ele>1141.8</ele><time>2026-04-27T13:18:37Z</time></trkpt><trkpt lat="42.22520719842299" lon="13.263318935315782"><ele>1143.4</ele><time>2026-04-27T13:18:38Z</time></trkpt><trkpt lat="42.22529013174277" lon="13.263326695008736"><ele>1145.0</ele><time>2026-04-27T13:18:39Z</time></trkpt><trkpt lat="42.22538224622808" lon="13.26333196168094"><ele>1145.0</ele><time>2026-04-27T13:18:40Z</time></trkpt><trkpt lat="42.22548495943832" lon="13.263329523819204"><ele>1145.0</ele><time>2026-04-27T13:18:41Z</time></trkpt><trkpt lat="42.22558138945126" lon="13.26329870218005"><ele>1145.0</ele><time>2026-04-27T13:18:42Z</time></trkpt><trkpt lat="42.225691583604295" lon="13.263228233375141"><ele>1145.0</ele><time>2026-04-27T13:18:43Z</time></trkpt><trkpt lat="42.22580514112575" lon="13.263166337202689"><ele>1145.0</ele><time>2026-04-27T13:18:44Z</time></trkpt><trkpt lat="42.22591015807254" lon="13.263160927595576"><ele>1146.1666666666667</ele><time>2026-04-27T13:18:45Z</time></trkpt><trkpt lat="42.226008912989705" lon="13.263153149418953"><ele>1147.3333333333335</ele><time>2026-04-27T13:18:46Z</time></trkpt><trkpt lat="42.226096118540056" lon="13.2631445676243"><ele>1148.5</ele><time>2026-04-27T13:18:47Z</time></trkpt><trkpt lat="42.22618369579407" lon="13.263150603797246"><ele>1149.6666666666667</ele><time>2026-04-27T13:18:48Z</time></trkpt><trkpt lat="42.2262641547935" lon="13.263155721757343"><ele>1150.8333333333333</ele><time>2026-04-27T13:18:49Z</time></trkpt><trkpt lat="42.226345010613414" lon="13.263169393481041"><ele>1152.0</ele><time>2026-04-27T13:18:50Z</time></trkpt><trkpt lat="42.22641256967138" lon="13.26321393472677"><ele>1152.0</ele><time>2026-04-27T13:18:51Z</time></trkpt><trkpt lat="42.22648814627856" lon="13.26325419189047"><ele>1152.0</ele><time>2026-04-27T13:18:52Z</time></trkpt><trkpt lat="42.22657135099711" lon="13.263317347300836"><ele>1152.0</ele><time>2026-04-27T13:18:53Z</time></trkpt><trkpt lat="42.226641702641324" lon="13.263418015962298"><ele>1152.0</ele><time>2026-04-27T13:18:54Z</time></trkpt><trkpt lat="42.2266950895203" lon="13.263552743686722"><ele>1152.0</ele><time>2026-04-27T13:18:55Z</time></trkpt><trkpt lat="42.2267407959157" lon="13.263697123109997"><ele>1152.0</ele><time>2026-04-27T13:18:56Z</time></trkpt><trkpt lat="42.226778724236645" lon="13.263826979702962"><ele>1152.0</ele><time>2026-04-27T13:18:57Z</time></trkpt><trkpt lat="42.226809187219395" lon="13.26394502698554"><ele>1152.0</ele><time>2026-04-27T13:18:58Z</time></trkpt><trkpt lat="42.22684362266647" lon="13.264063976090869"><ele>1152.0</ele><time>2026-04-27T13:18:59Z</time></trkpt><trkpt lat="42.22688524252329" lon="13.26415388580465"><ele>1152.0</ele><time>2026-04-27T13:19:00Z</time></trkpt><trkpt lat="42.22693539995983" lon="13.264225770172464"><ele>1152.0</ele><time>2026-04-27T13:19:01Z</time></trkpt><trkpt lat="42.226982332519135" lon="13.264295730802438"><ele>1153.6666666666667</ele><time>2026-04-27T13:19:02Z</time></trkpt><trkpt lat="42.227026398864155" lon="13.264375257202769"><ele>1155.3333333333333</ele><time>2026-04-27T13:19:03Z</time></trkpt><trkpt lat="42.22706404185277" lon="13.264459609496454"><ele>1157.0</ele><time>2026-04-27T13:19:04Z</time></trkpt><trkpt lat="42.22709764357187" lon="13.264550805531274"><ele>1158.6666666666665</ele><time>2026-04-27T13:19:05Z</time></trkpt><trkpt lat="42.2271979762496" lon="13.264627680390191"><ele>1160.3333333333333</ele><time>2026-04-27T13:19:07Z</time></trkpt><trkpt lat="42.22730386614096" lon="13.26462673558887"><ele>1162.0</ele><time>2026-04-27T13:21:21Z</time></trkpt><trkpt lat="42.22737967445818" lon="13.264616554486127"><ele>1162.0</ele><time>2026-04-27T13:21:22Z</time></trkpt><trkpt lat="42.227457035398814" lon="13.264583170875662"><ele>1162.0</ele><time>2026-04-27T13:21:23Z</time></trkpt><trkpt lat="42.227549041940485" lon="13.264534525625264"><ele>1162.0</ele><time>2026-04-27T13:21:24Z</time></trkpt><trkpt lat="42.22765933820943" lon="13.264499993827323"><ele>1162.0</ele><time>2026-04-27T13:21:25Z</time></trkpt><trkpt lat="42.227786983429056" lon="13.2644733508344"><ele>1162.0</ele><time>2026-04-27T13:21:26Z</time></trkpt><trkpt lat="42.22790325104855" lon="13.264444154159316"><ele>1162.0</ele><time>2026-04-27T13:21:27Z</time></trkpt><trkpt lat="42.22800869775114" lon="13.26439462916039"><ele>1162.0</ele><time>2026-04-27T13:21:28Z</time></trkpt><trkpt lat="42.22811888516054" lon="13.264335150331345"><ele>1162.0</ele><time>2026-04-27T13:21:29Z</time></trkpt><trkpt lat="42.228222592524865" lon="13.26427850825987"><ele>1162.0</ele><time>2026-04-27T13:21:30Z</time></trkpt><trkpt lat="42.22830061588693" lon="13.264227610509774"><ele>1162.0</ele><time>2026-04-27T13:21:31Z</time></trkpt><trkpt lat="42.22836947584444" lon="13.264153866888096"><ele>1162.2</ele><time>2026-04-27T13:21:32Z</time></trkpt><trkpt lat="42.228424336493774" lon="13.26405883255015"><ele>1162.4</ele><time>2026-04-27T13:21:33Z</time></trkpt><trkpt lat="42.228488914601435" lon="13.263930202192453"><ele>1162.6</ele><time>2026-04-27T13:21:34Z</time></trkpt><trkpt lat="42.22857184389446" lon="13.26381531909123"><ele>1162.8</ele><time>2026-04-27T13:21:35Z</time></trkpt><trkpt lat="42.228672311144365" lon="13.263720155016625"><ele>1163.0</ele><time>2026-04-27T13:21:36Z</time></trkpt><trkpt lat="42.2287800837306" lon="13.263620956486015"><ele>1163.0</ele><time>2026-04-27T13:21:37Z</time></trkpt><trkpt lat="42.22886038132401" lon="13.26352830633168"><ele>1163.0</ele><time>2026-04-27T13:21:38Z</time></trkpt><trkpt lat="42.22894342796442" lon="13.263438132247419"><ele>1163.0</ele><time>2026-04-27T13:21:39Z</time></trkpt><trkpt lat="42.22903744866696" lon="13.263357267941542"><ele>1163.0</ele><time>2026-04-27T13:21:40Z</time></trkpt><trkpt lat="42.22913861640218" lon="13.26325890233565"><ele>1163.0</ele><time>2026-04-27T13:21:41Z</time></trkpt><trkpt lat="42.229240938901256" lon="13.263172362437759"><ele>1165.8333333333335</ele><time>2026-04-27T13:21:42Z</time></trkpt><trkpt lat="42.22932643720687" lon="13.263096628580346"><ele>1168.6666666666667</ele><time>2026-04-27T13:21:43Z</time></trkpt><trkpt lat="42.2293913235864" lon="13.263018622650922"><ele>1171.5</ele><time>2026-04-27T13:21:44Z</time></trkpt><trkpt lat="42.229432869335426" lon="13.262936388387113"><ele>1174.3333333333333</ele><time>2026-04-27T13:21:45Z</time></trkpt><trkpt lat="42.22945274063245" lon="13.262852188981446"><ele>1177.1666666666665</ele><time>2026-04-27T13:21:46Z</time></trkpt><trkpt lat="42.22944210878124" lon="13.262760056661472"><ele>1180.0</ele><time>2026-04-27T13:21:47Z</time></trkpt><trkpt lat="42.22941178515698" lon="13.262650303672316"><ele>1180.0</ele><time>2026-04-27T13:21:48Z</time></trkpt><trkpt lat="42.22936571256356" lon="13.262517646876233"><ele>1180.0</ele><time>2026-04-27T13:21:49Z</time></trkpt><trkpt lat="42.22932267206254" lon="13.262397094927518"><ele>1180.0</ele><time>2026-04-27T13:21:50Z</time></trkpt><trkpt lat="42.229308767286746" lon="13.262297629756407"><ele>1180.0</ele><time>2026-04-27T13:21:51Z</time></trkpt><trkpt lat="42.229329796587805" lon="13.262216745746112"><ele>1180.0</ele><time>2026-04-27T13:21:52Z</time></trkpt><trkpt lat="42.22937463741102" lon="13.26215091186317"><ele>1180.0</ele><time>2026-04-27T13:21:53Z</time></trkpt><trkpt lat="42.22943662430082" lon="13.262096837287325"><ele>1179.5</ele><time>2026-04-27T13:21:54Z</time></trkpt><trkpt lat="42.229524973228216" lon="13.26200548752371"><ele>1179.0</ele><time>2026-04-27T13:21:55Z</time></trkpt><trkpt lat="42.22959508699673" lon="13.261878602202515"><ele>1178.5</ele><time>2026-04-27T13:21:56Z</time></trkpt><trkpt lat="42.22966533827662" lon="13.261702229395476"><ele>1178.0</ele><time>2026-04-27T13:21:57Z</time></trkpt><trkpt lat="42.22970374099363" lon="13.26155853949497"><ele>1178.0</ele><time>2026-04-27T13:21:58Z</time></trkpt><trkpt lat="42.229716777150415" lon="13.261456600266431"><ele>1178.0</ele><time>2026-04-27T13:21:59Z</time></trkpt><trkpt lat="42.229651324442486" lon="13.26137135627674"><ele>1178.0</ele><time>2026-04-27T13:22:01Z</time></trkpt><trkpt lat="42.229618292054816" lon="13.261186708059876"><ele>1178.0</ele><time>2026-04-27T13:22:03Z</time></trkpt><trkpt lat="42.22964540630297" lon="13.26104136402427"><ele>1178.0</ele><time>2026-04-27T13:22:04Z</time></trkpt><trkpt lat="42.22969815971069" lon="13.260932725719863"><ele>1177.2</ele><time>2026-04-27T13:22:05Z</time></trkpt><trkpt lat="42.2297671386371" lon="13.260845399570812"><ele>1176.4</ele><time>2026-04-27T13:22:06Z</time></trkpt><trkpt lat="42.229847574371284" lon="13.260799655861893"><ele>1175.6000000000001</ele><time>2026-04-27T13:22:07Z</time></trkpt><trkpt lat="42.22993438712272" lon="13.260818769689179"><ele>1174.8</ele><time>2026-04-27T13:22:08Z</time></trkpt><trkpt lat="42.23003617826876" lon="13.260836681261923"><ele>1174.0</ele><time>2026-04-27T13:22:09Z</time></trkpt><trkpt lat="42.23015855190443" lon="13.260867532931844"><ele>1178.6000000000001</ele><time>2026-04-27T13:22:10Z</time></trkpt><trkpt lat="42.23026422187014" lon="13.260921084251093"><ele>1183.2</ele><time>2026-04-27T13:22:11Z</time></trkpt><trkpt lat="42.23034133360478" lon="13.260984497370831"><ele>1187.8000000000002</ele><time>2026-04-27T13:22:12Z</time></trkpt><trkpt lat="42.23041065736163" lon="13.261017756363096"><ele>1192.4</ele><time>2026-04-27T13:22:13Z</time></trkpt><trkpt lat="42.230554764277024" lon="13.260974525294326"><ele>1197.0</ele><time>2026-04-27T13:22:15Z</time></trkpt><trkpt lat="42.23063279526886" lon="13.260830334816568"><ele>1195.25</ele><time>2026-04-27T13:22:16.001Z</time></trkpt><trkpt lat="42.23071648335506" lon="13.260662680622858"><ele>1193.5</ele><time>2026-04-27T13:22:17.001Z</time></trkpt><trkpt lat="42.23077846358212" lon="13.260527647454369"><ele>1191.75</ele><time>2026-04-27T13:22:18.001Z</time></trkpt><trkpt lat="42.23085251485723" lon="13.260474823483467"><ele>1190.0</ele><time>2026-04-27T13:22:19.001Z</time></trkpt><trkpt lat="42.23099596203754" lon="13.260410920378344"><ele>1190.0</ele><time>2026-04-27T13:22:21.001Z</time></trkpt><trkpt lat="42.23112373023186" lon="13.260409674025803"><ele>1190.0</ele><time>2026-04-27T13:22:22.001Z</time></trkpt><trkpt lat="42.23126471717165" lon="13.2604074819616"><ele>1190.0</ele><time>2026-04-27T13:22:23.001Z</time></trkpt><trkpt lat="42.231418153570246" lon="13.260400135695606"><ele>1190.0</ele><time>2026-04-27T13:22:24.001Z</time></trkpt><trkpt lat="42.23154543221457" lon="13.260410221913762"><ele>1192.0</ele><time>2026-04-27T13:22:25Z</time></trkpt><trkpt lat="42.23163192870079" lon="13.26044493513175"><ele>1194.0</ele><time>2026-04-27T13:22:26Z</time></trkpt><trkpt lat="42.2317208314623" lon="13.260533355779929"><ele>1196.0</ele><time>2026-04-27T13:22:27Z</time></trkpt><trkpt lat="42.23183232563315" lon="13.260645619725523"><ele>1198.0</ele><time>2026-04-27T13:22:28Z</time></trkpt><trkpt lat="42.231954899576024" lon="13.260731745443747"><ele>1199.25</ele><time>2026-04-27T13:22:29Z</time></trkpt><trkpt lat="42.23205434429057" lon="13.26079428871635"><ele>1200.5</ele><time>2026-04-27T13:22:30Z</time></trkpt><trkpt lat="42.23217114089856" lon="13.260856003648257"><ele>1201.75</ele><time>2026-04-27T13:22:31Z</time></trkpt><trkpt lat="42.23228692207822" lon="13.26092060304011"><ele>1203.0</ele><time>2026-04-27T13:22:32Z</time></trkpt><trkpt lat="42.232407174605214" lon="13.261013435485191"><ele>1203.0</ele><time>2026-04-27T13:22:33Z</time></trkpt><trkpt lat="42.23253158567394" lon="13.261114942011586"><ele>1203.0</ele><time>2026-04-27T13:22:34Z</time></trkpt><trkpt lat="42.232660757780586" lon="13.261213681907844"><ele>1203.0</ele><time>2026-04-27T13:22:35Z</time></trkpt><trkpt lat="42.2327871862065" lon="13.261301023529004"><ele>1203.0</ele><time>2026-04-27T13:22:36Z</time></trkpt><trkpt lat="42.23289713674473" lon="13.261376438454723"><ele>1203.5</ele><time>2026-04-27T13:22:37Z</time></trkpt><trkpt lat="42.23297697525118" lon="13.26145231688973"><ele>1204.0</ele><time>2026-04-27T13:22:38Z</time></trkpt><trkpt lat="42.23305843375775" lon="13.261532505054578"><ele>1204.5</ele><time>2026-04-27T13:22:39Z</time></trkpt><trkpt lat="42.233113852884735" lon="13.261599491324708"><ele>1205.0</ele><time>2026-04-27T13:22:40Z</time></trkpt><trkpt lat="42.23316079860303" lon="13.26166401847679"><ele>1205.5</ele><time>2026-04-27T13:22:41Z</time></trkpt><trkpt lat="42.2332171233962" lon="13.261758508435047"><ele>1206.0</ele><time>2026-04-27T13:22:42Z</time></trkpt><trkpt lat="42.23326224983447" lon="13.261852329797982"><ele>1206.0</ele><time>2026-04-27T13:22:43Z</time></trkpt><trkpt lat="42.23332831452882" lon="13.261895546518035"><ele>1206.0</ele><time>2026-04-27T13:22:44Z</time></trkpt><trkpt lat="42.23339798806236" lon="13.261895917677968"><ele>1206.0</ele><time>2026-04-27T13:22:45Z</time></trkpt><trkpt lat="42.233489066468735" lon="13.261919121664931"><ele>1206.0</ele><time>2026-04-27T13:22:46Z</time></trkpt><trkpt lat="42.23360204303868" lon="13.261964900824998"><ele>1206.0</ele><time>2026-04-27T13:22:47Z</time></trkpt><trkpt lat="42.233697992057145" lon="13.262008417094739"><ele>1206.0</ele><time>2026-04-27T13:22:48Z</time></trkpt><trkpt lat="42.23378128595545" lon="13.262076477339217"><ele>1206.0</ele><time>2026-04-27T13:22:49Z</time></trkpt><trkpt lat="42.233877019752" lon="13.26215612090593"><ele>1206.0</ele><time>2026-04-27T13:22:50Z</time></trkpt><trkpt lat="42.233942670082364" lon="13.262172629053552"><ele>1206.0</ele><time>2026-04-27T13:22:51Z</time></trkpt><trkpt lat="42.23406643846427" lon="13.262079001616565"><ele>1206.0</ele><time>2026-04-27T13:22:53Z</time></trkpt><trkpt lat="42.23415839366087" lon="13.262013915425074"><ele>1204.75</ele><time>2026-04-27T13:22:54Z</time></trkpt><trkpt lat="42.23428204355124" lon="13.261970353958919"><ele>1203.5</ele><time>2026-04-27T13:22:55Z</time></trkpt><trkpt lat="42.2344025416159" lon="13.261923811589698"><ele>1202.25</ele><time>2026-04-27T13:22:56Z</time></trkpt><trkpt lat="42.234514262720865" lon="13.261857888166483"><ele>1201.0</ele><time>2026-04-27T13:22:57Z</time></trkpt><trkpt lat="42.234641126696225" lon="13.261783714685938"><ele>1201.0</ele><time>2026-04-27T13:22:58Z</time></trkpt><trkpt lat="42.234782154702806" lon="13.261716070695812"><ele>1201.0</ele><time>2026-04-27T13:22:59Z</time></trkpt><trkpt lat="42.234927822617735" lon="13.261638303688803"><ele>1201.0</ele><time>2026-04-27T13:23:00Z</time></trkpt><trkpt lat="42.235054063192294" lon="13.261581561843547"><ele>1201.0</ele><time>2026-04-27T13:23:01Z</time></trkpt><trkpt lat="42.23515825473118" lon="13.261544438715768"><ele>1201.8</ele><time>2026-04-27T13:23:02Z</time></trkpt><trkpt lat="42.235248937161494" lon="13.261528357456879"><ele>1202.6</ele><time>2026-04-27T13:23:03Z</time></trkpt><trkpt lat="42.235331484042945" lon="13.261503758518051"><ele>1203.4</ele><time>2026-04-27T13:23:04Z</time></trkpt><trkpt lat="42.235408240669294" lon="13.261446609826166"><ele>1204.2</ele><time>2026-04-27T13:23:05Z</time></trkpt><trkpt lat="42.23547240335798" lon="13.261357560308948"><ele>1205.0</ele><time>2026-04-27T13:23:06Z</time></trkpt><trkpt lat="42.23554922111375" lon="13.26126671435898"><ele>1209.5</ele><time>2026-04-27T13:23:07Z</time></trkpt><trkpt lat="42.235647095360164" lon="13.261172106278957"><ele>1214.0</ele><time>2026-04-27T13:23:08Z</time></trkpt><trkpt lat="42.235759600985034" lon="13.261095371997428"><ele>1218.5</ele><time>2026-04-27T13:23:09Z</time></trkpt><trkpt lat="42.2358682249539" lon="13.261019920603925"><ele>1223.0</ele><time>2026-04-27T13:23:10Z</time></trkpt><trkpt lat="42.23599211878514" lon="13.260953995753244"><ele>1223.0</ele><time>2026-04-27T13:23:11Z</time></trkpt><trkpt lat="42.23611105228236" lon="13.260933717068498"><ele>1223.0</ele><time>2026-04-27T13:23:12Z</time></trkpt><trkpt lat="42.236220254728345" lon="13.260907205153668"><ele>1223.0</ele><time>2026-04-27T13:23:13Z</time></trkpt><trkpt lat="42.23634907484204" lon="13.260866591536983"><ele>1223.0</ele><time>2026-04-27T13:23:14Z</time></trkpt><trkpt lat="42.23646154475895" lon="13.26084129007517"><ele>1224.0</ele><time>2026-04-27T13:23:15Z</time></trkpt><trkpt lat="42.23656726833374" lon="13.260806019348374"><ele>1225.0</ele><time>2026-04-27T13:23:16Z</time></trkpt><trkpt lat="42.23669069880798" lon="13.260729566907631"><ele>1226.0</ele><time>2026-04-27T13:23:17Z</time></trkpt><trkpt lat="42.23681299719386" lon="13.26063449551692"><ele>1227.0</ele><time>2026-04-27T13:23:18Z</time></trkpt><trkpt lat="42.23692140798124" lon="13.260571460984274"><ele>1227.0</ele><time>2026-04-27T13:23:19Z</time></trkpt><trkpt lat="42.23702559361184" lon="13.260559963451486"><ele>1227.0</ele><time>2026-04-27T13:23:20Z</time></trkpt><trkpt lat="42.2371261968342" lon="13.260579679850851"><ele>1227.0</ele><time>2026-04-27T13:23:21Z</time></trkpt><trkpt lat="42.23724928183628" lon="13.260623652520874"><ele>1227.0</ele><time>2026-04-27T13:23:22Z</time></trkpt><trkpt lat="42.23735916094766" lon="13.260675919482681"><ele>1226.75</ele><time>2026-04-27T13:23:23Z</time></trkpt><trkpt lat="42.23747227831825" lon="13.26068341871417"><ele>1226.5</ele><time>2026-04-27T13:23:24Z</time></trkpt><trkpt lat="42.237605774489545" lon="13.260649461557403"><ele>1226.25</ele><time>2026-04-27T13:23:25Z</time></trkpt><trkpt lat="42.237746898569945" lon="13.2606258130981"><ele>1226.0</ele><time>2026-04-27T13:23:26Z</time></trkpt><trkpt lat="42.23786474698583" lon="13.260599532113668"><ele>1224.75</ele><time>2026-04-27T13:23:27Z</time></trkpt><trkpt lat="42.23798835064303" lon="13.260543156453569"><ele>1223.5</ele><time>2026-04-27T13:23:28Z</time></trkpt><trkpt lat="42.2381246616337" lon="13.260477012646636"><ele>1222.25</ele><time>2026-04-27T13:23:29Z</time></trkpt><trkpt lat="42.23826871975765" lon="13.260435559413688"><ele>1221.0</ele><time>2026-04-27T13:23:30Z</time></trkpt><trkpt lat="42.238382097656824" lon="13.260432594951391"><ele>1221.0</ele><time>2026-04-27T13:23:31Z</time></trkpt><trkpt lat="42.238496207096674" lon="13.260391688560519"><ele>1221.0</ele><time>2026-04-27T13:23:32Z</time></trkpt><trkpt lat="42.2385909693824" lon="13.260325249299816"><ele>1221.0</ele><time>2026-04-27T13:23:33Z</time></trkpt><trkpt lat="42.23866465207975" lon="13.26023968950928"><ele>1221.0</ele><time>2026-04-27T13:23:34Z</time></trkpt><trkpt lat="42.23873551039653" lon="13.260165113938207"><ele>1221.0</ele><time>2026-04-27T13:23:35Z</time></trkpt><trkpt lat="42.23882684320768" lon="13.260161261494893"><ele>1221.0</ele><time>2026-04-27T13:23:36Z</time></trkpt><trkpt lat="42.23892116731737" lon="13.260184065618343"><ele>1221.0</ele><time>2026-04-27T13:23:37Z</time></trkpt><trkpt lat="42.238999934501344" lon="13.26024939882472"><ele>1221.0</ele><time>2026-04-27T13:23:38Z</time></trkpt><trkpt lat="42.239071931353465" lon="13.260335792326385"><ele>1221.0</ele><time>2026-04-27T13:23:39Z</time></trkpt><trkpt lat="42.239163559292784" lon="13.260450244745174"><ele>1221.0</ele><time>2026-04-27T13:23:40Z</time></trkpt><trkpt lat="42.23927315380891" lon="13.260559875413202"><ele>1224.75</ele><time>2026-04-27T13:23:41Z</time></trkpt><trkpt lat="42.239401496751654" lon="13.260629410727066"><ele>1228.5</ele><time>2026-04-27T13:23:42Z</time></trkpt><trkpt lat="42.23953107076613" lon="13.260712769434162"><ele>1232.25</ele><time>2026-04-27T13:23:43Z</time></trkpt><trkpt lat="42.23964461227801" lon="13.260785668834517"><ele>1236.0</ele><time>2026-04-27T13:23:44Z</time></trkpt><trkpt lat="42.239746985969376" lon="13.26081024494594"><ele>1234.25</ele><time>2026-04-27T13:23:45Z</time></trkpt><trkpt lat="42.239843475092734" lon="13.260817225285134"><ele>1232.5</ele><time>2026-04-27T13:23:46Z</time></trkpt><trkpt lat="42.23993161226636" lon="13.260818817571048"><ele>1230.75</ele><time>2026-04-27T13:23:47Z</time></trkpt><trkpt lat="42.24004671166036" lon="13.260766238402951"><ele>1229.0</ele><time>2026-04-27T13:23:48Z</time></trkpt><trkpt lat="42.240197481419926" lon="13.260704508485105"><ele>1229.0</ele><time>2026-04-27T13:23:49Z</time></trkpt><trkpt lat="42.240350282653196" lon="13.260649972446117"><ele>1229.0</ele><time>2026-04-27T13:23:50Z</time></trkpt><trkpt lat="42.24050567286562" lon="13.260593896013964"><ele>1229.0</ele><time>2026-04-27T13:23:51Z</time></trkpt><trkpt lat="42.240649317969364" lon="13.260552117875914"><ele>1227.0</ele><time>2026-04-27T13:23:52Z</time></trkpt><trkpt lat="42.24074498857962" lon="13.260542367596"><ele>1225.0</ele><time>2026-04-27T13:23:53Z</time></trkpt><trkpt lat="42.240810432895294" lon="13.260533973184055"><ele>1223.0</ele><time>2026-04-27T13:23:54Z</time></trkpt><trkpt lat="42.240871289288215" lon="13.260484317496253"><ele>1221.0</ele><time>2026-04-27T13:23:55Z</time></trkpt><trkpt lat="42.24095560178317" lon="13.260421319193464"><ele>1219.0</ele><time>2026-04-27T13:23:56Z</time></trkpt><trkpt lat="42.241079006445595" lon="13.26037781369898"><ele>1219.0</ele><time>2026-04-27T13:23:57Z</time></trkpt><trkpt lat="42.241185274360795" lon="13.260313013524131"><ele>1219.0</ele><time>2026-04-27T13:23:58Z</time></trkpt><trkpt lat="42.24126259763271" lon="13.260232723390557"><ele>1219.0</ele><time>2026-04-27T13:23:59Z</time></trkpt><trkpt lat="42.24130582602068" lon="13.260150729484335"><ele>1219.0</ele><time>2026-04-27T13:24:00Z</time></trkpt><trkpt lat="42.24136945724837" lon="13.260056010392274"><ele>1219.0</ele><time>2026-04-27T13:24:01Z</time></trkpt><trkpt lat="42.24143844403676" lon="13.259989635601139"><ele>1221.8</ele><time>2026-04-27T13:24:02Z</time></trkpt><trkpt lat="42.24150935278837" lon="13.259984295487028"><ele>1224.6000000000001</ele><time>2026-04-27T13:24:03Z</time></trkpt><trkpt lat="42.24160937524109" lon="13.260012504868874"><ele>1227.4</ele><time>2026-04-27T13:24:04Z</time></trkpt><trkpt lat="42.24173284404001" lon="13.26004203884422"><ele>1230.2</ele><time>2026-04-27T13:24:05Z</time></trkpt><trkpt lat="42.2418492615168" lon="13.260038583429482"><ele>1233.0</ele><time>2026-04-27T13:24:06Z</time></trkpt><trkpt lat="42.24194553105381" lon="13.260012697672732"><ele>1233.0</ele><time>2026-04-27T13:24:07Z</time></trkpt><trkpt lat="42.24203358140313" lon="13.259949820410503"><ele>1233.0</ele><time>2026-04-27T13:24:08Z</time></trkpt><trkpt lat="42.242105390653" lon="13.259879358354747"><ele>1233.0</ele><time>2026-04-27T13:24:09Z</time></trkpt><trkpt lat="42.24220761269142" lon="13.25982470940938"><ele>1233.0</ele><time>2026-04-27T13:24:10Z</time></trkpt><trkpt lat="42.242334362103385" lon="13.259801258713596"><ele>1233.0</ele><time>2026-04-27T13:24:11Z</time></trkpt><trkpt lat="42.24244218707604" lon="13.259764968620855"><ele>1231.5</ele><time>2026-04-27T13:24:12Z</time></trkpt><trkpt lat="42.242540191447105" lon="13.259709954486238"><ele>1230.0</ele><time>2026-04-27T13:24:13Z</time></trkpt><trkpt lat="42.242663634985256" lon="13.259665981835338"><ele>1228.5</ele><time>2026-04-27T13:24:14Z</time></trkpt><trkpt lat="42.242779802031926" lon="13.259662023494041"><ele>1227.0</ele><time>2026-04-27T13:24:15Z</time></trkpt><trkpt lat="42.24291190032083" lon="13.259645848844198"><ele>1227.0</ele><time>2026-04-27T13:24:16Z</time></trkpt><trkpt lat="42.243023662753274" lon="13.25961689594888"><ele>1227.0</ele><time>2026-04-27T13:24:17Z</time></trkpt><trkpt lat="42.243104173140665" lon="13.259570037518667"><ele>1227.0</ele><time>2026-04-27T13:24:18Z</time></trkpt><trkpt lat="42.24317166676817" lon="13.259512755121923"><ele>1227.0</ele><time>2026-04-27T13:24:19Z</time></trkpt><trkpt lat="42.24322799999675" lon="13.259428119123022"><ele>1227.0</ele><time>2026-04-27T13:24:20Z</time></trkpt><trkpt lat="42.243292591894026" lon="13.259347723450572"><ele>1230.4</ele><time>2026-04-27T13:24:21Z</time></trkpt><trkpt lat="42.243373227187654" lon="13.259299083481247"><ele>1233.8000000000002</ele><time>2026-04-27T13:24:22Z</time></trkpt><trkpt lat="42.243475181721365" lon="13.259173161056584"><ele>1237.2</ele><time>2026-04-27T13:24:24Z</time></trkpt><trkpt lat="42.24355203012716" lon="13.25914323911849"><ele>1240.6000000000001</ele><time>2026-04-27T13:24:25Z</time></trkpt><trkpt lat="42.243670210894734" lon="13.25908564504694"><ele>1244.0</ele><time>2026-04-27T13:24:26Z</time></trkpt><trkpt lat="42.24379910282296" lon="13.259015814640629"><ele>1245.4</ele><time>2026-04-27T13:24:27Z</time></trkpt><trkpt lat="42.2439091456324" lon="13.258935020120926"><ele>1246.8000000000002</ele><time>2026-04-27T13:24:28Z</time></trkpt><trkpt lat="42.24398529530258" lon="13.258816784841601"><ele>1248.1999999999998</ele><time>2026-04-27T13:24:29Z</time></trkpt><trkpt lat="42.2440449862941" lon="13.258692737969865"><ele>1249.6</ele><time>2026-04-27T13:24:30Z</time></trkpt><trkpt lat="42.24410227507703" lon="13.258623421920419"><ele>1251.0</ele><time>2026-04-27T13:24:31Z</time></trkpt><trkpt lat="42.24419063362808" lon="13.258575016413332"><ele>1251.0</ele><time>2026-04-27T13:24:32Z</time></trkpt><trkpt lat="42.2443004761498" lon="13.258557360660353"><ele>1251.0</ele><time>2026-04-27T13:24:33Z</time></trkpt><trkpt lat="42.244398883370735" lon="13.258569037939195"><ele>1251.0</ele><time>2026-04-27T13:24:34Z</time></trkpt><trkpt lat="42.24451599807922" lon="13.258576487585717"><ele>1251.0</ele><time>2026-04-27T13:24:35Z</time></trkpt><trkpt lat="42.244602076624055" lon="13.25860157621881"><ele>1251.0</ele><time>2026-04-27T13:24:36Z</time></trkpt><trkpt lat="42.244675115227615" lon="13.258649488612319"><ele>1251.0</ele><time>2026-04-27T13:24:37Z</time></trkpt><trkpt lat="42.244759611398926" lon="13.258712297002578"><ele>1251.0</ele><time>2026-04-27T13:24:38Z</time></trkpt><trkpt lat="42.24483921781438" lon="13.258787366225599"><ele>1251.0</ele><time>2026-04-27T13:24:39Z</time></trkpt><trkpt lat="42.244910396355564" lon="13.25885801811024"><ele>1251.0</ele><time>2026-04-27T13:24:40Z</time></trkpt><trkpt lat="42.244993424133746" lon="13.258939552117049"><ele>1251.0</ele><time>2026-04-27T13:24:41Z</time></trkpt><trkpt lat="42.24507988325201" lon="13.259017595171674"><ele>1252.0</ele><time>2026-04-27T13:24:42Z</time></trkpt><trkpt lat="42.24519673183906" lon="13.259090544973477"><ele>1253.0</ele><time>2026-04-27T13:24:43Z</time></trkpt><trkpt lat="42.24530619077594" lon="13.259174528457974"><ele>1254.0</ele><time>2026-04-27T13:24:44Z</time></trkpt><trkpt lat="42.24542980570428" lon="13.259216227690862"><ele>1255.0</ele><time>2026-04-27T13:24:45Z</time></trkpt><trkpt lat="42.24557004315843" lon="13.25925998694929"><ele>1254.75</ele><time>2026-04-27T13:24:46Z</time></trkpt><trkpt lat="42.24569696037184" lon="13.25932813205586"><ele>1254.5</ele><time>2026-04-27T13:24:47Z</time></trkpt><trkpt lat="42.245850052746285" lon="13.259382560148824"><ele>1254.25</ele><time>2026-04-27T13:24:48Z</time></trkpt><trkpt lat="42.24596233893274" lon="13.259424314262299"><ele>1254.0</ele><time>2026-04-27T13:24:49Z</time></trkpt><trkpt lat="42.246053719886525" lon="13.259448297265221"><ele>1254.0</ele><time>2026-04-27T13:24:50Z</time></trkpt><trkpt lat="42.24613407012153" lon="13.25951454346926"><ele>1254.0</ele><time>2026-04-27T13:24:51Z</time></trkpt><trkpt lat="42.24620067972499" lon="13.259621027962769"><ele>1254.0</ele><time>2026-04-27T13:24:53Z</time></trkpt><trkpt lat="42.24621494710997" lon="13.259708335009574"><ele>1254.0</ele><time>2026-04-27T13:24:54Z</time></trkpt><trkpt lat="42.246203506061924" lon="13.259800982361684"><ele>1254.0</ele><time>2026-04-27T13:24:55Z</time></trkpt><trkpt lat="42.246191469305366" lon="13.259922190294974"><ele>1254.0</ele><time>2026-04-27T13:24:55.999Z</time></trkpt><trkpt lat="42.24618854835332" lon="13.260020948461953"><ele>1257.6000000000001</ele><time>2026-04-27T13:24:56.999Z</time></trkpt><trkpt lat="42.24629038057823" lon="13.260147267485555"><ele>1261.2</ele><time>2026-04-27T13:24:58.999Z</time></trkpt><trkpt lat="42.24637700734254" lon="13.260114262428745"><ele>1264.8000000000002</ele><time>2026-04-27T13:24:59.999Z</time></trkpt><trkpt lat="42.24647417537992" lon="13.260117463417751"><ele>1268.4</ele><time>2026-04-27T13:25:00.999Z</time></trkpt><trkpt lat="42.24657611357587" lon="13.260105663008499"><ele>1272.0</ele><time>2026-04-27T13:25:01.999Z</time></trkpt><trkpt lat="42.24668228107903" lon="13.260065238665483"><ele>1271.0</ele><time>2026-04-27T13:25:02.999Z</time></trkpt><trkpt lat="42.24678271003881" lon="13.25998242269803"><ele>1270.0</ele><time>2026-04-27T13:25:03.999Z</time></trkpt><trkpt lat="42.24684659737171" lon="13.259888885575082"><ele>1269.0</ele><time>2026-04-27T13:25:04.999Z</time></trkpt><trkpt lat="42.24692123018639" lon="13.25979191753416"><ele>1268.0</ele><time>2026-04-27T13:25:05.999Z</time></trkpt><trkpt lat="42.24697984886717" lon="13.259712774000299"><ele>1267.0</ele><time>2026-04-27T13:25:06.999Z</time></trkpt><trkpt lat="42.24704658126711" lon="13.25974921068705"><ele>1268.8333333333333</ele><time>2026-04-27T13:25:08.999Z</time></trkpt><trkpt lat="42.247092464133004" lon="13.259877602353631"><ele>1270.6666666666665</ele><time>2026-04-27T13:25:10.999Z</time></trkpt><trkpt lat="42.24706522499081" lon="13.259982771376109"><ele>1272.5</ele><time>2026-04-27T13:25:11.999Z</time></trkpt><trkpt lat="42.247038347014445" lon="13.260109319541593"><ele>1274.3333333333333</ele><time>2026-04-27T13:25:12.999Z</time></trkpt><trkpt lat="42.24701362897967" lon="13.260219606825807"><ele>1276.1666666666667</ele><time>2026-04-27T13:25:13.999Z</time></trkpt><trkpt lat="42.247005130641384" lon="13.260308059742934"><ele>1278.0</ele><time>2026-04-27T13:25:14.999Z</time></trkpt><trkpt lat="42.247080573440556" lon="13.2603762670559"><ele>1278.0</ele><time>2026-04-27T13:25:16.999Z</time></trkpt><trkpt lat="42.247209974732044" lon="13.260318156346578"><ele>1278.0</ele><time>2026-04-27T13:25:18.999Z</time></trkpt><trkpt lat="42.2472896595787" lon="13.260313182254562"><ele>1278.0</ele><time>2026-04-27T13:25:19.999Z</time></trkpt><trkpt lat="42.2473138999376" lon="13.260145746509046"><ele>1278.0</ele><time>2026-04-27T13:25:20.999Z</time></trkpt><trkpt lat="42.24732444293332" lon="13.260017140600645"><ele>1278.0</ele><time>2026-04-27T13:25:21.999Z</time></trkpt><trkpt lat="42.247341805989926" lon="13.259847998614578"><ele>1279.6</ele><time>2026-04-27T13:25:22.999Z</time></trkpt><trkpt lat="42.247374672684444" lon="13.259683844530132"><ele>1281.1999999999998</ele><time>2026-04-27T13:25:23.999Z</time></trkpt><trkpt lat="42.24743004785093" lon="13.259552307530432"><ele>1282.8</ele><time>2026-04-27T13:25:24.999Z</time></trkpt><trkpt lat="42.247505111510186" lon="13.259488963511982"><ele>1284.3999999999999</ele><time>2026-04-27T13:25:25.999Z</time></trkpt><trkpt lat="42.24754842492496" lon="13.259415191749305"><ele>1286.0</ele><time>2026-04-27T13:25:26.999Z</time></trkpt><trkpt lat="42.24762633311741" lon="13.259355886646363"><ele>1286.0</ele><time>2026-04-27T13:25:27.999Z</time></trkpt><trkpt lat="42.24770880173025" lon="13.259284222278458"><ele>1286.0</ele><time>2026-04-27T13:25:28.999Z</time></trkpt><trkpt lat="42.247744127305246" lon="13.259181562746864"><ele>1286.0</ele><time>2026-04-27T13:25:29.999Z</time></trkpt><trkpt lat="42.2477687519845" lon="13.25907917340445"><ele>1286.0</ele><time>2026-04-27T13:25:30.999Z</time></trkpt><trkpt lat="42.24784756736958" lon="13.25903554376159"><ele>1286.0</ele><time>2026-04-27T13:25:31.999Z</time></trkpt><trkpt lat="42.24791314787939" lon="13.258966994716372"><ele>1286.0</ele><time>2026-04-27T13:25:32.999Z</time></trkpt><trkpt lat="42.24803026569603" lon="13.258890268222055"><ele>1283.0</ele><time>2026-04-27T13:25:33.999Z</time></trkpt><trkpt lat="42.248079365827195" lon="13.258728197312177"><ele>1280.0</ele><time>2026-04-27T13:25:34.999Z</time></trkpt><trkpt lat="42.248142511728055" lon="13.258578665223807"><ele>1277.0</ele><time>2026-04-27T13:25:35.999Z</time></trkpt><trkpt lat="42.248191059726715" lon="13.258427064336912"><ele>1274.0</ele><time>2026-04-27T13:25:36.999Z</time></trkpt><trkpt lat="42.24823957659053" lon="13.258294485401573"><ele>1276.5</ele><time>2026-04-27T13:25:37.999Z</time></trkpt><trkpt lat="42.2483101976266" lon="13.258166881421655"><ele>1279.0</ele><time>2026-04-27T13:25:38.999Z</time></trkpt><trkpt lat="42.248396334097606" lon="13.258039505689423"><ele>1281.5</ele><time>2026-04-27T13:25:39.999Z</time></trkpt><trkpt lat="42.24846678093889" lon="13.257884122744029"><ele>1284.0</ele><time>2026-04-27T13:25:41Z</time></trkpt><trkpt lat="42.248502964290594" lon="13.257734729266009"><ele>1284.0</ele><time>2026-04-27T13:25:42Z</time></trkpt><trkpt lat="42.248548364910526" lon="13.257560003176845"><ele>1284.0</ele><time>2026-04-27T13:25:43Z</time></trkpt><trkpt lat="42.24862154934393" lon="13.25741844568116"><ele>1284.0</ele><time>2026-04-27T13:25:44Z</time></trkpt><trkpt lat="42.24869478121925" lon="13.257294394527744"><ele>1284.0</ele><time>2026-04-27T13:25:45Z</time></trkpt><trkpt lat="42.2487701363467" lon="13.257190161193309"><ele>1285.75</ele><time>2026-04-27T13:25:46Z</time></trkpt><trkpt lat="42.2488513701935" lon="13.257108577780164"><ele>1287.5</ele><time>2026-04-27T13:25:47Z</time></trkpt><trkpt lat="42.24895330131155" lon="13.257054513157867"><ele>1289.25</ele><time>2026-04-27T13:25:48Z</time></trkpt><trkpt lat="42.24907262500459" lon="13.256977799617275"><ele>1291.0</ele><time>2026-04-27T13:25:49Z</time></trkpt><trkpt lat="42.24920623584432" lon="13.256906830778279"><ele>1291.0</ele><time>2026-04-27T13:25:50Z</time></trkpt><trkpt lat="42.249309523663506" lon="13.256867629171216"><ele>1291.0</ele><time>2026-04-27T13:25:51Z</time></trkpt><trkpt lat="42.24941800216921" lon="13.256848556179557"><ele>1291.0</ele><time>2026-04-27T13:25:52Z</time></trkpt><trkpt lat="42.249503440068615" lon="13.256867501886688"><ele>1291.0</ele><time>2026-04-27T13:25:53Z</time></trkpt><trkpt lat="42.24960184512156" lon="13.256858767729707"><ele>1291.0</ele><time>2026-04-27T13:25:54Z</time></trkpt><trkpt lat="42.24969502856736" lon="13.256859162277356"><ele>1291.0</ele><time>2026-04-27T13:25:55Z</time></trkpt><trkpt lat="42.249765645717325" lon="13.256868576971318"><ele>1291.0</ele><time>2026-04-27T13:25:56Z</time></trkpt><trkpt lat="42.249867455665196" lon="13.25683216673154"><ele>1291.0</ele><time>2026-04-27T13:25:57Z</time></trkpt><trkpt lat="42.2499702958428" lon="13.256798709559781"><ele>1291.0</ele><time>2026-04-27T13:25:58Z</time></trkpt><trkpt lat="42.25006733710986" lon="13.256721342227623"><ele>1291.0</ele><time>2026-04-27T13:25:59Z</time></trkpt><trkpt lat="42.25019895037851" lon="13.256629250850178"><ele>1291.6</ele><time>2026-04-27T13:26:00Z</time></trkpt><trkpt lat="42.250320485715186" lon="13.256538931895479"><ele>1292.1999999999998</ele><time>2026-04-27T13:26:01Z</time></trkpt><trkpt lat="42.25041782843666" lon="13.256450350076314"><ele>1292.8000000000002</ele><time>2026-04-27T13:26:02Z</time></trkpt><trkpt lat="42.25050543775812" lon="13.256431925679363"><ele>1293.4</ele><time>2026-04-27T13:26:03Z</time></trkpt><trkpt lat="42.2505860928114" lon="13.256415823889162"><ele>1294.0</ele><time>2026-04-27T13:26:04Z</time></trkpt><trkpt lat="42.25069096814328" lon="13.256399200700761"><ele>1289.75</ele><time>2026-04-27T13:26:05Z</time></trkpt><trkpt lat="42.25082943157482" lon="13.256384840511233"><ele>1285.5</ele><time>2026-04-27T13:26:06Z</time></trkpt><trkpt lat="42.25094439308815" lon="13.256373439125047"><ele>1281.25</ele><time>2026-04-27T13:26:07Z</time></trkpt><trkpt lat="42.25105740155423" lon="13.256361359679453"><ele>1277.0</ele><time>2026-04-27T13:26:08Z</time></trkpt><trkpt lat="42.25115046345956" lon="13.256416854535312"><ele>1281.5</ele><time>2026-04-27T13:26:09Z</time></trkpt><trkpt lat="42.25123080117921" lon="13.256453370677765"><ele>1286.0</ele><time>2026-04-27T13:26:10Z</time></trkpt><trkpt lat="42.25135493958973" lon="13.256497476106144"><ele>1290.5</ele><time>2026-04-27T13:26:11Z</time></trkpt><trkpt lat="42.25149309672481" lon="13.256589870685625"><ele>1295.0</ele><time>2026-04-27T13:26:12Z</time></trkpt><trkpt lat="42.25161785370529" lon="13.256661417898604"><ele>1295.5</ele><time>2026-04-27T13:26:13Z</time></trkpt><trkpt lat="42.25170802293852" lon="13.25670373557079"><ele>1296.0</ele><time>2026-04-27T13:26:14Z</time></trkpt><trkpt lat="42.251781499473466" lon="13.25674603396828"><ele>1296.5</ele><time>2026-04-27T13:26:15Z</time></trkpt><trkpt lat="42.25185746296603" lon="13.256738624834583"><ele>1297.0</ele><time>2026-04-27T13:26:17Z</time></trkpt><trkpt lat="42.25185629898253" lon="13.256650235583828"><ele>1297.5</ele><time>2026-04-27T13:35:17.999Z</time></trkpt><trkpt lat="42.25187870413531" lon="13.256527291104845"><ele>1298.0</ele><time>2026-04-27T13:35:19.999Z</time></trkpt><trkpt lat="42.25192269745653" lon="13.25646398600443"><ele>1295.0</ele><time>2026-04-27T13:35:20.999Z</time></trkpt><trkpt lat="42.251979007018356" lon="13.256416854698697"><ele>1292.0</ele><time>2026-04-27T13:35:21.999Z</time></trkpt><trkpt lat="42.25205357720144" lon="13.256387846521918"><ele>1289.0</ele><time>2026-04-27T13:35:22.999Z</time></trkpt><trkpt lat="42.25207851126392" lon="13.256231926670882"><ele>1286.0</ele><time>2026-04-27T13:35:23.999Z</time></trkpt><trkpt lat="42.25212986942753" lon="13.256091650975465"><ele>1283.0</ele><time>2026-04-27T13:35:24.999Z</time></trkpt><trkpt lat="42.252212732010484" lon="13.255994767475965"><ele>1284.25</ele><time>2026-04-27T13:35:25.999Z</time></trkpt><trkpt lat="42.252295731849394" lon="13.255855579311008"><ele>1285.5</ele><time>2026-04-27T13:35:26.999Z</time></trkpt><trkpt lat="42.25237085488456" lon="13.255692434979874"><ele>1286.75</ele><time>2026-04-27T13:35:27.999Z</time></trkpt><trkpt lat="42.252460693962966" lon="13.255547880211022"><ele>1288.0</ele><time>2026-04-27T13:35:28.999Z</time></trkpt><trkpt lat="42.25251886288991" lon="13.25546847086165"><ele>1288.0</ele><time>2026-04-27T13:35:29.999Z</time></trkpt><trkpt lat="42.25259750085141" lon="13.255412432792326"><ele>1288.0</ele><time>2026-04-27T13:35:30.999Z</time></trkpt><trkpt lat="42.25269728358241" lon="13.255321427838092"><ele>1288.0</ele><time>2026-04-27T13:35:31.999Z</time></trkpt><trkpt lat="42.25281869859913" lon="13.255223223219573"><ele>1288.0</ele><time>2026-04-27T13:35:32.999Z</time></trkpt><trkpt lat="42.252918310809164" lon="13.255159040809342"><ele>1288.0</ele><time>2026-04-27T13:35:33.999Z</time></trkpt><trkpt lat="42.25300223563649" lon="13.255122232604625"><ele>1288.0</ele><time>2026-04-27T13:35:34.999Z</time></trkpt><trkpt lat="42.2531010635908" lon="13.255109845568839"><ele>1288.0</ele><time>2026-04-27T13:35:35.999Z</time></trkpt><trkpt lat="42.253225582242166" lon="13.25506602599819"><ele>1288.0</ele><time>2026-04-27T13:35:36.999Z</time></trkpt><trkpt lat="42.253360609607604" lon="13.254990716101048"><ele>1289.5</ele><time>2026-04-27T13:35:37.999Z</time></trkpt><trkpt lat="42.25347934153243" lon="13.25494608322198"><ele>1291.0</ele><time>2026-04-27T13:35:38.999Z</time></trkpt><trkpt lat="42.25358329941805" lon="13.254890395307992"><ele>1292.5</ele><time>2026-04-27T13:35:39.999Z</time></trkpt><trkpt lat="42.25369667121349" lon="13.254809290969291"><ele>1294.0</ele><time>2026-04-27T13:35:40.999Z</time></trkpt><trkpt lat="42.25381576330383" lon="13.25472322196907"><ele>1292.0</ele><time>2026-04-27T13:35:41.999Z</time></trkpt><trkpt lat="42.253928799790984" lon="13.254653828754778"><ele>1290.0</ele><time>2026-04-27T13:35:42.999Z</time></trkpt><trkpt lat="42.254024430087355" lon="13.254598434922594"><ele>1288.0</ele><time>2026-04-27T13:35:43.999Z</time></trkpt><trkpt lat="42.25411404299669" lon="13.254546305967791"><ele>1286.0</ele><time>2026-04-27T13:35:44.999Z</time></trkpt><trkpt lat="42.254209270577775" lon="13.254505852897083"><ele>1284.0</ele><time>2026-04-27T13:35:45.999Z</time></trkpt><trkpt lat="42.25431720975226" lon="13.254437954671594"><ele>1284.0</ele><time>2026-04-27T13:35:46.999Z</time></trkpt><trkpt lat="42.25444675004756" lon="13.254365140388995"><ele>1284.0</ele><time>2026-04-27T13:35:47.999Z</time></trkpt><trkpt lat="42.254582177193846" lon="13.254271500114287"><ele>1284.0</ele><time>2026-04-27T13:35:48.999Z</time></trkpt><trkpt lat="42.25471416288618" lon="13.254176216850187"><ele>1284.0</ele><time>2026-04-27T13:35:49.999Z</time></trkpt><trkpt lat="42.25482498393695" lon="13.254100649958165"><ele>1281.75</ele><time>2026-04-27T13:35:50.999Z</time></trkpt><trkpt lat="42.25494201726153" lon="13.254051112540289"><ele>1279.5</ele><time>2026-04-27T13:35:51.999Z</time></trkpt><trkpt lat="42.25508725325997" lon="13.253993883060078"><ele>1277.25</ele><time>2026-04-27T13:35:52.999Z</time></trkpt><trkpt lat="42.2552314971344" lon="13.25394514987464"><ele>1275.0</ele><time>2026-04-27T13:35:53.999Z</time></trkpt><trkpt lat="42.25535352476783" lon="13.25387957261574"><ele>1275.0</ele><time>2026-04-27T13:35:54.999Z</time></trkpt><trkpt lat="42.25547808405844" lon="13.25379333777984"><ele>1275.0</ele><time>2026-04-27T13:35:55.999Z</time></trkpt><trkpt lat="42.25559373820531" lon="13.25369077228717"><ele>1275.0</ele><time>2026-04-27T13:35:56.999Z</time></trkpt><trkpt lat="42.255678449826725" lon="13.25361524101925"><ele>1275.0</ele><time>2026-04-27T13:35:57.999Z</time></trkpt><trkpt lat="42.25574064365022" lon="13.25354662532203"><ele>1277.4</ele><time>2026-04-27T13:35:58.999Z</time></trkpt><trkpt lat="42.25577812409406" lon="13.253461988359186"><ele>1279.8</ele><time>2026-04-27T13:35:59.999Z</time></trkpt><trkpt lat="42.25579888954849" lon="13.253376251303006"><ele>1282.1999999999998</ele><time>2026-04-27T13:36:00.999Z</time></trkpt><trkpt lat="42.25581544830764" lon="13.253157985574468"><ele>1284.6</ele><time>2026-04-27T13:36:01.999Z</time></trkpt><trkpt lat="42.255821315015865" lon="13.252975994400623"><ele>1287.0</ele><time>2026-04-27T13:36:02.999Z</time></trkpt><trkpt lat="42.25584530258985" lon="13.252810541409147"><ele>1287.0</ele><time>2026-04-27T13:36:03.999Z</time></trkpt><trkpt lat="42.25587022753859" lon="13.25265143534696"><ele>1287.0</ele><time>2026-04-27T13:36:04.999Z</time></trkpt><trkpt lat="42.25590961692613" lon="13.252499835212356"><ele>1287.0</ele><time>2026-04-27T13:36:05.999Z</time></trkpt><trkpt lat="42.25595955361507" lon="13.2523288965738"><ele>1287.0</ele><time>2026-04-27T13:36:06.999Z</time></trkpt><trkpt lat="42.25600775236243" lon="13.25222337317018"><ele>1286.1999999999998</ele><time>2026-04-27T13:36:07.999Z</time></trkpt><trkpt lat="42.25606184742719" lon="13.252164694647123"><ele>1285.4</ele><time>2026-04-27T13:36:08.999Z</time></trkpt><trkpt lat="42.256151958861274" lon="13.252089985150649"><ele>1284.6</ele><time>2026-04-27T13:36:09.999Z</time></trkpt><trkpt lat="42.25624447838688" lon="13.251999505643909"><ele>1283.8000000000002</ele><time>2026-04-27T13:36:10.999Z</time></trkpt><trkpt lat="42.25634199284555" lon="13.251900375390917"><ele>1283.0</ele><time>2026-04-27T13:36:11.999Z</time></trkpt><trkpt lat="42.25642157258633" lon="13.251787183780426"><ele>1285.8000000000002</ele><time>2026-04-27T13:36:12.999Z</time></trkpt><trkpt lat="42.25650729447601" lon="13.251716888632071"><ele>1288.6</ele><time>2026-04-27T13:36:13.999Z</time></trkpt><trkpt lat="42.25658436623732" lon="13.251645535141337"><ele>1291.4</ele><time>2026-04-27T13:36:14.999Z</time></trkpt><trkpt lat="42.256697141232074" lon="13.251608465584715"><ele>1294.1999999999998</ele><time>2026-04-27T13:36:15.999Z</time></trkpt><trkpt lat="42.25682505559802" lon="13.251589255178045"><ele>1297.0</ele><time>2026-04-27T13:36:16.999Z</time></trkpt><trkpt lat="42.2569365858793" lon="13.25155209678378"><ele>1297.0</ele><time>2026-04-27T13:36:17.999Z</time></trkpt><trkpt lat="42.25699580208945" lon="13.251506799483026"><ele>1297.0</ele><time>2026-04-27T13:36:18.999Z</time></trkpt><trkpt lat="42.25707865291062" lon="13.25156615432801"><ele>1297.0</ele><time>2026-04-27T13:36:20.999Z</time></trkpt><trkpt lat="42.25706400483986" lon="13.251672531234812"><ele>1297.0</ele><time>2026-04-27T13:36:21.999Z</time></trkpt><trkpt lat="42.25706653145348" lon="13.251786097658327"><ele>1297.0</ele><time>2026-04-27T13:36:22.999Z</time></trkpt><trkpt lat="42.25708909644843" lon="13.251960058274344"><ele>1297.0</ele><time>2026-04-27T13:36:23.999Z</time></trkpt><trkpt lat="42.25711340866808" lon="13.252138941419362"><ele>1297.0</ele><time>2026-04-27T13:36:24.999Z</time></trkpt><trkpt lat="42.25713137831713" lon="13.252275474246646"><ele>1297.0</ele><time>2026-04-27T13:36:25.999Z</time></trkpt><trkpt lat="42.257149496033264" lon="13.252400608038794"><ele>1297.0</ele><time>2026-04-27T13:36:26.999Z</time></trkpt><trkpt lat="42.25716902882572" lon="13.25251848901825"><ele>1297.0</ele><time>2026-04-27T13:36:27.999Z</time></trkpt><trkpt lat="42.257200973486604" lon="13.25263181216596"><ele>1298.0</ele><time>2026-04-27T13:36:28.999Z</time></trkpt><trkpt lat="42.25725213938258" lon="13.252703375348249"><ele>1299.0</ele><time>2026-04-27T13:36:30.999Z</time></trkpt><trkpt lat="42.25737557691202" lon="13.252703094466437"><ele>1300.0</ele><time>2026-04-27T13:36:32.999Z</time></trkpt><trkpt lat="42.257442862930745" lon="13.25261465424966"><ele>1301.0</ele><time>2026-04-27T13:36:33.999Z</time></trkpt><trkpt lat="42.25752133893857" lon="13.252578853203172"><ele>1302.0</ele><time>2026-04-27T13:36:34.999Z</time></trkpt><trkpt lat="42.25764956805408" lon="13.2525576116365"><ele>1299.6</ele><time>2026-04-27T13:36:36.999Z</time></trkpt><trkpt lat="42.25774077414422" lon="13.252585368119915"><ele>1297.1999999999998</ele><time>2026-04-27T13:36:37.999Z</time></trkpt><trkpt lat="42.25783971195605" lon="13.252588486440235"><ele>1294.8</ele><time>2026-04-27T13:36:38.999Z</time></trkpt><trkpt lat="42.25797413763306" lon="13.252582869875278"><ele>1292.4</ele><time>2026-04-27T13:36:39.999Z</time></trkpt><trkpt lat="42.25809427834009" lon="13.252562275011973"><ele>1290.0</ele><time>2026-04-27T13:36:40.999Z</time></trkpt><trkpt lat="42.25820415612966" lon="13.252518441787887"><ele>1290.0</ele><time>2026-04-27T13:36:41.999Z</time></trkpt><trkpt lat="42.258301536103325" lon="13.25245081322995"><ele>1290.0</ele><time>2026-04-27T13:36:42.999Z</time></trkpt><trkpt lat="42.25841235219993" lon="13.252382293398586"><ele>1290.0</ele><time>2026-04-27T13:36:43.999Z</time></trkpt><trkpt lat="42.25849465461969" lon="13.252275432370677"><ele>1290.0</ele><time>2026-04-27T13:36:44.999Z</time></trkpt><trkpt lat="42.258561116102534" lon="13.252189375117323"><ele>1290.0</ele><time>2026-04-27T13:36:45.999Z</time></trkpt><trkpt lat="42.25861932275862" lon="13.252110693593131"><ele>1287.4</ele><time>2026-04-27T13:36:46.999Z</time></trkpt><trkpt lat="42.258644873827" lon="13.251976787865463"><ele>1284.8</ele><time>2026-04-27T13:36:47.999Z</time></trkpt><trkpt lat="42.25868420194823" lon="13.251861649526552"><ele>1282.2</ele><time>2026-04-27T13:36:48.999Z</time></trkpt><trkpt lat="42.25873639896652" lon="13.251725488057986"><ele>1279.6</ele><time>2026-04-27T13:36:49.999Z</time></trkpt><trkpt lat="42.25877278795627" lon="13.251593057116926"><ele>1277.0</ele><time>2026-04-27T13:36:50.999Z</time></trkpt><trkpt lat="42.25894656433721" lon="13.251528272475708"><ele>1275.2</ele><time>2026-04-27T13:36:51.999Z</time></trkpt><trkpt lat="42.25901655393167" lon="13.251447314549527"><ele>1273.4</ele><time>2026-04-27T13:36:52.999Z</time></trkpt><trkpt lat="42.25908843681654" lon="13.251403090687395"><ele>1271.6</ele><time>2026-04-27T13:36:53.999Z</time></trkpt><trkpt lat="42.25919835990423" lon="13.251345347853881"><ele>1269.8</ele><time>2026-04-27T13:36:54.999Z</time></trkpt><trkpt lat="42.25931914644755" lon="13.251319043288346"><ele>1268.0</ele><time>2026-04-27T13:36:55.999Z</time></trkpt><trkpt lat="42.25941225345172" lon="13.251297117704727"><ele>1268.0</ele><time>2026-04-27T13:36:56.999Z</time></trkpt><trkpt lat="42.25950031394241" lon="13.251222716234194"><ele>1268.0</ele><time>2026-04-27T13:36:57.999Z</time></trkpt><trkpt lat="42.25958467694301" lon="13.25113606276873"><ele>1268.0</ele><time>2026-04-27T13:36:58.999Z</time></trkpt><trkpt lat="42.25965176972095" lon="13.251035191930853"><ele>1268.0</ele><time>2026-04-27T13:36:59.999Z</time></trkpt><trkpt lat="42.25969882242064" lon="13.250914615013558"><ele>1268.0</ele><time>2026-04-27T13:37:00.999Z</time></trkpt><trkpt lat="42.259739641659706" lon="13.250758752388391"><ele>1269.0</ele><time>2026-04-27T13:37:01.999Z</time></trkpt><trkpt lat="42.25980184932882" lon="13.250599808453016"><ele>1270.0</ele><time>2026-04-27T13:37:02.999Z</time></trkpt><trkpt lat="42.25985488642784" lon="13.250437454294563"><ele>1271.0</ele><time>2026-04-27T13:37:03.999Z</time></trkpt><trkpt lat="42.25988585084067" lon="13.250277429707447"><ele>1272.0</ele><time>2026-04-27T13:37:04.999Z</time></trkpt><trkpt lat="42.259899470831726" lon="13.25011911822292"><ele>1272.0</ele><time>2026-04-27T13:37:05.999Z</time></trkpt><trkpt lat="42.25989763138311" lon="13.24995607538417"><ele>1272.0</ele><time>2026-04-27T13:37:06.999Z</time></trkpt><trkpt lat="42.25990631205633" lon="13.249797619292782"><ele>1272.0</ele><time>2026-04-27T13:37:07.999Z</time></trkpt><trkpt lat="42.25994080796194" lon="13.249640846678721"><ele>1272.0</ele><time>2026-04-27T13:37:08.999Z</time></trkpt><trkpt lat="42.25999401291962" lon="13.249470538247909"><ele>1270.0</ele><time>2026-04-27T13:37:09.999Z</time></trkpt><trkpt lat="42.26005132107581" lon="13.249294837371313"><ele>1268.0</ele><time>2026-04-27T13:37:10.999Z</time></trkpt><trkpt lat="42.26009345075312" lon="13.24910566110336"><ele>1266.0</ele><time>2026-04-27T13:37:11.999Z</time></trkpt><trkpt lat="42.26012902290287" lon="13.248906096680644"><ele>1264.0</ele><time>2026-04-27T13:37:12.999Z</time></trkpt><trkpt lat="42.26016204551179" lon="13.24870335618538"><ele>1262.75</ele><time>2026-04-27T13:37:13.999Z</time></trkpt><trkpt lat="42.260196566994864" lon="13.248496435273799"><ele>1261.5</ele><time>2026-04-27T13:37:14.999Z</time></trkpt><trkpt lat="42.26022635342495" lon="13.248312037372688"><ele>1260.25</ele><time>2026-04-27T13:37:15.999Z</time></trkpt><trkpt lat="42.26024671999644" lon="13.248133544940789"><ele>1259.0</ele><time>2026-04-27T13:37:16.999Z</time></trkpt><trkpt lat="42.26026944796919" lon="13.247949148023128"><ele>1257.8</ele><time>2026-04-27T13:37:17.999Z</time></trkpt><trkpt lat="42.2602965298605" lon="13.247769277766595"><ele>1256.6000000000001</ele><time>2026-04-27T13:37:18.999Z</time></trkpt><trkpt lat="42.260331042058404" lon="13.247606603183419"><ele>1255.4</ele><time>2026-04-27T13:37:19.999Z</time></trkpt><trkpt lat="42.260359176750384" lon="13.247461599318198"><ele>1254.2</ele><time>2026-04-27T13:37:20.999Z</time></trkpt><trkpt lat="42.26036975790879" lon="13.247360233894517"><ele>1253.0</ele><time>2026-04-27T13:37:21.999Z</time></trkpt><trkpt lat="42.26040397493749" lon="13.247280463026456"><ele>1253.0</ele><time>2026-04-27T13:37:22.999Z</time></trkpt><trkpt lat="42.26048316705165" lon="13.247165353029256"><ele>1253.0</ele><time>2026-04-27T13:37:23.999Z</time></trkpt><trkpt lat="42.260601125087184" lon="13.247036267541235"><ele>1253.0</ele><time>2026-04-27T13:37:24.999Z</time></trkpt><trkpt lat="42.2607011093081" lon="13.246894576294808"><ele>1253.0</ele><time>2026-04-27T13:37:25.999Z</time></trkpt><trkpt lat="42.26078216908172" lon="13.246752018732982"><ele>1252.5</ele><time>2026-04-27T13:37:26.999Z</time></trkpt><trkpt lat="42.26085048830977" lon="13.24660864420352"><ele>1252.0</ele><time>2026-04-27T13:37:27.999Z</time></trkpt><trkpt lat="42.26092501185863" lon="13.246445539374813"><ele>1251.5</ele><time>2026-04-27T13:37:28.999Z</time></trkpt><trkpt lat="42.26100195624476" lon="13.24631239369243"><ele>1251.0</ele><time>2026-04-27T13:37:29.999Z</time></trkpt><trkpt lat="42.261069777457514" lon="13.246156191372549"><ele>1251.0</ele><time>2026-04-27T13:37:30.999Z</time></trkpt><trkpt lat="42.26115047584731" lon="13.245989825040514"><ele>1251.0</ele><time>2026-04-27T13:37:31.999Z</time></trkpt><trkpt lat="42.26124460319932" lon="13.245834762748615"><ele>1251.0</ele><time>2026-04-27T13:37:32.999Z</time></trkpt><trkpt lat="42.26134565454553" lon="13.245645117808383"><ele>1252.3333333333333</ele><time>2026-04-27T13:37:33.999Z</time></trkpt><trkpt lat="42.26142394529666" lon="13.245485595916666"><ele>1253.6666666666665</ele><time>2026-04-27T13:37:34.999Z</time></trkpt><trkpt lat="42.26150978619361" lon="13.245291459877611"><ele>1255.0</ele><time>2026-04-27T13:37:35.999Z</time></trkpt><trkpt lat="42.261598114520844" lon="13.24510840747963"><ele>1255.0</ele><time>2026-04-27T13:37:36.999Z</time></trkpt><trkpt lat="42.261659731911074" lon="13.244939937416966"><ele>1255.0</ele><time>2026-04-27T13:37:37.999Z</time></trkpt><trkpt lat="42.26171456840655" lon="13.244777376849916"><ele>1255.0</ele><time>2026-04-27T13:37:38.999Z</time></trkpt><trkpt lat="42.26174771884888" lon="13.244602816736721"><ele>1255.0</ele><time>2026-04-27T13:37:39.999Z</time></trkpt><trkpt lat="42.26175486567894" lon="13.244444805981317"><ele>1254.5</ele><time>2026-04-27T13:37:40.999Z</time></trkpt><trkpt lat="42.261738531755114" lon="13.244294461844303"><ele>1254.0</ele><time>2026-04-27T13:37:41.999Z</time></trkpt><trkpt lat="42.26170331326522" lon="13.244149214186164"><ele>1253.5</ele><time>2026-04-27T13:37:42.999Z</time></trkpt><trkpt lat="42.26165668241231" lon="13.24400503169099"><ele>1253.0</ele><time>2026-04-27T13:37:43.999Z</time></trkpt><trkpt lat="42.26159595303439" lon="13.24387762900843"><ele>1253.0</ele><time>2026-04-27T13:37:44.999Z</time></trkpt><trkpt lat="42.26151124723719" lon="13.243765762933878"><ele>1253.0</ele><time>2026-04-27T13:37:45.999Z</time></trkpt><trkpt lat="42.261399537026286" lon="13.243650058292937"><ele>1253.0</ele><time>2026-04-27T13:37:46.999Z</time></trkpt><trkpt lat="42.26127540146118" lon="13.243548841670446"><ele>1253.0</ele><time>2026-04-27T13:37:47.999Z</time></trkpt><trkpt lat="42.26116006630897" lon="13.24345398967007"><ele>1253.0</ele><time>2026-04-27T13:37:48.999Z</time></trkpt><trkpt lat="42.26106870247267" lon="13.243366341092743"><ele>1253.0</ele><time>2026-04-27T13:37:49.999Z</time></trkpt><trkpt lat="42.26097873918321" lon="13.24327980316937"><ele>1253.0</ele><time>2026-04-27T13:37:50.999Z</time></trkpt><trkpt lat="42.26089629448444" lon="13.243198110106198"><ele>1253.0</ele><time>2026-04-27T13:37:51.999Z</time></trkpt><trkpt lat="42.26083872392018" lon="13.243107573649041"><ele>1253.0</ele><time>2026-04-27T13:37:52.999Z</time></trkpt><trkpt lat="42.260791324969695" lon="13.242983835308369"><ele>1253.0</ele><time>2026-04-27T13:37:53.999Z</time></trkpt><trkpt lat="42.26077779654635" lon="13.24284104175559"><ele>1253.0</ele><time>2026-04-27T13:37:54.999Z</time></trkpt><trkpt lat="42.26078514076555" lon="13.24267193455062"><ele>1253.0</ele><time>2026-04-27T13:37:55.999Z</time></trkpt><trkpt lat="42.26077811567124" lon="13.242464955747751"><ele>1253.0</ele><time>2026-04-27T13:37:56.999Z</time></trkpt><trkpt lat="42.26074250597633" lon="13.242280219331787"><ele>1252.5</ele><time>2026-04-27T13:37:57.999Z</time></trkpt><trkpt lat="42.26068754513961" lon="13.242119937907637"><ele>1252.0</ele><time>2026-04-27T13:37:58.999Z</time></trkpt><trkpt lat="42.260624372085765" lon="13.241970151493671"><ele>1251.5</ele><time>2026-04-27T13:37:59.999Z</time></trkpt><trkpt lat="42.26058193084102" lon="13.24183020716844"><ele>1251.0</ele><time>2026-04-27T13:38:00.999Z</time></trkpt><trkpt lat="42.26055706133497" lon="13.241676771597795"><ele>1249.0</ele><time>2026-04-27T13:38:01.999Z</time></trkpt><trkpt lat="42.260556892319926" lon="13.241516551515982"><ele>1247.0</ele><time>2026-04-27T13:38:02.999Z</time></trkpt><trkpt lat="42.26057652170515" lon="13.241330884558568"><ele>1245.0</ele><time>2026-04-27T13:38:03.999Z</time></trkpt><trkpt lat="42.26060425701948" lon="13.241170313584595"><ele>1243.0</ele><time>2026-04-27T13:38:04.999Z</time></trkpt><trkpt lat="42.26062932532525" lon="13.241054063097685"><ele>1243.0</ele><time>2026-04-27T13:38:05.999Z</time></trkpt><trkpt lat="42.260670732564016" lon="13.240966419349963"><ele>1243.0</ele><time>2026-04-27T13:38:06.999Z</time></trkpt><trkpt lat="42.2607258933479" lon="13.240893801209998"><ele>1243.0</ele><time>2026-04-27T13:38:07.999Z</time></trkpt><trkpt lat="42.260803599671355" lon="13.240841423565385"><ele>1243.0</ele><time>2026-04-27T13:38:08.999Z</time></trkpt><trkpt lat="42.26091542677206" lon="13.240789181603937"><ele>1243.0</ele><time>2026-04-27T13:38:09.999Z</time></trkpt><trkpt lat="42.26105985287454" lon="13.240715147186563"><ele>1241.25</ele><time>2026-04-27T13:38:10.999Z</time></trkpt><trkpt lat="42.261203657395846" lon="13.240624899028958"><ele>1239.5</ele><time>2026-04-27T13:38:11.999Z</time></trkpt><trkpt lat="42.26133711193591" lon="13.240539844125948"><ele>1237.75</ele><time>2026-04-27T13:38:12.999Z</time></trkpt><trkpt lat="42.26145032604155" lon="13.240458407531596"><ele>1236.0</ele><time>2026-04-27T13:38:13.999Z</time></trkpt><trkpt lat="42.261556634977445" lon="13.240374966263984"><ele>1236.0</ele><time>2026-04-27T13:38:14.999Z</time></trkpt><trkpt lat="42.261646144984404" lon="13.240281817690143"><ele>1236.0</ele><time>2026-04-27T13:38:15.999Z</time></trkpt><trkpt lat="42.261726657210524" lon="13.240183520792005"><ele>1236.0</ele><time>2026-04-27T13:38:16.999Z</time></trkpt><trkpt lat="42.261809528664905" lon="13.2400885352746"><ele>1236.0</ele><time>2026-04-27T13:38:17.999Z</time></trkpt><trkpt lat="42.26189132563139" lon="13.240026026401518"><ele>1236.0</ele><time>2026-04-27T13:38:18.999Z</time></trkpt><trkpt lat="42.2619811779368" lon="13.239968164900288"><ele>1236.0</ele><time>2026-04-27T13:38:19.999Z</time></trkpt><trkpt lat="42.26209487517623" lon="13.23990733882319"><ele>1236.0</ele><time>2026-04-27T13:38:20.999Z</time></trkpt><trkpt lat="42.26223243264263" lon="13.239858840646995"><ele>1236.0</ele><time>2026-04-27T13:38:21.999Z</time></trkpt><trkpt lat="42.2623744461905" lon="13.239817737704831"><ele>1236.0</ele><time>2026-04-27T13:38:22.999Z</time></trkpt><trkpt lat="42.262506684747756" lon="13.239788404622004"><ele>1231.0</ele><time>2026-04-27T13:38:23.999Z</time></trkpt><trkpt lat="42.26262265600598" lon="13.239765375091913"><ele>1226.0</ele><time>2026-04-27T13:38:24.999Z</time></trkpt><trkpt lat="42.262740299965046" lon="13.239756695560176"><ele>1221.0</ele><time>2026-04-27T13:38:25.999Z</time></trkpt><trkpt lat="42.26285517522395" lon="13.23975293012693"><ele>1216.0</ele><time>2026-04-27T13:38:26.999Z</time></trkpt><trkpt lat="42.26295509689785" lon="13.239752323335267"><ele>1216.0</ele><time>2026-04-27T13:38:27.999Z</time></trkpt><trkpt lat="42.26305539679943" lon="13.239734449734268"><ele>1216.0</ele><time>2026-04-27T13:38:28.999Z</time></trkpt><trkpt lat="42.2631421985675" lon="13.239680748902945"><ele>1216.0</ele><time>2026-04-27T13:38:29.999Z</time></trkpt><trkpt lat="42.26320313353496" lon="13.239591178920335"><ele>1216.0</ele><time>2026-04-27T13:38:30.999Z</time></trkpt><trkpt lat="42.26323727649289" lon="13.239492390715167"><ele>1216.0</ele><time>2026-04-27T13:38:31.999Z</time></trkpt><trkpt lat="42.26325018440339" lon="13.239357622880826"><ele>1215.75</ele><time>2026-04-27T13:38:32.999Z</time></trkpt><trkpt lat="42.26325219411188" lon="13.239208724098637"><ele>1215.5</ele><time>2026-04-27T13:38:33.999Z</time></trkpt><trkpt lat="42.26325243655356" lon="13.239043472913337"><ele>1215.25</ele><time>2026-04-27T13:38:34.999Z</time></trkpt><trkpt lat="42.26325439482704" lon="13.23887073986268"><ele>1215.0</ele><time>2026-04-27T13:38:35.999Z</time></trkpt><trkpt lat="42.2632651991411" lon="13.238695554189258"><ele>1215.0</ele><time>2026-04-27T13:38:36.999Z</time></trkpt><trkpt lat="42.26328604736154" lon="13.238544712980202"><ele>1215.0</ele><time>2026-04-27T13:38:37.999Z</time></trkpt><trkpt lat="42.26332528286341" lon="13.23841539547159"><ele>1215.0</ele><time>2026-04-27T13:38:38.999Z</time></trkpt><trkpt lat="42.26337419857853" lon="13.238323306971939"><ele>1215.0</ele><time>2026-04-27T13:38:39.999Z</time></trkpt><trkpt lat="42.263440731868215" lon="13.23821016619444"><ele>1215.0</ele><time>2026-04-27T13:38:40.999Z</time></trkpt><trkpt lat="42.2635286614655" lon="13.238079450494398"><ele>1213.6</ele><time>2026-04-27T13:38:41.999Z</time></trkpt><trkpt lat="42.263603685714855" lon="13.237947047176673"><ele>1212.2</ele><time>2026-04-27T13:38:42.999Z</time></trkpt><trkpt lat="42.26367199293423" lon="13.2378468887562"><ele>1210.8</ele><time>2026-04-27T13:38:43.999Z</time></trkpt><trkpt lat="42.263728149698835" lon="13.237770910620359"><ele>1209.4</ele><time>2026-04-27T13:38:44.999Z</time></trkpt><trkpt lat="42.26379482474029" lon="13.237708213974296"><ele>1208.0</ele><time>2026-04-27T13:38:45.999Z</time></trkpt><trkpt lat="42.26387353843468" lon="13.237660470563604"><ele>1208.8</ele><time>2026-04-27T13:38:46.999Z</time></trkpt><trkpt lat="42.26397899049105" lon="13.23760905429228"><ele>1209.6</ele><time>2026-04-27T13:38:47.999Z</time></trkpt><trkpt lat="42.2640753009112" lon="13.237557680286981"><ele>1210.4</ele><time>2026-04-27T13:38:48.999Z</time></trkpt><trkpt lat="42.26416787668054" lon="13.237490668734024"><ele>1211.2</ele><time>2026-04-27T13:38:49.999Z</time></trkpt><trkpt lat="42.26427587048253" lon="13.237424390548313"><ele>1212.0</ele><time>2026-04-27T13:38:50.999Z</time></trkpt><trkpt lat="42.264395981665366" lon="13.237377991720443"><ele>1212.0</ele><time>2026-04-27T13:38:51.999Z</time></trkpt><trkpt lat="42.26450471234783" lon="13.23736447890325"><ele>1212.0</ele><time>2026-04-27T13:38:52.999Z</time></trkpt><trkpt lat="42.264598378700086" lon="13.237386033159499"><ele>1212.0</ele><time>2026-04-27T13:38:53.999Z</time></trkpt><trkpt lat="42.26467130255262" lon="13.237436618635348"><ele>1212.0</ele><time>2026-04-27T13:38:54.999Z</time></trkpt><trkpt lat="42.26473727514305" lon="13.237504294473469"><ele>1212.0</ele><time>2026-04-27T13:38:55.999Z</time></trkpt><trkpt lat="42.26480407690155" lon="13.237591556352216"><ele>1212.6</ele><time>2026-04-27T13:38:56.999Z</time></trkpt><trkpt lat="42.264871374556435" lon="13.237697895055373"><ele>1213.2</ele><time>2026-04-27T13:38:57.999Z</time></trkpt><trkpt lat="42.2649406270046" lon="13.23779887535696"><ele>1213.8</ele><time>2026-04-27T13:38:58.999Z</time></trkpt><trkpt lat="42.26502596457035" lon="13.237890313262453"><ele>1214.4</ele><time>2026-04-27T13:38:59.999Z</time></trkpt><trkpt lat="42.26512582609472" lon="13.23797254671557"><ele>1215.0</ele><time>2026-04-27T13:39:00.999Z</time></trkpt><trkpt lat="42.26521577105769" lon="13.238056351657548"><ele>1213.0</ele><time>2026-04-27T13:39:01.999Z</time></trkpt><trkpt lat="42.26528673488557" lon="13.238161366702984"><ele>1211.0</ele><time>2026-04-27T13:39:02.999Z</time></trkpt><trkpt lat="42.265344521081055" lon="13.238306371872042"><ele>1209.0</ele><time>2026-04-27T13:39:04Z</time></trkpt><trkpt lat="42.26539721689176" lon="13.238462685945398"><ele>1207.0</ele><time>2026-04-27T13:39:05Z</time></trkpt><trkpt lat="42.26546368660784" lon="13.238615675164064"><ele>1207.0</ele><time>2026-04-27T13:39:06Z</time></trkpt><trkpt lat="42.26553871988346" lon="13.238759860820144"><ele>1207.0</ele><time>2026-04-27T13:39:07Z</time></trkpt><trkpt lat="42.2656083724305" lon="13.238891733302257"><ele>1207.0</ele><time>2026-04-27T13:39:08Z</time></trkpt><trkpt lat="42.26566591091868" lon="13.239021509317412"><ele>1207.0</ele><time>2026-04-27T13:39:09Z</time></trkpt><trkpt lat="42.265722206266574" lon="13.239155874202307"><ele>1206.2</ele><time>2026-04-27T13:39:10Z</time></trkpt><trkpt lat="42.265769533869495" lon="13.23928167140725"><ele>1205.4</ele><time>2026-04-27T13:39:11Z</time></trkpt><trkpt lat="42.265797167971314" lon="13.239414231238618"><ele>1204.6</ele><time>2026-04-27T13:39:12Z</time></trkpt><trkpt lat="42.26582733052888" lon="13.239533150609857"><ele>1203.8</ele><time>2026-04-27T13:39:13Z</time></trkpt><trkpt lat="42.265873602248256" lon="13.239649599548976"><ele>1203.0</ele><time>2026-04-27T13:39:14Z</time></trkpt><trkpt lat="42.26593267093572" lon="13.239747293919038"><ele>1201.4</ele><time>2026-04-27T13:39:15Z</time></trkpt><trkpt lat="42.26599993547302" lon="13.239843707980562"><ele>1199.8</ele><time>2026-04-27T13:39:16Z</time></trkpt><trkpt lat="42.26606969821919" lon="13.239939729598195"><ele>1198.2</ele><time>2026-04-27T13:39:17Z</time></trkpt><trkpt lat="42.26614209269831" lon="13.240034502327362"><ele>1196.6</ele><time>2026-04-27T13:39:18Z</time></trkpt><trkpt lat="42.266216621000815" lon="13.240132532492321"><ele>1195.0</ele><time>2026-04-27T13:39:19Z</time></trkpt><trkpt lat="42.26628928794611" lon="13.240237119217374"><ele>1195.0</ele><time>2026-04-27T13:39:20Z</time></trkpt><trkpt lat="42.26636748168973" lon="13.240339784678435"><ele>1195.0</ele><time>2026-04-27T13:39:21Z</time></trkpt><trkpt lat="42.2664477972596" lon="13.240424449855508"><ele>1195.0</ele><time>2026-04-27T13:39:22Z</time></trkpt><trkpt lat="42.26653447998299" lon="13.240496920331443"><ele>1195.0</ele><time>2026-04-27T13:39:23Z</time></trkpt><trkpt lat="42.26663132396117" lon="13.24056033203906"><ele>1195.0</ele><time>2026-04-27T13:39:24Z</time></trkpt><trkpt lat="42.26671727438296" lon="13.240607152435919"><ele>1193.0</ele><time>2026-04-27T13:39:25Z</time></trkpt><trkpt lat="42.26680743071045" lon="13.24065937071703"><ele>1191.0</ele><time>2026-04-27T13:39:26Z</time></trkpt><trkpt lat="42.266907028533616" lon="13.2407151124709"><ele>1189.0</ele><time>2026-04-27T13:39:27Z</time></trkpt><trkpt lat="42.267002567501414" lon="13.240760316553882"><ele>1187.0</ele><time>2026-04-27T13:39:28Z</time></trkpt><trkpt lat="42.26710054533996" lon="13.240801042450997"><ele>1185.0</ele><time>2026-04-27T13:39:29Z</time></trkpt><trkpt lat="42.26720089701473" lon="13.24083093829159"><ele>1184.75</ele><time>2026-04-27T13:39:30Z</time></trkpt><trkpt lat="42.26730665936089" lon="13.240856908029084"><ele>1184.5</ele><time>2026-04-27T13:39:31Z</time></trkpt><trkpt lat="42.26742619980361" lon="13.240899755721342"><ele>1184.25</ele><time>2026-04-27T13:39:32Z</time></trkpt><trkpt lat="42.267558392203924" lon="13.24095238278468"><ele>1184.0</ele><time>2026-04-27T13:39:33Z</time></trkpt><trkpt lat="42.26768102510022" lon="13.241020194601578"><ele>1184.0</ele><time>2026-04-27T13:39:34Z</time></trkpt><trkpt lat="42.26779761168113" lon="13.24111397601421"><ele>1184.0</ele><time>2026-04-27T13:39:35Z</time></trkpt><trkpt lat="42.26787998600035" lon="13.241193299081292"><ele>1184.0</ele><time>2026-04-27T13:39:36Z</time></trkpt><trkpt lat="42.26793456043429" lon="13.241273388796008"><ele>1184.0</ele><time>2026-04-27T13:39:37Z</time></trkpt><trkpt lat="42.267962083770065" lon="13.241388718873209"><ele>1184.0</ele><time>2026-04-27T13:39:38Z</time></trkpt><trkpt lat="42.26796049165555" lon="13.241532811519784"><ele>1183.0</ele><time>2026-04-27T13:39:39Z</time></trkpt><trkpt lat="42.26794578774822" lon="13.241710708096127"><ele>1182.0</ele><time>2026-04-27T13:39:40Z</time></trkpt><trkpt lat="42.26794210972068" lon="13.241901757570824"><ele>1181.0</ele><time>2026-04-27T13:39:41Z</time></trkpt><trkpt lat="42.267953818673874" lon="13.24208368359892"><ele>1180.0</ele><time>2026-04-27T13:39:42Z</time></trkpt><trkpt lat="42.267983548356696" lon="13.242243041972975"><ele>1179.75</ele><time>2026-04-27T13:39:43Z</time></trkpt><trkpt lat="42.26801753754005" lon="13.242396963417503"><ele>1179.5</ele><time>2026-04-27T13:39:44Z</time></trkpt><trkpt lat="42.26805284436839" lon="13.242550053321212"><ele>1179.25</ele><time>2026-04-27T13:39:45Z</time></trkpt><trkpt lat="42.268097046580486" lon="13.242689003636716"><ele>1179.0</ele><time>2026-04-27T13:39:46Z</time></trkpt><trkpt lat="42.26814801365037" lon="13.242814096193339"><ele>1179.0</ele><time>2026-04-27T13:39:47Z</time></trkpt><trkpt lat="42.268206639824754" lon="13.242920444003598"><ele>1179.0</ele><time>2026-04-27T13:39:48Z</time></trkpt><trkpt lat="42.26826556191984" lon="13.242990858173668"><ele>1179.0</ele><time>2026-04-27T13:39:49Z</time></trkpt><trkpt lat="42.26833368275285" lon="13.243022727714473"><ele>1179.0</ele><time>2026-04-27T13:39:50Z</time></trkpt><trkpt lat="42.268428679502506" lon="13.243029826506215"><ele>1179.0</ele><time>2026-04-27T13:39:51Z</time></trkpt><trkpt lat="42.268530291815374" lon="13.243021677217989"><ele>1179.0</ele><time>2026-04-27T13:39:52Z</time></trkpt><trkpt lat="42.26864050597042" lon="13.243013984277415"><ele>1179.0</ele><time>2026-04-27T13:39:53Z</time></trkpt><trkpt lat="42.26875909596645" lon="13.243013862656493"><ele>1179.0</ele><time>2026-04-27T13:39:54Z</time></trkpt><trkpt lat="42.2688748508912" lon="13.243036327571943"><ele>1179.0</ele><time>2026-04-27T13:39:55Z</time></trkpt><trkpt lat="42.2689954601303" lon="13.243088721996195"><ele>1179.0</ele><time>2026-04-27T13:39:56Z</time></trkpt><trkpt lat="42.26911557754415" lon="13.243151243197428"><ele>1181.0</ele><time>2026-04-27T13:39:57Z</time></trkpt><trkpt lat="42.269233101826345" lon="13.24322116000085"><ele>1183.0</ele><time>2026-04-27T13:39:58Z</time></trkpt><trkpt lat="42.26934654463141" lon="13.243285264991329"><ele>1185.0</ele><time>2026-04-27T13:39:59Z</time></trkpt><trkpt lat="42.269470695833775" lon="13.2433261181989"><ele>1187.0</ele><time>2026-04-27T13:40:00Z</time></trkpt><trkpt lat="42.269589966938405" lon="13.243350119008392"><ele>1187.0</ele><time>2026-04-27T13:40:01Z</time></trkpt><trkpt lat="42.26970062514141" lon="13.243378983160413"><ele>1187.0</ele><time>2026-04-27T13:40:02Z</time></trkpt><trkpt lat="42.26980066938528" lon="13.243377839975905"><ele>1187.0</ele><time>2026-04-27T13:40:03Z</time></trkpt><trkpt lat="42.26989984419272" lon="13.243349382885118"><ele>1187.0</ele><time>2026-04-27T13:40:04Z</time></trkpt><trkpt lat="42.2700085033846" lon="13.243296141445594"><ele>1187.0</ele><time>2026-04-27T13:40:05Z</time></trkpt><trkpt lat="42.270101308913105" lon="13.243226132605407"><ele>1189.0</ele><time>2026-04-27T13:40:06Z</time></trkpt><trkpt lat="42.270188183832744" lon="13.24312902223504"><ele>1191.0</ele><time>2026-04-27T13:40:07Z</time></trkpt><trkpt lat="42.27028051164412" lon="13.243001675628191"><ele>1193.0</ele><time>2026-04-27T13:40:08Z</time></trkpt><trkpt lat="42.27037003967564" lon="13.242894747314407"><ele>1195.0</ele><time>2026-04-27T13:40:09Z</time></trkpt><trkpt lat="42.27045446803763" lon="13.242825861657407"><ele>1195.0</ele><time>2026-04-27T13:40:10Z</time></trkpt><trkpt lat="42.27053386056987" lon="13.242782529505225"><ele>1195.0</ele><time>2026-04-27T13:40:11Z</time></trkpt><trkpt lat="42.270599821525686" lon="13.242745563936253"><ele>1195.0</ele><time>2026-04-27T13:40:12Z</time></trkpt><trkpt lat="42.270679909864725" lon="13.24271384432911"><ele>1195.0</ele><time>2026-04-27T13:40:13Z</time></trkpt><trkpt lat="42.27076035315612" lon="13.242653048432535"><ele>1195.0</ele><time>2026-04-27T13:40:14Z</time></trkpt><trkpt lat="42.2708605907305" lon="13.242587081890397"><ele>1195.0</ele><time>2026-04-27T13:40:15Z</time></trkpt><trkpt lat="42.270972672371755" lon="13.242508901732986"><ele>1196.0</ele><time>2026-04-27T13:40:16Z</time></trkpt><trkpt lat="42.27110125510008" lon="13.242413667512082"><ele>1197.0</ele><time>2026-04-27T13:40:17Z</time></trkpt><trkpt lat="42.27123243561241" lon="13.242330013131621"><ele>1198.0</ele><time>2026-04-27T13:40:18Z</time></trkpt><trkpt lat="42.27135966686119" lon="13.242248915038852"><ele>1199.0</ele><time>2026-04-27T13:40:19Z</time></trkpt><trkpt lat="42.271472986009464" lon="13.242179598232369"><ele>1196.0</ele><time>2026-04-27T13:40:20Z</time></trkpt><trkpt lat="42.27157479420649" lon="13.24210534014841"><ele>1193.0</ele><time>2026-04-27T13:40:21Z</time></trkpt><trkpt lat="42.27166664847926" lon="13.242022135968945"><ele>1190.0</ele><time>2026-04-27T13:40:22Z</time></trkpt><trkpt lat="42.27175443857377" lon="13.241911526459422"><ele>1187.0</ele><time>2026-04-27T13:40:23Z</time></trkpt><trkpt lat="42.271851792838625" lon="13.24178543835178"><ele>1187.0</ele><time>2026-04-27T13:40:24Z</time></trkpt><trkpt lat="42.27194183746163" lon="13.24168868370135"><ele>1187.0</ele><time>2026-04-27T13:40:25Z</time></trkpt><trkpt lat="42.27203454664433" lon="13.241591769766924"><ele>1187.0</ele><time>2026-04-27T13:40:26Z</time></trkpt><trkpt lat="42.27211036567276" lon="13.241540065899978"><ele>1187.0</ele><time>2026-04-27T13:40:27Z</time></trkpt><trkpt lat="42.27220643447323" lon="13.24152011173003"><ele>1187.0</ele><time>2026-04-27T13:40:28Z</time></trkpt><trkpt lat="42.27232341950548" lon="13.241505142336685"><ele>1185.75</ele><time>2026-04-27T13:40:29Z</time></trkpt><trkpt lat="42.27244170439528" lon="13.241516207121943"><ele>1184.5</ele><time>2026-04-27T13:40:30Z</time></trkpt><trkpt lat="42.27257141298779" lon="13.241559554807113"><ele>1183.25</ele><time>2026-04-27T13:40:31Z</time></trkpt><trkpt lat="42.272711753262506" lon="13.24160165329196"><ele>1182.0</ele><time>2026-04-27T13:40:32Z</time></trkpt><trkpt lat="42.27286849234462" lon="13.241646213568659"><ele>1182.0</ele><time>2026-04-27T13:40:33Z</time></trkpt><trkpt lat="42.27300953618177" lon="13.241673612608713"><ele>1182.0</ele><time>2026-04-27T13:40:34Z</time></trkpt><trkpt lat="42.27315953518634" lon="13.241691335975348"><ele>1182.0</ele><time>2026-04-27T13:40:35Z</time></trkpt><trkpt lat="42.27329998952888" lon="13.241695099281866"><ele>1182.0</ele><time>2026-04-27T13:40:36Z</time></trkpt><trkpt lat="42.273411552757544" lon="13.241697857984867"><ele>1181.4</ele><time>2026-04-27T13:40:37Z</time></trkpt><trkpt lat="42.273500073297264" lon="13.241712564559455"><ele>1180.8000000000002</ele><time>2026-04-27T13:40:38Z</time></trkpt><trkpt lat="42.273574458657045" lon="13.241749521625191"><ele>1180.2</ele><time>2026-04-27T13:40:39Z</time></trkpt><trkpt lat="42.273647079463856" lon="13.241827470757753"><ele>1179.6000000000001</ele><time>2026-04-27T13:40:40Z</time></trkpt><trkpt lat="42.27372843015484" lon="13.241938536847838"><ele>1179.0</ele><time>2026-04-27T13:40:40.999Z</time></trkpt><trkpt lat="42.273822670623034" lon="13.242061925033411"><ele>1179.6000000000001</ele><time>2026-04-27T13:40:41.999Z</time></trkpt><trkpt lat="42.27393967636493" lon="13.242165933458537"><ele>1180.2</ele><time>2026-04-27T13:40:42.999Z</time></trkpt><trkpt lat="42.27404188428873" lon="13.242250214079275"><ele>1180.8000000000002</ele><time>2026-04-27T13:40:43.999Z</time></trkpt><trkpt lat="42.27412705430392" lon="13.24231762194325"><ele>1181.4</ele><time>2026-04-27T13:40:44.999Z</time></trkpt><trkpt lat="42.274185808754616" lon="13.242377044649404"><ele>1182.0</ele><time>2026-04-27T13:40:45.999Z</time></trkpt><trkpt lat="42.274229366472255" lon="13.242498625079463"><ele>1183.6</ele><time>2026-04-27T13:40:47.999Z</time></trkpt><trkpt lat="42.27423592781807" lon="13.242617712583108"><ele>1185.2</ele><time>2026-04-27T13:40:48.999Z</time></trkpt><trkpt lat="42.274222907376625" lon="13.242734127251014"><ele>1186.8</ele><time>2026-04-27T13:40:49.999Z</time></trkpt><trkpt lat="42.274220620464476" lon="13.24285686976265"><ele>1188.4</ele><time>2026-04-27T13:40:50.999Z</time></trkpt><trkpt lat="42.27423264772788" lon="13.242983724119046"><ele>1190.0</ele><time>2026-04-27T13:40:51.999Z</time></trkpt><trkpt lat="42.274256051300775" lon="13.243117130635222"><ele>1189.6</ele><time>2026-04-27T13:40:52.999Z</time></trkpt><trkpt lat="42.27430090731567" lon="13.243234301241872"><ele>1189.2</ele><time>2026-04-27T13:40:53.999Z</time></trkpt><trkpt lat="42.27436872573803" lon="13.243315301961056"><ele>1188.8</ele><time>2026-04-27T13:40:54.999Z</time></trkpt><trkpt lat="42.27444658184994" lon="13.243389173893322"><ele>1188.4</ele><time>2026-04-27T13:40:55.999Z</time></trkpt><trkpt lat="42.2745510672152" lon="13.243466058739866"><ele>1188.0</ele><time>2026-04-27T13:40:56.999Z</time></trkpt><trkpt lat="42.27466105182342" lon="13.243531620959445"><ele>1191.75</ele><time>2026-04-27T13:40:57.999Z</time></trkpt><trkpt lat="42.27478354316363" lon="13.243611715384969"><ele>1195.5</ele><time>2026-04-27T13:40:58.999Z</time></trkpt><trkpt lat="42.27489959323129" lon="13.243705677857871"><ele>1199.25</ele><time>2026-04-27T13:40:59.999Z</time></trkpt><trkpt lat="42.275022592301504" lon="13.243807944504574"><ele>1203.0</ele><time>2026-04-27T13:41:00.999Z</time></trkpt><trkpt lat="42.2751587949367" lon="13.243913031691738"><ele>1202.0</ele><time>2026-04-27T13:41:01.999Z</time></trkpt><trkpt lat="42.27529552042312" lon="13.244019258790882"><ele>1201.0</ele><time>2026-04-27T13:41:02.999Z</time></trkpt><trkpt lat="42.275442556846095" lon="13.244128636863223"><ele>1200.0</ele><time>2026-04-27T13:41:03.999Z</time></trkpt><trkpt lat="42.27555984615927" lon="13.244204828415446"><ele>1202.25</ele><time>2026-04-27T13:41:04.999Z</time></trkpt><trkpt lat="42.275656620096065" lon="13.244291428013288"><ele>1204.5</ele><time>2026-04-27T13:41:05.999Z</time></trkpt><trkpt lat="42.275752112091986" lon="13.244394528633116"><ele>1206.75</ele><time>2026-04-27T13:41:06.999Z</time></trkpt><trkpt lat="42.27586318983185" lon="13.2444574174548"><ele>1209.0</ele><time>2026-04-27T13:41:07.999Z</time></trkpt><trkpt lat="42.27597202553945" lon="13.24449421765"><ele>1209.0</ele><time>2026-04-27T13:41:08.999Z</time></trkpt><trkpt lat="42.276084180954115" lon="13.244525494080534"><ele>1209.0</ele><time>2026-04-27T13:41:10Z</time></trkpt><trkpt lat="42.27619580291859" lon="13.244554178000174"><ele>1209.0</ele><time>2026-04-27T13:41:11Z</time></trkpt><trkpt lat="42.27628101252221" lon="13.244584091336051"><ele>1209.0</ele><time>2026-04-27T13:41:12Z</time></trkpt><trkpt lat="42.27635430396631" lon="13.244622853457852"><ele>1209.0</ele><time>2026-04-27T13:41:13Z</time></trkpt><trkpt lat="42.2764351074112" lon="13.24471099173111"><ele>1209.8</ele><time>2026-04-27T13:41:14Z</time></trkpt><trkpt lat="42.2765313928257" lon="13.244820562297464"><ele>1210.6000000000001</ele><time>2026-04-27T13:41:15Z</time></trkpt><trkpt lat="42.27662408431067" lon="13.244916224651767"><ele>1211.4</ele><time>2026-04-27T13:41:16Z</time></trkpt><trkpt lat="42.276705400752824" lon="13.245003607504687"><ele>1212.2</ele><time>2026-04-27T13:41:17Z</time></trkpt><trkpt lat="42.276782667401555" lon="13.245073636889812"><ele>1213.0</ele><time>2026-04-27T13:41:18Z</time></trkpt><trkpt lat="42.27688804468395" lon="13.245140567499112"><ele>1213.0</ele><time>2026-04-27T13:41:19Z</time></trkpt><trkpt lat="42.27701814644041" lon="13.245216816074482"><ele>1213.0</ele><time>2026-04-27T13:41:20Z</time></trkpt><trkpt lat="42.27714257196769" lon="13.245288219295297"><ele>1213.0</ele><time>2026-04-27T13:41:21Z</time></trkpt><trkpt lat="42.277230849904065" lon="13.245339399620946"><ele>1213.0</ele><time>2026-04-27T13:41:22Z</time></trkpt><trkpt lat="42.27728650930249" lon="13.245395872080481"><ele>1213.0</ele><time>2026-04-27T13:41:23Z</time></trkpt><trkpt lat="42.27733954640634" lon="13.245483038601346"><ele>1211.4</ele><time>2026-04-27T13:41:24Z</time></trkpt><trkpt lat="42.27739581811402" lon="13.245604856788477"><ele>1209.8</ele><time>2026-04-27T13:41:25Z</time></trkpt><trkpt lat="42.27743876161414" lon="13.245721570702695"><ele>1208.2</ele><time>2026-04-27T13:41:26Z</time></trkpt><trkpt lat="42.27749257819008" lon="13.245813376828846"><ele>1206.6</ele><time>2026-04-27T13:41:27.001Z</time></trkpt><trkpt lat="42.27757146870652" lon="13.245878850048628"><ele>1205.0</ele><time>2026-04-27T13:41:28.001Z</time></trkpt><trkpt lat="42.277657704124984" lon="13.245878383628142"><ele>1205.0</ele><time>2026-04-27T13:41:29.001Z</time></trkpt><trkpt lat="42.277772880511634" lon="13.245873530517281"><ele>1205.0</ele><time>2026-04-27T13:41:30.001Z</time></trkpt><trkpt lat="42.2779021365277" lon="13.245886950895521"><ele>1205.0</ele><time>2026-04-27T13:41:31.001Z</time></trkpt><trkpt lat="42.278054164346024" lon="13.245914738175735"><ele>1205.0</ele><time>2026-04-27T13:41:32.001Z</time></trkpt><trkpt lat="42.278201886484595" lon="13.245934278044096"><ele>1202.0</ele><time>2026-04-27T13:41:33.001Z</time></trkpt><trkpt lat="42.27833097370719" lon="13.245941629726323"><ele>1199.0</ele><time>2026-04-27T13:41:34.001Z</time></trkpt><trkpt lat="42.27844328214354" lon="13.245934649858325"><ele>1196.0</ele><time>2026-04-27T13:41:35.001Z</time></trkpt><trkpt lat="42.278550185101196" lon="13.24589400069127"><ele>1193.0</ele><time>2026-04-27T13:41:36.001Z</time></trkpt><trkpt lat="42.27866846558734" lon="13.245821229169357"><ele>1193.0</ele><time>2026-04-27T13:41:37.001Z</time></trkpt><trkpt lat="42.27879292793812" lon="13.245751996653361"><ele>1193.0</ele><time>2026-04-27T13:41:38.001Z</time></trkpt><trkpt lat="42.27892778172291" lon="13.245694040861753"><ele>1193.0</ele><time>2026-04-27T13:41:39.001Z</time></trkpt><trkpt lat="42.27907131792466" lon="13.245636897271064"><ele>1193.0</ele><time>2026-04-27T13:41:40.001Z</time></trkpt><trkpt lat="42.279228382168206" lon="13.245589767387367"><ele>1194.6666666666667</ele><time>2026-04-27T13:41:41.001Z</time></trkpt><trkpt lat="42.27937688480823" lon="13.245548064483788"><ele>1196.3333333333333</ele><time>2026-04-27T13:41:42.001Z</time></trkpt><trkpt lat="42.27952170178879" lon="13.2454880687023"><ele>1198.0</ele><time>2026-04-27T13:41:43.001Z</time></trkpt><trkpt lat="42.27966306064329" lon="13.245421839987664"><ele>1196.5</ele><time>2026-04-27T13:41:44.001Z</time></trkpt><trkpt lat="42.279785066425056" lon="13.24536671500482"><ele>1195.0</ele><time>2026-04-27T13:41:45.001Z</time></trkpt><trkpt lat="42.27990229421458" lon="13.24530670381787"><ele>1193.5</ele><time>2026-04-27T13:41:46.001Z</time></trkpt><trkpt lat="42.28002500184562" lon="13.245233296409566"><ele>1192.0</ele><time>2026-04-27T13:41:47.001Z</time></trkpt><trkpt lat="42.280157814122646" lon="13.24512494180564"><ele>1192.0</ele><time>2026-04-27T13:41:48.001Z</time></trkpt><trkpt lat="42.28029430393728" lon="13.245010762412404"><ele>1192.0</ele><time>2026-04-27T13:41:49.001Z</time></trkpt><trkpt lat="42.280430368950405" lon="13.244900670969454"><ele>1192.0</ele><time>2026-04-27T13:41:50.001Z</time></trkpt><trkpt lat="42.28056137020578" lon="13.244805861715587"><ele>1193.0</ele><time>2026-04-27T13:41:51.001Z</time></trkpt><trkpt lat="42.28070143445372" lon="13.244725229824443"><ele>1194.0</ele><time>2026-04-27T13:41:52.001Z</time></trkpt><trkpt lat="42.280845715367214" lon="13.24466866835282"><ele>1195.0</ele><time>2026-04-27T13:41:53.001Z</time></trkpt><trkpt lat="42.281010649181574" lon="13.244608193663138"><ele>1195.0</ele><time>2026-04-27T13:41:54.001Z</time></trkpt><trkpt lat="42.28113224711261" lon="13.244555162079857"><ele>1195.0</ele><time>2026-04-27T13:41:55.001Z</time></trkpt><trkpt lat="42.28122729504468" lon="13.24451582924735"><ele>1195.0</ele><time>2026-04-27T13:41:56.001Z</time></trkpt><trkpt lat="42.28130543385826" lon="13.244495244528023"><ele>1195.0</ele><time>2026-04-27T13:41:57.001Z</time></trkpt><trkpt lat="42.28139220959734" lon="13.244491811924666"><ele>1195.0</ele><time>2026-04-27T13:41:58.001Z</time></trkpt><trkpt lat="42.2814918718153" lon="13.244525698860501"><ele>1193.0</ele><time>2026-04-27T13:41:59.001Z</time></trkpt><trkpt lat="42.28161361319843" lon="13.244568646670603"><ele>1191.0</ele><time>2026-04-27T13:42:00.001Z</time></trkpt><trkpt lat="42.281741651274686" lon="13.244615887831237"><ele>1189.0</ele><time>2026-04-27T13:42:01.001Z</time></trkpt><trkpt lat="42.28187355747438" lon="13.244656758950178"><ele>1187.0</ele><time>2026-04-27T13:42:02.001Z</time></trkpt><trkpt lat="42.28198807556368" lon="13.244694793791735"><ele>1187.0</ele><time>2026-04-27T13:42:03.001Z</time></trkpt><trkpt lat="42.282085586635496" lon="13.244715007359547"><ele>1187.0</ele><time>2026-04-27T13:42:04.001Z</time></trkpt><trkpt lat="42.28217560686975" lon="13.24470239283591"><ele>1187.0</ele><time>2026-04-27T13:42:05.001Z</time></trkpt><trkpt lat="42.28223709187895" lon="13.244651130131807"><ele>1187.0</ele><time>2026-04-27T13:42:06.001Z</time></trkpt><trkpt lat="42.28228895027936" lon="13.244579370089681"><ele>1187.0</ele><time>2026-04-27T13:42:07.001Z</time></trkpt><trkpt lat="42.282307009410715" lon="13.244489801372143"><ele>1187.0</ele><time>2026-04-27T13:42:08.001Z</time></trkpt><trkpt lat="42.28232043089836" lon="13.244375839918543"><ele>1187.0</ele><time>2026-04-27T13:42:09.001Z</time></trkpt><trkpt lat="42.28235204155972" lon="13.244234041121823"><ele>1187.0</ele><time>2026-04-27T13:42:10.001Z</time></trkpt><trkpt lat="42.28241250621616" lon="13.244096669237006"><ele>1187.0</ele><time>2026-04-27T13:42:11.001Z</time></trkpt><trkpt lat="42.28249724325744" lon="13.243974233785856"><ele>1187.0</ele><time>2026-04-27T13:42:12.001Z</time></trkpt><trkpt lat="42.2826031141846" lon="13.243850162656985"><ele>1187.0</ele><time>2026-04-27T13:42:13.001Z</time></trkpt><trkpt lat="42.282718136603556" lon="13.243728658699053"><ele>1187.0</ele><time>2026-04-27T13:42:14.001Z</time></trkpt><trkpt lat="42.282814167737996" lon="13.24361929510243"><ele>1187.0</ele><time>2026-04-27T13:42:15.001Z</time></trkpt><trkpt lat="42.282893525787124" lon="13.243523125161309"><ele>1187.0</ele><time>2026-04-27T13:42:16.001Z</time></trkpt><trkpt lat="42.28295434481749" lon="13.243411656158447"><ele>1187.0</ele><time>2026-04-27T13:42:17.001Z</time></trkpt><trkpt lat="42.28298966158986" lon="13.243286443412584"><ele>1187.0</ele><time>2026-04-27T13:42:18.001Z</time></trkpt><trkpt lat="42.28301528840795" lon="13.243140354506394"><ele>1187.0</ele><time>2026-04-27T13:42:19.001Z</time></trkpt><trkpt lat="42.2830065448095" lon="13.242997158830828"><ele>1187.0</ele><time>2026-04-27T13:42:20.001Z</time></trkpt><trkpt lat="42.2829805931348" lon="13.242845388700752"><ele>1187.0</ele><time>2026-04-27T13:42:21.001Z</time></trkpt><trkpt lat="42.28293518711614" lon="13.242695426911963"><ele>1185.75</ele><time>2026-04-27T13:42:22.001Z</time></trkpt><trkpt lat="42.28288458595916" lon="13.242518645649408"><ele>1184.5</ele><time>2026-04-27T13:42:23.001Z</time></trkpt><trkpt lat="42.28283547422793" lon="13.242347640314893"><ele>1183.25</ele><time>2026-04-27T13:42:24.001Z</time></trkpt><trkpt lat="42.28281394938543" lon="13.242181298030248"><ele>1182.0</ele><time>2026-04-27T13:42:25.001Z</time></trkpt><trkpt lat="42.28280870281799" lon="13.242047864056213"><ele>1182.6</ele><time>2026-04-27T13:42:26.001Z</time></trkpt><trkpt lat="42.28282206558225" lon="13.241922440516197"><ele>1183.2</ele><time>2026-04-27T13:42:27.001Z</time></trkpt><trkpt lat="42.282881374054504" lon="13.241807333766747"><ele>1183.8</ele><time>2026-04-27T13:42:29.001Z</time></trkpt><trkpt lat="42.28299656534812" lon="13.241786746832872"><ele>1184.4</ele><time>2026-04-27T13:42:31.001Z</time></trkpt><trkpt lat="42.28306928605623" lon="13.241806948472929"><ele>1185.0</ele><time>2026-04-27T13:42:32.001Z</time></trkpt><trkpt lat="42.283153553714286" lon="13.241826906753998"><ele>1185.0</ele><time>2026-04-27T13:42:33.001Z</time></trkpt><trkpt lat="42.283252509984315" lon="13.241850848113843"><ele>1185.0</ele><time>2026-04-27T13:42:34.001Z</time></trkpt><trkpt lat="42.28338256235257" lon="13.241874116077593"><ele>1185.0</ele><time>2026-04-27T13:42:35.001Z</time></trkpt><trkpt lat="42.28352381553507" lon="13.241893662708517"><ele>1185.0</ele><time>2026-04-27T13:42:36.001Z</time></trkpt><trkpt lat="42.28364945588977" lon="13.24189990261752"><ele>1185.0</ele><time>2026-04-27T13:42:37.001Z</time></trkpt><trkpt lat="42.28377536611758" lon="13.241875941851763"><ele>1185.0</ele><time>2026-04-27T13:42:38.001Z</time></trkpt><trkpt lat="42.283888567324624" lon="13.241829514884373"><ele>1185.0</ele><time>2026-04-27T13:42:39Z</time></trkpt><trkpt lat="42.28398193858472" lon="13.241759034147924"><ele>1185.0</ele><time>2026-04-27T13:42:40Z</time></trkpt><trkpt lat="42.28407556667959" lon="13.241656801259031"><ele>1186.3333333333333</ele><time>2026-04-27T13:42:41Z</time></trkpt><trkpt lat="42.28419813735868" lon="13.241534181042972"><ele>1187.6666666666665</ele><time>2026-04-27T13:42:42Z</time></trkpt><trkpt lat="42.28433856494062" lon="13.241420914171965"><ele>1189.0</ele><time>2026-04-27T13:42:43Z</time></trkpt><trkpt lat="42.28448685249619" lon="13.241310410036322"><ele>1189.6666666666665</ele><time>2026-04-27T13:42:44Z</time></trkpt><trkpt lat="42.28463289160225" lon="13.241192490347988"><ele>1190.3333333333333</ele><time>2026-04-27T13:42:45Z</time></trkpt><trkpt lat="42.28476681792059" lon="13.241038176455838"><ele>1191.0</ele><time>2026-04-27T13:42:46Z</time></trkpt><trkpt lat="42.28489474465146" lon="13.240848720433192"><ele>1191.0</ele><time>2026-04-27T13:42:47Z</time></trkpt><trkpt lat="42.2850261865279" lon="13.24066059375473"><ele>1191.0</ele><time>2026-04-27T13:42:48Z</time></trkpt><trkpt lat="42.28517094872946" lon="13.240497473960316"><ele>1191.0</ele><time>2026-04-27T13:42:49Z</time></trkpt><trkpt lat="42.28532802869351" lon="13.24037243323066"><ele>1196.6666666666667</ele><time>2026-04-27T13:42:50Z</time></trkpt><trkpt lat="42.285485242707196" lon="13.240287201060536"><ele>1202.3333333333335</ele><time>2026-04-27T13:42:51Z</time></trkpt><trkpt lat="42.285652111447455" lon="13.240204503163524"><ele>1208.0</ele><time>2026-04-27T13:42:52Z</time></trkpt><trkpt lat="42.285819539789486" lon="13.240102106048196"><ele>1208.0</ele><time>2026-04-27T13:42:53Z</time></trkpt><trkpt lat="42.285981597332" lon="13.239988669744015"><ele>1208.0</ele><time>2026-04-27T13:42:54Z</time></trkpt><trkpt lat="42.28614633845935" lon="13.239896086826604"><ele>1208.0</ele><time>2026-04-27T13:42:55Z</time></trkpt><trkpt lat="42.2863128860458" lon="13.23981761750694"><ele>1215.0</ele><time>2026-04-27T13:42:56Z</time></trkpt><trkpt lat="42.28647989800796" lon="13.239741429225324"><ele>1222.0</ele><time>2026-04-27T13:42:57Z</time></trkpt><trkpt lat="42.28663027218015" lon="13.239652225099519"><ele>1229.0</ele><time>2026-04-27T13:42:58Z</time></trkpt><trkpt lat="42.286762277945975" lon="13.23959733754516"><ele>1229.0</ele><time>2026-04-27T13:42:59Z</time></trkpt><trkpt lat="42.286902054320166" lon="13.239608479287583"><ele>1229.0</ele><time>2026-04-27T13:43:00Z</time></trkpt><trkpt lat="42.287050163955875" lon="13.239656343156735"><ele>1229.0</ele><time>2026-04-27T13:43:01Z</time></trkpt><trkpt lat="42.28720952164786" lon="13.239671590972128"><ele>1227.75</ele><time>2026-04-27T13:43:02Z</time></trkpt><trkpt lat="42.28736019635793" lon="13.23964644056565"><ele>1226.5</ele><time>2026-04-27T13:43:03Z</time></trkpt><trkpt lat="42.28749363362554" lon="13.239631992683238"><ele>1225.25</ele><time>2026-04-27T13:43:04Z</time></trkpt><trkpt lat="42.28761314340972" lon="13.23968580090501"><ele>1224.0</ele><time>2026-04-27T13:43:05Z</time></trkpt><trkpt lat="42.28771828844692" lon="13.239801825246506"><ele>1225.5</ele><time>2026-04-27T13:43:06Z</time></trkpt><trkpt lat="42.287819467258636" lon="13.239901646314948"><ele>1227.0</ele><time>2026-04-27T13:43:07Z</time></trkpt><trkpt lat="42.287929967353065" lon="13.23991633756367"><ele>1228.5</ele><time>2026-04-27T13:43:08Z</time></trkpt><trkpt lat="42.28805073922419" lon="13.239859174605593"><ele>1230.0</ele><time>2026-04-27T13:43:09Z</time></trkpt><trkpt lat="42.28817469541206" lon="13.239757851156355"><ele>1230.0</ele><time>2026-04-27T13:43:10Z</time></trkpt><trkpt lat="42.288306278234295" lon="13.239648720198835"><ele>1230.0</ele><time>2026-04-27T13:43:11Z</time></trkpt><trkpt lat="42.28845485637224" lon="13.239564122833322"><ele>1230.0</ele><time>2026-04-27T13:43:12Z</time></trkpt><trkpt lat="42.2886119218669" lon="13.239505137850967"><ele>1230.0</ele><time>2026-04-27T13:43:13Z</time></trkpt><trkpt lat="42.288776131563246" lon="13.239453716975767"><ele>1230.0</ele><time>2026-04-27T13:43:14Z</time></trkpt><trkpt lat="42.28893877844876" lon="13.239395724693168"><ele>1230.0</ele><time>2026-04-27T13:43:15Z</time></trkpt><trkpt lat="42.289093558397944" lon="13.239331135116956"><ele>1229.3333333333333</ele><time>2026-04-27T13:43:16.001Z</time></trkpt><trkpt lat="42.28924980844423" lon="13.239287561075498"><ele>1228.6666666666665</ele><time>2026-04-27T13:43:17.001Z</time></trkpt><trkpt lat="42.28939725148394" lon="13.239284053511962"><ele>1228.0</ele><time>2026-04-27T13:43:18.001Z</time></trkpt><trkpt lat="42.28954613382542" lon="13.239316249446157"><ele>1228.0</ele><time>2026-04-27T13:43:19.001Z</time></trkpt><trkpt lat="42.289689427956944" lon="13.239339094536009"><ele>1228.0</ele><time>2026-04-27T13:43:20.001Z</time></trkpt><trkpt lat="42.28983051994823" lon="13.239303463230401"><ele>1228.0</ele><time>2026-04-27T13:43:21.001Z</time></trkpt><trkpt lat="42.289963361019396" lon="13.239222466444495"><ele>1228.0</ele><time>2026-04-27T13:43:22.001Z</time></trkpt><trkpt lat="42.29011150876654" lon="13.239150999377717"><ele>1229.3333333333333</ele><time>2026-04-27T13:43:23.001Z</time></trkpt><trkpt lat="42.29026155553126" lon="13.239149647121243"><ele>1230.6666666666667</ele><time>2026-04-27T13:43:24.001Z</time></trkpt><trkpt lat="42.2904039615139" lon="13.239212513102643"><ele>1232.0</ele><time>2026-04-27T13:43:25.001Z</time></trkpt><trkpt lat="42.29054491496448" lon="13.239292624934562"><ele>1232.3333333333335</ele><time>2026-04-27T13:43:26.001Z</time></trkpt><trkpt lat="42.29069088308417" lon="13.239318624817734"><ele>1232.6666666666667</ele><time>2026-04-27T13:43:27.001Z</time></trkpt><trkpt lat="42.29083774187029" lon="13.239272998124052"><ele>1233.0</ele><time>2026-04-27T13:43:28.001Z</time></trkpt><trkpt lat="42.29097571954892" lon="13.239170359391863"><ele>1233.0</ele><time>2026-04-27T13:43:29.001Z</time></trkpt><trkpt lat="42.29111097920501" lon="13.23905482071775"><ele>1233.0</ele><time>2026-04-27T13:43:30.001Z</time></trkpt><trkpt lat="42.29125912304665" lon="13.23897470603127"><ele>1233.0</ele><time>2026-04-27T13:43:31.001Z</time></trkpt><trkpt lat="42.29141354741429" lon="13.238940496050324"><ele>1243.3333333333333</ele><time>2026-04-27T13:43:32.001Z</time></trkpt><trkpt lat="42.2915715338394" lon="13.238921584707969"><ele>1253.6666666666665</ele><time>2026-04-27T13:43:33.001Z</time></trkpt><trkpt lat="42.29173093415163" lon="13.238900073170695"><ele>1264.0</ele><time>2026-04-27T13:43:34.001Z</time></trkpt><trkpt lat="42.29188622687431" lon="13.238852113521457"><ele>1264.0</ele><time>2026-04-27T13:43:35.001Z</time></trkpt><trkpt lat="42.2920374425602" lon="13.238791397896138"><ele>1264.0</ele><time>2026-04-27T13:43:36.001Z</time></trkpt><trkpt lat="42.292200198945636" lon="13.238728634271325"><ele>1264.0</ele><time>2026-04-27T13:43:37.001Z</time></trkpt><trkpt lat="42.29236793463149" lon="13.238690449447567"><ele>1262.3333333333333</ele><time>2026-04-27T13:43:38.001Z</time></trkpt><trkpt lat="42.29253286567533" lon="13.238674291385465"><ele>1260.6666666666667</ele><time>2026-04-27T13:43:39.001Z</time></trkpt><trkpt lat="42.29270934981515" lon="13.238658357973057"><ele>1259.0</ele><time>2026-04-27T13:43:40.001Z</time></trkpt><trkpt lat="42.292869948500076" lon="13.23861572569519"><ele>1259.0</ele><time>2026-04-27T13:43:41.001Z</time></trkpt><trkpt lat="42.29302626815776" lon="13.2385375204903"><ele>1259.0</ele><time>2026-04-27T13:43:42.001Z</time></trkpt><trkpt lat="42.2931734340637" lon="13.238427685728999"><ele>1259.0</ele><time>2026-04-27T13:43:43.001Z</time></trkpt><trkpt lat="42.29332143214583" lon="13.238309495372254"><ele>1255.3333333333335</ele><time>2026-04-27T13:43:44.001Z</time></trkpt><trkpt lat="42.293476729560936" lon="13.238199308278675"><ele>1251.6666666666667</ele><time>2026-04-27T13:43:45.001Z</time></trkpt><trkpt lat="42.293633426509714" lon="13.238104052177121"><ele>1248.0</ele><time>2026-04-27T13:43:46.001Z</time></trkpt><trkpt lat="42.29378703412922" lon="13.238023688002087"><ele>1254.6666666666667</ele><time>2026-04-27T13:43:47.001Z</time></trkpt><trkpt lat="42.29394937249373" lon="13.237933936766447"><ele>1261.3333333333335</ele><time>2026-04-27T13:43:48.001Z</time></trkpt><trkpt lat="42.29410710719031" lon="13.237849190829467"><ele>1268.0</ele><time>2026-04-27T13:43:49.001Z</time></trkpt><trkpt lat="42.29426275794849" lon="13.237763117455644"><ele>1268.0</ele><time>2026-04-27T13:43:50.001Z</time></trkpt><trkpt lat="42.29441388816611" lon="13.23766827690674"><ele>1268.0</ele><time>2026-04-27T13:43:51.001Z</time></trkpt><trkpt lat="42.29455054910464" lon="13.237570025702977"><ele>1268.0</ele><time>2026-04-27T13:43:52.001Z</time></trkpt><trkpt lat="42.29469448790158" lon="13.237478167308419"><ele>1265.0</ele><time>2026-04-27T13:43:53.001Z</time></trkpt><trkpt lat="42.29483770669927" lon="13.237425342271282"><ele>1262.0</ele><time>2026-04-27T13:43:54.001Z</time></trkpt><trkpt lat="42.29499216727445" lon="13.237399675615563"><ele>1259.0</ele><time>2026-04-27T13:43:55.001Z</time></trkpt><trkpt lat="42.295146153833684" lon="13.237384150185028"><ele>1259.0</ele><time>2026-04-27T13:43:56.001Z</time></trkpt><trkpt lat="42.295310109214874" lon="13.237356924122803"><ele>1259.0</ele><time>2026-04-27T13:43:57.001Z</time></trkpt><trkpt lat="42.29546527993779" lon="13.237325294047238"><ele>1259.0</ele><time>2026-04-27T13:43:58.001Z</time></trkpt><trkpt lat="42.295628911349404" lon="13.237283969796742"><ele>1271.0</ele><time>2026-04-27T13:43:59.001Z</time></trkpt><trkpt lat="42.29579122823708" lon="13.23724760958705"><ele>1283.0</ele><time>2026-04-27T13:44:00.001Z</time></trkpt><trkpt lat="42.29595859660374" lon="13.237212908355225"><ele>1295.0</ele><time>2026-04-27T13:44:01.001Z</time></trkpt><trkpt lat="42.29613497691896" lon="13.237175865142758"><ele>1295.0</ele><time>2026-04-27T13:44:02.001Z</time></trkpt><trkpt lat="42.296305284984165" lon="13.23714649840717"><ele>1295.0</ele><time>2026-04-27T13:44:03.001Z</time></trkpt><trkpt lat="42.29648246567256" lon="13.237129493198225"><ele>1295.0</ele><time>2026-04-27T13:44:04.001Z</time></trkpt><trkpt lat="42.296649374708245" lon="13.237127108726016"><ele>1292.3333333333335</ele><time>2026-04-27T13:44:05.001Z</time></trkpt><trkpt lat="42.29682435943046" lon="13.237133659600898"><ele>1289.6666666666667</ele><time>2026-04-27T13:44:06.001Z</time></trkpt><trkpt lat="42.29698422439746" lon="13.237160312836137"><ele>1287.0</ele><time>2026-04-27T13:44:07.001Z</time></trkpt><trkpt lat="42.29716174345426" lon="13.237216000524176"><ele>1289.3333333333333</ele><time>2026-04-27T13:44:08.001Z</time></trkpt><trkpt lat="42.2973262922255" lon="13.237250819985592"><ele>1291.6666666666665</ele><time>2026-04-27T13:44:09.001Z</time></trkpt><trkpt lat="42.29750341927127" lon="13.23728222191338"><ele>1294.0</ele><time>2026-04-27T13:44:10.001Z</time></trkpt><trkpt lat="42.29766863986883" lon="13.237311816176389"><ele>1288.3333333333333</ele><time>2026-04-27T13:44:11.001Z</time></trkpt><trkpt lat="42.29783216214046" lon="13.237368760435842"><ele>1282.6666666666667</ele><time>2026-04-27T13:44:12.001Z</time></trkpt><trkpt lat="42.297992378403166" lon="13.237441060170992"><ele>1277.0</ele><time>2026-04-27T13:44:13.001Z</time></trkpt><trkpt lat="42.29815141074184" lon="13.237525709380144"><ele>1277.0</ele><time>2026-04-27T13:44:14Z</time></trkpt><trkpt lat="42.29830332505136" lon="13.237632254386117"><ele>1277.0</ele><time>2026-04-27T13:44:15Z</time></trkpt><trkpt lat="42.2984185164348" lon="13.237748633985381"><ele>1277.0</ele><time>2026-04-27T13:44:16Z</time></trkpt><trkpt lat="42.298527413328046" lon="13.23788410698068"><ele>1277.0</ele><time>2026-04-27T13:44:17Z</time></trkpt><trkpt lat="42.29863884999178" lon="13.237976897878669"><ele>1277.0</ele><time>2026-04-27T13:44:18Z</time></trkpt><trkpt lat="42.298763169840875" lon="13.238033742399919"><ele>1277.0</ele><time>2026-04-27T13:44:19Z</time></trkpt><trkpt lat="42.29889868178662" lon="13.238031609940064"><ele>1277.0</ele><time>2026-04-27T13:44:20Z</time></trkpt><trkpt lat="42.29902510971642" lon="13.237967951663363"><ele>1277.75</ele><time>2026-04-27T13:44:21Z</time></trkpt><trkpt lat="42.299150439850195" lon="13.237878118189556"><ele>1278.5</ele><time>2026-04-27T13:44:22Z</time></trkpt><trkpt lat="42.29928891870171" lon="13.237807836127272"><ele>1279.25</ele><time>2026-04-27T13:44:23Z</time></trkpt><trkpt lat="42.299435866916475" lon="13.23777729915798"><ele>1280.0</ele><time>2026-04-27T13:44:24Z</time></trkpt><trkpt lat="42.2995959376668" lon="13.237784582475781"><ele>1278.6666666666667</ele><time>2026-04-27T13:44:25Z</time></trkpt><trkpt lat="42.29975234717818" lon="13.237831092198011"><ele>1277.3333333333333</ele><time>2026-04-27T13:44:26Z</time></trkpt><trkpt lat="42.29991588829489" lon="13.23790567960569"><ele>1276.0</ele><time>2026-04-27T13:44:27Z</time></trkpt><trkpt lat="42.30006241810659" lon="13.237966958097074"><ele>1276.0</ele><time>2026-04-27T13:44:28Z</time></trkpt><trkpt lat="42.30021906410289" lon="13.237983803421677"><ele>1276.0</ele><time>2026-04-27T13:44:29Z</time></trkpt><trkpt lat="42.30038198569782" lon="13.237948835570213"><ele>1276.0</ele><time>2026-04-27T13:44:30Z</time></trkpt><trkpt lat="42.300536671622766" lon="13.237870881162491"><ele>1276.3333333333333</ele><time>2026-04-27T13:44:31Z</time></trkpt><trkpt lat="42.30068528181373" lon="13.237779217010651"><ele>1276.6666666666667</ele><time>2026-04-27T13:44:32Z</time></trkpt><trkpt lat="42.300829050816965" lon="13.237711032412776"><ele>1277.0</ele><time>2026-04-27T13:44:33Z</time></trkpt><trkpt lat="42.300986228853674" lon="13.237679047741214"><ele>1277.0</ele><time>2026-04-27T13:44:34Z</time></trkpt><trkpt lat="42.30113734280059" lon="13.237692728463614"><ele>1277.0</ele><time>2026-04-27T13:44:35Z</time></trkpt><trkpt lat="42.30129734508379" lon="13.237713284779227"><ele>1277.0</ele><time>2026-04-27T13:44:36Z</time></trkpt><trkpt lat="42.30146888199708" lon="13.2377313423994"><ele>1275.3333333333335</ele><time>2026-04-27T13:44:37Z</time></trkpt><trkpt lat="42.30164238571307" lon="13.237741135884093"><ele>1273.6666666666667</ele><time>2026-04-27T13:44:38Z</time></trkpt><trkpt lat="42.30181977915108" lon="13.237743646118178"><ele>1272.0</ele><time>2026-04-27T13:44:39Z</time></trkpt><trkpt lat="42.3019856552107" lon="13.237743623572204"><ele>1272.0</ele><time>2026-04-27T13:44:40Z</time></trkpt><trkpt lat="42.30215174305628" lon="13.237726599319405"><ele>1272.0</ele><time>2026-04-27T13:44:41Z</time></trkpt><trkpt lat="42.30230910154736" lon="13.23769767533783"><ele>1272.0</ele><time>2026-04-27T13:44:42Z</time></trkpt><trkpt lat="42.302447163976495" lon="13.237665368509465"><ele>1272.3333333333333</ele><time>2026-04-27T13:44:43Z</time></trkpt><trkpt lat="42.30259842453024" lon="13.23765877870906"><ele>1272.6666666666665</ele><time>2026-04-27T13:44:44Z</time></trkpt><trkpt lat="42.30275275830283" lon="13.237699086770178"><ele>1273.0</ele><time>2026-04-27T13:44:45Z</time></trkpt><trkpt lat="42.30291653954776" lon="13.237777377618276"><ele>1273.0</ele><time>2026-04-27T13:44:46Z</time></trkpt><trkpt lat="42.303071630811125" lon="13.237862821394653"><ele>1273.0</ele><time>2026-04-27T13:44:47Z</time></trkpt><trkpt lat="42.30323644813607" lon="13.237940612735175"><ele>1273.0</ele><time>2026-04-27T13:44:48Z</time></trkpt><trkpt lat="42.30338231719119" lon="13.238003819865913"><ele>1273.25</ele><time>2026-04-27T13:44:49Z</time></trkpt><trkpt lat="42.30350817976281" lon="13.238070810823247"><ele>1273.5</ele><time>2026-04-27T13:44:50Z</time></trkpt><trkpt lat="42.303623060172534" lon="13.238187296652198"><ele>1273.75</ele><time>2026-04-27T13:44:51Z</time></trkpt><trkpt lat="42.30371540615941" lon="13.238345099608642"><ele>1274.0</ele><time>2026-04-27T13:44:52Z</time></trkpt><trkpt lat="42.3037869990597" lon="13.238517782647277"><ele>1274.75</ele><time>2026-04-27T13:44:53Z</time></trkpt><trkpt lat="42.303879307228975" lon="13.238662414567159"><ele>1275.5</ele><time>2026-04-27T13:44:54Z</time></trkpt><trkpt lat="42.304010320830365" lon="13.238758967685126"><ele>1276.25</ele><time>2026-04-27T13:44:55Z</time></trkpt><trkpt lat="42.30416266965136" lon="13.238814585047434"><ele>1277.0</ele><time>2026-04-27T13:44:56Z</time></trkpt><trkpt lat="42.30432669353602" lon="13.238835170361448"><ele>1277.0</ele><time>2026-04-27T13:44:57Z</time></trkpt><trkpt lat="42.30448373173787" lon="13.238852086019767"><ele>1277.0</ele><time>2026-04-27T13:44:58Z</time></trkpt><trkpt lat="42.30465265730765" lon="13.2388937183767"><ele>1277.0</ele><time>2026-04-27T13:44:59Z</time></trkpt><trkpt lat="42.304801328172125" lon="13.23894452473345"><ele>1276.3333333333335</ele><time>2026-04-27T13:45:00Z</time></trkpt><trkpt lat="42.30496411163674" lon="13.239004739149136"><ele>1275.6666666666667</ele><time>2026-04-27T13:45:01Z</time></trkpt><trkpt lat="42.30511225512384" lon="13.239038241004366"><ele>1275.0</ele><time>2026-04-27T13:45:02Z</time></trkpt><trkpt lat="42.30528030068731" lon="13.23904159270806"><ele>1275.0</ele><time>2026-04-27T13:45:03Z</time></trkpt><trkpt lat="42.30545289130496" lon="13.239022687405035"><ele>1275.0</ele><time>2026-04-27T13:45:04Z</time></trkpt><trkpt lat="42.30562195806268" lon="13.238984131099153"><ele>1275.0</ele><time>2026-04-27T13:45:05Z</time></trkpt><trkpt lat="42.3057936311747" lon="13.238936562058562"><ele>1280.6666666666667</ele><time>2026-04-27T13:45:06Z</time></trkpt><trkpt lat="42.30597140296634" lon="13.238877712393844"><ele>1286.3333333333335</ele><time>2026-04-27T13:45:07Z</time></trkpt><trkpt lat="42.3061398562091" lon="13.238804117673524"><ele>1292.0</ele><time>2026-04-27T13:45:08Z</time></trkpt><trkpt lat="42.30631162308613" lon="13.238729776255841"><ele>1290.6666666666667</ele><time>2026-04-27T13:45:09Z</time></trkpt><trkpt lat="42.30649657052447" lon="13.23865652920782"><ele>1289.3333333333333</ele><time>2026-04-27T13:45:10Z</time></trkpt><trkpt lat="42.30666510145899" lon="13.23857218561174"><ele>1288.0</ele><time>2026-04-27T13:45:11Z</time></trkpt><trkpt lat="42.30684062981086" lon="13.238489788972775"><ele>1288.0</ele><time>2026-04-27T13:45:12Z</time></trkpt><trkpt lat="42.30698653530615" lon="13.238422017700945"><ele>1288.0</ele><time>2026-04-27T13:45:13Z</time></trkpt><trkpt lat="42.30709228499941" lon="13.238396064503098"><ele>1288.0</ele><time>2026-04-27T13:45:14Z</time></trkpt><trkpt lat="42.30715951317216" lon="13.238386042563283"><ele>1288.0</ele><time>2026-04-27T13:45:15Z</time></trkpt><trkpt lat="42.3070869369445" lon="13.238310705714467"><ele>1288.0</ele><time>2026-04-27T13:45:19Z</time></trkpt><trkpt lat="42.30701896743052" lon="13.238339852758381"><ele>1288.0</ele><time>2026-04-27T13:45:20Z</time></trkpt><trkpt lat="42.30691545885582" lon="13.238415137459016"><ele>1288.0</ele><time>2026-04-27T13:45:21Z</time></trkpt><trkpt lat="42.30681806616719" lon="13.238486617270157"><ele>1288.0</ele><time>2026-04-27T13:45:22.001Z</time></trkpt><trkpt lat="42.30668803239952" lon="13.238552916811937"><ele>1288.0</ele><time>2026-04-27T13:45:23.001Z</time></trkpt><trkpt lat="42.30652437769403" lon="13.238622887849244"><ele>1289.3333333333333</ele><time>2026-04-27T13:45:24.001Z</time></trkpt><trkpt lat="42.30634189539351" lon="13.238691798236012"><ele>1290.6666666666667</ele><time>2026-04-27T13:45:25.001Z</time></trkpt><trkpt lat="42.306158442385374" lon="13.238769000757944"><ele>1292.0</ele><time>2026-04-27T13:45:26.001Z</time></trkpt><trkpt lat="42.30595483518745" lon="13.238855959444734"><ele>1292.0</ele><time>2026-04-27T13:45:27.001Z</time></trkpt><trkpt lat="42.30575358832278" lon="13.238927191481142"><ele>1292.0</ele><time>2026-04-27T13:45:28.001Z</time></trkpt><trkpt lat="42.3055705773966" lon="13.238982665800627"><ele>1292.0</ele><time>2026-04-27T13:45:29.001Z</time></trkpt><trkpt lat="42.30537833168927" lon="13.23901656600456"><ele>1287.3333333333335</ele><time>2026-04-27T13:45:30.001Z</time></trkpt><trkpt lat="42.30517425252177" lon="13.239025940323268"><ele>1282.6666666666667</ele><time>2026-04-27T13:45:31.001Z</time></trkpt><trkpt lat="42.304986244526766" lon="13.239014259023811"><ele>1278.0</ele><time>2026-04-27T13:45:32.001Z</time></trkpt><trkpt lat="42.304783056403615" lon="13.23896231443044"><ele>1277.6666666666667</ele><time>2026-04-27T13:45:33.001Z</time></trkpt><trkpt lat="42.304583574777766" lon="13.238890439174313"><ele>1277.3333333333335</ele><time>2026-04-27T13:45:34.001Z</time></trkpt><trkpt lat="42.304387201410535" lon="13.238818944603219"><ele>1277.0</ele><time>2026-04-27T13:45:35.001Z</time></trkpt><trkpt lat="42.3042069748534" lon="13.238767608479613"><ele>1277.0</ele><time>2026-04-27T13:45:36.001Z</time></trkpt><trkpt lat="42.3040436923185" lon="13.238716465774944"><ele>1277.0</ele><time>2026-04-27T13:45:37.001Z</time></trkpt><trkpt lat="42.3038910181159" lon="13.23864334852031"><ele>1277.0</ele><time>2026-04-27T13:45:38.001Z</time></trkpt><trkpt lat="42.30378086867775" lon="13.238536384940728"><ele>1276.25</ele><time>2026-04-27T13:45:39.001Z</time></trkpt><trkpt lat="42.30370731214707" lon="13.238413092224318"><ele>1275.5</ele><time>2026-04-27T13:45:40.001Z</time></trkpt><trkpt lat="42.30365590713322" lon="13.2382864167911"><ele>1274.75</ele><time>2026-04-27T13:45:41.001Z</time></trkpt><trkpt lat="42.303593271624145" lon="13.23814356491202"><ele>1274.0</ele><time>2026-04-27T13:45:42.001Z</time></trkpt><trkpt lat="42.303494069408856" lon="13.238018164619804"><ele>1274.0</ele><time>2026-04-27T13:45:43.001Z</time></trkpt><trkpt lat="42.303360244140535" lon="13.237931965222785"><ele>1274.0</ele><time>2026-04-27T13:45:44.001Z</time></trkpt><trkpt lat="42.30320451836252" lon="13.237873493854295"><ele>1274.0</ele><time>2026-04-27T13:45:45.001Z</time></trkpt><trkpt lat="42.303032951933915" lon="13.237818582132968"><ele>1273.6666666666667</ele><time>2026-04-27T13:45:46.001Z</time></trkpt><trkpt lat="42.30287120063793" lon="13.237760897822438"><ele>1273.3333333333333</ele><time>2026-04-27T13:45:47.001Z</time></trkpt><trkpt lat="42.3027231861884" lon="13.237697739063695"><ele>1273.0</ele><time>2026-04-27T13:45:48.001Z</time></trkpt><trkpt lat="42.30259437766337" lon="13.237649461639117"><ele>1273.0</ele><time>2026-04-27T13:45:49.001Z</time></trkpt><trkpt lat="42.3024792229092" lon="13.237626314523782"><ele>1273.0</ele><time>2026-04-27T13:45:50.001Z</time></trkpt><trkpt lat="42.30238572119329" lon="13.237633402589221"><ele>1273.0</ele><time>2026-04-27T13:45:51.001Z</time></trkpt><trkpt lat="42.30230349680951" lon="13.237661153740586"><ele>1273.0</ele><time>2026-04-27T13:45:52Z</time></trkpt><trkpt lat="42.302237453713595" lon="13.237698545949739"><ele>1273.0</ele><time>2026-04-27T13:45:53Z</time></trkpt><trkpt lat="42.302211937876535" lon="13.237785431216404"><ele>1273.0</ele><time>2026-04-27T13:45:55Z</time></trkpt><trkpt lat="42.30230787242028" lon="13.237884016428321"><ele>1273.0</ele><time>2026-04-27T13:45:58Z</time></trkpt><trkpt lat="42.30240495794583" lon="13.23793795755399"><ele>1273.0</ele><time>2026-04-27T13:45:59Z</time></trkpt><trkpt lat="42.302479028727596" lon="13.238018360479387"><ele>1273.0</ele><time>2026-04-27T13:46:00Z</time></trkpt><trkpt lat="42.30251758531664" lon="13.238122450844768"><ele>1273.0</ele><time>2026-04-27T13:46:01Z</time></trkpt><trkpt lat="42.302522929420704" lon="13.238222749712358"><ele>1273.0</ele><time>2026-04-27T13:46:02Z</time></trkpt><trkpt lat="42.30253870727137" lon="13.23833501303896"><ele>1273.0</ele><time>2026-04-27T13:46:03Z</time></trkpt><trkpt lat="42.30259670683896" lon="13.238445501534647"><ele>1271.8</ele><time>2026-04-27T13:46:04Z</time></trkpt><trkpt lat="42.30266911918108" lon="13.23851839028604"><ele>1270.6</ele><time>2026-04-27T13:46:05Z</time></trkpt><trkpt lat="42.30273977250648" lon="13.238572163644022"><ele>1269.4</ele><time>2026-04-27T13:46:06Z</time></trkpt><trkpt lat="42.30282552752083" lon="13.238625709509368"><ele>1268.2</ele><time>2026-04-27T13:46:07Z</time></trkpt><trkpt lat="42.302938105648515" lon="13.238692184170311"><ele>1267.0</ele><time>2026-04-27T13:46:08Z</time></trkpt><trkpt lat="42.30305851947632" lon="13.238766888656382"><ele>1267.25</ele><time>2026-04-27T13:46:09Z</time></trkpt><trkpt lat="42.30316096022723" lon="13.238832324529106"><ele>1267.5</ele><time>2026-04-27T13:46:10Z</time></trkpt><trkpt lat="42.30325839736658" lon="13.238909833284932"><ele>1267.75</ele><time>2026-04-27T13:46:11Z</time></trkpt><trkpt lat="42.303351293605694" lon="13.239007999970891"><ele>1268.0</ele><time>2026-04-27T13:46:12Z</time></trkpt><trkpt lat="42.30345560888883" lon="13.239127187113876"><ele>1270.25</ele><time>2026-04-27T13:46:13Z</time></trkpt><trkpt lat="42.3035646238167" lon="13.239262752630486"><ele>1272.5</ele><time>2026-04-27T13:46:14Z</time></trkpt><trkpt lat="42.30368605207047" lon="13.239383680786808"><ele>1274.75</ele><time>2026-04-27T13:46:15Z</time></trkpt><trkpt lat="42.30379727471174" lon="13.239488812414857"><ele>1277.0</ele><time>2026-04-27T13:46:16Z</time></trkpt><trkpt lat="42.30387542688099" lon="13.239579088653556"><ele>1276.6</ele><time>2026-04-27T13:46:17Z</time></trkpt><trkpt lat="42.30391468664735" lon="13.239665144078774"><ele>1276.2</ele><time>2026-04-27T13:46:18Z</time></trkpt><trkpt lat="42.30393280684049" lon="13.239771884802233"><ele>1275.8</ele><time>2026-04-27T13:46:19Z</time></trkpt><trkpt lat="42.303941300963785" lon="13.23988727239715"><ele>1275.4</ele><time>2026-04-27T13:46:20Z</time></trkpt><trkpt lat="42.303953631238805" lon="13.240036620350088"><ele>1275.0</ele><time>2026-04-27T13:46:21Z</time></trkpt><trkpt lat="42.30398181523752" lon="13.240220838825385"><ele>1275.0</ele><time>2026-04-27T13:46:22Z</time></trkpt><trkpt lat="42.30402135511036" lon="13.240425492542828"><ele>1275.0</ele><time>2026-04-27T13:46:23Z</time></trkpt><trkpt lat="42.30405839185444" lon="13.240633512971739"><ele>1275.0</ele><time>2026-04-27T13:46:24Z</time></trkpt><trkpt lat="42.304089857880214" lon="13.240789426038715"><ele>1275.0</ele><time>2026-04-27T13:46:25Z</time></trkpt><trkpt lat="42.30410495890161" lon="13.240934004432365"><ele>1275.6</ele><time>2026-04-27T13:46:26Z</time></trkpt><trkpt lat="42.30410795522655" lon="13.241063285320639"><ele>1276.2</ele><time>2026-04-27T13:46:27Z</time></trkpt><trkpt lat="42.30410416565683" lon="13.2412083778142"><ele>1276.8</ele><time>2026-04-27T13:46:28Z</time></trkpt><trkpt lat="42.30409431744365" lon="13.24132420954931"><ele>1277.4</ele><time>2026-04-27T13:46:29Z</time></trkpt><trkpt lat="42.30405228076214" lon="13.241448659003833"><ele>1278.0</ele><time>2026-04-27T13:46:30Z</time></trkpt><trkpt lat="42.30399759918784" lon="13.241588200740003"><ele>1278.4</ele><time>2026-04-27T13:46:31Z</time></trkpt><trkpt lat="42.30395357459642" lon="13.241721486349554"><ele>1278.8</ele><time>2026-04-27T13:46:32Z</time></trkpt><trkpt lat="42.30392697096164" lon="13.24184623981541"><ele>1279.2</ele><time>2026-04-27T13:46:33Z</time></trkpt><trkpt lat="42.30388540201295" lon="13.241963348607404"><ele>1279.6</ele><time>2026-04-27T13:46:34Z</time></trkpt><trkpt lat="42.30382462093087" lon="13.24209187382099"><ele>1280.0</ele><time>2026-04-27T13:46:35Z</time></trkpt><trkpt lat="42.30375135810917" lon="13.242237246376373"><ele>1284.5</ele><time>2026-04-27T13:46:36Z</time></trkpt><trkpt lat="42.30368473390183" lon="13.242398450315351"><ele>1289.0</ele><time>2026-04-27T13:46:37Z</time></trkpt><trkpt lat="42.30364759620266" lon="13.242556750679567"><ele>1293.5</ele><time>2026-04-27T13:46:38Z</time></trkpt><trkpt lat="42.303613088567296" lon="13.242740423949991"><ele>1298.0</ele><time>2026-04-27T13:46:39Z</time></trkpt><trkpt lat="42.30359226402616" lon="13.24290090803641"><ele>1298.0</ele><time>2026-04-27T13:46:40Z</time></trkpt><trkpt lat="42.30357687309667" lon="13.243047717763664"><ele>1298.0</ele><time>2026-04-27T13:46:41Z</time></trkpt><trkpt lat="42.3035747305706" lon="13.243219387523434"><ele>1298.0</ele><time>2026-04-27T13:46:42Z</time></trkpt><trkpt lat="42.30357247436667" lon="13.243396771180352"><ele>1298.0</ele><time>2026-04-27T13:46:43Z</time></trkpt><trkpt lat="42.30356804929278" lon="13.243574622626815"><ele>1298.0</ele><time>2026-04-27T13:46:44Z</time></trkpt><trkpt lat="42.30357753591563" lon="13.243738552726894"><ele>1298.0</ele><time>2026-04-27T13:46:45Z</time></trkpt><trkpt lat="42.303602844866425" lon="13.243904917673623"><ele>1298.0</ele><time>2026-04-27T13:46:46Z</time></trkpt><trkpt lat="42.303627460814276" lon="13.244079513351519"><ele>1298.0</ele><time>2026-04-27T13:46:47Z</time></trkpt><trkpt lat="42.30361815646651" lon="13.244226867239338"><ele>1299.2</ele><time>2026-04-27T13:46:48Z</time></trkpt><trkpt lat="42.30358960886367" lon="13.244328423079825"><ele>1300.4</ele><time>2026-04-27T13:46:49Z</time></trkpt><trkpt lat="42.30354799257816" lon="13.244456865930394"><ele>1301.6000000000001</ele><time>2026-04-27T13:46:50Z</time></trkpt><trkpt lat="42.303484665775585" lon="13.244623468885216"><ele>1302.8000000000002</ele><time>2026-04-27T13:46:52Z</time></trkpt><trkpt lat="42.30343722203278" lon="13.244745057135695"><ele>1304.0</ele><time>2026-04-27T13:46:53Z</time></trkpt><trkpt lat="42.303372592285946" lon="13.244874002436232"><ele>1305.0</ele><time>2026-04-27T13:46:54Z</time></trkpt><trkpt lat="42.30330639883973" lon="13.245016711597302"><ele>1306.0</ele><time>2026-04-27T13:46:55Z</time></trkpt><trkpt lat="42.30325463826652" lon="13.245129013023709"><ele>1307.0</ele><time>2026-04-27T13:46:56Z</time></trkpt><trkpt lat="42.303203861375906" lon="13.245231245796683"><ele>1308.0</ele><time>2026-04-27T13:46:57Z</time></trkpt><trkpt lat="42.30318021507809" lon="13.245318889893987"><ele>1309.0</ele><time>2026-04-27T13:46:58Z</time></trkpt><trkpt lat="42.30315753204653" lon="13.245420178841435"><ele>1309.0</ele><time>2026-04-27T13:46:59Z</time></trkpt><trkpt lat="42.30314923159225" lon="13.245526826068291"><ele>1309.0</ele><time>2026-04-27T13:47:00Z</time></trkpt><trkpt lat="42.30315681680793" lon="13.245691481171214"><ele>1309.0</ele><time>2026-04-27T13:47:02Z</time></trkpt><trkpt lat="42.30311257545615" lon="13.245820209055328"><ele>1309.0</ele><time>2026-04-27T13:47:03Z</time></trkpt><trkpt lat="42.3030494008294" lon="13.245926124205997"><ele>1309.0</ele><time>2026-04-27T13:47:04Z</time></trkpt><trkpt lat="42.30299707865463" lon="13.246024354887144"><ele>1310.4</ele><time>2026-04-27T13:47:05Z</time></trkpt><trkpt lat="42.30297053915039" lon="13.246141426817736"><ele>1311.8000000000002</ele><time>2026-04-27T13:47:06Z</time></trkpt><trkpt lat="42.30297131863703" lon="13.24623245105061"><ele>1313.1999999999998</ele><time>2026-04-27T13:47:07Z</time></trkpt><trkpt lat="42.30288034790725" lon="13.246372008261805"><ele>1314.6</ele><time>2026-04-27T13:47:09Z</time></trkpt><trkpt lat="42.30282163264491" lon="13.246458371725636"><ele>1316.0</ele><time>2026-04-27T13:47:10Z</time></trkpt><trkpt lat="42.302770558029344" lon="13.246574129500189"><ele>1317.8</ele><time>2026-04-27T13:47:11Z</time></trkpt><trkpt lat="42.302716528363284" lon="13.246714444780267"><ele>1319.6</ele><time>2026-04-27T13:47:12Z</time></trkpt><trkpt lat="42.302684653945946" lon="13.246837357669655"><ele>1321.4</ele><time>2026-04-27T13:47:13Z</time></trkpt><trkpt lat="42.30263011829771" lon="13.246963961136764"><ele>1323.2</ele><time>2026-04-27T13:47:14Z</time></trkpt><trkpt lat="42.302551937211355" lon="13.24707367763909"><ele>1325.0</ele><time>2026-04-27T13:47:15Z</time></trkpt><trkpt lat="42.30247730250733" lon="13.247168391223006"><ele>1325.0</ele><time>2026-04-27T13:47:16Z</time></trkpt><trkpt lat="42.30244201104035" lon="13.247248578343614"><ele>1325.0</ele><time>2026-04-27T13:47:17Z</time></trkpt><trkpt lat="42.30239646935883" lon="13.247352251587799"><ele>1325.0</ele><time>2026-04-27T13:47:18Z</time></trkpt><trkpt lat="42.30234408153976" lon="13.247457031301037"><ele>1325.0</ele><time>2026-04-27T13:47:19Z</time></trkpt><trkpt lat="42.30228180474669" lon="13.247565037076004"><ele>1325.0</ele><time>2026-04-27T13:47:20Z</time></trkpt><trkpt lat="42.30221950790835" lon="13.247656163642716"><ele>1325.0</ele><time>2026-04-27T13:47:21Z</time></trkpt><trkpt lat="42.30215093069987" lon="13.247758078556465"><ele>1330.5</ele><time>2026-04-27T13:47:22Z</time></trkpt><trkpt lat="42.30206488741344" lon="13.247874687152263"><ele>1336.0</ele><time>2026-04-27T13:47:23Z</time></trkpt><trkpt lat="42.302002898282375" lon="13.247994528346622"><ele>1341.5</ele><time>2026-04-27T13:47:24Z</time></trkpt><trkpt lat="42.301940186302105" lon="13.248125187574201"><ele>1347.0</ele><time>2026-04-27T13:47:25Z</time></trkpt><trkpt lat="42.3018745012458" lon="13.248242426083095"><ele>1347.8</ele><time>2026-04-27T13:47:26Z</time></trkpt><trkpt lat="42.30178507533565" lon="13.248362876315937"><ele>1348.6</ele><time>2026-04-27T13:47:27Z</time></trkpt><trkpt lat="42.301719122665226" lon="13.248473331161218"><ele>1349.3999999999999</ele><time>2026-04-27T13:47:28Z</time></trkpt><trkpt lat="42.30165327785293" lon="13.24858445383574"><ele>1350.1999999999998</ele><time>2026-04-27T13:47:29Z</time></trkpt><trkpt lat="42.301577646352555" lon="13.248686052036804"><ele>1351.0</ele><time>2026-04-27T13:47:31Z</time></trkpt><trkpt lat="42.301548369840376" lon="13.248815287838305"><ele>1351.0</ele><time>2026-04-27T13:47:33Z</time></trkpt><trkpt lat="42.30154244980534" lon="13.248913092223859"><ele>1351.0</ele><time>2026-04-27T13:47:34Z</time></trkpt><trkpt lat="42.30153249038347" lon="13.249043338225535"><ele>1351.0</ele><time>2026-04-27T13:47:35Z</time></trkpt><trkpt lat="42.30150737101119" lon="13.249203028223492"><ele>1351.0</ele><time>2026-04-27T13:47:36Z</time></trkpt><trkpt lat="42.30147757243321" lon="13.249363902002422"><ele>1351.0</ele><time>2026-04-27T13:47:37Z</time></trkpt><trkpt lat="42.30145426517404" lon="13.249502872492513"><ele>1352.1666666666665</ele><time>2026-04-27T13:47:38Z</time></trkpt><trkpt lat="42.30144029298434" lon="13.249626499500462"><ele>1353.3333333333333</ele><time>2026-04-27T13:47:39Z</time></trkpt><trkpt lat="42.301432065041" lon="13.249732828037041"><ele>1354.5</ele><time>2026-04-27T13:47:40Z</time></trkpt><trkpt lat="42.30142792597967" lon="13.249838801902404"><ele>1355.6666666666667</ele><time>2026-04-27T13:47:41Z</time></trkpt><trkpt lat="42.30142731192194" lon="13.249942497094459"><ele>1356.8333333333335</ele><time>2026-04-27T13:47:42Z</time></trkpt><trkpt lat="42.30143061791923" lon="13.250055590487555"><ele>1358.0</ele><time>2026-04-27T13:47:43Z</time></trkpt><trkpt lat="42.30144451987376" lon="13.250188741943793"><ele>1358.0</ele><time>2026-04-27T13:47:44Z</time></trkpt><trkpt lat="42.30147009572258" lon="13.250328710629018"><ele>1358.0</ele><time>2026-04-27T13:47:45Z</time></trkpt><trkpt lat="42.30151051678188" lon="13.250464736973393"><ele>1358.0</ele><time>2026-04-27T13:47:46Z</time></trkpt><trkpt lat="42.30156517833525" lon="13.250609753139358"><ele>1358.0</ele><time>2026-04-27T13:47:47Z</time></trkpt><trkpt lat="42.30162510936217" lon="13.250752306311373"><ele>1354.25</ele><time>2026-04-27T13:47:48Z</time></trkpt><trkpt lat="42.30168778615028" lon="13.250901348837417"><ele>1350.5</ele><time>2026-04-27T13:47:49Z</time></trkpt><trkpt lat="42.30174597610656" lon="13.25104959023112"><ele>1346.75</ele><time>2026-04-27T13:47:50Z</time></trkpt><trkpt lat="42.301803930498565" lon="13.251196094193748"><ele>1343.0</ele><time>2026-04-27T13:47:51Z</time></trkpt><trkpt lat="42.301869584453115" lon="13.2513345126353"><ele>1343.25</ele><time>2026-04-27T13:47:52Z</time></trkpt><trkpt lat="42.30194904512246" lon="13.251465686672104"><ele>1343.5</ele><time>2026-04-27T13:47:53Z</time></trkpt><trkpt lat="42.30204182299727" lon="13.251581072104784"><ele>1343.75</ele><time>2026-04-27T13:47:54Z</time></trkpt><trkpt lat="42.30214703129777" lon="13.251679993795271"><ele>1344.0</ele><time>2026-04-27T13:47:55Z</time></trkpt><trkpt lat="42.3022543749028" lon="13.251763665905203"><ele>1344.0</ele><time>2026-04-27T13:47:56Z</time></trkpt><trkpt lat="42.30236431015372" lon="13.251830709916753"><ele>1344.0</ele><time>2026-04-27T13:47:57Z</time></trkpt><trkpt lat="42.30248244952648" lon="13.251878743096484"><ele>1344.0</ele><time>2026-04-27T13:47:58Z</time></trkpt><trkpt lat="42.30261429541101" lon="13.251881232041745"><ele>1344.0</ele><time>2026-04-27T13:47:59Z</time></trkpt><trkpt lat="42.30275353119708" lon="13.25186084852054"><ele>1344.0</ele><time>2026-04-27T13:48:00Z</time></trkpt><trkpt lat="42.30288888760151" lon="13.251837433972739"><ele>1344.0</ele><time>2026-04-27T13:48:01Z</time></trkpt><trkpt lat="42.30302090174602" lon="13.25182584698897"><ele>1344.0</ele><time>2026-04-27T13:48:02Z</time></trkpt><trkpt lat="42.303154008428685" lon="13.251832559464596"><ele>1344.0</ele><time>2026-04-27T13:48:03Z</time></trkpt><trkpt lat="42.30328075500188" lon="13.251847765837724"><ele>1345.5</ele><time>2026-04-27T13:48:04Z</time></trkpt><trkpt lat="42.303398364933386" lon="13.251861923156422"><ele>1347.0</ele><time>2026-04-27T13:48:05Z</time></trkpt><trkpt lat="42.303528997804065" lon="13.25187103183054"><ele>1348.5</ele><time>2026-04-27T13:48:06Z</time></trkpt><trkpt lat="42.30365627528368" lon="13.251902638031892"><ele>1350.0</ele><time>2026-04-27T13:48:07Z</time></trkpt><trkpt lat="42.30377176142824" lon="13.251967119781868"><ele>1350.0</ele><time>2026-04-27T13:48:08Z</time></trkpt><trkpt lat="42.30388533104545" lon="13.252055053372972"><ele>1350.0</ele><time>2026-04-27T13:48:09Z</time></trkpt><trkpt lat="42.30398513381848" lon="13.252172855734289"><ele>1350.0</ele><time>2026-04-27T13:48:10Z</time></trkpt><trkpt lat="42.30406367044804" lon="13.25232621463126"><ele>1350.0</ele><time>2026-04-27T13:48:11Z</time></trkpt><trkpt lat="42.304114752605564" lon="13.252504123173235"><ele>1346.3333333333333</ele><time>2026-04-27T13:48:12Z</time></trkpt><trkpt lat="42.30416635728302" lon="13.252693828952008"><ele>1342.6666666666665</ele><time>2026-04-27T13:48:13Z</time></trkpt><trkpt lat="42.30422755658113" lon="13.252891522723422"><ele>1339.0</ele><time>2026-04-27T13:48:14Z</time></trkpt><trkpt lat="42.3042911068988" lon="13.253086786027845"><ele>1331.0</ele><time>2026-04-27T13:48:15Z</time></trkpt><trkpt lat="42.30435773258834" lon="13.253298308017445"><ele>1323.0</ele><time>2026-04-27T13:48:16Z</time></trkpt><trkpt lat="42.30443250516947" lon="13.253514445190072"><ele>1315.0</ele><time>2026-04-27T13:48:17Z</time></trkpt><trkpt lat="42.30450668638924" lon="13.253726488997689"><ele>1315.0</ele><time>2026-04-27T13:48:18Z</time></trkpt><trkpt lat="42.30457195380352" lon="13.253946206473978"><ele>1315.0</ele><time>2026-04-27T13:48:19Z</time></trkpt><trkpt lat="42.304654722398105" lon="13.254135277022387"><ele>1315.0</ele><time>2026-04-27T13:48:20Z</time></trkpt><trkpt lat="42.304722177968664" lon="13.254315902734712"><ele>1318.2</ele><time>2026-04-27T13:48:21Z</time></trkpt><trkpt lat="42.30478057773985" lon="13.254465885533719"><ele>1321.4</ele><time>2026-04-27T13:48:22Z</time></trkpt><trkpt lat="42.30483314646519" lon="13.254572506000082"><ele>1324.6</ele><time>2026-04-27T13:48:23Z</time></trkpt><trkpt lat="42.30490405791616" lon="13.254624941239"><ele>1327.8</ele><time>2026-04-27T13:48:24Z</time></trkpt><trkpt lat="42.305002900012695" lon="13.254627971983501"><ele>1331.0</ele><time>2026-04-27T13:48:25Z</time></trkpt><trkpt lat="42.305112506017856" lon="13.25459464422479"><ele>1331.0</ele><time>2026-04-27T13:48:26Z</time></trkpt><trkpt lat="42.30523208914629" lon="13.254538795252026"><ele>1331.0</ele><time>2026-04-27T13:48:27Z</time></trkpt><trkpt lat="42.305367085014616" lon="13.254468907313914"><ele>1331.0</ele><time>2026-04-27T13:48:28Z</time></trkpt><trkpt lat="42.305513107309324" lon="13.254390821735285"><ele>1331.0</ele><time>2026-04-27T13:48:29Z</time></trkpt><trkpt lat="42.30565229353567" lon="13.25430858949679"><ele>1329.0</ele><time>2026-04-27T13:48:30Z</time></trkpt><trkpt lat="42.305791479270376" lon="13.254210511973008"><ele>1327.0</ele><time>2026-04-27T13:48:31Z</time></trkpt><trkpt lat="42.30590740454464" lon="13.254131218291095"><ele>1325.0</ele><time>2026-04-27T13:48:32Z</time></trkpt><trkpt lat="42.30603870849588" lon="13.254111336629379"><ele>1323.0</ele><time>2026-04-27T13:48:33Z</time></trkpt><trkpt lat="42.306166741799004" lon="13.25410579976099"><ele>1323.0</ele><time>2026-04-27T13:48:34Z</time></trkpt><trkpt lat="42.3062807568673" lon="13.254076569932614"><ele>1323.0</ele><time>2026-04-27T13:48:35Z</time></trkpt><trkpt lat="42.3063861282341" lon="13.25402924912722"><ele>1323.0</ele><time>2026-04-27T13:48:36Z</time></trkpt><trkpt lat="42.30649204106026" lon="13.253995676590673"><ele>1323.0</ele><time>2026-04-27T13:48:37Z</time></trkpt><trkpt lat="42.30659140343724" lon="13.253963766338169"><ele>1323.0</ele><time>2026-04-27T13:48:38Z</time></trkpt><trkpt lat="42.30668576865877" lon="13.253936698865742"><ele>1328.5</ele><time>2026-04-27T13:48:39Z</time></trkpt><trkpt lat="42.30676926523068" lon="13.25392073793387"><ele>1334.0</ele><time>2026-04-27T13:48:40Z</time></trkpt><trkpt lat="42.30683330038128" lon="13.253914019130988"><ele>1339.5</ele><time>2026-04-27T13:48:41Z</time></trkpt><trkpt lat="42.30689866390846" lon="13.253913494854228"><ele>1345.0</ele><time>2026-04-27T13:48:42Z</time></trkpt><trkpt lat="42.30701163099258" lon="13.253899739932393"><ele>1350.5</ele><time>2026-04-27T13:48:44Z</time></trkpt><trkpt lat="42.30710160370228" lon="13.253866211354184"><ele>1356.0</ele><time>2026-04-27T13:48:46Z</time></trkpt><trkpt lat="42.30716107387839" lon="13.253838048703118"><ele>1356.0</ele><time>2026-04-27T13:48:48Z</time></trkpt><trkpt lat="42.30722593139251" lon="13.253805901980677"><ele>1356.0</ele><time>2026-04-27T13:48:51Z</time></trkpt><trkpt lat="42.30730157198803" lon="13.253789080462933"><ele>1356.0</ele><time>2026-04-27T13:48:55Z</time></trkpt><trkpt lat="42.30737479542771" lon="13.253764099167423"><ele>1356.0</ele><time>2026-04-27T13:48:57Z</time></trkpt><trkpt lat="42.307489549461025" lon="13.253729559950433"><ele>1356.0</ele><time>2026-04-27T13:48:59Z</time></trkpt><trkpt lat="42.307571108960204" lon="13.253726264467852"><ele>1356.0</ele><time>2026-04-27T13:49:00Z</time></trkpt><trkpt lat="42.30766026761245" lon="13.253737531404425"><ele>1352.0</ele><time>2026-04-27T13:49:01Z</time></trkpt><trkpt lat="42.30775644176867" lon="13.253750104291674"><ele>1348.0</ele><time>2026-04-27T13:49:02Z</time></trkpt><trkpt lat="42.30785309517996" lon="13.253764238565948"><ele>1344.0</ele><time>2026-04-27T13:49:03Z</time></trkpt><trkpt lat="42.30796522116544" lon="13.253769319463728"><ele>1340.0</ele><time>2026-04-27T13:49:04Z</time></trkpt><trkpt lat="42.30808531944987" lon="13.25377764169745"><ele>1336.0</ele><time>2026-04-27T13:49:05Z</time></trkpt><trkpt lat="42.308209800571206" lon="13.253784282649713"><ele>1333.5</ele><time>2026-04-27T13:49:06Z</time></trkpt><trkpt lat="42.30833176296239" lon="13.253800168742428"><ele>1331.0</ele><time>2026-04-27T13:49:07Z</time></trkpt><trkpt lat="42.30845755632689" lon="13.253824959975825"><ele>1328.5</ele><time>2026-04-27T13:49:08Z</time></trkpt><trkpt lat="42.30857443987667" lon="13.253854103200293"><ele>1326.0</ele><time>2026-04-27T13:49:09Z</time></trkpt><trkpt lat="42.30868294902067" lon="13.253896793545662"><ele>1326.0</ele><time>2026-04-27T13:49:10Z</time></trkpt><trkpt lat="42.30879214006246" lon="13.253941372500513"><ele>1326.0</ele><time>2026-04-27T13:49:11Z</time></trkpt><trkpt lat="42.30890577223845" lon="13.253985664755524"><ele>1326.0</ele><time>2026-04-27T13:49:12Z</time></trkpt><trkpt lat="42.30902680111264" lon="13.254027702894213"><ele>1326.0</ele><time>2026-04-27T13:49:13Z</time></trkpt><trkpt lat="42.30914261098371" lon="13.254055591731522"><ele>1325.25</ele><time>2026-04-27T13:49:14Z</time></trkpt><trkpt lat="42.309255129835215" lon="13.254059828110552"><ele>1324.5</ele><time>2026-04-27T13:49:15Z</time></trkpt><trkpt lat="42.309376404733506" lon="13.254012163565875"><ele>1323.75</ele><time>2026-04-27T13:49:16Z</time></trkpt><trkpt lat="42.30949928902056" lon="13.25391935393552"><ele>1323.0</ele><time>2026-04-27T13:49:17Z</time></trkpt><trkpt lat="42.30962413067942" lon="13.253804745547535"><ele>1317.6666666666667</ele><time>2026-04-27T13:49:18Z</time></trkpt><trkpt lat="42.30975352380932" lon="13.253709411408824"><ele>1312.3333333333335</ele><time>2026-04-27T13:49:19Z</time></trkpt><trkpt lat="42.309891276389386" lon="13.253609416864435"><ele>1307.0</ele><time>2026-04-27T13:49:20Z</time></trkpt><trkpt lat="42.31002955545255" lon="13.25350469451304"><ele>1307.0</ele><time>2026-04-27T13:49:21Z</time></trkpt><trkpt lat="42.31016378721504" lon="13.253404326943011"><ele>1307.0</ele><time>2026-04-27T13:49:22Z</time></trkpt><trkpt lat="42.31028771202106" lon="13.253305068620776"><ele>1307.0</ele><time>2026-04-27T13:49:23Z</time></trkpt><trkpt lat="42.31041755805496" lon="13.253204516814558"><ele>1307.0</ele><time>2026-04-27T13:49:24Z</time></trkpt><trkpt lat="42.31055350823633" lon="13.253106008957268"><ele>1309.0</ele><time>2026-04-27T13:49:25Z</time></trkpt><trkpt lat="42.310691016856076" lon="13.253018965379143"><ele>1311.0</ele><time>2026-04-27T13:49:26Z</time></trkpt><trkpt lat="42.310829683323256" lon="13.252950539799466"><ele>1313.0</ele><time>2026-04-27T13:49:27Z</time></trkpt><trkpt lat="42.310966803181124" lon="13.252920078277414"><ele>1315.0</ele><time>2026-04-27T13:49:28Z</time></trkpt><trkpt lat="42.31111268130103" lon="13.252911770388694"><ele>1315.0</ele><time>2026-04-27T13:49:29Z</time></trkpt><trkpt lat="42.31127450860803" lon="13.252912718535935"><ele>1315.0</ele><time>2026-04-27T13:49:30Z</time></trkpt><trkpt lat="42.311427967501324" lon="13.252895209727994"><ele>1315.0</ele><time>2026-04-27T13:49:31Z</time></trkpt><trkpt lat="42.311585803285695" lon="13.252848691032344"><ele>1312.5</ele><time>2026-04-27T13:49:32Z</time></trkpt><trkpt lat="42.31173174321993" lon="13.252809384260422"><ele>1310.0</ele><time>2026-04-27T13:49:33Z</time></trkpt><trkpt lat="42.311876428704224" lon="13.252802113861913"><ele>1307.5</ele><time>2026-04-27T13:49:33.999Z</time></trkpt><trkpt lat="42.31201665136427" lon="13.252842333063402"><ele>1305.0</ele><time>2026-04-27T13:49:34.999Z</time></trkpt><trkpt lat="42.312141950356306" lon="13.252907103423636"><ele>1301.25</ele><time>2026-04-27T13:49:35.999Z</time></trkpt><trkpt lat="42.312249909319824" lon="13.252936115386516"><ele>1297.5</ele><time>2026-04-27T13:49:36.999Z</time></trkpt><trkpt lat="42.31234765750745" lon="13.252899603697234"><ele>1293.75</ele><time>2026-04-27T13:49:37.999Z</time></trkpt><trkpt lat="42.31243930470805" lon="13.252806796267777"><ele>1290.0</ele><time>2026-04-27T13:49:38.999Z</time></trkpt><trkpt lat="42.31253566605688" lon="13.252686008668462"><ele>1290.0</ele><time>2026-04-27T13:49:39.999Z</time></trkpt><trkpt lat="42.31264427876883" lon="13.252585530498171"><ele>1290.0</ele><time>2026-04-27T13:49:40.999Z</time></trkpt><trkpt lat="42.31275618963228" lon="13.252513819972924"><ele>1290.0</ele><time>2026-04-27T13:49:41.999Z</time></trkpt><trkpt lat="42.31284516482913" lon="13.252406701247327"><ele>1290.0</ele><time>2026-04-27T13:49:42.999Z</time></trkpt><trkpt lat="42.31290560319874" lon="13.25225568438984"><ele>1288.8</ele><time>2026-04-27T13:49:43.999Z</time></trkpt><trkpt lat="42.31295010644799" lon="13.252105563491952"><ele>1287.6</ele><time>2026-04-27T13:49:44.999Z</time></trkpt><trkpt lat="42.313004613112916" lon="13.251988309358467"><ele>1286.4</ele><time>2026-04-27T13:49:45.999Z</time></trkpt><trkpt lat="42.31308649059234" lon="13.25190071013291"><ele>1285.2</ele><time>2026-04-27T13:49:47Z</time></trkpt><trkpt lat="42.31319074275812" lon="13.251849268090334"><ele>1284.0</ele><time>2026-04-27T13:49:48Z</time></trkpt><trkpt lat="42.31329973436743" lon="13.251793963602047"><ele>1284.0</ele><time>2026-04-27T13:49:49Z</time></trkpt><trkpt lat="42.31340423140572" lon="13.251742148309756"><ele>1284.0</ele><time>2026-04-27T13:49:50Z</time></trkpt><trkpt lat="42.31350686789916" lon="13.25167611901473"><ele>1284.0</ele><time>2026-04-27T13:49:51Z</time></trkpt><trkpt lat="42.3135644192697" lon="13.25152028263774"><ele>1284.0</ele><time>2026-04-27T13:49:52Z</time></trkpt><trkpt lat="42.313637640589675" lon="13.251409872646914"><ele>1287.0</ele><time>2026-04-27T13:49:53Z</time></trkpt><trkpt lat="42.31372971525305" lon="13.25133210995256"><ele>1290.0</ele><time>2026-04-27T13:49:54Z</time></trkpt><trkpt lat="42.31384864147177" lon="13.25132735548722"><ele>1293.0</ele><time>2026-04-27T13:49:55Z</time></trkpt><trkpt lat="42.31396757727065" lon="13.251287310332096"><ele>1296.0</ele><time>2026-04-27T13:49:56Z</time></trkpt><trkpt lat="42.31408935219347" lon="13.251245558051002"><ele>1296.0</ele><time>2026-04-27T13:49:57Z</time></trkpt><trkpt lat="42.31420578152516" lon="13.25117705694827"><ele>1296.0</ele><time>2026-04-27T13:49:58Z</time></trkpt><trkpt lat="42.31431137007045" lon="13.25111888293961"><ele>1296.0</ele><time>2026-04-27T13:49:59Z</time></trkpt><trkpt lat="42.314419706489204" lon="13.251091665502761"><ele>1296.0</ele><time>2026-04-27T13:50:00Z</time></trkpt><trkpt lat="42.314522479759546" lon="13.25110918940764"><ele>1296.0</ele><time>2026-04-27T13:50:01Z</time></trkpt><trkpt lat="42.31461652574072" lon="13.251180108719122"><ele>1296.0</ele><time>2026-04-27T13:50:02Z</time></trkpt><trkpt lat="42.31470388731228" lon="13.251283558021154"><ele>1296.0</ele><time>2026-04-27T13:50:03Z</time></trkpt><trkpt lat="42.31480057567904" lon="13.251390079518352"><ele>1296.0</ele><time>2026-04-27T13:50:04Z</time></trkpt><trkpt lat="42.314904704936914" lon="13.251501843132628"><ele>1290.25</ele><time>2026-04-27T13:50:05Z</time></trkpt><trkpt lat="42.31501273580609" lon="13.251620030597756"><ele>1284.5</ele><time>2026-04-27T13:50:06Z</time></trkpt><trkpt lat="42.31511781398037" lon="13.251739537662862"><ele>1278.75</ele><time>2026-04-27T13:50:07Z</time></trkpt><trkpt lat="42.31521021468622" lon="13.25185763690248"><ele>1273.0</ele><time>2026-04-27T13:50:08Z</time></trkpt><trkpt lat="42.31528582796202" lon="13.251983651899137"><ele>1273.0</ele><time>2026-04-27T13:50:09Z</time></trkpt><trkpt lat="42.315366466158906" lon="13.25209480489548"><ele>1273.0</ele><time>2026-04-27T13:50:10Z</time></trkpt><trkpt lat="42.31546248917923" lon="13.25217130296128"><ele>1273.0</ele><time>2026-04-27T13:50:11Z</time></trkpt><trkpt lat="42.31558331226043" lon="13.252212859731976"><ele>1273.0</ele><time>2026-04-27T13:50:12Z</time></trkpt><trkpt lat="42.31571632270426" lon="13.252213907953312"><ele>1278.5</ele><time>2026-04-27T13:50:13Z</time></trkpt><trkpt lat="42.31584623047687" lon="13.25219639813394"><ele>1284.0</ele><time>2026-04-27T13:50:14Z</time></trkpt><trkpt lat="42.31597749330008" lon="13.252166135563858"><ele>1289.5</ele><time>2026-04-27T13:50:15Z</time></trkpt><trkpt lat="42.316101415248724" lon="13.252123356448145"><ele>1295.0</ele><time>2026-04-27T13:50:16Z</time></trkpt><trkpt lat="42.316211328854884" lon="13.252069637863928"><ele>1295.0</ele><time>2026-04-27T13:50:17Z</time></trkpt><trkpt lat="42.31631524086268" lon="13.252028259007629"><ele>1295.0</ele><time>2026-04-27T13:50:18Z</time></trkpt><trkpt lat="42.31640924809598" lon="13.252008286426443"><ele>1295.0</ele><time>2026-04-27T13:50:19Z</time></trkpt><trkpt lat="42.31649308727687" lon="13.252025322665558"><ele>1295.0</ele><time>2026-04-27T13:50:20Z</time></trkpt><trkpt lat="42.31656080308153" lon="13.252087108777461"><ele>1295.0</ele><time>2026-04-27T13:50:21Z</time></trkpt><trkpt lat="42.31661132075137" lon="13.252181097115875"><ele>1294.2</ele><time>2026-04-27T13:50:22Z</time></trkpt><trkpt lat="42.31665069977501" lon="13.252284522512213"><ele>1293.4</ele><time>2026-04-27T13:50:23Z</time></trkpt><trkpt lat="42.31663895701806" lon="13.252398051378135"><ele>1292.6</ele><time>2026-04-27T13:50:24Z</time></trkpt><trkpt lat="42.3166034591771" lon="13.252514396945704"><ele>1291.8</ele><time>2026-04-27T13:50:25Z</time></trkpt><trkpt lat="42.31653084944571" lon="13.252606973528879"><ele>1291.0</ele><time>2026-04-27T13:50:26Z</time></trkpt><trkpt lat="42.31647058774901" lon="13.25271839573896"><ele>1288.1666666666665</ele><time>2026-04-27T13:50:27Z</time></trkpt><trkpt lat="42.31641810041505" lon="13.252818124925296"><ele>1285.3333333333333</ele><time>2026-04-27T13:50:28Z</time></trkpt><trkpt lat="42.31639371570233" lon="13.25292723600536"><ele>1282.5</ele><time>2026-04-27T13:50:29Z</time></trkpt><trkpt lat="42.3164147959895" lon="13.253022332315698"><ele>1279.6666666666667</ele><time>2026-04-27T13:50:30Z</time></trkpt><trkpt lat="42.316473111890815" lon="13.253086710119527"><ele>1276.8333333333335</ele><time>2026-04-27T13:50:31Z</time></trkpt><trkpt lat="42.3165553901251" lon="13.25310371055853"><ele>1274.0</ele><time>2026-04-27T13:50:32Z</time></trkpt><trkpt lat="42.316647985792024" lon="13.253068950197976"><ele>1274.0</ele><time>2026-04-27T13:50:33Z</time></trkpt><trkpt lat="42.31675001997172" lon="13.253023150977892"><ele>1274.0</ele><time>2026-04-27T13:50:34Z</time></trkpt><trkpt lat="42.31686308063727" lon="13.25298366307993"><ele>1274.0</ele><time>2026-04-27T13:50:35Z</time></trkpt><trkpt lat="42.31698610988553" lon="13.252945952848485"><ele>1274.0</ele><time>2026-04-27T13:50:36Z</time></trkpt><trkpt lat="42.317103643332814" lon="13.25290564402515"><ele>1274.5</ele><time>2026-04-27T13:50:37Z</time></trkpt><trkpt lat="42.317235992378826" lon="13.25285780587984"><ele>1275.0</ele><time>2026-04-27T13:50:38Z</time></trkpt><trkpt lat="42.31737428093864" lon="13.252803443362584"><ele>1275.5</ele><time>2026-04-27T13:50:39Z</time></trkpt><trkpt lat="42.317512370542985" lon="13.252750128078748"><ele>1276.0</ele><time>2026-04-27T13:50:40Z</time></trkpt><trkpt lat="42.31765320246509" lon="13.252692119393755"><ele>1276.0</ele><time>2026-04-27T13:50:41Z</time></trkpt><trkpt lat="42.31780450034469" lon="13.252642094958702"><ele>1276.0</ele><time>2026-04-27T13:50:42Z</time></trkpt><trkpt lat="42.317954711230854" lon="13.252601248339458"><ele>1276.0</ele><time>2026-04-27T13:50:43Z</time></trkpt><trkpt lat="42.31811064488497" lon="13.25259580505911"><ele>1274.0</ele><time>2026-04-27T13:50:44Z</time></trkpt><trkpt lat="42.31826348818506" lon="13.252561921149647"><ele>1272.0</ele><time>2026-04-27T13:50:45Z</time></trkpt><trkpt lat="42.31843183877511" lon="13.252557350371942"><ele>1270.0</ele><time>2026-04-27T13:50:46Z</time></trkpt><trkpt lat="42.31859672940428" lon="13.252552059542035"><ele>1270.0</ele><time>2026-04-27T13:50:47Z</time></trkpt><trkpt lat="42.318764292683824" lon="13.252533617283158"><ele>1270.0</ele><time>2026-04-27T13:50:48Z</time></trkpt><trkpt lat="42.318934643073455" lon="13.252492932857118"><ele>1270.0</ele><time>2026-04-27T13:50:49Z</time></trkpt><trkpt lat="42.31908944098954" lon="13.252443237476486"><ele>1268.3333333333333</ele><time>2026-04-27T13:50:50Z</time></trkpt><trkpt lat="42.319249981495304" lon="13.25240919764726"><ele>1266.6666666666667</ele><time>2026-04-27T13:50:51Z</time></trkpt><trkpt lat="42.319399128821956" lon="13.25238040638007"><ele>1265.0</ele><time>2026-04-27T13:50:52Z</time></trkpt><trkpt lat="42.31953747471413" lon="13.252365095238957"><ele>1265.0</ele><time>2026-04-27T13:50:53Z</time></trkpt><trkpt lat="42.319660796819456" lon="13.252343477052213"><ele>1265.0</ele><time>2026-04-27T13:50:54Z</time></trkpt><trkpt lat="42.319776992792086" lon="13.252284094576513"><ele>1265.0</ele><time>2026-04-27T13:50:55Z</time></trkpt><trkpt lat="42.31987463207017" lon="13.2521764965496"><ele>1265.0</ele><time>2026-04-27T13:50:56Z</time></trkpt><trkpt lat="42.3199546616919" lon="13.252021863088395"><ele>1269.0</ele><time>2026-04-27T13:50:57Z</time></trkpt><trkpt lat="42.320039490944666" lon="13.251859005049665"><ele>1273.0</ele><time>2026-04-27T13:50:58Z</time></trkpt><trkpt lat="42.32014904812584" lon="13.251719094201409"><ele>1277.0</ele><time>2026-04-27T13:50:59Z</time></trkpt><trkpt lat="42.320217246434794" lon="13.251563069418076"><ele>1281.0</ele><time>2026-04-27T13:51:00Z</time></trkpt><trkpt lat="42.32028516003722" lon="13.251399676253591"><ele>1284.0</ele><time>2026-04-27T13:51:01Z</time></trkpt><trkpt lat="42.320348878003315" lon="13.251221372161487"><ele>1287.0</ele><time>2026-04-27T13:51:02Z</time></trkpt><trkpt lat="42.320430757004665" lon="13.251064414188908"><ele>1290.0</ele><time>2026-04-27T13:51:03Z</time></trkpt><trkpt lat="42.32048330434842" lon="13.250911860932538"><ele>1293.0</ele><time>2026-04-27T13:51:04Z</time></trkpt><trkpt lat="42.32048915858258" lon="13.250735715177225"><ele>1294.0</ele><time>2026-04-27T13:51:05Z</time></trkpt><trkpt lat="42.32051268359718" lon="13.250581430189355"><ele>1295.0</ele><time>2026-04-27T13:51:06Z</time></trkpt><trkpt lat="42.32057374281598" lon="13.250476276308735"><ele>1296.0</ele><time>2026-04-27T13:51:07Z</time></trkpt><trkpt lat="42.32065574535195" lon="13.250405303307277"><ele>1297.0</ele><time>2026-04-27T13:51:08Z</time></trkpt><trkpt lat="42.32075584043162" lon="13.250350809550827"><ele>1298.0</ele><time>2026-04-27T13:51:09Z</time></trkpt><trkpt lat="42.320880036830445" lon="13.250348295923533"><ele>1292.0</ele><time>2026-04-27T13:51:10Z</time></trkpt><trkpt lat="42.321003780089185" lon="13.250400432652132"><ele>1286.0</ele><time>2026-04-27T13:51:11Z</time></trkpt><trkpt lat="42.321130234169075" lon="13.250465230500437"><ele>1280.0</ele><time>2026-04-27T13:51:12Z</time></trkpt><trkpt lat="42.32126406368705" lon="13.250523086714004"><ele>1274.0</ele><time>2026-04-27T13:51:13Z</time></trkpt><trkpt lat="42.32137808075298" lon="13.250597626461456"><ele>1269.0</ele><time>2026-04-27T13:51:14Z</time></trkpt><trkpt lat="42.321483324002656" lon="13.250658966949892"><ele>1264.0</ele><time>2026-04-27T13:51:15Z</time></trkpt><trkpt lat="42.321584188622495" lon="13.250716380872495"><ele>1259.0</ele><time>2026-04-27T13:51:16Z</time></trkpt><trkpt lat="42.32168136208125" lon="13.250770781193317"><ele>1254.0</ele><time>2026-04-27T13:51:17Z</time></trkpt><trkpt lat="42.321771907640844" lon="13.250825171622601"><ele>1249.0</ele><time>2026-04-27T13:51:18Z</time></trkpt><trkpt lat="42.32185524697351" lon="13.250886332024997"><ele>1249.0</ele><time>2026-04-27T13:51:19Z</time></trkpt><trkpt lat="42.32193481563587" lon="13.25096033365355"><ele>1249.0</ele><time>2026-04-27T13:51:20Z</time></trkpt><trkpt lat="42.32200750635949" lon="13.251058979322055"><ele>1249.0</ele><time>2026-04-27T13:51:21Z</time></trkpt><trkpt lat="42.32205379955983" lon="13.251143840663563"><ele>1249.0</ele><time>2026-04-27T13:51:22Z</time></trkpt><trkpt lat="42.32204489561061" lon="13.251243774558855"><ele>1249.0</ele><time>2026-04-27T13:51:23Z</time></trkpt><trkpt lat="42.32199704224099" lon="13.251311767112892"><ele>1249.0</ele><time>2026-04-27T13:51:24Z</time></trkpt><trkpt lat="42.321915995077354" lon="13.251323957080203"><ele>1249.0</ele><time>2026-04-27T13:51:25Z</time></trkpt><trkpt lat="42.32181967408678" lon="13.251301225108804"><ele>1249.0</ele><time>2026-04-27T13:51:26Z</time></trkpt><trkpt lat="42.321726161274924" lon="13.251283751671686"><ele>1249.0</ele><time>2026-04-27T13:51:27Z</time></trkpt><trkpt lat="42.321621535361196" lon="13.25125577789427"><ele>1249.0</ele><time>2026-04-27T13:51:28Z</time></trkpt><trkpt lat="42.32153090036858" lon="13.25120177533723"><ele>1249.0</ele><time>2026-04-27T13:51:29Z</time></trkpt><trkpt lat="42.32144971069972" lon="13.251111282700457"><ele>1249.4</ele><time>2026-04-27T13:51:30Z</time></trkpt><trkpt lat="42.321387821360126" lon="13.250985897796532"><ele>1249.8000000000002</ele><time>2026-04-27T13:51:31Z</time></trkpt><trkpt lat="42.32131340577306" lon="13.25088239320073"><ele>1250.1999999999998</ele><time>2026-04-27T13:51:32Z</time></trkpt><trkpt lat="42.321243554652085" lon="13.250793198831927"><ele>1250.6</ele><time>2026-04-27T13:51:33Z</time></trkpt><trkpt lat="42.32115631890658" lon="13.250700511416053"><ele>1251.0</ele><time>2026-04-27T13:51:34Z</time></trkpt><trkpt lat="42.3210393734177" lon="13.250638117979934"><ele>1251.0</ele><time>2026-04-27T13:51:35Z</time></trkpt><trkpt lat="42.32093857907611" lon="13.250628901947604"><ele>1251.0</ele><time>2026-04-27T13:51:36Z</time></trkpt><trkpt lat="42.32085478125383" lon="13.250609757544817"><ele>1251.0</ele><time>2026-04-27T13:51:37Z</time></trkpt><trkpt lat="42.32081324906093" lon="13.250685132549199"><ele>1251.0</ele><time>2026-04-27T13:51:38Z</time></trkpt><trkpt lat="42.32075014057973" lon="13.250787032403885"><ele>1251.0</ele><time>2026-04-27T13:51:39.999Z</time></trkpt><trkpt lat="42.320713789948144" lon="13.250865666765499"><ele>1251.0</ele><time>2026-04-27T13:51:40.999Z</time></trkpt><trkpt lat="42.32069497457939" lon="13.250984712120928"><ele>1251.0</ele><time>2026-04-27T13:51:41.999Z</time></trkpt><trkpt lat="42.320657097017694" lon="13.251118727476905"><ele>1251.0</ele><time>2026-04-27T13:51:42.999Z</time></trkpt><trkpt lat="42.32057756179691" lon="13.251247824951026"><ele>1251.0</ele><time>2026-04-27T13:51:43.999Z</time></trkpt><trkpt lat="42.32050876123722" lon="13.251401743580795"><ele>1251.0</ele><time>2026-04-27T13:51:44.999Z</time></trkpt><trkpt lat="42.32044507691425" lon="13.251581556559506"><ele>1258.5</ele><time>2026-04-27T13:51:45.999Z</time></trkpt><trkpt lat="42.320393575903914" lon="13.251763933720273"><ele>1266.0</ele><time>2026-04-27T13:51:46.999Z</time></trkpt><trkpt lat="42.32034044798875" lon="13.251936266520596"><ele>1273.5</ele><time>2026-04-27T13:51:47.999Z</time></trkpt><trkpt lat="42.32024345325273" lon="13.252087026934753"><ele>1281.0</ele><time>2026-04-27T13:51:48.999Z</time></trkpt><trkpt lat="42.320152365385226" lon="13.252256249622366"><ele>1272.75</ele><time>2026-04-27T13:51:49.999Z</time></trkpt><trkpt lat="42.32009850387157" lon="13.252435482989112"><ele>1264.5</ele><time>2026-04-27T13:51:50.999Z</time></trkpt><trkpt lat="42.32003685713112" lon="13.252592240099405"><ele>1256.25</ele><time>2026-04-27T13:51:51.999Z</time></trkpt><trkpt lat="42.319966933161474" lon="13.252731706813343"><ele>1248.0</ele><time>2026-04-27T13:51:52.999Z</time></trkpt><trkpt lat="42.31985616080176" lon="13.25281504674899"><ele>1248.0</ele><time>2026-04-27T13:51:53.999Z</time></trkpt><trkpt lat="42.31974381124933" lon="13.252878835533867"><ele>1248.0</ele><time>2026-04-27T13:51:54.999Z</time></trkpt><trkpt lat="42.31962000135416" lon="13.252949356472982"><ele>1248.0</ele><time>2026-04-27T13:51:55.999Z</time></trkpt><trkpt lat="42.31947691732575" lon="13.252988810508329"><ele>1248.0</ele><time>2026-04-27T13:51:56.999Z</time></trkpt><trkpt lat="42.31933260594649" lon="13.253027161074515"><ele>1244.5</ele><time>2026-04-27T13:51:57.999Z</time></trkpt><trkpt lat="42.319186832166785" lon="13.253059768607386"><ele>1241.0</ele><time>2026-04-27T13:51:58.999Z</time></trkpt><trkpt lat="42.31904160269146" lon="13.253119312356892"><ele>1237.5</ele><time>2026-04-27T13:52:00Z</time></trkpt><trkpt lat="42.31890411855032" lon="13.253181693455916"><ele>1234.0</ele><time>2026-04-27T13:52:01Z</time></trkpt><trkpt lat="42.318765453930034" lon="13.253237063592783"><ele>1234.0</ele><time>2026-04-27T13:52:02Z</time></trkpt><trkpt lat="42.31862196537438" lon="13.253273032735006"><ele>1234.0</ele><time>2026-04-27T13:52:03Z</time></trkpt><trkpt lat="42.31847763563218" lon="13.253288193692168"><ele>1234.0</ele><time>2026-04-27T13:52:04Z</time></trkpt><trkpt lat="42.31832088021999" lon="13.253306345082807"><ele>1234.0</ele><time>2026-04-27T13:52:05Z</time></trkpt><trkpt lat="42.318169359657205" lon="13.253345294527767"><ele>1236.6666666666665</ele><time>2026-04-27T13:52:06Z</time></trkpt><trkpt lat="42.31801812124557" lon="13.253407825129502"><ele>1239.3333333333333</ele><time>2026-04-27T13:52:07Z</time></trkpt><trkpt lat="42.317866070361625" lon="13.253476728454846"><ele>1242.0</ele><time>2026-04-27T13:52:08Z</time></trkpt><trkpt lat="42.317714805118456" lon="13.253544123622122"><ele>1242.0</ele><time>2026-04-27T13:52:09Z</time></trkpt><trkpt lat="42.31756769291288" lon="13.253600149780027"><ele>1242.0</ele><time>2026-04-27T13:52:10Z</time></trkpt><trkpt lat="42.31741619441871" lon="13.253655292694987"><ele>1242.0</ele><time>2026-04-27T13:52:11Z</time></trkpt><trkpt lat="42.317266876443185" lon="13.253719092095483"><ele>1245.3333333333333</ele><time>2026-04-27T13:52:12Z</time></trkpt><trkpt lat="42.31712027962194" lon="13.253793072829962"><ele>1248.6666666666665</ele><time>2026-04-27T13:52:13Z</time></trkpt><trkpt lat="42.31697281881664" lon="13.253867833818955"><ele>1252.0</ele><time>2026-04-27T13:52:14Z</time></trkpt><trkpt lat="42.3168215893045" lon="13.253950551390973"><ele>1238.0</ele><time>2026-04-27T13:52:15Z</time></trkpt><trkpt lat="42.31667081960268" lon="13.25403289702708"><ele>1224.0</ele><time>2026-04-27T13:52:16Z</time></trkpt><trkpt lat="42.31652960153348" lon="13.254109510691489"><ele>1210.0</ele><time>2026-04-27T13:52:17Z</time></trkpt><trkpt lat="42.31640203694492" lon="13.254172510942562"><ele>1208.75</ele><time>2026-04-27T13:52:18Z</time></trkpt><trkpt lat="42.316283962243716" lon="13.254203848283128"><ele>1207.5</ele><time>2026-04-27T13:52:19Z</time></trkpt><trkpt lat="42.316174233502934" lon="13.254192072208152"><ele>1206.25</ele><time>2026-04-27T13:52:20Z</time></trkpt><trkpt lat="42.316078075538954" lon="13.254092012926856"><ele>1205.0</ele><time>2026-04-27T13:52:21Z</time></trkpt><trkpt lat="42.31596440941752" lon="13.254006804591882"><ele>1205.75</ele><time>2026-04-27T13:52:22Z</time></trkpt><trkpt lat="42.315834061154035" lon="13.253950666315571"><ele>1206.5</ele><time>2026-04-27T13:52:23Z</time></trkpt><trkpt lat="42.31570133113454" lon="13.25390217601681"><ele>1207.25</ele><time>2026-04-27T13:52:24Z</time></trkpt><trkpt lat="42.31557082384646" lon="13.253852805376631"><ele>1208.0</ele><time>2026-04-27T13:52:25Z</time></trkpt><trkpt lat="42.31545377761052" lon="13.25380575304321"><ele>1208.0</ele><time>2026-04-27T13:52:26Z</time></trkpt><trkpt lat="42.31537731382567" lon="13.253702598267644"><ele>1208.0</ele><time>2026-04-27T13:52:27Z</time></trkpt><trkpt lat="42.31532470108182" lon="13.253581260597484"><ele>1208.0</ele><time>2026-04-27T13:52:28Z</time></trkpt><trkpt lat="42.315280306780345" lon="13.253430887302613"><ele>1208.0</ele><time>2026-04-27T13:52:29Z</time></trkpt><trkpt lat="42.31519720264949" lon="13.2533077850803"><ele>1208.0</ele><time>2026-04-27T13:52:30Z</time></trkpt><trkpt lat="42.31505990156327" lon="13.253275159706469"><ele>1208.0</ele><time>2026-04-27T13:52:31Z</time></trkpt><trkpt lat="42.31492863986454" lon="13.253247976444532"><ele>1208.0</ele><time>2026-04-27T13:52:32Z</time></trkpt><trkpt lat="42.31481092663453" lon="13.253169014748433"><ele>1208.0</ele><time>2026-04-27T13:52:33Z</time></trkpt><trkpt lat="42.31472613098196" lon="13.25304216933895"><ele>1213.5</ele><time>2026-04-27T13:52:34Z</time></trkpt><trkpt lat="42.314635256819" lon="13.252950877840917"><ele>1219.0</ele><time>2026-04-27T13:52:35Z</time></trkpt><trkpt lat="42.314522392363855" lon="13.25291184080601"><ele>1224.5</ele><time>2026-04-27T13:52:36Z</time></trkpt><trkpt lat="42.3144028739428" lon="13.25296498617021"><ele>1230.0</ele><time>2026-04-27T13:52:37Z</time></trkpt><trkpt lat="42.31429576144835" lon="13.253031027785623"><ele>1230.0</ele><time>2026-04-27T13:52:38Z</time></trkpt><trkpt lat="42.31418722373156" lon="13.25310707428979"><ele>1230.0</ele><time>2026-04-27T13:52:39Z</time></trkpt><trkpt lat="42.3140653489147" lon="13.253163821414534"><ele>1230.0</ele><time>2026-04-27T13:52:40Z</time></trkpt><trkpt lat="42.31397839241882" lon="13.253271643432848"><ele>1230.0</ele><time>2026-04-27T13:52:41Z</time></trkpt><trkpt lat="42.31392916357197" lon="13.253440943768764"><ele>1229.25</ele><time>2026-04-27T13:52:42Z</time></trkpt><trkpt lat="42.31386363844977" lon="13.253603223331107"><ele>1228.5</ele><time>2026-04-27T13:52:43Z</time></trkpt><trkpt lat="42.313783609530056" lon="13.25375428273823"><ele>1227.75</ele><time>2026-04-27T13:52:44Z</time></trkpt><trkpt lat="42.31368424143521" lon="13.253880657817795"><ele>1227.0</ele><time>2026-04-27T13:52:45Z</time></trkpt><trkpt lat="42.313599421268414" lon="13.254027997180183"><ele>1227.0</ele><time>2026-04-27T13:52:46Z</time></trkpt><trkpt lat="42.313584839149726" lon="13.254222154668716"><ele>1227.0</ele><time>2026-04-27T13:52:47Z</time></trkpt><trkpt lat="42.31356349988833" lon="13.254405827395994"><ele>1227.0</ele><time>2026-04-27T13:52:48Z</time></trkpt><trkpt lat="42.3135407598151" lon="13.254593332683491"><ele>1227.0</ele><time>2026-04-27T13:52:49Z</time></trkpt><trkpt lat="42.31350944338079" lon="13.25477271746405"><ele>1222.5</ele><time>2026-04-27T13:52:50Z</time></trkpt><trkpt lat="42.313471808812004" lon="13.25494505050255"><ele>1218.0</ele><time>2026-04-27T13:52:51Z</time></trkpt><trkpt lat="42.31342201822514" lon="13.255099670306029"><ele>1213.5</ele><time>2026-04-27T13:52:52Z</time></trkpt><trkpt lat="42.31335140721269" lon="13.255226379576209"><ele>1209.0</ele><time>2026-04-27T13:52:53Z</time></trkpt><trkpt lat="42.3132750571247" lon="13.255308295502038"><ele>1209.0</ele><time>2026-04-27T13:52:54Z</time></trkpt><trkpt lat="42.3131820683567" lon="13.25534245999465"><ele>1209.0</ele><time>2026-04-27T13:52:55Z</time></trkpt><trkpt lat="42.31308364694861" lon="13.255301332508985"><ele>1209.0</ele><time>2026-04-27T13:52:56Z</time></trkpt><trkpt lat="42.31297845266261" lon="13.255268803224135"><ele>1209.0</ele><time>2026-04-27T13:52:57Z</time></trkpt><trkpt lat="42.312863351438736" lon="13.255217920003325"><ele>1209.0</ele><time>2026-04-27T13:52:58Z</time></trkpt><trkpt lat="42.31274055445126" lon="13.25517334926468"><ele>1212.5</ele><time>2026-04-27T13:52:59Z</time></trkpt><trkpt lat="42.31262548115063" lon="13.255123777570805"><ele>1216.0</ele><time>2026-04-27T13:53:00Z</time></trkpt><trkpt lat="42.312506347359225" lon="13.255116686465318"><ele>1219.5</ele><time>2026-04-27T13:53:01Z</time></trkpt><trkpt lat="42.312403937980996" lon="13.255196590121779"><ele>1223.0</ele><time>2026-04-27T13:53:02Z</time></trkpt><trkpt lat="42.31232239230682" lon="13.255289079641114"><ele>1223.0</ele><time>2026-04-27T13:53:03Z</time></trkpt><trkpt lat="42.312248774284654" lon="13.255402739265405"><ele>1223.0</ele><time>2026-04-27T13:53:04Z</time></trkpt><trkpt lat="42.31225061142506" lon="13.255579216878338"><ele>1223.0</ele><time>2026-04-27T13:53:05Z</time></trkpt><trkpt lat="42.31225709107422" lon="13.255737925634806"><ele>1223.0</ele><time>2026-04-27T13:53:06Z</time></trkpt><trkpt lat="42.312277970523965" lon="13.255912695679418"><ele>1216.5</ele><time>2026-04-27T13:53:07Z</time></trkpt><trkpt lat="42.312290364074514" lon="13.256086199990651"><ele>1210.0</ele><time>2026-04-27T13:53:08Z</time></trkpt><trkpt lat="42.31228946858899" lon="13.256243579084463"><ele>1203.5</ele><time>2026-04-27T13:53:09Z</time></trkpt><trkpt lat="42.31225309316526" lon="13.256377933501"><ele>1197.0</ele><time>2026-04-27T13:53:10Z</time></trkpt><trkpt lat="42.3121830120849" lon="13.256490051881789"><ele>1196.0</ele><time>2026-04-27T13:53:11Z</time></trkpt><trkpt lat="42.31209803278382" lon="13.256586043663992"><ele>1195.0</ele><time>2026-04-27T13:53:12Z</time></trkpt><trkpt lat="42.312003059425464" lon="13.256669898763674"><ele>1194.0</ele><time>2026-04-27T13:53:13Z</time></trkpt><trkpt lat="42.311891278816184" lon="13.256708262225217"><ele>1193.0</ele><time>2026-04-27T13:53:14Z</time></trkpt><trkpt lat="42.31177215119344" lon="13.25668697407385"><ele>1193.0</ele><time>2026-04-27T13:53:15Z</time></trkpt><trkpt lat="42.311659527952486" lon="13.256624725173662"><ele>1193.0</ele><time>2026-04-27T13:53:16Z</time></trkpt><trkpt lat="42.311546414160844" lon="13.256549228350945"><ele>1193.0</ele><time>2026-04-27T13:53:17Z</time></trkpt><trkpt lat="42.31142275881583" lon="13.256506046802999"><ele>1193.0</ele><time>2026-04-27T13:53:18Z</time></trkpt><trkpt lat="42.31130523622247" lon="13.25650756578579"><ele>1197.25</ele><time>2026-04-27T13:53:19Z</time></trkpt><trkpt lat="42.311197664935456" lon="13.256560832187892"><ele>1201.5</ele><time>2026-04-27T13:53:20Z</time></trkpt><trkpt lat="42.31111431305049" lon="13.256659903762184"><ele>1205.75</ele><time>2026-04-27T13:53:21Z</time></trkpt><trkpt lat="42.31104604075109" lon="13.256793019053584"><ele>1210.0</ele><time>2026-04-27T13:53:22Z</time></trkpt><trkpt lat="42.31098330869212" lon="13.256945417852004"><ele>1210.0</ele><time>2026-04-27T13:53:23Z</time></trkpt><trkpt lat="42.31092071490915" lon="13.257112545608354"><ele>1210.0</ele><time>2026-04-27T13:53:24Z</time></trkpt><trkpt lat="42.31086101428398" lon="13.257295088730649"><ele>1210.0</ele><time>2026-04-27T13:53:25Z</time></trkpt><trkpt lat="42.31080467342351" lon="13.257459304053683"><ele>1210.0</ele><time>2026-04-27T13:53:26Z</time></trkpt><trkpt lat="42.31073099769154" lon="13.257599386855789"><ele>1209.25</ele><time>2026-04-27T13:53:27Z</time></trkpt><trkpt lat="42.31066743084195" lon="13.25774234904522"><ele>1208.5</ele><time>2026-04-27T13:53:28Z</time></trkpt><trkpt lat="42.31057121632223" lon="13.25784569306754"><ele>1207.75</ele><time>2026-04-27T13:53:29Z</time></trkpt><trkpt lat="42.31046220868415" lon="13.257934199936809"><ele>1207.0</ele><time>2026-04-27T13:53:30Z</time></trkpt><trkpt lat="42.31034023431817" lon="13.257987271154843"><ele>1207.0</ele><time>2026-04-27T13:53:31Z</time></trkpt><trkpt lat="42.310211330571676" lon="13.257990888476204"><ele>1207.0</ele><time>2026-04-27T13:53:32Z</time></trkpt><trkpt lat="42.31008474003031" lon="13.257987337597054"><ele>1207.0</ele><time>2026-04-27T13:53:33Z</time></trkpt><trkpt lat="42.30995328570954" lon="13.258007756287947"><ele>1207.0</ele><time>2026-04-27T13:53:34Z</time></trkpt><trkpt lat="42.30984421385913" lon="13.258105675408748"><ele>1204.5</ele><time>2026-04-27T13:53:35Z</time></trkpt><trkpt lat="42.309762182388866" lon="13.25824730657745"><ele>1202.0</ele><time>2026-04-27T13:53:36Z</time></trkpt><trkpt lat="42.309687027499045" lon="13.258407489644249"><ele>1199.5</ele><time>2026-04-27T13:53:37Z</time></trkpt><trkpt lat="42.30960796045202" lon="13.258566115899788"><ele>1197.0</ele><time>2026-04-27T13:53:38Z</time></trkpt><trkpt lat="42.309537806419236" lon="13.258732768997907"><ele>1197.0</ele><time>2026-04-27T13:53:39Z</time></trkpt><trkpt lat="42.30943953116083" lon="13.258867492956949"><ele>1197.0</ele><time>2026-04-27T13:53:40Z</time></trkpt><trkpt lat="42.30933176557667" lon="13.258973201106297"><ele>1197.0</ele><time>2026-04-27T13:53:41Z</time></trkpt><trkpt lat="42.30921510382015" lon="13.25905801390033"><ele>1197.0</ele><time>2026-04-27T13:53:42Z</time></trkpt><trkpt lat="42.309079494777066" lon="13.2590819713524"><ele>1192.25</ele><time>2026-04-27T13:53:43Z</time></trkpt><trkpt lat="42.308941836215254" lon="13.259122912393881"><ele>1187.5</ele><time>2026-04-27T13:53:44Z</time></trkpt><trkpt lat="42.30880444509836" lon="13.259207513056365"><ele>1182.75</ele><time>2026-04-27T13:53:45Z</time></trkpt><trkpt lat="42.30865727486777" lon="13.259275325439305"><ele>1178.0</ele><time>2026-04-27T13:53:46Z</time></trkpt><trkpt lat="42.308529879553355" lon="13.25938964917512"><ele>1178.0</ele><time>2026-04-27T13:53:47Z</time></trkpt><trkpt lat="42.308375619663735" lon="13.259482135547806"><ele>1178.0</ele><time>2026-04-27T13:53:48Z</time></trkpt><trkpt lat="42.30823291113074" lon="13.259591979809327"><ele>1178.0</ele><time>2026-04-27T13:53:49Z</time></trkpt><trkpt lat="42.308095306585216" lon="13.259706047324777"><ele>1172.5</ele><time>2026-04-27T13:53:50Z</time></trkpt><trkpt lat="42.30796914741503" lon="13.259811256975008"><ele>1167.0</ele><time>2026-04-27T13:53:51Z</time></trkpt><trkpt lat="42.30784853089142" lon="13.2598983536881"><ele>1161.5</ele><time>2026-04-27T13:53:52Z</time></trkpt><trkpt lat="42.30772856233922" lon="13.259969893501122"><ele>1156.0</ele><time>2026-04-27T13:53:53Z</time></trkpt><trkpt lat="42.30760260201679" lon="13.259990996250641"><ele>1156.0</ele><time>2026-04-27T13:53:54Z</time></trkpt><trkpt lat="42.30747008617245" lon="13.25999276599702"><ele>1156.0</ele><time>2026-04-27T13:53:55Z</time></trkpt><trkpt lat="42.30734265015085" lon="13.259959913248222"><ele>1156.0</ele><time>2026-04-27T13:53:56Z</time></trkpt><trkpt lat="42.307264871876306" lon="13.259840053519705"><ele>1156.0</ele><time>2026-04-27T13:53:57Z</time></trkpt><trkpt lat="42.30717458141073" lon="13.259715441870426"><ele>1153.5</ele><time>2026-04-27T13:53:58Z</time></trkpt><trkpt lat="42.307082928640675" lon="13.259569485467967"><ele>1151.0</ele><time>2026-04-27T13:53:59Z</time></trkpt><trkpt lat="42.306987582280236" lon="13.259418204749277"><ele>1148.5</ele><time>2026-04-27T13:54:00Z</time></trkpt><trkpt lat="42.306883704441944" lon="13.259266832931742"><ele>1146.0</ele><time>2026-04-27T13:54:01Z</time></trkpt><trkpt lat="42.30682925014744" lon="13.259070189029774"><ele>1149.0</ele><time>2026-04-27T13:54:02Z</time></trkpt><trkpt lat="42.30677452099062" lon="13.258868374912511"><ele>1152.0</ele><time>2026-04-27T13:54:03Z</time></trkpt><trkpt lat="42.30671425769671" lon="13.258662623493016"><ele>1155.0</ele><time>2026-04-27T13:54:04Z</time></trkpt><trkpt lat="42.30663896153444" lon="13.258470053470814"><ele>1155.0</ele><time>2026-04-27T13:54:05Z</time></trkpt><trkpt lat="42.306572285538685" lon="13.258283396111498"><ele>1155.0</ele><time>2026-04-27T13:54:06Z</time></trkpt><trkpt lat="42.306492453870234" lon="13.258122908682894"><ele>1155.0</ele><time>2026-04-27T13:54:07Z</time></trkpt><trkpt lat="42.30639736233719" lon="13.25798576235648"><ele>1155.0</ele><time>2026-04-27T13:54:08Z</time></trkpt><trkpt lat="42.30627920078167" lon="13.257873132008987"><ele>1157.6666666666667</ele><time>2026-04-27T13:54:09Z</time></trkpt><trkpt lat="42.306137277524456" lon="13.257789024709073"><ele>1160.3333333333335</ele><time>2026-04-27T13:54:10Z</time></trkpt><trkpt lat="42.305992146928716" lon="13.257749675223614"><ele>1163.0</ele><time>2026-04-27T13:54:11Z</time></trkpt><trkpt lat="42.30582876503606" lon="13.257785115951393"><ele>1163.0</ele><time>2026-04-27T13:54:12Z</time></trkpt><trkpt lat="42.30566529111847" lon="13.257825635383414"><ele>1163.0</ele><time>2026-04-27T13:54:13Z</time></trkpt><trkpt lat="42.305501276112956" lon="13.257844365054375"><ele>1163.0</ele><time>2026-04-27T13:54:14Z</time></trkpt><trkpt lat="42.30534747701252" lon="13.257909551684495"><ele>1161.75</ele><time>2026-04-27T13:54:15Z</time></trkpt><trkpt lat="42.30520320609619" lon="13.257938911112014"><ele>1160.5</ele><time>2026-04-27T13:54:16Z</time></trkpt><trkpt lat="42.30506558632999" lon="13.257904776832897"><ele>1159.25</ele><time>2026-04-27T13:54:17Z</time></trkpt><trkpt lat="42.304923122293026" lon="13.25787063021648"><ele>1158.0</ele><time>2026-04-27T13:54:18Z</time></trkpt><trkpt lat="42.30476494896092" lon="13.257839769396421"><ele>1160.0</ele><time>2026-04-27T13:54:19Z</time></trkpt><trkpt lat="42.30461416339908" lon="13.257860595684692"><ele>1162.0</ele><time>2026-04-27T13:54:20Z</time></trkpt><trkpt lat="42.30445572370366" lon="13.257902725333622"><ele>1164.0</ele><time>2026-04-27T13:54:21Z</time></trkpt><trkpt lat="42.30430245088963" lon="13.257964138692808"><ele>1164.0</ele><time>2026-04-27T13:54:22Z</time></trkpt><trkpt lat="42.30414229551236" lon="13.25803191643107"><ele>1164.0</ele><time>2026-04-27T13:54:23Z</time></trkpt><trkpt lat="42.303981246703835" lon="13.258095425786967"><ele>1164.0</ele><time>2026-04-27T13:54:24Z</time></trkpt><trkpt lat="42.303810646467625" lon="13.258166405069698"><ele>1152.3333333333333</ele><time>2026-04-27T13:54:25Z</time></trkpt><trkpt lat="42.303645241436925" lon="13.2582243460117"><ele>1140.6666666666665</ele><time>2026-04-27T13:54:26Z</time></trkpt><trkpt lat="42.303499377736145" lon="13.2582776751844"><ele>1129.0</ele><time>2026-04-27T13:54:27Z</time></trkpt><trkpt lat="42.30337215120406" lon="13.25832626751002"><ele>1129.0</ele><time>2026-04-27T13:54:28Z</time></trkpt><trkpt lat="42.30325351102838" lon="13.25835464507767"><ele>1129.0</ele><time>2026-04-27T13:54:29Z</time></trkpt><trkpt lat="42.303140862683954" lon="13.258339862316914"><ele>1129.0</ele><time>2026-04-27T13:54:30Z</time></trkpt><trkpt lat="42.3030555941219" lon="13.25824504773357"><ele>1129.0</ele><time>2026-04-27T13:54:31Z</time></trkpt><trkpt lat="42.30296776895631" lon="13.258131398411924"><ele>1130.0</ele><time>2026-04-27T13:54:32Z</time></trkpt><trkpt lat="42.30286096693985" lon="13.25802336662239"><ele>1131.0</ele><time>2026-04-27T13:54:33Z</time></trkpt><trkpt lat="42.30275913555498" lon="13.257895819166215"><ele>1132.0</ele><time>2026-04-27T13:54:34Z</time></trkpt><trkpt lat="42.30265163370864" lon="13.257763000702035"><ele>1133.0</ele><time>2026-04-27T13:54:35Z</time></trkpt><trkpt lat="42.30253733490854" lon="13.257621635083865"><ele>1133.0</ele><time>2026-04-27T13:54:36Z</time></trkpt><trkpt lat="42.30242607872703" lon="13.25747203309366"><ele>1133.0</ele><time>2026-04-27T13:54:37Z</time></trkpt><trkpt lat="42.302310310183145" lon="13.25732648042252"><ele>1133.0</ele><time>2026-04-27T13:54:38Z</time></trkpt><trkpt lat="42.30218077315954" lon="13.257202810073226"><ele>1132.25</ele><time>2026-04-27T13:54:39Z</time></trkpt><trkpt lat="42.30205306714756" lon="13.257112754343398"><ele>1131.5</ele><time>2026-04-27T13:54:40Z</time></trkpt><trkpt lat="42.30191716857742" lon="13.257031719187916"><ele>1130.75</ele><time>2026-04-27T13:54:41Z</time></trkpt><trkpt lat="42.301786201395416" lon="13.256948997607775"><ele>1130.0</ele><time>2026-04-27T13:54:42Z</time></trkpt><trkpt lat="42.30166025778997" lon="13.256871778599209"><ele>1130.0</ele><time>2026-04-27T13:54:43Z</time></trkpt><trkpt lat="42.30154582934497" lon="13.256804918136828"><ele>1130.0</ele><time>2026-04-27T13:54:44Z</time></trkpt><trkpt lat="42.30143896289825" lon="13.256781291124245"><ele>1130.0</ele><time>2026-04-27T13:54:45Z</time></trkpt><trkpt lat="42.30134916463276" lon="13.256816703218032"><ele>1130.0</ele><time>2026-04-27T13:54:46Z</time></trkpt><trkpt lat="42.30128227653511" lon="13.256905470054225"><ele>1130.0</ele><time>2026-04-27T13:54:47Z</time></trkpt><trkpt lat="42.301232884283614" lon="13.257029254635054"><ele>1135.25</ele><time>2026-04-27T13:54:48Z</time></trkpt><trkpt lat="42.301198304935234" lon="13.257173993899066"><ele>1140.5</ele><time>2026-04-27T13:54:49Z</time></trkpt><trkpt lat="42.30115920343648" lon="13.257326617503761"><ele>1145.75</ele><time>2026-04-27T13:54:50Z</time></trkpt><trkpt lat="42.30112547518191" lon="13.25749723646377"><ele>1151.0</ele><time>2026-04-27T13:54:51Z</time></trkpt><trkpt lat="42.301082258479944" lon="13.257673684024615"><ele>1151.0</ele><time>2026-04-27T13:54:52Z</time></trkpt><trkpt lat="42.30105933198968" lon="13.257851806323018"><ele>1151.0</ele><time>2026-04-27T13:54:53Z</time></trkpt><trkpt lat="42.30103778510239" lon="13.258030684937795"><ele>1151.0</ele><time>2026-04-27T13:54:54Z</time></trkpt><trkpt lat="42.30101657585754" lon="13.258207045722479"><ele>1151.0</ele><time>2026-04-27T13:54:55Z</time></trkpt><trkpt lat="42.30099266285204" lon="13.258386146970391"><ele>1148.0</ele><time>2026-04-27T13:54:56Z</time></trkpt><trkpt lat="42.30097031437503" lon="13.258566813131228"><ele>1145.0</ele><time>2026-04-27T13:54:57Z</time></trkpt><trkpt lat="42.30096790529965" lon="13.258753335176959"><ele>1142.0</ele><time>2026-04-27T13:54:58Z</time></trkpt><trkpt lat="42.300948308041896" lon="13.258944459698565"><ele>1139.0</ele><time>2026-04-27T13:54:59Z</time></trkpt><trkpt lat="42.30095510418051" lon="13.259146599684966"><ele>1138.0</ele><time>2026-04-27T13:55:00Z</time></trkpt><trkpt lat="42.30096710756245" lon="13.259354052277319"><ele>1137.0</ele><time>2026-04-27T13:55:01Z</time></trkpt><trkpt lat="42.30097944218337" lon="13.259537669978403"><ele>1136.0</ele><time>2026-04-27T13:55:02Z</time></trkpt><trkpt lat="42.30098987073502" lon="13.259715588829708"><ele>1135.0</ele><time>2026-04-27T13:55:03Z</time></trkpt><trkpt lat="42.30100866733383" lon="13.25988535297111"><ele>1134.25</ele><time>2026-04-27T13:55:04Z</time></trkpt><trkpt lat="42.301047195574256" lon="13.260065995856507"><ele>1133.5</ele><time>2026-04-27T13:55:05Z</time></trkpt><trkpt lat="42.30107946949014" lon="13.260248084808728"><ele>1132.75</ele><time>2026-04-27T13:55:06Z</time></trkpt><trkpt lat="42.3011125117619" lon="13.26044098344817"><ele>1132.0</ele><time>2026-04-27T13:55:07Z</time></trkpt><trkpt lat="42.301137782548594" lon="13.260608969156207"><ele>1129.4</ele><time>2026-04-27T13:55:08Z</time></trkpt><trkpt lat="42.30115833515948" lon="13.260777927156967"><ele>1126.8000000000002</ele><time>2026-04-27T13:55:09Z</time></trkpt><trkpt lat="42.3011583455987" lon="13.26092484337253"><ele>1124.2</ele><time>2026-04-27T13:55:10Z</time></trkpt><trkpt lat="42.30111986819355" lon="13.26105168441229"><ele>1121.6000000000001</ele><time>2026-04-27T13:55:11Z</time></trkpt><trkpt lat="42.30104799478289" lon="13.26115249400829"><ele>1119.0</ele><time>2026-04-27T13:55:12Z</time></trkpt><trkpt lat="42.30095010273905" lon="13.261242631873913"><ele>1119.0</ele><time>2026-04-27T13:55:13Z</time></trkpt><trkpt lat="42.30083496766971" lon="13.261317589575155"><ele>1119.0</ele><time>2026-04-27T13:55:14Z</time></trkpt><trkpt lat="42.300715223753215" lon="13.261397282141862"><ele>1119.0</ele><time>2026-04-27T13:55:15Z</time></trkpt><trkpt lat="42.300591075627864" lon="13.261456856459766"><ele>1119.0</ele><time>2026-04-27T13:55:16Z</time></trkpt><trkpt lat="42.300469553125424" lon="13.261516627467717"><ele>1117.25</ele><time>2026-04-27T13:55:17Z</time></trkpt><trkpt lat="42.30036668407105" lon="13.261577938268283"><ele>1115.5</ele><time>2026-04-27T13:55:18Z</time></trkpt><trkpt lat="42.30028810585971" lon="13.261691677916104"><ele>1113.75</ele><time>2026-04-27T13:55:19Z</time></trkpt><trkpt lat="42.30022710439582" lon="13.261843005512512"><ele>1112.0</ele><time>2026-04-27T13:55:20Z</time></trkpt><trkpt lat="42.300182839796236" lon="13.262008535546085"><ele>1112.0</ele><time>2026-04-27T13:55:21Z</time></trkpt><trkpt lat="42.300140760621964" lon="13.262146975468482"><ele>1112.0</ele><time>2026-04-27T13:55:22Z</time></trkpt><trkpt lat="42.300076180701744" lon="13.262251715890347"><ele>1112.0</ele><time>2026-04-27T13:55:23Z</time></trkpt><trkpt lat="42.29996681135865" lon="13.26228422730879"><ele>1112.0</ele><time>2026-04-27T13:55:24Z</time></trkpt><trkpt lat="42.29985292165386" lon="13.262350983037596"><ele>1112.0</ele><time>2026-04-27T13:55:25Z</time></trkpt><trkpt lat="42.29973310612593" lon="13.262426923762604"><ele>1106.0</ele><time>2026-04-27T13:55:26Z</time></trkpt><trkpt lat="42.29963394534071" lon="13.262536145535792"><ele>1100.0</ele><time>2026-04-27T13:55:27Z</time></trkpt><trkpt lat="42.299541454269544" lon="13.262627725589175"><ele>1094.0</ele><time>2026-04-27T13:55:28Z</time></trkpt><trkpt lat="42.299456643794485" lon="13.262694128179241"><ele>1088.0</ele><time>2026-04-27T13:55:29Z</time></trkpt><trkpt lat="42.29937068817365" lon="13.262705266076665"><ele>1082.0</ele><time>2026-04-27T13:55:30Z</time></trkpt><trkpt lat="42.299297287753774" lon="13.262611422961102"><ele>1082.0</ele><time>2026-04-27T13:55:31Z</time></trkpt><trkpt lat="42.29922018722636" lon="13.2625345872697"><ele>1082.0</ele><time>2026-04-27T13:55:32Z</time></trkpt><trkpt lat="42.29918162067969" lon="13.262386179862546"><ele>1082.0</ele><time>2026-04-27T13:55:33Z</time></trkpt><trkpt lat="42.299118602625924" lon="13.262242173150218"><ele>1082.0</ele><time>2026-04-27T13:55:34Z</time></trkpt><trkpt lat="42.29908460213367" lon="13.262070115445297"><ele>1085.0</ele><time>2026-04-27T13:55:35Z</time></trkpt><trkpt lat="42.299046734805955" lon="13.261899477126411"><ele>1088.0</ele><time>2026-04-27T13:55:36Z</time></trkpt><trkpt lat="42.29900924849533" lon="13.261746016534724"><ele>1091.0</ele><time>2026-04-27T13:55:37Z</time></trkpt><trkpt lat="42.29897289626437" lon="13.26161287527921"><ele>1094.0</ele><time>2026-04-27T13:55:38Z</time></trkpt><trkpt lat="42.298923417882165" lon="13.261516902577771"><ele>1097.0</ele><time>2026-04-27T13:55:39Z</time></trkpt><trkpt lat="42.29884740707194" lon="13.261467265862317"><ele>1097.0</ele><time>2026-04-27T13:55:40Z</time></trkpt><trkpt lat="42.298755706281824" lon="13.261474600459703"><ele>1097.0</ele><time>2026-04-27T13:55:41Z</time></trkpt><trkpt lat="42.29867013138563" lon="13.261545624675957"><ele>1097.0</ele><time>2026-04-27T13:55:42Z</time></trkpt><trkpt lat="42.298602220580065" lon="13.261653513532702"><ele>1097.0</ele><time>2026-04-27T13:55:43Z</time></trkpt><trkpt lat="42.298523824199926" lon="13.261768768460763"><ele>1097.0</ele><time>2026-04-27T13:55:44Z</time></trkpt><trkpt lat="42.29842087701486" lon="13.26185427551943"><ele>1097.0</ele><time>2026-04-27T13:55:45Z</time></trkpt><trkpt lat="42.298323719923815" lon="13.26194709246413"><ele>1097.0</ele><time>2026-04-27T13:55:46Z</time></trkpt><trkpt lat="42.29820428762363" lon="13.26197107508691"><ele>1097.0</ele><time>2026-04-27T13:55:47Z</time></trkpt><trkpt lat="42.29807873432172" lon="13.261997448081615"><ele>1097.0</ele><time>2026-04-27T13:55:48Z</time></trkpt><trkpt lat="42.29796943334012" lon="13.26207360789468"><ele>1096.6</ele><time>2026-04-27T13:55:49Z</time></trkpt><trkpt lat="42.2978888186296" lon="13.262172060871317"><ele>1096.2</ele><time>2026-04-27T13:55:50Z</time></trkpt><trkpt lat="42.29784554537617" lon="13.262300598870958"><ele>1095.8</ele><time>2026-04-27T13:55:51Z</time></trkpt><trkpt lat="42.29784081224177" lon="13.26244274369509"><ele>1095.4</ele><time>2026-04-27T13:55:52Z</time></trkpt><trkpt lat="42.29786098792906" lon="13.26261067245469"><ele>1095.0</ele><time>2026-04-27T13:55:53Z</time></trkpt><trkpt lat="42.297844324137245" lon="13.26277624123658"><ele>1095.0</ele><time>2026-04-27T13:55:54Z</time></trkpt><trkpt lat="42.29780428260498" lon="13.26293896343268"><ele>1095.0</ele><time>2026-04-27T13:55:55Z</time></trkpt><trkpt lat="42.29774721812932" lon="13.263073071601717"><ele>1095.0</ele><time>2026-04-27T13:55:56Z</time></trkpt><trkpt lat="42.29769175315471" lon="13.263188386265293"><ele>1095.0</ele><time>2026-04-27T13:55:57Z</time></trkpt><trkpt lat="42.29761381077434" lon="13.263246723621554"><ele>1095.0</ele><time>2026-04-27T13:55:58Z</time></trkpt><trkpt lat="42.29751184725152" lon="13.263263950541065"><ele>1093.0</ele><time>2026-04-27T13:55:59Z</time></trkpt><trkpt lat="42.29739813666117" lon="13.263256952114363"><ele>1091.0</ele><time>2026-04-27T13:56:00Z</time></trkpt><trkpt lat="42.29727179299662" lon="13.263229664915123"><ele>1089.0</ele><time>2026-04-27T13:56:01Z</time></trkpt><trkpt lat="42.297159055363245" lon="13.263157558021321"><ele>1087.0</ele><time>2026-04-27T13:56:02Z</time></trkpt><trkpt lat="42.29704789991181" lon="13.263136743179176"><ele>1087.0</ele><time>2026-04-27T13:56:03Z</time></trkpt><trkpt lat="42.29694817384434" lon="13.263201381082245"><ele>1087.0</ele><time>2026-04-27T13:56:04Z</time></trkpt><trkpt lat="42.29686579023826" lon="13.263301284770874"><ele>1087.0</ele><time>2026-04-27T13:56:05Z</time></trkpt><trkpt lat="42.29678900880904" lon="13.263431522631993"><ele>1087.0</ele><time>2026-04-27T13:56:06Z</time></trkpt><trkpt lat="42.29673863883466" lon="13.26357532060067"><ele>1087.0</ele><time>2026-04-27T13:56:07Z</time></trkpt><trkpt lat="42.29672206806548" lon="13.26373724060018"><ele>1087.0</ele><time>2026-04-27T13:56:08Z</time></trkpt><trkpt lat="42.296744979169425" lon="13.26390212700688"><ele>1087.0</ele><time>2026-04-27T13:56:09Z</time></trkpt><trkpt lat="42.296772691609114" lon="13.26404939879874"><ele>1087.0</ele><time>2026-04-27T13:56:10Z</time></trkpt><trkpt lat="42.29675932112533" lon="13.264189633328494"><ele>1083.0</ele><time>2026-04-27T13:56:11Z</time></trkpt><trkpt lat="42.29668225971472" lon="13.26430448910353"><ele>1079.0</ele><time>2026-04-27T13:56:12Z</time></trkpt><trkpt lat="42.296586927957605" lon="13.264409030015505"><ele>1075.0</ele><time>2026-04-27T13:56:13Z</time></trkpt><trkpt lat="42.29649120686301" lon="13.264526091626273"><ele>1071.0</ele><time>2026-04-27T13:56:14Z</time></trkpt><trkpt lat="42.296433976758735" lon="13.264670698579712"><ele>1068.0</ele><time>2026-04-27T13:56:15Z</time></trkpt><trkpt lat="42.29644777058025" lon="13.264849990434588"><ele>1065.0</ele><time>2026-04-27T13:56:16Z</time></trkpt><trkpt lat="42.29645807323169" lon="13.264998518860654"><ele>1062.0</ele><time>2026-04-27T13:56:17Z</time></trkpt><trkpt lat="42.296465121794334" lon="13.265121508565917"><ele>1059.0</ele><time>2026-04-27T13:56:18Z</time></trkpt><trkpt lat="42.29643511850114" lon="13.26521941821179"><ele>1056.0</ele><time>2026-04-27T13:56:19Z</time></trkpt><trkpt lat="42.29640667867687" lon="13.265298144977757"><ele>1056.0</ele><time>2026-04-27T13:56:20Z</time></trkpt><trkpt lat="42.29646073809323" lon="13.265442644778302"><ele>1056.0</ele><time>2026-04-27T13:56:21Z</time></trkpt><trkpt lat="42.29641909969253" lon="13.265557420936156"><ele>1056.0</ele><time>2026-04-27T13:56:22Z</time></trkpt><trkpt lat="42.29639467399209" lon="13.265709177657156"><ele>1056.0</ele><time>2026-04-27T13:56:23Z</time></trkpt><trkpt lat="42.29635261710659" lon="13.265825892899885"><ele>1056.0</ele><time>2026-04-27T13:56:24Z</time></trkpt><trkpt lat="42.29631429074777" lon="13.26595172672276"><ele>1054.3333333333333</ele><time>2026-04-27T13:56:25Z</time></trkpt><trkpt lat="42.29629095931851" lon="13.266049329577223"><ele>1052.6666666666667</ele><time>2026-04-27T13:56:26Z</time></trkpt><trkpt lat="42.2963261521618" lon="13.266176112080215"><ele>1051.0</ele><time>2026-04-27T13:56:28Z</time></trkpt><trkpt lat="42.296407007751604" lon="13.266152792977504"><ele>1049.3333333333335</ele><time>2026-04-27T13:56:29Z</time></trkpt><trkpt lat="42.29648581816129" lon="13.26610332108295"><ele>1047.6666666666667</ele><time>2026-04-27T13:56:30Z</time></trkpt><trkpt lat="42.29656915343109" lon="13.266042588724723"><ele>1046.0</ele><time>2026-04-27T13:56:31Z</time></trkpt><trkpt lat="42.29666965536323" lon="13.266006276825953"><ele>1046.0</ele><time>2026-04-27T13:56:32Z</time></trkpt><trkpt lat="42.29677268454669" lon="13.265968342654137"><ele>1046.0</ele><time>2026-04-27T13:56:33Z</time></trkpt><trkpt lat="42.29687140142984" lon="13.265950769510185"><ele>1046.0</ele><time>2026-04-27T13:56:34Z</time></trkpt><trkpt lat="42.29696428668154" lon="13.26592682339198"><ele>1046.0</ele><time>2026-04-27T13:56:35Z</time></trkpt><trkpt lat="42.297049477254795" lon="13.2659690605012"><ele>1046.0</ele><time>2026-04-27T13:56:36Z</time></trkpt><trkpt lat="42.29711242842504" lon="13.266045980557982"><ele>1046.0</ele><time>2026-04-27T13:56:37Z</time></trkpt><trkpt lat="42.297149468118015" lon="13.26615476080913"><ele>1046.0</ele><time>2026-04-27T13:56:38Z</time></trkpt><trkpt lat="42.29716161416849" lon="13.266260381433414"><ele>1046.0</ele><time>2026-04-27T13:56:39Z</time></trkpt><trkpt lat="42.29715304140026" lon="13.266345556685698"><ele>1046.0</ele><time>2026-04-27T13:56:40Z</time></trkpt><trkpt lat="42.29704602984785" lon="13.266378172706727"><ele>1046.0</ele><time>2026-04-27T13:56:42Z</time></trkpt><trkpt lat="42.29695503255518" lon="13.266394620044426"><ele>1046.0</ele><time>2026-04-27T13:56:43Z</time></trkpt><trkpt lat="42.29685830062256" lon="13.266437734316549"><ele>1042.25</ele><time>2026-04-27T13:56:44Z</time></trkpt><trkpt lat="42.296766508147265" lon="13.266514815758715"><ele>1038.5</ele><time>2026-04-27T13:56:45Z</time></trkpt><trkpt lat="42.29675507095567" lon="13.266653902390203"><ele>1034.75</ele><time>2026-04-27T13:56:46Z</time></trkpt><trkpt lat="42.29669563143385" lon="13.266802012599287"><ele>1031.0</ele><time>2026-04-27T13:56:47Z</time></trkpt><trkpt lat="42.296639882834334" lon="13.266963653550384"><ele>1031.0</ele><time>2026-04-27T13:56:48Z</time></trkpt><trkpt lat="42.29657824966658" lon="13.267112464832106"><ele>1031.0</ele><time>2026-04-27T13:56:49Z</time></trkpt><trkpt lat="42.296516127886676" lon="13.267267700990388"><ele>1031.0</ele><time>2026-04-27T13:56:50Z</time></trkpt><trkpt lat="42.29645345370683" lon="13.26742809117713"><ele>1031.0</ele><time>2026-04-27T13:56:51Z</time></trkpt><trkpt lat="42.296397147022574" lon="13.2675964023266"><ele>1033.75</ele><time>2026-04-27T13:56:52Z</time></trkpt><trkpt lat="42.296352728179514" lon="13.267776505925402"><ele>1036.5</ele><time>2026-04-27T13:56:53Z</time></trkpt><trkpt lat="42.296326439536806" lon="13.267971733688048"><ele>1039.25</ele><time>2026-04-27T13:56:54Z</time></trkpt><trkpt lat="42.29631611690368" lon="13.268174465631384"><ele>1042.0</ele><time>2026-04-27T13:56:55Z</time></trkpt><trkpt lat="42.296305015032395" lon="13.268368920561258"><ele>1036.25</ele><time>2026-04-27T13:56:56Z</time></trkpt><trkpt lat="42.296262717736965" lon="13.268548462192765"><ele>1030.5</ele><time>2026-04-27T13:56:57Z</time></trkpt><trkpt lat="42.296215138348586" lon="13.268723892500418"><ele>1024.75</ele><time>2026-04-27T13:56:58Z</time></trkpt><trkpt lat="42.29615465993455" lon="13.268891887256595"><ele>1019.0</ele><time>2026-04-27T13:56:59Z</time></trkpt><trkpt lat="42.29608716276299" lon="13.269052457770325"><ele>1015.6</ele><time>2026-04-27T13:57:00Z</time></trkpt><trkpt lat="42.29602283690858" lon="13.269199900778919"><ele>1012.2</ele><time>2026-04-27T13:57:01Z</time></trkpt><trkpt lat="42.29596864789186" lon="13.26932764923415"><ele>1008.8000000000001</ele><time>2026-04-27T13:57:02Z</time></trkpt><trkpt lat="42.295940708147384" lon="13.269430972352662"><ele>1005.4000000000001</ele><time>2026-04-27T13:57:03Z</time></trkpt><trkpt lat="42.295940047302025" lon="13.269598655901753"><ele>1002.0</ele><time>2026-04-27T13:57:05Z</time></trkpt><trkpt lat="42.2960157669264" lon="13.269647981185159"><ele>1002.0</ele><time>2026-04-27T13:57:06Z</time></trkpt><trkpt lat="42.29611114378699" lon="13.269585305172514"><ele>1002.0</ele><time>2026-04-27T13:57:07Z</time></trkpt><trkpt lat="42.296194740368286" lon="13.269479577922846"><ele>1002.0</ele><time>2026-04-27T13:57:08Z</time></trkpt><trkpt lat="42.2962780279394" lon="13.2693956185027"><ele>1002.0</ele><time>2026-04-27T13:57:09Z</time></trkpt><trkpt lat="42.29637897413397" lon="13.26931369359169"><ele>1002.0</ele><time>2026-04-27T13:57:10Z</time></trkpt><trkpt lat="42.2964958785059" lon="13.269241911292825"><ele>997.6</ele><time>2026-04-27T13:57:11Z</time></trkpt><trkpt lat="42.296615580382905" lon="13.269182384961287"><ele>993.2</ele><time>2026-04-27T13:57:12Z</time></trkpt><trkpt lat="42.29671483190658" lon="13.269174861538636"><ele>988.8</ele><time>2026-04-27T13:57:13Z</time></trkpt><trkpt lat="42.29679088905623" lon="13.269152443407654"><ele>984.4</ele><time>2026-04-27T13:57:14Z</time></trkpt><trkpt lat="42.29684572719407" lon="13.269198534625062"><ele>980.0</ele><time>2026-04-27T13:57:15Z</time></trkpt><trkpt lat="42.29685532088368" lon="13.269307425555112"><ele>980.0</ele><time>2026-04-27T13:57:16Z</time></trkpt><trkpt lat="42.29688171944054" lon="13.269422239940315"><ele>980.0</ele><time>2026-04-27T13:57:17Z</time></trkpt><trkpt lat="42.29692179983649" lon="13.269552728992684"><ele>980.0</ele><time>2026-04-27T13:57:18Z</time></trkpt><trkpt lat="42.296949994795966" lon="13.269711262945483"><ele>980.0</ele><time>2026-04-27T13:57:19Z</time></trkpt><trkpt lat="42.29695772988707" lon="13.26988707905065"><ele>980.0</ele><time>2026-04-27T13:57:20Z</time></trkpt><trkpt lat="42.296991143487084" lon="13.270060693913258"><ele>978.75</ele><time>2026-04-27T13:57:21Z</time></trkpt><trkpt lat="42.296997673313996" lon="13.270237141063129"><ele>977.5</ele><time>2026-04-27T13:57:22Z</time></trkpt><trkpt lat="42.297027325914485" lon="13.270407499932613"><ele>976.25</ele><time>2026-04-27T13:57:23Z</time></trkpt><trkpt lat="42.297059402798176" lon="13.270576781115855"><ele>975.0</ele><time>2026-04-27T13:57:24Z</time></trkpt><trkpt lat="42.297095689487044" lon="13.27075391191656"><ele>972.25</ele><time>2026-04-27T13:57:25Z</time></trkpt><trkpt lat="42.297147493861175" lon="13.270923887361768"><ele>969.5</ele><time>2026-04-27T13:57:26Z</time></trkpt><trkpt lat="42.29721097932016" lon="13.271093319776389"><ele>966.75</ele><time>2026-04-27T13:57:27Z</time></trkpt><trkpt lat="42.29727841656056" lon="13.27125779159725"><ele>964.0</ele><time>2026-04-27T13:57:28Z</time></trkpt><trkpt lat="42.297358085316674" lon="13.27141793545481"><ele>960.0</ele><time>2026-04-27T13:57:29Z</time></trkpt><trkpt lat="42.297459028411694" lon="13.271558354654953"><ele>956.0</ele><time>2026-04-27T13:57:30Z</time></trkpt><trkpt lat="42.297570934271974" lon="13.271681762897149"><ele>952.0</ele><time>2026-04-27T13:57:31Z</time></trkpt><trkpt lat="42.2976776108751" lon="13.271794490369015"><ele>948.0</ele><time>2026-04-27T13:57:32Z</time></trkpt><trkpt lat="42.297766085292565" lon="13.271874163977603"><ele>948.0</ele><time>2026-04-27T13:57:33Z</time></trkpt><trkpt lat="42.29783435081119" lon="13.271941177514401"><ele>948.0</ele><time>2026-04-27T13:57:34Z</time></trkpt><trkpt lat="42.297912924479235" lon="13.271942221091479"><ele>948.0</ele><time>2026-04-27T13:57:35Z</time></trkpt><trkpt lat="42.29797798523574" lon="13.271859730580232"><ele>948.0</ele><time>2026-04-27T13:57:36Z</time></trkpt><trkpt lat="42.2980246703343" lon="13.27175654795421"><ele>948.0</ele><time>2026-04-27T13:57:37Z</time></trkpt><trkpt lat="42.29806999026486" lon="13.271610717942538"><ele>944.4</ele><time>2026-04-27T13:57:38Z</time></trkpt><trkpt lat="42.29813287630523" lon="13.271474846064436"><ele>940.8</ele><time>2026-04-27T13:57:39Z</time></trkpt><trkpt lat="42.29816570294547" lon="13.271350525214359"><ele>937.2</ele><time>2026-04-27T13:57:40Z</time></trkpt><trkpt lat="42.298210750983394" lon="13.271278944108499"><ele>933.6</ele><time>2026-04-27T13:57:41Z</time></trkpt><trkpt lat="42.298327011398094" lon="13.27120458995163"><ele>930.0</ele><time>2026-04-27T13:57:43Z</time></trkpt><trkpt lat="42.29842210292315" lon="13.271305930564765"><ele>930.0</ele><time>2026-04-27T13:57:44Z</time></trkpt><trkpt lat="42.29847248064586" lon="13.271471579790502"><ele>930.0</ele><time>2026-04-27T13:57:45Z</time></trkpt><trkpt lat="42.29854789275447" lon="13.271600552878931"><ele>930.0</ele><time>2026-04-27T13:57:46Z</time></trkpt><trkpt lat="42.298624838051374" lon="13.27174813422928"><ele>930.0</ele><time>2026-04-27T13:57:47Z</time></trkpt><trkpt lat="42.298691743663554" lon="13.271898771861965"><ele>930.0</ele><time>2026-04-27T13:57:48Z</time></trkpt><trkpt lat="42.29875504807965" lon="13.272040542200473"><ele>930.0</ele><time>2026-04-27T13:57:49Z</time></trkpt><trkpt lat="42.29882332866538" lon="13.27215604339407"><ele>930.0</ele><time>2026-04-27T13:57:50Z</time></trkpt><trkpt lat="42.29890650693451" lon="13.27223972270997"><ele>930.0</ele><time>2026-04-27T13:57:51Z</time></trkpt><trkpt lat="42.29900949225512" lon="13.272295676113563"><ele>930.0</ele><time>2026-04-27T13:57:52Z</time></trkpt><trkpt lat="42.29912656851173" lon="13.272320049897733"><ele>925.75</ele><time>2026-04-27T13:57:53Z</time></trkpt><trkpt lat="42.2992435558874" lon="13.27231878180869"><ele>921.5</ele><time>2026-04-27T13:57:54Z</time></trkpt><trkpt lat="42.29936837109698" lon="13.272323319229308"><ele>917.25</ele><time>2026-04-27T13:57:55Z</time></trkpt><trkpt lat="42.299490593753816" lon="13.272374946003529"><ele>913.0</ele><time>2026-04-27T13:57:56Z</time></trkpt><trkpt lat="42.29961507573502" lon="13.272420067333682"><ele>913.0</ele><time>2026-04-27T13:57:57Z</time></trkpt><trkpt lat="42.29974440289613" lon="13.272449111390051"><ele>913.0</ele><time>2026-04-27T13:57:58Z</time></trkpt><trkpt lat="42.29986929992637" lon="13.272506064959495"><ele>913.0</ele><time>2026-04-27T13:57:59Z</time></trkpt><trkpt lat="42.29999098954875" lon="13.2725579501666"><ele>913.0</ele><time>2026-04-27T13:58:00Z</time></trkpt><trkpt lat="42.30010805533302" lon="13.272611526470689"><ele>910.0</ele><time>2026-04-27T13:58:01Z</time></trkpt><trkpt lat="42.3002097767179" lon="13.27267637826219"><ele>907.0</ele><time>2026-04-27T13:58:02Z</time></trkpt><trkpt lat="42.300275140342606" lon="13.272737824833913"><ele>904.0</ele><time>2026-04-27T13:58:03Z</time></trkpt><trkpt lat="42.30031307365728" lon="13.272809211218021"><ele>901.0</ele><time>2026-04-27T13:58:04Z</time></trkpt><trkpt lat="42.300282965327284" lon="13.272971164479172"><ele>898.0</ele><time>2026-04-27T13:58:06Z</time></trkpt><trkpt lat="42.30022534864434" lon="13.273112775792564"><ele>898.0</ele><time>2026-04-27T13:58:08Z</time></trkpt><trkpt lat="42.300229776545834" lon="13.27320584839403"><ele>898.0</ele><time>2026-04-27T13:58:10Z</time></trkpt><trkpt lat="42.30026997447202" lon="13.27300687766725"><ele>898.0</ele><time>2026-04-27T13:58:32Z</time></trkpt><trkpt lat="42.30030540498259" lon="13.272894304082206"><ele>898.0</ele><time>2026-04-27T13:58:33Z</time></trkpt><trkpt lat="42.300317814381096" lon="13.272780362954936"><ele>898.0</ele><time>2026-04-27T13:58:34Z</time></trkpt><trkpt lat="42.300278547992846" lon="13.27269755725099"><ele>898.0</ele><time>2026-04-27T13:58:35Z</time></trkpt><trkpt lat="42.30020093256244" lon="13.272637466113355"><ele>898.0</ele><time>2026-04-27T13:58:36Z</time></trkpt><trkpt lat="42.300093218954274" lon="13.272591011517806"><ele>898.0</ele><time>2026-04-27T13:58:37Z</time></trkpt><trkpt lat="42.29996610913628" lon="13.272539546790034"><ele>898.0</ele><time>2026-04-27T13:58:38Z</time></trkpt><trkpt lat="42.29982878975818" lon="13.272477188134978"><ele>903.0</ele><time>2026-04-27T13:58:39Z</time></trkpt><trkpt lat="42.299687156216976" lon="13.272413836805704"><ele>908.0</ele><time>2026-04-27T13:58:40Z</time></trkpt><trkpt lat="42.2995295104758" lon="13.27235413557285"><ele>913.0</ele><time>2026-04-27T13:58:41Z</time></trkpt><trkpt lat="42.29937352003512" lon="13.272296952974923"><ele>913.0</ele><time>2026-04-27T13:58:42Z</time></trkpt><trkpt lat="42.2992116745908" lon="13.272286203928774"><ele>913.0</ele><time>2026-04-27T13:58:43Z</time></trkpt><trkpt lat="42.29906298012128" lon="13.272276496381426"><ele>913.0</ele><time>2026-04-27T13:58:44Z</time></trkpt><trkpt lat="42.298944435703305" lon="13.272222655699988"><ele>913.0</ele><time>2026-04-27T13:58:45Z</time></trkpt><trkpt lat="42.29884075248501" lon="13.272167359162271"><ele>917.25</ele><time>2026-04-27T13:58:46Z</time></trkpt><trkpt lat="42.298773178265016" lon="13.272025514383078"><ele>921.5</ele><time>2026-04-27T13:58:47Z</time></trkpt><trkpt lat="42.29870067631059" lon="13.271866862037914"><ele>925.75</ele><time>2026-04-27T13:58:48Z</time></trkpt><trkpt lat="42.298610058883035" lon="13.27169908691374"><ele>930.0</ele><time>2026-04-27T13:58:49Z</time></trkpt><trkpt lat="42.298521958993966" lon="13.27151880551465"><ele>929.75</ele><time>2026-04-27T13:58:50Z</time></trkpt><trkpt lat="42.29846003014698" lon="13.271346156940869"><ele>929.5</ele><time>2026-04-27T13:58:51Z</time></trkpt><trkpt lat="42.29838717149776" lon="13.271206311443446"><ele>929.25</ele><time>2026-04-27T13:58:52Z</time></trkpt><trkpt lat="42.2982985989108" lon="13.271124790651326"><ele>929.0</ele><time>2026-04-27T13:58:53Z</time></trkpt><trkpt lat="42.298193964468695" lon="13.271128525367212"><ele>929.0</ele><time>2026-04-27T13:58:54Z</time></trkpt><trkpt lat="42.29809635424229" lon="13.271290478696722"><ele>929.0</ele><time>2026-04-27T13:58:55Z</time></trkpt><trkpt lat="42.298088127912266" lon="13.271484260009755"><ele>929.0</ele><time>2026-04-27T13:58:56Z</time></trkpt><trkpt lat="42.29804635243106" lon="13.2716348342895"><ele>929.0</ele><time>2026-04-27T13:58:57Z</time></trkpt><trkpt lat="42.29797779043937" lon="13.271767138882701"><ele>932.8000000000001</ele><time>2026-04-27T13:58:58Z</time></trkpt><trkpt lat="42.297911042753775" lon="13.2718727641738"><ele>936.6000000000001</ele><time>2026-04-27T13:58:59Z</time></trkpt><trkpt lat="42.297847778387876" lon="13.271933467928996"><ele>940.4</ele><time>2026-04-27T13:59:00Z</time></trkpt><trkpt lat="42.29777491887822" lon="13.271916611669287"><ele>944.2</ele><time>2026-04-27T13:59:01Z</time></trkpt><trkpt lat="42.297718097668245" lon="13.271804161689332"><ele>948.0</ele><time>2026-04-27T13:59:02Z</time></trkpt><trkpt lat="42.29764022335412" lon="13.271713084840854"><ele>948.0</ele><time>2026-04-27T13:59:03Z</time></trkpt><trkpt lat="42.297539921106846" lon="13.271599804663126"><ele>948.0</ele><time>2026-04-27T13:59:04Z</time></trkpt><trkpt lat="42.297430356132125" lon="13.27148080039146"><ele>948.0</ele><time>2026-04-27T13:59:05Z</time></trkpt><trkpt lat="42.29733270788519" lon="13.271354897581281"><ele>948.0</ele><time>2026-04-27T13:59:06Z</time></trkpt><trkpt lat="42.297275374579264" lon="13.271199601647533"><ele>951.2</ele><time>2026-04-27T13:59:07Z</time></trkpt><trkpt lat="42.29722764597938" lon="13.271059850682672"><ele>954.4</ele><time>2026-04-27T13:59:08Z</time></trkpt><trkpt lat="42.297182817620545" lon="13.270966163978436"><ele>957.6000000000001</ele><time>2026-04-27T13:59:09Z</time></trkpt><trkpt lat="42.29721379197618" lon="13.271050155866613"><ele>960.8000000000001</ele><time>2026-04-27T13:59:18Z</time></trkpt><trkpt lat="42.29715200366776" lon="13.271167804541022"><ele>964.0</ele><time>2026-04-27T13:59:19Z</time></trkpt><trkpt lat="42.297124939400575" lon="13.27130403877596"><ele>963.9999999999999</ele><time>2026-04-27T13:59:21Z</time></trkpt><trkpt lat="42.297087040599294" lon="13.27138183610461"><ele>964.0</ele><time>2026-04-27T13:59:24Z</time></trkpt><trkpt lat="42.29713318494652" lon="13.271253719784038"><ele>964.0</ele><time>2026-04-27T13:59:52Z</time></trkpt><trkpt lat="42.29714212461716" lon="13.271129825189952"><ele>964.0</ele><time>2026-04-27T13:59:54Z</time></trkpt><trkpt lat="42.297142352835415" lon="13.271006202204415"><ele>963.9999999999999</ele><time>2026-04-27T13:59:56Z</time></trkpt><trkpt lat="42.29713583404556" lon="13.270898016483239"><ele>964.0</ele><time>2026-04-27T13:59:58Z</time></trkpt><trkpt lat="42.297114039334005" lon="13.270802249239381"><ele>964.0</ele><time>2026-04-27T13:59:59Z</time></trkpt><trkpt lat="42.297044082548396" lon="13.27074936039156"><ele>964.0000000000001</ele><time>2026-04-27T14:00:01Z</time></trkpt><trkpt lat="42.29702545166221" lon="13.270860018709879"><ele>964.0000000000001</ele><time>2026-04-27T14:00:03Z</time></trkpt><trkpt lat="42.297073629146084" lon="13.27101262491264"><ele>964.0</ele><time>2026-04-27T14:00:05Z</time></trkpt><trkpt lat="42.29707916261433" lon="13.271101614822317"><ele>964.0</ele><time>2026-04-27T14:00:06Z</time></trkpt><trkpt lat="42.29704154993542" lon="13.27122889450929"><ele>964.0</ele><time>2026-04-27T14:00:08Z</time></trkpt><trkpt lat="42.29698574054631" lon="13.271328691299354"><ele>964.0000000000001</ele><time>2026-04-27T14:00:10Z</time></trkpt><trkpt lat="42.29689240619559" lon="13.271461677036463"><ele>964.0000000000001</ele><time>2026-04-27T14:00:12Z</time></trkpt><trkpt lat="42.29683530527164" lon="13.27152627053766"><ele>964.0</ele><time>2026-04-27T14:00:13Z</time></trkpt><trkpt lat="42.296756790827466" lon="13.271637773893145"><ele>964.0</ele><time>2026-04-27T14:00:15Z</time></trkpt><trkpt lat="42.296727811227456" lon="13.27177725560173"><ele>963.3333333333333</ele><time>2026-04-27T14:00:17Z</time></trkpt><trkpt lat="42.29672356676088" lon="13.271875800339542"><ele>962.6666666666666</ele><time>2026-04-27T14:00:18Z</time></trkpt><trkpt lat="42.29670965288396" lon="13.271981707536094"><ele>962.0</ele><time>2026-04-27T14:00:19Z</time></trkpt><trkpt lat="42.296693470894546" lon="13.272124801233076"><ele>961.3333333333333</ele><time>2026-04-27T14:00:20Z</time></trkpt><trkpt lat="42.29667474440308" lon="13.2722103223755"><ele>960.6666666666666</ele><time>2026-04-27T14:00:21Z</time></trkpt><trkpt lat="42.29663800205244" lon="13.27235260330932"><ele>960.0</ele><time>2026-04-27T14:00:23Z</time></trkpt><trkpt lat="42.29663435177095" lon="13.272448731825238"><ele>959.1666666666666</ele><time>2026-04-27T14:00:25Z</time></trkpt><trkpt lat="42.296663215236194" lon="13.272531863243348"><ele>958.3333333333333</ele><time>2026-04-27T14:00:27Z</time></trkpt><trkpt lat="42.296701305112215" lon="13.27260952303851"><ele>957.5</ele><time>2026-04-27T14:00:29Z</time></trkpt><trkpt lat="42.29672732899625" lon="13.272700073927275"><ele>956.6666666666666</ele><time>2026-04-27T14:00:30Z</time></trkpt><trkpt lat="42.29674892574082" lon="13.272799093212177"><ele>955.8333333333333</ele><time>2026-04-27T14:00:31Z</time></trkpt><trkpt lat="42.296762856236484" lon="13.2729020582811"><ele>955.0</ele><time>2026-04-27T14:00:32Z</time></trkpt><trkpt lat="42.296779636686914" lon="13.273031475842968"><ele>954.4999999999999</ele><time>2026-04-27T14:00:34Z</time></trkpt><trkpt lat="42.29676834907915" lon="13.273137804939765"><ele>954.0</ele><time>2026-04-27T14:00:37Z</time></trkpt><trkpt lat="42.29675324503074" lon="13.273238986667229"><ele>953.5</ele><time>2026-04-27T14:00:41Z</time></trkpt><trkpt lat="42.296744723354735" lon="13.273334723962309"><ele>953.0</ele><time>2026-04-27T14:00:45Z</time></trkpt><trkpt lat="42.29674512936702" lon="13.273453205254972"><ele>952.4999999999999</ele><time>2026-04-27T14:00:48Z</time></trkpt><trkpt lat="42.29671501219482" lon="13.273560692941098"><ele>952.0</ele><time>2026-04-27T14:00:50Z</time></trkpt><trkpt lat="42.296676688684045" lon="13.273636944381177"><ele>952.0</ele><time>2026-04-27T14:00:52Z</time></trkpt><trkpt lat="42.29659883588783" lon="13.273724287113344"><ele>952.0</ele><time>2026-04-27T14:00:54Z</time></trkpt><trkpt lat="42.296538062294545" lon="13.273803739777001"><ele>952.0</ele><time>2026-04-27T14:00:55Z</time></trkpt><trkpt lat="42.29649534525754" lon="13.273870733764706"><ele>952.0</ele><time>2026-04-27T14:00:56Z</time></trkpt><trkpt lat="42.29642710123236" lon="13.273978220942098"><ele>952.0</ele><time>2026-04-27T14:00:58Z</time></trkpt><trkpt lat="42.29635772970037" lon="13.274120028114563"><ele>954.6666666666666</ele><time>2026-04-27T14:01:00Z</time></trkpt><trkpt lat="42.29631455647133" lon="13.274217946570415"><ele>957.3333333333333</ele><time>2026-04-27T14:01:01Z</time></trkpt><trkpt lat="42.296282953620526" lon="13.274309467615263"><ele>960.0</ele><time>2026-04-27T14:01:02Z</time></trkpt><trkpt lat="42.29624185705275" lon="13.27442808493564"><ele>962.6666666666667</ele><time>2026-04-27T14:01:03Z</time></trkpt><trkpt lat="42.29621125523081" lon="13.274525157346307"><ele>965.3333333333334</ele><time>2026-04-27T14:01:04Z</time></trkpt><trkpt lat="42.29617642471472" lon="13.274641571587823"><ele>968.0</ele><time>2026-04-27T14:01:05Z</time></trkpt><trkpt lat="42.296146373540445" lon="13.274748757325789"><ele>965.4285714285713</ele><time>2026-04-27T14:01:06Z</time></trkpt><trkpt lat="42.29611797982587" lon="13.274831991494915"><ele>962.8571428571428</ele><time>2026-04-27T14:01:07Z</time></trkpt><trkpt lat="42.29609718764529" lon="13.274915966462563"><ele>960.2857142857142</ele><time>2026-04-27T14:01:08Z</time></trkpt><trkpt lat="42.29607530045943" lon="13.27500567011345"><ele>957.7142857142858</ele><time>2026-04-27T14:01:09Z</time></trkpt><trkpt lat="42.29605250200206" lon="13.275094316684728"><ele>955.1428571428572</ele><time>2026-04-27T14:01:10Z</time></trkpt><trkpt lat="42.29602342205168" lon="13.275194999777977"><ele>952.5714285714287</ele><time>2026-04-27T14:01:11Z</time></trkpt><trkpt lat="42.29598812546712" lon="13.275286050730603"><ele>950.0</ele><time>2026-04-27T14:01:12Z</time></trkpt><trkpt lat="42.29593542300715" lon="13.275349059774598"><ele>950.0000000000001</ele><time>2026-04-27T14:01:13Z</time></trkpt><trkpt lat="42.29587735594541" lon="13.275420824925792"><ele>950.0</ele><time>2026-04-27T14:01:14Z</time></trkpt><trkpt lat="42.295850149389814" lon="13.27550339989042"><ele>950.0</ele><time>2026-04-27T14:01:15Z</time></trkpt><trkpt lat="42.29581401186091" lon="13.275583152358857"><ele>950.0</ele><time>2026-04-27T14:01:16Z</time></trkpt><trkpt lat="42.29579482027448" lon="13.275671469799724"><ele>950.0000000000001</ele><time>2026-04-27T14:01:17Z</time></trkpt><trkpt lat="42.29571319295294" lon="13.275780106214873"><ele>950.0</ele><time>2026-04-27T14:01:19Z</time></trkpt><trkpt lat="42.29564229481975" lon="13.275837966531185"><ele>948.6666666666667</ele><time>2026-04-27T14:01:20Z</time></trkpt><trkpt lat="42.29557479520861" lon="13.275885071003575"><ele>947.3333333333334</ele><time>2026-04-27T14:01:21Z</time></trkpt><trkpt lat="42.29552794363434" lon="13.27596180651828"><ele>946.0</ele><time>2026-04-27T14:01:22Z</time></trkpt><trkpt lat="42.295486465281044" lon="13.276030998672615"><ele>944.6666666666667</ele><time>2026-04-27T14:01:23Z</time></trkpt><trkpt lat="42.29543848356765" lon="13.276165313627663"><ele>943.3333333333334</ele><time>2026-04-27T14:01:25Z</time></trkpt><trkpt lat="42.29541272373166" lon="13.27625692864946"><ele>942.0</ele><time>2026-04-27T14:01:27Z</time></trkpt><trkpt lat="42.29536980099501" lon="13.276370319358913"><ele>940.6666666666666</ele><time>2026-04-27T14:01:29Z</time></trkpt><trkpt lat="42.29534056007446" lon="13.276489894148366"><ele>939.3333333333333</ele><time>2026-04-27T14:01:31Z</time></trkpt><trkpt lat="42.29531084008121" lon="13.276588672527334"><ele>938.0</ele><time>2026-04-27T14:01:33Z</time></trkpt><trkpt lat="42.295267139857" lon="13.276685085847355"><ele>936.6666666666666</ele><time>2026-04-27T14:01:35Z</time></trkpt><trkpt lat="42.295215302050245" lon="13.276785541068866"><ele>935.3333333333333</ele><time>2026-04-27T14:01:47Z</time></trkpt><trkpt lat="42.29518571899137" lon="13.276886361579873"><ele>934.0</ele><time>2026-04-27T14:01:50Z</time></trkpt><trkpt lat="42.29514532052676" lon="13.27697074649"><ele>933.9999999999999</ele><time>2026-04-27T14:01:52Z</time></trkpt><trkpt lat="42.29511007285144" lon="13.277083264971248"><ele>934.0</ele><time>2026-04-27T14:01:54Z</time></trkpt><trkpt lat="42.29509081898287" lon="13.277172297001604"><ele>934.0</ele><time>2026-04-27T14:01:56Z</time></trkpt><trkpt lat="42.29508850123551" lon="13.277265683928542"><ele>934.0</ele><time>2026-04-27T14:01:59Z</time></trkpt><trkpt lat="42.29505545976159" lon="13.27734342053168"><ele>933.9999999999999</ele><time>2026-04-27T14:02:01Z</time></trkpt><trkpt lat="42.29502133078538" lon="13.27747374725916"><ele>934.0</ele><time>2026-04-27T14:02:03Z</time></trkpt><trkpt lat="42.294991529087866" lon="13.277630310952178"><ele>931.8000000000001</ele><time>2026-04-27T14:02:05Z</time></trkpt><trkpt lat="42.29496676200247" lon="13.277788944603946"><ele>929.6000000000001</ele><time>2026-04-27T14:02:07Z</time></trkpt><trkpt lat="42.294953387943764" lon="13.277915624004084"><ele>927.4</ele><time>2026-04-27T14:02:09Z</time></trkpt><trkpt lat="42.29497186008554" lon="13.27808179055147"><ele>925.2</ele><time>2026-04-27T14:02:11Z</time></trkpt><trkpt lat="42.29498203429772" lon="13.278173108840276"><ele>923.0</ele><time>2026-04-27T14:02:12Z</time></trkpt><trkpt lat="42.29502212250879" lon="13.278247014074484"><ele>920.8333333333334</ele><time>2026-04-27T14:02:13Z</time></trkpt><trkpt lat="42.29505805652898" lon="13.27835401044647"><ele>918.6666666666667</ele><time>2026-04-27T14:02:14Z</time></trkpt><trkpt lat="42.29508047970163" lon="13.278433699684477"><ele>916.5</ele><time>2026-04-27T14:02:15Z</time></trkpt><trkpt lat="42.29509163268937" lon="13.278527389694679"><ele>914.3333333333333</ele><time>2026-04-27T14:02:17Z</time></trkpt><trkpt lat="42.29515031834322" lon="13.278606498397146"><ele>912.1666666666666</ele><time>2026-04-27T14:02:19Z</time></trkpt><trkpt lat="42.29519960614846" lon="13.278700859959399"><ele>910.0</ele><time>2026-04-27T14:02:21Z</time></trkpt><trkpt lat="42.295246634351415" lon="13.278770372096938"><ele>910.0</ele><time>2026-04-27T14:02:24Z</time></trkpt><trkpt lat="42.295231180834314" lon="13.278914652948432"><ele>910.0</ele><time>2026-04-27T14:02:27Z</time></trkpt><trkpt lat="42.29517217401672" lon="13.279083185459596"><ele>910.0</ele><time>2026-04-27T14:02:29Z</time></trkpt><trkpt lat="42.29510918825086" lon="13.279207473772894"><ele>910.0</ele><time>2026-04-27T14:02:31Z</time></trkpt><trkpt lat="42.29507094119756" lon="13.27937250008214"><ele>907.2</ele><time>2026-04-27T14:02:33Z</time></trkpt><trkpt lat="42.29504414179646" lon="13.279450694982366"><ele>904.4</ele><time>2026-04-27T14:02:34Z</time></trkpt><trkpt lat="42.29506224806188" lon="13.279604344052082"><ele>901.5999999999999</ele><time>2026-04-27T14:02:36Z</time></trkpt><trkpt lat="42.29508411255676" lon="13.279744677122089"><ele>898.8</ele><time>2026-04-27T14:02:38Z</time></trkpt><trkpt lat="42.29512058249823" lon="13.279831449688482"><ele>896.0</ele><time>2026-04-27T14:02:39Z</time></trkpt><trkpt lat="42.295178964394474" lon="13.279964576030652"><ele>896.0000000000001</ele><time>2026-04-27T14:02:41Z</time></trkpt><trkpt lat="42.29523791650113" lon="13.280015569527007"><ele>896.0</ele><time>2026-04-27T14:02:42Z</time></trkpt><trkpt lat="42.295289342848605" lon="13.280076294358773"><ele>896.0</ele><time>2026-04-27T14:02:43Z</time></trkpt><trkpt lat="42.295334180075955" lon="13.280147117462494"><ele>896.0</ele><time>2026-04-27T14:02:44Z</time></trkpt><trkpt lat="42.29539310173239" lon="13.280232088439133"><ele>896.0000000000001</ele><time>2026-04-27T14:02:45Z</time></trkpt><trkpt lat="42.295454318714654" lon="13.280308289176459"><ele>896.0</ele><time>2026-04-27T14:02:46Z</time></trkpt><trkpt lat="42.29554861537539" lon="13.280411054411239"><ele>892.1666666666667</ele><time>2026-04-27T14:02:48Z</time></trkpt><trkpt lat="42.29560796208944" lon="13.280455785395311"><ele>888.3333333333334</ele><time>2026-04-27T14:02:49Z</time></trkpt><trkpt lat="42.29570093991159" lon="13.280524474704974"><ele>884.5</ele><time>2026-04-27T14:02:51Z</time></trkpt><trkpt lat="42.29576043423794" lon="13.280602455064662"><ele>880.6666666666667</ele><time>2026-04-27T14:02:53Z</time></trkpt><trkpt lat="42.295818826373974" lon="13.280667345607265"><ele>876.8333333333334</ele><time>2026-04-27T14:02:54Z</time></trkpt><trkpt lat="42.29591451664378" lon="13.280753972712144"><ele>873.0</ele><time>2026-04-27T14:02:56Z</time></trkpt><trkpt lat="42.296022583144655" lon="13.280809676689962"><ele>873.0</ele><time>2026-04-27T14:02:58Z</time></trkpt><trkpt lat="42.296113432493904" lon="13.28089592278465"><ele>873.0</ele><time>2026-04-27T14:03:00Z</time></trkpt><trkpt lat="42.29618622027842" lon="13.281049552740756"><ele>873.0</ele><time>2026-04-27T14:03:02Z</time></trkpt><trkpt lat="42.29624164044572" lon="13.28114263553487"><ele>873.0</ele><time>2026-04-27T14:03:03Z</time></trkpt><trkpt lat="42.29630445574898" lon="13.281227955326221"><ele>873.0</ele><time>2026-04-27T14:03:04Z</time></trkpt><trkpt lat="42.2963760588505" lon="13.28130601887743"><ele>870.1666666666666</ele><time>2026-04-27T14:03:05Z</time></trkpt><trkpt lat="42.296443212804895" lon="13.281397845969137"><ele>867.3333333333333</ele><time>2026-04-27T14:03:06Z</time></trkpt><trkpt lat="42.29650197291379" lon="13.281479932103046"><ele>864.5</ele><time>2026-04-27T14:03:07Z</time></trkpt><trkpt lat="42.29656522977209" lon="13.28156093727832"><ele>861.6666666666666</ele><time>2026-04-27T14:03:08Z</time></trkpt><trkpt lat="42.29662627572649" lon="13.281618496197503"><ele>858.8333333333333</ele><time>2026-04-27T14:03:09Z</time></trkpt><trkpt lat="42.29671594429509" lon="13.28164165948023"><ele>856.0</ele><time>2026-04-27T14:03:10Z</time></trkpt><trkpt lat="42.29680532750019" lon="13.281675054930318"><ele>855.9999999999999</ele><time>2026-04-27T14:03:11Z</time></trkpt><trkpt lat="42.29688030364591" lon="13.281703684241764"><ele>856.0</ele><time>2026-04-27T14:03:12Z</time></trkpt><trkpt lat="42.2969560764176" lon="13.281747972811043"><ele>856.0</ele><time>2026-04-27T14:03:13Z</time></trkpt><trkpt lat="42.29702665278055" lon="13.281778671851171"><ele>856.0</ele><time>2026-04-27T14:03:14Z</time></trkpt><trkpt lat="42.297092696211024" lon="13.28179248130348"><ele>855.9999999999999</ele><time>2026-04-27T14:03:15Z</time></trkpt><trkpt lat="42.29715899694943" lon="13.281819099736746"><ele>856.0</ele><time>2026-04-27T14:03:16Z</time></trkpt><trkpt lat="42.297240195923024" lon="13.281823478579067"><ele>855.0</ele><time>2026-04-27T14:03:17Z</time></trkpt><trkpt lat="42.297326400176466" lon="13.281803469372193"><ele>853.9999999999999</ele><time>2026-04-27T14:03:18Z</time></trkpt><trkpt lat="42.29742263196289" lon="13.281774441861183"><ele>853.0</ele><time>2026-04-27T14:03:19Z</time></trkpt><trkpt lat="42.297521470623884" lon="13.281772095503413"><ele>852.0</ele><time>2026-04-27T14:03:20Z</time></trkpt><trkpt lat="42.29761449951235" lon="13.281752256917137"><ele>851.0</ele><time>2026-04-27T14:03:21Z</time></trkpt><trkpt lat="42.29769040316617" lon="13.28173426853184"><ele>851.0000000000001</ele><time>2026-04-27T14:03:22Z</time></trkpt><trkpt lat="42.297764140581194" lon="13.281676338266852"><ele>851.0</ele><time>2026-04-27T14:03:23Z</time></trkpt><trkpt lat="42.297849771835445" lon="13.281622167464233"><ele>851.0</ele><time>2026-04-27T14:03:24Z</time></trkpt><trkpt lat="42.2979304323019" lon="13.281560556520185"><ele>851.0</ele><time>2026-04-27T14:03:25Z</time></trkpt><trkpt lat="42.29800458525055" lon="13.281502717441517"><ele>851.0000000000001</ele><time>2026-04-27T14:03:26Z</time></trkpt><trkpt lat="42.29806989937872" lon="13.281461130211094"><ele>851.0</ele><time>2026-04-27T14:03:27Z</time></trkpt><trkpt lat="42.298148850770005" lon="13.281426673111241"><ele>849.0</ele><time>2026-04-27T14:03:28Z</time></trkpt><trkpt lat="42.298256468801505" lon="13.281403992862153"><ele>847.0</ele><time>2026-04-27T14:03:29Z</time></trkpt><trkpt lat="42.298360077185265" lon="13.281384492595189"><ele>845.0</ele><time>2026-04-27T14:03:30Z</time></trkpt><trkpt lat="42.29847678607278" lon="13.281350947957767"><ele>843.0</ele><time>2026-04-27T14:03:31Z</time></trkpt><trkpt lat="42.29857582556398" lon="13.281313083469653"><ele>841.0</ele><time>2026-04-27T14:03:32Z</time></trkpt><trkpt lat="42.298656614196005" lon="13.281272506731199"><ele>840.9999999999999</ele><time>2026-04-27T14:03:33Z</time></trkpt><trkpt lat="42.29872321411356" lon="13.28126032796266"><ele>841.0</ele><time>2026-04-27T14:03:34Z</time></trkpt><trkpt lat="42.29883873251924" lon="13.281241173700835"><ele>841.0</ele><time>2026-04-27T14:03:36Z</time></trkpt><trkpt lat="42.298896878654126" lon="13.281294100931412"><ele>841.0</ele><time>2026-04-27T14:03:37Z</time></trkpt><trkpt lat="42.29897043631584" lon="13.28135311518148"><ele>840.9999999999999</ele><time>2026-04-27T14:03:38Z</time></trkpt><trkpt lat="42.29903137841443" lon="13.281452208302735"><ele>841.0</ele><time>2026-04-27T14:03:39Z</time></trkpt><trkpt lat="42.299095518293726" lon="13.281505078954417"><ele>842.8333333333333</ele><time>2026-04-27T14:03:40Z</time></trkpt><trkpt lat="42.29916526803569" lon="13.281593626648375"><ele>844.6666666666666</ele><time>2026-04-27T14:03:41Z</time></trkpt><trkpt lat="42.29922987881748" lon="13.281632612924573"><ele>846.5</ele><time>2026-04-27T14:03:42Z</time></trkpt><trkpt lat="42.29930515865898" lon="13.281628993717847"><ele>848.3333333333333</ele><time>2026-04-27T14:03:43Z</time></trkpt><trkpt lat="42.29936237678077" lon="13.281684719955276"><ele>850.1666666666666</ele><time>2026-04-27T14:03:44Z</time></trkpt><trkpt lat="42.29942422163307" lon="13.281724869336323"><ele>852.0</ele><time>2026-04-27T14:03:45Z</time></trkpt><trkpt lat="42.29948290310842" lon="13.281777301614925"><ele>852.0</ele><time>2026-04-27T14:03:46Z</time></trkpt><trkpt lat="42.29952960032009" lon="13.281834472149175"><ele>852.0</ele><time>2026-04-27T14:03:47Z</time></trkpt><trkpt lat="42.299577310303334" lon="13.281905543149435"><ele>852.0</ele><time>2026-04-27T14:03:48Z</time></trkpt><trkpt lat="42.29963216052194" lon="13.281991962071285"><ele>852.0</ele><time>2026-04-27T14:03:49Z</time></trkpt><trkpt lat="42.29969884265415" lon="13.282077699898744"><ele>852.0</ele><time>2026-04-27T14:03:50Z</time></trkpt><trkpt lat="42.299761720018324" lon="13.282127360522516"><ele>852.0</ele><time>2026-04-27T14:03:51Z</time></trkpt><trkpt lat="42.29980625649201" lon="13.28222988827002"><ele>849.8</ele><time>2026-04-27T14:03:52Z</time></trkpt><trkpt lat="42.29986600833587" lon="13.282344896012685"><ele>847.6</ele><time>2026-04-27T14:03:53Z</time></trkpt><trkpt lat="42.299921173581865" lon="13.282465023963145"><ele>845.4</ele><time>2026-04-27T14:03:54Z</time></trkpt><trkpt lat="42.299975776638846" lon="13.282561603355974"><ele>843.1999999999999</ele><time>2026-04-27T14:03:55Z</time></trkpt><trkpt lat="42.300036878980485" lon="13.282673501610521"><ele>841.0</ele><time>2026-04-27T14:03:56Z</time></trkpt><trkpt lat="42.30010773636098" lon="13.282788850127927"><ele>840.9999999999999</ele><time>2026-04-27T14:03:57Z</time></trkpt><trkpt lat="42.300173294018606" lon="13.282899056674628"><ele>841.0</ele><time>2026-04-27T14:03:58Z</time></trkpt><trkpt lat="42.30022655846504" lon="13.283000204732453"><ele>841.0</ele><time>2026-04-27T14:03:59Z</time></trkpt><trkpt lat="42.300278260259184" lon="13.2830967885423"><ele>841.0</ele><time>2026-04-27T14:04:00Z</time></trkpt><trkpt lat="42.300321203717" lon="13.283192769502923"><ele>840.9999999999999</ele><time>2026-04-27T14:04:01Z</time></trkpt><trkpt lat="42.300346973958355" lon="13.283281557705944"><ele>841.0</ele><time>2026-04-27T14:04:02Z</time></trkpt><trkpt lat="42.30036331936871" lon="13.2833868680411"><ele>839.0</ele><time>2026-04-27T14:04:04Z</time></trkpt><trkpt lat="42.30024613191967" lon="13.283442647770565"><ele>837.0</ele><time>2026-04-27T14:04:08Z</time></trkpt><trkpt lat="42.300171001825355" lon="13.283434318237905"><ele>835.0</ele><time>2026-04-27T14:04:09Z</time></trkpt><trkpt lat="42.30008458734987" lon="13.28343966647022"><ele>833.0</ele><time>2026-04-27T14:04:10Z</time></trkpt><trkpt lat="42.29999841564091" lon="13.28345441344074"><ele>831.0</ele><time>2026-04-27T14:04:11Z</time></trkpt><trkpt lat="42.29991479008995" lon="13.283487913762084"><ele>831.0</ele><time>2026-04-27T14:04:12Z</time></trkpt><trkpt lat="42.29981440260597" lon="13.28353208728278"><ele>831.0</ele><time>2026-04-27T14:04:13Z</time></trkpt><trkpt lat="42.299719350523034" lon="13.283590882682537"><ele>831.0</ele><time>2026-04-27T14:04:14Z</time></trkpt><trkpt lat="42.29962336561987" lon="13.283657154865383"><ele>831.0</ele><time>2026-04-27T14:04:15Z</time></trkpt><trkpt lat="42.29952891048328" lon="13.283728421602833"><ele>831.0</ele><time>2026-04-27T14:04:16Z</time></trkpt><trkpt lat="42.29942881842438" lon="13.283804203428769"><ele>831.4</ele><time>2026-04-27T14:04:17Z</time></trkpt><trkpt lat="42.29933364341244" lon="13.283886390780458"><ele>831.8</ele><time>2026-04-27T14:04:18Z</time></trkpt><trkpt lat="42.299238820324604" lon="13.28396853140331"><ele>832.1999999999999</ele><time>2026-04-27T14:04:19Z</time></trkpt><trkpt lat="42.299139524695974" lon="13.284037615133062"><ele>832.5999999999999</ele><time>2026-04-27T14:04:20Z</time></trkpt><trkpt lat="42.29903156753969" lon="13.284075500998668"><ele>833.0</ele><time>2026-04-27T14:04:21Z</time></trkpt><trkpt lat="42.298923141967684" lon="13.284042066341645"><ele>832.5999999999999</ele><time>2026-04-27T14:04:22Z</time></trkpt><trkpt lat="42.29881397185267" lon="13.284008335439415"><ele>832.1999999999999</ele><time>2026-04-27T14:04:23Z</time></trkpt><trkpt lat="42.29871602402069" lon="13.283955153863175"><ele>831.8</ele><time>2026-04-27T14:04:24Z</time></trkpt><trkpt lat="42.29861491913235" lon="13.283887931213368"><ele>831.4</ele><time>2026-04-27T14:04:25Z</time></trkpt><trkpt lat="42.298521446070716" lon="13.283821061342397"><ele>831.0</ele><time>2026-04-27T14:04:26Z</time></trkpt><trkpt lat="42.29842461906335" lon="13.283776116452112"><ele>831.0</ele><time>2026-04-27T14:04:27Z</time></trkpt><trkpt lat="42.29834363195654" lon="13.28376036564749"><ele>831.0</ele><time>2026-04-27T14:04:28Z</time></trkpt><trkpt lat="42.298262711685624" lon="13.283774924246476"><ele>831.0</ele><time>2026-04-27T14:04:29Z</time></trkpt><trkpt lat="42.29818663769416" lon="13.28380409925388"><ele>831.0</ele><time>2026-04-27T14:04:30Z</time></trkpt><trkpt lat="42.29810329613275" lon="13.283845491054109"><ele>831.0</ele><time>2026-04-27T14:04:31Z</time></trkpt><trkpt lat="42.298032919327575" lon="13.283889564310705"><ele>831.0</ele><time>2026-04-27T14:04:32Z</time></trkpt><trkpt lat="42.297962391100505" lon="13.28393998402908"><ele>829.8333333333334</ele><time>2026-04-27T14:04:33Z</time></trkpt><trkpt lat="42.297907440813496" lon="13.28398373501283"><ele>828.6666666666667</ele><time>2026-04-27T14:04:34Z</time></trkpt><trkpt lat="42.297846949442544" lon="13.28400948603776"><ele>827.5</ele><time>2026-04-27T14:04:36Z</time></trkpt><trkpt lat="42.29795698092876" lon="13.284166176941357"><ele>826.3333333333334</ele><time>2026-04-27T14:04:38Z</time></trkpt><trkpt lat="42.298021432522994" lon="13.284174961231113"><ele>825.1666666666667</ele><time>2026-04-27T14:04:39Z</time></trkpt><trkpt lat="42.29810477027443" lon="13.284187359859963"><ele>824.0</ele><time>2026-04-27T14:04:40Z</time></trkpt><trkpt lat="42.29819205198016" lon="13.28420447653688"><ele>822.6</ele><time>2026-04-27T14:04:41Z</time></trkpt><trkpt lat="42.29829056338025" lon="13.284220287939828"><ele>821.2</ele><time>2026-04-27T14:04:42Z</time></trkpt><trkpt lat="42.29839625297248" lon="13.284246031446735"><ele>819.8000000000001</ele><time>2026-04-27T14:04:43Z</time></trkpt><trkpt lat="42.29850396427451" lon="13.28428353750655"><ele>818.4000000000001</ele><time>2026-04-27T14:04:44Z</time></trkpt><trkpt lat="42.298607819405206" lon="13.284336766626485"><ele>817.0</ele><time>2026-04-27T14:04:45Z</time></trkpt><trkpt lat="42.298707135450925" lon="13.28440685012277"><ele>817.0</ele><time>2026-04-27T14:04:46Z</time></trkpt><trkpt lat="42.298800979281005" lon="13.284494402424855"><ele>817.0</ele><time>2026-04-27T14:04:47Z</time></trkpt><trkpt lat="42.29888452822318" lon="13.284604239444656"><ele>817.0</ele><time>2026-04-27T14:04:48Z</time></trkpt><trkpt lat="42.29896217156782" lon="13.28472744082195"><ele>817.0</ele><time>2026-04-27T14:04:49Z</time></trkpt><trkpt lat="42.29903968334457" lon="13.284857413133063"><ele>815.5</ele><time>2026-04-27T14:04:50Z</time></trkpt><trkpt lat="42.29911360681256" lon="13.284985096089201"><ele>814.0</ele><time>2026-04-27T14:04:51Z</time></trkpt><trkpt lat="42.29917825535811" lon="13.285119789921191"><ele>812.5</ele><time>2026-04-27T14:04:52Z</time></trkpt><trkpt lat="42.299234177881544" lon="13.285260846921938"><ele>811.0</ele><time>2026-04-27T14:04:53Z</time></trkpt><trkpt lat="42.29928167107921" lon="13.285403505920245"><ele>811.0</ele><time>2026-04-27T14:04:54Z</time></trkpt><trkpt lat="42.29931806415801" lon="13.2855551210638"><ele>811.0</ele><time>2026-04-27T14:04:55Z</time></trkpt><trkpt lat="42.299350914985425" lon="13.285713823489088"><ele>811.0</ele><time>2026-04-27T14:04:56Z</time></trkpt><trkpt lat="42.29938146429207" lon="13.285879577100783"><ele>811.0</ele><time>2026-04-27T14:04:57Z</time></trkpt><trkpt lat="42.29940501138875" lon="13.286049944404178"><ele>809.75</ele><time>2026-04-27T14:04:58Z</time></trkpt><trkpt lat="42.299426377097" lon="13.286227285230705"><ele>808.5</ele><time>2026-04-27T14:04:59Z</time></trkpt><trkpt lat="42.29944131708727" lon="13.286407641985306"><ele>807.25</ele><time>2026-04-27T14:05:00Z</time></trkpt><trkpt lat="42.29944561284389" lon="13.28659018907131"><ele>806.0</ele><time>2026-04-27T14:05:01Z</time></trkpt><trkpt lat="42.2994516874457" lon="13.28677828015692"><ele>804.5</ele><time>2026-04-27T14:05:02Z</time></trkpt><trkpt lat="42.299458637851444" lon="13.286948183469637"><ele>803.0</ele><time>2026-04-27T14:05:03Z</time></trkpt><trkpt lat="42.29946621561174" lon="13.287112142918241"><ele>801.5</ele><time>2026-04-27T14:05:04Z</time></trkpt><trkpt lat="42.29947963297323" lon="13.287271598019894"><ele>800.0</ele><time>2026-04-27T14:05:05Z</time></trkpt><trkpt lat="42.29951106063125" lon="13.287419615427549"><ele>800.5</ele><time>2026-04-27T14:05:06Z</time></trkpt><trkpt lat="42.29957101243069" lon="13.28755473260349"><ele>801.0</ele><time>2026-04-27T14:05:07Z</time></trkpt><trkpt lat="42.299662776341336" lon="13.287664009267875"><ele>801.5</ele><time>2026-04-27T14:05:08Z</time></trkpt><trkpt lat="42.299766865454814" lon="13.28774300821509"><ele>802.0</ele><time>2026-04-27T14:05:09Z</time></trkpt><trkpt lat="42.29986963928115" lon="13.287784163445675"><ele>802.0</ele><time>2026-04-27T14:05:10Z</time></trkpt><trkpt lat="42.29997981302358" lon="13.287777301541103"><ele>802.0</ele><time>2026-04-27T14:05:11Z</time></trkpt><trkpt lat="42.300101751751995" lon="13.28772058796383"><ele>802.0</ele><time>2026-04-27T14:05:12Z</time></trkpt><trkpt lat="42.30022806414988" lon="13.287678343069452"><ele>802.0</ele><time>2026-04-27T14:05:13Z</time></trkpt><trkpt lat="42.300373025372615" lon="13.28766595725139"><ele>802.0</ele><time>2026-04-27T14:05:14Z</time></trkpt><trkpt lat="42.300523693006696" lon="13.287654437415767"><ele>802.0</ele><time>2026-04-27T14:05:15Z</time></trkpt><trkpt lat="42.300684453703695" lon="13.287654422961168"><ele>802.0</ele><time>2026-04-27T14:05:16Z</time></trkpt><trkpt lat="42.30084358016755" lon="13.287652546066342"><ele>800.75</ele><time>2026-04-27T14:05:17Z</time></trkpt><trkpt lat="42.30098890845688" lon="13.287652101131489"><ele>799.5</ele><time>2026-04-27T14:05:18Z</time></trkpt><trkpt lat="42.30112615075208" lon="13.28764632399281"><ele>798.25</ele><time>2026-04-27T14:05:19Z</time></trkpt><trkpt lat="42.30125719717914" lon="13.287624478735138"><ele>797.0</ele><time>2026-04-27T14:05:20Z</time></trkpt><trkpt lat="42.30139980874732" lon="13.28755189892756"><ele>793.0</ele><time>2026-04-27T14:05:21Z</time></trkpt><trkpt lat="42.30151803667021" lon="13.287454203311599"><ele>789.0</ele><time>2026-04-27T14:05:22Z</time></trkpt><trkpt lat="42.30162517908336" lon="13.28736726658528"><ele>785.0</ele><time>2026-04-27T14:05:23Z</time></trkpt><trkpt lat="42.30174090464401" lon="13.287331020870424"><ele>781.0</ele><time>2026-04-27T14:05:24Z</time></trkpt><trkpt lat="42.3018500396813" lon="13.287309598007903"><ele>781.0</ele><time>2026-04-27T14:05:25Z</time></trkpt><trkpt lat="42.30195444110875" lon="13.28731451491781"><ele>781.0</ele><time>2026-04-27T14:05:26Z</time></trkpt><trkpt lat="42.302038925954726" lon="13.287323840138011"><ele>781.0</ele><time>2026-04-27T14:05:27Z</time></trkpt><trkpt lat="42.30210714459638" lon="13.287317145787322"><ele>781.0</ele><time>2026-04-27T14:05:28Z</time></trkpt><trkpt lat="42.30207101434079" lon="13.28764417203162"><ele>781.0</ele><time>2026-04-27T14:05:34Z</time></trkpt><trkpt lat="42.30206160097425" lon="13.287803008496235"><ele>781.0</ele><time>2026-04-27T14:05:35Z</time></trkpt><trkpt lat="42.302068030423825" lon="13.287972192280739"><ele>781.0</ele><time>2026-04-27T14:05:36Z</time></trkpt><trkpt lat="42.302059514401215" lon="13.288156346540838"><ele>781.0</ele><time>2026-04-27T14:05:37Z</time></trkpt><trkpt lat="42.302044993609044" lon="13.28832000983194"><ele>779.4</ele><time>2026-04-27T14:05:38Z</time></trkpt><trkpt lat="42.30204048921226" lon="13.28846324899808"><ele>777.8</ele><time>2026-04-27T14:05:39Z</time></trkpt><trkpt lat="42.30203903652464" lon="13.288590158707377"><ele>776.1999999999999</ele><time>2026-04-27T14:05:40Z</time></trkpt><trkpt lat="42.302042344732136" lon="13.288702597176686"><ele>774.5999999999999</ele><time>2026-04-27T14:05:41Z</time></trkpt><trkpt lat="42.30205131965001" lon="13.288797405477961"><ele>773.0</ele><time>2026-04-27T14:05:42Z</time></trkpt><trkpt lat="42.30213500530747" lon="13.288892543100664"><ele>773.0000000000001</ele><time>2026-04-27T14:05:44Z</time></trkpt><trkpt lat="42.30220494241775" lon="13.288925321319237"><ele>773.0</ele><time>2026-04-27T14:05:45Z</time></trkpt><trkpt lat="42.30229492592307" lon="13.288962942106076"><ele>773.0</ele><time>2026-04-27T14:05:46Z</time></trkpt><trkpt lat="42.302375767888755" lon="13.288978805902355"><ele>773.0</ele><time>2026-04-27T14:05:47Z</time></trkpt><trkpt lat="42.30247164022519" lon="13.28898320175857"><ele>773.0000000000001</ele><time>2026-04-27T14:05:49Z</time></trkpt><trkpt lat="42.302571298442324" lon="13.288987892086269"><ele>773.0</ele><time>2026-04-27T14:05:50Z</time></trkpt><trkpt lat="42.302697849797944" lon="13.288979081862651"><ele>772.0</ele><time>2026-04-27T14:05:51Z</time></trkpt><trkpt lat="42.30282269756808" lon="13.288965392294603"><ele>771.0</ele><time>2026-04-27T14:05:52Z</time></trkpt><trkpt lat="42.302955591186894" lon="13.288958987329256"><ele>770.0</ele><time>2026-04-27T14:05:53Z</time></trkpt><trkpt lat="42.30309908760151" lon="13.288919642317914"><ele>769.0</ele><time>2026-04-27T14:05:54Z</time></trkpt><trkpt lat="42.3032604019684" lon="13.2888707161459"><ele>769.0</ele><time>2026-04-27T14:05:55Z</time></trkpt><trkpt lat="42.303394043647266" lon="13.288814171046589"><ele>769.0</ele><time>2026-04-27T14:05:56Z</time></trkpt><trkpt lat="42.30353945042052" lon="13.28875778824492"><ele>769.0</ele><time>2026-04-27T14:05:57Z</time></trkpt><trkpt lat="42.30369078358587" lon="13.28872708091377"><ele>769.0</ele><time>2026-04-27T14:05:58Z</time></trkpt><trkpt lat="42.30382708606835" lon="13.288720907868498"><ele>769.0</ele><time>2026-04-27T14:05:59Z</time></trkpt><trkpt lat="42.303963086621074" lon="13.288706007008152"><ele>769.0</ele><time>2026-04-27T14:06:00Z</time></trkpt><trkpt lat="42.30409198902075" lon="13.288684462084511"><ele>769.0</ele><time>2026-04-27T14:06:01Z</time></trkpt><trkpt lat="42.30421504836865" lon="13.288654892701866"><ele>769.0</ele><time>2026-04-27T14:06:02Z</time></trkpt><trkpt lat="42.304345721322946" lon="13.288608780537698"><ele>769.0</ele><time>2026-04-27T14:06:03Z</time></trkpt><trkpt lat="42.304477132393735" lon="13.288567568375722"><ele>769.0</ele><time>2026-04-27T14:06:04Z</time></trkpt><trkpt lat="42.30458972291816" lon="13.288522153967996"><ele>769.0</ele><time>2026-04-27T14:06:05Z</time></trkpt><trkpt lat="42.304707512274284" lon="13.288470907007168"><ele>769.0</ele><time>2026-04-27T14:06:06Z</time></trkpt><trkpt lat="42.30483181167656" lon="13.288423079874194"><ele>768.8000000000001</ele><time>2026-04-27T14:06:07Z</time></trkpt><trkpt lat="42.30494403819733" lon="13.288380828555844"><ele>768.6</ele><time>2026-04-27T14:06:08Z</time></trkpt><trkpt lat="42.30504417235354" lon="13.288338360311338"><ele>768.4</ele><time>2026-04-27T14:06:09Z</time></trkpt><trkpt lat="42.305131497603966" lon="13.288313313018792"><ele>768.2</ele><time>2026-04-27T14:06:10Z</time></trkpt><trkpt lat="42.30522453862206" lon="13.288308032046027"><ele>768.0</ele><time>2026-04-27T14:06:11Z</time></trkpt><trkpt lat="42.30534805208129" lon="13.288308843111544"><ele>768.0</ele><time>2026-04-27T14:06:12Z</time></trkpt><trkpt lat="42.305465149745075" lon="13.288313982131637"><ele>768.0</ele><time>2026-04-27T14:06:13Z</time></trkpt><trkpt lat="42.305605460694274" lon="13.288339798560708"><ele>768.0</ele><time>2026-04-27T14:06:14Z</time></trkpt><trkpt lat="42.30572941606178" lon="13.288336432919282"><ele>768.0</ele><time>2026-04-27T14:06:15Z</time></trkpt><trkpt lat="42.30584147678875" lon="13.288315930203078"><ele>767.75</ele><time>2026-04-27T14:06:16Z</time></trkpt><trkpt lat="42.305939039808536" lon="13.288262822931772"><ele>767.5</ele><time>2026-04-27T14:06:17Z</time></trkpt><trkpt lat="42.30605219681039" lon="13.288190968167592"><ele>767.25</ele><time>2026-04-27T14:06:18Z</time></trkpt><trkpt lat="42.3061621472088" lon="13.28812098636143"><ele>767.0</ele><time>2026-04-27T14:06:19Z</time></trkpt><trkpt lat="42.30627114140859" lon="13.288036998041749"><ele>766.6</ele><time>2026-04-27T14:06:20Z</time></trkpt><trkpt lat="42.30639386656572" lon="13.287971579071343"><ele>766.2</ele><time>2026-04-27T14:06:21Z</time></trkpt><trkpt lat="42.30649846626443" lon="13.287926468509774"><ele>765.8</ele><time>2026-04-27T14:06:21.999Z</time></trkpt><trkpt lat="42.30658546883964" lon="13.287873997307328"><ele>765.4</ele><time>2026-04-27T14:06:22.999Z</time></trkpt><trkpt lat="42.30667614436955" lon="13.287833464361851"><ele>765.0</ele><time>2026-04-27T14:06:23.999Z</time></trkpt><trkpt lat="42.3067546582184" lon="13.287809070233102"><ele>765.0</ele><time>2026-04-27T14:06:24.999Z</time></trkpt><trkpt lat="42.3068643071053" lon="13.28780466768007"><ele>765.0</ele><time>2026-04-27T14:06:26.999Z</time></trkpt><trkpt lat="42.30695581608041" lon="13.287783604022012"><ele>765.0</ele><time>2026-04-27T14:06:28.999Z</time></trkpt><trkpt lat="42.30700940932107" lon="13.287719994342842"><ele>765.0</ele><time>2026-04-27T14:06:29.999Z</time></trkpt><trkpt lat="42.30707294058059" lon="13.28763978762826"><ele>765.0</ele><time>2026-04-27T14:06:30.999Z</time></trkpt><trkpt lat="42.30714589572011" lon="13.287544110928904"><ele>765.0</ele><time>2026-04-27T14:06:31.999Z</time></trkpt><trkpt lat="42.30721900535681" lon="13.287438044546725"><ele>765.0</ele><time>2026-04-27T14:06:32.999Z</time></trkpt><trkpt lat="42.30728978672641" lon="13.287338380942883"><ele>765.0</ele><time>2026-04-27T14:06:33.999Z</time></trkpt><trkpt lat="42.30736665102659" lon="13.287232891970504"><ele>765.0</ele><time>2026-04-27T14:06:34.999Z</time></trkpt><trkpt lat="42.30745101131752" lon="13.287123141807662"><ele>765.0</ele><time>2026-04-27T14:06:35.999Z</time></trkpt><trkpt lat="42.30753751362076" lon="13.287010401681691"><ele>764.5</ele><time>2026-04-27T14:06:36.999Z</time></trkpt><trkpt lat="42.30762596613603" lon="13.286907260257392"><ele>764.0</ele><time>2026-04-27T14:06:37.999Z</time></trkpt><trkpt lat="42.307704042638754" lon="13.286809686587269"><ele>763.5</ele><time>2026-04-27T14:06:39Z</time></trkpt><trkpt lat="42.30779684881136" lon="13.286718660479623"><ele>763.0</ele><time>2026-04-27T14:06:40Z</time></trkpt><trkpt lat="42.307894744815016" lon="13.286632578250774"><ele>763.0</ele><time>2026-04-27T14:06:41Z</time></trkpt><trkpt lat="42.308001383787854" lon="13.286556279921507"><ele>763.0</ele><time>2026-04-27T14:06:42Z</time></trkpt><trkpt lat="42.30810769326538" lon="13.286493251055989"><ele>763.0</ele><time>2026-04-27T14:06:43Z</time></trkpt><trkpt lat="42.30820852861282" lon="13.286436506395907"><ele>763.0</ele><time>2026-04-27T14:06:44Z</time></trkpt><trkpt lat="42.308300656072454" lon="13.286378871922325"><ele>763.0</ele><time>2026-04-27T14:06:45Z</time></trkpt><trkpt lat="42.30838803272307" lon="13.286321845133068"><ele>761.8</ele><time>2026-04-27T14:06:46Z</time></trkpt><trkpt lat="42.308468487907575" lon="13.286266284431585"><ele>760.5999999999999</ele><time>2026-04-27T14:06:47Z</time></trkpt><trkpt lat="42.308553854080145" lon="13.286210650226908"><ele>759.4000000000001</ele><time>2026-04-27T14:06:48Z</time></trkpt><trkpt lat="42.30863372205322" lon="13.286155920484713"><ele>758.2</ele><time>2026-04-27T14:06:49Z</time></trkpt><trkpt lat="42.308720838980626" lon="13.286104348893035"><ele>757.0</ele><time>2026-04-27T14:06:50Z</time></trkpt><trkpt lat="42.30880737313763" lon="13.28604956009745"><ele>757.0</ele><time>2026-04-27T14:06:51Z</time></trkpt><trkpt lat="42.30890427415776" lon="13.285997691452438"><ele>757.0</ele><time>2026-04-27T14:06:52Z</time></trkpt><trkpt lat="42.308999721491446" lon="13.28595485491282"><ele>757.0</ele><time>2026-04-27T14:06:53Z</time></trkpt><trkpt lat="42.30910303452877" lon="13.285926134947102"><ele>757.0</ele><time>2026-04-27T14:06:54Z</time></trkpt><trkpt lat="42.30920699150129" lon="13.285908001076717"><ele>757.0</ele><time>2026-04-27T14:06:55Z</time></trkpt><trkpt lat="42.3093264500934" lon="13.285899165491294"><ele>757.0</ele><time>2026-04-27T14:06:56Z</time></trkpt><trkpt lat="42.30944420192995" lon="13.28588472950146"><ele>757.0</ele><time>2026-04-27T14:06:57Z</time></trkpt><trkpt lat="42.30955213547893" lon="13.285869409164645"><ele>757.0</ele><time>2026-04-27T14:06:58Z</time></trkpt><trkpt lat="42.30962605582672" lon="13.285857382766329"><ele>757.0</ele><time>2026-04-27T14:06:59Z</time></trkpt><trkpt lat="42.30970474038238" lon="13.285886700924765"><ele>757.0</ele><time>2026-04-27T14:07:01Z</time></trkpt><trkpt lat="42.30967601148272" lon="13.28597542861668"><ele>757.0</ele><time>2026-04-27T14:07:03Z</time></trkpt><trkpt lat="42.30956205356885" lon="13.285945160925694"><ele>757.0</ele><time>2026-04-27T14:07:05Z</time></trkpt><trkpt lat="42.309482951301035" lon="13.285952080059202"><ele>757.0</ele><time>2026-04-27T14:07:06Z</time></trkpt><trkpt lat="42.3094080515052" lon="13.285969538253182"><ele>757.0</ele><time>2026-04-27T14:07:07Z</time></trkpt><trkpt lat="42.30930620008443" lon="13.285966329615578"><ele>757.0</ele><time>2026-04-27T14:07:08Z</time></trkpt><trkpt lat="42.309210543769495" lon="13.285987637263338"><ele>757.0</ele><time>2026-04-27T14:07:09Z</time></trkpt><trkpt lat="42.3091157905143" lon="13.286028896764014"><ele>757.0</ele><time>2026-04-27T14:07:10Z</time></trkpt><trkpt lat="42.309029327916235" lon="13.286074953778376"><ele>757.0</ele><time>2026-04-27T14:07:11Z</time></trkpt><trkpt lat="42.30894627443199" lon="13.286115690926433"><ele>757.0</ele><time>2026-04-27T14:07:12Z</time></trkpt><trkpt lat="42.30885547737992" lon="13.286155931493964"><ele>757.0</ele><time>2026-04-27T14:07:13Z</time></trkpt><trkpt lat="42.308768824070725" lon="13.28621489659676"><ele>757.0</ele><time>2026-04-27T14:07:14Z</time></trkpt><trkpt lat="42.308671050869826" lon="13.286271162670465"><ele>757.0</ele><time>2026-04-27T14:07:15Z</time></trkpt><trkpt lat="42.308585906301424" lon="13.286320473566601"><ele>757.0</ele><time>2026-04-27T14:07:16Z</time></trkpt><trkpt lat="42.308508812978445" lon="13.286369738745663"><ele>757.0</ele><time>2026-04-27T14:07:17Z</time></trkpt><trkpt lat="42.30844738979653" lon="13.28642494639073"><ele>757.0</ele><time>2026-04-27T14:07:18Z</time></trkpt><trkpt lat="42.308424259214426" lon="13.286512076818221"><ele>757.0</ele><time>2026-04-27T14:07:19Z</time></trkpt><trkpt lat="42.308519408687076" lon="13.286661739942355"><ele>759.0</ele><time>2026-04-27T14:07:21Z</time></trkpt><trkpt lat="42.30860967505048" lon="13.286663375554369"><ele>761.0</ele><time>2026-04-27T14:07:22Z</time></trkpt><trkpt lat="42.30870660241266" lon="13.28662940349381"><ele>763.0</ele><time>2026-04-27T14:07:23Z</time></trkpt><trkpt lat="42.30880650916505" lon="13.286593763184536"><ele>765.0</ele><time>2026-04-27T14:07:24Z</time></trkpt><trkpt lat="42.308922435102524" lon="13.286577563209597"><ele>767.0</ele><time>2026-04-27T14:07:25Z</time></trkpt><trkpt lat="42.30905169537523" lon="13.286567142447348"><ele>768.5</ele><time>2026-04-27T14:07:26Z</time></trkpt><trkpt lat="42.30918211921516" lon="13.286549466190044"><ele>770.0</ele><time>2026-04-27T14:07:27Z</time></trkpt><trkpt lat="42.30931924643906" lon="13.286543640286144"><ele>771.5</ele><time>2026-04-27T14:07:28Z</time></trkpt><trkpt lat="42.30945284438075" lon="13.286531947697082"><ele>773.0</ele><time>2026-04-27T14:07:29Z</time></trkpt><trkpt lat="42.30959259039084" lon="13.286521508291127"><ele>773.0</ele><time>2026-04-27T14:07:30Z</time></trkpt><trkpt lat="42.30973950349073" lon="13.286503608160032"><ele>773.0</ele><time>2026-04-27T14:07:31Z</time></trkpt><trkpt lat="42.309894156923114" lon="13.28649136870694"><ele>773.0</ele><time>2026-04-27T14:07:32Z</time></trkpt><trkpt lat="42.31003726495917" lon="13.286455711149946"><ele>773.0</ele><time>2026-04-27T14:07:33Z</time></trkpt><trkpt lat="42.31020024243486" lon="13.28642619818646"><ele>773.0</ele><time>2026-04-27T14:07:34Z</time></trkpt><trkpt lat="42.31034733282637" lon="13.286397074858192"><ele>773.0</ele><time>2026-04-27T14:07:35Z</time></trkpt><trkpt lat="42.310495914640924" lon="13.28636843862479"><ele>773.0</ele><time>2026-04-27T14:07:36Z</time></trkpt><trkpt lat="42.31063295954901" lon="13.286352848833085"><ele>773.0</ele><time>2026-04-27T14:07:37Z</time></trkpt><trkpt lat="42.31075834520792" lon="13.286345745785813"><ele>773.0000000000001</ele><time>2026-04-27T14:07:38Z</time></trkpt><trkpt lat="42.310863998542395" lon="13.286349030235861"><ele>773.0</ele><time>2026-04-27T14:07:39Z</time></trkpt><trkpt lat="42.31095267282441" lon="13.286359869222917"><ele>773.0</ele><time>2026-04-27T14:07:40Z</time></trkpt><trkpt lat="42.31103180952339" lon="13.28637182167396"><ele>773.0</ele><time>2026-04-27T14:07:41Z</time></trkpt><trkpt lat="42.31110369289996" lon="13.2863767674371"><ele>773.0000000000001</ele><time>2026-04-27T14:07:42Z</time></trkpt><trkpt lat="42.311167224791824" lon="13.286370265284019"><ele>773.0</ele><time>2026-04-27T14:07:43Z</time></trkpt><trkpt lat="42.31126822740937" lon="13.286309655049125"><ele>773.0000000000001</ele><time>2026-04-27T14:07:45Z</time></trkpt><trkpt lat="42.3113313085826" lon="13.286254563166125"><ele>773.0</ele><time>2026-04-27T14:07:46Z</time></trkpt><trkpt lat="42.31139396972984" lon="13.286186209983887"><ele>773.0</ele><time>2026-04-27T14:07:47Z</time></trkpt><trkpt lat="42.31146208375864" lon="13.286108453480399"><ele>773.0</ele><time>2026-04-27T14:07:48Z</time></trkpt><trkpt lat="42.311519846673114" lon="13.286042027699922"><ele>773.0000000000001</ele><time>2026-04-27T14:07:49Z</time></trkpt><trkpt lat="42.31162151060841" lon="13.286021524566422"><ele>773.0</ele><time>2026-04-27T14:07:51Z</time></trkpt><trkpt lat="42.311656249960485" lon="13.286150729631025"><ele>775.4</ele><time>2026-04-27T14:07:53Z</time></trkpt><trkpt lat="42.31162658437257" lon="13.286226595575714"><ele>777.8</ele><time>2026-04-27T14:07:54Z</time></trkpt><trkpt lat="42.31158353506422" lon="13.286326601654764"><ele>780.2</ele><time>2026-04-27T14:07:55Z</time></trkpt><trkpt lat="42.3115252349674" lon="13.28644280102267"><ele>782.6</ele><time>2026-04-27T14:07:56Z</time></trkpt><trkpt lat="42.31146867054466" lon="13.286580610974768"><ele>785.0</ele><time>2026-04-27T14:07:57Z</time></trkpt><trkpt lat="42.311406400616484" lon="13.28673023268753"><ele>786.5</ele><time>2026-04-27T14:07:58Z</time></trkpt><trkpt lat="42.31134547687082" lon="13.286870506812903"><ele>788.0</ele><time>2026-04-27T14:07:59Z</time></trkpt><trkpt lat="42.311281631919016" lon="13.28701312093029"><ele>789.5</ele><time>2026-04-27T14:08:00Z</time></trkpt><trkpt lat="42.3112133085203" lon="13.28714760384524"><ele>791.0</ele><time>2026-04-27T14:08:01Z</time></trkpt><trkpt lat="42.31113418086399" lon="13.28727839626752"><ele>792.5</ele><time>2026-04-27T14:08:02Z</time></trkpt><trkpt lat="42.31105144891831" lon="13.287392853351795"><ele>794.0</ele><time>2026-04-27T14:08:03Z</time></trkpt><trkpt lat="42.31095972111467" lon="13.287504250943794"><ele>795.5</ele><time>2026-04-27T14:08:04Z</time></trkpt><trkpt lat="42.31086408100287" lon="13.287610549503475"><ele>797.0</ele><time>2026-04-27T14:08:05Z</time></trkpt><trkpt lat="42.310761422968724" lon="13.28771139604463"><ele>797.0</ele><time>2026-04-27T14:08:06Z</time></trkpt><trkpt lat="42.31065345682527" lon="13.287808416574912"><ele>797.0</ele><time>2026-04-27T14:08:07Z</time></trkpt><trkpt lat="42.31054553895385" lon="13.287914124970994"><ele>797.0</ele><time>2026-04-27T14:08:08Z</time></trkpt><trkpt lat="42.31043483824403" lon="13.28802261991735"><ele>797.0</ele><time>2026-04-27T14:08:09Z</time></trkpt><trkpt lat="42.31032772428093" lon="13.288133861413462"><ele>797.25</ele><time>2026-04-27T14:08:10Z</time></trkpt><trkpt lat="42.31022076708857" lon="13.288251911391045"><ele>797.5</ele><time>2026-04-27T14:08:11Z</time></trkpt><trkpt lat="42.310119779885156" lon="13.288368539663214"><ele>797.75</ele><time>2026-04-27T14:08:12Z</time></trkpt><trkpt lat="42.310025143585875" lon="13.288483847451726"><ele>798.0</ele><time>2026-04-27T14:08:13Z</time></trkpt><trkpt lat="42.30992695265344" lon="13.28860397475396"><ele>798.0</ele><time>2026-04-27T14:08:14Z</time></trkpt><trkpt lat="42.309814241595674" lon="13.288732309079485"><ele>798.0</ele><time>2026-04-27T14:08:15Z</time></trkpt><trkpt lat="42.30969196888295" lon="13.288877050359623"><ele>798.0</ele><time>2026-04-27T14:08:16Z</time></trkpt><trkpt lat="42.3095734380637" lon="13.289008766867113"><ele>798.0</ele><time>2026-04-27T14:08:17Z</time></trkpt><trkpt lat="42.309472254597836" lon="13.289120646767794"><ele>798.0</ele><time>2026-04-27T14:08:18Z</time></trkpt><trkpt lat="42.30939676282734" lon="13.289200307813928"><ele>798.0</ele><time>2026-04-27T14:08:19Z</time></trkpt><trkpt lat="42.309319114513734" lon="13.28927448519179"><ele>798.0</ele><time>2026-04-27T14:08:21Z</time></trkpt><trkpt lat="42.30926304573217" lon="13.28933735945911"><ele>798.0</ele><time>2026-04-27T14:08:25Z</time></trkpt><trkpt lat="42.30918155538357" lon="13.289426589329274"><ele>798.0</ele><time>2026-04-27T14:08:27Z</time></trkpt><trkpt lat="42.30911973652542" lon="13.289493573990796"><ele>798.0</ele><time>2026-04-27T14:08:27.999Z</time></trkpt><trkpt lat="42.30904899952604" lon="13.289569721087437"><ele>798.0</ele><time>2026-04-27T14:08:28.999Z</time></trkpt><trkpt lat="42.30897872810641" lon="13.289643248651384"><ele>798.0</ele><time>2026-04-27T14:08:29.999Z</time></trkpt><trkpt lat="42.308896046533334" lon="13.289727586461407"><ele>798.0</ele><time>2026-04-27T14:08:30.999Z</time></trkpt><trkpt lat="42.30882706982618" lon="13.28979635244354"><ele>798.0</ele><time>2026-04-27T14:08:31.999Z</time></trkpt><trkpt lat="42.308775786114516" lon="13.289847479482242"><ele>798.8</ele><time>2026-04-27T14:08:32.999Z</time></trkpt><trkpt lat="42.30872053538437" lon="13.289902561504926"><ele>799.5999999999999</ele><time>2026-04-27T14:08:34.999Z</time></trkpt><trkpt lat="42.30880588628308" lon="13.290082384802274"><ele>800.4000000000001</ele><time>2026-04-27T14:08:35.999Z</time></trkpt><trkpt lat="42.30885437506275" lon="13.290157261641793"><ele>801.2</ele><time>2026-04-27T14:08:36.999Z</time></trkpt><trkpt lat="42.3089162113106" lon="13.290257418685508"><ele>802.0</ele><time>2026-04-27T14:08:37.999Z</time></trkpt><trkpt lat="42.30898723564963" lon="13.290388119325556"><ele>801.9999999999999</ele><time>2026-04-27T14:08:38.999Z</time></trkpt><trkpt lat="42.3090392290586" lon="13.290519292773498"><ele>802.0</ele><time>2026-04-27T14:08:39.999Z</time></trkpt><trkpt lat="42.30909712074318" lon="13.290619159157124"><ele>802.0</ele><time>2026-04-27T14:08:40.999Z</time></trkpt><trkpt lat="42.309135082137125" lon="13.290693796746618"><ele>802.0</ele><time>2026-04-27T14:08:41.999Z</time></trkpt><trkpt lat="42.309125378685714" lon="13.29079222886037"><ele>801.9999999999999</ele><time>2026-04-27T14:08:43.999Z</time></trkpt><trkpt lat="42.3091291201255" lon="13.29089736361908"><ele>802.0</ele><time>2026-04-27T14:08:44.999Z</time></trkpt><trkpt lat="42.30916455970563" lon="13.29100705200816"><ele>802.0</ele><time>2026-04-27T14:08:45.999Z</time></trkpt><trkpt lat="42.30920164231562" lon="13.29115111402879"><ele>802.0</ele><time>2026-04-27T14:08:46.999Z</time></trkpt><trkpt lat="42.30925314143914" lon="13.29128948404073"><ele>802.0</ele><time>2026-04-27T14:08:47.999Z</time></trkpt><trkpt lat="42.309293538091964" lon="13.291489266814557"><ele>802.0</ele><time>2026-04-27T14:08:48.999Z</time></trkpt><trkpt lat="42.30931761975379" lon="13.291649248621514"><ele>801.6</ele><time>2026-04-27T14:08:49.999Z</time></trkpt><trkpt lat="42.30933779238164" lon="13.291792917273138"><ele>801.2</ele><time>2026-04-27T14:08:50.999Z</time></trkpt><trkpt lat="42.309355919523796" lon="13.291927446175475"><ele>800.8</ele><time>2026-04-27T14:08:51.999Z</time></trkpt><trkpt lat="42.309372489419836" lon="13.292050418169254"><ele>800.4</ele><time>2026-04-27T14:08:52.999Z</time></trkpt><trkpt lat="42.30940386403469" lon="13.292154918270151"><ele>800.0</ele><time>2026-04-27T14:08:53.999Z</time></trkpt><trkpt lat="42.30940696861191" lon="13.29228256848044"><ele>799.6</ele><time>2026-04-27T14:08:54.999Z</time></trkpt><trkpt lat="42.30941848252513" lon="13.292407891795776"><ele>799.2</ele><time>2026-04-27T14:08:55.999Z</time></trkpt><trkpt lat="42.3094454957099" lon="13.292526087723537"><ele>798.8</ele><time>2026-04-27T14:08:56.999Z</time></trkpt><trkpt lat="42.30947958438075" lon="13.292656528546779"><ele>798.4</ele><time>2026-04-27T14:08:57.999Z</time></trkpt><trkpt lat="42.30952674613976" lon="13.292810510276258"><ele>798.0</ele><time>2026-04-27T14:08:58.999Z</time></trkpt><trkpt lat="42.309535975252025" lon="13.29298679522417"><ele>797.0</ele><time>2026-04-27T14:08:59.999Z</time></trkpt><trkpt lat="42.30953809690606" lon="13.293199164287103"><ele>796.0</ele><time>2026-04-27T14:09:00.999Z</time></trkpt><trkpt lat="42.30955419349969" lon="13.29336235299482"><ele>795.0</ele><time>2026-04-27T14:09:01.999Z</time></trkpt><trkpt lat="42.309565832903324" lon="13.293471546472823"><ele>794.0</ele><time>2026-04-27T14:09:02.999Z</time></trkpt><trkpt lat="42.30957715200592" lon="13.293562760797974"><ele>793.0</ele><time>2026-04-27T14:09:03.999Z</time></trkpt><trkpt lat="42.30962114951974" lon="13.293674247223226"><ele>793.0</ele><time>2026-04-27T14:09:05.999Z</time></trkpt><trkpt lat="42.309724014922324" lon="13.293652849422271"><ele>793.0</ele><time>2026-04-27T14:09:07.999Z</time></trkpt><trkpt lat="42.309794773535074" lon="13.293588694498508"><ele>793.0</ele><time>2026-04-27T14:09:08.999Z</time></trkpt><trkpt lat="42.30987249664486" lon="13.293523708986243"><ele>793.0</ele><time>2026-04-27T14:09:09.999Z</time></trkpt><trkpt lat="42.3099522060731" lon="13.293495392441999"><ele>793.0</ele><time>2026-04-27T14:09:10.999Z</time></trkpt><trkpt lat="42.310046104289974" lon="13.293579307757351"><ele>791.1666666666666</ele><time>2026-04-27T14:09:12.999Z</time></trkpt><trkpt lat="42.31007349252788" lon="13.293668197273336"><ele>789.3333333333333</ele><time>2026-04-27T14:09:13.999Z</time></trkpt><trkpt lat="42.3100951662353" lon="13.293779880584054"><ele>787.5</ele><time>2026-04-27T14:09:14.999Z</time></trkpt><trkpt lat="42.31009842493127" lon="13.293884742171528"><ele>785.6666666666667</ele><time>2026-04-27T14:09:15.999Z</time></trkpt><trkpt lat="42.31005961924154" lon="13.293958482515423"><ele>783.8333333333334</ele><time>2026-04-27T14:09:16.999Z</time></trkpt><trkpt lat="42.31000121446893" lon="13.294027967770361"><ele>782.0</ele><time>2026-04-27T14:09:17.999Z</time></trkpt><trkpt lat="42.309937525435245" lon="13.2940791964203"><ele>782.2</ele><time>2026-04-27T14:09:18.999Z</time></trkpt><trkpt lat="42.309857892662635" lon="13.294105588953919"><ele>782.4000000000001</ele><time>2026-04-27T14:09:20Z</time></trkpt><trkpt lat="42.30976012718812" lon="13.294115875901282"><ele>782.5999999999999</ele><time>2026-04-27T14:09:21Z</time></trkpt><trkpt lat="42.30964135680846" lon="13.29414515253163"><ele>782.8</ele><time>2026-04-27T14:09:22Z</time></trkpt><trkpt lat="42.30953660898967" lon="13.294179381968862"><ele>783.0</ele><time>2026-04-27T14:09:23Z</time></trkpt><trkpt lat="42.3094614579663" lon="13.294215494641088"><ele>783.0</ele><time>2026-04-27T14:09:24Z</time></trkpt><trkpt lat="42.30942395722701" lon="13.294357474501558"><ele>783.0</ele><time>2026-04-27T14:09:26Z</time></trkpt><trkpt lat="42.309427826138915" lon="13.294453982902436"><ele>783.0</ele><time>2026-04-27T14:09:27Z</time></trkpt><trkpt lat="42.3094503692443" lon="13.294579720065563"><ele>783.0</ele><time>2026-04-27T14:09:28Z</time></trkpt><trkpt lat="42.309475998538005" lon="13.29470760245128"><ele>783.0</ele><time>2026-04-27T14:09:29Z</time></trkpt><trkpt lat="42.30948913597365" lon="13.294821508220272"><ele>781.75</ele><time>2026-04-27T14:09:30Z</time></trkpt><trkpt lat="42.309470395953326" lon="13.294934246075787"><ele>780.5</ele><time>2026-04-27T14:09:31Z</time></trkpt><trkpt lat="42.30942240651795" lon="13.295050905230395"><ele>779.25</ele><time>2026-04-27T14:09:32Z</time></trkpt><trkpt lat="42.309352508526906" lon="13.29518908508686"><ele>778.0</ele><time>2026-04-27T14:09:33Z</time></trkpt><trkpt lat="42.309279322986825" lon="13.295354744835022"><ele>778.0</ele><time>2026-04-27T14:09:34Z</time></trkpt><trkpt lat="42.309227109751625" lon="13.295521799842822"><ele>778.0</ele><time>2026-04-27T14:09:35Z</time></trkpt><trkpt lat="42.30917325386933" lon="13.295672469905758"><ele>778.0</ele><time>2026-04-27T14:09:36Z</time></trkpt><trkpt lat="42.30911198622545" lon="13.295824731155534"><ele>778.0</ele><time>2026-04-27T14:09:37Z</time></trkpt><trkpt lat="42.30905475679599" lon="13.295963075267881"><ele>778.75</ele><time>2026-04-27T14:09:38Z</time></trkpt><trkpt lat="42.30899403589407" lon="13.296091104049808"><ele>779.5</ele><time>2026-04-27T14:09:39Z</time></trkpt><trkpt lat="42.308920868292894" lon="13.29621347769004"><ele>780.25</ele><time>2026-04-27T14:09:40Z</time></trkpt><trkpt lat="42.308855989180564" lon="13.296351978012844"><ele>781.0</ele><time>2026-04-27T14:09:41Z</time></trkpt><trkpt lat="42.308790060957406" lon="13.296503333745633"><ele>779.25</ele><time>2026-04-27T14:09:42Z</time></trkpt><trkpt lat="42.30872378051517" lon="13.296674583085611"><ele>777.5</ele><time>2026-04-27T14:09:43Z</time></trkpt><trkpt lat="42.308662417714515" lon="13.296851536301782"><ele>775.75</ele><time>2026-04-27T14:09:44Z</time></trkpt><trkpt lat="42.308615003712895" lon="13.297005619571351"><ele>774.0</ele><time>2026-04-27T14:09:45Z</time></trkpt><trkpt lat="42.30856090633682" lon="13.297147104529207"><ele>773.4000000000001</ele><time>2026-04-27T14:09:46Z</time></trkpt><trkpt lat="42.30848753496996" lon="13.297272377841777"><ele>772.8</ele><time>2026-04-27T14:09:47Z</time></trkpt><trkpt lat="42.308408181596235" lon="13.297389012320414"><ele>772.2</ele><time>2026-04-27T14:09:48Z</time></trkpt><trkpt lat="42.308336750786" lon="13.297509791622618"><ele>771.5999999999999</ele><time>2026-04-27T14:09:49Z</time></trkpt><trkpt lat="42.30830439779535" lon="13.297606698861694"><ele>771.0</ele><time>2026-04-27T14:09:50Z</time></trkpt><trkpt lat="42.308323281894886" lon="13.297780257092409"><ele>771.0</ele><time>2026-04-27T14:09:52Z</time></trkpt><trkpt lat="42.30834324909407" lon="13.29790962275939"><ele>771.0</ele><time>2026-04-27T14:09:53Z</time></trkpt><trkpt lat="42.30834757248438" lon="13.298041439099395"><ele>771.0</ele><time>2026-04-27T14:09:54Z</time></trkpt><trkpt lat="42.3083612356713" lon="13.298151316063377"><ele>771.0</ele><time>2026-04-27T14:09:55Z</time></trkpt><trkpt lat="42.30836777215762" lon="13.298243472140348"><ele>771.0</ele><time>2026-04-27T14:09:56Z</time></trkpt><trkpt lat="42.308361210522435" lon="13.298328254526322"><ele>771.0</ele><time>2026-04-27T14:09:57Z</time></trkpt><trkpt lat="42.30824493166079" lon="13.29841647945382"><ele>770.4</ele><time>2026-04-27T14:09:59Z</time></trkpt><trkpt lat="42.308152942874536" lon="13.29848060258988"><ele>769.8</ele><time>2026-04-27T14:10:00Z</time></trkpt><trkpt lat="42.30806812929506" lon="13.29855620737787"><ele>769.1999999999999</ele><time>2026-04-27T14:10:01Z</time></trkpt><trkpt lat="42.30798703479987" lon="13.298591774237108"><ele>768.5999999999999</ele><time>2026-04-27T14:10:02Z</time></trkpt><trkpt lat="42.30788414844861" lon="13.298591993279222"><ele>768.0</ele><time>2026-04-27T14:10:03Z</time></trkpt><trkpt lat="42.30776403911247" lon="13.298596446461195"><ele>769.1666666666666</ele><time>2026-04-27T14:10:04Z</time></trkpt><trkpt lat="42.307659970160884" lon="13.29862827558792"><ele>770.3333333333333</ele><time>2026-04-27T14:10:05Z</time></trkpt><trkpt lat="42.30759361196201" lon="13.298684970956693"><ele>771.5</ele><time>2026-04-27T14:10:06Z</time></trkpt><trkpt lat="42.30754546531783" lon="13.298767630761843"><ele>772.6666666666666</ele><time>2026-04-27T14:10:07Z</time></trkpt><trkpt lat="42.30747966711935" lon="13.298869413649944"><ele>773.8333333333333</ele><time>2026-04-27T14:10:08Z</time></trkpt><trkpt lat="42.307454564840825" lon="13.29897694881278"><ele>775.0</ele><time>2026-04-27T14:10:09Z</time></trkpt><trkpt lat="42.307448833147404" lon="13.29909491958181"><ele>775.1666666666666</ele><time>2026-04-27T14:10:10Z</time></trkpt><trkpt lat="42.30741911586943" lon="13.299223087888967"><ele>775.3333333333333</ele><time>2026-04-27T14:10:11Z</time></trkpt><trkpt lat="42.30736449577908" lon="13.29929237434836"><ele>775.5</ele><time>2026-04-27T14:10:12Z</time></trkpt><trkpt lat="42.30729764181513" lon="13.29929925214493"><ele>775.6666666666667</ele><time>2026-04-27T14:10:13Z</time></trkpt><trkpt lat="42.30722030128904" lon="13.299276905340971"><ele>775.8333333333334</ele><time>2026-04-27T14:10:14Z</time></trkpt><trkpt lat="42.30713297566665" lon="13.299275915350025"><ele>776.0</ele><time>2026-04-27T14:10:15Z</time></trkpt><trkpt lat="42.30704735720211" lon="13.299287816599765"><ele>776.0000000000001</ele><time>2026-04-27T14:10:16Z</time></trkpt><trkpt lat="42.306970507181234" lon="13.299257573084494"><ele>776.0</ele><time>2026-04-27T14:10:17Z</time></trkpt><trkpt lat="42.30687715377907" lon="13.299303734824298"><ele>776.0</ele><time>2026-04-27T14:10:19Z</time></trkpt><trkpt lat="42.306844438140146" lon="13.299386102932683"><ele>776.0</ele><time>2026-04-27T14:10:20Z</time></trkpt><trkpt lat="42.306803154106674" lon="13.29946056132603"><ele>776.0000000000001</ele><time>2026-04-27T14:10:21Z</time></trkpt><trkpt lat="42.30669657006889" lon="13.29947580523629"><ele>776.0</ele><time>2026-04-27T14:10:23Z</time></trkpt><trkpt lat="42.30658846059834" lon="13.299448883563429"><ele>776.0</ele><time>2026-04-27T14:10:25Z</time></trkpt><trkpt lat="42.30654670361024" lon="13.29961553417316"><ele>776.0</ele><time>2026-04-27T14:10:27Z</time></trkpt><trkpt lat="42.30650981401734" lon="13.299731702800827"><ele>776.0</ele><time>2026-04-27T14:10:28Z</time></trkpt><trkpt lat="42.30645938774657" lon="13.299809623021213"><ele>776.0</ele><time>2026-04-27T14:10:29Z</time></trkpt><trkpt lat="42.30639044645484" lon="13.299837362868404"><ele>776.0</ele><time>2026-04-27T14:10:31Z</time></trkpt><trkpt lat="42.30626939644831" lon="13.299895986851013"><ele>776.1666666666667</ele><time>2026-04-27T14:10:32Z</time></trkpt><trkpt lat="42.3061974792642" lon="13.29997746962461"><ele>776.3333333333334</ele><time>2026-04-27T14:10:33Z</time></trkpt><trkpt lat="42.30611957918928" lon="13.300074059336486"><ele>776.5</ele><time>2026-04-27T14:10:34.999Z</time></trkpt><trkpt lat="42.306051232646304" lon="13.300065207688032"><ele>776.6666666666667</ele><time>2026-04-27T14:10:35.999Z</time></trkpt><trkpt lat="42.3059960786138" lon="13.300008178627657"><ele>776.8333333333334</ele><time>2026-04-27T14:10:36.999Z</time></trkpt><trkpt lat="42.305917264496586" lon="13.299992310374915"><ele>777.0</ele><time>2026-04-27T14:10:37.999Z</time></trkpt><trkpt lat="42.30585272972225" lon="13.300013641321836"><ele>777.0</ele><time>2026-04-27T14:10:38.999Z</time></trkpt><trkpt lat="42.30578794400272" lon="13.300079672583392"><ele>777.0</ele><time>2026-04-27T14:10:39.999Z</time></trkpt><trkpt lat="42.30572142379858" lon="13.300169209757827"><ele>777.0</ele><time>2026-04-27T14:10:40.999Z</time></trkpt><trkpt lat="42.30563579087163" lon="13.300226715490947"><ele>777.0</ele><time>2026-04-27T14:10:41.999Z</time></trkpt><trkpt lat="42.30553119656865" lon="13.300279661155756"><ele>777.0</ele><time>2026-04-27T14:10:42.999Z</time></trkpt><trkpt lat="42.30547392506568" lon="13.300348143882589"><ele>777.4000000000001</ele><time>2026-04-27T14:10:43.999Z</time></trkpt><trkpt lat="42.305407973093466" lon="13.300444817852142"><ele>777.8000000000001</ele><time>2026-04-27T14:10:44.999Z</time></trkpt><trkpt lat="42.30529691187213" lon="13.30046523197639"><ele>778.2</ele><time>2026-04-27T14:10:46.999Z</time></trkpt><trkpt lat="42.305205751379475" lon="13.300469979292217"><ele>778.6</ele><time>2026-04-27T14:10:47.999Z</time></trkpt><trkpt lat="42.305147221981336" lon="13.300526816186794"><ele>779.0</ele><time>2026-04-27T14:10:48.999Z</time></trkpt><trkpt lat="42.305085996245055" lon="13.300618346789534"><ele>779.0</ele><time>2026-04-27T14:10:49.999Z</time></trkpt><trkpt lat="42.305003282948974" lon="13.300718947295081"><ele>779.0</ele><time>2026-04-27T14:10:50.999Z</time></trkpt><trkpt lat="42.30489608141486" lon="13.300797121674853"><ele>779.0</ele><time>2026-04-27T14:10:51.999Z</time></trkpt><trkpt lat="42.30478006174446" lon="13.300887298457651"><ele>779.0</ele><time>2026-04-27T14:10:52.999Z</time></trkpt><trkpt lat="42.30466689236868" lon="13.300963611236835"><ele>779.2</ele><time>2026-04-27T14:10:53.999Z</time></trkpt><trkpt lat="42.30456090581032" lon="13.300992566085077"><ele>779.4000000000001</ele><time>2026-04-27T14:10:54.999Z</time></trkpt><trkpt lat="42.304489360965434" lon="13.300983568988299"><ele>779.6</ele><time>2026-04-27T14:10:55.999Z</time></trkpt><trkpt lat="42.304354692843745" lon="13.30091264307733"><ele>779.8</ele><time>2026-04-27T14:10:57.999Z</time></trkpt><trkpt lat="42.304286676016325" lon="13.300901350464024"><ele>780.0</ele><time>2026-04-27T14:10:58.999Z</time></trkpt><trkpt lat="42.3042203570932" lon="13.30092404944442"><ele>780.0</ele><time>2026-04-27T14:10:59.999Z</time></trkpt><trkpt lat="42.304139277199646" lon="13.300994801190303"><ele>780.0</ele><time>2026-04-27T14:11:00.999Z</time></trkpt><trkpt lat="42.30407491174698" lon="13.301100879177302"><ele>780.0</ele><time>2026-04-27T14:11:01.999Z</time></trkpt><trkpt lat="42.30401014049805" lon="13.301248019649302"><ele>780.0</ele><time>2026-04-27T14:11:02.999Z</time></trkpt><trkpt lat="42.30391036233452" lon="13.30136238884038"><ele>780.8333333333334</ele><time>2026-04-27T14:11:03.999Z</time></trkpt><trkpt lat="42.30382503734546" lon="13.301439678121922"><ele>781.6666666666667</ele><time>2026-04-27T14:11:04.999Z</time></trkpt><trkpt lat="42.30375334960097" lon="13.301482292174663"><ele>782.5</ele><time>2026-04-27T14:11:05.999Z</time></trkpt><trkpt lat="42.30366880781127" lon="13.301423820776376"><ele>783.3333333333334</ele><time>2026-04-27T14:11:07.999Z</time></trkpt><trkpt lat="42.3036040261681" lon="13.301393610120316"><ele>784.1666666666667</ele><time>2026-04-27T14:11:08.999Z</time></trkpt><trkpt lat="42.303510835396985" lon="13.301358055240508"><ele>785.0</ele><time>2026-04-27T14:11:09.999Z</time></trkpt><trkpt lat="42.30338474997667" lon="13.301478147757376"><ele>785.0</ele><time>2026-04-27T14:11:11.999Z</time></trkpt><trkpt lat="42.30330226702634" lon="13.301558498557174"><ele>785.0</ele><time>2026-04-27T14:11:12.999Z</time></trkpt><trkpt lat="42.303225262414685" lon="13.301558657405991"><ele>785.0</ele><time>2026-04-27T14:11:13.999Z</time></trkpt><trkpt lat="42.30313905838505" lon="13.301537748079745"><ele>785.0</ele><time>2026-04-27T14:11:15.999Z</time></trkpt><trkpt lat="42.30304278554422" lon="13.30151530105906"><ele>785.0</ele><time>2026-04-27T14:11:16.999Z</time></trkpt><trkpt lat="42.30293788859427" lon="13.301539159208108"><ele>785.3333333333334</ele><time>2026-04-27T14:11:17.999Z</time></trkpt><trkpt lat="42.30284074352593" lon="13.301587880064554"><ele>785.6666666666667</ele><time>2026-04-27T14:11:18.999Z</time></trkpt><trkpt lat="42.302746795861445" lon="13.301628633161583"><ele>786.0</ele><time>2026-04-27T14:11:19.999Z</time></trkpt><trkpt lat="42.30267462853671" lon="13.301668434417717"><ele>786.3333333333333</ele><time>2026-04-27T14:11:20.999Z</time></trkpt><trkpt lat="42.30258656085709" lon="13.301687668949373"><ele>786.6666666666666</ele><time>2026-04-27T14:11:21.999Z</time></trkpt><trkpt lat="42.30251234999287" lon="13.301678471248454"><ele>787.0</ele><time>2026-04-27T14:11:22.999Z</time></trkpt><trkpt lat="42.30243232576002" lon="13.301635325999362"><ele>786.9999999999999</ele><time>2026-04-27T14:11:23.999Z</time></trkpt><trkpt lat="42.302358297431475" lon="13.301611012855524"><ele>787.0</ele><time>2026-04-27T14:11:24.999Z</time></trkpt><trkpt lat="42.30226683964331" lon="13.301701581059987"><ele>787.0</ele><time>2026-04-27T14:11:26.999Z</time></trkpt><trkpt lat="42.30221138841381" lon="13.301779128921636"><ele>787.0</ele><time>2026-04-27T14:11:27.999Z</time></trkpt><trkpt lat="42.302133207995574" lon="13.301837261994208"><ele>786.9999999999999</ele><time>2026-04-27T14:11:28.999Z</time></trkpt><trkpt lat="42.30205770979099" lon="13.301880401142203"><ele>787.0</ele><time>2026-04-27T14:11:29.999Z</time></trkpt><trkpt lat="42.301954865531854" lon="13.301898456738767"><ele>786.9999999999999</ele><time>2026-04-27T14:11:31.999Z</time></trkpt><trkpt lat="42.30190517003512" lon="13.302017672536344"><ele>787.0</ele><time>2026-04-27T14:11:33.999Z</time></trkpt><trkpt lat="42.301845930767904" lon="13.302107936674664"><ele>787.0</ele><time>2026-04-27T14:11:34.999Z</time></trkpt><trkpt lat="42.30179680857777" lon="13.302205489975382"><ele>787.0</ele><time>2026-04-27T14:11:35.999Z</time></trkpt><trkpt lat="42.301766110957765" lon="13.302291985860103"><ele>786.9999999999999</ele><time>2026-04-27T14:11:36.999Z</time></trkpt><trkpt lat="42.30184776452233" lon="13.302327719946316"><ele>787.0</ele><time>2026-04-27T14:11:40.999Z</time></trkpt><trkpt lat="42.30195973480136" lon="13.302352576982964"><ele>787.9999999999999</ele><time>2026-04-27T14:11:42.999Z</time></trkpt><trkpt lat="42.30202368937462" lon="13.302425005020094"><ele>789.0</ele><time>2026-04-27T14:11:44Z</time></trkpt><trkpt lat="42.30207931613426" lon="13.302546856118031"><ele>790.0</ele><time>2026-04-27T14:11:45Z</time></trkpt><trkpt lat="42.302136290305285" lon="13.302631245827468"><ele>791.0</ele><time>2026-04-27T14:11:46Z</time></trkpt><trkpt lat="42.30220783762372" lon="13.302654179161248"><ele>791.9999999999999</ele><time>2026-04-27T14:11:47Z</time></trkpt><trkpt lat="42.30228359131044" lon="13.302677155866942"><ele>793.0</ele><time>2026-04-27T14:11:48Z</time></trkpt><trkpt lat="42.30235873643574" lon="13.302701338210463"><ele>792.9999999999999</ele><time>2026-04-27T14:11:49Z</time></trkpt><trkpt lat="42.30243320457961" lon="13.302729746726506"><ele>793.0</ele><time>2026-04-27T14:11:50Z</time></trkpt><trkpt lat="42.30250946191736" lon="13.302769822641284"><ele>793.0</ele><time>2026-04-27T14:11:51Z</time></trkpt><trkpt lat="42.302573637781144" lon="13.302806125700966"><ele>793.0</ele><time>2026-04-27T14:11:52Z</time></trkpt><trkpt lat="42.3026429726097" lon="13.302838348500384"><ele>792.9999999999999</ele><time>2026-04-27T14:11:53Z</time></trkpt><trkpt lat="42.302728510498454" lon="13.302868504149256"><ele>793.0</ele><time>2026-04-27T14:11:54Z</time></trkpt><trkpt lat="42.302805354722274" lon="13.302877996311233"><ele>792.9999999999999</ele><time>2026-04-27T14:11:55Z</time></trkpt><trkpt lat="42.30287888028187" lon="13.302866722915521"><ele>793.0</ele><time>2026-04-27T14:11:56Z</time></trkpt><trkpt lat="42.302962531380636" lon="13.302873753278954"><ele>793.0</ele><time>2026-04-27T14:11:57Z</time></trkpt><trkpt lat="42.30304264251886" lon="13.302854641521742"><ele>793.0</ele><time>2026-04-27T14:11:58Z</time></trkpt><trkpt lat="42.30314110850852" lon="13.30282823234983"><ele>792.9999999999999</ele><time>2026-04-27T14:11:59Z</time></trkpt><trkpt lat="42.3032321881118" lon="13.302804250638065"><ele>793.0</ele><time>2026-04-27T14:12:00Z</time></trkpt><trkpt lat="42.30333785253261" lon="13.302781026277662"><ele>793.0</ele><time>2026-04-27T14:12:01Z</time></trkpt><trkpt lat="42.30344758529492" lon="13.302759227440411"><ele>793.0</ele><time>2026-04-27T14:12:02Z</time></trkpt><trkpt lat="42.3035592454074" lon="13.302738971349607"><ele>793.0</ele><time>2026-04-27T14:12:03Z</time></trkpt><trkpt lat="42.30367600839619" lon="13.302723024232982"><ele>793.0</ele><time>2026-04-27T14:12:04Z</time></trkpt><trkpt lat="42.303798862952505" lon="13.3027184790075"><ele>794.0</ele><time>2026-04-27T14:12:05Z</time></trkpt><trkpt lat="42.30392108819328" lon="13.30272725922932"><ele>795.0</ele><time>2026-04-27T14:12:06Z</time></trkpt><trkpt lat="42.30405329200929" lon="13.302727022047696"><ele>796.0</ele><time>2026-04-27T14:12:07Z</time></trkpt><trkpt lat="42.304191730915534" lon="13.302758486675213"><ele>797.0</ele><time>2026-04-27T14:12:08Z</time></trkpt><trkpt lat="42.30432872575291" lon="13.302780526542808"><ele>797.0</ele><time>2026-04-27T14:12:09Z</time></trkpt><trkpt lat="42.30446727969825" lon="13.302803936540656"><ele>797.0</ele><time>2026-04-27T14:12:10Z</time></trkpt><trkpt lat="42.30460433521422" lon="13.302776749618388"><ele>797.0</ele><time>2026-04-27T14:12:11Z</time></trkpt><trkpt lat="42.30473952500765" lon="13.302723704224341"><ele>797.0</ele><time>2026-04-27T14:12:12Z</time></trkpt><trkpt lat="42.30487169990878" lon="13.30265246199387"><ele>798.75</ele><time>2026-04-27T14:12:13Z</time></trkpt><trkpt lat="42.30501033950762" lon="13.302595925274206"><ele>800.5</ele><time>2026-04-27T14:12:14Z</time></trkpt><trkpt lat="42.30515036741809" lon="13.302546819758124"><ele>802.25</ele><time>2026-04-27T14:12:15Z</time></trkpt><trkpt lat="42.30529231793898" lon="13.30250404997862"><ele>804.0</ele><time>2026-04-27T14:12:16Z</time></trkpt><trkpt lat="42.30544245795234" lon="13.30246297384511"><ele>804.6666666666667</ele><time>2026-04-27T14:12:17Z</time></trkpt><trkpt lat="42.30560531252879" lon="13.30242089195586"><ele>805.3333333333334</ele><time>2026-04-27T14:12:18Z</time></trkpt><trkpt lat="42.30578638200475" lon="13.302374103310994"><ele>806.0</ele><time>2026-04-27T14:12:19Z</time></trkpt><trkpt lat="42.30597317503879" lon="13.30232317461382"><ele>803.0</ele><time>2026-04-27T14:12:20Z</time></trkpt><trkpt lat="42.30615964951803" lon="13.302247259173454"><ele>800.0</ele><time>2026-04-27T14:12:21Z</time></trkpt><trkpt lat="42.30635280933477" lon="13.30217889575622"><ele>797.0</ele><time>2026-04-27T14:12:22Z</time></trkpt><trkpt lat="42.30654029605468" lon="13.302094330425318"><ele>797.0</ele><time>2026-04-27T14:12:23Z</time></trkpt><trkpt lat="42.30673545057471" lon="13.302002201555322"><ele>797.0</ele><time>2026-04-27T14:12:24Z</time></trkpt><trkpt lat="42.30693196368053" lon="13.301937163095323"><ele>797.0</ele><time>2026-04-27T14:12:25Z</time></trkpt><trkpt lat="42.30712588689263" lon="13.301878080556166"><ele>798.0</ele><time>2026-04-27T14:12:26Z</time></trkpt><trkpt lat="42.307320423683315" lon="13.30182163070736"><ele>799.0</ele><time>2026-04-27T14:12:27Z</time></trkpt><trkpt lat="42.30751257931369" lon="13.301768519168267"><ele>800.0</ele><time>2026-04-27T14:12:28Z</time></trkpt><trkpt lat="42.30769702461556" lon="13.301714951659676"><ele>800.0</ele><time>2026-04-27T14:12:29Z</time></trkpt><trkpt lat="42.307861010183686" lon="13.301640703844166"><ele>800.0</ele><time>2026-04-27T14:12:30Z</time></trkpt><trkpt lat="42.30801948258948" lon="13.301560728534339"><ele>800.0</ele><time>2026-04-27T14:12:31Z</time></trkpt><trkpt lat="42.3081787140279" lon="13.30141979538068"><ele>799.0</ele><time>2026-04-27T14:12:32Z</time></trkpt><trkpt lat="42.308308194930476" lon="13.301239243318584"><ele>798.0</ele><time>2026-04-27T14:12:33Z</time></trkpt><trkpt lat="42.30844563823914" lon="13.301058029118993"><ele>797.0</ele><time>2026-04-27T14:12:34Z</time></trkpt><trkpt lat="42.308575853194355" lon="13.300898617823833"><ele>797.0</ele><time>2026-04-27T14:12:35Z</time></trkpt><trkpt lat="42.30870157313598" lon="13.30076172326757"><ele>797.0</ele><time>2026-04-27T14:12:36Z</time></trkpt><trkpt lat="42.3088449063668" lon="13.300634562495558"><ele>797.0</ele><time>2026-04-27T14:12:37Z</time></trkpt><trkpt lat="42.308983397174025" lon="13.300545106565492"><ele>796.3333333333334</ele><time>2026-04-27T14:12:38Z</time></trkpt><trkpt lat="42.30913762446144" lon="13.300450882311342"><ele>795.6666666666667</ele><time>2026-04-27T14:12:39Z</time></trkpt><trkpt lat="42.30929960145934" lon="13.300371491432031"><ele>795.0</ele><time>2026-04-27T14:12:39.999Z</time></trkpt><trkpt lat="42.309471614335536" lon="13.300306925314251"><ele>795.0</ele><time>2026-04-27T14:12:40.999Z</time></trkpt><trkpt lat="42.30963850513952" lon="13.300259341056938"><ele>795.0</ele><time>2026-04-27T14:12:41.999Z</time></trkpt><trkpt lat="42.30980142087968" lon="13.300211431944517"><ele>795.0</ele><time>2026-04-27T14:12:42.999Z</time></trkpt><trkpt lat="42.30993208395542" lon="13.300147700166644"><ele>797.25</ele><time>2026-04-27T14:12:43.999Z</time></trkpt><trkpt lat="42.31006014826301" lon="13.300064736842124"><ele>799.5</ele><time>2026-04-27T14:12:44.999Z</time></trkpt><trkpt lat="42.31016407977493" lon="13.299934124657131"><ele>801.75</ele><time>2026-04-27T14:12:45.999Z</time></trkpt><trkpt lat="42.31023218373544" lon="13.299790474585599"><ele>804.0</ele><time>2026-04-27T14:12:46.999Z</time></trkpt><trkpt lat="42.31025433246057" lon="13.29971033289185"><ele>804.0</ele><time>2026-04-27T14:12:47.999Z</time></trkpt><trkpt lat="42.3102916418355" lon="13.299633234026437"><ele>804.0</ele><time>2026-04-27T14:12:50.999Z</time></trkpt><trkpt lat="42.31024713083881" lon="13.299732469866024"><ele>804.0</ele><time>2026-04-27T14:12:57.999Z</time></trkpt><trkpt lat="42.31024525996861" lon="13.299859955850932"><ele>804.0</ele><time>2026-04-27T14:12:59.999Z</time></trkpt><trkpt lat="42.31029013987461" lon="13.299952288260002"><ele>804.0</ele><time>2026-04-27T14:13:00.999Z</time></trkpt><trkpt lat="42.310352867190396" lon="13.300045347570496"><ele>804.0</ele><time>2026-04-27T14:13:01.999Z</time></trkpt><trkpt lat="42.31042412739363" lon="13.300142166384248"><ele>804.8000000000001</ele><time>2026-04-27T14:13:02.999Z</time></trkpt><trkpt lat="42.31048621704749" lon="13.300227342645096"><ele>805.6</ele><time>2026-04-27T14:13:03.999Z</time></trkpt><trkpt lat="42.31055311075757" lon="13.300351244010294"><ele>806.4</ele><time>2026-04-27T14:13:04.999Z</time></trkpt><trkpt lat="42.31061670515253" lon="13.300484299019248"><ele>807.2</ele><time>2026-04-27T14:13:05.999Z</time></trkpt><trkpt lat="42.31067092888391" lon="13.300590561343471"><ele>808.0</ele><time>2026-04-27T14:13:06.999Z</time></trkpt><trkpt lat="42.31077980367983" lon="13.300684762235766"><ele>810.6666666666666</ele><time>2026-04-27T14:13:08.999Z</time></trkpt><trkpt lat="42.31087651574769" lon="13.30076982010396"><ele>813.3333333333333</ele><time>2026-04-27T14:13:10.999Z</time></trkpt><trkpt lat="42.31090525667892" lon="13.300856231230043"><ele>816.0</ele><time>2026-04-27T14:13:11.999Z</time></trkpt><trkpt lat="42.310932308400155" lon="13.300960838349313"><ele>818.6666666666667</ele><time>2026-04-27T14:13:12.999Z</time></trkpt><trkpt lat="42.310955584863066" lon="13.301062302026107"><ele>821.3333333333334</ele><time>2026-04-27T14:13:13.999Z</time></trkpt><trkpt lat="42.310999789056204" lon="13.301182533465845"><ele>824.0</ele><time>2026-04-27T14:13:14.999Z</time></trkpt><trkpt lat="42.31103656723154" lon="13.301261058089846"><ele>824.0</ele><time>2026-04-27T14:13:15.999Z</time></trkpt><trkpt lat="42.311035091452354" lon="13.301365447407553"><ele>824.0</ele><time>2026-04-27T14:13:17.999Z</time></trkpt><trkpt lat="42.310942231585074" lon="13.301502169030055"><ele>824.0</ele><time>2026-04-27T14:13:19.999Z</time></trkpt><trkpt lat="42.310876632052356" lon="13.301581307670407"><ele>824.0</ele><time>2026-04-27T14:13:20.999Z</time></trkpt><trkpt lat="42.31079891335296" lon="13.301675526615291"><ele>824.0</ele><time>2026-04-27T14:13:21.999Z</time></trkpt><trkpt lat="42.31074237459118" lon="13.301780709080559"><ele>825.8000000000001</ele><time>2026-04-27T14:13:22.999Z</time></trkpt><trkpt lat="42.310705354771855" lon="13.301873785896658"><ele>827.6</ele><time>2026-04-27T14:13:23.999Z</time></trkpt><trkpt lat="42.3107290442265" lon="13.302006820060452"><ele>829.4</ele><time>2026-04-27T14:13:25.999Z</time></trkpt><trkpt lat="42.310786330274595" lon="13.302103571979462"><ele>831.2</ele><time>2026-04-27T14:13:26.999Z</time></trkpt><trkpt lat="42.310865188012734" lon="13.30219329951844"><ele>833.0</ele><time>2026-04-27T14:13:27.999Z</time></trkpt><trkpt lat="42.310935979286924" lon="13.302293534283073"><ele>834.2</ele><time>2026-04-27T14:13:29Z</time></trkpt><trkpt lat="42.3109729334555" lon="13.302372689063002"><ele>835.4</ele><time>2026-04-27T14:13:30Z</time></trkpt><trkpt lat="42.31098543218361" lon="13.302476812727823"><ele>836.6</ele><time>2026-04-27T14:13:31Z</time></trkpt><trkpt lat="42.31100045671351" lon="13.302594395584547"><ele>837.8000000000001</ele><time>2026-04-27T14:13:32Z</time></trkpt><trkpt lat="42.31101409945277" lon="13.302720574557272"><ele>839.0</ele><time>2026-04-27T14:13:33Z</time></trkpt><trkpt lat="42.31103018646746" lon="13.302918138588883"><ele>839.0000000000001</ele><time>2026-04-27T14:13:35Z</time></trkpt><trkpt lat="42.31104371646475" lon="13.303017514493224"><ele>839.0</ele><time>2026-04-27T14:13:36Z</time></trkpt><trkpt lat="42.31105387511748" lon="13.30312662671044"><ele>839.0</ele><time>2026-04-27T14:13:37Z</time></trkpt><trkpt lat="42.31106410149905" lon="13.303241218678982"><ele>839.0</ele><time>2026-04-27T14:13:38Z</time></trkpt><trkpt lat="42.31108204299138" lon="13.303365796751525"><ele>839.0000000000001</ele><time>2026-04-27T14:13:39Z</time></trkpt><trkpt lat="42.31109915410465" lon="13.303510996376925"><ele>839.0</ele><time>2026-04-27T14:13:40Z</time></trkpt><trkpt lat="42.311104028389984" lon="13.303624835563816"><ele>841.2</ele><time>2026-04-27T14:13:41Z</time></trkpt><trkpt lat="42.31107480386053" lon="13.303745084586309"><ele>843.4000000000001</ele><time>2026-04-27T14:13:42Z</time></trkpt><trkpt lat="42.31104146355382" lon="13.303878747179082"><ele>845.6</ele><time>2026-04-27T14:13:43Z</time></trkpt><trkpt lat="42.31102619558108" lon="13.304015536487642"><ele>847.8</ele><time>2026-04-27T14:13:44Z</time></trkpt><trkpt lat="42.310986074633426" lon="13.304128282318786"><ele>850.0</ele><time>2026-04-27T14:13:45Z</time></trkpt><trkpt lat="42.31094146545806" lon="13.304216710111714"><ele>852.8</ele><time>2026-04-27T14:13:46Z</time></trkpt><trkpt lat="42.310942804398906" lon="13.304385915661964"><ele>855.6</ele><time>2026-04-27T14:13:48Z</time></trkpt><trkpt lat="42.31097319087194" lon="13.30448583826959"><ele>858.4000000000001</ele><time>2026-04-27T14:13:49Z</time></trkpt><trkpt lat="42.31099668725365" lon="13.304593397180644"><ele>861.2</ele><time>2026-04-27T14:13:50Z</time></trkpt><trkpt lat="42.31101035923037" lon="13.304715837268931"><ele>864.0</ele><time>2026-04-27T14:13:51Z</time></trkpt><trkpt lat="42.311009139198646" lon="13.304839257594235"><ele>866.2</ele><time>2026-04-27T14:13:52Z</time></trkpt><trkpt lat="42.310999186043794" lon="13.304942592267153"><ele>868.4000000000001</ele><time>2026-04-27T14:13:53Z</time></trkpt><trkpt lat="42.31099372903914" lon="13.30504397983998"><ele>870.6</ele><time>2026-04-27T14:13:54Z</time></trkpt><trkpt lat="42.3110151069818" lon="13.305176273843955"><ele>872.8</ele><time>2026-04-27T14:13:56Z</time></trkpt><trkpt lat="42.31098258175156" lon="13.305313453628605"><ele>875.0</ele><time>2026-04-27T14:13:58Z</time></trkpt><trkpt lat="42.31096867869858" lon="13.305483661703766"><ele>875.0000000000001</ele><time>2026-04-27T14:14:00Z</time></trkpt><trkpt lat="42.31094622636758" lon="13.305574327054192"><ele>875.0</ele><time>2026-04-27T14:14:01Z</time></trkpt><trkpt lat="42.31092652705722" lon="13.305667578362984"><ele>875.0</ele><time>2026-04-27T14:14:03Z</time></trkpt><trkpt lat="42.3108849937397" lon="13.30574045285566"><ele>875.0</ele><time>2026-04-27T14:14:06Z</time></trkpt><trkpt lat="42.31092896688512" lon="13.30566180860956"><ele>875.0000000000001</ele><time>2026-04-27T14:14:23Z</time></trkpt><trkpt lat="42.3110200507863" lon="13.305617960239248"><ele>875.0</ele><time>2026-04-27T14:14:26Z</time></trkpt><trkpt lat="42.31108901533372" lon="13.305634181889696"><ele>876.0000000000001</ele><time>2026-04-27T14:14:27Z</time></trkpt><trkpt lat="42.31116278907244" lon="13.305642730188913"><ele>877.0</ele><time>2026-04-27T14:14:28Z</time></trkpt><trkpt lat="42.31123269449502" lon="13.305611660843098"><ele>878.0</ele><time>2026-04-27T14:14:29Z</time></trkpt><trkpt lat="42.31131847495211" lon="13.305588085483516"><ele>879.0</ele><time>2026-04-27T14:14:31Z</time></trkpt><trkpt lat="42.31141992925233" lon="13.305649664942516"><ele>880.0000000000001</ele><time>2026-04-27T14:14:33Z</time></trkpt><trkpt lat="42.31148291913067" lon="13.305654005964008"><ele>881.0</ele><time>2026-04-27T14:14:34Z</time></trkpt><trkpt lat="42.31151524415975" lon="13.305750618464272"><ele>882.0</ele><time>2026-04-27T14:14:36Z</time></trkpt><trkpt lat="42.31155377259174" lon="13.305845386759843"><ele>882.9999999999999</ele><time>2026-04-27T14:14:38Z</time></trkpt><trkpt lat="42.31164631743498" lon="13.30579595668379"><ele>883.9999999999999</ele><time>2026-04-27T14:14:40Z</time></trkpt><trkpt lat="42.31172597629843" lon="13.30576097251689"><ele>885.0</ele><time>2026-04-27T14:14:41Z</time></trkpt><trkpt lat="42.311841892011934" lon="13.305726830615624"><ele>886.0</ele><time>2026-04-27T14:14:42Z</time></trkpt><trkpt lat="42.31194331908831" lon="13.305677913373067"><ele>885.9999999999999</ele><time>2026-04-27T14:14:43Z</time></trkpt><trkpt lat="42.31201046419553" lon="13.3056135703778"><ele>886.0</ele><time>2026-04-27T14:14:44Z</time></trkpt><trkpt lat="42.312056624310934" lon="13.305530320323367"><ele>886.0</ele><time>2026-04-27T14:14:45Z</time></trkpt><trkpt lat="42.31210502967892" lon="13.305435434118428"><ele>886.0</ele><time>2026-04-27T14:14:45.999Z</time></trkpt><trkpt lat="42.31216527943" lon="13.305393710361953"><ele>885.9999999999999</ele><time>2026-04-27T14:14:46.999Z</time></trkpt><trkpt lat="42.31223108935719" lon="13.30535453116904"><ele>886.0</ele><time>2026-04-27T14:14:47.999Z</time></trkpt><trkpt lat="42.31228057477811" lon="13.305278707014066"><ele>886.4</ele><time>2026-04-27T14:14:48.999Z</time></trkpt><trkpt lat="42.31231698505082" lon="13.305181794436356"><ele>886.8</ele><time>2026-04-27T14:14:49.999Z</time></trkpt><trkpt lat="42.312387736694" lon="13.305073296920419"><ele>887.1999999999999</ele><time>2026-04-27T14:14:50.999Z</time></trkpt><trkpt lat="42.31247676197187" lon="13.304950056888982"><ele>887.5999999999999</ele><time>2026-04-27T14:14:51.999Z</time></trkpt><trkpt lat="42.312564410543715" lon="13.30482275318885"><ele>888.0</ele><time>2026-04-27T14:14:52.999Z</time></trkpt><trkpt lat="42.31263830751071" lon="13.304751368188924"><ele>887.8333333333334</ele><time>2026-04-27T14:14:53.999Z</time></trkpt><trkpt lat="42.312702951871835" lon="13.304701871497087"><ele>887.6666666666667</ele><time>2026-04-27T14:14:54.999Z</time></trkpt><trkpt lat="42.31278054006278" lon="13.304645283007611"><ele>887.5</ele><time>2026-04-27T14:14:55.999Z</time></trkpt><trkpt lat="42.312872754205756" lon="13.3045849382958"><ele>887.3333333333334</ele><time>2026-04-27T14:14:56.999Z</time></trkpt><trkpt lat="42.3129574538809" lon="13.304497341447032"><ele>887.1666666666667</ele><time>2026-04-27T14:14:57.999Z</time></trkpt><trkpt lat="42.313022284387976" lon="13.304450303790398"><ele>887.0</ele><time>2026-04-27T14:14:58.999Z</time></trkpt><trkpt lat="42.313116716150375" lon="13.304464393155476"><ele>887.0</ele><time>2026-04-27T14:15:00.999Z</time></trkpt><trkpt lat="42.31322259689142" lon="13.304415429695684"><ele>887.0</ele><time>2026-04-27T14:15:02.999Z</time></trkpt><trkpt lat="42.313309716281175" lon="13.304330795703553"><ele>887.0</ele><time>2026-04-27T14:15:04.999Z</time></trkpt><trkpt lat="42.31338688581508" lon="13.304318834956437"><ele>887.0</ele><time>2026-04-27T14:15:06.999Z</time></trkpt><trkpt lat="42.31346667820099" lon="13.304351047710727"><ele>887.0</ele><time>2026-04-27T14:15:08.999Z</time></trkpt><trkpt lat="42.313540782938055" lon="13.304413313291205"><ele>887.0</ele><time>2026-04-27T14:15:11.999Z</time></trkpt><trkpt lat="42.31357922597321" lon="13.30450224471721"><ele>887.0</ele><time>2026-04-27T14:15:13.999Z</time></trkpt><trkpt lat="42.31358312442688" lon="13.30467857834751"><ele>887.0</ele><time>2026-04-27T14:15:15.999Z</time></trkpt><trkpt lat="42.31357196848689" lon="13.304797695219454"><ele>887.0</ele><time>2026-04-27T14:15:16.999Z</time></trkpt><trkpt lat="42.31356866461936" lon="13.30494424127082"><ele>887.0</ele><time>2026-04-27T14:15:17.999Z</time></trkpt><trkpt lat="42.31357431624807" lon="13.305091495573558"><ele>887.4000000000001</ele><time>2026-04-27T14:15:18.999Z</time></trkpt><trkpt lat="42.313579042524964" lon="13.305193574548728"><ele>887.8000000000001</ele><time>2026-04-27T14:15:19.999Z</time></trkpt><trkpt lat="42.31357093780049" lon="13.305282706486487"><ele>888.2</ele><time>2026-04-27T14:15:20.999Z</time></trkpt><trkpt lat="42.31354785968852" lon="13.305468418770865"><ele>888.6</ele><time>2026-04-27T14:15:22.999Z</time></trkpt><trkpt lat="42.313534785508395" lon="13.305566124974549"><ele>889.0</ele><time>2026-04-27T14:15:24Z</time></trkpt><trkpt lat="42.31361467648318" lon="13.305690698586982"><ele>889.0</ele><time>2026-04-27T14:15:26Z</time></trkpt><trkpt lat="42.31367872716122" lon="13.305750743617605"><ele>889.0000000000001</ele><time>2026-04-27T14:15:27Z</time></trkpt><trkpt lat="42.313712844434654" lon="13.305846665028808"><ele>889.0000000000001</ele><time>2026-04-27T14:15:28Z</time></trkpt><trkpt lat="42.31374510509974" lon="13.305954996347774"><ele>889.0</ele><time>2026-04-27T14:15:29Z</time></trkpt><trkpt lat="42.31381452983082" lon="13.306020105406287"><ele>889.0</ele><time>2026-04-27T14:15:31Z</time></trkpt><trkpt lat="42.31394902246828" lon="13.306070461717077"><ele>886.9999999999999</ele><time>2026-04-27T14:15:33Z</time></trkpt><trkpt lat="42.31403727747854" lon="13.306111198888948"><ele>885.0</ele><time>2026-04-27T14:15:34Z</time></trkpt><trkpt lat="42.31410039647935" lon="13.306149911057675"><ele>883.0</ele><time>2026-04-27T14:15:35Z</time></trkpt><trkpt lat="42.31418025046294" lon="13.306191602336774"><ele>881.0</ele><time>2026-04-27T14:15:37Z</time></trkpt><trkpt lat="42.31421456898464" lon="13.306268400703358"><ele>878.9999999999999</ele><time>2026-04-27T14:15:39Z</time></trkpt><trkpt lat="42.31430927104852" lon="13.30628797002269"><ele>877.0</ele><time>2026-04-27T14:15:43Z</time></trkpt><trkpt lat="42.31438482676564" lon="13.306243757294125"><ele>876.9999999999999</ele><time>2026-04-27T14:15:45Z</time></trkpt><trkpt lat="42.31445015457346" lon="13.306132189500273"><ele>877.0</ele><time>2026-04-27T14:15:47Z</time></trkpt><trkpt lat="42.314502772673485" lon="13.306069023480369"><ele>877.0</ele><time>2026-04-27T14:15:48Z</time></trkpt><trkpt lat="42.314564043177754" lon="13.306033277126367"><ele>877.0</ele><time>2026-04-27T14:15:49Z</time></trkpt><trkpt lat="42.31462885307778" lon="13.306041098863336"><ele>876.9999999999999</ele><time>2026-04-27T14:15:50Z</time></trkpt><trkpt lat="42.31469103469088" lon="13.306067855624859"><ele>877.0</ele><time>2026-04-27T14:15:51Z</time></trkpt><trkpt lat="42.31476842899404" lon="13.306152773292963"><ele>876.6</ele><time>2026-04-27T14:15:53Z</time></trkpt><trkpt lat="42.3147974114642" lon="13.306260586795458"><ele>876.2</ele><time>2026-04-27T14:15:55Z</time></trkpt><trkpt lat="42.31480386619028" lon="13.306380703865358"><ele>875.8</ele><time>2026-04-27T14:15:57Z</time></trkpt><trkpt lat="42.31479314674825" lon="13.306515887422197"><ele>875.4</ele><time>2026-04-27T14:15:59Z</time></trkpt><trkpt lat="42.31478414464207" lon="13.306612563421778"><ele>875.0</ele><time>2026-04-27T14:16:00Z</time></trkpt><trkpt lat="42.314732473991405" lon="13.306783382309018"><ele>875.0000000000001</ele><time>2026-04-27T14:16:02Z</time></trkpt><trkpt lat="42.31469083522486" lon="13.306875801574208"><ele>875.0</ele><time>2026-04-27T14:16:03Z</time></trkpt><trkpt lat="42.31463627615895" lon="13.30698379078089"><ele>875.0</ele><time>2026-04-27T14:16:04Z</time></trkpt><trkpt lat="42.314581896252726" lon="13.307099345314288"><ele>875.0</ele><time>2026-04-27T14:16:05Z</time></trkpt><trkpt lat="42.314532465853524" lon="13.3071833520873"><ele>875.0000000000001</ele><time>2026-04-27T14:16:06Z</time></trkpt><trkpt lat="42.31447779158938" lon="13.30727204827051"><ele>875.0</ele><time>2026-04-27T14:16:08Z</time></trkpt><trkpt lat="42.31443027725193" lon="13.30734440110442"><ele>872.0</ele><time>2026-04-27T14:16:10Z</time></trkpt><trkpt lat="42.314372992306" lon="13.307444900723732"><ele>869.0</ele><time>2026-04-27T14:16:13Z</time></trkpt><trkpt lat="42.31434416547481" lon="13.307570098050338"><ele>866.0</ele><time>2026-04-27T14:16:15Z</time></trkpt><trkpt lat="42.31429982884704" lon="13.30770526512559"><ele>863.0</ele><time>2026-04-27T14:16:17Z</time></trkpt><trkpt lat="42.3142876274248" lon="13.307853861671424"><ele>860.0</ele><time>2026-04-27T14:16:19Z</time></trkpt><trkpt lat="42.31430384570002" lon="13.307969582339249"><ele>857.8</ele><time>2026-04-27T14:16:21Z</time></trkpt><trkpt lat="42.31434823548698" lon="13.308107816096609"><ele>855.6</ele><time>2026-04-27T14:16:23Z</time></trkpt><trkpt lat="42.314397373581855" lon="13.308189677515125"><ele>853.4000000000001</ele><time>2026-04-27T14:16:24Z</time></trkpt><trkpt lat="42.31452145382742" lon="13.308212272340096"><ele>851.2</ele><time>2026-04-27T14:16:26Z</time></trkpt><trkpt lat="42.31459136765165" lon="13.30823500777196"><ele>849.0</ele><time>2026-04-27T14:16:27Z</time></trkpt><trkpt lat="42.314696719665285" lon="13.308248432124032"><ele>848.3333333333334</ele><time>2026-04-27T14:16:29Z</time></trkpt><trkpt lat="42.31476196374771" lon="13.30821304715498"><ele>847.6666666666667</ele><time>2026-04-27T14:16:30Z</time></trkpt><trkpt lat="42.3148471941869" lon="13.30816990247237"><ele>847.0</ele><time>2026-04-27T14:16:31Z</time></trkpt><trkpt lat="42.31492501867813" lon="13.30812983393868"><ele>846.3333333333334</ele><time>2026-04-27T14:16:32Z</time></trkpt><trkpt lat="42.31500238766077" lon="13.308075926168447"><ele>845.6666666666667</ele><time>2026-04-27T14:16:33Z</time></trkpt><trkpt lat="42.31505288693987" lon="13.308019833995147"><ele>845.0</ele><time>2026-04-27T14:16:34Z</time></trkpt><trkpt lat="42.31511363341887" lon="13.307941460121166"><ele>845.0000000000001</ele><time>2026-04-27T14:16:35Z</time></trkpt><trkpt lat="42.31516530123234" lon="13.30788104763025"><ele>845.0</ele><time>2026-04-27T14:16:36Z</time></trkpt><trkpt lat="42.31522635072324" lon="13.307848611923493"><ele>845.0</ele><time>2026-04-27T14:16:37Z</time></trkpt><trkpt lat="42.315292980885594" lon="13.30781767460589"><ele>845.0</ele><time>2026-04-27T14:16:38Z</time></trkpt><trkpt lat="42.31536642992392" lon="13.307772426092995"><ele>845.0000000000001</ele><time>2026-04-27T14:16:39Z</time></trkpt><trkpt lat="42.315450006030915" lon="13.307719892112937"><ele>845.0</ele><time>2026-04-27T14:16:40Z</time></trkpt><trkpt lat="42.31552603447996" lon="13.307691582768186"><ele>842.6666666666667</ele><time>2026-04-27T14:16:41Z</time></trkpt><trkpt lat="42.31560344485104" lon="13.307693124214273"><ele>840.3333333333334</ele><time>2026-04-27T14:16:42Z</time></trkpt><trkpt lat="42.31568782637601" lon="13.307704758882455"><ele>838.0</ele><time>2026-04-27T14:16:43Z</time></trkpt><trkpt lat="42.31578729116663" lon="13.307713129697687"><ele>835.6666666666667</ele><time>2026-04-27T14:16:44Z</time></trkpt><trkpt lat="42.31589003611948" lon="13.307724510929832"><ele>833.3333333333334</ele><time>2026-04-27T14:16:45Z</time></trkpt><trkpt lat="42.3159692067995" lon="13.30775557495767"><ele>831.0</ele><time>2026-04-27T14:16:46Z</time></trkpt><trkpt lat="42.31603531484367" lon="13.307824669743315"><ele>831.0</ele><time>2026-04-27T14:16:47Z</time></trkpt><trkpt lat="42.31607781026945" lon="13.307895739083076"><ele>831.0</ele><time>2026-04-27T14:16:48Z</time></trkpt><trkpt lat="42.316137250898684" lon="13.308011171433865"><ele>831.0</ele><time>2026-04-27T14:16:50Z</time></trkpt><trkpt lat="42.31618446495112" lon="13.308122963333801"><ele>831.0</ele><time>2026-04-27T14:16:52.999Z</time></trkpt><trkpt lat="42.31622554390947" lon="13.308214100535022"><ele>831.0</ele><time>2026-04-27T14:16:54.999Z</time></trkpt><trkpt lat="42.31627223962708" lon="13.308336402092857"><ele>831.0</ele><time>2026-04-27T14:17:01.999Z</time></trkpt><trkpt lat="42.31634549959044" lon="13.308453941182947"><ele>830.0</ele><time>2026-04-27T14:17:03.999Z</time></trkpt><trkpt lat="42.31639314498764" lon="13.308545078828251"><ele>829.0</ele><time>2026-04-27T14:17:05.999Z</time></trkpt><trkpt lat="42.31644064132678" lon="13.308632399776627"><ele>828.0</ele><time>2026-04-27T14:17:07.999Z</time></trkpt><trkpt lat="42.3164651602941" lon="13.30875352911074"><ele>827.0</ele><time>2026-04-27T14:17:09.999Z</time></trkpt><trkpt lat="42.31641021376875" lon="13.308882602612615"><ele>826.0</ele><time>2026-04-27T14:17:11.999Z</time></trkpt><trkpt lat="42.31636653282259" lon="13.308957322631851"><ele>825.0</ele><time>2026-04-27T14:19:12Z</time></trkpt><trkpt lat="42.316301330344814" lon="13.309078437417966"><ele>824.6</ele><time>2026-04-27T14:19:14Z</time></trkpt><trkpt lat="42.316250268048535" lon="13.309158925791316"><ele>824.2</ele><time>2026-04-27T14:19:15Z</time></trkpt><trkpt lat="42.316194922338845" lon="13.30924285486408"><ele>823.8</ele><time>2026-04-27T14:19:16Z</time></trkpt><trkpt lat="42.31613994819632" lon="13.309326220331151"><ele>823.4</ele><time>2026-04-27T14:19:17Z</time></trkpt><trkpt lat="42.31607990206233" lon="13.309418902963625"><ele>823.0</ele><time>2026-04-27T14:19:18Z</time></trkpt><trkpt lat="42.31601490927313" lon="13.309556753386417"><ele>823.0</ele><time>2026-04-27T14:19:19Z</time></trkpt><trkpt lat="42.31593604545603" lon="13.309684166990357"><ele>823.0</ele><time>2026-04-27T14:19:20Z</time></trkpt><trkpt lat="42.315873302015454" lon="13.309795411347947"><ele>823.0</ele><time>2026-04-27T14:19:21Z</time></trkpt><trkpt lat="42.31581649008035" lon="13.309893621526385"><ele>823.0</ele><time>2026-04-27T14:19:22Z</time></trkpt><trkpt lat="42.31577250699823" lon="13.309983544211017"><ele>823.0</ele><time>2026-04-27T14:19:23Z</time></trkpt><trkpt lat="42.31571815475969" lon="13.310084392416652"><ele>823.8333333333333</ele><time>2026-04-27T14:19:24Z</time></trkpt><trkpt lat="42.31567537931142" lon="13.310169440603813"><ele>824.6666666666666</ele><time>2026-04-27T14:19:25Z</time></trkpt><trkpt lat="42.31562781903848" lon="13.310227759546775"><ele>825.5</ele><time>2026-04-27T14:19:26Z</time></trkpt><trkpt lat="42.31559459868694" lon="13.310324238475559"><ele>826.3333333333333</ele><time>2026-04-27T14:19:27Z</time></trkpt><trkpt lat="42.31553661405546" lon="13.31040255291938"><ele>827.1666666666666</ele><time>2026-04-27T14:19:28Z</time></trkpt><trkpt lat="42.315500558693685" lon="13.310490159223786"><ele>828.0</ele><time>2026-04-27T14:19:29Z</time></trkpt><trkpt lat="42.31543700411793" lon="13.310580608032694"><ele>829.1666666666666</ele><time>2026-04-27T14:19:30Z</time></trkpt><trkpt lat="42.31538723885992" lon="13.31064018842702"><ele>830.3333333333333</ele><time>2026-04-27T14:19:31Z</time></trkpt><trkpt lat="42.315340020646666" lon="13.310729869765263"><ele>831.5</ele><time>2026-04-27T14:19:32Z</time></trkpt><trkpt lat="42.315281758223996" lon="13.310796510654598"><ele>832.6666666666666</ele><time>2026-04-27T14:19:33Z</time></trkpt><trkpt lat="42.31521883958738" lon="13.31087799771742"><ele>833.8333333333333</ele><time>2026-04-27T14:19:34Z</time></trkpt><trkpt lat="42.31515125221617" lon="13.310951949471868"><ele>835.0</ele><time>2026-04-27T14:19:35Z</time></trkpt><trkpt lat="42.31508246932559" lon="13.311020838143666"><ele>835.0</ele><time>2026-04-27T14:19:36Z</time></trkpt><trkpt lat="42.31501601127987" lon="13.311078830843412"><ele>835.0</ele><time>2026-04-27T14:19:37Z</time></trkpt><trkpt lat="42.314942537997915" lon="13.311130632846883"><ele>835.0</ele><time>2026-04-27T14:19:38Z</time></trkpt><trkpt lat="42.314835293114406" lon="13.311188122280202"><ele>835.0</ele><time>2026-04-27T14:19:40Z</time></trkpt><trkpt lat="42.31476727750803" lon="13.311280948207257"><ele>835.0</ele><time>2026-04-27T14:19:45Z</time></trkpt><trkpt lat="42.3148458818355" lon="13.3115104213186"><ele>833.6</ele><time>2026-04-27T14:19:46Z</time></trkpt><trkpt lat="42.31491879152158" lon="13.311568606323185"><ele>832.2</ele><time>2026-04-27T14:19:48Z</time></trkpt><trkpt lat="42.31502828769072" lon="13.311657894407563"><ele>830.8</ele><time>2026-04-27T14:19:50Z</time></trkpt><trkpt lat="42.31508558112483" lon="13.311717419576734"><ele>829.4</ele><time>2026-04-27T14:19:51Z</time></trkpt><trkpt lat="42.31515688471817" lon="13.31184134507731"><ele>828.0</ele><time>2026-04-27T14:19:53Z</time></trkpt><trkpt lat="42.31519608040733" lon="13.31191569939206"><ele>828.0</ele><time>2026-04-27T14:19:54Z</time></trkpt><trkpt lat="42.31524603921452" lon="13.312007948375934"><ele>828.0</ele><time>2026-04-27T14:19:55Z</time></trkpt><trkpt lat="42.31530576237274" lon="13.312122393371352"><ele>828.0</ele><time>2026-04-27T14:19:56Z</time></trkpt><trkpt lat="42.31536382614872" lon="13.312214265454951"><ele>828.0</ele><time>2026-04-27T14:19:57Z</time></trkpt><trkpt lat="42.31542323071241" lon="13.312304064743932"><ele>828.0</ele><time>2026-04-27T14:19:58Z</time></trkpt><trkpt lat="42.315487213847014" lon="13.31239080096658"><ele>828.4</ele><time>2026-04-27T14:19:59Z</time></trkpt><trkpt lat="42.31554772417861" lon="13.312493806007202"><ele>828.8</ele><time>2026-04-27T14:20:00Z</time></trkpt><trkpt lat="42.31564458533612" lon="13.31257613630988"><ele>829.2</ele><time>2026-04-27T14:20:02Z</time></trkpt><trkpt lat="42.315764484855166" lon="13.31251904282762"><ele>829.6</ele><time>2026-04-27T14:20:04Z</time></trkpt><trkpt lat="42.315853571195916" lon="13.312497420308274"><ele>830.0</ele><time>2026-04-27T14:20:05Z</time></trkpt><trkpt lat="42.31597287669636" lon="13.312570544005222"><ele>830.3333333333334</ele><time>2026-04-27T14:20:07Z</time></trkpt><trkpt lat="42.31605215802804" lon="13.312634074073113"><ele>830.6666666666667</ele><time>2026-04-27T14:20:08Z</time></trkpt><trkpt lat="42.31613382448589" lon="13.312678274434122"><ele>831.0</ele><time>2026-04-27T14:20:09Z</time></trkpt><trkpt lat="42.316199039013775" lon="13.312719767824232"><ele>831.3333333333333</ele><time>2026-04-27T14:20:10Z</time></trkpt><trkpt lat="42.316280973710775" lon="13.312770195391886"><ele>831.6666666666666</ele><time>2026-04-27T14:20:11Z</time></trkpt><trkpt lat="42.31635713459243" lon="13.312821092713266"><ele>832.0</ele><time>2026-04-27T14:20:12Z</time></trkpt><trkpt lat="42.31644374013711" lon="13.312895104134391"><ele>834.0</ele><time>2026-04-27T14:20:13Z</time></trkpt><trkpt lat="42.31653906412878" lon="13.312946264625072"><ele>836.0</ele><time>2026-04-27T14:20:14Z</time></trkpt><trkpt lat="42.31663693800028" lon="13.312982391723542"><ele>838.0</ele><time>2026-04-27T14:20:15Z</time></trkpt><trkpt lat="42.31672898012897" lon="13.313036706287717"><ele>840.0</ele><time>2026-04-27T14:20:16Z</time></trkpt><trkpt lat="42.31683124980295" lon="13.313122798801256"><ele>842.0</ele><time>2026-04-27T14:20:17Z</time></trkpt><trkpt lat="42.316927365816376" lon="13.313177790957004"><ele>843.0000000000001</ele><time>2026-04-27T14:20:18Z</time></trkpt><trkpt lat="42.31703529216191" lon="13.31319713198524"><ele>844.0</ele><time>2026-04-27T14:20:19Z</time></trkpt><trkpt lat="42.31711051120346" lon="13.313180327519207"><ele>845.0</ele><time>2026-04-27T14:20:20Z</time></trkpt><trkpt lat="42.317188983479845" lon="13.313149761820778"><ele>846.0</ele><time>2026-04-27T14:20:21Z</time></trkpt><trkpt lat="42.31725606641296" lon="13.313155243320296"><ele>847.0000000000001</ele><time>2026-04-27T14:20:22Z</time></trkpt><trkpt lat="42.317315339318334" lon="13.31319462614025"><ele>848.0</ele><time>2026-04-27T14:20:23Z</time></trkpt><trkpt lat="42.317364684516996" lon="13.313271544872743"><ele>849.0</ele><time>2026-04-27T14:20:24Z</time></trkpt><trkpt lat="42.317422626177816" lon="13.313351787555128"><ele>850.0</ele><time>2026-04-27T14:20:25Z</time></trkpt><trkpt lat="42.317505548848054" lon="13.313447510731674"><ele>851.0</ele><time>2026-04-27T14:20:26Z</time></trkpt><trkpt lat="42.31758175460787" lon="13.313530636506457"><ele>852.0</ele><time>2026-04-27T14:20:27Z</time></trkpt><trkpt lat="42.31768259223715" lon="13.313630634191627"><ele>853.0</ele><time>2026-04-27T14:20:28Z</time></trkpt><trkpt lat="42.31777937915308" lon="13.313724786099815"><ele>852.9999999999999</ele><time>2026-04-27T14:20:29.001Z</time></trkpt><trkpt lat="42.31784520220047" lon="13.313788297033529"><ele>853.0</ele><time>2026-04-27T14:20:30.001Z</time></trkpt><trkpt lat="42.31790575866188" lon="13.313857292341632"><ele>853.0</ele><time>2026-04-27T14:20:31.001Z</time></trkpt><trkpt lat="42.317984168519786" lon="13.313930151935137"><ele>853.0</ele><time>2026-04-27T14:20:32.001Z</time></trkpt><trkpt lat="42.31805457354852" lon="13.31399470304449"><ele>852.9999999999999</ele><time>2026-04-27T14:20:33.001Z</time></trkpt><trkpt lat="42.31812048624358" lon="13.31403665773314"><ele>853.0</ele><time>2026-04-27T14:20:34.001Z</time></trkpt><trkpt lat="42.31819209263062" lon="13.314065491984536"><ele>852.8</ele><time>2026-04-27T14:20:35.001Z</time></trkpt><trkpt lat="42.318275885836115" lon="13.3140844628773"><ele>852.5999999999999</ele><time>2026-04-27T14:20:37.001Z</time></trkpt><trkpt lat="42.31837598296829" lon="13.314143023364952"><ele>852.4000000000001</ele><time>2026-04-27T14:20:45.001Z</time></trkpt><trkpt lat="42.31844827603383" lon="13.314074780215694"><ele>852.2</ele><time>2026-04-27T14:20:46.001Z</time></trkpt><trkpt lat="42.318489339217805" lon="13.313946616869558"><ele>852.0</ele><time>2026-04-27T14:20:47.001Z</time></trkpt><trkpt lat="42.318543735637014" lon="13.313855136229863"><ele>852.0</ele><time>2026-04-27T14:20:48.001Z</time></trkpt><trkpt lat="42.318587855659466" lon="13.313780923952983"><ele>852.0</ele><time>2026-04-27T14:20:49.001Z</time></trkpt><trkpt lat="42.31867933336788" lon="13.313699985969695"><ele>852.0</ele><time>2026-04-27T14:20:51.001Z</time></trkpt><trkpt lat="42.31879627400767" lon="13.313752137306599"><ele>852.0</ele><time>2026-04-27T14:20:53.001Z</time></trkpt><trkpt lat="42.31886349515512" lon="13.313809503369805"><ele>852.0</ele><time>2026-04-27T14:20:54.001Z</time></trkpt><trkpt lat="42.31894234753112" lon="13.31388094980811"><ele>851.0</ele><time>2026-04-27T14:20:55.001Z</time></trkpt><trkpt lat="42.319037008558695" lon="13.313959165050402"><ele>850.0</ele><time>2026-04-27T14:20:56.001Z</time></trkpt><trkpt lat="42.31912725046532" lon="13.314028064056268"><ele>849.0</ele><time>2026-04-27T14:20:57.001Z</time></trkpt><trkpt lat="42.31922187078382" lon="13.314106630792566"><ele>848.0</ele><time>2026-04-27T14:20:58.001Z</time></trkpt><trkpt lat="42.31931833378572" lon="13.31419280661742"><ele>847.0</ele><time>2026-04-27T14:20:59.001Z</time></trkpt><trkpt lat="42.319420066919484" lon="13.314273809896687"><ele>847.0</ele><time>2026-04-27T14:21:00.001Z</time></trkpt><trkpt lat="42.31952697159935" lon="13.314356103685167"><ele>847.0</ele><time>2026-04-27T14:21:01.001Z</time></trkpt><trkpt lat="42.31964331971964" lon="13.314445099407427"><ele>847.0</ele><time>2026-04-27T14:21:02.001Z</time></trkpt><trkpt lat="42.31976750056167" lon="13.314540842164977"><ele>847.0</ele><time>2026-04-27T14:21:03.001Z</time></trkpt><trkpt lat="42.31988181263253" lon="13.314666126432366"><ele>844.75</ele><time>2026-04-27T14:21:04Z</time></trkpt><trkpt lat="42.319991760895704" lon="13.314767646211774"><ele>842.5</ele><time>2026-04-27T14:21:05Z</time></trkpt><trkpt lat="42.320110602661586" lon="13.314864092623049"><ele>840.25</ele><time>2026-04-27T14:21:06Z</time></trkpt><trkpt lat="42.32022132650672" lon="13.314944971768524"><ele>838.0</ele><time>2026-04-27T14:21:07Z</time></trkpt><trkpt lat="42.32032407558687" lon="13.314999395649542"><ele>837.9999999999999</ele><time>2026-04-27T14:21:08Z</time></trkpt><trkpt lat="42.320385190936975" lon="13.315062893098874"><ele>838.0</ele><time>2026-04-27T14:21:09Z</time></trkpt><trkpt lat="42.320424064653395" lon="13.315228684729878"><ele>838.0</ele><time>2026-04-27T14:21:11Z</time></trkpt><trkpt lat="42.32040624002765" lon="13.315335238049986"><ele>838.0</ele><time>2026-04-27T14:21:12Z</time></trkpt><trkpt lat="42.320387390427335" lon="13.315416866609041"><ele>837.9999999999999</ele><time>2026-04-27T14:21:13Z</time></trkpt><trkpt lat="42.32032703826533" lon="13.315462289988439"><ele>838.0</ele><time>2026-04-27T14:21:16Z</time></trkpt><trkpt lat="42.32044193940996" lon="13.315542633405414"><ele>837.8</ele><time>2026-04-27T14:21:18Z</time></trkpt><trkpt lat="42.32055090196515" lon="13.315644855367927"><ele>837.5999999999999</ele><time>2026-04-27T14:21:20Z</time></trkpt><trkpt lat="42.32061710760196" lon="13.315711493229792"><ele>837.4000000000001</ele><time>2026-04-27T14:21:21Z</time></trkpt><trkpt lat="42.32068152587062" lon="13.315728435512336"><ele>837.2</ele><time>2026-04-27T14:21:22Z</time></trkpt><trkpt lat="42.32073205775536" lon="13.315822904082376"><ele>837.0</ele><time>2026-04-27T14:21:24Z</time></trkpt><trkpt lat="42.320759083278205" lon="13.315962655027365"><ele>835.6666666666666</ele><time>2026-04-27T14:21:26Z</time></trkpt><trkpt lat="42.32082765987707" lon="13.315991127097089"><ele>834.3333333333333</ele><time>2026-04-27T14:21:27Z</time></trkpt><trkpt lat="42.320865559362645" lon="13.316059655774149"><ele>833.0</ele><time>2026-04-27T14:21:28Z</time></trkpt><trkpt lat="42.320927474573686" lon="13.316082843209232"><ele>831.6666666666666</ele><time>2026-04-27T14:21:29Z</time></trkpt><trkpt lat="42.320994294634296" lon="13.316080943078202"><ele>830.3333333333333</ele><time>2026-04-27T14:21:30Z</time></trkpt><trkpt lat="42.321082036700815" lon="13.316065902706006"><ele>829.0</ele><time>2026-04-27T14:21:31Z</time></trkpt><trkpt lat="42.321191884170574" lon="13.316051684296127"><ele>828.9999999999999</ele><time>2026-04-27T14:21:32Z</time></trkpt><trkpt lat="42.32128472687485" lon="13.316061165749998"><ele>829.0</ele><time>2026-04-27T14:21:33Z</time></trkpt><trkpt lat="42.32136691795337" lon="13.316094670816446"><ele>829.0</ele><time>2026-04-27T14:21:34Z</time></trkpt><trkpt lat="42.321430273063434" lon="13.316131006224477"><ele>829.0</ele><time>2026-04-27T14:21:35Z</time></trkpt><trkpt lat="42.32150230540316" lon="13.316174859480022"><ele>828.9999999999999</ele><time>2026-04-27T14:21:36Z</time></trkpt><trkpt lat="42.321570530477274" lon="13.316198987983581"><ele>829.0</ele><time>2026-04-27T14:21:37Z</time></trkpt><trkpt lat="42.32166616041693" lon="13.316203074708536"><ele>828.0</ele><time>2026-04-27T14:21:38Z</time></trkpt><trkpt lat="42.32173001661331" lon="13.31618964262359"><ele>827.0</ele><time>2026-04-27T14:21:39Z</time></trkpt><trkpt lat="42.32181220635082" lon="13.316200593158884"><ele>826.0</ele><time>2026-04-27T14:21:40Z</time></trkpt><trkpt lat="42.321901959197916" lon="13.316204779174308"><ele>825.0</ele><time>2026-04-27T14:21:41Z</time></trkpt><trkpt lat="42.32201519896217" lon="13.316233833482684"><ele>824.0</ele><time>2026-04-27T14:21:42Z</time></trkpt><trkpt lat="42.32211489873043" lon="13.31628876522256"><ele>821.5</ele><time>2026-04-27T14:21:43Z</time></trkpt><trkpt lat="42.322244044835124" lon="13.316200966530031"><ele>819.0</ele><time>2026-04-27T14:21:44Z</time></trkpt><trkpt lat="42.32233899662268" lon="13.316249911688397"><ele>816.5</ele><time>2026-04-27T14:21:45Z</time></trkpt><trkpt lat="42.322454662684514" lon="13.316303982152593"><ele>814.0</ele><time>2026-04-27T14:21:46Z</time></trkpt><trkpt lat="42.32255858202864" lon="13.316352561585294"><ele>813.9999999999999</ele><time>2026-04-27T14:21:47Z</time></trkpt><trkpt lat="42.32264483253298" lon="13.316390017476776"><ele>814.0</ele><time>2026-04-27T14:21:48Z</time></trkpt><trkpt lat="42.322715584196686" lon="13.316420533882019"><ele>814.0</ele><time>2026-04-27T14:21:49Z</time></trkpt><trkpt lat="42.32278440225361" lon="13.31645021598075"><ele>814.0</ele><time>2026-04-27T14:21:50Z</time></trkpt><trkpt lat="42.322805258240976" lon="13.316322337714809"><ele>813.9999999999999</ele><time>2026-04-27T14:22:18Z</time></trkpt><trkpt lat="42.322820394241674" lon="13.316239519729915"><ele>814.0</ele><time>2026-04-27T14:22:19Z</time></trkpt><trkpt lat="42.322842536478404" lon="13.316157879846626"><ele>814.0</ele><time>2026-04-27T14:22:20Z</time></trkpt><trkpt lat="42.322875781603656" lon="13.316041596008509"><ele>814.0</ele><time>2026-04-27T14:22:22Z</time></trkpt><trkpt lat="42.32296742258336" lon="13.315983762720657"><ele>814.0</ele><time>2026-04-27T14:22:24Z</time></trkpt><trkpt lat="42.32303473151674" lon="13.316018319444828"><ele>814.0</ele><time>2026-04-27T14:22:25Z</time></trkpt><trkpt lat="42.323108071989765" lon="13.316060604577366"><ele>814.0</ele><time>2026-04-27T14:22:26Z</time></trkpt><trkpt lat="42.32321909870306" lon="13.31609668468925"><ele>812.4000000000001</ele><time>2026-04-27T14:22:27Z</time></trkpt><trkpt lat="42.32332278282655" lon="13.316126623497194"><ele>810.8</ele><time>2026-04-27T14:22:28Z</time></trkpt><trkpt lat="42.3234136501326" lon="13.316153578931898"><ele>809.2</ele><time>2026-04-27T14:22:29Z</time></trkpt><trkpt lat="42.32352793871948" lon="13.31617345162816"><ele>807.5999999999999</ele><time>2026-04-27T14:22:30Z</time></trkpt><trkpt lat="42.323647889703665" lon="13.316192191447605"><ele>806.0</ele><time>2026-04-27T14:22:31Z</time></trkpt><trkpt lat="42.32375488711428" lon="13.316220267902299"><ele>806.0</ele><time>2026-04-27T14:22:32Z</time></trkpt><trkpt lat="42.32384391499913" lon="13.316250414151137"><ele>806.0</ele><time>2026-04-27T14:22:33Z</time></trkpt><trkpt lat="42.32392753505366" lon="13.31628874007758"><ele>806.0</ele><time>2026-04-27T14:22:34Z</time></trkpt><trkpt lat="42.32402995774458" lon="13.31633343477133"><ele>806.0</ele><time>2026-04-27T14:22:35Z</time></trkpt><trkpt lat="42.3241449396384" lon="13.31638983022282"><ele>806.0</ele><time>2026-04-27T14:22:36Z</time></trkpt><trkpt lat="42.32424809593488" lon="13.316429022846211"><ele>806.8</ele><time>2026-04-27T14:22:37Z</time></trkpt><trkpt lat="42.32433698658318" lon="13.316461521225863"><ele>807.5999999999999</ele><time>2026-04-27T14:22:38.001Z</time></trkpt><trkpt lat="42.32441408055334" lon="13.316497486192066"><ele>808.4</ele><time>2026-04-27T14:22:39.001Z</time></trkpt><trkpt lat="42.32448500235605" lon="13.316521225552137"><ele>809.2</ele><time>2026-04-27T14:22:40.001Z</time></trkpt><trkpt lat="42.324540788071545" lon="13.316742871008797"><ele>810.0</ele><time>2026-04-27T14:22:41.001Z</time></trkpt><trkpt lat="42.324618110302154" lon="13.316752158160853"><ele>810.0</ele><time>2026-04-27T14:22:42.001Z</time></trkpt><trkpt lat="42.324709588287334" lon="13.316761833675386"><ele>810.0</ele><time>2026-04-27T14:22:43.001Z</time></trkpt><trkpt lat="42.32478582829501" lon="13.31676968501274"><ele>810.0</ele><time>2026-04-27T14:22:44.001Z</time></trkpt><trkpt lat="42.32487490639393" lon="13.31677885843424"><ele>810.0</ele><time>2026-04-27T14:22:45.001Z</time></trkpt><trkpt lat="42.32497705285989" lon="13.316788914024118"><ele>810.0</ele><time>2026-04-27T14:22:46.001Z</time></trkpt><trkpt lat="42.32506468210424" lon="13.316795881359706"><ele>810.0</ele><time>2026-04-27T14:22:47.001Z</time></trkpt><trkpt lat="42.3251618995538" lon="13.31680407416908"><ele>809.6666666666666</ele><time>2026-04-27T14:22:48.001Z</time></trkpt><trkpt lat="42.32524233146085" lon="13.316807790120821"><ele>809.3333333333333</ele><time>2026-04-27T14:22:49.001Z</time></trkpt><trkpt lat="42.32530989702953" lon="13.316810911630428"><ele>809.0</ele><time>2026-04-27T14:22:50.001Z</time></trkpt><trkpt lat="42.32538959435369" lon="13.316814292841737"><ele>808.6666666666666</ele><time>2026-04-27T14:22:51.001Z</time></trkpt><trkpt lat="42.325477895811424" lon="13.316816427479107"><ele>808.3333333333333</ele><time>2026-04-27T14:22:52.001Z</time></trkpt><trkpt lat="42.3255834953477" lon="13.316806742345532"><ele>808.0</ele><time>2026-04-27T14:22:53.001Z</time></trkpt><trkpt lat="42.325679540613564" lon="13.316791750593042"><ele>808.0</ele><time>2026-04-27T14:22:54.001Z</time></trkpt><trkpt lat="42.325767812187436" lon="13.316773097487195"><ele>808.0</ele><time>2026-04-27T14:22:55.001Z</time></trkpt><trkpt lat="42.32586446584599" lon="13.316752001749812"><ele>808.0</ele><time>2026-04-27T14:22:56.001Z</time></trkpt><trkpt lat="42.32594800132255" lon="13.316765330632965"><ele>808.0</ele><time>2026-04-27T14:22:57.001Z</time></trkpt><trkpt lat="42.32603910231176" lon="13.316781307815285"><ele>808.0</ele><time>2026-04-27T14:22:58.001Z</time></trkpt><trkpt lat="42.32615287191501" lon="13.316798640489354"><ele>807.5</ele><time>2026-04-27T14:22:59.001Z</time></trkpt><trkpt lat="42.32650488606873" lon="13.316812237066442"><ele>807.0</ele><time>2026-04-27T14:23:03.001Z</time></trkpt><trkpt lat="42.32663038818191" lon="13.315872213698912"><ele>804.6</ele><time>2026-04-27T14:23:05.001Z</time></trkpt><trkpt lat="42.32670345537965" lon="13.315868935404051"><ele>802.2</ele><time>2026-04-27T14:23:06.001Z</time></trkpt><trkpt lat="42.32679432654738" lon="13.315900674872601"><ele>799.8</ele><time>2026-04-27T14:23:07.001Z</time></trkpt><trkpt lat="42.326902183997106" lon="13.315930465047183"><ele>797.4</ele><time>2026-04-27T14:23:08.001Z</time></trkpt><trkpt lat="42.32702310085825" lon="13.31594368376477"><ele>795.0</ele><time>2026-04-27T14:23:09.001Z</time></trkpt><trkpt lat="42.32716464394002" lon="13.315943017729827"><ele>794.0</ele><time>2026-04-27T14:23:09.999Z</time></trkpt><trkpt lat="42.32731837746233" lon="13.315950780783124"><ele>793.0</ele><time>2026-04-27T14:23:10.999Z</time></trkpt><trkpt lat="42.32744202794391" lon="13.315969654445803"><ele>792.0</ele><time>2026-04-27T14:23:11.999Z</time></trkpt><trkpt lat="42.32754899036447" lon="13.315993673032215"><ele>791.0</ele><time>2026-04-27T14:23:12.999Z</time></trkpt><trkpt lat="42.32764677118427" lon="13.315998038658332"><ele>791.0</ele><time>2026-04-27T14:23:13.999Z</time></trkpt><trkpt lat="42.32773861973785" lon="13.315987914372553"><ele>791.0</ele><time>2026-04-27T14:23:14.999Z</time></trkpt><trkpt lat="42.327840613803325" lon="13.315991070899116"><ele>791.0</ele><time>2026-04-27T14:23:15.999Z</time></trkpt><trkpt lat="42.32796548451083" lon="13.316027203023665"><ele>791.0</ele><time>2026-04-27T14:23:16.999Z</time></trkpt><trkpt lat="42.32810071330234" lon="13.316083828512735"><ele>789.0</ele><time>2026-04-27T14:23:17.999Z</time></trkpt><trkpt lat="42.32822534237267" lon="13.316138490671374"><ele>787.0</ele><time>2026-04-27T14:23:18.999Z</time></trkpt><trkpt lat="42.328333782996864" lon="13.316192862214994"><ele>785.0</ele><time>2026-04-27T14:23:19.999Z</time></trkpt><trkpt lat="42.32843086503397" lon="13.316249374863988"><ele>783.0</ele><time>2026-04-27T14:23:20.999Z</time></trkpt><trkpt lat="42.32852935722252" lon="13.316321657936077"><ele>783.0</ele><time>2026-04-27T14:23:21.999Z</time></trkpt><trkpt lat="42.328625381596666" lon="13.316394821304039"><ele>783.0</ele><time>2026-04-27T14:23:22.999Z</time></trkpt><trkpt lat="42.32869941629453" lon="13.316436493414434"><ele>783.0</ele><time>2026-04-27T14:23:23.999Z</time></trkpt><trkpt lat="42.32880511645605" lon="13.316505294137531"><ele>783.0</ele><time>2026-04-27T14:23:25.999Z</time></trkpt><trkpt lat="42.32888734395738" lon="13.316534592916637"><ele>783.0</ele><time>2026-04-27T14:23:26.999Z</time></trkpt><trkpt lat="42.3289802866624" lon="13.316531411564098"><ele>785.0</ele><time>2026-04-27T14:23:27.999Z</time></trkpt><trkpt lat="42.3290796533214" lon="13.316748368341235"><ele>787.0</ele><time>2026-04-27T14:23:28.999Z</time></trkpt><trkpt lat="42.329171046779486" lon="13.316745805987692"><ele>789.0</ele><time>2026-04-27T14:23:29.999Z</time></trkpt><trkpt lat="42.3292671940234" lon="13.316743110356681"><ele>791.0</ele><time>2026-04-27T14:23:30.999Z</time></trkpt><trkpt lat="42.32937811927421" lon="13.316740000400575"><ele>791.0</ele><time>2026-04-27T14:23:31.999Z</time></trkpt><trkpt lat="42.32948969620104" lon="13.316736872178428"><ele>791.0</ele><time>2026-04-27T14:23:32.999Z</time></trkpt><trkpt lat="42.32959044141867" lon="13.316734047644296"><ele>791.0</ele><time>2026-04-27T14:23:33.999Z</time></trkpt><trkpt lat="42.329685629021576" lon="13.31673137890089"><ele>791.0</ele><time>2026-04-27T14:23:34.999Z</time></trkpt><trkpt lat="42.32978510541109" lon="13.316728589938748"><ele>791.0</ele><time>2026-04-27T14:23:35.999Z</time></trkpt><trkpt lat="42.329881972690664" lon="13.316726020387598"><ele>790.1999999999999</ele><time>2026-04-27T14:23:36.999Z</time></trkpt><trkpt lat="42.32998614198562" lon="13.31672353701074"><ele>789.4</ele><time>2026-04-27T14:23:37.999Z</time></trkpt><trkpt lat="42.33008726619256" lon="13.316721126240832"><ele>788.6</ele><time>2026-04-27T14:23:38.999Z</time></trkpt><trkpt lat="42.33020335600439" lon="13.316718351320382"><ele>787.8</ele><time>2026-04-27T14:23:39.999Z</time></trkpt><trkpt lat="42.33030101475521" lon="13.316716023156507"><ele>787.0</ele><time>2026-04-27T14:23:41Z</time></trkpt><trkpt lat="42.33041630723852" lon="13.316713274612656"><ele>787.0</ele><time>2026-04-27T14:23:42Z</time></trkpt><trkpt lat="42.330519621491696" lon="13.316710811633715"><ele>787.0</ele><time>2026-04-27T14:23:43Z</time></trkpt><trkpt lat="42.33061877436237" lon="13.316708447853065"><ele>787.0</ele><time>2026-04-27T14:23:44Z</time></trkpt><trkpt lat="42.33072076048202" lon="13.31670601653332"><ele>787.0</ele><time>2026-04-27T14:23:45Z</time></trkpt><trkpt lat="42.330813536706664" lon="13.316703804775525"><ele>787.0</ele><time>2026-04-27T14:23:46Z</time></trkpt><trkpt lat="42.330926817971665" lon="13.316701104176815"><ele>786.8</ele><time>2026-04-27T14:23:47Z</time></trkpt><trkpt lat="42.33102078781782" lon="13.316698863949027"><ele>786.6</ele><time>2026-04-27T14:23:48Z</time></trkpt><trkpt lat="42.33112654135741" lon="13.316695697454067"><ele>786.4</ele><time>2026-04-27T14:23:50Z</time></trkpt><trkpt lat="42.33120585294754" lon="13.316693276746705"><ele>786.1999999999999</ele><time>2026-04-27T14:23:51Z</time></trkpt><trkpt lat="42.33128851615461" lon="13.316690753753921"><ele>786.0</ele><time>2026-04-27T14:23:52Z</time></trkpt><trkpt lat="42.33139043959496" lon="13.316687642900074"><ele>785.1666666666666</ele><time>2026-04-27T14:23:53Z</time></trkpt><trkpt lat="42.33149229921663" lon="13.316684533990305"><ele>784.3333333333333</ele><time>2026-04-27T14:23:54Z</time></trkpt><trkpt lat="42.33157274152759" lon="13.3166821445001"><ele>783.5</ele><time>2026-04-27T14:23:55Z</time></trkpt><trkpt lat="42.331644519352494" lon="13.316680261136725"><ele>782.6666666666666</ele><time>2026-04-27T14:23:56Z</time></trkpt><trkpt lat="42.33174460150648" lon="13.316677635155802"><ele>781.8333333333333</ele><time>2026-04-27T14:23:57Z</time></trkpt><trkpt lat="42.33182799298221" lon="13.316675447077472"><ele>781.0</ele><time>2026-04-27T14:23:58Z</time></trkpt><trkpt lat="42.33191862824561" lon="13.316673068949896"><ele>780.9999999999999</ele><time>2026-04-27T14:23:59Z</time></trkpt><trkpt lat="42.331991514423606" lon="13.316671156514664"><ele>781.0</ele><time>2026-04-27T14:24:00Z</time></trkpt><trkpt lat="42.332054691282536" lon="13.316669498849146"><ele>781.0</ele><time>2026-04-27T14:24:01Z</time></trkpt><trkpt lat="42.33213597955796" lon="13.316667556629678"><ele>781.0</ele><time>2026-04-27T14:24:02Z</time></trkpt><trkpt lat="42.33223277321684" lon="13.316665289499236"><ele>780.9999999999999</ele><time>2026-04-27T14:24:03Z</time></trkpt><trkpt lat="42.33233164977427" lon="13.316662973576268"><ele>781.0</ele><time>2026-04-27T14:24:04Z</time></trkpt><trkpt lat="42.33243285897678" lon="13.316660603026689"><ele>779.75</ele><time>2026-04-27T14:24:05Z</time></trkpt><trkpt lat="42.33255935915119" lon="13.316657640069463"><ele>778.5</ele><time>2026-04-27T14:24:06Z</time></trkpt><trkpt lat="42.332691302843784" lon="13.316654549640882"><ele>777.25</ele><time>2026-04-27T14:24:07Z</time></trkpt><trkpt lat="42.332804867395254" lon="13.31665188966846"><ele>776.0</ele><time>2026-04-27T14:24:08Z</time></trkpt><trkpt lat="42.33290950790823" lon="13.31664943872001"><ele>776.0</ele><time>2026-04-27T14:24:09Z</time></trkpt><trkpt lat="42.33300660068039" lon="13.3166471645643"><ele>776.0</ele><time>2026-04-27T14:24:10Z</time></trkpt><trkpt lat="42.33311144139681" lon="13.316644708921109"><ele>776.0</ele><time>2026-04-27T14:24:11Z</time></trkpt><trkpt lat="42.33320795653268" lon="13.316642406840733"><ele>776.0</ele><time>2026-04-27T14:24:12Z</time></trkpt><trkpt lat="42.33330504559081" lon="13.316640053771579"><ele>776.0</ele><time>2026-04-27T14:24:13Z</time></trkpt><trkpt lat="42.33342438412861" lon="13.316637161454011"><ele>775.75</ele><time>2026-04-27T14:24:14Z</time></trkpt><trkpt lat="42.333556681251906" lon="13.31663395506752"><ele>775.5</ele><time>2026-04-27T14:24:15Z</time></trkpt><trkpt lat="42.333682671267525" lon="13.316630901553536"><ele>775.25</ele><time>2026-04-27T14:24:16Z</time></trkpt><trkpt lat="42.33380174919192" lon="13.316628015562621"><ele>775.0</ele><time>2026-04-27T14:24:17Z</time></trkpt><trkpt lat="42.33391329072597" lon="13.316625508098213"><ele>773.5</ele><time>2026-04-27T14:24:18Z</time></trkpt><trkpt lat="42.33404318695865" lon="13.316622636656561"><ele>772.0</ele><time>2026-04-27T14:24:19Z</time></trkpt><trkpt lat="42.33415673143843" lon="13.316620126693412"><ele>770.5</ele><time>2026-04-27T14:24:20Z</time></trkpt><trkpt lat="42.33425894115944" lon="13.316617671718056"><ele>769.0</ele><time>2026-04-27T14:24:21Z</time></trkpt><trkpt lat="42.334369315120846" lon="13.316614946671315"><ele>769.0</ele><time>2026-04-27T14:24:22Z</time></trkpt><trkpt lat="42.33445282577064" lon="13.316612884866247"><ele>769.0</ele><time>2026-04-27T14:24:23Z</time></trkpt><trkpt lat="42.334556169144726" lon="13.316610333398526"><ele>769.0</ele><time>2026-04-27T14:24:24Z</time></trkpt><trkpt lat="42.33465964460766" lon="13.316607778670726"><ele>769.0</ele><time>2026-04-27T14:24:25Z</time></trkpt><trkpt lat="42.33475485954707" lon="13.316605427887763"><ele>769.0</ele><time>2026-04-27T14:24:26Z</time></trkpt><trkpt lat="42.334860166340555" lon="13.316602827939379"><ele>769.0</ele><time>2026-04-27T14:24:27Z</time></trkpt><trkpt lat="42.33498376595603" lon="13.316599776353677"><ele>769.0</ele><time>2026-04-27T14:24:28Z</time></trkpt><trkpt lat="42.33511219882265" lon="13.316596605454341"><ele>769.0</ele><time>2026-04-27T14:24:29Z</time></trkpt><trkpt lat="42.33523694543495" lon="13.316593525557488"><ele>769.0</ele><time>2026-04-27T14:24:30Z</time></trkpt><trkpt lat="42.33534880743389" lon="13.316590303351678"><ele>769.0</ele><time>2026-04-27T14:24:31Z</time></trkpt><trkpt lat="42.33546124266466" lon="13.316585354738356"><ele>769.0</ele><time>2026-04-27T14:24:32Z</time></trkpt><trkpt lat="42.33557764697352" lon="13.316580238630484"><ele>769.0</ele><time>2026-04-27T14:24:33Z</time></trkpt><trkpt lat="42.335682456274334" lon="13.316575632142966"><ele>769.0</ele><time>2026-04-27T14:24:34Z</time></trkpt><trkpt lat="42.33577441936861" lon="13.316571590255837"><ele>769.0</ele><time>2026-04-27T14:24:35Z</time></trkpt><trkpt lat="42.33586109810483" lon="13.316567780617556"><ele>768.6</ele><time>2026-04-27T14:24:36Z</time></trkpt><trkpt lat="42.3359241429527" lon="13.316565009718019"><ele>768.2</ele><time>2026-04-27T14:24:37Z</time></trkpt><trkpt lat="42.33600800748199" lon="13.316561546371096"><ele>767.8000000000001</ele><time>2026-04-27T14:24:38Z</time></trkpt><trkpt lat="42.33614265787096" lon="13.316558143326683"><ele>767.4000000000001</ele><time>2026-04-27T14:24:39Z</time></trkpt><trkpt lat="42.33626871852529" lon="13.316554957366327"><ele>767.0</ele><time>2026-04-27T14:24:40Z</time></trkpt><trkpt lat="42.336380745585295" lon="13.31655212606696"><ele>765.8</ele><time>2026-04-27T14:24:41Z</time></trkpt><trkpt lat="42.33647552307732" lon="13.316549730738679"><ele>764.6</ele><time>2026-04-27T14:24:42Z</time></trkpt><trkpt lat="42.33657867572707" lon="13.316547123747865"><ele>763.4</ele><time>2026-04-27T14:24:43Z</time></trkpt><trkpt lat="42.33667594194216" lon="13.316544665512406"><ele>762.1999999999999</ele><time>2026-04-27T14:24:44Z</time></trkpt><trkpt lat="42.33677041544079" lon="13.316542277856538"><ele>761.0</ele><time>2026-04-27T14:24:45Z</time></trkpt><trkpt lat="42.336879924393955" lon="13.316539506968867"><ele>761.0</ele><time>2026-04-27T14:24:46Z</time></trkpt><trkpt lat="42.336994837738274" lon="13.316536591339688"><ele>761.0</ele><time>2026-04-27T14:24:47Z</time></trkpt><trkpt lat="42.337115171953144" lon="13.316533538173381"><ele>761.0</ele><time>2026-04-27T14:24:48Z</time></trkpt><trkpt lat="42.337237860916005" lon="13.316530425262284"><ele>761.0</ele><time>2026-04-27T14:24:49Z</time></trkpt><trkpt lat="42.337369437641044" lon="13.316527086833986"><ele>760.0</ele><time>2026-04-27T14:24:50Z</time></trkpt><trkpt lat="42.33749605100607" lon="13.316523874354806"><ele>759.0</ele><time>2026-04-27T14:24:51Z</time></trkpt><trkpt lat="42.337591850922905" lon="13.316521443677578"><ele>758.0</ele><time>2026-04-27T14:24:52Z</time></trkpt><trkpt lat="42.33770344048367" lon="13.316517532840406"><ele>757.0</ele><time>2026-04-27T14:24:53Z</time></trkpt><trkpt lat="42.33779456672504" lon="13.316513693351943"><ele>756.0</ele><time>2026-04-27T14:24:54Z</time></trkpt><trkpt lat="42.33788632754419" lon="13.31651011371746"><ele>756.0</ele><time>2026-04-27T14:24:55Z</time></trkpt><trkpt lat="42.33799366115278" lon="13.316506856245185"><ele>756.0</ele><time>2026-04-27T14:24:56Z</time></trkpt><trkpt lat="42.33810959880946" lon="13.316504591207952"><ele>756.0</ele><time>2026-04-27T14:24:57.001Z</time></trkpt><trkpt lat="42.338237668131825" lon="13.316502097658084"><ele>756.0</ele><time>2026-04-27T14:24:58.001Z</time></trkpt><trkpt lat="42.33837588841541" lon="13.316499406457538"><ele>755.25</ele><time>2026-04-27T14:24:59.001Z</time></trkpt><trkpt lat="42.33849064370751" lon="13.316497172128628"><ele>754.5</ele><time>2026-04-27T14:25:00.001Z</time></trkpt><trkpt lat="42.338606365928996" lon="13.316494918975051"><ele>753.75</ele><time>2026-04-27T14:25:01.001Z</time></trkpt><trkpt lat="42.33873087757582" lon="13.316492494700066"><ele>753.0</ele><time>2026-04-27T14:25:02.001Z</time></trkpt><trkpt lat="42.33883853599325" lon="13.316490720140296"><ele>752.4</ele><time>2026-04-27T14:25:03.001Z</time></trkpt><trkpt lat="42.33894183289101" lon="13.31649072013754"><ele>751.8</ele><time>2026-04-27T14:25:04.001Z</time></trkpt><trkpt lat="42.33902707651963" lon="13.316491167309799"><ele>751.2</ele><time>2026-04-27T14:25:05.001Z</time></trkpt><trkpt lat="42.3391432349171" lon="13.31649536161714"><ele>750.6</ele><time>2026-04-27T14:25:06.001Z</time></trkpt><trkpt lat="42.339263195710586" lon="13.316499693223578"><ele>750.0</ele><time>2026-04-27T14:25:07.001Z</time></trkpt><trkpt lat="42.339367276696976" lon="13.31650367476926"><ele>750.0</ele><time>2026-04-27T14:25:08.001Z</time></trkpt><trkpt lat="42.339474583372606" lon="13.316509023847274"><ele>750.0</ele><time>2026-04-27T14:25:09.001Z</time></trkpt><trkpt lat="42.3395849580813" lon="13.316514525853249"><ele>750.0</ele><time>2026-04-27T14:25:10.001Z</time></trkpt><trkpt lat="42.33970699254068" lon="13.316520609102662"><ele>750.0</ele><time>2026-04-27T14:25:11.001Z</time></trkpt><trkpt lat="42.33982623074728" lon="13.316527941031167"><ele>749.4</ele><time>2026-04-27T14:25:12.001Z</time></trkpt><trkpt lat="42.339942010398346" lon="13.316537299256584"><ele>748.8</ele><time>2026-04-27T14:25:13.001Z</time></trkpt><trkpt lat="42.34002913096774" lon="13.31654720499514"><ele>748.2</ele><time>2026-04-27T14:25:14.001Z</time></trkpt><trkpt lat="42.34013596131891" lon="13.31655901748233"><ele>747.6</ele><time>2026-04-27T14:25:15.001Z</time></trkpt><trkpt lat="42.34022012026407" lon="13.316571149024107"><ele>747.0</ele><time>2026-04-27T14:25:15.999Z</time></trkpt><trkpt lat="42.34031966745014" lon="13.31658568539543"><ele>747.0</ele><time>2026-04-27T14:25:16.999Z</time></trkpt><trkpt lat="42.3404004580217" lon="13.316597798878343"><ele>747.0</ele><time>2026-04-27T14:25:17.999Z</time></trkpt><trkpt lat="42.34050234116497" lon="13.316614302851177"><ele>747.0</ele><time>2026-04-27T14:25:18.999Z</time></trkpt><trkpt lat="42.34058881151907" lon="13.316628310132133"><ele>747.0</ele><time>2026-04-27T14:25:19.999Z</time></trkpt><trkpt lat="42.34065967182745" lon="13.31663966339238"><ele>747.0</ele><time>2026-04-27T14:25:20.999Z</time></trkpt><trkpt lat="42.34075579549887" lon="13.316658494629712"><ele>747.0</ele><time>2026-04-27T14:25:21.999Z</time></trkpt><trkpt lat="42.34083724235755" lon="13.316675651594773"><ele>746.5</ele><time>2026-04-27T14:25:22.999Z</time></trkpt><trkpt lat="42.34095402227932" lon="13.316702485407934"><ele>746.0</ele><time>2026-04-27T14:25:23.999Z</time></trkpt><trkpt lat="42.341050972679945" lon="13.316726545043684"><ele>745.5</ele><time>2026-04-27T14:25:24.999Z</time></trkpt><trkpt lat="42.34115619080653" lon="13.316755784023613"><ele>745.0</ele><time>2026-04-27T14:25:25.999Z</time></trkpt><trkpt lat="42.341673210724515" lon="13.316749051313618"><ele>743.3333333333334</ele><time>2026-04-27T14:25:30.999Z</time></trkpt><trkpt lat="42.34201684665269" lon="13.316729630972416"><ele>741.6666666666666</ele><time>2026-04-27T14:25:31.999Z</time></trkpt><trkpt lat="42.34208723564438" lon="13.316678349557154"><ele>740.0</ele><time>2026-04-27T14:25:32.999Z</time></trkpt><trkpt lat="42.34216283131361" lon="13.31662999714279"><ele>739.5</ele><time>2026-04-27T14:25:33.999Z</time></trkpt><trkpt lat="42.34222628605807" lon="13.316588504331865"><ele>739.0</ele><time>2026-04-27T14:25:34.999Z</time></trkpt><trkpt lat="42.342320745771104" lon="13.316549704894033"><ele>738.5</ele><time>2026-04-27T14:25:35.999Z</time></trkpt><trkpt lat="42.34240596987999" lon="13.31649246867609"><ele>738.0</ele><time>2026-04-27T14:25:36.999Z</time></trkpt><trkpt lat="42.34247770437808" lon="13.316424317238717"><ele>737.5</ele><time>2026-04-27T14:25:37.999Z</time></trkpt><trkpt lat="42.34254810032663" lon="13.316356478472091"><ele>737.0</ele><time>2026-04-27T14:25:38.999Z</time></trkpt><trkpt lat="42.342622155911755" lon="13.315777382002956"><ele>737.0</ele><time>2026-04-27T14:25:39.999Z</time></trkpt><trkpt lat="42.34270636715922" lon="13.315680380118744"><ele>737.0</ele><time>2026-04-27T14:25:40.999Z</time></trkpt><trkpt lat="42.3428005124959" lon="13.315623955524954"><ele>737.0</ele><time>2026-04-27T14:25:41.999Z</time></trkpt><trkpt lat="42.34290433939275" lon="13.315562073092018"><ele>737.0</ele><time>2026-04-27T14:25:42.999Z</time></trkpt><trkpt lat="42.34298684758798" lon="13.315495539903615"><ele>737.0</ele><time>2026-04-27T14:25:43.999Z</time></trkpt><trkpt lat="42.34307408198635" lon="13.31543661500363"><ele>735.6666666666666</ele><time>2026-04-27T14:25:44.999Z</time></trkpt><trkpt lat="42.34316564443727" lon="13.315400152055636"><ele>734.3333333333333</ele><time>2026-04-27T14:25:45.999Z</time></trkpt><trkpt lat="42.343245617691274" lon="13.315376039416007"><ele>733.0</ele><time>2026-04-27T14:25:46.999Z</time></trkpt><trkpt lat="42.34332534659535" lon="13.315373554334903"><ele>731.6666666666666</ele><time>2026-04-27T14:25:47.999Z</time></trkpt><trkpt lat="42.34339990321618" lon="13.315404253062658"><ele>730.3333333333334</ele><time>2026-04-27T14:25:49Z</time></trkpt><trkpt lat="42.34347144554331" lon="13.315435532631444"><ele>729.0</ele><time>2026-04-27T14:25:50Z</time></trkpt><trkpt lat="42.343568985211036" lon="13.315453749336768"><ele>729.0</ele><time>2026-04-27T14:25:51Z</time></trkpt><trkpt lat="42.34364758052543" lon="13.315486377861014"><ele>729.0</ele><time>2026-04-27T14:25:52Z</time></trkpt><trkpt lat="42.34375003044795" lon="13.315517314149155"><ele>729.0</ele><time>2026-04-27T14:25:53Z</time></trkpt><trkpt lat="42.343874472918564" lon="13.315534451874672"><ele>729.0</ele><time>2026-04-27T14:25:54Z</time></trkpt><trkpt lat="42.344005415909756" lon="13.315533081150122"><ele>729.0</ele><time>2026-04-27T14:25:55Z</time></trkpt><trkpt lat="42.344152548816766" lon="13.315526802542731"><ele>727.25</ele><time>2026-04-27T14:25:56Z</time></trkpt><trkpt lat="42.344292559194606" lon="13.315520988267616"><ele>725.5</ele><time>2026-04-27T14:25:57Z</time></trkpt><trkpt lat="42.34441813804578" lon="13.315514718175406"><ele>723.75</ele><time>2026-04-27T14:25:58Z</time></trkpt><trkpt lat="42.34453593746925" lon="13.315516473142836"><ele>722.0</ele><time>2026-04-27T14:25:59Z</time></trkpt><trkpt lat="42.34464970958994" lon="13.315516149260006"><ele>720.5</ele><time>2026-04-27T14:26:00Z</time></trkpt><trkpt lat="42.34475270402949" lon="13.31550849946267"><ele>719.0</ele><time>2026-04-27T14:26:01Z</time></trkpt><trkpt lat="42.34485373012112" lon="13.315492797920191"><ele>717.5</ele><time>2026-04-27T14:26:02Z</time></trkpt><trkpt lat="42.344972828005396" lon="13.315472750431685"><ele>716.0</ele><time>2026-04-27T14:26:03Z</time></trkpt><trkpt lat="42.345101660973" lon="13.31543345824311"><ele>716.0</ele><time>2026-04-27T14:26:04Z</time></trkpt><trkpt lat="42.34521202823412" lon="13.315401838252068"><ele>716.0</ele><time>2026-04-27T14:26:05Z</time></trkpt><trkpt lat="42.345303549021494" lon="13.315385049440842"><ele>716.0</ele><time>2026-04-27T14:26:06Z</time></trkpt><trkpt lat="42.34537370435901" lon="13.315364586127878"><ele>716.0</ele><time>2026-04-27T14:26:07Z</time></trkpt><trkpt lat="42.34552112975008" lon="13.315389101841275"><ele>716.0</ele><time>2026-04-27T14:26:09Z</time></trkpt><trkpt lat="42.34559747422844" lon="13.315445264761024"><ele>715.5999999999999</ele><time>2026-04-27T14:26:10Z</time></trkpt><trkpt lat="42.34569140474178" lon="13.315505652345822"><ele>715.2</ele><time>2026-04-27T14:26:11Z</time></trkpt><trkpt lat="42.34578655984439" lon="13.315543454336465"><ele>714.8</ele><time>2026-04-27T14:26:12Z</time></trkpt><trkpt lat="42.34588914317861" lon="13.31556104130188"><ele>714.4000000000001</ele><time>2026-04-27T14:26:13Z</time></trkpt><trkpt lat="42.345984548489646" lon="13.315567691422997"><ele>714.0</ele><time>2026-04-27T14:26:14Z</time></trkpt><trkpt lat="42.346073710704125" lon="13.315592684006548"><ele>715.5</ele><time>2026-04-27T14:26:15Z</time></trkpt><trkpt lat="42.34618949233912" lon="13.315614432637858"><ele>717.0</ele><time>2026-04-27T14:26:16Z</time></trkpt><trkpt lat="42.34630295451014" lon="13.315661606207625"><ele>718.5</ele><time>2026-04-27T14:26:17Z</time></trkpt><trkpt lat="42.34643264415024" lon="13.315686851911572"><ele>720.0</ele><time>2026-04-27T14:26:18Z</time></trkpt><trkpt lat="42.34655569461263" lon="13.315711994632382"><ele>720.4</ele><time>2026-04-27T14:26:19Z</time></trkpt><trkpt lat="42.34667053639488" lon="13.315742263744044"><ele>720.8</ele><time>2026-04-27T14:26:20Z</time></trkpt><trkpt lat="42.34675936301561" lon="13.315777299326637"><ele>721.2</ele><time>2026-04-27T14:26:21Z</time></trkpt><trkpt lat="42.34683863780714" lon="13.315824363573162"><ele>721.6</ele><time>2026-04-27T14:26:22Z</time></trkpt><trkpt lat="42.346923939608764" lon="13.3158997909995"><ele>722.0</ele><time>2026-04-27T14:26:23Z</time></trkpt><trkpt lat="42.347029105701345" lon="13.316009636599398"><ele>722.0</ele><time>2026-04-27T14:26:24Z</time></trkpt><trkpt lat="42.347135157293756" lon="13.31613257859715"><ele>722.0</ele><time>2026-04-27T14:26:25Z</time></trkpt><trkpt lat="42.347251116516325" lon="13.316229586599224"><ele>722.0</ele><time>2026-04-27T14:26:26Z</time></trkpt><trkpt lat="42.34733524744242" lon="13.316326107773707"><ele>722.0</ele><time>2026-04-27T14:26:27Z</time></trkpt><trkpt lat="42.347426824366146" lon="13.316372899709451"><ele>721.4000000000001</ele><time>2026-04-27T14:26:28Z</time></trkpt><trkpt lat="42.34751649685807" lon="13.316420493684586"><ele>720.8000000000001</ele><time>2026-04-27T14:26:29Z</time></trkpt><trkpt lat="42.34759826041671" lon="13.316475698957957"><ele>720.2</ele><time>2026-04-27T14:26:30Z</time></trkpt><trkpt lat="42.347700549641246" lon="13.316487724467988"><ele>719.6</ele><time>2026-04-27T14:26:31Z</time></trkpt><trkpt lat="42.34779682886993" lon="13.31650163199841"><ele>719.0</ele><time>2026-04-27T14:26:32Z</time></trkpt><trkpt lat="42.34786966654537" lon="13.31653926597614"><ele>719.0</ele><time>2026-04-27T14:26:33Z</time></trkpt><trkpt lat="42.3479692992618" lon="13.31662919125128"><ele>719.0</ele><time>2026-04-27T14:26:34Z</time></trkpt><trkpt lat="42.3480517950623" lon="13.316706439160324"><ele>719.0</ele><time>2026-04-27T14:26:35Z</time></trkpt><trkpt lat="42.34816567783068" lon="13.316772280398744"><ele>719.0</ele><time>2026-04-27T14:26:36Z</time></trkpt><trkpt lat="42.34826279327051" lon="13.316841082576532"><ele>718.6</ele><time>2026-04-27T14:26:37Z</time></trkpt><trkpt lat="42.34836332868946" lon="13.316888306274313"><ele>718.2</ele><time>2026-04-27T14:26:38Z</time></trkpt><trkpt lat="42.34845680346857" lon="13.316919567922119"><ele>717.8000000000001</ele><time>2026-04-27T14:26:39Z</time></trkpt><trkpt lat="42.34855819925533" lon="13.31693885571544"><ele>717.4000000000001</ele><time>2026-04-27T14:26:40Z</time></trkpt><trkpt lat="42.3486627426265" lon="13.316966822641627"><ele>717.0</ele><time>2026-04-27T14:26:41Z</time></trkpt><trkpt lat="42.348766454674426" lon="13.316955462339816"><ele>717.0</ele><time>2026-04-27T14:26:42Z</time></trkpt><trkpt lat="42.34884000456596" lon="13.316963522774149"><ele>717.0</ele><time>2026-04-27T14:26:43Z</time></trkpt><trkpt lat="42.34893240167059" lon="13.316937677577974"><ele>717.0</ele><time>2026-04-27T14:26:45Z</time></trkpt><trkpt lat="42.34900470076005" lon="13.316889237681778"><ele>717.0</ele><time>2026-04-27T14:26:48Z</time></trkpt><trkpt lat="42.34898720203619" lon="13.316763046523493"><ele>717.0</ele><time>2026-04-27T14:26:49Z</time></trkpt><trkpt lat="42.34898461161696" lon="13.316665650820497"><ele>717.0</ele><time>2026-04-27T14:26:50Z</time></trkpt><trkpt lat="42.349055954957585" lon="13.316736354101746"><ele>714.6</ele><time>2026-04-27T14:26:53Z</time></trkpt><trkpt lat="42.34911056043822" lon="13.31681624034935"><ele>712.2</ele><time>2026-04-27T14:26:54Z</time></trkpt><trkpt lat="42.34918726902319" lon="13.31689977318949"><ele>709.8</ele><time>2026-04-27T14:26:55Z</time></trkpt><trkpt lat="42.34928013193936" lon="13.316981320367072"><ele>707.4</ele><time>2026-04-27T14:26:56Z</time></trkpt><trkpt lat="42.34939036504599" lon="13.317049940728339"><ele>705.0</ele><time>2026-04-27T14:26:57Z</time></trkpt><trkpt lat="42.349510465199025" lon="13.31711838622581"><ele>705.0</ele><time>2026-04-27T14:26:58Z</time></trkpt><trkpt lat="42.34962052543489" lon="13.317190212557026"><ele>705.0</ele><time>2026-04-27T14:26:59.001Z</time></trkpt><trkpt lat="42.34972010950548" lon="13.317274806761313"><ele>705.0</ele><time>2026-04-27T14:27:00.001Z</time></trkpt><trkpt lat="42.34981772807151" lon="13.317379241482731"><ele>705.0</ele><time>2026-04-27T14:27:01.001Z</time></trkpt><trkpt lat="42.34991100379435" lon="13.317493394741938"><ele>702.75</ele><time>2026-04-27T14:27:02.001Z</time></trkpt><trkpt lat="42.35000187311072" lon="13.317614389126621"><ele>700.5</ele><time>2026-04-27T14:27:03.001Z</time></trkpt><trkpt lat="42.35009154004068" lon="13.317742424795787"><ele>698.25</ele><time>2026-04-27T14:27:04.001Z</time></trkpt><trkpt lat="42.35018490407232" lon="13.317877995826473"><ele>696.0</ele><time>2026-04-27T14:27:05.001Z</time></trkpt><trkpt lat="42.35028594948048" lon="13.318025253190477"><ele>696.3333333333334</ele><time>2026-04-27T14:27:06.001Z</time></trkpt><trkpt lat="42.3503937142073" lon="13.31817427872365"><ele>696.6666666666667</ele><time>2026-04-27T14:27:07.001Z</time></trkpt><trkpt lat="42.3505024217697" lon="13.3183267185659"><ele>697.0</ele><time>2026-04-27T14:27:08.001Z</time></trkpt><trkpt lat="42.350602958260694" lon="13.318480433247467"><ele>693.3333333333334</ele><time>2026-04-27T14:27:09.001Z</time></trkpt><trkpt lat="42.350713446278775" lon="13.31863471246816"><ele>689.6666666666666</ele><time>2026-04-27T14:27:10.001Z</time></trkpt><trkpt lat="42.350822739028814" lon="13.318785443641673"><ele>686.0</ele><time>2026-04-27T14:27:11.001Z</time></trkpt><trkpt lat="42.35092391123238" lon="13.318919822643712"><ele>685.25</ele><time>2026-04-27T14:27:12.001Z</time></trkpt><trkpt lat="42.3510167486282" lon="13.31904871992887"><ele>684.5</ele><time>2026-04-27T14:27:13.001Z</time></trkpt><trkpt lat="42.35110512031589" lon="13.319170549926794"><ele>683.75</ele><time>2026-04-27T14:27:14.001Z</time></trkpt><trkpt lat="42.35118952212702" lon="13.319296055511158"><ele>683.0</ele><time>2026-04-27T14:27:15.001Z</time></trkpt><trkpt lat="42.35127141182049" lon="13.31941065634111"><ele>683.0</ele><time>2026-04-27T14:27:16.001Z</time></trkpt><trkpt lat="42.35136679524839" lon="13.319525140733324"><ele>683.0</ele><time>2026-04-27T14:27:17.001Z</time></trkpt><trkpt lat="42.35147438493728" lon="13.319623682012333"><ele>683.0</ele><time>2026-04-27T14:27:18.001Z</time></trkpt><trkpt lat="42.35160205596786" lon="13.319717668261424"><ele>683.0</ele><time>2026-04-27T14:27:19.001Z</time></trkpt><trkpt lat="42.35173642534916" lon="13.319815483240738"><ele>683.0</ele><time>2026-04-27T14:27:20.001Z</time></trkpt><trkpt lat="42.3518696475355" lon="13.319920274124886"><ele>683.0</ele><time>2026-04-27T14:27:20.999Z</time></trkpt><trkpt lat="42.3519952702753" lon="13.320023397768281"><ele>683.0</ele><time>2026-04-27T14:27:21.999Z</time></trkpt><trkpt lat="42.35211191046717" lon="13.320138122651846"><ele>683.0</ele><time>2026-04-27T14:27:22.999Z</time></trkpt><trkpt lat="42.35222386434629" lon="13.320252771219828"><ele>681.25</ele><time>2026-04-27T14:27:23.999Z</time></trkpt><trkpt lat="42.35233289671285" lon="13.320356955872034"><ele>679.5</ele><time>2026-04-27T14:27:24.999Z</time></trkpt><trkpt lat="42.352439836382686" lon="13.320454906401597"><ele>677.75</ele><time>2026-04-27T14:27:25.999Z</time></trkpt><trkpt lat="42.35254320435906" lon="13.320546813540064"><ele>676.0</ele><time>2026-04-27T14:27:26.999Z</time></trkpt><trkpt lat="42.35263627507701" lon="13.320631564031524"><ele>676.0</ele><time>2026-04-27T14:27:27.999Z</time></trkpt><trkpt lat="42.352716816747744" lon="13.32071023896503"><ele>676.0</ele><time>2026-04-27T14:27:28.999Z</time></trkpt><trkpt lat="42.352773546561345" lon="13.320767754993124"><ele>676.0</ele><time>2026-04-27T14:27:29.999Z</time></trkpt><trkpt lat="42.35283386901196" lon="13.320854938924708"><ele>676.0</ele><time>2026-04-27T14:27:31.999Z</time></trkpt><trkpt lat="42.3528555306438" lon="13.321036401252803"><ele>676.0</ele><time>2026-04-27T14:27:33.999Z</time></trkpt><trkpt lat="42.35284803404074" lon="13.321174312245672"><ele>676.0</ele><time>2026-04-27T14:27:34.999Z</time></trkpt><trkpt lat="42.35284393970064" lon="13.321334979321527"><ele>676.0</ele><time>2026-04-27T14:27:35.999Z</time></trkpt><trkpt lat="42.352853300573116" lon="13.321502973426352"><ele>676.0</ele><time>2026-04-27T14:27:36.999Z</time></trkpt><trkpt lat="42.35287775825039" lon="13.321672986681397"><ele>676.0</ele><time>2026-04-27T14:27:37.999Z</time></trkpt><trkpt lat="42.352917952791636" lon="13.321846217593636"><ele>674.5</ele><time>2026-04-27T14:27:38.999Z</time></trkpt><trkpt lat="42.352974132459735" lon="13.32201024500716"><ele>673.0</ele><time>2026-04-27T14:27:40Z</time></trkpt><trkpt lat="42.353032858395906" lon="13.322162563305795"><ele>671.5</ele><time>2026-04-27T14:27:41Z</time></trkpt><trkpt lat="42.3530847005559" lon="13.322312171952225"><ele>670.0</ele><time>2026-04-27T14:27:42Z</time></trkpt><trkpt lat="42.35313031906469" lon="13.322449738300547"><ele>669.1666666666667</ele><time>2026-04-27T14:27:43Z</time></trkpt><trkpt lat="42.35316759709798" lon="13.322566530969727"><ele>668.3333333333334</ele><time>2026-04-27T14:27:44Z</time></trkpt><trkpt lat="42.35319281368688" lon="13.322653204187878"><ele>667.5</ele><time>2026-04-27T14:27:45Z</time></trkpt><trkpt lat="42.353202854169005" lon="13.322746525307778"><ele>666.6666666666666</ele><time>2026-04-27T14:27:47Z</time></trkpt><trkpt lat="42.35320527952574" lon="13.322851980159822"><ele>665.8333333333333</ele><time>2026-04-27T14:27:49Z</time></trkpt><trkpt lat="42.35320692646071" lon="13.322937399305218"><ele>665.0</ele><time>2026-04-27T14:27:50Z</time></trkpt><trkpt lat="42.35328401220244" lon="13.323016919926632"><ele>664.25</ele><time>2026-04-27T14:27:51Z</time></trkpt><trkpt lat="42.35335231004921" lon="13.323100231496829"><ele>663.5</ele><time>2026-04-27T14:27:52Z</time></trkpt><trkpt lat="42.353426641368564" lon="13.323217660822452"><ele>662.75</ele><time>2026-04-27T14:27:53Z</time></trkpt><trkpt lat="42.3534891236293" lon="13.323361005012732"><ele>662.0</ele><time>2026-04-27T14:27:54Z</time></trkpt><trkpt lat="42.353551178056414" lon="13.323505323353578"><ele>662.0</ele><time>2026-04-27T14:27:55Z</time></trkpt><trkpt lat="42.35361888774415" lon="13.323663184118749"><ele>662.0</ele><time>2026-04-27T14:27:56Z</time></trkpt><trkpt lat="42.353687664671" lon="13.323818322675379"><ele>662.0</ele><time>2026-04-27T14:27:57Z</time></trkpt><trkpt lat="42.35376048275894" lon="13.32397989452816"><ele>662.0</ele><time>2026-04-27T14:27:58Z</time></trkpt><trkpt lat="42.35383624383255" lon="13.324145777455309"><ele>661.75</ele><time>2026-04-27T14:27:59Z</time></trkpt><trkpt lat="42.35391556905932" lon="13.32431572172855"><ele>661.5</ele><time>2026-04-27T14:28:00Z</time></trkpt><trkpt lat="42.353994051560896" lon="13.324480889235698"><ele>661.25</ele><time>2026-04-27T14:28:01Z</time></trkpt><trkpt lat="42.35407398101526" lon="13.324649144070174"><ele>661.0</ele><time>2026-04-27T14:28:02Z</time></trkpt><trkpt lat="42.35415339622991" lon="13.324827033258885"><ele>659.6666666666667</ele><time>2026-04-27T14:28:03Z</time></trkpt><trkpt lat="42.354236342521396" lon="13.324998505900382"><ele>658.3333333333334</ele><time>2026-04-27T14:28:04Z</time></trkpt><trkpt lat="42.354323580048934" lon="13.325172510705544"><ele>657.0</ele><time>2026-04-27T14:28:05Z</time></trkpt><trkpt lat="42.35441414269187" lon="13.325343715640328"><ele>657.0</ele><time>2026-04-27T14:28:06Z</time></trkpt><trkpt lat="42.35450363734954" lon="13.325522721259219"><ele>657.0</ele><time>2026-04-27T14:28:07Z</time></trkpt><trkpt lat="42.354596517938845" lon="13.325694411829884"><ele>657.0</ele><time>2026-04-27T14:28:08Z</time></trkpt><trkpt lat="42.354690115377956" lon="13.325855079836419"><ele>656.3333333333334</ele><time>2026-04-27T14:28:09Z</time></trkpt><trkpt lat="42.35477510985726" lon="13.326020796751571"><ele>655.6666666666667</ele><time>2026-04-27T14:28:10Z</time></trkpt><trkpt lat="42.35486076479972" lon="13.326206970557843"><ele>655.0</ele><time>2026-04-27T14:28:11Z</time></trkpt><trkpt lat="42.354948472303484" lon="13.326389988826953"><ele>655.0</ele><time>2026-04-27T14:28:12Z</time></trkpt><trkpt lat="42.35503324564405" lon="13.326561111121812"><ele>655.0</ele><time>2026-04-27T14:28:13Z</time></trkpt><trkpt lat="42.355128541503035" lon="13.326723682245595"><ele>655.0</ele><time>2026-04-27T14:28:14Z</time></trkpt><trkpt lat="42.35523648593059" lon="13.326882809068062"><ele>655.0</ele><time>2026-04-27T14:28:15Z</time></trkpt><trkpt lat="42.355348223522434" lon="13.327050776634346"><ele>655.0</ele><time>2026-04-27T14:28:16Z</time></trkpt><trkpt lat="42.35545010792986" lon="13.327213418042446"><ele>655.0</ele><time>2026-04-27T14:28:17Z</time></trkpt><trkpt lat="42.355549846056704" lon="13.327391867621019"><ele>654.3333333333334</ele><time>2026-04-27T14:28:18Z</time></trkpt><trkpt lat="42.35564227115007" lon="13.327573063721367"><ele>653.6666666666666</ele><time>2026-04-27T14:28:19Z</time></trkpt><trkpt lat="42.35574141974771" lon="13.327752911141356"><ele>653.0</ele><time>2026-04-27T14:28:20Z</time></trkpt><trkpt lat="42.355831127571605" lon="13.327922864385028"><ele>652.6666666666666</ele><time>2026-04-27T14:28:21Z</time></trkpt><trkpt lat="42.35593056872485" lon="13.32810940452808"><ele>652.3333333333334</ele><time>2026-04-27T14:28:22Z</time></trkpt><trkpt lat="42.356021872467224" lon="13.32828678390378"><ele>652.0</ele><time>2026-04-27T14:28:23Z</time></trkpt><trkpt lat="42.35610834912514" lon="13.32845217643288"><ele>652.0</ele><time>2026-04-27T14:28:24Z</time></trkpt><trkpt lat="42.35618021208988" lon="13.32861131589764"><ele>652.0</ele><time>2026-04-27T14:28:25Z</time></trkpt><trkpt lat="42.35623350075118" lon="13.328766346349175"><ele>652.0</ele><time>2026-04-27T14:28:26Z</time></trkpt><trkpt lat="42.35626411742764" lon="13.328947147002465"><ele>652.0</ele><time>2026-04-27T14:28:27Z</time></trkpt><trkpt lat="42.35624849136545" lon="13.329136143888281"><ele>652.0</ele><time>2026-04-27T14:28:28Z</time></trkpt><trkpt lat="42.356204554539325" lon="13.329328963106509"><ele>652.0</ele><time>2026-04-27T14:28:29Z</time></trkpt><trkpt lat="42.35615682595951" lon="13.329525431716064"><ele>652.0</ele><time>2026-04-27T14:28:30Z</time></trkpt><trkpt lat="42.35611531386552" lon="13.32972974718699"><ele>652.0</ele><time>2026-04-27T14:28:31Z</time></trkpt><trkpt lat="42.35607494677859" lon="13.329938107296451"><ele>652.0</ele><time>2026-04-27T14:28:32Z</time></trkpt><trkpt lat="42.35603154516007" lon="13.330146722990408"><ele>652.0</ele><time>2026-04-27T14:28:33Z</time></trkpt><trkpt lat="42.35598385103868" lon="13.330368230053482"><ele>652.3333333333334</ele><time>2026-04-27T14:28:34Z</time></trkpt><trkpt lat="42.355938321679425" lon="13.330576143869388"><ele>652.6666666666666</ele><time>2026-04-27T14:28:35Z</time></trkpt><trkpt lat="42.355892697860426" lon="13.330798147886377"><ele>653.0</ele><time>2026-04-27T14:28:36Z</time></trkpt><trkpt lat="42.3558633997883" lon="13.33101460598701"><ele>653.0</ele><time>2026-04-27T14:28:37Z</time></trkpt><trkpt lat="42.355840366833874" lon="13.331235668064771"><ele>653.0</ele><time>2026-04-27T14:28:38Z</time></trkpt><trkpt lat="42.35582822686001" lon="13.331463061297855"><ele>653.0</ele><time>2026-04-27T14:28:39Z</time></trkpt><trkpt lat="42.35581652375979" lon="13.331703092889423"><ele>652.6666666666666</ele><time>2026-04-27T14:28:40Z</time></trkpt><trkpt lat="42.35580290037996" lon="13.331947865635925"><ele>652.3333333333334</ele><time>2026-04-27T14:28:41Z</time></trkpt><trkpt lat="42.35578282430134" lon="13.332184098952279"><ele>652.0</ele><time>2026-04-27T14:28:42Z</time></trkpt><trkpt lat="42.35576362665753" lon="13.33240197072403"><ele>650.6666666666667</ele><time>2026-04-27T14:28:43Z</time></trkpt><trkpt lat="42.355758645833916" lon="13.332612006871688"><ele>649.3333333333334</ele><time>2026-04-27T14:28:44Z</time></trkpt><trkpt lat="42.355737474990164" lon="13.332823848505898"><ele>648.0</ele><time>2026-04-27T14:28:45Z</time></trkpt><trkpt lat="42.355725350973415" lon="13.333043474732852"><ele>647.6666666666666</ele><time>2026-04-27T14:28:46Z</time></trkpt><trkpt lat="42.355710208065034" lon="13.333248955997517"><ele>647.3333333333333</ele><time>2026-04-27T14:28:47.001Z</time></trkpt><trkpt lat="42.355699315334974" lon="13.33346162597985"><ele>647.0</ele><time>2026-04-27T14:28:48.001Z</time></trkpt><trkpt lat="42.35568790654896" lon="13.333682178292309"><ele>646.6666666666666</ele><time>2026-04-27T14:28:49.001Z</time></trkpt><trkpt lat="42.355669744586784" lon="13.333893910751986"><ele>646.3333333333334</ele><time>2026-04-27T14:28:50.001Z</time></trkpt><trkpt lat="42.35565273014163" lon="13.334093920610062"><ele>646.0</ele><time>2026-04-27T14:28:51.001Z</time></trkpt><trkpt lat="42.35563894728387" lon="13.334300963138613"><ele>646.0</ele><time>2026-04-27T14:28:52.001Z</time></trkpt><trkpt lat="42.35564221918341" lon="13.334502988855322"><ele>646.0</ele><time>2026-04-27T14:28:53.001Z</time></trkpt><trkpt lat="42.35566313028361" lon="13.334699248513555"><ele>646.0</ele><time>2026-04-27T14:28:54.001Z</time></trkpt><trkpt lat="42.355709181484805" lon="13.334870553486658"><ele>646.0</ele><time>2026-04-27T14:28:55.001Z</time></trkpt><trkpt lat="42.35575555417757" lon="13.335023626534385"><ele>645.1999999999999</ele><time>2026-04-27T14:28:56.001Z</time></trkpt><trkpt lat="42.355788733818414" lon="13.335162395747197"><ele>644.4</ele><time>2026-04-27T14:28:57.001Z</time></trkpt><trkpt lat="42.35581559897664" lon="13.335302360467907"><ele>643.6</ele><time>2026-04-27T14:28:58.001Z</time></trkpt><trkpt lat="42.35582434842163" lon="13.335444261413699"><ele>642.8</ele><time>2026-04-27T14:28:59.001Z</time></trkpt><trkpt lat="42.35581906107117" lon="13.335606298181553"><ele>642.0</ele><time>2026-04-27T14:29:00.001Z</time></trkpt><trkpt lat="42.35577369695541" lon="13.335774350798587"><ele>641.5</ele><time>2026-04-27T14:29:01.001Z</time></trkpt><trkpt lat="42.35572140349832" lon="13.335937282470903"><ele>641.0</ele><time>2026-04-27T14:29:02.001Z</time></trkpt><trkpt lat="42.355671069570946" lon="13.336084337223172"><ele>640.5</ele><time>2026-04-27T14:29:03.001Z</time></trkpt><trkpt lat="42.35562449667267" lon="13.33622501110119"><ele>640.0</ele><time>2026-04-27T14:29:04.001Z</time></trkpt><trkpt lat="42.355581130253924" lon="13.336356526566508"><ele>640.0</ele><time>2026-04-27T14:29:05.001Z</time></trkpt><trkpt lat="42.35553285432195" lon="13.336483416445155"><ele>640.0</ele><time>2026-04-27T14:29:06.001Z</time></trkpt><trkpt lat="42.35547437050363" lon="13.336610119966823"><ele>640.0</ele><time>2026-04-27T14:29:07.001Z</time></trkpt><trkpt lat="42.35540202441247" lon="13.336719185231335"><ele>640.0</ele><time>2026-04-27T14:29:08.001Z</time></trkpt><trkpt lat="42.3553201547848" lon="13.336814459672539"><ele>640.0</ele><time>2026-04-27T14:29:09.001Z</time></trkpt><trkpt lat="42.35524111821171" lon="13.33689509516398"><ele>640.0</ele><time>2026-04-27T14:29:10.001Z</time></trkpt><trkpt lat="42.355158692796884" lon="13.336973537323962"><ele>640.0</ele><time>2026-04-27T14:29:11.001Z</time></trkpt><trkpt lat="42.35507452919041" lon="13.337058693366666"><ele>640.0</ele><time>2026-04-27T14:29:12.001Z</time></trkpt><trkpt lat="42.35498311609908" lon="13.337140885676146"><ele>640.0</ele><time>2026-04-27T14:29:13.001Z</time></trkpt><trkpt lat="42.35488653362221" lon="13.33722091047019"><ele>640.0</ele><time>2026-04-27T14:29:14.001Z</time></trkpt><trkpt lat="42.35478685161129" lon="13.337297643262923"><ele>639.25</ele><time>2026-04-27T14:29:15.001Z</time></trkpt><trkpt lat="42.354679444515725" lon="13.337379479199829"><ele>638.5</ele><time>2026-04-27T14:29:16.001Z</time></trkpt><trkpt lat="42.35457016890673" lon="13.337464573553152"><ele>637.75</ele><time>2026-04-27T14:29:17.001Z</time></trkpt><trkpt lat="42.35446427527335" lon="13.337545510673499"><ele>637.0</ele><time>2026-04-27T14:29:18.001Z</time></trkpt><trkpt lat="42.35432272763348" lon="13.337621615062421"><ele>637.0</ele><time>2026-04-27T14:29:20.001Z</time></trkpt><trkpt lat="42.354226789999366" lon="13.33768571678162"><ele>637.0</ele><time>2026-04-27T14:29:21.001Z</time></trkpt><trkpt lat="42.354135034890945" lon="13.337740847185518"><ele>637.0</ele><time>2026-04-27T14:29:22.001Z</time></trkpt><trkpt lat="42.354052062835024" lon="13.337793063351645"><ele>637.0</ele><time>2026-04-27T14:29:23.001Z</time></trkpt><trkpt lat="42.35397267035966" lon="13.337824179976328"><ele>637.0</ele><time>2026-04-27T14:29:24.001Z</time></trkpt><trkpt lat="42.35389813464099" lon="13.337838412463453"><ele>637.5</ele><time>2026-04-27T14:29:25.001Z</time></trkpt><trkpt lat="42.35382101804582" lon="13.337835533004705"><ele>638.0</ele><time>2026-04-27T14:29:26.001Z</time></trkpt><trkpt lat="42.353766906501534" lon="13.337780424062057"><ele>638.5</ele><time>2026-04-27T14:29:27Z</time></trkpt><trkpt lat="42.35368989553513" lon="13.337737872040606"><ele>639.0</ele><time>2026-04-27T14:29:28Z</time></trkpt><trkpt lat="42.35362027297708" lon="13.337651012010372"><ele>639.5</ele><time>2026-04-27T14:29:29Z</time></trkpt><trkpt lat="42.35354588226659" lon="13.33755625649557"><ele>640.0</ele><time>2026-04-27T14:29:30Z</time></trkpt><trkpt lat="42.353470377219" lon="13.337495086514322"><ele>640.0</ele><time>2026-04-27T14:29:31Z</time></trkpt><trkpt lat="42.35338684394183" lon="13.337472133092431"><ele>640.0</ele><time>2026-04-27T14:29:32Z</time></trkpt><trkpt lat="42.353300112651695" lon="13.337493704079405"><ele>640.0</ele><time>2026-04-27T14:29:33Z</time></trkpt><trkpt lat="42.35322205907147" lon="13.337554746331968"><ele>640.0</ele><time>2026-04-27T14:29:34Z</time></trkpt><trkpt lat="42.35315673227803" lon="13.337642033139838"><ele>640.0</ele><time>2026-04-27T14:29:35Z</time></trkpt><trkpt lat="42.353120315492035" lon="13.337744446009847"><ele>640.0</ele><time>2026-04-27T14:29:36Z</time></trkpt><trkpt lat="42.35310921107994" lon="13.337853721001595"><ele>640.0</ele><time>2026-04-27T14:29:37Z</time></trkpt><trkpt lat="42.353114263471745" lon="13.337969694993781"><ele>640.0</ele><time>2026-04-27T14:29:38Z</time></trkpt><trkpt lat="42.35314282348296" lon="13.338087775945429"><ele>640.0</ele><time>2026-04-27T14:29:39Z</time></trkpt><trkpt lat="42.35318144626295" lon="13.338172262419713"><ele>640.0</ele><time>2026-04-27T14:29:40Z</time></trkpt><trkpt lat="42.353247439180684" lon="13.338221487340281"><ele>640.0</ele><time>2026-04-27T14:29:42Z</time></trkpt><trkpt lat="42.35318422903881" lon="13.338312489685853"><ele>640.0</ele><time>2026-04-27T14:29:43Z</time></trkpt><trkpt lat="42.35317717076367" lon="13.338410224568548"><ele>639.6666666666667</ele><time>2026-04-27T14:29:45Z</time></trkpt><trkpt lat="42.35325858109348" lon="13.338406732262497"><ele>639.3333333333334</ele><time>2026-04-27T14:29:48Z</time></trkpt><trkpt lat="42.35330566314354" lon="13.338346228463756"><ele>639.0</ele><time>2026-04-27T14:29:49Z</time></trkpt><trkpt lat="42.353375822738485" lon="13.338282851398498"><ele>638.6666666666666</ele><time>2026-04-27T14:29:50Z</time></trkpt><trkpt lat="42.35347347677832" lon="13.338262049692911"><ele>638.3333333333333</ele><time>2026-04-27T14:29:51Z</time></trkpt><trkpt lat="42.35356634252355" lon="13.338210540498357"><ele>638.0</ele><time>2026-04-27T14:29:52Z</time></trkpt><trkpt lat="42.35367416910216" lon="13.338375647907968"><ele>638.0</ele><time>2026-04-27T14:29:53Z</time></trkpt><trkpt lat="42.35373655042247" lon="13.338496418592914"><ele>638.0</ele><time>2026-04-27T14:29:54Z</time></trkpt><trkpt lat="42.35379041151983" lon="13.338649765954134"><ele>638.0</ele><time>2026-04-27T14:29:55Z</time></trkpt><trkpt lat="42.35385142524333" lon="13.338817108050048"><ele>638.0</ele><time>2026-04-27T14:29:56Z</time></trkpt><trkpt lat="42.353898747182384" lon="13.33896550262084"><ele>637.0</ele><time>2026-04-27T14:29:57Z</time></trkpt><trkpt lat="42.35391482136381" lon="13.339102649484495"><ele>636.0</ele><time>2026-04-27T14:29:58Z</time></trkpt><trkpt lat="42.35389391244594" lon="13.33924336926142"><ele>635.0</ele><time>2026-04-27T14:29:59Z</time></trkpt><trkpt lat="42.35383946712792" lon="13.33939574455862"><ele>634.0</ele><time>2026-04-27T14:30:00Z</time></trkpt><trkpt lat="42.35375503094749" lon="13.339532341050525"><ele>634.0</ele><time>2026-04-27T14:30:01Z</time></trkpt><trkpt lat="42.353642503789445" lon="13.339648359979675"><ele>634.0</ele><time>2026-04-27T14:30:02Z</time></trkpt><trkpt lat="42.353524423602735" lon="13.339759442866592"><ele>634.0</ele><time>2026-04-27T14:30:03Z</time></trkpt><trkpt lat="42.3534097927678" lon="13.339875974073125"><ele>634.0</ele><time>2026-04-27T14:30:04Z</time></trkpt><trkpt lat="42.35330903548635" lon="13.339999677381394"><ele>633.5</ele><time>2026-04-27T14:30:05Z</time></trkpt><trkpt lat="42.35321635299977" lon="13.340129759802124"><ele>633.0</ele><time>2026-04-27T14:30:06Z</time></trkpt><trkpt lat="42.35313411149577" lon="13.340264036904033"><ele>632.5</ele><time>2026-04-27T14:30:07Z</time></trkpt><trkpt lat="42.35305635539558" lon="13.340408380894544"><ele>632.0</ele><time>2026-04-27T14:30:08Z</time></trkpt><trkpt lat="42.3529818123645" lon="13.34055599115"><ele>631.75</ele><time>2026-04-27T14:30:09Z</time></trkpt><trkpt lat="42.35290343403949" lon="13.340705499020281"><ele>631.5</ele><time>2026-04-27T14:30:10Z</time></trkpt><trkpt lat="42.352827766673904" lon="13.340857707955676"><ele>631.25</ele><time>2026-04-27T14:30:11Z</time></trkpt><trkpt lat="42.35274980704515" lon="13.34101965113755"><ele>631.0</ele><time>2026-04-27T14:30:12Z</time></trkpt><trkpt lat="42.352678208051316" lon="13.341187926727693"><ele>631.0</ele><time>2026-04-27T14:30:13Z</time></trkpt><trkpt lat="42.35261175416116" lon="13.341362497490746"><ele>631.0</ele><time>2026-04-27T14:30:14Z</time></trkpt><trkpt lat="42.35255323056376" lon="13.341544127583546"><ele>631.0</ele><time>2026-04-27T14:30:15Z</time></trkpt><trkpt lat="42.35249987853205" lon="13.341736011706425"><ele>631.0</ele><time>2026-04-27T14:30:16Z</time></trkpt><trkpt lat="42.352452546760794" lon="13.341928174280593"><ele>631.0</ele><time>2026-04-27T14:30:17Z</time></trkpt><trkpt lat="42.35240936034818" lon="13.34212007246542"><ele>631.0</ele><time>2026-04-27T14:30:18Z</time></trkpt><trkpt lat="42.352359741035606" lon="13.342317531226998"><ele>631.0</ele><time>2026-04-27T14:30:19Z</time></trkpt><trkpt lat="42.352308940419704" lon="13.342512674998007"><ele>630.6666666666667</ele><time>2026-04-27T14:30:20Z</time></trkpt><trkpt lat="42.35225999460447" lon="13.34270853810203"><ele>630.3333333333334</ele><time>2026-04-27T14:30:21Z</time></trkpt><trkpt lat="42.35221137571895" lon="13.342906666134684"><ele>630.0</ele><time>2026-04-27T14:30:22Z</time></trkpt><trkpt lat="42.35216071647147" lon="13.343105337834404"><ele>629.6666666666666</ele><time>2026-04-27T14:30:23Z</time></trkpt><trkpt lat="42.35210955064094" lon="13.343311679476981"><ele>629.3333333333333</ele><time>2026-04-27T14:30:24Z</time></trkpt><trkpt lat="42.35206111378266" lon="13.343511251728994"><ele>629.0</ele><time>2026-04-27T14:30:25Z</time></trkpt><trkpt lat="42.352008066126814" lon="13.343718122954845"><ele>629.3333333333333</ele><time>2026-04-27T14:30:26Z</time></trkpt><trkpt lat="42.351956446356944" lon="13.343910495615852"><ele>629.6666666666666</ele><time>2026-04-27T14:30:27Z</time></trkpt><trkpt lat="42.35190584210157" lon="13.344115709745042"><ele>630.0</ele><time>2026-04-27T14:30:28Z</time></trkpt><trkpt lat="42.35185848137855" lon="13.34431044796244"><ele>630.0</ele><time>2026-04-27T14:30:29Z</time></trkpt><trkpt lat="42.35181441620287" lon="13.34451375649174"><ele>630.0</ele><time>2026-04-27T14:30:30Z</time></trkpt><trkpt lat="42.35176740273551" lon="13.34471949343406"><ele>630.0</ele><time>2026-04-27T14:30:31Z</time></trkpt><trkpt lat="42.3517172201276" lon="13.344922482483595"><ele>630.0</ele><time>2026-04-27T14:30:32Z</time></trkpt><trkpt lat="42.3516642907294" lon="13.345114250204462"><ele>630.0</ele><time>2026-04-27T14:30:33Z</time></trkpt><trkpt lat="42.35160884193442" lon="13.345303964208053"><ele>630.0</ele><time>2026-04-27T14:30:34Z</time></trkpt><trkpt lat="42.35155648202602" lon="13.345506306139438"><ele>630.6666666666666</ele><time>2026-04-27T14:30:35Z</time></trkpt><trkpt lat="42.35150665647608" lon="13.345708268756262"><ele>631.3333333333333</ele><time>2026-04-27T14:30:36Z</time></trkpt><trkpt lat="42.3514559189502" lon="13.345913384428728"><ele>632.0</ele><time>2026-04-27T14:30:37Z</time></trkpt><trkpt lat="42.35140372657419" lon="13.346116164751164"><ele>631.3333333333333</ele><time>2026-04-27T14:30:38Z</time></trkpt><trkpt lat="42.35135222813618" lon="13.346315548575364"><ele>630.6666666666666</ele><time>2026-04-27T14:30:39.001Z</time></trkpt><trkpt lat="42.35130050167367" lon="13.346523372008502"><ele>630.0</ele><time>2026-04-27T14:30:40.001Z</time></trkpt><trkpt lat="42.35124881929444" lon="13.346734132249955"><ele>630.0</ele><time>2026-04-27T14:30:41.001Z</time></trkpt><trkpt lat="42.35120417976223" lon="13.346936211922772"><ele>630.0</ele><time>2026-04-27T14:30:42.001Z</time></trkpt><trkpt lat="42.35116601412946" lon="13.34714713794353"><ele>630.0</ele><time>2026-04-27T14:30:43.001Z</time></trkpt><trkpt lat="42.35113482867433" lon="13.347347066949121"><ele>630.0</ele><time>2026-04-27T14:30:44.001Z</time></trkpt><trkpt lat="42.351122466011006" lon="13.34753991266452"><ele>630.0</ele><time>2026-04-27T14:30:45.001Z</time></trkpt><trkpt lat="42.351119060691005" lon="13.34773928037434"><ele>630.0</ele><time>2026-04-27T14:30:46.001Z</time></trkpt><trkpt lat="42.35112240367135" lon="13.347926507797649"><ele>630.0</ele><time>2026-04-27T14:30:47.001Z</time></trkpt><trkpt lat="42.35112006936708" lon="13.348093015236632"><ele>630.0</ele><time>2026-04-27T14:30:48.001Z</time></trkpt><trkpt lat="42.35111512179162" lon="13.34822653962122"><ele>630.0</ele><time>2026-04-27T14:30:49.001Z</time></trkpt><trkpt lat="42.3511104557003" lon="13.348316350010668"><ele>630.0</ele><time>2026-04-27T14:30:50.001Z</time></trkpt><trkpt lat="42.35109928789687" lon="13.348406141146153"><ele>630.0</ele><time>2026-04-27T14:30:52.001Z</time></trkpt><trkpt lat="42.35106935699028" lon="13.348543890428052"><ele>630.0</ele><time>2026-04-27T14:30:56.001Z</time></trkpt><trkpt lat="42.35104694658299" lon="13.34865064708476"><ele>630.0</ele><time>2026-04-27T14:30:58.001Z</time></trkpt><trkpt lat="42.35108097357847" lon="13.34877150053809"><ele>630.0</ele><time>2026-04-27T14:31:00.001Z</time></trkpt><trkpt lat="42.351215905113726" lon="13.34880709762782"><ele>630.0</ele><time>2026-04-27T14:31:02.001Z</time></trkpt><trkpt lat="42.35130134891448" lon="13.348807920296048"><ele>630.0</ele><time>2026-04-27T14:31:03.001Z</time></trkpt><trkpt lat="42.35139947735851" lon="13.348814528874607"><ele>630.0</ele><time>2026-04-27T14:31:04.001Z</time></trkpt><trkpt lat="42.35150985372947" lon="13.348842838829986"><ele>630.0</ele><time>2026-04-27T14:31:05.001Z</time></trkpt><trkpt lat="42.35163288171431" lon="13.348878529971216"><ele>629.25</ele><time>2026-04-27T14:31:06.001Z</time></trkpt><trkpt lat="42.35176281877897" lon="13.348923689645364"><ele>628.5</ele><time>2026-04-27T14:31:07.001Z</time></trkpt><trkpt lat="42.3518898131771" lon="13.348966231430857"><ele>627.75</ele><time>2026-04-27T14:31:08.001Z</time></trkpt><trkpt lat="42.35203646938392" lon="13.34902013510896"><ele>627.0</ele><time>2026-04-27T14:31:09.001Z</time></trkpt><trkpt lat="42.35218108222652" lon="13.349074919002073"><ele>627.0</ele><time>2026-04-27T14:31:10.001Z</time></trkpt><trkpt lat="42.352323250289565" lon="13.34912864013356"><ele>627.0</ele><time>2026-04-27T14:31:11.001Z</time></trkpt><trkpt lat="42.35247624738704" lon="13.34918602207133"><ele>627.0</ele><time>2026-04-27T14:31:12.001Z</time></trkpt><trkpt lat="42.35261523375271" lon="13.349234268632982"><ele>627.0</ele><time>2026-04-27T14:31:13.001Z</time></trkpt><trkpt lat="42.352754298480285" lon="13.349283207782706"><ele>627.0</ele><time>2026-04-27T14:31:14.001Z</time></trkpt><trkpt lat="42.35289888956471" lon="13.349335358335209"><ele>627.0</ele><time>2026-04-27T14:31:15.001Z</time></trkpt><trkpt lat="42.353048448653624" lon="13.349391883363184"><ele>627.0</ele><time>2026-04-27T14:31:16.001Z</time></trkpt><trkpt lat="42.353196939577124" lon="13.349440344267697"><ele>627.6666666666666</ele><time>2026-04-27T14:31:17.001Z</time></trkpt><trkpt lat="42.3533562329509" lon="13.349495697530607"><ele>628.3333333333333</ele><time>2026-04-27T14:31:18.001Z</time></trkpt><trkpt lat="42.3535186063343" lon="13.349546189873944"><ele>629.0</ele><time>2026-04-27T14:31:19.001Z</time></trkpt><trkpt lat="42.35367987495761" lon="13.349587159991177"><ele>629.0</ele><time>2026-04-27T14:31:20.001Z</time></trkpt><trkpt lat="42.353848830382354" lon="13.349610604041246"><ele>629.0</ele><time>2026-04-27T14:31:21.001Z</time></trkpt><trkpt lat="42.35401274630602" lon="13.34963053907259"><ele>629.0</ele><time>2026-04-27T14:31:22.001Z</time></trkpt><trkpt lat="42.35418537533436" lon="13.34963392779295"><ele>629.6666666666666</ele><time>2026-04-27T14:31:23.001Z</time></trkpt><trkpt lat="42.35436020486529" lon="13.34963943606404"><ele>630.3333333333334</ele><time>2026-04-27T14:31:24.001Z</time></trkpt><trkpt lat="42.35453089830638" lon="13.34965770825598"><ele>631.0</ele><time>2026-04-27T14:31:25.001Z</time></trkpt><trkpt lat="42.35471196501739" lon="13.349665990386187"><ele>631.3333333333334</ele><time>2026-04-27T14:31:26.001Z</time></trkpt><trkpt lat="42.354881291148786" lon="13.349685499743842"><ele>631.6666666666666</ele><time>2026-04-27T14:31:27.001Z</time></trkpt><trkpt lat="42.35505839644355" lon="13.349696747979873"><ele>632.0</ele><time>2026-04-27T14:31:28.001Z</time></trkpt><trkpt lat="42.35523172931166" lon="13.349706332643866"><ele>631.6666666666666</ele><time>2026-04-27T14:31:29.001Z</time></trkpt><trkpt lat="42.35539130984495" lon="13.349715998849572"><ele>631.3333333333334</ele><time>2026-04-27T14:31:30.001Z</time></trkpt><trkpt lat="42.35553816241877" lon="13.34973991079926"><ele>631.0</ele><time>2026-04-27T14:31:31.001Z</time></trkpt><trkpt lat="42.35568034713535" lon="13.349754281187664"><ele>630.5</ele><time>2026-04-27T14:31:32.001Z</time></trkpt><trkpt lat="42.35581804658271" lon="13.349766209071907"><ele>630.0</ele><time>2026-04-27T14:31:33Z</time></trkpt><trkpt lat="42.35596501439707" lon="13.349775152087325"><ele>629.5</ele><time>2026-04-27T14:31:34Z</time></trkpt><trkpt lat="42.356096910549596" lon="13.349784643288997"><ele>629.0</ele><time>2026-04-27T14:31:35Z</time></trkpt><trkpt lat="42.356236129465366" lon="13.349794838678442"><ele>629.5</ele><time>2026-04-27T14:31:36Z</time></trkpt><trkpt lat="42.356373016500704" lon="13.349808109471716"><ele>630.0</ele><time>2026-04-27T14:31:37Z</time></trkpt><trkpt lat="42.35649924422857" lon="13.349815348733042"><ele>630.5</ele><time>2026-04-27T14:31:38Z</time></trkpt><trkpt lat="42.35661184970054" lon="13.349831486481147"><ele>631.0</ele><time>2026-04-27T14:31:39Z</time></trkpt><trkpt lat="42.35670679871808" lon="13.349850518558476"><ele>631.0</ele><time>2026-04-27T14:31:40Z</time></trkpt><trkpt lat="42.356789795691355" lon="13.349887111602444"><ele>631.0</ele><time>2026-04-27T14:31:41Z</time></trkpt><trkpt lat="42.356894790305304" lon="13.350055707900747"><ele>631.0</ele><time>2026-04-27T14:31:43Z</time></trkpt><trkpt lat="42.356953089270206" lon="13.350149120118504"><ele>631.0</ele><time>2026-04-27T14:31:44Z</time></trkpt><trkpt lat="42.35702887745473" lon="13.350224359944955"><ele>631.0</ele><time>2026-04-27T14:31:45Z</time></trkpt><trkpt lat="42.35712506476658" lon="13.350269553454433"><ele>631.6</ele><time>2026-04-27T14:31:46Z</time></trkpt><trkpt lat="42.35722933332733" lon="13.350288500191892"><ele>632.2</ele><time>2026-04-27T14:31:47Z</time></trkpt><trkpt lat="42.357328495529934" lon="13.3502956340922"><ele>632.8</ele><time>2026-04-27T14:31:48Z</time></trkpt><trkpt lat="42.35742206724209" lon="13.350306129760545"><ele>633.4</ele><time>2026-04-27T14:31:49Z</time></trkpt><trkpt lat="42.357524315702776" lon="13.350339927379332"><ele>634.0</ele><time>2026-04-27T14:31:50Z</time></trkpt><trkpt lat="42.357618059601485" lon="13.350394563297208"><ele>634.0</ele><time>2026-04-27T14:31:51Z</time></trkpt><trkpt lat="42.35770751852499" lon="13.350478094796225"><ele>634.0</ele><time>2026-04-27T14:31:52Z</time></trkpt><trkpt lat="42.357789997972375" lon="13.350580471239423"><ele>634.0</ele><time>2026-04-27T14:31:53Z</time></trkpt><trkpt lat="42.35787097439812" lon="13.350686316846852"><ele>634.0</ele><time>2026-04-27T14:31:54Z</time></trkpt><trkpt lat="42.35795302225906" lon="13.350801755180544"><ele>632.75</ele><time>2026-04-27T14:31:55Z</time></trkpt><trkpt lat="42.358035331801176" lon="13.350920898076849"><ele>631.5</ele><time>2026-04-27T14:31:56Z</time></trkpt><trkpt lat="42.35812091122924" lon="13.351045632173104"><ele>630.25</ele><time>2026-04-27T14:31:57Z</time></trkpt><trkpt lat="42.35820384091143" lon="13.35117467837097"><ele>629.0</ele><time>2026-04-27T14:31:58Z</time></trkpt><trkpt lat="42.35828007910871" lon="13.351306443298855"><ele>628.75</ele><time>2026-04-27T14:31:59Z</time></trkpt><trkpt lat="42.35834458013921" lon="13.351445128911337"><ele>628.5</ele><time>2026-04-27T14:32:00Z</time></trkpt><trkpt lat="42.35841088769631" lon="13.351577095079541"><ele>628.25</ele><time>2026-04-27T14:32:01Z</time></trkpt><trkpt lat="42.35847559511008" lon="13.35170906988609"><ele>628.0</ele><time>2026-04-27T14:32:02Z</time></trkpt><trkpt lat="42.358535399531824" lon="13.351831672974003"><ele>628.0</ele><time>2026-04-27T14:32:03Z</time></trkpt><trkpt lat="42.35859071011181" lon="13.35194996153938"><ele>628.0</ele><time>2026-04-27T14:32:04Z</time></trkpt><trkpt lat="42.35863670782028" lon="13.352057600691206"><ele>628.0</ele><time>2026-04-27T14:32:05Z</time></trkpt><trkpt lat="42.35867013532982" lon="13.352167457662356"><ele>628.0</ele><time>2026-04-27T14:32:06Z</time></trkpt><trkpt lat="42.35868121565272" lon="13.352286815170787"><ele>628.0</ele><time>2026-04-27T14:32:07Z</time></trkpt><trkpt lat="42.358681541033825" lon="13.352399988042702"><ele>628.0</ele><time>2026-04-27T14:32:08Z</time></trkpt><trkpt lat="42.358688120684064" lon="13.352503666681805"><ele>628.0</ele><time>2026-04-27T14:32:09Z</time></trkpt><trkpt lat="42.358717455878" lon="13.352612265763275"><ele>628.0</ele><time>2026-04-27T14:32:10Z</time></trkpt><trkpt lat="42.358768205473346" lon="13.352708825452828"><ele>628.0</ele><time>2026-04-27T14:32:11Z</time></trkpt><trkpt lat="42.35884184102769" lon="13.35282062611178"><ele>628.0</ele><time>2026-04-27T14:32:12Z</time></trkpt><trkpt lat="42.35890281681209" lon="13.352954486926555"><ele>628.5</ele><time>2026-04-27T14:32:13Z</time></trkpt><trkpt lat="42.35894803588624" lon="13.3531152850385"><ele>629.0</ele><time>2026-04-27T14:32:14Z</time></trkpt><trkpt lat="42.35899559892256" lon="13.353294134570831"><ele>629.5</ele><time>2026-04-27T14:32:15Z</time></trkpt><trkpt lat="42.35904795550056" lon="13.353482802780848"><ele>630.0</ele><time>2026-04-27T14:32:16Z</time></trkpt><trkpt lat="42.35910463098263" lon="13.353680855240551"><ele>629.3333333333334</ele><time>2026-04-27T14:32:17Z</time></trkpt><trkpt lat="42.35916316546427" lon="13.353881438975668"><ele>628.6666666666667</ele><time>2026-04-27T14:32:18Z</time></trkpt><trkpt lat="42.35921997413414" lon="13.35408539391526"><ele>628.0</ele><time>2026-04-27T14:32:19Z</time></trkpt><trkpt lat="42.35927549002654" lon="13.354289629003908"><ele>628.0</ele><time>2026-04-27T14:32:20Z</time></trkpt><trkpt lat="42.359340883726006" lon="13.354526394782729"><ele>628.0</ele><time>2026-04-27T14:32:21Z</time></trkpt><trkpt lat="42.35940623354608" lon="13.354761446394257"><ele>628.0</ele><time>2026-04-27T14:32:22Z</time></trkpt><trkpt lat="42.35947128429218" lon="13.354986770532225"><ele>628.0</ele><time>2026-04-27T14:32:23Z</time></trkpt><trkpt lat="42.359535468136976" lon="13.3552239823321"><ele>628.0</ele><time>2026-04-27T14:32:24Z</time></trkpt><trkpt lat="42.359598823188016" lon="13.355463689456133"><ele>628.0</ele><time>2026-04-27T14:32:25Z</time></trkpt><trkpt lat="42.35966243339925" lon="13.355689004339476"><ele>627.3333333333334</ele><time>2026-04-27T14:32:26Z</time></trkpt><trkpt lat="42.35971931143173" lon="13.355909390716143"><ele>626.6666666666666</ele><time>2026-04-27T14:32:27Z</time></trkpt><trkpt lat="42.35977579528206" lon="13.356127324598388"><ele>626.0</ele><time>2026-04-27T14:32:28Z</time></trkpt><trkpt lat="42.35983004832979" lon="13.356342522186287"><ele>626.0</ele><time>2026-04-27T14:32:29Z</time></trkpt><trkpt lat="42.35987849451983" lon="13.3565585953138"><ele>626.0</ele><time>2026-04-27T14:32:30Z</time></trkpt><trkpt lat="42.359926023020115" lon="13.356760421119185"><ele>626.0</ele><time>2026-04-27T14:32:31Z</time></trkpt><trkpt lat="42.3599680759504" lon="13.356957932657384"><ele>626.0</ele><time>2026-04-27T14:32:32Z</time></trkpt><trkpt lat="42.36001178874083" lon="13.35716536571675"><ele>626.0</ele><time>2026-04-27T14:32:33Z</time></trkpt><trkpt lat="42.360024784605194" lon="13.357399171644234"><ele>626.0</ele><time>2026-04-27T14:32:34.001Z</time></trkpt><trkpt lat="42.360016659311746" lon="13.357613160975236"><ele>626.0</ele><time>2026-04-27T14:32:35.001Z</time></trkpt><trkpt lat="42.359999505818344" lon="13.357836264561039"><ele>626.0</ele><time>2026-04-27T14:32:36.001Z</time></trkpt><trkpt lat="42.35998178107337" lon="13.358035179019128"><ele>626.0</ele><time>2026-04-27T14:32:37.001Z</time></trkpt><trkpt lat="42.359964865418135" lon="13.35823716852108"><ele>626.0</ele><time>2026-04-27T14:32:38.001Z</time></trkpt><trkpt lat="42.35993359494817" lon="13.35844669707434"><ele>626.0</ele><time>2026-04-27T14:32:39.001Z</time></trkpt><trkpt lat="42.359888240215156" lon="13.358659630959124"><ele>626.0</ele><time>2026-04-27T14:32:40.001Z</time></trkpt><trkpt lat="42.35983048130608" lon="13.358867142654764"><ele>625.3333333333333</ele><time>2026-04-27T14:32:41.001Z</time></trkpt><trkpt lat="42.35977038792634" lon="13.359062536851594"><ele>624.6666666666666</ele><time>2026-04-27T14:32:42.001Z</time></trkpt><trkpt lat="42.359708955165786" lon="13.359272192357414"><ele>624.0</ele><time>2026-04-27T14:32:43.001Z</time></trkpt><trkpt lat="42.359646587597716" lon="13.35947905270089"><ele>624.0</ele><time>2026-04-27T14:32:44.001Z</time></trkpt><trkpt lat="42.359589991999734" lon="13.35968350171315"><ele>624.0</ele><time>2026-04-27T14:32:45.001Z</time></trkpt><trkpt lat="42.35953207373709" lon="13.359883698042923"><ele>624.0</ele><time>2026-04-27T14:32:46.001Z</time></trkpt><trkpt lat="42.35948344304434" lon="13.36006565336196"><ele>624.75</ele><time>2026-04-27T14:32:47.001Z</time></trkpt><trkpt lat="42.35943388985974" lon="13.360243328735743"><ele>625.5</ele><time>2026-04-27T14:32:48.001Z</time></trkpt><trkpt lat="42.359392676706165" lon="13.36040836372373"><ele>626.25</ele><time>2026-04-27T14:32:49.001Z</time></trkpt><trkpt lat="42.35935052751762" lon="13.36056160197946"><ele>627.0</ele><time>2026-04-27T14:32:50.001Z</time></trkpt><trkpt lat="42.35930528682294" lon="13.360719444826893"><ele>627.25</ele><time>2026-04-27T14:32:51.001Z</time></trkpt><trkpt lat="42.359262133241444" lon="13.360875035730656"><ele>627.5</ele><time>2026-04-27T14:32:52.001Z</time></trkpt><trkpt lat="42.359217154443535" lon="13.36102866926412"><ele>627.75</ele><time>2026-04-27T14:32:53.001Z</time></trkpt><trkpt lat="42.35917745180355" lon="13.361173573440068"><ele>628.0</ele><time>2026-04-27T14:32:54.001Z</time></trkpt><trkpt lat="42.35913935212256" lon="13.361305264473105"><ele>629.1999999999999</ele><time>2026-04-27T14:32:55.001Z</time></trkpt><trkpt lat="42.359105294297656" lon="13.361429295665456"><ele>630.4</ele><time>2026-04-27T14:32:56.001Z</time></trkpt><trkpt lat="42.35906963826223" lon="13.361557005988224"><ele>631.5999999999999</ele><time>2026-04-27T14:32:57.001Z</time></trkpt><trkpt lat="42.35903209886802" lon="13.361696707020018"><ele>632.8</ele><time>2026-04-27T14:32:58.002Z</time></trkpt><trkpt lat="42.35898628311401" lon="13.361859239009137"><ele>634.0</ele><time>2026-04-27T14:32:59.002Z</time></trkpt><trkpt lat="42.35893918944776" lon="13.362022716331598"><ele>634.0</ele><time>2026-04-27T14:33:00.002Z</time></trkpt><trkpt lat="42.35888979497164" lon="13.362181057568206"><ele>634.0</ele><time>2026-04-27T14:33:01.002Z</time></trkpt><trkpt lat="42.35884892153025" lon="13.362317685570886"><ele>634.0</ele><time>2026-04-27T14:33:02.002Z</time></trkpt><trkpt lat="42.358805051999916" lon="13.362455175898376"><ele>634.0</ele><time>2026-04-27T14:33:03.002Z</time></trkpt><trkpt lat="42.35876708096885" lon="13.362569692550581"><ele>634.0</ele><time>2026-04-27T14:33:04.002Z</time></trkpt><trkpt lat="42.35873528646769" lon="13.362665705218962"><ele>633.0</ele><time>2026-04-27T14:33:05.002Z</time></trkpt><trkpt lat="42.358706109123965" lon="13.362757532884673"><ele>632.0</ele><time>2026-04-27T14:33:06.002Z</time></trkpt><trkpt lat="42.358676684153515" lon="13.362852716647849"><ele>631.0</ele><time>2026-04-27T14:33:07.002Z</time></trkpt><trkpt lat="42.35864585172886" lon="13.362949018882167"><ele>630.0</ele><time>2026-04-27T14:33:08.002Z</time></trkpt><trkpt lat="42.35861332819751" lon="13.363051967397288"><ele>629.0</ele><time>2026-04-27T14:33:09.002Z</time></trkpt><trkpt lat="42.35857871860009" lon="13.3631577345574"><ele>628.0</ele><time>2026-04-27T14:33:10.002Z</time></trkpt><trkpt lat="42.35854494954068" lon="13.363260659528814"><ele>628.0</ele><time>2026-04-27T14:33:11.002Z</time></trkpt><trkpt lat="42.3585148209995" lon="13.363360982165128"><ele>628.0</ele><time>2026-04-27T14:33:12.002Z</time></trkpt><trkpt lat="42.35848437178529" lon="13.363463003499675"><ele>628.0</ele><time>2026-04-27T14:33:13.002Z</time></trkpt><trkpt lat="42.35845710452767" lon="13.363553420935139"><ele>628.0</ele><time>2026-04-27T14:33:14.002Z</time></trkpt><trkpt lat="42.358428159254196" lon="13.363653382682953"><ele>628.0</ele><time>2026-04-27T14:33:15.002Z</time></trkpt><trkpt lat="42.358396307562394" lon="13.363764114446479"><ele>628.0</ele><time>2026-04-27T14:33:16.002Z</time></trkpt><trkpt lat="42.35836677135978" lon="13.363875290547936"><ele>628.4</ele><time>2026-04-27T14:33:17.002Z</time></trkpt><trkpt lat="42.35834135268015" lon="13.363976875152641"><ele>628.8</ele><time>2026-04-27T14:33:18.002Z</time></trkpt><trkpt lat="42.35831907329619" lon="13.364072790072814"><ele>629.2</ele><time>2026-04-27T14:33:19.002Z</time></trkpt><trkpt lat="42.35828705186115" lon="13.364225581890752"><ele>629.6</ele><time>2026-04-27T14:33:21.002Z</time></trkpt><trkpt lat="42.358253388759174" lon="13.364386791099815"><ele>630.0</ele><time>2026-04-27T14:33:23.002Z</time></trkpt><trkpt lat="42.358236651577016" lon="13.36447322510994"><ele>630.0</ele><time>2026-04-27T14:33:24.002Z</time></trkpt><trkpt lat="42.35821290204665" lon="13.364594507383156"><ele>630.0</ele><time>2026-04-27T14:33:26.002Z</time></trkpt><trkpt lat="42.358196303318735" lon="13.364715153940415"><ele>630.0</ele><time>2026-04-27T14:33:28.002Z</time></trkpt><trkpt lat="42.358183328603104" lon="13.364842940455336"><ele>630.0</ele><time>2026-04-27T14:33:30.002Z</time></trkpt><trkpt lat="42.35816869568838" lon="13.365008619747664"><ele>630.0</ele><time>2026-04-27T14:33:32.002Z</time></trkpt><trkpt lat="42.35815981591776" lon="13.365167770126007"><ele>629.8333333333334</ele><time>2026-04-27T14:33:34.002Z</time></trkpt><trkpt lat="42.35815720927844" lon="13.365281061730771"><ele>629.6666666666666</ele><time>2026-04-27T14:33:36.002Z</time></trkpt><trkpt lat="42.35815837023376" lon="13.365377805868723"><ele>629.5</ele><time>2026-04-27T14:33:38.002Z</time></trkpt><trkpt lat="42.358162732684235" lon="13.365492439719969"><ele>629.3333333333333</ele><time>2026-04-27T14:33:40.001Z</time></trkpt><trkpt lat="42.35817419428639" lon="13.365638727414607"><ele>629.1666666666666</ele><time>2026-04-27T14:33:42.001Z</time></trkpt><trkpt lat="42.3581896679572" lon="13.36576953526258"><ele>629.0</ele><time>2026-04-27T14:33:44.001Z</time></trkpt><trkpt lat="42.35822011659671" lon="13.365929785619329"><ele>628.8333333333333</ele><time>2026-04-27T14:33:46.001Z</time></trkpt><trkpt lat="42.35824235521769" lon="13.366018409834117"><ele>628.6666666666666</ele><time>2026-04-27T14:33:47.001Z</time></trkpt><trkpt lat="42.35826901489529" lon="13.366112704460088"><ele>628.5</ele><time>2026-04-27T14:33:48.001Z</time></trkpt><trkpt lat="42.35830117386689" lon="13.366213550537026"><ele>628.3333333333334</ele><time>2026-04-27T14:33:49.001Z</time></trkpt><trkpt lat="42.3583378203621" lon="13.366314659360574"><ele>628.1666666666667</ele><time>2026-04-27T14:33:50.001Z</time></trkpt><trkpt lat="42.358379374702956" lon="13.366420237152639"><ele>628.0</ele><time>2026-04-27T14:33:51.001Z</time></trkpt><trkpt lat="42.35842077817401" lon="13.366515758638217"><ele>628.0</ele><time>2026-04-27T14:33:52.001Z</time></trkpt><trkpt lat="42.358465211035536" lon="13.366609057613418"><ele>628.0</ele><time>2026-04-27T14:33:53.001Z</time></trkpt><trkpt lat="42.358513410465434" lon="13.366710667885389"><ele>628.0</ele><time>2026-04-27T14:33:54.001Z</time></trkpt><trkpt lat="42.35856401537571" lon="13.366818768951422"><ele>628.0</ele><time>2026-04-27T14:33:55.001Z</time></trkpt><trkpt lat="42.3586105719583" lon="13.366920030469887"><ele>628.0</ele><time>2026-04-27T14:33:56.001Z</time></trkpt><trkpt lat="42.35865126928257" lon="13.367011213308118"><ele>628.0</ele><time>2026-04-27T14:33:57.001Z</time></trkpt><trkpt lat="42.35869221119748" lon="13.367107651796852"><ele>628.1666666666667</ele><time>2026-04-27T14:33:58.001Z</time></trkpt><trkpt lat="42.358728638694956" lon="13.367201191659854"><ele>628.3333333333334</ele><time>2026-04-27T14:33:59.001Z</time></trkpt><trkpt lat="42.35876096533219" lon="13.367288898982073"><ele>628.5</ele><time>2026-04-27T14:34:00.001Z</time></trkpt><trkpt lat="42.35879344893134" lon="13.36737665633339"><ele>628.6666666666666</ele><time>2026-04-27T14:34:01.001Z</time></trkpt><trkpt lat="42.358826339368825" lon="13.367462121424463"><ele>628.8333333333333</ele><time>2026-04-27T14:34:02.001Z</time></trkpt><trkpt lat="42.35886332790883" lon="13.36755333688314"><ele>629.0</ele><time>2026-04-27T14:34:03.001Z</time></trkpt><trkpt lat="42.35890620035293" lon="13.367666894989119"><ele>629.0</ele><time>2026-04-27T14:34:05.001Z</time></trkpt><trkpt lat="42.3589347769603" lon="13.367763797775902"><ele>629.0</ele><time>2026-04-27T14:34:10.001Z</time></trkpt><trkpt lat="42.358956648223035" lon="13.36787690169455"><ele>629.0</ele><time>2026-04-27T14:34:12.001Z</time></trkpt><trkpt lat="42.35897161986715" lon="13.367974788356737"><ele>629.0</ele><time>2026-04-27T14:34:13.001Z</time></trkpt><trkpt lat="42.35899594160612" lon="13.368089355570712"><ele>629.0</ele><time>2026-04-27T14:34:14.001Z</time></trkpt><trkpt lat="42.35902893151214" lon="13.368203382575775"><ele>629.0</ele><time>2026-04-27T14:34:15.001Z</time></trkpt><trkpt lat="42.359069508671546" lon="13.368327113497097"><ele>629.0</ele><time>2026-04-27T14:34:16.001Z</time></trkpt><trkpt lat="42.35909974058483" lon="13.368469098847806"><ele>629.0</ele><time>2026-04-27T14:34:17.001Z</time></trkpt><trkpt lat="42.35912550647807" lon="13.368627986775282"><ele>629.0</ele><time>2026-04-27T14:34:18.001Z</time></trkpt><trkpt lat="42.35915080663423" lon="13.368795612252455"><ele>629.0</ele><time>2026-04-27T14:34:19.001Z</time></trkpt><trkpt lat="42.35917802921999" lon="13.368961210719114"><ele>629.2</ele><time>2026-04-27T14:34:20.001Z</time></trkpt><trkpt lat="42.35920235550704" lon="13.369130043391538"><ele>629.4</ele><time>2026-04-27T14:34:21.001Z</time></trkpt><trkpt lat="42.35922371580702" lon="13.36927675502779"><ele>629.6</ele><time>2026-04-27T14:34:22.001Z</time></trkpt><trkpt lat="42.35924382198039" lon="13.36940981780336"><ele>629.8</ele><time>2026-04-27T14:34:23.001Z</time></trkpt><trkpt lat="42.35926260308336" lon="13.369525084310718"><ele>630.0</ele><time>2026-04-27T14:34:24.001Z</time></trkpt><trkpt lat="42.35927807233346" lon="13.369629815412493"><ele>630.4</ele><time>2026-04-27T14:34:25.001Z</time></trkpt><trkpt lat="42.35929516487574" lon="13.36974734708061"><ele>630.8</ele><time>2026-04-27T14:34:26.001Z</time></trkpt><trkpt lat="42.35931272016517" lon="13.369868263861505"><ele>631.2</ele><time>2026-04-27T14:34:27.001Z</time></trkpt><trkpt lat="42.35933271273378" lon="13.369997168030968"><ele>631.6</ele><time>2026-04-27T14:34:28.001Z</time></trkpt><trkpt lat="42.3593549856413" lon="13.370130807092046"><ele>632.0</ele><time>2026-04-27T14:34:29.001Z</time></trkpt><trkpt lat="42.359376914243846" lon="13.370259326431285"><ele>632.0</ele><time>2026-04-27T14:34:30.001Z</time></trkpt><trkpt lat="42.359398676819254" lon="13.370386881328631"><ele>632.0</ele><time>2026-04-27T14:34:31.001Z</time></trkpt><trkpt lat="42.359417220501946" lon="13.370505732699343"><ele>632.0</ele><time>2026-04-27T14:34:32.001Z</time></trkpt><trkpt lat="42.35943176963227" lon="13.370612847479846"><ele>632.0</ele><time>2026-04-27T14:34:33.001Z</time></trkpt><trkpt lat="42.359446428751696" lon="13.37072381668989"><ele>632.0</ele><time>2026-04-27T14:34:34.001Z</time></trkpt><trkpt lat="42.359461041982414" lon="13.370836002377619"><ele>632.0</ele><time>2026-04-27T14:34:35.001Z</time></trkpt><trkpt lat="42.3594777194626" lon="13.370960689530156"><ele>632.8333333333333</ele><time>2026-04-27T14:34:36.001Z</time></trkpt><trkpt lat="42.35949624348282" lon="13.371085878745047"><ele>633.6666666666666</ele><time>2026-04-27T14:34:37.001Z</time></trkpt><trkpt lat="42.35951503823422" lon="13.371209162212608"><ele>634.5</ele><time>2026-04-27T14:34:38.001Z</time></trkpt><trkpt lat="42.35953326452869" lon="13.371325916250894"><ele>635.3333333333334</ele><time>2026-04-27T14:34:39.001Z</time></trkpt><trkpt lat="42.35954760585257" lon="13.371432939704237"><ele>636.1666666666667</ele><time>2026-04-27T14:34:40.001Z</time></trkpt><trkpt lat="42.35955919486971" lon="13.37154010154774"><ele>637.0</ele><time>2026-04-27T14:34:41.001Z</time></trkpt><trkpt lat="42.359568611791026" lon="13.37164646067272"><ele>637.2</ele><time>2026-04-27T14:34:42.001Z</time></trkpt><trkpt lat="42.35957718234824" lon="13.371750186016193"><ele>637.4000000000001</ele><time>2026-04-27T14:34:43.001Z</time></trkpt><trkpt lat="42.3596196179749" lon="13.371934730192274"><ele>637.5999999999999</ele><time>2026-04-27T14:34:44.001Z</time></trkpt><trkpt lat="42.35963570839312" lon="13.372058784131923"><ele>637.8</ele><time>2026-04-27T14:34:45.001Z</time></trkpt><trkpt lat="42.35965425413163" lon="13.37219711116372"><ele>638.0</ele><time>2026-04-27T14:34:46.001Z</time></trkpt><trkpt lat="42.35967562904115" lon="13.372335153600952"><ele>638.5</ele><time>2026-04-27T14:34:47.001Z</time></trkpt><trkpt lat="42.35970205137164" lon="13.372458702284337"><ele>639.0</ele><time>2026-04-27T14:34:48.002Z</time></trkpt><trkpt lat="42.35972534980339" lon="13.372585745637506"><ele>639.5</ele><time>2026-04-27T14:34:49.002Z</time></trkpt><trkpt lat="42.359741967444215" lon="13.37270841281369"><ele>640.0</ele><time>2026-04-27T14:34:50.002Z</time></trkpt><trkpt lat="42.35975886757004" lon="13.372810463938219"><ele>640.5</ele><time>2026-04-27T14:34:51.002Z</time></trkpt><trkpt lat="42.35977153898692" lon="13.372894044311494"><ele>641.0</ele><time>2026-04-27T14:34:52.002Z</time></trkpt><trkpt lat="42.35978423798125" lon="13.372981679680157"><ele>641.5</ele><time>2026-04-27T14:34:53.002Z</time></trkpt><trkpt lat="42.35980108522109" lon="13.373082751238258"><ele>642.0</ele><time>2026-04-27T14:34:54.002Z</time></trkpt><trkpt lat="42.35981779428648" lon="13.373192954786223"><ele>642.5</ele><time>2026-04-27T14:34:55.002Z</time></trkpt><trkpt lat="42.35985125326438" lon="13.373304925488155"><ele>643.0</ele><time>2026-04-27T14:34:56.002Z</time></trkpt><trkpt lat="42.359874357117526" lon="13.373436100969352"><ele>643.5</ele><time>2026-04-27T14:34:57.002Z</time></trkpt><trkpt lat="42.359895117042285" lon="13.373560511420319"><ele>644.0</ele><time>2026-04-27T14:34:58.002Z</time></trkpt><trkpt lat="42.35991264026161" lon="13.373670933813244"><ele>644.0</ele><time>2026-04-27T14:34:59.002Z</time></trkpt><trkpt lat="42.3599182709949" lon="13.37378472095383"><ele>644.0</ele><time>2026-04-27T14:35:00.002Z</time></trkpt><trkpt lat="42.359935872179285" lon="13.37389081324572"><ele>644.0</ele><time>2026-04-27T14:35:01.002Z</time></trkpt><trkpt lat="42.3599505746205" lon="13.374002807535955"><ele>644.0</ele><time>2026-04-27T14:35:02.002Z</time></trkpt><trkpt lat="42.359965673512455" lon="13.374122686223703"><ele>644.0</ele><time>2026-04-27T14:35:03.002Z</time></trkpt><trkpt lat="42.35998536453223" lon="13.374224966691639"><ele>644.0</ele><time>2026-04-27T14:35:04.002Z</time></trkpt><trkpt lat="42.36002905670241" lon="13.37429033149619"><ele>644.1666666666666</ele><time>2026-04-27T14:35:05.002Z</time></trkpt><trkpt lat="42.360142432064265" lon="13.374176219949005"><ele>644.3333333333333</ele><time>2026-04-27T14:35:08.002Z</time></trkpt><trkpt lat="42.36011251688544" lon="13.37408445175676"><ele>644.5</ele><time>2026-04-27T14:35:10.002Z</time></trkpt><trkpt lat="42.36008433449561" lon="13.373985873136293"><ele>644.6666666666666</ele><time>2026-04-27T14:35:13.002Z</time></trkpt><trkpt lat="42.360123766664955" lon="13.37391928592348"><ele>644.8333333333334</ele><time>2026-04-27T14:41:21.002Z</time></trkpt><trkpt lat="42.36016984546316" lon="13.373858480328066"><ele>645.0</ele><time>2026-04-27T14:41:26.002Z</time></trkpt><trkpt lat="42.36011202477714" lon="13.373904485379905"><ele>645.0</ele><time>2026-04-27T14:43:25.001Z</time></trkpt><trkpt lat="42.359999083762794" lon="13.374055304919585"><ele>645.0</ele><time>2026-04-27T14:48:18Z</time></trkpt><trkpt lat="42.36001722419646" lon="13.374156004052809"><ele>645.0</ele><time>2026-04-27T14:48:19Z</time></trkpt><trkpt lat="42.36003032232319" lon="13.374252101492473"><ele>645.0</ele><time>2026-04-27T14:48:20Z</time></trkpt><trkpt lat="42.36004193318616" lon="13.374366563423152"><ele>645.0</ele><time>2026-04-27T14:48:21.001Z</time></trkpt><trkpt lat="42.3600570263193" lon="13.374492577088056"><ele>645.0</ele><time>2026-04-27T14:48:22.001Z</time></trkpt><trkpt lat="42.36007067104935" lon="13.374616621980733"><ele>645.0</ele><time>2026-04-27T14:48:23.001Z</time></trkpt><trkpt lat="42.36008232043589" lon="13.374718222698545"><ele>645.0</ele><time>2026-04-27T14:48:24.001Z</time></trkpt><trkpt lat="42.36009358766921" lon="13.37481841878094"><ele>645.0</ele><time>2026-04-27T14:48:25.001Z</time></trkpt><trkpt lat="42.36009974648486" lon="13.374932671709951"><ele>645.0</ele><time>2026-04-27T14:48:26.001Z</time></trkpt><trkpt lat="42.3601109227487" lon="13.375047860174732"><ele>645.0</ele><time>2026-04-27T14:48:27.001Z</time></trkpt><trkpt lat="42.360121270408925" lon="13.375176602958426"><ele>645.2</ele><time>2026-04-27T14:48:28.001Z</time></trkpt><trkpt lat="42.36014673793655" lon="13.375303280896546"><ele>645.4</ele><time>2026-04-27T14:48:29.001Z</time></trkpt><trkpt lat="42.360164091774834" lon="13.375423916640335"><ele>645.5999999999999</ele><time>2026-04-27T14:48:30.001Z</time></trkpt><trkpt lat="42.36018302268621" lon="13.375555515559036"><ele>645.8</ele><time>2026-04-27T14:48:31.001Z</time></trkpt><trkpt lat="42.36020149872847" lon="13.375683952329807"><ele>646.0</ele><time>2026-04-27T14:48:32.001Z</time></trkpt><trkpt lat="42.360220394440695" lon="13.375816506863739"><ele>646.3333333333334</ele><time>2026-04-27T14:48:33.001Z</time></trkpt><trkpt lat="42.36023445534372" lon="13.37591531683419"><ele>646.6666666666667</ele><time>2026-04-27T14:48:34.001Z</time></trkpt><trkpt lat="42.36024671302733" lon="13.376001455186236"><ele>647.0</ele><time>2026-04-27T14:48:35.001Z</time></trkpt><trkpt lat="42.3602669908431" lon="13.376143953082934"><ele>647.3333333333334</ele><time>2026-04-27T14:48:37.001Z</time></trkpt><trkpt lat="42.3602795237392" lon="13.376232908145461"><ele>647.6666666666666</ele><time>2026-04-27T14:48:38.001Z</time></trkpt><trkpt lat="42.36029214250709" lon="13.376328143036387"><ele>648.0</ele><time>2026-04-27T14:48:39.001Z</time></trkpt><trkpt lat="42.360305912433596" lon="13.376432065884254"><ele>648.3333333333334</ele><time>2026-04-27T14:48:40.001Z</time></trkpt><trkpt lat="42.36031979102634" lon="13.376536808723452"><ele>648.6666666666666</ele><time>2026-04-27T14:48:41.001Z</time></trkpt><trkpt lat="42.360332936012014" lon="13.376645978734812"><ele>649.0</ele><time>2026-04-27T14:48:42.001Z</time></trkpt><trkpt lat="42.36034457709263" lon="13.376744821198898"><ele>649.3333333333333</ele><time>2026-04-27T14:48:43.001Z</time></trkpt><trkpt lat="42.36035499241842" lon="13.376858050093947"><ele>649.6666666666666</ele><time>2026-04-27T14:48:44.001Z</time></trkpt><trkpt lat="42.36036543373259" lon="13.376972238563633"><ele>650.0</ele><time>2026-04-27T14:48:45.001Z</time></trkpt><trkpt lat="42.360373485973135" lon="13.377082939917678"><ele>650.0</ele><time>2026-04-27T14:48:46.001Z</time></trkpt><trkpt lat="42.36037916059089" lon="13.377173308802098"><ele>650.0</ele><time>2026-04-27T14:48:47.001Z</time></trkpt><trkpt lat="42.36038599890741" lon="13.377327268275442"><ele>650.0</ele><time>2026-04-27T14:48:49.001Z</time></trkpt><trkpt lat="42.36035327335299" lon="13.377465308644064"><ele>650.0</ele><time>2026-04-27T14:48:51.001Z</time></trkpt><trkpt lat="42.360357168909715" lon="13.377615745192285"><ele>650.0</ele><time>2026-04-27T14:48:53.001Z</time></trkpt><trkpt lat="42.360357900449415" lon="13.377714874028575"><ele>650.0</ele><time>2026-04-27T14:48:54.001Z</time></trkpt><trkpt lat="42.36035481567155" lon="13.377825802106566"><ele>650.0</ele><time>2026-04-27T14:48:55.001Z</time></trkpt><trkpt lat="42.3603496446457" lon="13.377958779545358"><ele>650.0</ele><time>2026-04-27T14:48:56.001Z</time></trkpt><trkpt lat="42.36036302861777" lon="13.378075003419323"><ele>650.0</ele><time>2026-04-27T14:48:57.001Z</time></trkpt><trkpt lat="42.36032898111762" lon="13.378189425294329"><ele>650.0</ele><time>2026-04-27T14:48:58.001Z</time></trkpt><trkpt lat="42.36031477347179" lon="13.378303976172196"><ele>650.0</ele><time>2026-04-27T14:48:59.001Z</time></trkpt><trkpt lat="42.36029436048259" lon="13.3784341530998"><ele>650.2</ele><time>2026-04-27T14:49:00.001Z</time></trkpt><trkpt lat="42.36029381936562" lon="13.378558809741296"><ele>650.4</ele><time>2026-04-27T14:49:01.001Z</time></trkpt><trkpt lat="42.36027339089156" lon="13.378685185053188"><ele>650.5999999999999</ele><time>2026-04-27T14:49:02.001Z</time></trkpt><trkpt lat="42.36025052299521" lon="13.378793715639686"><ele>650.8</ele><time>2026-04-27T14:49:03.001Z</time></trkpt><trkpt lat="42.360229289030514" lon="13.378881477007571"><ele>651.0</ele><time>2026-04-27T14:49:04.001Z</time></trkpt><trkpt lat="42.36018924980854" lon="13.379029630189562"><ele>651.1999999999999</ele><time>2026-04-27T14:49:06.001Z</time></trkpt><trkpt lat="42.36015271022527" lon="13.379154984203725"><ele>651.4</ele><time>2026-04-27T14:49:08Z</time></trkpt><trkpt lat="42.36006216916557" lon="13.379270308999113"><ele>651.6</ele><time>2026-04-27T14:49:10Z</time></trkpt><trkpt lat="42.36003656282978" lon="13.379348892594733"><ele>651.8</ele><time>2026-04-27T14:49:11Z</time></trkpt><trkpt lat="42.35998692464564" lon="13.379471242394384"><ele>652.0</ele><time>2026-04-27T14:49:13Z</time></trkpt><trkpt lat="42.35990195353884" lon="13.37959300354633"><ele>651.8333333333334</ele><time>2026-04-27T14:49:15Z</time></trkpt><trkpt lat="42.35985034948491" lon="13.37973451483238"><ele>651.6666666666667</ele><time>2026-04-27T14:49:17Z</time></trkpt><trkpt lat="42.359844541875844" lon="13.379820270137984"><ele>651.5</ele><time>2026-04-27T14:49:18Z</time></trkpt><trkpt lat="42.35983794057589" lon="13.379968495752305"><ele>651.3333333333334</ele><time>2026-04-27T14:49:20Z</time></trkpt><trkpt lat="42.35983443853485" lon="13.38006085758566"><ele>651.1666666666666</ele><time>2026-04-27T14:49:21Z</time></trkpt><trkpt lat="42.35981499951157" lon="13.38016224603873"><ele>651.0</ele><time>2026-04-27T14:49:22Z</time></trkpt><trkpt lat="42.359781204546536" lon="13.380263865224451"><ele>651.0</ele><time>2026-04-27T14:49:23Z</time></trkpt><trkpt lat="42.35972988095138" lon="13.380389497032128"><ele>651.0</ele><time>2026-04-27T14:49:24Z</time></trkpt><trkpt lat="42.359686894982914" lon="13.380513791710431"><ele>651.0</ele><time>2026-04-27T14:49:25Z</time></trkpt><trkpt lat="42.3596308949244" lon="13.380661961344714"><ele>651.0</ele><time>2026-04-27T14:49:26Z</time></trkpt><trkpt lat="42.359571561930736" lon="13.380804619391023"><ele>650.75</ele><time>2026-04-27T14:49:27Z</time></trkpt><trkpt lat="42.359505467465006" lon="13.380953935338287"><ele>650.5</ele><time>2026-04-27T14:49:28Z</time></trkpt><trkpt lat="42.359438568378664" lon="13.381093280864944"><ele>650.25</ele><time>2026-04-27T14:49:29Z</time></trkpt><trkpt lat="42.35937726106523" lon="13.381217050578229"><ele>650.0</ele><time>2026-04-27T14:49:30Z</time></trkpt><trkpt lat="42.3593252799472" lon="13.381330814153547"><ele>649.75</ele><time>2026-04-27T14:49:31Z</time></trkpt><trkpt lat="42.35927507686094" lon="13.38143645918199"><ele>649.5</ele><time>2026-04-27T14:49:32Z</time></trkpt><trkpt lat="42.359226416326365" lon="13.381539979943827"><ele>649.25</ele><time>2026-04-27T14:49:33Z</time></trkpt><trkpt lat="42.359178680835825" lon="13.381645747134744"><ele>649.0</ele><time>2026-04-27T14:49:34Z</time></trkpt><trkpt lat="42.359076106995005" lon="13.381873552103574"><ele>649.0</ele><time>2026-04-27T14:49:36Z</time></trkpt><trkpt lat="42.359020086514526" lon="13.382002678006916"><ele>649.0</ele><time>2026-04-27T14:49:37Z</time></trkpt><trkpt lat="42.35895634030391" lon="13.382153992438667"><ele>649.0</ele><time>2026-04-27T14:49:38Z</time></trkpt><trkpt lat="42.35888318282727" lon="13.382325056927172"><ele>649.0</ele><time>2026-04-27T14:49:39Z</time></trkpt><trkpt lat="42.358802660376774" lon="13.382498713824575"><ele>649.0</ele><time>2026-04-27T14:49:40Z</time></trkpt><trkpt lat="42.35872712961834" lon="13.382650936880747"><ele>649.0</ele><time>2026-04-27T14:49:41Z</time></trkpt><trkpt lat="42.35865621242116" lon="13.38279429053025"><ele>649.0</ele><time>2026-04-27T14:49:42Z</time></trkpt><trkpt lat="42.35858847207614" lon="13.382932248018562"><ele>649.0</ele><time>2026-04-27T14:49:43Z</time></trkpt><trkpt lat="42.358517235097445" lon="13.38307665471043"><ele>649.0</ele><time>2026-04-27T14:49:44Z</time></trkpt><trkpt lat="42.358441005674734" lon="13.383232131025917"><ele>649.0</ele><time>2026-04-27T14:49:45Z</time></trkpt><trkpt lat="42.358367337628046" lon="13.38339609919392"><ele>649.0</ele><time>2026-04-27T14:49:46Z</time></trkpt><trkpt lat="42.35829047115581" lon="13.383567773401582"><ele>649.0</ele><time>2026-04-27T14:49:47Z</time></trkpt><trkpt lat="42.35821583832933" lon="13.383737854354125"><ele>649.25</ele><time>2026-04-27T14:49:48Z</time></trkpt><trkpt lat="42.358139413798284" lon="13.383909014320304"><ele>649.5</ele><time>2026-04-27T14:49:49Z</time></trkpt><trkpt lat="42.35806586942686" lon="13.384074598181597"><ele>649.75</ele><time>2026-04-27T14:49:50Z</time></trkpt><trkpt lat="42.35799429072724" lon="13.384235136950219"><ele>650.0</ele><time>2026-04-27T14:49:51Z</time></trkpt><trkpt lat="42.357929259980516" lon="13.384400759494854"><ele>649.75</ele><time>2026-04-27T14:49:52Z</time></trkpt><trkpt lat="42.357878959693224" lon="13.384559367787723"><ele>649.5</ele><time>2026-04-27T14:49:53Z</time></trkpt><trkpt lat="42.35783359470237" lon="13.384725736301437"><ele>649.25</ele><time>2026-04-27T14:49:54Z</time></trkpt><trkpt lat="42.35779473475272" lon="13.38487762975131"><ele>649.0</ele><time>2026-04-27T14:49:55Z</time></trkpt><trkpt lat="42.35775219934666" lon="13.38500460254821"><ele>649.0</ele><time>2026-04-27T14:49:56Z</time></trkpt><trkpt lat="42.357708329683184" lon="13.385111344009715"><ele>649.0</ele><time>2026-04-27T14:49:57Z</time></trkpt><trkpt lat="42.35765751383122" lon="13.385203590147162"><ele>649.0</ele><time>2026-04-27T14:49:58Z</time></trkpt><trkpt lat="42.357593903771374" lon="13.385275846400955"><ele>649.0</ele><time>2026-04-27T14:49:59Z</time></trkpt><trkpt lat="42.357503708913704" lon="13.385377607693025"><ele>649.0</ele><time>2026-04-27T14:50:00Z</time></trkpt><trkpt lat="42.35743803643214" lon="13.38550430328196"><ele>649.0</ele><time>2026-04-27T14:50:01Z</time></trkpt><trkpt lat="42.35738424004097" lon="13.385644224701682"><ele>649.0</ele><time>2026-04-27T14:50:02Z</time></trkpt><trkpt lat="42.357328435979234" lon="13.385752243665392"><ele>649.0</ele><time>2026-04-27T14:50:03Z</time></trkpt><trkpt lat="42.357265492903245" lon="13.385841832242408"><ele>649.0</ele><time>2026-04-27T14:50:04Z</time></trkpt><trkpt lat="42.357201584486546" lon="13.385921448191834"><ele>649.0</ele><time>2026-04-27T14:50:05Z</time></trkpt><trkpt lat="42.357141870370484" lon="13.385989816236236"><ele>648.8333333333334</ele><time>2026-04-27T14:50:06Z</time></trkpt><trkpt lat="42.357092190213066" lon="13.38604325722268"><ele>648.6666666666667</ele><time>2026-04-27T14:50:07Z</time></trkpt><trkpt lat="42.35701565169019" lon="13.386136193663532"><ele>648.5</ele><time>2026-04-27T14:50:09Z</time></trkpt><trkpt lat="42.356938576038466" lon="13.386273427463378"><ele>648.3333333333334</ele><time>2026-04-27T14:50:11Z</time></trkpt><trkpt lat="42.356894283782054" lon="13.386348935690943"><ele>648.1666666666666</ele><time>2026-04-27T14:50:12Z</time></trkpt><trkpt lat="42.356848586995724" lon="13.386418744212403"><ele>648.0</ele><time>2026-04-27T14:50:13Z</time></trkpt><trkpt lat="42.3567993067689" lon="13.386494726710124"><ele>648.0</ele><time>2026-04-27T14:50:14Z</time></trkpt><trkpt lat="42.35675289860302" lon="13.38656508375016"><ele>648.0</ele><time>2026-04-27T14:50:15Z</time></trkpt><trkpt lat="42.3566912654748" lon="13.386664771741001"><ele>648.0</ele><time>2026-04-27T14:50:17Z</time></trkpt><trkpt lat="42.35663977376812" lon="13.386759134410852"><ele>648.0</ele><time>2026-04-27T14:50:19Z</time></trkpt><trkpt lat="42.35659789509121" lon="13.386826119637522"><ele>648.0</ele><time>2026-04-27T14:50:20Z</time></trkpt><trkpt lat="42.356550493412755" lon="13.386903232916923"><ele>648.0</ele><time>2026-04-27T14:50:21Z</time></trkpt><trkpt lat="42.35649577596519" lon="13.386995736385423"><ele>648.0</ele><time>2026-04-27T14:50:22Z</time></trkpt><trkpt lat="42.356449733760066" lon="13.387068864183288"><ele>648.0</ele><time>2026-04-27T14:50:23Z</time></trkpt><trkpt lat="42.35640831118825" lon="13.387144673117728"><ele>648.0</ele><time>2026-04-27T14:50:24Z</time></trkpt><trkpt lat="42.35633909950232" lon="13.38726419024759"><ele>648.0</ele><time>2026-04-27T14:50:26Z</time></trkpt><trkpt lat="42.35627622710876" lon="13.387363497642188"><ele>648.0</ele><time>2026-04-27T14:50:28.001Z</time></trkpt><trkpt lat="42.356227361535616" lon="13.387445910814986"><ele>648.0</ele><time>2026-04-27T14:50:30.001Z</time></trkpt><trkpt lat="42.35618723172242" lon="13.38751316772966"><ele>647.6666666666666</ele><time>2026-04-27T14:50:32.001Z</time></trkpt><trkpt lat="42.356142325173195" lon="13.387577270580163"><ele>647.3333333333334</ele><time>2026-04-27T14:50:34.001Z</time></trkpt><trkpt lat="42.35608775837263" lon="13.387664000889615"><ele>647.0</ele><time>2026-04-27T14:50:36.001Z</time></trkpt><trkpt lat="42.356047302949335" lon="13.387733163268841"><ele>646.6666666666667</ele><time>2026-04-27T14:50:37Z</time></trkpt><trkpt lat="42.356003897986355" lon="13.387813292044259"><ele>646.3333333333334</ele><time>2026-04-27T14:50:38Z</time></trkpt><trkpt lat="42.355933473908074" lon="13.387937764001556"><ele>646.0</ele><time>2026-04-27T14:50:40Z</time></trkpt><trkpt lat="42.35586816474865" lon="13.388037797248174"><ele>646.8333333333334</ele><time>2026-04-27T14:50:42Z</time></trkpt><trkpt lat="42.35580419038873" lon="13.388104974094219"><ele>647.6666666666667</ele><time>2026-04-27T14:50:44Z</time></trkpt><trkpt lat="42.35574565821001" lon="13.388146588070285"><ele>648.5</ele><time>2026-04-27T14:50:46Z</time></trkpt><trkpt lat="42.35567960773571" lon="13.388177501258047"><ele>649.3333333333334</ele><time>2026-04-27T14:50:48Z</time></trkpt><trkpt lat="42.35558235489999" lon="13.38822721900708"><ele>650.1666666666666</ele><time>2026-04-27T14:50:51Z</time></trkpt><trkpt lat="42.35549065205897" lon="13.388312582222108"><ele>651.0</ele><time>2026-04-27T14:50:53Z</time></trkpt><trkpt lat="42.35545426268414" lon="13.388392388412592"><ele>651.0</ele><time>2026-04-27T14:50:54Z</time></trkpt><trkpt lat="42.35543217359281" lon="13.38849790672644"><ele>651.0</ele><time>2026-04-27T14:50:55Z</time></trkpt><trkpt lat="42.355425998760445" lon="13.388624762354482"><ele>651.0</ele><time>2026-04-27T14:50:56Z</time></trkpt><trkpt lat="42.355421202554524" lon="13.388731245385957"><ele>651.0</ele><time>2026-04-27T14:50:57Z</time></trkpt><trkpt lat="42.35540589913493" lon="13.388825213251161"><ele>651.0</ele><time>2026-04-27T14:50:58Z</time></trkpt><trkpt lat="42.35537340376439" lon="13.388952595055592"><ele>651.0</ele><time>2026-04-27T14:51:00Z</time></trkpt><trkpt lat="42.3553490743004" lon="13.389061018912752"><ele>652.0</ele><time>2026-04-27T14:51:02Z</time></trkpt><trkpt lat="42.355281817041735" lon="13.389137674903761"><ele>653.0</ele><time>2026-04-27T14:51:04Z</time></trkpt><trkpt lat="42.355237593940856" lon="13.389225051605466"><ele>654.0</ele><time>2026-04-27T14:51:06Z</time></trkpt><trkpt lat="42.35515961209566" lon="13.389302990533048"><ele>655.0</ele><time>2026-04-27T14:51:23Z</time></trkpt><trkpt lat="42.35510713469217" lon="13.38935906333392"><ele>656.0</ele><time>2026-04-27T14:51:24Z</time></trkpt><trkpt lat="42.355039753880455" lon="13.389424511246247"><ele>657.0</ele><time>2026-04-27T14:51:25Z</time></trkpt><trkpt lat="42.35495571051021" lon="13.38949457802055"><ele>657.0</ele><time>2026-04-27T14:51:26Z</time></trkpt><trkpt lat="42.3548614819525" lon="13.389554882004354"><ele>657.0</ele><time>2026-04-27T14:51:27Z</time></trkpt><trkpt lat="42.35476302158366" lon="13.389610376694794"><ele>657.0</ele><time>2026-04-27T14:51:28Z</time></trkpt><trkpt lat="42.35464801499696" lon="13.389660043514825"><ele>657.0</ele><time>2026-04-27T14:51:29Z</time></trkpt><trkpt lat="42.354526450145315" lon="13.389702732821751"><ele>658.5</ele><time>2026-04-27T14:51:30Z</time></trkpt><trkpt lat="42.354407606973886" lon="13.389743146185344"><ele>660.0</ele><time>2026-04-27T14:51:31Z</time></trkpt><trkpt lat="42.354290819419255" lon="13.38978725372044"><ele>661.5</ele><time>2026-04-27T14:51:32Z</time></trkpt><trkpt lat="42.35417623030657" lon="13.389834647381035"><ele>663.0</ele><time>2026-04-27T14:51:33Z</time></trkpt><trkpt lat="42.354055360571685" lon="13.389887362838214"><ele>663.0</ele><time>2026-04-27T14:51:34Z</time></trkpt><trkpt lat="42.35392812000902" lon="13.38993254430154"><ele>663.0</ele><time>2026-04-27T14:51:35Z</time></trkpt><trkpt lat="42.35379535650277" lon="13.38998394659792"><ele>663.0</ele><time>2026-04-27T14:51:36Z</time></trkpt><trkpt lat="42.3536646688207" lon="13.390036408896126"><ele>663.0</ele><time>2026-04-27T14:51:37Z</time></trkpt><trkpt lat="42.35353786173838" lon="13.390092550542581"><ele>662.5</ele><time>2026-04-27T14:51:38Z</time></trkpt><trkpt lat="42.35340697882574" lon="13.390146988132104"><ele>662.0</ele><time>2026-04-27T14:51:39Z</time></trkpt><trkpt lat="42.353272100268825" lon="13.390194785590625"><ele>661.5</ele><time>2026-04-27T14:51:40Z</time></trkpt><trkpt lat="42.35313734286228" lon="13.390245886758988"><ele>661.0</ele><time>2026-04-27T14:51:41Z</time></trkpt><trkpt lat="42.35300448563418" lon="13.390301568429528"><ele>660.5</ele><time>2026-04-27T14:51:42Z</time></trkpt><trkpt lat="42.3528729690353" lon="13.390354969861601"><ele>660.0</ele><time>2026-04-27T14:51:43Z</time></trkpt><trkpt lat="42.35274044578188" lon="13.39040798474373"><ele>659.5</ele><time>2026-04-27T14:51:44Z</time></trkpt><trkpt lat="42.352611809767" lon="13.390459118950494"><ele>659.0</ele><time>2026-04-27T14:51:45Z</time></trkpt><trkpt lat="42.352483516250125" lon="13.390503677316323"><ele>661.25</ele><time>2026-04-27T14:51:46Z</time></trkpt><trkpt lat="42.352360383743246" lon="13.390553025579072"><ele>663.5</ele><time>2026-04-27T14:51:47Z</time></trkpt><trkpt lat="42.352248110843725" lon="13.390598344806902"><ele>665.75</ele><time>2026-04-27T14:51:48Z</time></trkpt><trkpt lat="42.35214212852755" lon="13.390640595116194"><ele>668.0</ele><time>2026-04-27T14:51:49Z</time></trkpt><trkpt lat="42.35203229586228" lon="13.390685330969474"><ele>669.25</ele><time>2026-04-27T14:51:50Z</time></trkpt><trkpt lat="42.351913605551296" lon="13.390731987696793"><ele>670.5</ele><time>2026-04-27T14:51:51Z</time></trkpt><trkpt lat="42.35179309918064" lon="13.390774353373688"><ele>671.75</ele><time>2026-04-27T14:51:52Z</time></trkpt><trkpt lat="42.35167131820724" lon="13.390820572020582"><ele>673.0</ele><time>2026-04-27T14:51:53Z</time></trkpt><trkpt lat="42.35154654254484" lon="13.390865373447014"><ele>673.0</ele><time>2026-04-27T14:51:54Z</time></trkpt><trkpt lat="42.351421824470876" lon="13.390913058519983"><ele>673.0</ele><time>2026-04-27T14:51:55Z</time></trkpt><trkpt lat="42.351293514388914" lon="13.390960781239475"><ele>673.0</ele><time>2026-04-27T14:51:56Z</time></trkpt><trkpt lat="42.35116622402022" lon="13.391011433753123"><ele>673.0</ele><time>2026-04-27T14:51:57Z</time></trkpt><trkpt lat="42.35103825657999" lon="13.391071511031525"><ele>672.0</ele><time>2026-04-27T14:51:58Z</time></trkpt><trkpt lat="42.35092511527292" lon="13.391125448268388"><ele>671.0</ele><time>2026-04-27T14:51:59Z</time></trkpt><trkpt lat="42.350819550940294" lon="13.391196181041542"><ele>670.0</ele><time>2026-04-27T14:52:00Z</time></trkpt><trkpt lat="42.350722528864836" lon="13.39129171388044"><ele>669.0</ele><time>2026-04-27T14:52:01Z</time></trkpt><trkpt lat="42.35063096117207" lon="13.391401826996109"><ele>669.0</ele><time>2026-04-27T14:52:02Z</time></trkpt><trkpt lat="42.35055327523867" lon="13.39152028725379"><ele>669.0</ele><time>2026-04-27T14:52:03Z</time></trkpt><trkpt lat="42.35048473094987" lon="13.391651799812745"><ele>669.0</ele><time>2026-04-27T14:52:04Z</time></trkpt><trkpt lat="42.35043991637476" lon="13.39179537857167"><ele>669.0</ele><time>2026-04-27T14:52:05Z</time></trkpt><trkpt lat="42.350390526743176" lon="13.39193553822615"><ele>669.0</ele><time>2026-04-27T14:52:06Z</time></trkpt><trkpt lat="42.35033983905606" lon="13.39207208160955"><ele>669.0</ele><time>2026-04-27T14:52:07Z</time></trkpt><trkpt lat="42.35028719776598" lon="13.392196981074875"><ele>669.0</ele><time>2026-04-27T14:52:08Z</time></trkpt><trkpt lat="42.35024300806279" lon="13.392295449776624"><ele>669.0</ele><time>2026-04-27T14:52:09Z</time></trkpt><trkpt lat="42.350188724821905" lon="13.392385326534528"><ele>669.0</ele><time>2026-04-27T14:52:10Z</time></trkpt><trkpt lat="42.3501340520763" lon="13.39243284131102"><ele>672.0</ele><time>2026-04-27T14:52:11Z</time></trkpt><trkpt lat="42.350065070589125" lon="13.392470327718609"><ele>675.0</ele><time>2026-04-27T14:52:12Z</time></trkpt><trkpt lat="42.34999475745853" lon="13.392488827682644"><ele>678.0</ele><time>2026-04-27T14:52:13Z</time></trkpt><trkpt lat="42.349925253748545" lon="13.392480469915261"><ele>681.0</ele><time>2026-04-27T14:52:14Z</time></trkpt><trkpt lat="42.34984397017295" lon="13.392446680834547"><ele>684.0</ele><time>2026-04-27T14:52:15Z</time></trkpt><trkpt lat="42.3497697335111" lon="13.392382244878382"><ele>687.0</ele><time>2026-04-27T14:52:16Z</time></trkpt><trkpt lat="42.34970648938942" lon="13.39229606409782"><ele>688.5</ele><time>2026-04-27T14:52:17Z</time></trkpt><trkpt lat="42.34964027837039" lon="13.392191060314588"><ele>690.0</ele><time>2026-04-27T14:52:18Z</time></trkpt><trkpt lat="42.349577555871385" lon="13.392099557164153"><ele>691.5</ele><time>2026-04-27T14:52:19Z</time></trkpt><trkpt lat="42.34951302579051" lon="13.39201605175337"><ele>693.0</ele><time>2026-04-27T14:52:20Z</time></trkpt><trkpt lat="42.34946417523161" lon="13.391929749340132"><ele>694.5</ele><time>2026-04-27T14:52:21Z</time></trkpt><trkpt lat="42.34939645578938" lon="13.39186776622464"><ele>696.0</ele><time>2026-04-27T14:52:22Z</time></trkpt><trkpt lat="42.34931718277454" lon="13.39181937885371"><ele>692.8</ele><time>2026-04-27T14:52:23Z</time></trkpt><trkpt lat="42.349219100486316" lon="13.391797446197362"><ele>689.5999999999999</ele><time>2026-04-27T14:52:24Z</time></trkpt><trkpt lat="42.349114857031985" lon="13.391801945737596"><ele>686.4</ele><time>2026-04-27T14:52:25Z</time></trkpt><trkpt lat="42.34902046059739" lon="13.391820740600494"><ele>683.2</ele><time>2026-04-27T14:52:26Z</time></trkpt><trkpt lat="42.348918558270846" lon="13.39186147621883"><ele>680.0</ele><time>2026-04-27T14:52:27Z</time></trkpt><trkpt lat="42.34882222882854" lon="13.391899460152828"><ele>680.0</ele><time>2026-04-27T14:52:28Z</time></trkpt><trkpt lat="42.34870155138513" lon="13.391947821059933"><ele>680.0</ele><time>2026-04-27T14:52:29Z</time></trkpt><trkpt lat="42.34858806615197" lon="13.391994590768359"><ele>680.0</ele><time>2026-04-27T14:52:30Z</time></trkpt><trkpt lat="42.348494351286845" lon="13.392033119886408"><ele>680.0</ele><time>2026-04-27T14:52:31Z</time></trkpt><trkpt lat="42.34840982454364" lon="13.392066618495788"><ele>680.0</ele><time>2026-04-27T14:52:32Z</time></trkpt><trkpt lat="42.34833934973651" lon="13.392094548194416"><ele>680.0</ele><time>2026-04-27T14:52:33Z</time></trkpt><trkpt lat="42.34823495632652" lon="13.392143827206164"><ele>680.0</ele><time>2026-04-27T14:52:35Z</time></trkpt><trkpt lat="42.34814970228488" lon="13.392191024699017"><ele>680.0</ele><time>2026-04-27T14:52:37Z</time></trkpt><trkpt lat="42.348037392494255" lon="13.392278806338382"><ele>680.0</ele><time>2026-04-27T14:52:39Z</time></trkpt><trkpt lat="42.34795255420495" lon="13.392380441800336"><ele>680.0</ele><time>2026-04-27T14:52:41Z</time></trkpt><trkpt lat="42.347900637330916" lon="13.39244508281156"><ele>681.5</ele><time>2026-04-27T14:52:42Z</time></trkpt><trkpt lat="42.34785223877402" lon="13.392540931113581"><ele>683.0</ele><time>2026-04-27T14:52:43Z</time></trkpt><trkpt lat="42.34782550265894" lon="13.392635737388076"><ele>684.5</ele><time>2026-04-27T14:52:44Z</time></trkpt><trkpt lat="42.34778124710566" lon="13.392730932755398"><ele>686.0</ele><time>2026-04-27T14:52:45Z</time></trkpt><trkpt lat="42.347749915587976" lon="13.392819483516776"><ele>687.5</ele><time>2026-04-27T14:52:46Z</time></trkpt><trkpt lat="42.34770616984406" lon="13.392925609062901"><ele>689.0</ele><time>2026-04-27T14:52:47Z</time></trkpt><trkpt lat="42.3476651121657" lon="13.393029532103697"><ele>690.4000000000001</ele><time>2026-04-27T14:52:48Z</time></trkpt><trkpt lat="42.34762755402334" lon="13.393130672448734"><ele>691.8</ele><time>2026-04-27T14:52:49Z</time></trkpt><trkpt lat="42.347584769895526" lon="13.393239136257401"><ele>693.2</ele><time>2026-04-27T14:52:50Z</time></trkpt><trkpt lat="42.347542913633774" lon="13.39334900776372"><ele>694.5999999999999</ele><time>2026-04-27T14:52:51Z</time></trkpt><trkpt lat="42.34749775031862" lon="13.393462863690354"><ele>696.0</ele><time>2026-04-27T14:52:52Z</time></trkpt><trkpt lat="42.34745214212852" lon="13.39357543306932"><ele>696.0</ele><time>2026-04-27T14:52:53Z</time></trkpt><trkpt lat="42.34740833293825" lon="13.393686075145945"><ele>696.0</ele><time>2026-04-27T14:52:54Z</time></trkpt><trkpt lat="42.34736928780283" lon="13.393777861330015"><ele>696.0</ele><time>2026-04-27T14:52:55Z</time></trkpt><trkpt lat="42.34732626419759" lon="13.393875718858272"><ele>696.0</ele><time>2026-04-27T14:52:56Z</time></trkpt><trkpt lat="42.34728648775188" lon="13.393975240958829"><ele>696.0</ele><time>2026-04-27T14:52:57Z</time></trkpt><trkpt lat="42.34724383926522" lon="13.39408211018033"><ele>696.0</ele><time>2026-04-27T14:52:58Z</time></trkpt><trkpt lat="42.34720700614648" lon="13.394173188727734"><ele>696.5999999999999</ele><time>2026-04-27T14:52:59Z</time></trkpt><trkpt lat="42.34717478654265" lon="13.394266240133605"><ele>697.2</ele><time>2026-04-27T14:53:00Z</time></trkpt><trkpt lat="42.347126327342494" lon="13.394385306541906"><ele>697.8</ele><time>2026-04-27T14:53:02Z</time></trkpt><trkpt lat="42.347077905103966" lon="13.394497178604896"><ele>698.4000000000001</ele><time>2026-04-27T14:53:04Z</time></trkpt><trkpt lat="42.34701744515522" lon="13.39463012709655"><ele>699.0</ele><time>2026-04-27T14:53:06Z</time></trkpt><trkpt lat="42.34698772972225" lon="13.394707086022454"><ele>700.4000000000001</ele><time>2026-04-27T14:53:07Z</time></trkpt><trkpt lat="42.34693061485229" lon="13.394855623708413"><ele>701.8</ele><time>2026-04-27T14:53:08.999Z</time></trkpt><trkpt lat="42.346893853752384" lon="13.394947349457944"><ele>703.2</ele><time>2026-04-27T14:53:09.999Z</time></trkpt><trkpt lat="42.346858967780335" lon="13.39504941179092"><ele>704.5999999999999</ele><time>2026-04-27T14:53:10.999Z</time></trkpt><trkpt lat="42.34681932900941" lon="13.395151675070217"><ele>706.0</ele><time>2026-04-27T14:53:11.999Z</time></trkpt><trkpt lat="42.34677902189362" lon="13.395253605610748"><ele>706.0</ele><time>2026-04-27T14:53:12.999Z</time></trkpt><trkpt lat="42.3467381548013" lon="13.395355910870105"><ele>706.0</ele><time>2026-04-27T14:53:13.999Z</time></trkpt><trkpt lat="42.3466939543524" lon="13.395457437906954"><ele>706.0</ele><time>2026-04-27T14:53:14.999Z</time></trkpt><trkpt lat="42.34664529583842" lon="13.395538893042229"><ele>706.0</ele><time>2026-04-27T14:53:15.999Z</time></trkpt><trkpt lat="42.346604849019606" lon="13.395678924652305"><ele>706.0</ele><time>2026-04-27T14:53:17.999Z</time></trkpt><trkpt lat="42.34656796900618" lon="13.395751120348773"><ele>706.0</ele><time>2026-04-27T14:53:19.999Z</time></trkpt><trkpt lat="42.346538509153504" lon="13.395830143738065"><ele>705.6666666666667</ele><time>2026-04-27T14:53:21.999Z</time></trkpt><trkpt lat="42.34650961373747" lon="13.395909455135914"><ele>705.3333333333334</ele><time>2026-04-27T14:53:22.999Z</time></trkpt><trkpt lat="42.34647571549626" lon="13.395995664305756"><ele>705.0</ele><time>2026-04-27T14:53:23.999Z</time></trkpt><trkpt lat="42.34643416856538" lon="13.396104566916508"><ele>704.6666666666666</ele><time>2026-04-27T14:53:24.999Z</time></trkpt><trkpt lat="42.34637876563208" lon="13.39619785713181"><ele>704.3333333333333</ele><time>2026-04-27T14:53:25.999Z</time></trkpt><trkpt lat="42.34633126786086" lon="13.396316177468853"><ele>704.0</ele><time>2026-04-27T14:53:26.999Z</time></trkpt><trkpt lat="42.34628049295866" lon="13.396440812396083"><ele>704.0</ele><time>2026-04-27T14:53:27.999Z</time></trkpt><trkpt lat="42.34622673208427" lon="13.396572249052662"><ele>704.0</ele><time>2026-04-27T14:53:28.999Z</time></trkpt><trkpt lat="42.34618124606624" lon="13.396683454806007"><ele>704.0</ele><time>2026-04-27T14:53:29.999Z</time></trkpt><trkpt lat="42.34613853188776" lon="13.396788727052344"><ele>704.0</ele><time>2026-04-27T14:53:30.999Z</time></trkpt><trkpt lat="42.34609120285625" lon="13.39690764626924"><ele>704.0</ele><time>2026-04-27T14:53:31.999Z</time></trkpt><trkpt lat="42.346058435879954" lon="13.396989977339587"><ele>704.0</ele><time>2026-04-27T14:53:33.999Z</time></trkpt><trkpt lat="42.346289676072104" lon="13.397122194215601"><ele>704.0</ele><time>2026-04-27T14:53:36.999Z</time></trkpt><trkpt lat="42.34636001797686" lon="13.397147967334554"><ele>704.0</ele><time>2026-04-27T14:53:37.999Z</time></trkpt><trkpt lat="42.34643547846791" lon="13.397184853031638"><ele>704.0</ele><time>2026-04-27T14:53:38.999Z</time></trkpt><trkpt lat="42.34651558077465" lon="13.397223557052715"><ele>706.0</ele><time>2026-04-27T14:53:39.999Z</time></trkpt><trkpt lat="42.346573905249045" lon="13.397261181558541"><ele>708.0</ele><time>2026-04-27T14:53:40.999Z</time></trkpt><trkpt lat="42.346669036911806" lon="13.397310701035963"><ele>710.0</ele><time>2026-04-27T14:53:42.999Z</time></trkpt><trkpt lat="42.346780345374825" lon="13.397380528652658"><ele>712.0</ele><time>2026-04-27T14:53:44.999Z</time></trkpt><trkpt lat="42.346840456044305" lon="13.397418153657501"><ele>714.0</ele><time>2026-04-27T14:53:45.999Z</time></trkpt><trkpt lat="42.346924118070376" lon="13.397465918914275"><ele>716.0</ele><time>2026-04-27T14:53:47.999Z</time></trkpt><trkpt lat="42.346999705635014" lon="13.397512432502413"><ele>716.0000000000001</ele><time>2026-04-27T14:53:49.999Z</time></trkpt><trkpt lat="42.347062357296025" lon="13.397561796759168"><ele>716.0</ele><time>2026-04-27T14:53:51.999Z</time></trkpt><trkpt lat="42.347120808394976" lon="13.397604668585442"><ele>716.0</ele><time>2026-04-27T14:53:53.999Z</time></trkpt><trkpt lat="42.347189021666956" lon="13.397645497796152"><ele>716.0</ele><time>2026-04-27T14:53:56.999Z</time></trkpt><trkpt lat="42.347278966200975" lon="13.397673486214355"><ele>716.0</ele><time>2026-04-27T14:53:59.999Z</time></trkpt><trkpt lat="42.34734877005028" lon="13.397685357542514"><ele>716.0000000000001</ele><time>2026-04-27T14:54:01.999Z</time></trkpt><trkpt lat="42.34738454607996" lon="13.397755502924598"><ele>716.0</ele><time>2026-04-27T14:54:03.999Z</time></trkpt><trkpt lat="42.34733363700759" lon="13.397883415449872"><ele>716.5999999999999</ele><time>2026-04-27T14:54:05.999Z</time></trkpt><trkpt lat="42.34729593438006" lon="13.398031445576304"><ele>717.2</ele><time>2026-04-27T14:54:07.999Z</time></trkpt><trkpt lat="42.34728530257722" lon="13.39811733657897"><ele>717.8</ele><time>2026-04-27T14:54:12.999Z</time></trkpt><trkpt lat="42.34721147092689" lon="13.398154203606357"><ele>718.4000000000001</ele><time>2026-04-27T14:55:38.999Z</time></trkpt><trkpt lat="42.34711012699653" lon="13.398083473528096"><ele>719.0</ele><time>2026-04-27T14:55:40.999Z</time></trkpt><trkpt lat="42.34703564169422" lon="13.3980345324655"><ele>718.4000000000001</ele><time>2026-04-27T14:55:41.999Z</time></trkpt><trkpt lat="42.34696397076951" lon="13.397968980276657"><ele>717.8</ele><time>2026-04-27T14:55:42.999Z</time></trkpt><trkpt lat="42.34683466487178" lon="13.397912331248898"><ele>717.2</ele><time>2026-04-27T14:55:44.999Z</time></trkpt><trkpt lat="42.346758028422805" lon="13.397871684980075"><ele>716.5999999999999</ele><time>2026-04-27T14:55:45.999Z</time></trkpt><trkpt lat="42.34668223351589" lon="13.397837699696526"><ele>716.0</ele><time>2026-04-27T14:55:46.999Z</time></trkpt><trkpt lat="42.346607489422915" lon="13.397804931277916"><ele>716.0</ele><time>2026-04-27T14:55:47.999Z</time></trkpt><trkpt lat="42.34654335652289" lon="13.397771591660439"><ele>716.0</ele><time>2026-04-27T14:55:48.999Z</time></trkpt><trkpt lat="42.34648865999466" lon="13.397726912462657"><ele>716.0</ele><time>2026-04-27T14:55:49.999Z</time></trkpt><trkpt lat="42.34638591582089" lon="13.397691492990612"><ele>716.0</ele><time>2026-04-27T14:55:51.999Z</time></trkpt><trkpt lat="42.34631906901086" lon="13.397677724910752"><ele>716.0</ele><time>2026-04-27T14:56:00.999Z</time></trkpt><trkpt lat="42.34620526770452" lon="13.397607018769921"><ele>716.0</ele><time>2026-04-27T14:56:02.999Z</time></trkpt><trkpt lat="42.346104686703654" lon="13.39753074963013"><ele>715.1999999999999</ele><time>2026-04-27T14:56:04.999Z</time></trkpt><trkpt lat="42.34603687995446" lon="13.397491923290069"><ele>714.4</ele><time>2026-04-27T14:56:06.999Z</time></trkpt><trkpt lat="42.3459710206652" lon="13.397429820861309"><ele>713.6</ele><time>2026-04-27T14:57:01Z</time></trkpt><trkpt lat="42.34599850654654" lon="13.397276966836909"><ele>712.8</ele><time>2026-04-27T14:57:03Z</time></trkpt><trkpt lat="42.34603304707016" lon="13.397119032830929"><ele>712.0</ele><time>2026-04-27T14:57:04Z</time></trkpt><trkpt lat="42.3460789422428" lon="13.396999462117028"><ele>710.4000000000001</ele><time>2026-04-27T14:57:05Z</time></trkpt><trkpt lat="42.34613652255094" lon="13.396881308097496"><ele>708.8000000000001</ele><time>2026-04-27T14:57:06Z</time></trkpt><trkpt lat="42.346185514504576" lon="13.396760354383602"><ele>707.2</ele><time>2026-04-27T14:57:07Z</time></trkpt><trkpt lat="42.346235184262696" lon="13.39663628188296"><ele>705.6</ele><time>2026-04-27T14:57:08Z</time></trkpt><trkpt lat="42.346291274382736" lon="13.396509224611586"><ele>704.0</ele><time>2026-04-27T14:57:09Z</time></trkpt><trkpt lat="42.346347671036554" lon="13.39636094960459"><ele>705.0</ele><time>2026-04-27T14:57:10Z</time></trkpt><trkpt lat="42.34640372187606" lon="13.396221272583983"><ele>706.0</ele><time>2026-04-27T14:57:11Z</time></trkpt><trkpt lat="42.34645278915253" lon="13.39609380827544"><ele>707.0</ele><time>2026-04-27T14:57:12Z</time></trkpt><trkpt lat="42.346496785286355" lon="13.395979409984989"><ele>708.0</ele><time>2026-04-27T14:57:13Z</time></trkpt><trkpt lat="42.34653826819476" lon="13.39587552158435"><ele>709.0</ele><time>2026-04-27T14:57:14Z</time></trkpt><trkpt lat="42.346587456385876" lon="13.39575895872182"><ele>709.0</ele><time>2026-04-27T14:57:15Z</time></trkpt><trkpt lat="42.34663435695977" lon="13.395642933339516"><ele>709.0</ele><time>2026-04-27T14:57:16Z</time></trkpt><trkpt lat="42.34668409272809" lon="13.395515819765343"><ele>709.0</ele><time>2026-04-27T14:57:17Z</time></trkpt><trkpt lat="42.34673169672111" lon="13.395376418740348"><ele>709.0</ele><time>2026-04-27T14:57:18Z</time></trkpt><trkpt lat="42.346794854559334" lon="13.395264166740393"><ele>709.0</ele><time>2026-04-27T14:57:19Z</time></trkpt><trkpt lat="42.34684462763152" lon="13.395141625609064"><ele>708.4000000000001</ele><time>2026-04-27T14:57:20Z</time></trkpt><trkpt lat="42.34689309246584" lon="13.395023659955486"><ele>707.8</ele><time>2026-04-27T14:57:21Z</time></trkpt><trkpt lat="42.346943087057745" lon="13.394902193299886"><ele>707.2</ele><time>2026-04-27T14:57:22Z</time></trkpt><trkpt lat="42.346994495911794" lon="13.394777290510866"><ele>706.5999999999999</ele><time>2026-04-27T14:57:23Z</time></trkpt><trkpt lat="42.347036158913326" lon="13.394676066213101"><ele>706.0</ele><time>2026-04-27T14:57:24Z</time></trkpt><trkpt lat="42.34707495247026" lon="13.394581813454527"><ele>704.8333333333334</ele><time>2026-04-27T14:57:25Z</time></trkpt><trkpt lat="42.347077269653205" lon="13.394468583673014"><ele>703.6666666666667</ele><time>2026-04-27T14:57:26Z</time></trkpt><trkpt lat="42.347137297352376" lon="13.394371099992833"><ele>702.5</ele><time>2026-04-27T14:57:28Z</time></trkpt><trkpt lat="42.34716829968468" lon="13.394283727860655"><ele>701.3333333333334</ele><time>2026-04-27T14:57:30Z</time></trkpt><trkpt lat="42.347227006818" lon="13.39421057302054"><ele>700.1666666666666</ele><time>2026-04-27T14:57:34Z</time></trkpt><trkpt lat="42.34727489866316" lon="13.394092479264115"><ele>699.0</ele><time>2026-04-27T14:57:36Z</time></trkpt><trkpt lat="42.347318414822944" lon="13.393985037416076"><ele>698.6666666666666</ele><time>2026-04-27T14:57:38Z</time></trkpt><trkpt lat="42.34735265843274" lon="13.393900661283887"><ele>698.3333333333334</ele><time>2026-04-27T14:57:40Z</time></trkpt><trkpt lat="42.3473918903163" lon="13.39380467645913"><ele>698.0</ele><time>2026-04-27T14:57:42Z</time></trkpt><trkpt lat="42.3474474832373" lon="13.39366587103862"><ele>697.6666666666667</ele><time>2026-04-27T14:57:44Z</time></trkpt><trkpt lat="42.347482110227624" lon="13.393578385896445"><ele>697.3333333333334</ele><time>2026-04-27T14:57:45Z</time></trkpt><trkpt lat="42.347517252836234" lon="13.393488148538328"><ele>697.0</ele><time>2026-04-27T14:57:46Z</time></trkpt><trkpt lat="42.34756278023512" lon="13.393334501053758"><ele>696.8571428571429</ele><time>2026-04-27T14:57:48Z</time></trkpt><trkpt lat="42.34761580953152" lon="13.393206959855268"><ele>696.7142857142857</ele><time>2026-04-27T14:57:50Z</time></trkpt><trkpt lat="42.34765047280254" lon="13.393123094258124"><ele>696.5714285714286</ele><time>2026-04-27T14:57:51Z</time></trkpt><trkpt lat="42.34768190820787" lon="13.393042982389606"><ele>696.4285714285714</ele><time>2026-04-27T14:57:52Z</time></trkpt><trkpt lat="42.34771557704555" lon="13.392965938075918"><ele>696.2857142857143</ele><time>2026-04-27T14:57:53Z</time></trkpt><trkpt lat="42.34774927198343" lon="13.392881419247766"><ele>696.1428571428571</ele><time>2026-04-27T14:57:54Z</time></trkpt><trkpt lat="42.34778237095197" lon="13.3928049403646"><ele>696.0</ele><time>2026-04-27T14:57:55Z</time></trkpt><trkpt lat="42.34782024986059" lon="13.392725745589367"><ele>695.8</ele><time>2026-04-27T14:57:56Z</time></trkpt><trkpt lat="42.34786938648459" lon="13.392603009627338"><ele>695.5999999999999</ele><time>2026-04-27T14:57:58Z</time></trkpt><trkpt lat="42.34795466666554" lon="13.39245395879594"><ele>695.4</ele><time>2026-04-27T14:58:00Z</time></trkpt><trkpt lat="42.34800210376293" lon="13.39238019278397"><ele>695.2</ele><time>2026-04-27T14:58:01Z</time></trkpt><trkpt lat="42.348070633361644" lon="13.39231130032229"><ele>695.0</ele><time>2026-04-27T14:58:02Z</time></trkpt><trkpt lat="42.34814044978171" lon="13.392249148921318"><ele>695.0</ele><time>2026-04-27T14:58:03Z</time></trkpt><trkpt lat="42.34820073557013" lon="13.392201497194288"><ele>695.0</ele><time>2026-04-27T14:58:04Z</time></trkpt><trkpt lat="42.34827067143638" lon="13.392172175969582"><ele>695.0</ele><time>2026-04-27T14:58:05Z</time></trkpt><trkpt lat="42.34833852755188" lon="13.392139736392647"><ele>695.0</ele><time>2026-04-27T14:58:06Z</time></trkpt><trkpt lat="42.34842256310722" lon="13.392101487016149"><ele>695.0</ele><time>2026-04-27T14:58:07Z</time></trkpt><trkpt lat="42.34851228127941" lon="13.392065413027948"><ele>695.0</ele><time>2026-04-27T14:58:07.999Z</time></trkpt><trkpt lat="42.34859695793775" lon="13.392038471747954"><ele>692.5</ele><time>2026-04-27T14:58:08.999Z</time></trkpt><trkpt lat="42.348669243341746" lon="13.392010460002307"><ele>690.0</ele><time>2026-04-27T14:58:09.999Z</time></trkpt><trkpt lat="42.34874106970145" lon="13.391981838780522"><ele>687.5</ele><time>2026-04-27T14:58:10.999Z</time></trkpt><trkpt lat="42.34881173722867" lon="13.391952922285855"><ele>685.0</ele><time>2026-04-27T14:58:11.999Z</time></trkpt><trkpt lat="42.348934242950705" lon="13.391909028116723"><ele>682.5</ele><time>2026-04-27T14:58:13.999Z</time></trkpt><trkpt lat="42.34899714415202" lon="13.39188858890827"><ele>680.0</ele><time>2026-04-27T14:58:14.999Z</time></trkpt><trkpt lat="42.349069084138954" lon="13.391865368398589"><ele>679.6666666666666</ele><time>2026-04-27T14:58:15.999Z</time></trkpt><trkpt lat="42.34915296279081" lon="13.391848392348008"><ele>679.3333333333333</ele><time>2026-04-27T14:58:16.999Z</time></trkpt><trkpt lat="42.34923402229192" lon="13.391859853253504"><ele>679.0</ele><time>2026-04-27T14:58:17.999Z</time></trkpt><trkpt lat="42.349315254835965" lon="13.391883204816576"><ele>678.6666666666666</ele><time>2026-04-27T14:58:18.999Z</time></trkpt><trkpt lat="42.34938691626649" lon="13.391921968182006"><ele>678.3333333333334</ele><time>2026-04-27T14:58:19.999Z</time></trkpt><trkpt lat="42.34946163478036" lon="13.391983952097856"><ele>678.0</ele><time>2026-04-27T14:58:20.999Z</time></trkpt><trkpt lat="42.34952338455646" lon="13.392076453180719"><ele>678.0</ele><time>2026-04-27T14:58:21.999Z</time></trkpt><trkpt lat="42.349587391731085" lon="13.392156043594515"><ele>678.0</ele><time>2026-04-27T14:58:22.999Z</time></trkpt><trkpt lat="42.34963778089098" lon="13.392229183321433"><ele>678.0</ele><time>2026-04-27T14:58:23.999Z</time></trkpt><trkpt lat="42.34968226905013" lon="13.39229935121382"><ele>678.0</ele><time>2026-04-27T14:58:24.999Z</time></trkpt><trkpt lat="42.34972382504614" lon="13.392365067789"><ele>678.0</ele><time>2026-04-27T14:58:25.999Z</time></trkpt><trkpt lat="42.34978642474843" lon="13.392455937476681"><ele>678.0</ele><time>2026-04-27T14:58:27.999Z</time></trkpt><trkpt lat="42.349843660364016" lon="13.392540157242301"><ele>679.8</ele><time>2026-04-27T14:58:29.999Z</time></trkpt><trkpt lat="42.34992202404407" lon="13.392596276626175"><ele>681.5999999999999</ele><time>2026-04-27T14:58:31.999Z</time></trkpt><trkpt lat="42.35000928192011" lon="13.392610273743168"><ele>683.4000000000001</ele><time>2026-04-27T14:58:33.999Z</time></trkpt><trkpt lat="42.350105764103496" lon="13.3925952976515"><ele>685.2</ele><time>2026-04-27T14:58:35.999Z</time></trkpt><trkpt lat="42.3502035766924" lon="13.392467891250224"><ele>687.0</ele><time>2026-04-27T14:58:37.999Z</time></trkpt><trkpt lat="42.35025782783898" lon="13.392350921541697"><ele>687.0</ele><time>2026-04-27T14:58:38.999Z</time></trkpt><trkpt lat="42.350314263857726" lon="13.392199073516851"><ele>687.0</ele><time>2026-04-27T14:58:39.999Z</time></trkpt><trkpt lat="42.35037297001481" lon="13.392043802858181"><ele>687.0</ele><time>2026-04-27T14:58:40.999Z</time></trkpt><trkpt lat="42.35042892216983" lon="13.391899100292248"><ele>687.0</ele><time>2026-04-27T14:58:41.999Z</time></trkpt><trkpt lat="42.35047638728954" lon="13.39177826196989"><ele>686.8</ele><time>2026-04-27T14:58:42.999Z</time></trkpt><trkpt lat="42.35053049883802" lon="13.391659514760624"><ele>686.6</ele><time>2026-04-27T14:58:43.999Z</time></trkpt><trkpt lat="42.35058530798044" lon="13.391546301926647"><ele>686.4</ele><time>2026-04-27T14:58:44.999Z</time></trkpt><trkpt lat="42.35064065735051" lon="13.391442999268063"><ele>686.1999999999999</ele><time>2026-04-27T14:58:45.999Z</time></trkpt><trkpt lat="42.35071606471158" lon="13.39134088210739"><ele>686.0</ele><time>2026-04-27T14:58:46.999Z</time></trkpt><trkpt lat="42.350813423434744" lon="13.391245947367747"><ele>681.75</ele><time>2026-04-27T14:58:47.999Z</time></trkpt><trkpt lat="42.35091896623579" lon="13.391160605315896"><ele>677.5</ele><time>2026-04-27T14:58:48.999Z</time></trkpt><trkpt lat="42.35103554413014" lon="13.391086072698101"><ele>673.25</ele><time>2026-04-27T14:58:49.999Z</time></trkpt><trkpt lat="42.351160353545424" lon="13.391041566919485"><ele>669.0</ele><time>2026-04-27T14:58:50.999Z</time></trkpt><trkpt lat="42.35127890434929" lon="13.390999736228776"><ele>669.8000000000001</ele><time>2026-04-27T14:58:51.999Z</time></trkpt><trkpt lat="42.35139038040302" lon="13.390956102047396"><ele>670.6</ele><time>2026-04-27T14:58:52.999Z</time></trkpt><trkpt lat="42.351496043045344" lon="13.390922430254816"><ele>671.4</ele><time>2026-04-27T14:58:53.999Z</time></trkpt><trkpt lat="42.35158754223531" lon="13.390878028518353"><ele>672.2</ele><time>2026-04-27T14:58:54.999Z</time></trkpt><trkpt lat="42.3516718859875" lon="13.390851598304073"><ele>673.0</ele><time>2026-04-27T14:58:55.999Z</time></trkpt><trkpt lat="42.351752966684536" lon="13.390823782757245"><ele>673.0</ele><time>2026-04-27T14:58:56.999Z</time></trkpt><trkpt lat="42.35183207255824" lon="13.390792721058316"><ele>673.0</ele><time>2026-04-27T14:58:57.999Z</time></trkpt><trkpt lat="42.35191653672598" lon="13.390761459564066"><ele>673.0</ele><time>2026-04-27T14:58:58.999Z</time></trkpt><trkpt lat="42.35200667571274" lon="13.390725514790857"><ele>673.0</ele><time>2026-04-27T14:58:59.999Z</time></trkpt><trkpt lat="42.352091518816934" lon="13.390687941478744"><ele>673.0</ele><time>2026-04-27T14:59:00.999Z</time></trkpt><trkpt lat="42.35216602559336" lon="13.390660376023114"><ele>673.0</ele><time>2026-04-27T14:59:01.999Z</time></trkpt><trkpt lat="42.35223611798384" lon="13.390639478984614"><ele>672.1666666666667</ele><time>2026-04-27T14:59:02.999Z</time></trkpt><trkpt lat="42.35230894971339" lon="13.390612838368632"><ele>671.3333333333334</ele><time>2026-04-27T14:59:03.999Z</time></trkpt><trkpt lat="42.35238465124524" lon="13.390583849828898"><ele>670.5</ele><time>2026-04-27T14:59:04.999Z</time></trkpt><trkpt lat="42.35247301546451" lon="13.390546397075777"><ele>669.6666666666666</ele><time>2026-04-27T14:59:05.999Z</time></trkpt><trkpt lat="42.352561953106516" lon="13.390508051168895"><ele>668.8333333333333</ele><time>2026-04-27T14:59:06.999Z</time></trkpt><trkpt lat="42.35265661583981" lon="13.390469381870536"><ele>668.0</ele><time>2026-04-27T14:59:07.999Z</time></trkpt><trkpt lat="42.35275577719341" lon="13.390435623048003"><ele>666.5999999999999</ele><time>2026-04-27T14:59:08.999Z</time></trkpt><trkpt lat="42.352862995831664" lon="13.390401707589994"><ele>665.1999999999999</ele><time>2026-04-27T14:59:09.999Z</time></trkpt><trkpt lat="42.352963929939655" lon="13.390368727142071"><ele>663.8</ele><time>2026-04-27T14:59:10.999Z</time></trkpt><trkpt lat="42.35305318862061" lon="13.390333754663908"><ele>662.4</ele><time>2026-04-27T14:59:11.999Z</time></trkpt><trkpt lat="42.35313182467633" lon="13.390304374691759"><ele>661.0</ele><time>2026-04-27T14:59:12.999Z</time></trkpt><trkpt lat="42.35319545489464" lon="13.390288573391441"><ele>661.0</ele><time>2026-04-27T14:59:13.999Z</time></trkpt><trkpt lat="42.353286494923275" lon="13.390331388221096"><ele>661.0</ele><time>2026-04-27T14:59:15.999Z</time></trkpt><trkpt lat="42.35339799523552" lon="13.390444839962386"><ele>661.0</ele><time>2026-04-27T14:59:18Z</time></trkpt><trkpt lat="42.35346196288591" lon="13.39050442927"><ele>661.0</ele><time>2026-04-27T14:59:19Z</time></trkpt><trkpt lat="42.35352703508684" lon="13.390568606249895"><ele>661.0</ele><time>2026-04-27T14:59:20Z</time></trkpt><trkpt lat="42.353600722916674" lon="13.390634516404758"><ele>662.4</ele><time>2026-04-27T14:59:21Z</time></trkpt><trkpt lat="42.353673804357676" lon="13.390701608583473"><ele>663.8</ele><time>2026-04-27T14:59:22Z</time></trkpt><trkpt lat="42.35372838273446" lon="13.390747035633106"><ele>665.1999999999999</ele><time>2026-04-27T14:59:23Z</time></trkpt><trkpt lat="42.35381403879591" lon="13.390819299585383"><ele>666.5999999999999</ele><time>2026-04-27T14:59:25Z</time></trkpt><trkpt lat="42.35392370734685" lon="13.390918354962103"><ele>668.0</ele><time>2026-04-27T14:59:27Z</time></trkpt><trkpt lat="42.3539848727313" lon="13.390973354491672"><ele>669.0</ele><time>2026-04-27T14:59:28Z</time></trkpt><trkpt lat="42.3540450628204" lon="13.391044057337945"><ele>670.0</ele><time>2026-04-27T14:59:30Z</time></trkpt><trkpt lat="42.35397366392989" lon="13.391208852288404"><ele>671.0</ele><time>2026-04-27T14:59:34Z</time></trkpt><trkpt lat="42.353930500751105" lon="13.391289245080152"><ele>672.0</ele><time>2026-04-27T14:59:35Z</time></trkpt><trkpt lat="42.35388444932549" lon="13.391376343336217"><ele>673.0</ele><time>2026-04-27T14:59:36Z</time></trkpt><trkpt lat="42.35383987611704" lon="13.391461906636541"><ele>673.8333333333334</ele><time>2026-04-27T14:59:37Z</time></trkpt><trkpt lat="42.35380598994576" lon="13.391567147924997"><ele>674.6666666666667</ele><time>2026-04-27T14:59:38Z</time></trkpt><trkpt lat="42.35376226612339" lon="13.391654085670444"><ele>675.5</ele><time>2026-04-27T14:59:39Z</time></trkpt><trkpt lat="42.35371397684496" lon="13.391755433492042"><ele>676.3333333333334</ele><time>2026-04-27T14:59:40Z</time></trkpt><trkpt lat="42.353667743615425" lon="13.391855189899974"><ele>677.1666666666666</ele><time>2026-04-27T14:59:41Z</time></trkpt><trkpt lat="42.353633198483195" lon="13.3919460107799"><ele>678.0</ele><time>2026-04-27T14:59:42Z</time></trkpt><trkpt lat="42.353595424058256" lon="13.392027662210932"><ele>678.0</ele><time>2026-04-27T14:59:43Z</time></trkpt><trkpt lat="42.353556362424165" lon="13.39211478217796"><ele>678.0</ele><time>2026-04-27T14:59:44Z</time></trkpt><trkpt lat="42.353487027227956" lon="13.392220678618106"><ele>678.0</ele><time>2026-04-27T14:59:46Z</time></trkpt><trkpt lat="42.35344672597322" lon="13.392298003049707"><ele>678.0</ele><time>2026-04-27T14:59:48.999Z</time></trkpt><trkpt lat="42.35351545873419" lon="13.392183117379599"><ele>678.0</ele><time>2026-04-27T15:00:02.999Z</time></trkpt><trkpt lat="42.353600818984766" lon="13.392188065238583"><ele>678.0</ele><time>2026-04-27T15:00:03.999Z</time></trkpt><trkpt lat="42.353638650802445" lon="13.392000387930345"><ele>678.0</ele><time>2026-04-27T15:00:04.999Z</time></trkpt><trkpt lat="42.353691359294515" lon="13.391884689337763"><ele>678.0</ele><time>2026-04-27T15:00:05.999Z</time></trkpt><trkpt lat="42.353744124498824" lon="13.391764989189179"><ele>678.0</ele><time>2026-04-27T15:00:06.999Z</time></trkpt><trkpt lat="42.35379501509944" lon="13.391650845051625"><ele>678.0</ele><time>2026-04-27T15:00:07.999Z</time></trkpt><trkpt lat="42.35384802894703" lon="13.391544166328782"><ele>678.0</ele><time>2026-04-27T15:00:08.999Z</time></trkpt><trkpt lat="42.353896271177604" lon="13.391439290372666"><ele>677.1666666666666</ele><time>2026-04-27T15:00:09.999Z</time></trkpt><trkpt lat="42.35394203340965" lon="13.391334497473634"><ele>676.3333333333334</ele><time>2026-04-27T15:00:10.999Z</time></trkpt><trkpt lat="42.35398792437016" lon="13.391239506658783"><ele>675.5</ele><time>2026-04-27T15:00:11.999Z</time></trkpt><trkpt lat="42.35402808889641" lon="13.391152640326307"><ele>674.6666666666667</ele><time>2026-04-27T15:00:12.999Z</time></trkpt><trkpt lat="42.35405399934756" lon="13.391036953836949"><ele>673.8333333333334</ele><time>2026-04-27T15:00:14.999Z</time></trkpt><trkpt lat="42.3539993731957" lon="13.390934334738693"><ele>673.0</ele><time>2026-04-27T15:00:16.999Z</time></trkpt><trkpt lat="42.353928462106616" lon="13.390884960152531"><ele>672.0</ele><time>2026-04-27T15:00:17.999Z</time></trkpt><trkpt lat="42.353853302427844" lon="13.390821768209673"><ele>671.0</ele><time>2026-04-27T15:00:18.999Z</time></trkpt><trkpt lat="42.353773148201206" lon="13.390740678829275"><ele>670.0</ele><time>2026-04-27T15:00:19.999Z</time></trkpt><trkpt lat="42.353690521035624" lon="13.390653052485126"><ele>669.0</ele><time>2026-04-27T15:00:20.999Z</time></trkpt><trkpt lat="42.35361018146773" lon="13.390574981809134"><ele>668.0</ele><time>2026-04-27T15:00:21.999Z</time></trkpt><trkpt lat="42.35352251411812" lon="13.390498827715057"><ele>666.5999999999999</ele><time>2026-04-27T15:00:22.999Z</time></trkpt><trkpt lat="42.35343714017557" lon="13.3904252018654"><ele>665.1999999999999</ele><time>2026-04-27T15:00:23.999Z</time></trkpt><trkpt lat="42.35336269327531" lon="13.390363288748132"><ele>663.8</ele><time>2026-04-27T15:00:24.999Z</time></trkpt><trkpt lat="42.353306006393794" lon="13.390264715986111"><ele>662.4</ele><time>2026-04-27T15:00:26.999Z</time></trkpt><trkpt lat="42.35338887467021" lon="13.39017076877189"><ele>661.0</ele><time>2026-04-27T15:00:29.999Z</time></trkpt><trkpt lat="42.35346231757028" lon="13.390148508612757"><ele>661.0</ele><time>2026-04-27T15:00:30.999Z</time></trkpt><trkpt lat="42.35355982268836" lon="13.390115745292539"><ele>661.0</ele><time>2026-04-27T15:00:31.999Z</time></trkpt><trkpt lat="42.3536568529965" lon="13.390078431451206"><ele>661.0</ele><time>2026-04-27T15:00:32.999Z</time></trkpt><trkpt lat="42.353763066052" lon="13.390038214958828"><ele>661.0</ele><time>2026-04-27T15:00:33.999Z</time></trkpt><trkpt lat="42.353867288028134" lon="13.389994850869583"><ele>661.0</ele><time>2026-04-27T15:00:34.999Z</time></trkpt><trkpt lat="42.35397272981112" lon="13.3899477113609"><ele>661.5</ele><time>2026-04-27T15:00:35.999Z</time></trkpt><trkpt lat="42.35408928335927" lon="13.38990486503775"><ele>662.0</ele><time>2026-04-27T15:00:36.999Z</time></trkpt><trkpt lat="42.35420190080956" lon="13.389856999407112"><ele>662.5</ele><time>2026-04-27T15:00:37.999Z</time></trkpt><trkpt lat="42.35432214766959" lon="13.38980531255968"><ele>663.0</ele><time>2026-04-27T15:00:38.999Z</time></trkpt><trkpt lat="42.354437864705325" lon="13.389758909536301"><ele>663.0</ele><time>2026-04-27T15:00:39.999Z</time></trkpt><trkpt lat="42.35454892301796" lon="13.389717437615268"><ele>663.0</ele><time>2026-04-27T15:00:40.999Z</time></trkpt><trkpt lat="42.35465975022401" lon="13.389675241124166"><ele>663.0</ele><time>2026-04-27T15:00:41.999Z</time></trkpt><trkpt lat="42.354766771248634" lon="13.389631803737922"><ele>663.0</ele><time>2026-04-27T15:00:42.999Z</time></trkpt><trkpt lat="42.354872450069976" lon="13.389588578615816"><ele>661.8</ele><time>2026-04-27T15:00:43.999Z</time></trkpt><trkpt lat="42.35497791392023" lon="13.389539516686082"><ele>660.5999999999999</ele><time>2026-04-27T15:00:44.999Z</time></trkpt><trkpt lat="42.35506144978392" lon="13.389481541327195"><ele>659.4000000000001</ele><time>2026-04-27T15:00:45.999Z</time></trkpt><trkpt lat="42.355141928360744" lon="13.389408934486397"><ele>658.2</ele><time>2026-04-27T15:00:46.999Z</time></trkpt><trkpt lat="42.35520881131082" lon="13.389324121349471"><ele>657.0</ele><time>2026-04-27T15:00:47.999Z</time></trkpt><trkpt lat="42.35525817917118" lon="13.389265730880574"><ele>657.0</ele><time>2026-04-27T15:00:48.999Z</time></trkpt><trkpt lat="42.35532621809351" lon="13.389195836335237"><ele>657.0</ele><time>2026-04-27T15:00:49.999Z</time></trkpt><trkpt lat="42.35537078964103" lon="13.38912664310131"><ele>657.0</ele><time>2026-04-27T15:00:50.999Z</time></trkpt><trkpt lat="42.355452134927965" lon="13.389002472066533"><ele>657.0</ele><time>2026-04-27T15:00:52.999Z</time></trkpt><trkpt lat="42.3555450290285" lon="13.388912081886675"><ele>657.0</ele><time>2026-04-27T15:00:54.999Z</time></trkpt><trkpt lat="42.35565152839157" lon="13.388878537938524"><ele>657.0</ele><time>2026-04-27T15:00:56.999Z</time></trkpt><trkpt lat="42.355725206712876" lon="13.388840124607077"><ele>657.0</ele><time>2026-04-27T15:00:58.999Z</time></trkpt><trkpt lat="42.355825618106984" lon="13.388986814134595"><ele>657.0</ele><time>2026-04-27T15:01:00.999Z</time></trkpt><trkpt lat="42.35588283410803" lon="13.389067862937086"><ele>657.0</ele><time>2026-04-27T15:01:01.999Z</time></trkpt><trkpt lat="42.35591666067229" lon="13.389150651737147"><ele>657.0</ele><time>2026-04-27T15:01:02.999Z</time></trkpt><trkpt lat="42.35599655545315" lon="13.38928063373173"><ele>657.0</ele><time>2026-04-27T15:01:04.999Z</time></trkpt><trkpt lat="42.35604470282518" lon="13.389363323113676"><ele>657.0</ele><time>2026-04-27T15:01:05.999Z</time></trkpt><trkpt lat="42.35609191177564" lon="13.389458939522685"><ele>657.0</ele><time>2026-04-27T15:01:06.999Z</time></trkpt><trkpt lat="42.35614542724417" lon="13.38956313846992"><ele>657.0</ele><time>2026-04-27T15:01:07.999Z</time></trkpt><trkpt lat="42.35620431252516" lon="13.389677926072707"><ele>657.0</ele><time>2026-04-27T15:01:08.999Z</time></trkpt><trkpt lat="42.35627249109693" lon="13.389805180139799"><ele>657.75</ele><time>2026-04-27T15:01:09.999Z</time></trkpt><trkpt lat="42.356342190364174" lon="13.389933198013093"><ele>658.5</ele><time>2026-04-27T15:01:10.999Z</time></trkpt><trkpt lat="42.35642170126327" lon="13.390065651416515"><ele>659.25</ele><time>2026-04-27T15:01:11.999Z</time></trkpt><trkpt lat="42.3565195504892" lon="13.39020233512938"><ele>660.0</ele><time>2026-04-27T15:01:12.999Z</time></trkpt><trkpt lat="42.35662753606492" lon="13.390327126696231"><ele>658.8</ele><time>2026-04-27T15:01:13.999Z</time></trkpt><trkpt lat="42.356712137964756" lon="13.390425730700635"><ele>657.6</ele><time>2026-04-27T15:01:14.999Z</time></trkpt><trkpt lat="42.35678774219999" lon="13.390486706472739"><ele>656.4000000000001</ele><time>2026-04-27T15:01:15.999Z</time></trkpt><trkpt lat="42.356794245296854" lon="13.390661870375645"><ele>655.2</ele><time>2026-04-27T15:01:16.999Z</time></trkpt><trkpt lat="42.356805082912324" lon="13.390786465850505"><ele>654.0</ele><time>2026-04-27T15:01:17.999Z</time></trkpt><trkpt lat="42.356787908488414" lon="13.39090851383483"><ele>654.0</ele><time>2026-04-27T15:01:18.999Z</time></trkpt><trkpt lat="42.35675257000414" lon="13.391028833158678"><ele>654.0</ele><time>2026-04-27T15:01:19.999Z</time></trkpt><trkpt lat="42.3567181127744" lon="13.391147073893434"><ele>654.0</ele><time>2026-04-27T15:01:20.999Z</time></trkpt><trkpt lat="42.35669777633072" lon="13.391236779151582"><ele>654.0</ele><time>2026-04-27T15:01:21.999Z</time></trkpt><trkpt lat="42.356683843554585" lon="13.391324486447527"><ele>654.0</ele><time>2026-04-27T15:01:22.999Z</time></trkpt><trkpt lat="42.356671430873526" lon="13.391418541262697"><ele>654.0</ele><time>2026-04-27T15:01:23.999Z</time></trkpt><trkpt lat="42.35666440583874" lon="13.391522564328739"><ele>655.25</ele><time>2026-04-27T15:01:24.999Z</time></trkpt><trkpt lat="42.356668284922705" lon="13.391645509980087"><ele>656.5</ele><time>2026-04-27T15:01:25.999Z</time></trkpt><trkpt lat="42.3566467290044" lon="13.391797900368037"><ele>657.75</ele><time>2026-04-27T15:01:26.999Z</time></trkpt><trkpt lat="42.35664241367041" lon="13.391972561731878"><ele>659.0</ele><time>2026-04-27T15:01:27.999Z</time></trkpt><trkpt lat="42.356638231834054" lon="13.39215287893314"><ele>660.5</ele><time>2026-04-27T15:01:28.999Z</time></trkpt><trkpt lat="42.3566343123853" lon="13.392326342623216"><ele>662.0</ele><time>2026-04-27T15:01:29.999Z</time></trkpt><trkpt lat="42.356642151087534" lon="13.392502424388228"><ele>663.5</ele><time>2026-04-27T15:01:30.999Z</time></trkpt><trkpt lat="42.35663495098464" lon="13.392672388474551"><ele>665.0</ele><time>2026-04-27T15:01:31.999Z</time></trkpt><trkpt lat="42.356633715033794" lon="13.392833217065121"><ele>665.0</ele><time>2026-04-27T15:01:32.999Z</time></trkpt><trkpt lat="42.35663333157457" lon="13.393000464368173"><ele>665.0</ele><time>2026-04-27T15:01:33.999Z</time></trkpt><trkpt lat="42.35663196571305" lon="13.393167378465511"><ele>665.0</ele><time>2026-04-27T15:01:34.999Z</time></trkpt><trkpt lat="42.356628804169425" lon="13.39332355434051"><ele>665.0</ele><time>2026-04-27T15:01:35.999Z</time></trkpt><trkpt lat="42.356626097606345" lon="13.39346756867568"><ele>665.8</ele><time>2026-04-27T15:01:36.999Z</time></trkpt><trkpt lat="42.35662404518755" lon="13.393600047940035"><ele>666.6</ele><time>2026-04-27T15:01:37.999Z</time></trkpt><trkpt lat="42.35662066659652" lon="13.393733246385493"><ele>667.4000000000001</ele><time>2026-04-27T15:01:38.999Z</time></trkpt><trkpt lat="42.356622570676954" lon="13.393841884947944"><ele>668.2</ele><time>2026-04-27T15:01:39.999Z</time></trkpt><trkpt lat="42.35661500255609" lon="13.393958910971259"><ele>669.0</ele><time>2026-04-27T15:01:40.999Z</time></trkpt><trkpt lat="42.356596741810776" lon="13.394073331840657"><ele>670.0</ele><time>2026-04-27T15:01:41.999Z</time></trkpt><trkpt lat="42.35659447657305" lon="13.394179896581413"><ele>671.0</ele><time>2026-04-27T15:01:42.999Z</time></trkpt><trkpt lat="42.35659212991156" lon="13.394290291736032"><ele>672.0</ele><time>2026-04-27T15:01:43.999Z</time></trkpt><trkpt lat="42.356589697462354" lon="13.394404722672656"><ele>673.0</ele><time>2026-04-27T15:01:44.999Z</time></trkpt><trkpt lat="42.35658727517157" lon="13.394519173305211"><ele>674.0</ele><time>2026-04-27T15:01:45.999Z</time></trkpt><trkpt lat="42.35658475554841" lon="13.394641016766448"><ele>675.0</ele><time>2026-04-27T15:01:46.999Z</time></trkpt><trkpt lat="42.3565983344156" lon="13.394762639033805"><ele>675.1666666666666</ele><time>2026-04-27T15:01:47.999Z</time></trkpt><trkpt lat="42.356579896256" lon="13.394876001535875"><ele>675.3333333333334</ele><time>2026-04-27T15:01:48.999Z</time></trkpt><trkpt lat="42.35657773066449" lon="13.394980724867153"><ele>675.5</ele><time>2026-04-27T15:01:49.999Z</time></trkpt><trkpt lat="42.35657565522487" lon="13.395081089146"><ele>675.6666666666667</ele><time>2026-04-27T15:01:50.999Z</time></trkpt><trkpt lat="42.356595707465054" lon="13.395198552015819"><ele>675.8333333333334</ele><time>2026-04-27T15:01:51.999Z</time></trkpt><trkpt lat="42.3565920134633" lon="13.39532703326776"><ele>676.0</ele><time>2026-04-27T15:01:52.999Z</time></trkpt><trkpt lat="42.356585997571415" lon="13.395467459191526"><ele>675.5999999999999</ele><time>2026-04-27T15:01:53.999Z</time></trkpt><trkpt lat="42.356580772773455" lon="13.39561105621203"><ele>675.2</ele><time>2026-04-27T15:01:54.999Z</time></trkpt><trkpt lat="42.356560869510396" lon="13.395748495983256"><ele>674.8</ele><time>2026-04-27T15:01:55.999Z</time></trkpt><trkpt lat="42.35655798806557" lon="13.395871791812498"><ele>674.4000000000001</ele><time>2026-04-27T15:01:56.999Z</time></trkpt><trkpt lat="42.35655500617331" lon="13.395988005034662"><ele>674.0</ele><time>2026-04-27T15:01:57.999Z</time></trkpt><trkpt lat="42.35655211969932" lon="13.396100499572375"><ele>674.0</ele><time>2026-04-27T15:01:58.999Z</time></trkpt><trkpt lat="42.35654939193825" lon="13.39620680853716"><ele>674.0</ele><time>2026-04-27T15:01:59.999Z</time></trkpt><trkpt lat="42.3565465398933" lon="13.396317961257688"><ele>674.0</ele><time>2026-04-27T15:02:00.999Z</time></trkpt><trkpt lat="42.356543394054526" lon="13.396433783290325"><ele>674.0</ele><time>2026-04-27T15:02:01.999Z</time></trkpt><trkpt lat="42.35653934800623" lon="13.396564192717342"><ele>674.0</ele><time>2026-04-27T15:02:02.999Z</time></trkpt><trkpt lat="42.35654511585668" lon="13.396701281735512"><ele>674.0</ele><time>2026-04-27T15:02:03.999Z</time></trkpt><trkpt lat="42.35652773356639" lon="13.396847483657343"><ele>675.25</ele><time>2026-04-27T15:02:04.999Z</time></trkpt><trkpt lat="42.35651432816074" lon="13.396999226847726"><ele>676.5</ele><time>2026-04-27T15:02:05.999Z</time></trkpt><trkpt lat="42.35650620879384" lon="13.397160821130392"><ele>677.75</ele><time>2026-04-27T15:02:06.999Z</time></trkpt><trkpt lat="42.35650871905092" lon="13.397324152244616"><ele>679.0</ele><time>2026-04-27T15:02:07.999Z</time></trkpt><trkpt lat="42.3565175265553" lon="13.397493668394656"><ele>681.25</ele><time>2026-04-27T15:02:08.999Z</time></trkpt><trkpt lat="42.3565374790048" lon="13.397661488075185"><ele>683.5</ele><time>2026-04-27T15:02:09.999Z</time></trkpt><trkpt lat="42.3565742717707" lon="13.397821098634592"><ele>685.75</ele><time>2026-04-27T15:02:10.999Z</time></trkpt><trkpt lat="42.35662527794578" lon="13.397974750987911"><ele>688.0</ele><time>2026-04-27T15:02:11.999Z</time></trkpt><trkpt lat="42.35668701241469" lon="13.39812812564613"><ele>688.25</ele><time>2026-04-27T15:02:12.999Z</time></trkpt><trkpt lat="42.356754902115654" lon="13.398280588901844"><ele>688.5</ele><time>2026-04-27T15:02:13.999Z</time></trkpt><trkpt lat="42.35681551479558" lon="13.398443133601372"><ele>688.75</ele><time>2026-04-27T15:02:14.999Z</time></trkpt><trkpt lat="42.356889463541165" lon="13.398597332693527"><ele>689.0</ele><time>2026-04-27T15:02:15.999Z</time></trkpt><trkpt lat="42.356957812490336" lon="13.398771361365299"><ele>690.25</ele><time>2026-04-27T15:02:16.999Z</time></trkpt><trkpt lat="42.35699065482981" lon="13.398958796285278"><ele>691.5</ele><time>2026-04-27T15:02:17.999Z</time></trkpt><trkpt lat="42.35700847025165" lon="13.399143328117473"><ele>692.75</ele><time>2026-04-27T15:02:18.999Z</time></trkpt><trkpt lat="42.35701432608149" lon="13.39931842020945"><ele>694.0</ele><time>2026-04-27T15:02:19.999Z</time></trkpt><trkpt lat="42.35701570702993" lon="13.399477840938255"><ele>694.0</ele><time>2026-04-27T15:02:20.999Z</time></trkpt><trkpt lat="42.357030191687414" lon="13.399636304197628"><ele>694.0</ele><time>2026-04-27T15:02:21.999Z</time></trkpt><trkpt lat="42.35703014357412" lon="13.399789453558704"><ele>694.0</ele><time>2026-04-27T15:02:22.999Z</time></trkpt><trkpt lat="42.35703223151757" lon="13.399945082450675"><ele>694.0</ele><time>2026-04-27T15:02:23.999Z</time></trkpt><trkpt lat="42.35703254810781" lon="13.400097282776022"><ele>695.2</ele><time>2026-04-27T15:02:24.999Z</time></trkpt><trkpt lat="42.35703405537553" lon="13.40024882474711"><ele>696.4000000000001</ele><time>2026-04-27T15:02:25.999Z</time></trkpt><trkpt lat="42.3570340260436" lon="13.400407837139802"><ele>697.6</ele><time>2026-04-27T15:02:26.999Z</time></trkpt><trkpt lat="42.357033276984666" lon="13.400540874643557"><ele>698.8</ele><time>2026-04-27T15:02:27.999Z</time></trkpt><trkpt lat="42.357030459013" lon="13.40063568240311"><ele>700.0</ele><time>2026-04-27T15:02:28.999Z</time></trkpt><trkpt lat="42.357028744618624" lon="13.400794332676009"><ele>700.6</ele><time>2026-04-27T15:02:30.999Z</time></trkpt><trkpt lat="42.35703929057206" lon="13.400969866662344"><ele>701.2</ele><time>2026-04-27T15:02:32.999Z</time></trkpt><trkpt lat="42.35704277972264" lon="13.401074779549704"><ele>701.8</ele><time>2026-04-27T15:02:33.999Z</time></trkpt><trkpt lat="42.35704508033819" lon="13.401189692241607"><ele>702.4</ele><time>2026-04-27T15:02:34.999Z</time></trkpt><trkpt lat="42.35705044740736" lon="13.40130805840334"><ele>703.0</ele><time>2026-04-27T15:02:35.999Z</time></trkpt><trkpt lat="42.357051086809925" lon="13.401422710206795"><ele>703.0</ele><time>2026-04-27T15:02:36.999Z</time></trkpt><trkpt lat="42.35705005399839" lon="13.40151758599709"><ele>703.0</ele><time>2026-04-27T15:02:37.999Z</time></trkpt><trkpt lat="42.357050878044795" lon="13.401611715270235"><ele>703.0</ele><time>2026-04-27T15:02:38.999Z</time></trkpt><trkpt lat="42.35705295614582" lon="13.401715986950842"><ele>703.0</ele><time>2026-04-27T15:02:39.999Z</time></trkpt><trkpt lat="42.357054617055745" lon="13.40182760524335"><ele>703.0</ele><time>2026-04-27T15:02:40.999Z</time></trkpt><trkpt lat="42.357055218221674" lon="13.401942657307815"><ele>703.0</ele><time>2026-04-27T15:02:41.999Z</time></trkpt><trkpt lat="42.35705589668291" lon="13.402052578682007"><ele>702.0</ele><time>2026-04-27T15:02:42.999Z</time></trkpt><trkpt lat="42.35705375981348" lon="13.402165630829886"><ele>701.0</ele><time>2026-04-27T15:02:43.999Z</time></trkpt><trkpt lat="42.35705414973595" lon="13.402282744747838"><ele>700.0</ele><time>2026-04-27T15:02:44.999Z</time></trkpt><trkpt lat="42.357058407194515" lon="13.402398324596783"><ele>699.0</ele><time>2026-04-27T15:02:45.999Z</time></trkpt><trkpt lat="42.35706090927117" lon="13.40252287437158"><ele>698.0</ele><time>2026-04-27T15:02:46.999Z</time></trkpt><trkpt lat="42.35705621335553" lon="13.402669597638736"><ele>698.0</ele><time>2026-04-27T15:02:47.999Z</time></trkpt><trkpt lat="42.357087479186795" lon="13.402785145633006"><ele>698.0</ele><time>2026-04-27T15:02:48.999Z</time></trkpt><trkpt lat="42.357111322762876" lon="13.40293093036301"><ele>698.0</ele><time>2026-04-27T15:02:49.999Z</time></trkpt><trkpt lat="42.35715084246778" lon="13.403060923240718"><ele>698.0</ele><time>2026-04-27T15:02:50.999Z</time></trkpt><trkpt lat="42.35719500324313" lon="13.403187716875697"><ele>698.0</ele><time>2026-04-27T15:02:51.999Z</time></trkpt><trkpt lat="42.35724541556626" lon="13.403305372198494"><ele>698.6666666666666</ele><time>2026-04-27T15:02:52.999Z</time></trkpt><trkpt lat="42.35729493081931" lon="13.403424965080081"><ele>699.3333333333333</ele><time>2026-04-27T15:02:53.999Z</time></trkpt><trkpt lat="42.357340248575404" lon="13.403541932573368"><ele>700.0</ele><time>2026-04-27T15:02:54.999Z</time></trkpt><trkpt lat="42.357384069196485" lon="13.403647215554793"><ele>700.6666666666666</ele><time>2026-04-27T15:02:55.999Z</time></trkpt><trkpt lat="42.35742081403117" lon="13.403744612094597"><ele>701.3333333333334</ele><time>2026-04-27T15:02:56.999Z</time></trkpt><trkpt lat="42.35745208873514" lon="13.403830787383972"><ele>702.0</ele><time>2026-04-27T15:02:57.999Z</time></trkpt><trkpt lat="42.357492470134076" lon="13.403960682911116"><ele>702.0</ele><time>2026-04-27T15:02:59.999Z</time></trkpt><trkpt lat="42.357523511141316" lon="13.40407258154273"><ele>702.0</ele><time>2026-04-27T15:03:01.999Z</time></trkpt><trkpt lat="42.35757960512006" lon="13.40421368469191"><ele>702.0</ele><time>2026-04-27T15:03:03.999Z</time></trkpt><trkpt lat="42.35761774604316" lon="13.404334093320546"><ele>702.0</ele><time>2026-04-27T15:03:05.999Z</time></trkpt><trkpt lat="42.35762685937366" lon="13.404427479024998"><ele>702.0</ele><time>2026-04-27T15:03:07.999Z</time></trkpt><trkpt lat="42.35763618725019" lon="13.404538058960362"><ele>702.0</ele><time>2026-04-27T15:03:09.999Z</time></trkpt><trkpt lat="42.357612285742356" lon="13.404617459620953"><ele>702.0</ele><time>2026-04-27T15:03:11.999Z</time></trkpt><trkpt lat="42.35755807909412" lon="13.404735427355073"><ele>702.0</ele><time>2026-04-27T15:03:13.999Z</time></trkpt><trkpt lat="42.35748774187623" lon="13.404827829343667"><ele>702.0</ele><time>2026-04-27T15:03:15.999Z</time></trkpt><trkpt lat="42.357422826158746" lon="13.404906490533863"><ele>702.0</ele><time>2026-04-27T15:03:17.999Z</time></trkpt><trkpt lat="42.35733440876539" lon="13.404945349359597"><ele>702.0</ele><time>2026-04-27T15:03:19.999Z</time></trkpt><trkpt lat="42.35727068327344" lon="13.404932902322"><ele>703.2</ele><time>2026-04-27T15:03:20.999Z</time></trkpt><trkpt lat="42.3571927231121" lon="13.404942612467"><ele>704.4000000000001</ele><time>2026-04-27T15:03:21.999Z</time></trkpt><trkpt lat="42.35710238207225" lon="13.404955568307544"><ele>705.5999999999999</ele><time>2026-04-27T15:03:22.999Z</time></trkpt><trkpt lat="42.35700437909189" lon="13.404989208108077"><ele>706.8</ele><time>2026-04-27T15:03:23.999Z</time></trkpt><trkpt lat="42.35691069801763" lon="13.405007631214119"><ele>708.0</ele><time>2026-04-27T15:03:24.999Z</time></trkpt><trkpt lat="42.35682230705785" lon="13.40502808894315"><ele>708.0</ele><time>2026-04-27T15:03:25.999Z</time></trkpt><trkpt lat="42.35673856183202" lon="13.405063640830978"><ele>708.0</ele><time>2026-04-27T15:03:26.999Z</time></trkpt><trkpt lat="42.356659362188154" lon="13.405119761559584"><ele>708.0</ele><time>2026-04-27T15:03:27.999Z</time></trkpt><trkpt lat="42.35657526330535" lon="13.405170175646138"><ele>708.0</ele><time>2026-04-27T15:03:28.999Z</time></trkpt><trkpt lat="42.356499665956434" lon="13.405238586734491"><ele>708.0</ele><time>2026-04-27T15:03:29.999Z</time></trkpt><trkpt lat="42.35641225739279" lon="13.405321550813028"><ele>708.5</ele><time>2026-04-27T15:03:30.999Z</time></trkpt><trkpt lat="42.356320318270306" lon="13.405409326338647"><ele>709.0</ele><time>2026-04-27T15:03:31.999Z</time></trkpt><trkpt lat="42.35624040619266" lon="13.405483046428042"><ele>709.5</ele><time>2026-04-27T15:03:32.999Z</time></trkpt><trkpt lat="42.35617064608073" lon="13.405542854378545"><ele>710.0</ele><time>2026-04-27T15:03:33.999Z</time></trkpt><trkpt lat="42.35610371624342" lon="13.405599540336459"><ele>710.5</ele><time>2026-04-27T15:03:34.999Z</time></trkpt><trkpt lat="42.356049117556" lon="13.405659550451336"><ele>711.0</ele><time>2026-04-27T15:03:35.999Z</time></trkpt><trkpt lat="42.35598394883629" lon="13.40569453771883"><ele>711.1999999999999</ele><time>2026-04-27T15:03:37.999Z</time></trkpt><trkpt lat="42.355923893225736" lon="13.405723074338303"><ele>711.4</ele><time>2026-04-27T15:03:39.999Z</time></trkpt><trkpt lat="42.35582353972762" lon="13.405746289880202"><ele>711.6</ele><time>2026-04-27T15:03:41.999Z</time></trkpt><trkpt lat="42.35576235746962" lon="13.405858957894303"><ele>711.8</ele><time>2026-04-27T15:03:43.999Z</time></trkpt><trkpt lat="42.3557473049225" lon="13.40599213156536"><ele>712.0</ele><time>2026-04-27T15:03:45.999Z</time></trkpt><trkpt lat="42.355784716043566" lon="13.406130888314738"><ele>712.0</ele><time>2026-04-27T15:03:47.999Z</time></trkpt><trkpt lat="42.35579567946082" lon="13.406280972160063"><ele>712.0</ele><time>2026-04-27T15:03:49.999Z</time></trkpt><trkpt lat="42.35578856981424" lon="13.406374364997266"><ele>712.0</ele><time>2026-04-27T15:03:50.999Z</time></trkpt><trkpt lat="42.355761376879315" lon="13.406468642192282"><ele>712.0</ele><time>2026-04-27T15:03:51.999Z</time></trkpt><trkpt lat="42.35572032372405" lon="13.406561066064592"><ele>712.0</ele><time>2026-04-27T15:03:52.999Z</time></trkpt><trkpt lat="42.35564361694906" lon="13.406692578937172"><ele>711.9999999999999</ele><time>2026-04-27T15:03:54.999Z</time></trkpt><trkpt lat="42.35560162538077" lon="13.40675930673891"><ele>712.0</ele><time>2026-04-27T15:03:55.999Z</time></trkpt><trkpt lat="42.35555141521068" lon="13.406827149803993"><ele>712.0</ele><time>2026-04-27T15:03:56.999Z</time></trkpt><trkpt lat="42.35549347126133" lon="13.406871064860871"><ele>712.0</ele><time>2026-04-27T15:03:57.999Z</time></trkpt><trkpt lat="42.355423359281296" lon="13.40690830344695"><ele>712.0</ele><time>2026-04-27T15:03:58.999Z</time></trkpt><trkpt lat="42.35536926099208" lon="13.406952871670924"><ele>711.9999999999999</ele><time>2026-04-27T15:03:59.999Z</time></trkpt><trkpt lat="42.35532069096951" lon="13.407016486916271"><ele>712.0</ele><time>2026-04-27T15:04:00.999Z</time></trkpt><trkpt lat="42.35527418516662" lon="13.407111393642024"><ele>712.0</ele><time>2026-04-27T15:04:01.999Z</time></trkpt><trkpt lat="42.35522676212404" lon="13.407212212424824"><ele>712.0</ele><time>2026-04-27T15:04:02.999Z</time></trkpt><trkpt lat="42.35517333743542" lon="13.407314692895188"><ele>712.0</ele><time>2026-04-27T15:04:03.999Z</time></trkpt><trkpt lat="42.35510781743359" lon="13.407429591544576"><ele>712.0</ele><time>2026-04-27T15:04:04.999Z</time></trkpt><trkpt lat="42.35504355713113" lon="13.407549461124821"><ele>712.0</ele><time>2026-04-27T15:04:05.999Z</time></trkpt><trkpt lat="42.354981746415895" lon="13.40767466665149"><ele>712.0</ele><time>2026-04-27T15:04:06.999Z</time></trkpt><trkpt lat="42.354920638217784" lon="13.407801989884314"><ele>712.0</ele><time>2026-04-27T15:04:07.999Z</time></trkpt><trkpt lat="42.35485575059631" lon="13.407937455174167"><ele>712.0</ele><time>2026-04-27T15:04:08.999Z</time></trkpt><trkpt lat="42.35479091740505" lon="13.4080770843559"><ele>712.0</ele><time>2026-04-27T15:04:09.999Z</time></trkpt><trkpt lat="42.3547263511511" lon="13.408214248247306"><ele>710.75</ele><time>2026-04-27T15:04:10.999Z</time></trkpt><trkpt lat="42.354665742044325" lon="13.408342693119184"><ele>709.5</ele><time>2026-04-27T15:04:11.999Z</time></trkpt><trkpt lat="42.35460004977773" lon="13.408474704337097"><ele>708.25</ele><time>2026-04-27T15:04:12.999Z</time></trkpt><trkpt lat="42.354531189122795" lon="13.408608952594866"><ele>707.0</ele><time>2026-04-27T15:04:13.999Z</time></trkpt><trkpt lat="42.354458758660236" lon="13.408738320006776"><ele>708.75</ele><time>2026-04-27T15:04:14.999Z</time></trkpt><trkpt lat="42.35438356034067" lon="13.408856329614958"><ele>710.5</ele><time>2026-04-27T15:04:15.999Z</time></trkpt><trkpt lat="42.354305828480044" lon="13.408972266212395"><ele>712.25</ele><time>2026-04-27T15:04:16.999Z</time></trkpt><trkpt lat="42.354229917872075" lon="13.409097119973524"><ele>714.0</ele><time>2026-04-27T15:04:17.999Z</time></trkpt><trkpt lat="42.35414913319102" lon="13.409223633807319"><ele>714.0</ele><time>2026-04-27T15:04:18.999Z</time></trkpt><trkpt lat="42.3540589510995" lon="13.409350953307406"><ele>714.0</ele><time>2026-04-27T15:04:19.999Z</time></trkpt><trkpt lat="42.353962572493266" lon="13.409489591185352"><ele>714.0</ele><time>2026-04-27T15:04:20.999Z</time></trkpt><trkpt lat="42.353866982628126" lon="13.409632563571202"><ele>714.0</ele><time>2026-04-27T15:04:21.999Z</time></trkpt><trkpt lat="42.35377297371062" lon="13.40977202359856"><ele>713.75</ele><time>2026-04-27T15:04:22.999Z</time></trkpt><trkpt lat="42.35368498941156" lon="13.40989542020815"><ele>713.5</ele><time>2026-04-27T15:04:23.999Z</time></trkpt><trkpt lat="42.35359905578764" lon="13.410016672816585"><ele>713.25</ele><time>2026-04-27T15:04:24.999Z</time></trkpt><trkpt lat="42.353513342217745" lon="13.410142851464316"><ele>713.0</ele><time>2026-04-27T15:04:25.999Z</time></trkpt><trkpt lat="42.35343810624008" lon="13.410255243512145"><ele>713.0</ele><time>2026-04-27T15:04:26.999Z</time></trkpt><trkpt lat="42.35336761994952" lon="13.410354830814107"><ele>713.0</ele><time>2026-04-27T15:04:27.999Z</time></trkpt><trkpt lat="42.35330146695193" lon="13.410451883519357"><ele>713.0</ele><time>2026-04-27T15:04:28.999Z</time></trkpt><trkpt lat="42.35323024208455" lon="13.410558543699887"><ele>713.0</ele><time>2026-04-27T15:04:29.999Z</time></trkpt><trkpt lat="42.35316168607532" lon="13.410661968420657"><ele>713.0</ele><time>2026-04-27T15:04:30.999Z</time></trkpt><trkpt lat="42.353099843233196" lon="13.410755831456932"><ele>713.1666666666666</ele><time>2026-04-27T15:04:31.999Z</time></trkpt><trkpt lat="42.35303186677797" lon="13.410826206372045"><ele>713.3333333333333</ele><time>2026-04-27T15:04:32.999Z</time></trkpt><trkpt lat="42.35297949593683" lon="13.41090227199179"><ele>713.5</ele><time>2026-04-27T15:04:33.999Z</time></trkpt><trkpt lat="42.35292370127698" lon="13.410983310505886"><ele>713.6666666666666</ele><time>2026-04-27T15:04:34.999Z</time></trkpt><trkpt lat="42.35288007295053" lon="13.41107952350438"><ele>713.8333333333334</ele><time>2026-04-27T15:04:35.999Z</time></trkpt><trkpt lat="42.35282513881648" lon="13.411145255472134"><ele>714.0</ele><time>2026-04-27T15:04:36.999Z</time></trkpt><trkpt lat="42.35277705037185" lon="13.411215109708186"><ele>714.0</ele><time>2026-04-27T15:04:37.999Z</time></trkpt><trkpt lat="42.352703549947805" lon="13.41132360688013"><ele>714.0</ele><time>2026-04-27T15:04:39.999Z</time></trkpt><trkpt lat="42.35265595435272" lon="13.411387976376187"><ele>714.0</ele><time>2026-04-27T15:04:41.999Z</time></trkpt><trkpt lat="42.35261591481362" lon="13.41145637361151"><ele>714.0</ele><time>2026-04-27T15:04:43.999Z</time></trkpt><trkpt lat="42.35256295513514" lon="13.411542224805553"><ele>714.0</ele><time>2026-04-27T15:04:45.999Z</time></trkpt><trkpt lat="42.35249135690026" lon="13.411613617014144"><ele>714.0</ele><time>2026-04-27T15:04:56.999Z</time></trkpt><trkpt lat="42.35240462708442" lon="13.411737161488094"><ele>714.2</ele><time>2026-04-27T15:04:58.999Z</time></trkpt><trkpt lat="42.35235033627498" lon="13.411816507808595"><ele>714.4000000000001</ele><time>2026-04-27T15:04:59.999Z</time></trkpt><trkpt lat="42.35228838120492" lon="13.411909768492436"><ele>714.6</ele><time>2026-04-27T15:05:00.999Z</time></trkpt><trkpt lat="42.352241928465375" lon="13.412017508372342"><ele>714.8</ele><time>2026-04-27T15:05:01.999Z</time></trkpt><trkpt lat="42.35217075015221" lon="13.412117306186893"><ele>715.0</ele><time>2026-04-27T15:05:02.999Z</time></trkpt><trkpt lat="42.35210533326322" lon="13.412223300049869"><ele>715.0</ele><time>2026-04-27T15:05:03.999Z</time></trkpt><trkpt lat="42.35204671737797" lon="13.412329656021184"><ele>715.0</ele><time>2026-04-27T15:05:04.999Z</time></trkpt><trkpt lat="42.35200247255777" lon="13.41244025917266"><ele>715.0</ele><time>2026-04-27T15:05:05.999Z</time></trkpt><trkpt lat="42.35195010187563" lon="13.412562456254"><ele>715.0</ele><time>2026-04-27T15:05:06.999Z</time></trkpt><trkpt lat="42.351950962207056" lon="13.412700334439254"><ele>715.0</ele><time>2026-04-27T15:05:07.999Z</time></trkpt><trkpt lat="42.35198348728703" lon="13.412873714268752"><ele>715.6666666666667</ele><time>2026-04-27T15:05:08.999Z</time></trkpt><trkpt lat="42.35204479696369" lon="13.413056457012571"><ele>716.3333333333334</ele><time>2026-04-27T15:05:09.999Z</time></trkpt><trkpt lat="42.3521150179952" lon="13.413256602367708"><ele>717.0</ele><time>2026-04-27T15:05:10.999Z</time></trkpt><trkpt lat="42.35220531716119" lon="13.413452608514591"><ele>718.0</ele><time>2026-04-27T15:05:11.999Z</time></trkpt><trkpt lat="42.35229910347576" lon="13.413655426379583"><ele>719.0</ele><time>2026-04-27T15:05:12.999Z</time></trkpt><trkpt lat="42.352377008363284" lon="13.413845005144202"><ele>720.0</ele><time>2026-04-27T15:05:13.999Z</time></trkpt><trkpt lat="42.35243234552832" lon="13.414012104331634"><ele>720.0</ele><time>2026-04-27T15:05:14.999Z</time></trkpt><trkpt lat="42.35245836470701" lon="13.414173247233753"><ele>720.0</ele><time>2026-04-27T15:05:15.999Z</time></trkpt><trkpt lat="42.35247000995175" lon="13.414351416936999"><ele>720.0</ele><time>2026-04-27T15:05:16.999Z</time></trkpt><trkpt lat="42.352462607119904" lon="13.414546036044543"><ele>720.0</ele><time>2026-04-27T15:05:17.999Z</time></trkpt><trkpt lat="42.35243683979004" lon="13.414778898980067"><ele>720.3333333333334</ele><time>2026-04-27T15:05:18.999Z</time></trkpt><trkpt lat="42.35237067778849" lon="13.415014454195731"><ele>720.6666666666667</ele><time>2026-04-27T15:05:19.999Z</time></trkpt><trkpt lat="42.3522966856875" lon="13.415244429772287"><ele>721.0</ele><time>2026-04-27T15:05:20.999Z</time></trkpt><trkpt lat="42.35218829867838" lon="13.415453777324243"><ele>722.0</ele><time>2026-04-27T15:05:21.999Z</time></trkpt><trkpt lat="42.352071837600874" lon="13.415657136708855"><ele>723.0</ele><time>2026-04-27T15:05:22.999Z</time></trkpt><trkpt lat="42.351952437196886" lon="13.415861192132224"><ele>724.0</ele><time>2026-04-27T15:05:23.999Z</time></trkpt><trkpt lat="42.351841996908576" lon="13.41607408173346"><ele>724.0</ele><time>2026-04-27T15:05:24.999Z</time></trkpt><trkpt lat="42.35176175738802" lon="13.41630794057632"><ele>724.0</ele><time>2026-04-27T15:05:25.999Z</time></trkpt><trkpt lat="42.35170755768216" lon="13.416550781769965"><ele>724.0</ele><time>2026-04-27T15:05:26.999Z</time></trkpt><trkpt lat="42.35167250863582" lon="13.416808283607786"><ele>725.0</ele><time>2026-04-27T15:05:27.999Z</time></trkpt><trkpt lat="42.351668226576734" lon="13.417071748992647"><ele>726.0</ele><time>2026-04-27T15:05:28.999Z</time></trkpt><trkpt lat="42.351668809299476" lon="13.417339804848691"><ele>727.0</ele><time>2026-04-27T15:05:29.999Z</time></trkpt><trkpt lat="42.35166962508508" lon="13.417614643145479"><ele>728.0</ele><time>2026-04-27T15:05:30.999Z</time></trkpt><trkpt lat="42.35166452201013" lon="13.417859553275745"><ele>729.0</ele><time>2026-04-27T15:05:31.999Z</time></trkpt><trkpt lat="42.35166871887905" lon="13.41808095663122"><ele>730.0</ele><time>2026-04-27T15:05:32.999Z</time></trkpt><trkpt lat="42.35168695928944" lon="13.418254319577683"><ele>730.0</ele><time>2026-04-27T15:05:34Z</time></trkpt><trkpt lat="42.351736115707865" lon="13.418404745712184"><ele>730.0</ele><time>2026-04-27T15:05:35Z</time></trkpt><trkpt lat="42.35180512940668" lon="13.418541841914056"><ele>730.0</ele><time>2026-04-27T15:05:36Z</time></trkpt><trkpt lat="42.351871068915834" lon="13.418633899375353"><ele>730.0</ele><time>2026-04-27T15:05:37Z</time></trkpt><trkpt lat="42.35191346688242" lon="13.41869977463724"><ele>730.0</ele><time>2026-04-27T15:05:38Z</time></trkpt><trkpt lat="42.351944727393644" lon="13.41878502251855"><ele>730.1666666666667</ele><time>2026-04-27T15:05:41Z</time></trkpt><trkpt lat="42.351949717770346" lon="13.41888433430292"><ele>730.3333333333334</ele><time>2026-04-27T15:05:43Z</time></trkpt><trkpt lat="42.35195342212433" lon="13.419018624556088"><ele>730.5</ele><time>2026-04-27T15:05:45Z</time></trkpt><trkpt lat="42.35193562173134" lon="13.419119019728186"><ele>730.6666666666666</ele><time>2026-04-27T15:05:46Z</time></trkpt><trkpt lat="42.35186905402367" lon="13.419218941327783"><ele>730.8333333333333</ele><time>2026-04-27T15:05:47Z</time></trkpt><trkpt lat="42.35187842379686" lon="13.419338053428612"><ele>731.0</ele><time>2026-04-27T15:05:48Z</time></trkpt><trkpt lat="42.351936406038384" lon="13.419458229362148"><ele>731.0</ele><time>2026-04-27T15:05:49Z</time></trkpt><trkpt lat="42.35202307109763" lon="13.419582581768656"><ele>731.0</ele><time>2026-04-27T15:05:50Z</time></trkpt><trkpt lat="42.35210579001838" lon="13.419717542003477"><ele>731.0</ele><time>2026-04-27T15:05:51Z</time></trkpt><trkpt lat="42.35217605512271" lon="13.419859860825579"><ele>731.0</ele><time>2026-04-27T15:05:52Z</time></trkpt><trkpt lat="42.352194892585764" lon="13.42000571705483"><ele>731.5</ele><time>2026-04-27T15:05:53Z</time></trkpt><trkpt lat="42.35217639455323" lon="13.420154143568972"><ele>732.0</ele><time>2026-04-27T15:05:54Z</time></trkpt><trkpt lat="42.352170612742725" lon="13.420319338682102"><ele>732.5</ele><time>2026-04-27T15:05:55Z</time></trkpt><trkpt lat="42.35218002106332" lon="13.420482911639967"><ele>733.0</ele><time>2026-04-27T15:05:56Z</time></trkpt><trkpt lat="42.3521926719214" lon="13.420639132802677"><ele>735.0</ele><time>2026-04-27T15:05:57Z</time></trkpt><trkpt lat="42.35223433874629" lon="13.42080441354313"><ele>737.0</ele><time>2026-04-27T15:05:58Z</time></trkpt><trkpt lat="42.35228735737702" lon="13.420981172445158"><ele>739.0</ele><time>2026-04-27T15:05:59Z</time></trkpt><trkpt lat="42.35233812258468" lon="13.421165632679116"><ele>741.0</ele><time>2026-04-27T15:06:00Z</time></trkpt><trkpt lat="42.3523872796019" lon="13.421353835675319"><ele>741.75</ele><time>2026-04-27T15:06:01Z</time></trkpt><trkpt lat="42.352418783498656" lon="13.421540190489159"><ele>742.5</ele><time>2026-04-27T15:06:02Z</time></trkpt><trkpt lat="42.352417688081054" lon="13.42171983721424"><ele>743.25</ele><time>2026-04-27T15:06:03Z</time></trkpt><trkpt lat="42.352360709822975" lon="13.421880105552518"><ele>744.0</ele><time>2026-04-27T15:06:04Z</time></trkpt><trkpt lat="42.35235217308794" lon="13.422063999187309"><ele>741.6666666666666</ele><time>2026-04-27T15:06:05Z</time></trkpt><trkpt lat="42.35233919628761" lon="13.42224116548562"><ele>739.3333333333333</ele><time>2026-04-27T15:06:06Z</time></trkpt><trkpt lat="42.352353042635976" lon="13.422448457909569"><ele>737.0</ele><time>2026-04-27T15:06:07Z</time></trkpt><trkpt lat="42.352375471968976" lon="13.422676440337982"><ele>737.0</ele><time>2026-04-27T15:06:08Z</time></trkpt><trkpt lat="42.35240541630206" lon="13.422880787143765"><ele>737.0</ele><time>2026-04-27T15:06:09Z</time></trkpt><trkpt lat="42.352418085342926" lon="13.42309445227142"><ele>737.0</ele><time>2026-04-27T15:06:10Z</time></trkpt><trkpt lat="42.35243874866702" lon="13.423298127092265"><ele>734.5</ele><time>2026-04-27T15:06:11Z</time></trkpt><trkpt lat="42.35245361600973" lon="13.423493569927654"><ele>732.0</ele><time>2026-04-27T15:06:12Z</time></trkpt><trkpt lat="42.35242256846955" lon="13.423679809680857"><ele>729.5</ele><time>2026-04-27T15:06:13Z</time></trkpt><trkpt lat="42.35239072527571" lon="13.423874805319727"><ele>727.0</ele><time>2026-04-27T15:06:14Z</time></trkpt><trkpt lat="42.35234928796999" lon="13.424081574614581"><ele>725.0</ele><time>2026-04-27T15:06:15Z</time></trkpt><trkpt lat="42.35230857488765" lon="13.424286316542869"><ele>723.0</ele><time>2026-04-27T15:06:16Z</time></trkpt><trkpt lat="42.35227728841438" lon="13.4244994314494"><ele>721.0</ele><time>2026-04-27T15:06:17Z</time></trkpt><trkpt lat="42.35223490763586" lon="13.42471126067654"><ele>719.25</ele><time>2026-04-27T15:06:18Z</time></trkpt><trkpt lat="42.35218875975816" lon="13.424908034197804"><ele>717.5</ele><time>2026-04-27T15:06:19Z</time></trkpt><trkpt lat="42.35211777379197" lon="13.42508020984797"><ele>715.75</ele><time>2026-04-27T15:06:20Z</time></trkpt><trkpt lat="42.35203157325396" lon="13.425241111379359"><ele>714.0</ele><time>2026-04-27T15:06:21Z</time></trkpt><trkpt lat="42.35194126119521" lon="13.425413612335257"><ele>715.3333333333334</ele><time>2026-04-27T15:06:22Z</time></trkpt><trkpt lat="42.351869380866596" lon="13.425592870351496"><ele>716.6666666666667</ele><time>2026-04-27T15:06:23Z</time></trkpt><trkpt lat="42.35178052022915" lon="13.425768657430051"><ele>718.0</ele><time>2026-04-27T15:06:24Z</time></trkpt><trkpt lat="42.35168876395634" lon="13.425932272065337"><ele>718.0</ele><time>2026-04-27T15:06:25Z</time></trkpt><trkpt lat="42.35160443938633" lon="13.426121548929723"><ele>718.0</ele><time>2026-04-27T15:06:26Z</time></trkpt><trkpt lat="42.35153427210176" lon="13.426292106485526"><ele>718.0</ele><time>2026-04-27T15:06:27Z</time></trkpt><trkpt lat="42.351478849120745" lon="13.426472650793489"><ele>720.75</ele><time>2026-04-27T15:06:28Z</time></trkpt><trkpt lat="42.35143542113352" lon="13.42667003191513"><ele>723.5</ele><time>2026-04-27T15:06:29Z</time></trkpt><trkpt lat="42.351406704427454" lon="13.426855350716274"><ele>726.25</ele><time>2026-04-27T15:06:30Z</time></trkpt><trkpt lat="42.3513616996141" lon="13.427049968206498"><ele>729.0</ele><time>2026-04-27T15:06:31Z</time></trkpt><trkpt lat="42.351341646385514" lon="13.427228786104369"><ele>730.2</ele><time>2026-04-27T15:06:32Z</time></trkpt><trkpt lat="42.35132422231469" lon="13.427370680044078"><ele>731.4000000000001</ele><time>2026-04-27T15:06:33Z</time></trkpt><trkpt lat="42.35129120699844" lon="13.427498865112682"><ele>732.6</ele><time>2026-04-27T15:06:34Z</time></trkpt><trkpt lat="42.351239868715545" lon="13.427611362780915"><ele>733.8</ele><time>2026-04-27T15:06:35Z</time></trkpt><trkpt lat="42.351189695472804" lon="13.4277063095171"><ele>735.0</ele><time>2026-04-27T15:06:36Z</time></trkpt><trkpt lat="42.35114543311247" lon="13.427780885817388"><ele>735.0</ele><time>2026-04-27T15:06:37Z</time></trkpt><trkpt lat="42.35110286759934" lon="13.427882410810628"><ele>735.0</ele><time>2026-04-27T15:06:39Z</time></trkpt><trkpt lat="42.35105438369743" lon="13.427942441238628"><ele>735.0</ele><time>2026-04-27T15:06:40Z</time></trkpt><trkpt lat="42.35102189417251" lon="13.428046031403271"><ele>735.0</ele><time>2026-04-27T15:06:41Z</time></trkpt><trkpt lat="42.35102490924092" lon="13.428165756174995"><ele>735.0</ele><time>2026-04-27T15:06:42Z</time></trkpt><trkpt lat="42.35110671169393" lon="13.42824041788156"><ele>735.0</ele><time>2026-04-27T15:06:45Z</time></trkpt><trkpt lat="42.35117318200789" lon="13.4282403460264"><ele>734.2</ele><time>2026-04-27T15:06:46Z</time></trkpt><trkpt lat="42.351234460704426" lon="13.428302388831547"><ele>733.4</ele><time>2026-04-27T15:06:47Z</time></trkpt><trkpt lat="42.351329072990985" lon="13.428354254717629"><ele>732.5999999999999</ele><time>2026-04-27T15:06:48Z</time></trkpt><trkpt lat="42.3514317108108" lon="13.428384100480077"><ele>731.8</ele><time>2026-04-27T15:06:49Z</time></trkpt><trkpt lat="42.35152558975463" lon="13.42842678329097"><ele>731.0</ele><time>2026-04-27T15:06:50Z</time></trkpt><trkpt lat="42.351610531620516" lon="13.428497009055864"><ele>733.0</ele><time>2026-04-27T15:06:51Z</time></trkpt><trkpt lat="42.35167854132686" lon="13.428581051562391"><ele>735.0</ele><time>2026-04-27T15:06:52Z</time></trkpt><trkpt lat="42.35174167667789" lon="13.428708198003054"><ele>737.0</ele><time>2026-04-27T15:06:53Z</time></trkpt><trkpt lat="42.35181979235535" lon="13.42881876268279"><ele>739.0</ele><time>2026-04-27T15:06:54Z</time></trkpt><trkpt lat="42.3518722833586" lon="13.428932203303544"><ele>741.0</ele><time>2026-04-27T15:06:55Z</time></trkpt><trkpt lat="42.351907709701884" lon="13.429015747618768"><ele>741.1999999999999</ele><time>2026-04-27T15:06:56Z</time></trkpt><trkpt lat="42.35186898658445" lon="13.429120655536398"><ele>741.4</ele><time>2026-04-27T15:06:57Z</time></trkpt><trkpt lat="42.3518395878613" lon="13.429224577298314"><ele>741.6</ele><time>2026-04-27T15:06:58Z</time></trkpt><trkpt lat="42.35180595391474" lon="13.42936404677984"><ele>741.8</ele><time>2026-04-27T15:06:59Z</time></trkpt><trkpt lat="42.35173517724987" lon="13.429528708655283"><ele>742.0</ele><time>2026-04-27T15:07:00Z</time></trkpt><trkpt lat="42.3516642537079" lon="13.429698347041835"><ele>742.4000000000001</ele><time>2026-04-27T15:07:01Z</time></trkpt><trkpt lat="42.351589702138234" lon="13.42984955703803"><ele>742.8000000000001</ele><time>2026-04-27T15:07:02Z</time></trkpt><trkpt lat="42.3515148911795" lon="13.429973831077715"><ele>743.2</ele><time>2026-04-27T15:07:03Z</time></trkpt><trkpt lat="42.35144022674207" lon="13.430067158719385"><ele>743.6</ele><time>2026-04-27T15:07:04Z</time></trkpt><trkpt lat="42.35136076704542" lon="13.430125151061397"><ele>744.0</ele><time>2026-04-27T15:07:05Z</time></trkpt><trkpt lat="42.35127082706152" lon="13.430086209195611"><ele>742.0</ele><time>2026-04-27T15:07:06Z</time></trkpt><trkpt lat="42.351184306759514" lon="13.430040323607162"><ele>740.0</ele><time>2026-04-27T15:07:07Z</time></trkpt><trkpt lat="42.351084129676636" lon="13.430006320854481"><ele>738.0</ele><time>2026-04-27T15:07:08Z</time></trkpt><trkpt lat="42.351010378360414" lon="13.429968877716036"><ele>736.0</ele><time>2026-04-27T15:07:09Z</time></trkpt><trkpt lat="42.35094816823402" lon="13.429952830933027"><ele>734.0</ele><time>2026-04-27T15:07:10Z</time></trkpt><trkpt lat="42.3508852128184" lon="13.429949279076926"><ele>732.0</ele><time>2026-04-27T15:07:11Z</time></trkpt><trkpt lat="42.35081599461023" lon="13.429950070891364"><ele>732.0</ele><time>2026-04-27T15:07:12Z</time></trkpt><trkpt lat="42.35072886043803" lon="13.429973818940713"><ele>732.0</ele><time>2026-04-27T15:07:14Z</time></trkpt><trkpt lat="42.35063083422946" lon="13.430047748477543"><ele>732.0</ele><time>2026-04-27T15:07:15.999Z</time></trkpt><trkpt lat="42.350560561104615" lon="13.430113281624637"><ele>732.0</ele><time>2026-04-27T15:07:16.999Z</time></trkpt><trkpt lat="42.350486948604924" lon="13.430202673520782"><ele>732.0</ele><time>2026-04-27T15:07:17.999Z</time></trkpt><trkpt lat="42.35041529897868" lon="13.430316721905804"><ele>731.0</ele><time>2026-04-27T15:07:18.999Z</time></trkpt><trkpt lat="42.35034226527362" lon="13.430453939482828"><ele>730.0</ele><time>2026-04-27T15:07:19.999Z</time></trkpt><trkpt lat="42.35025955862452" lon="13.430595515617107"><ele>729.0</ele><time>2026-04-27T15:07:20.999Z</time></trkpt><trkpt lat="42.35017064296306" lon="13.430729123626389"><ele>728.0</ele><time>2026-04-27T15:07:22Z</time></trkpt><trkpt lat="42.350084495239805" lon="13.430854039193012"><ele>728.0</ele><time>2026-04-27T15:07:23Z</time></trkpt><trkpt lat="42.34999236326775" lon="13.430947261889099"><ele>728.0</ele><time>2026-04-27T15:07:24Z</time></trkpt><trkpt lat="42.349885750725505" lon="13.43099255818922"><ele>728.0</ele><time>2026-04-27T15:07:25Z</time></trkpt><trkpt lat="42.349779476977055" lon="13.431037029988895"><ele>728.0</ele><time>2026-04-27T15:07:26Z</time></trkpt><trkpt lat="42.349659496829155" lon="13.431057668606467"><ele>726.25</ele><time>2026-04-27T15:07:27Z</time></trkpt><trkpt lat="42.349529654109155" lon="13.431051873879541"><ele>724.5</ele><time>2026-04-27T15:07:28Z</time></trkpt><trkpt lat="42.349414312575654" lon="13.430998714525577"><ele>722.75</ele><time>2026-04-27T15:07:29Z</time></trkpt><trkpt lat="42.34929956622086" lon="13.430985650054039"><ele>721.0</ele><time>2026-04-27T15:07:30Z</time></trkpt><trkpt lat="42.349200365294195" lon="13.43102861595493"><ele>721.0</ele><time>2026-04-27T15:07:31Z</time></trkpt><trkpt lat="42.3490929083126" lon="13.431082468236577"><ele>721.0</ele><time>2026-04-27T15:07:32Z</time></trkpt><trkpt lat="42.34897239025051" lon="13.431148236339336"><ele>721.0</ele><time>2026-04-27T15:07:33Z</time></trkpt><trkpt lat="42.34884267111811" lon="13.431213378743308"><ele>721.0</ele><time>2026-04-27T15:07:34Z</time></trkpt><trkpt lat="42.34871601860859" lon="13.431309793609804"><ele>721.0</ele><time>2026-04-27T15:07:35Z</time></trkpt><trkpt lat="42.34858656366167" lon="13.43141010382571"><ele>721.0</ele><time>2026-04-27T15:07:36Z</time></trkpt><trkpt lat="42.3484450734305" lon="13.431484818726899"><ele>721.0</ele><time>2026-04-27T15:07:37Z</time></trkpt><trkpt lat="42.34831025561194" lon="13.431550642121872"><ele>721.0</ele><time>2026-04-27T15:07:38Z</time></trkpt><trkpt lat="42.34818405869279" lon="13.431620483893422"><ele>718.5</ele><time>2026-04-27T15:07:39Z</time></trkpt><trkpt lat="42.34803714563434" lon="13.431662526407958"><ele>716.0</ele><time>2026-04-27T15:07:40Z</time></trkpt><trkpt lat="42.347900033188665" lon="13.43172656931401"><ele>713.5</ele><time>2026-04-27T15:07:41Z</time></trkpt><trkpt lat="42.34776514914035" lon="13.43180579304332"><ele>711.0</ele><time>2026-04-27T15:07:42Z</time></trkpt><trkpt lat="42.34762325678712" lon="13.431894358960315"><ele>711.0</ele><time>2026-04-27T15:07:43Z</time></trkpt><trkpt lat="42.34747744356093" lon="13.431976326534908"><ele>711.0</ele><time>2026-04-27T15:07:44Z</time></trkpt><trkpt lat="42.3473300343062" lon="13.432061090148277"><ele>711.0</ele><time>2026-04-27T15:07:45Z</time></trkpt><trkpt lat="42.34719037526475" lon="13.432140851166123"><ele>711.5</ele><time>2026-04-27T15:07:46Z</time></trkpt><trkpt lat="42.34705728342475" lon="13.4322207374324"><ele>712.0</ele><time>2026-04-27T15:07:47Z</time></trkpt><trkpt lat="42.34692764060315" lon="13.432298092065274"><ele>712.5</ele><time>2026-04-27T15:07:48Z</time></trkpt><trkpt lat="42.346793666224535" lon="13.432395128606348"><ele>713.0</ele><time>2026-04-27T15:07:49Z</time></trkpt><trkpt lat="42.34666146782212" lon="13.432513858860347"><ele>713.0</ele><time>2026-04-27T15:07:50Z</time></trkpt><trkpt lat="42.34653025082339" lon="13.43265268279818"><ele>713.0</ele><time>2026-04-27T15:07:51Z</time></trkpt><trkpt lat="42.34638342245542" lon="13.43279946613662"><ele>713.0</ele><time>2026-04-27T15:07:52Z</time></trkpt><trkpt lat="42.346237575277264" lon="13.432932740458378"><ele>713.3333333333333</ele><time>2026-04-27T15:07:53Z</time></trkpt><trkpt lat="42.34608259567242" lon="13.43304140848229"><ele>713.6666666666666</ele><time>2026-04-27T15:07:54Z</time></trkpt><trkpt lat="42.345947677177286" lon="13.433121211849764"><ele>714.0</ele><time>2026-04-27T15:07:55Z</time></trkpt><trkpt lat="42.345813598215045" lon="13.433156402567628"><ele>714.0</ele><time>2026-04-27T15:07:56Z</time></trkpt><trkpt lat="42.34569991090346" lon="13.433210409261738"><ele>714.0</ele><time>2026-04-27T15:07:57Z</time></trkpt><trkpt lat="42.34559071422012" lon="13.433244420760703"><ele>714.0</ele><time>2026-04-27T15:07:58Z</time></trkpt><trkpt lat="42.34548062709688" lon="13.433263852798447"><ele>714.0</ele><time>2026-04-27T15:07:59Z</time></trkpt><trkpt lat="42.34540188206109" lon="13.433519823039097"><ele>712.6</ele><time>2026-04-27T15:08:00Z</time></trkpt><trkpt lat="42.34532321538869" lon="13.433602987509783"><ele>711.2</ele><time>2026-04-27T15:08:01Z</time></trkpt><trkpt lat="42.3452490574496" lon="13.433707757132128"><ele>709.8000000000001</ele><time>2026-04-27T15:08:02Z</time></trkpt><trkpt lat="42.34518333102747" lon="13.433819078441013"><ele>708.4000000000001</ele><time>2026-04-27T15:08:03Z</time></trkpt><trkpt lat="42.345102200853255" lon="13.433963638014538"><ele>707.0</ele><time>2026-04-27T15:08:04Z</time></trkpt><trkpt lat="42.34502094719143" lon="13.434126607747856"><ele>707.0</ele><time>2026-04-27T15:08:05Z</time></trkpt><trkpt lat="42.34494182984716" lon="13.434297242975234"><ele>707.0</ele><time>2026-04-27T15:08:06Z</time></trkpt><trkpt lat="42.34486504465601" lon="13.434485259393664"><ele>707.0</ele><time>2026-04-27T15:08:07Z</time></trkpt><trkpt lat="42.3447833669014" lon="13.434671804496027"><ele>703.75</ele><time>2026-04-27T15:08:08Z</time></trkpt><trkpt lat="42.344710632312655" lon="13.434848516421624"><ele>700.5</ele><time>2026-04-27T15:08:09Z</time></trkpt><trkpt lat="42.34464754975572" lon="13.43500953077001"><ele>697.25</ele><time>2026-04-27T15:08:10Z</time></trkpt><trkpt lat="42.34458039654095" lon="13.435176203984918"><ele>694.0</ele><time>2026-04-27T15:08:11Z</time></trkpt><trkpt lat="42.344511379015074" lon="13.435349510128846"><ele>694.6</ele><time>2026-04-27T15:08:12Z</time></trkpt><trkpt lat="42.34444973323389" lon="13.435502135511065"><ele>695.2</ele><time>2026-04-27T15:08:13Z</time></trkpt><trkpt lat="42.34439704819631" lon="13.435651569928435"><ele>695.8000000000001</ele><time>2026-04-27T15:08:14Z</time></trkpt><trkpt lat="42.34433874472122" lon="13.43576226797315"><ele>696.4000000000001</ele><time>2026-04-27T15:08:15Z</time></trkpt><trkpt lat="42.34428643438944" lon="13.43587267454221"><ele>697.0</ele><time>2026-04-27T15:08:16Z</time></trkpt><trkpt lat="42.34426591318777" lon="13.435976474027218"><ele>697.0</ele><time>2026-04-27T15:08:17Z</time></trkpt><trkpt lat="42.34426577848824" lon="13.436092729692938"><ele>697.0</ele><time>2026-04-27T15:08:18Z</time></trkpt><trkpt lat="42.34426554702866" lon="13.436252497072076"><ele>697.0</ele><time>2026-04-27T15:08:19Z</time></trkpt><trkpt lat="42.34424250285938" lon="13.436436758736628"><ele>697.0</ele><time>2026-04-27T15:08:20Z</time></trkpt><trkpt lat="42.34422625620425" lon="13.436631536162885"><ele>696.8</ele><time>2026-04-27T15:08:21Z</time></trkpt><trkpt lat="42.34421694798311" lon="13.436800291972316"><ele>696.6</ele><time>2026-04-27T15:08:22Z</time></trkpt><trkpt lat="42.34420541192317" lon="13.436937173670877"><ele>696.4</ele><time>2026-04-27T15:08:23Z</time></trkpt><trkpt lat="42.3441697180332" lon="13.437059494279394"><ele>696.1999999999999</ele><time>2026-04-27T15:08:24Z</time></trkpt><trkpt lat="42.3441170837579" lon="13.437175055806659"><ele>696.0</ele><time>2026-04-27T15:08:25Z</time></trkpt><trkpt lat="42.344082546869195" lon="13.437275679506708"><ele>697.4</ele><time>2026-04-27T15:08:26Z</time></trkpt><trkpt lat="42.34406613440995" lon="13.437376107475055"><ele>698.8</ele><time>2026-04-27T15:08:27Z</time></trkpt><trkpt lat="42.344066163409536" lon="13.437501469703214"><ele>700.1999999999999</ele><time>2026-04-27T15:08:28Z</time></trkpt><trkpt lat="42.34405771944742" lon="13.437645330818931"><ele>701.5999999999999</ele><time>2026-04-27T15:08:29Z</time></trkpt><trkpt lat="42.344025213020025" lon="13.437805885529073"><ele>703.0</ele><time>2026-04-27T15:08:30Z</time></trkpt><trkpt lat="42.34399729010023" lon="13.437964486320345"><ele>705.0</ele><time>2026-04-27T15:08:31Z</time></trkpt><trkpt lat="42.3439733132289" lon="13.438157598796385"><ele>707.0</ele><time>2026-04-27T15:08:32Z</time></trkpt><trkpt lat="42.34394487067044" lon="13.438341761598272"><ele>709.0</ele><time>2026-04-27T15:08:33Z</time></trkpt><trkpt lat="42.34391427933549" lon="13.43852009073303"><ele>711.0</ele><time>2026-04-27T15:08:34Z</time></trkpt><trkpt lat="42.343891832235954" lon="13.438662340680075"><ele>708.0</ele><time>2026-04-27T15:08:35Z</time></trkpt><trkpt lat="42.34385034564185" lon="13.43877003747446"><ele>705.0</ele><time>2026-04-27T15:08:36Z</time></trkpt><trkpt lat="42.343789190348645" lon="13.438886482634643"><ele>702.0</ele><time>2026-04-27T15:08:37Z</time></trkpt><trkpt lat="42.34371939231976" lon="13.438983613805839"><ele>699.0</ele><time>2026-04-27T15:08:38Z</time></trkpt><trkpt lat="42.343650573837294" lon="13.439034576385962"><ele>696.0</ele><time>2026-04-27T15:08:39Z</time></trkpt><trkpt lat="42.34356898508334" lon="13.439072832161077"><ele>696.0</ele><time>2026-04-27T15:08:40Z</time></trkpt><trkpt lat="42.343484298293575" lon="13.439151003351773"><ele>696.0</ele><time>2026-04-27T15:08:41Z</time></trkpt><trkpt lat="42.343409169388586" lon="13.439255179644494"><ele>696.0</ele><time>2026-04-27T15:08:42Z</time></trkpt><trkpt lat="42.343331237987385" lon="13.439373136536853"><ele>696.0</ele><time>2026-04-27T15:08:43Z</time></trkpt><trkpt lat="42.3432620798843" lon="13.439460278939347"><ele>696.0</ele><time>2026-04-27T15:08:44Z</time></trkpt><trkpt lat="42.34318577046852" lon="13.439552351853191"><ele>695.6666666666666</ele><time>2026-04-27T15:08:45Z</time></trkpt><trkpt lat="42.34311865355054" lon="13.439651666319797"><ele>695.3333333333334</ele><time>2026-04-27T15:08:46Z</time></trkpt><trkpt lat="42.343051773162856" lon="13.439749643118978"><ele>695.0</ele><time>2026-04-27T15:08:47Z</time></trkpt><trkpt lat="42.34298510459622" lon="13.439807014351082"><ele>694.6666666666667</ele><time>2026-04-27T15:08:48Z</time></trkpt><trkpt lat="42.342918217602154" lon="13.439864400492905"><ele>694.3333333333334</ele><time>2026-04-27T15:08:49Z</time></trkpt><trkpt lat="42.34284879503686" lon="13.43988836488036"><ele>694.0</ele><time>2026-04-27T15:08:50Z</time></trkpt><trkpt lat="42.34276766537929" lon="13.439905843413735"><ele>694.0</ele><time>2026-04-27T15:08:51Z</time></trkpt><trkpt lat="42.34267724193681" lon="13.439904397261088"><ele>694.0</ele><time>2026-04-27T15:08:52Z</time></trkpt><trkpt lat="42.34257151492493" lon="13.43989022571622"><ele>694.0</ele><time>2026-04-27T15:08:53Z</time></trkpt><trkpt lat="42.34247417195937" lon="13.439867139979004"><ele>694.0</ele><time>2026-04-27T15:08:54Z</time></trkpt><trkpt lat="42.34238394640122" lon="13.439873982794158"><ele>694.0</ele><time>2026-04-27T15:08:55Z</time></trkpt><trkpt lat="42.34231394802615" lon="13.439898705365591"><ele>694.0</ele><time>2026-04-27T15:08:56Z</time></trkpt><trkpt lat="42.34224251526827" lon="13.439962823857618"><ele>694.0</ele><time>2026-04-27T15:08:57Z</time></trkpt><trkpt lat="42.34215939420371" lon="13.440027263335207"><ele>694.0</ele><time>2026-04-27T15:08:58Z</time></trkpt><trkpt lat="42.34209043891765" lon="13.440075496724761"><ele>694.0</ele><time>2026-04-27T15:08:59Z</time></trkpt><trkpt lat="42.342014077298344" lon="13.440083452785508"><ele>694.0</ele><time>2026-04-27T15:09:00Z</time></trkpt><trkpt lat="42.341906301546885" lon="13.440114690999904"><ele>694.0</ele><time>2026-04-27T15:09:01Z</time></trkpt><trkpt lat="42.34179231833358" lon="13.440158235687253"><ele>692.0</ele><time>2026-04-27T15:09:02Z</time></trkpt><trkpt lat="42.34168774012545" lon="13.44020316719705"><ele>690.0</ele><time>2026-04-27T15:09:03Z</time></trkpt><trkpt lat="42.34160157030984" lon="13.440230182117839"><ele>688.0</ele><time>2026-04-27T15:09:04Z</time></trkpt><trkpt lat="42.34149727884655" lon="13.440246032867005"><ele>686.0</ele><time>2026-04-27T15:09:05Z</time></trkpt><trkpt lat="42.34141402489218" lon="13.440243554470687"><ele>684.0</ele><time>2026-04-27T15:09:06Z</time></trkpt><trkpt lat="42.341344616196075" lon="13.44022602348086"><ele>682.1666666666666</ele><time>2026-04-27T15:09:07Z</time></trkpt><trkpt lat="42.34126428871551" lon="13.440193140168297"><ele>680.3333333333334</ele><time>2026-04-27T15:09:08Z</time></trkpt><trkpt lat="42.34117928116378" lon="13.4401795585911"><ele>678.5</ele><time>2026-04-27T15:09:09Z</time></trkpt><trkpt lat="42.34111031741015" lon="13.440196559122956"><ele>676.6666666666667</ele><time>2026-04-27T15:09:10Z</time></trkpt><trkpt lat="42.34104794555026" lon="13.440220851641447"><ele>674.8333333333334</ele><time>2026-04-27T15:09:11Z</time></trkpt><trkpt lat="42.34098437622519" lon="13.44026733085619"><ele>673.0</ele><time>2026-04-27T15:09:12Z</time></trkpt><trkpt lat="42.3409078456946" lon="13.44032148115109"><ele>673.0</ele><time>2026-04-27T15:09:13Z</time></trkpt><trkpt lat="42.34081092465833" lon="13.440362499949686"><ele>673.0</ele><time>2026-04-27T15:09:14Z</time></trkpt><trkpt lat="42.34071644942243" lon="13.440407971589892"><ele>673.0</ele><time>2026-04-27T15:09:15Z</time></trkpt><trkpt lat="42.340641645997664" lon="13.440456194960161"><ele>673.0</ele><time>2026-04-27T15:09:16Z</time></trkpt><trkpt lat="42.34056265899576" lon="13.44049467484712"><ele>673.0</ele><time>2026-04-27T15:09:17Z</time></trkpt><trkpt lat="42.34048784198633" lon="13.440534933545091"><ele>673.0</ele><time>2026-04-27T15:09:18Z</time></trkpt><trkpt lat="42.34041945244058" lon="13.440576749676456"><ele>670.0</ele><time>2026-04-27T15:09:19Z</time></trkpt><trkpt lat="42.34036771962804" lon="13.440640302651557"><ele>667.0</ele><time>2026-04-27T15:09:20Z</time></trkpt><trkpt lat="42.34032596684903" lon="13.440819156775891"><ele>664.0</ele><time>2026-04-27T15:09:22Z</time></trkpt><trkpt lat="42.3403008296015" lon="13.440960735057976"><ele>661.0</ele><time>2026-04-27T15:09:23Z</time></trkpt><trkpt lat="42.34026791143798" lon="13.441149718759569"><ele>659.75</ele><time>2026-04-27T15:09:24Z</time></trkpt><trkpt lat="42.34024143829044" lon="13.441355917491187"><ele>658.5</ele><time>2026-04-27T15:09:25Z</time></trkpt><trkpt lat="42.340204837510505" lon="13.441540462085952"><ele>657.25</ele><time>2026-04-27T15:09:26Z</time></trkpt><trkpt lat="42.34016761087815" lon="13.441716071006399"><ele>656.0</ele><time>2026-04-27T15:09:27Z</time></trkpt><trkpt lat="42.34012857226294" lon="13.441886038547535"><ele>656.0</ele><time>2026-04-27T15:09:28Z</time></trkpt><trkpt lat="42.340073444574415" lon="13.442055108302887"><ele>656.0</ele><time>2026-04-27T15:09:29Z</time></trkpt><trkpt lat="42.3400134938765" lon="13.442244862000614"><ele>656.0</ele><time>2026-04-27T15:09:30Z</time></trkpt><trkpt lat="42.33996609058118" lon="13.442415468160682"><ele>656.0</ele><time>2026-04-27T15:09:31Z</time></trkpt><trkpt lat="42.339925714739394" lon="13.44259536988009"><ele>655.25</ele><time>2026-04-27T15:09:32Z</time></trkpt><trkpt lat="42.339882098628635" lon="13.442789753087887"><ele>654.5</ele><time>2026-04-27T15:09:33Z</time></trkpt><trkpt lat="42.339849456075115" lon="13.442962241357412"><ele>653.75</ele><time>2026-04-27T15:09:34Z</time></trkpt><trkpt lat="42.339819295644446" lon="13.443109015779621"><ele>653.0</ele><time>2026-04-27T15:09:35Z</time></trkpt><trkpt lat="42.33976575909688" lon="13.443251455044116"><ele>650.75</ele><time>2026-04-27T15:09:36Z</time></trkpt><trkpt lat="42.339695085829234" lon="13.44338548416478"><ele>648.5</ele><time>2026-04-27T15:09:37Z</time></trkpt><trkpt lat="42.33961967264593" lon="13.443476430787168"><ele>646.25</ele><time>2026-04-27T15:09:38Z</time></trkpt><trkpt lat="42.33951746243312" lon="13.443575305287435"><ele>644.0</ele><time>2026-04-27T15:09:39Z</time></trkpt><trkpt lat="42.33939566612914" lon="13.443684831519828"><ele>646.25</ele><time>2026-04-27T15:09:40Z</time></trkpt><trkpt lat="42.33927139113424" lon="13.443820388645799"><ele>648.5</ele><time>2026-04-27T15:09:41Z</time></trkpt><trkpt lat="42.33916285514477" lon="13.443950097880547"><ele>650.75</ele><time>2026-04-27T15:09:42Z</time></trkpt><trkpt lat="42.339081194098" lon="13.444065136588383"><ele>653.0</ele><time>2026-04-27T15:09:43Z</time></trkpt><trkpt lat="42.33902185628104" lon="13.44418493925964"><ele>653.0</ele><time>2026-04-27T15:09:44Z</time></trkpt><trkpt lat="42.338993396996266" lon="13.444298391245683"><ele>653.0</ele><time>2026-04-27T15:09:45Z</time></trkpt><trkpt lat="42.33897947649958" lon="13.444424921931478"><ele>653.0</ele><time>2026-04-27T15:09:46Z</time></trkpt><trkpt lat="42.338988894830564" lon="13.444539706851286"><ele>653.0</ele><time>2026-04-27T15:09:47Z</time></trkpt><trkpt lat="42.339005330590595" lon="13.444682798860176"><ele>653.0</ele><time>2026-04-27T15:09:48Z</time></trkpt><trkpt lat="42.33901598961646" lon="13.444849577425217"><ele>652.75</ele><time>2026-04-27T15:09:49Z</time></trkpt><trkpt lat="42.3390046457167" lon="13.445027613226785"><ele>652.5</ele><time>2026-04-27T15:09:50Z</time></trkpt><trkpt lat="42.338975188014196" lon="13.44521670101752"><ele>652.25</ele><time>2026-04-27T15:09:51Z</time></trkpt><trkpt lat="42.33893951475091" lon="13.445419415883851"><ele>652.0</ele><time>2026-04-27T15:09:52Z</time></trkpt><trkpt lat="42.33889878183846" lon="13.445633968052354"><ele>646.6666666666667</ele><time>2026-04-27T15:09:53Z</time></trkpt><trkpt lat="42.33885644096628" lon="13.445836779137782"><ele>641.3333333333334</ele><time>2026-04-27T15:09:54Z</time></trkpt><trkpt lat="42.33879896900618" lon="13.446016053390565"><ele>636.0</ele><time>2026-04-27T15:09:55Z</time></trkpt><trkpt lat="42.338717436232784" lon="13.446201212476511"><ele>637.3333333333334</ele><time>2026-04-27T15:09:56Z</time></trkpt><trkpt lat="42.33862971326687" lon="13.446387024223656"><ele>638.6666666666667</ele><time>2026-04-27T15:09:57Z</time></trkpt><trkpt lat="42.33855602988836" lon="13.44656194131115"><ele>640.0</ele><time>2026-04-27T15:09:58Z</time></trkpt><trkpt lat="42.338490187624046" lon="13.446748391705443"><ele>640.0</ele><time>2026-04-27T15:09:59Z</time></trkpt><trkpt lat="42.33843362446839" lon="13.44694411515127"><ele>640.0</ele><time>2026-04-27T15:10:00Z</time></trkpt><trkpt lat="42.33838895769058" lon="13.447115174696028"><ele>640.0</ele><time>2026-04-27T15:10:01Z</time></trkpt><trkpt lat="42.33834193110441" lon="13.447282173857458"><ele>640.0</ele><time>2026-04-27T15:10:02Z</time></trkpt><trkpt lat="42.338296055997816" lon="13.44744404721834"><ele>640.25</ele><time>2026-04-27T15:10:03Z</time></trkpt><trkpt lat="42.338252647727174" lon="13.447598879303385"><ele>640.5</ele><time>2026-04-27T15:10:04Z</time></trkpt><trkpt lat="42.33821166262926" lon="13.447754521911508"><ele>640.75</ele><time>2026-04-27T15:10:05Z</time></trkpt><trkpt lat="42.338165711115664" lon="13.447928411870857"><ele>641.0</ele><time>2026-04-27T15:10:06Z</time></trkpt><trkpt lat="42.33811575186709" lon="13.448113255277677"><ele>641.0</ele><time>2026-04-27T15:10:07Z</time></trkpt><trkpt lat="42.33806421668667" lon="13.448306854689974"><ele>641.0</ele><time>2026-04-27T15:10:08Z</time></trkpt><trkpt lat="42.33799970744911" lon="13.44851116507942"><ele>641.0</ele><time>2026-04-27T15:10:09Z</time></trkpt><trkpt lat="42.337950036127914" lon="13.448701810449407"><ele>637.0</ele><time>2026-04-27T15:10:10Z</time></trkpt><trkpt lat="42.337895027985" lon="13.448871939075447"><ele>633.0</ele><time>2026-04-27T15:10:11Z</time></trkpt><trkpt lat="42.33784664344036" lon="13.44904875947069"><ele>629.0</ele><time>2026-04-27T15:10:12Z</time></trkpt><trkpt lat="42.33780623054567" lon="13.44920965595162"><ele>625.0</ele><time>2026-04-27T15:10:13Z</time></trkpt><trkpt lat="42.33778085583913" lon="13.449374190218483"><ele>625.0</ele><time>2026-04-27T15:10:14Z</time></trkpt><trkpt lat="42.33776508375808" lon="13.449546061499973"><ele>625.0</ele><time>2026-04-27T15:10:15Z</time></trkpt><trkpt lat="42.33776442828124" lon="13.449716581579537"><ele>625.0</ele><time>2026-04-27T15:10:16Z</time></trkpt><trkpt lat="42.33778935101745" lon="13.449922289704851"><ele>625.0</ele><time>2026-04-27T15:10:17Z</time></trkpt><trkpt lat="42.33781414946046" lon="13.450131536280152"><ele>624.6666666666667</ele><time>2026-04-27T15:10:18Z</time></trkpt><trkpt lat="42.337838522736995" lon="13.450343361739932"><ele>624.3333333333334</ele><time>2026-04-27T15:10:19Z</time></trkpt><trkpt lat="42.337851265044094" lon="13.450543785926119"><ele>624.0</ele><time>2026-04-27T15:10:20Z</time></trkpt><trkpt lat="42.337866759970275" lon="13.45075200630036"><ele>623.5</ele><time>2026-04-27T15:10:21Z</time></trkpt><trkpt lat="42.337870505262735" lon="13.450961689143556"><ele>623.0</ele><time>2026-04-27T15:10:22Z</time></trkpt><trkpt lat="42.33787635344297" lon="13.451163987524891"><ele>622.5</ele><time>2026-04-27T15:10:23Z</time></trkpt><trkpt lat="42.337886539166014" lon="13.451358786663013"><ele>622.0</ele><time>2026-04-27T15:10:24Z</time></trkpt><trkpt lat="42.337898509015915" lon="13.451548539611908"><ele>621.5</ele><time>2026-04-27T15:10:25Z</time></trkpt><trkpt lat="42.3379123213236" lon="13.451736928035162"><ele>621.0</ele><time>2026-04-27T15:10:26Z</time></trkpt><trkpt lat="42.337921681642676" lon="13.451934623616145"><ele>620.5</ele><time>2026-04-27T15:10:27Z</time></trkpt><trkpt lat="42.33793264883524" lon="13.452117234590709"><ele>620.0</ele><time>2026-04-27T15:10:28Z</time></trkpt><trkpt lat="42.33794082272105" lon="13.452283352321071"><ele>619.2</ele><time>2026-04-27T15:10:29Z</time></trkpt><trkpt lat="42.33794899002152" lon="13.45243186977758"><ele>618.4</ele><time>2026-04-27T15:10:30Z</time></trkpt><trkpt lat="42.33795922970947" lon="13.45257601837218"><ele>617.6</ele><time>2026-04-27T15:10:31Z</time></trkpt><trkpt lat="42.33792618555886" lon="13.452712727246176"><ele>616.8</ele><time>2026-04-27T15:10:32Z</time></trkpt><trkpt lat="42.33793708663268" lon="13.452805478093415"><ele>616.0</ele><time>2026-04-27T15:10:33Z</time></trkpt><trkpt lat="42.33794435070476" lon="13.452930938173376"><ele>615.25</ele><time>2026-04-27T15:10:35Z</time></trkpt><trkpt lat="42.33795259421934" lon="13.45307331769675"><ele>614.5</ele><time>2026-04-27T15:10:37Z</time></trkpt><trkpt lat="42.33813520320799" lon="13.45321783121828"><ele>613.75</ele><time>2026-04-27T15:10:39Z</time></trkpt><trkpt lat="42.33814862507389" lon="13.453333269303558"><ele>613.0</ele><time>2026-04-27T15:10:40Z</time></trkpt><trkpt lat="42.3381644871382" lon="13.453458034507127"><ele>615.3333333333334</ele><time>2026-04-27T15:10:41Z</time></trkpt><trkpt lat="42.338178847591614" lon="13.453553825183365"><ele>617.6666666666667</ele><time>2026-04-27T15:10:42Z</time></trkpt><trkpt lat="42.338196033325666" lon="13.453638505370723"><ele>620.0</ele><time>2026-04-27T15:10:43Z</time></trkpt><trkpt lat="42.338208104266684" lon="13.453735256521258"><ele>622.3333333333334</ele><time>2026-04-27T15:10:44Z</time></trkpt><trkpt lat="42.3382355357151" lon="13.453864611785965"><ele>624.6666666666666</ele><time>2026-04-27T15:10:45Z</time></trkpt><trkpt lat="42.33824707656216" lon="13.453996185127721"><ele>627.0</ele><time>2026-04-27T15:10:46Z</time></trkpt><trkpt lat="42.33826143801859" lon="13.454140522149007"><ele>627.0</ele><time>2026-04-27T15:10:47Z</time></trkpt><trkpt lat="42.33814948135475" lon="13.454281198717394"><ele>627.0</ele><time>2026-04-27T15:10:48Z</time></trkpt><trkpt lat="42.33812975205997" lon="13.454406537234552"><ele>627.0</ele><time>2026-04-27T15:10:49Z</time></trkpt><trkpt lat="42.338115625969614" lon="13.45451217745736"><ele>627.0</ele><time>2026-04-27T15:10:50Z</time></trkpt><trkpt lat="42.33808230169394" lon="13.454619291517544"><ele>627.0</ele><time>2026-04-27T15:10:51Z</time></trkpt><trkpt lat="42.33807190697895" lon="13.45473621796984"><ele>626.0</ele><time>2026-04-27T15:10:52Z</time></trkpt><trkpt lat="42.33811449806148" lon="13.454858272949343"><ele>625.0</ele><time>2026-04-27T15:10:53Z</time></trkpt><trkpt lat="42.33813047141539" lon="13.454963302099427"><ele>624.0</ele><time>2026-04-27T15:10:54Z</time></trkpt><trkpt lat="42.33816100049716" lon="13.45508784350445"><ele>623.0</ele><time>2026-04-27T15:10:55Z</time></trkpt><trkpt lat="42.33819624194398" lon="13.45519792275504"><ele>622.0</ele><time>2026-04-27T15:10:56Z</time></trkpt><trkpt lat="42.338205655200916" lon="13.455306184508762"><ele>621.0</ele><time>2026-04-27T15:10:57Z</time></trkpt><trkpt lat="42.33824649097393" lon="13.455438475474846"><ele>617.8</ele><time>2026-04-27T15:10:59Z</time></trkpt><trkpt lat="42.3381670720029" lon="13.455498768371056"><ele>614.6</ele><time>2026-04-27T15:11:01Z</time></trkpt><trkpt lat="42.338088740370175" lon="13.455490995422485"><ele>611.4</ele><time>2026-04-27T15:11:03Z</time></trkpt><trkpt lat="42.3380157917543" lon="13.455483893998796"><ele>608.2</ele><time>2026-04-27T15:11:06Z</time></trkpt><trkpt lat="42.33810065400039" lon="13.455597278551881"><ele>605.0</ele><time>2026-04-27T15:11:08Z</time></trkpt><trkpt lat="42.33823306761592" lon="13.455655840825838"><ele>605.0</ele><time>2026-04-27T15:11:10Z</time></trkpt><trkpt lat="42.338319469665045" lon="13.455685650953942"><ele>605.0</ele><time>2026-04-27T15:11:11Z</time></trkpt><trkpt lat="42.33843296560107" lon="13.455723785582862"><ele>605.0</ele><time>2026-04-27T15:11:12Z</time></trkpt><trkpt lat="42.33856221313696" lon="13.455767212776768"><ele>605.0</ele><time>2026-04-27T15:11:13Z</time></trkpt><trkpt lat="42.33870216888621" lon="13.455793877704437"><ele>605.0</ele><time>2026-04-27T15:11:14Z</time></trkpt><trkpt lat="42.33884847275995" lon="13.455849871814909"><ele>605.0</ele><time>2026-04-27T15:11:15Z</time></trkpt><trkpt lat="42.338996398571965" lon="13.45590468753117"><ele>605.0</ele><time>2026-04-27T15:11:16Z</time></trkpt><trkpt lat="42.33912513555179" lon="13.455955194783293"><ele>605.0</ele><time>2026-04-27T15:11:17Z</time></trkpt><trkpt lat="42.33924706690188" lon="13.45598613784902"><ele>606.0</ele><time>2026-04-27T15:11:18Z</time></trkpt><trkpt lat="42.339362303363565" lon="13.45599484240679"><ele>607.0</ele><time>2026-04-27T15:11:19Z</time></trkpt><trkpt lat="42.33946696933361" lon="13.455986590927752"><ele>608.0</ele><time>2026-04-27T15:11:20Z</time></trkpt><trkpt lat="42.33956071395784" lon="13.45599119212311"><ele>609.0</ele><time>2026-04-27T15:11:21Z</time></trkpt><trkpt lat="42.33964520708397" lon="13.45603029522261"><ele>610.0</ele><time>2026-04-27T15:11:22Z</time></trkpt><trkpt lat="42.3397067243484" lon="13.456110464371367"><ele>609.2</ele><time>2026-04-27T15:11:23Z</time></trkpt><trkpt lat="42.33972775775177" lon="13.456214001593187"><ele>608.4</ele><time>2026-04-27T15:11:24Z</time></trkpt><trkpt lat="42.33974205656641" lon="13.456346193195733"><ele>607.6</ele><time>2026-04-27T15:11:25Z</time></trkpt><trkpt lat="42.33973944155226" lon="13.456466412819415"><ele>606.8</ele><time>2026-04-27T15:11:26Z</time></trkpt><trkpt lat="42.33975442220709" lon="13.456588800436176"><ele>606.0</ele><time>2026-04-27T15:11:28Z</time></trkpt><trkpt lat="42.33984502717875" lon="13.45668986016618"><ele>605.0</ele><time>2026-04-27T15:12:00Z</time></trkpt><trkpt lat="42.339913772605705" lon="13.456719336879765"><ele>604.0</ele><time>2026-04-27T15:12:01Z</time></trkpt><trkpt lat="42.33999973303092" lon="13.456742933017448"><ele>603.0</ele><time>2026-04-27T15:12:02Z</time></trkpt><trkpt lat="42.34010034436652" lon="13.456768171352268"><ele>602.0</ele><time>2026-04-27T15:12:03Z</time></trkpt><trkpt lat="42.34021414291833" lon="13.456801301262852"><ele>601.0</ele><time>2026-04-27T15:12:04Z</time></trkpt><trkpt lat="42.34033551498068" lon="13.456838491851284"><ele>601.0</ele><time>2026-04-27T15:12:05Z</time></trkpt><trkpt lat="42.34046548992924" lon="13.456881792748582"><ele>601.0</ele><time>2026-04-27T15:12:06Z</time></trkpt><trkpt lat="42.3405995447343" lon="13.456929280246605"><ele>601.0</ele><time>2026-04-27T15:12:07Z</time></trkpt><trkpt lat="42.34073583440389" lon="13.456981942348925"><ele>601.0</ele><time>2026-04-27T15:12:08Z</time></trkpt><trkpt lat="42.34087313821194" lon="13.457042745130398"><ele>600.75</ele><time>2026-04-27T15:12:09Z</time></trkpt><trkpt lat="42.34101212101919" lon="13.457108428823865"><ele>600.5</ele><time>2026-04-27T15:12:10Z</time></trkpt><trkpt lat="42.3411380646474" lon="13.457182213275205"><ele>600.25</ele><time>2026-04-27T15:12:11Z</time></trkpt><trkpt lat="42.341263015608575" lon="13.457273009835745"><ele>600.0</ele><time>2026-04-27T15:12:12Z</time></trkpt><trkpt lat="42.34137729461663" lon="13.457377656935423"><ele>600.25</ele><time>2026-04-27T15:12:13Z</time></trkpt><trkpt lat="42.34148525162819" lon="13.457505422140352"><ele>600.5</ele><time>2026-04-27T15:12:14Z</time></trkpt><trkpt lat="42.34158935983428" lon="13.457641829806569"><ele>600.75</ele><time>2026-04-27T15:12:15Z</time></trkpt><trkpt lat="42.34169652111117" lon="13.457785252350753"><ele>601.0</ele><time>2026-04-27T15:12:16Z</time></trkpt><trkpt lat="42.3418069554067" lon="13.457926961745526"><ele>601.0</ele><time>2026-04-27T15:12:17Z</time></trkpt><trkpt lat="42.34191705961089" lon="13.458070782413342"><ele>601.0</ele><time>2026-04-27T15:12:18Z</time></trkpt><trkpt lat="42.34202933281001" lon="13.458218504672464"><ele>601.0</ele><time>2026-04-27T15:12:19Z</time></trkpt><trkpt lat="42.342137748074464" lon="13.458361184127096"><ele>601.0</ele><time>2026-04-27T15:12:20Z</time></trkpt><trkpt lat="42.34225225795208" lon="13.45850713587855"><ele>601.0</ele><time>2026-04-27T15:12:21Z</time></trkpt><trkpt lat="42.34236669533208" lon="13.458657508738893"><ele>601.0</ele><time>2026-04-27T15:12:22Z</time></trkpt><trkpt lat="42.3424738731396" lon="13.458800166509903"><ele>601.0</ele><time>2026-04-27T15:12:23Z</time></trkpt><trkpt lat="42.34258042396317" lon="13.458944363688667"><ele>601.0</ele><time>2026-04-27T15:12:24Z</time></trkpt><trkpt lat="42.34269238537926" lon="13.459088186803953"><ele>601.0</ele><time>2026-04-27T15:12:25Z</time></trkpt><trkpt lat="42.34279388082546" lon="13.459223462514144"><ele>601.0</ele><time>2026-04-27T15:12:26Z</time></trkpt><trkpt lat="42.34288475211336" lon="13.459340720204274"><ele>601.0</ele><time>2026-04-27T15:12:27Z</time></trkpt><trkpt lat="42.3429684794143" lon="13.459449905037145"><ele>601.0</ele><time>2026-04-27T15:12:28Z</time></trkpt><trkpt lat="42.34305255622365" lon="13.4595623788553"><ele>601.0</ele><time>2026-04-27T15:12:29Z</time></trkpt><trkpt lat="42.343143225092405" lon="13.459689367290506"><ele>601.0</ele><time>2026-04-27T15:12:30Z</time></trkpt><trkpt lat="42.34324134743056" lon="13.459822043344914"><ele>602.6666666666667</ele><time>2026-04-27T15:12:31Z</time></trkpt><trkpt lat="42.34334581914311" lon="13.459959217127858"><ele>604.3333333333334</ele><time>2026-04-27T15:12:32Z</time></trkpt><trkpt lat="42.343455930615" lon="13.460101042428855"><ele>606.0</ele><time>2026-04-27T15:12:33Z</time></trkpt><trkpt lat="42.34357087495" lon="13.46024839374181"><ele>606.0</ele><time>2026-04-27T15:12:34Z</time></trkpt><trkpt lat="42.34368055701645" lon="13.460395667612177"><ele>606.0</ele><time>2026-04-27T15:12:35Z</time></trkpt><trkpt lat="42.34379912145599" lon="13.460555597577109"><ele>606.0</ele><time>2026-04-27T15:12:36Z</time></trkpt><trkpt lat="42.34391490456515" lon="13.46070742013936"><ele>607.3333333333334</ele><time>2026-04-27T15:12:37Z</time></trkpt><trkpt lat="42.34404211489006" lon="13.46086419818617"><ele>608.6666666666667</ele><time>2026-04-27T15:12:38Z</time></trkpt><trkpt lat="42.34417467961698" lon="13.461021871341263"><ele>610.0</ele><time>2026-04-27T15:12:39Z</time></trkpt><trkpt lat="42.34431184040925" lon="13.461182505785871"><ele>609.6666666666667</ele><time>2026-04-27T15:12:40Z</time></trkpt><trkpt lat="42.344432987983836" lon="13.461334365630849"><ele>609.3333333333334</ele><time>2026-04-27T15:12:41Z</time></trkpt><trkpt lat="42.344570550592714" lon="13.46149359423351"><ele>609.0</ele><time>2026-04-27T15:12:42Z</time></trkpt><trkpt lat="42.344695478176284" lon="13.461645013110996"><ele>609.75</ele><time>2026-04-27T15:12:43Z</time></trkpt><trkpt lat="42.3448184533906" lon="13.461783744872701"><ele>610.5</ele><time>2026-04-27T15:12:44Z</time></trkpt><trkpt lat="42.34492365212315" lon="13.461902110106713"><ele>611.25</ele><time>2026-04-27T15:12:45Z</time></trkpt><trkpt lat="42.34502978608854" lon="13.462014426617973"><ele>612.0</ele><time>2026-04-27T15:12:46Z</time></trkpt><trkpt lat="42.34513648006156" lon="13.462119211876695"><ele>612.0</ele><time>2026-04-27T15:12:47Z</time></trkpt><trkpt lat="42.34525402312767" lon="13.462224304183984"><ele>612.0</ele><time>2026-04-27T15:12:48Z</time></trkpt><trkpt lat="42.345374694855145" lon="13.46232801646977"><ele>612.0</ele><time>2026-04-27T15:12:49Z</time></trkpt><trkpt lat="42.34549803725198" lon="13.462434612296956"><ele>612.0</ele><time>2026-04-27T15:12:50Z</time></trkpt><trkpt lat="42.345627014642595" lon="13.462543487490485"><ele>613.0</ele><time>2026-04-27T15:12:51Z</time></trkpt><trkpt lat="42.345756728466526" lon="13.462657619682306"><ele>614.0</ele><time>2026-04-27T15:12:52Z</time></trkpt><trkpt lat="42.3458888710529" lon="13.462762375483718"><ele>615.0</ele><time>2026-04-27T15:12:53Z</time></trkpt><trkpt lat="42.34602466705642" lon="13.462870894135335"><ele>615.25</ele><time>2026-04-27T15:12:54Z</time></trkpt><trkpt lat="42.34615284902174" lon="13.462973082127663"><ele>615.5</ele><time>2026-04-27T15:12:55Z</time></trkpt><trkpt lat="42.346273654993524" lon="13.463067194418384"><ele>615.75</ele><time>2026-04-27T15:12:56Z</time></trkpt><trkpt lat="42.34638050801577" lon="13.463153276306887"><ele>616.0</ele><time>2026-04-27T15:12:57Z</time></trkpt><trkpt lat="42.346487623396214" lon="13.463240220324687"><ele>616.75</ele><time>2026-04-27T15:12:58Z</time></trkpt><trkpt lat="42.34659957259179" lon="13.463325506636856"><ele>617.5</ele><time>2026-04-27T15:12:59Z</time></trkpt><trkpt lat="42.34671754606856" lon="13.46341543996009"><ele>618.25</ele><time>2026-04-27T15:13:00Z</time></trkpt><trkpt lat="42.34683534020193" lon="13.46350623519841"><ele>619.0</ele><time>2026-04-27T15:13:01Z</time></trkpt><trkpt lat="42.3469574218699" lon="13.463600142467085"><ele>619.0</ele><time>2026-04-27T15:13:02Z</time></trkpt><trkpt lat="42.34708230334947" lon="13.463688210399397"><ele>619.0</ele><time>2026-04-27T15:13:03Z</time></trkpt><trkpt lat="42.34721882202597" lon="13.463780036901632"><ele>619.0</ele><time>2026-04-27T15:13:04Z</time></trkpt><trkpt lat="42.34734911699266" lon="13.46386815865901"><ele>619.0</ele><time>2026-04-27T15:13:05Z</time></trkpt><trkpt lat="42.34748736463545" lon="13.463976710763106"><ele>620.0</ele><time>2026-04-27T15:13:06Z</time></trkpt><trkpt lat="42.3476217899527" lon="13.464100847005758"><ele>621.0</ele><time>2026-04-27T15:13:07Z</time></trkpt><trkpt lat="42.34774413160148" lon="13.46422298585821"><ele>622.0</ele><time>2026-04-27T15:13:08Z</time></trkpt><trkpt lat="42.34786417863378" lon="13.46433974172486"><ele>622.0</ele><time>2026-04-27T15:13:09Z</time></trkpt><trkpt lat="42.347980879591525" lon="13.464447488667439"><ele>622.0</ele><time>2026-04-27T15:13:10Z</time></trkpt><trkpt lat="42.34809238178358" lon="13.464552874613755"><ele>622.0</ele><time>2026-04-27T15:13:11Z</time></trkpt><trkpt lat="42.34820114990736" lon="13.46466400762206"><ele>622.0</ele><time>2026-04-27T15:13:12Z</time></trkpt><trkpt lat="42.34829499082251" lon="13.464763066241382"><ele>622.1666666666667</ele><time>2026-04-27T15:13:13Z</time></trkpt><trkpt lat="42.34837970522831" lon="13.464845248490072"><ele>622.3333333333334</ele><time>2026-04-27T15:13:14Z</time></trkpt><trkpt lat="42.34845525058869" lon="13.464910424105005"><ele>622.5</ele><time>2026-04-27T15:13:15Z</time></trkpt><trkpt lat="42.348518274737955" lon="13.464959114119887"><ele>622.6666666666666</ele><time>2026-04-27T15:13:16Z</time></trkpt><trkpt lat="42.34858367445104" lon="13.46501211435989"><ele>622.8333333333333</ele><time>2026-04-27T15:13:17Z</time></trkpt><trkpt lat="42.34867005182139" lon="13.465085373423152"><ele>623.0</ele><time>2026-04-27T15:13:18Z</time></trkpt><trkpt lat="42.34875500636691" lon="13.465154345055451"><ele>623.0</ele><time>2026-04-27T15:13:19Z</time></trkpt><trkpt lat="42.34883253315167" lon="13.465219925161799"><ele>623.0</ele><time>2026-04-27T15:13:20Z</time></trkpt><trkpt lat="42.34892218873717" lon="13.465294492745123"><ele>623.0</ele><time>2026-04-27T15:13:22Z</time></trkpt><trkpt lat="42.34898756674273" lon="13.465350577805225"><ele>623.0</ele><time>2026-04-27T15:13:51Z</time></trkpt><trkpt lat="42.34910981854611" lon="13.46542342136696"><ele>623.0</ele><time>2026-04-27T15:13:53Z</time></trkpt><trkpt lat="42.34918326878224" lon="13.465483148004344"><ele>623.3333333333333</ele><time>2026-04-27T15:13:54Z</time></trkpt><trkpt lat="42.3492782593168" lon="13.465548781196885"><ele>623.6666666666666</ele><time>2026-04-27T15:13:55Z</time></trkpt><trkpt lat="42.349366950672724" lon="13.465615569797718"><ele>624.0</ele><time>2026-04-27T15:13:56Z</time></trkpt><trkpt lat="42.34944458294908" lon="13.46567338281455"><ele>624.3333333333334</ele><time>2026-04-27T15:13:57Z</time></trkpt><trkpt lat="42.349504014285436" lon="13.465749032657492"><ele>624.6666666666667</ele><time>2026-04-27T15:13:59Z</time></trkpt><trkpt lat="42.349454419779796" lon="13.465805217556678"><ele>625.0</ele><time>2026-04-27T15:14:01Z</time></trkpt><trkpt lat="42.349393652301586" lon="13.465882587587476"><ele>625.0</ele><time>2026-04-27T15:14:02Z</time></trkpt><trkpt lat="42.3493376957647" lon="13.465978405659165"><ele>625.0</ele><time>2026-04-27T15:14:03Z</time></trkpt><trkpt lat="42.34925771760002" lon="13.466042446882646"><ele>625.0</ele><time>2026-04-27T15:14:04Z</time></trkpt><trkpt lat="42.34921375806413" lon="13.46613094008098"><ele>625.0</ele><time>2026-04-27T15:14:05Z</time></trkpt><trkpt lat="42.34917512313307" lon="13.466207985907586"><ele>625.0</ele><time>2026-04-27T15:14:06Z</time></trkpt><trkpt lat="42.349153829049406" lon="13.466307580613615"><ele>625.0</ele><time>2026-04-27T15:14:07Z</time></trkpt><trkpt lat="42.349130486948276" lon="13.46641644962121"><ele>625.0</ele><time>2026-04-27T15:14:08Z</time></trkpt><trkpt lat="42.34911886518722" lon="13.466550468514269"><ele>625.0</ele><time>2026-04-27T15:14:09Z</time></trkpt><trkpt lat="42.34910751956212" lon="13.466680977761207"><ele>625.0</ele><time>2026-04-27T15:14:10Z</time></trkpt><trkpt lat="42.349088130443064" lon="13.46681116656326"><ele>625.0</ele><time>2026-04-27T15:14:11Z</time></trkpt><trkpt lat="42.34901212560869" lon="13.46688408373381"><ele>625.0</ele><time>2026-04-27T15:14:12Z</time></trkpt><trkpt lat="42.34893033809281" lon="13.466973877865149"><ele>624.75</ele><time>2026-04-27T15:14:13Z</time></trkpt><trkpt lat="42.348860414817466" lon="13.46710008025495"><ele>624.5</ele><time>2026-04-27T15:14:14Z</time></trkpt><trkpt lat="42.34879568205019" lon="13.467214936320602"><ele>624.25</ele><time>2026-04-27T15:14:15Z</time></trkpt><trkpt lat="42.348759448750805" lon="13.467365691318475"><ele>624.0</ele><time>2026-04-27T15:14:16Z</time></trkpt><trkpt lat="42.3487130959082" lon="13.467524841057914"><ele>624.0</ele><time>2026-04-27T15:14:17Z</time></trkpt><trkpt lat="42.34867085621897" lon="13.467694728052809"><ele>624.0</ele><time>2026-04-27T15:14:18Z</time></trkpt><trkpt lat="42.34863632835893" lon="13.467844754521428"><ele>624.0</ele><time>2026-04-27T15:14:19Z</time></trkpt><trkpt lat="42.34861951792621" lon="13.467981789736253"><ele>624.0</ele><time>2026-04-27T15:14:20Z</time></trkpt><trkpt lat="42.3486002985238" lon="13.468095897524243"><ele>624.0</ele><time>2026-04-27T15:14:21Z</time></trkpt><trkpt lat="42.34858863238188" lon="13.468184125299997"><ele>624.2</ele><time>2026-04-27T15:14:22Z</time></trkpt><trkpt lat="42.348583026176435" lon="13.468292676366717"><ele>624.4</ele><time>2026-04-27T15:14:26Z</time></trkpt><trkpt lat="42.34872181129076" lon="13.468332312238479"><ele>624.6</ele><time>2026-04-27T15:14:27Z</time></trkpt><trkpt lat="42.34881665870999" lon="13.468359650582"><ele>624.8</ele><time>2026-04-27T15:14:28Z</time></trkpt><trkpt lat="42.3489161573383" lon="13.468391511515259"><ele>625.0</ele><time>2026-04-27T15:14:29Z</time></trkpt><trkpt lat="42.34902219350415" lon="13.468412204579451"><ele>625.6</ele><time>2026-04-27T15:14:30Z</time></trkpt><trkpt lat="42.349135614323174" lon="13.468435750480722"><ele>626.2</ele><time>2026-04-27T15:14:31Z</time></trkpt><trkpt lat="42.349236281993846" lon="13.468448907408892"><ele>626.8</ele><time>2026-04-27T15:14:32Z</time></trkpt><trkpt lat="42.3493294016843" lon="13.468469344333604"><ele>627.4</ele><time>2026-04-27T15:14:33Z</time></trkpt><trkpt lat="42.34941734489339" lon="13.468483021443847"><ele>628.0</ele><time>2026-04-27T15:14:34Z</time></trkpt><trkpt lat="42.349529509898694" lon="13.468491544600063"><ele>628.0</ele><time>2026-04-27T15:14:35Z</time></trkpt><trkpt lat="42.349644095138856" lon="13.468492426485035"><ele>628.0</ele><time>2026-04-27T15:14:36Z</time></trkpt><trkpt lat="42.34976270839756" lon="13.468484728095081"><ele>628.0</ele><time>2026-04-27T15:14:37Z</time></trkpt><trkpt lat="42.34987360091814" lon="13.468477624105375"><ele>628.0</ele><time>2026-04-27T15:14:38Z</time></trkpt><trkpt lat="42.34998486282125" lon="13.46849559637276"><ele>628.25</ele><time>2026-04-27T15:14:39Z</time></trkpt><trkpt lat="42.350090667657646" lon="13.468533748567125"><ele>628.5</ele><time>2026-04-27T15:14:40Z</time></trkpt><trkpt lat="42.350191634286574" lon="13.468619917591901"><ele>628.75</ele><time>2026-04-27T15:14:41Z</time></trkpt><trkpt lat="42.350295263262474" lon="13.46872788596688"><ele>629.0</ele><time>2026-04-27T15:14:42Z</time></trkpt><trkpt lat="42.35040360057192" lon="13.468830104551047"><ele>629.0</ele><time>2026-04-27T15:14:43Z</time></trkpt><trkpt lat="42.350510944716206" lon="13.468913238629046"><ele>629.0</ele><time>2026-04-27T15:14:44Z</time></trkpt><trkpt lat="42.3506051187603" lon="13.46899179325648"><ele>629.0</ele><time>2026-04-27T15:14:45Z</time></trkpt><trkpt lat="42.350702077385016" lon="13.46904097975801"><ele>629.0</ele><time>2026-04-27T15:14:46Z</time></trkpt><trkpt lat="42.35081037636991" lon="13.469054852204783"><ele>629.0</ele><time>2026-04-27T15:14:47Z</time></trkpt><trkpt lat="42.35091608646731" lon="13.469053966967264"><ele>629.5</ele><time>2026-04-27T15:14:48Z</time></trkpt><trkpt lat="42.351025700170496" lon="13.469051604792048"><ele>630.0</ele><time>2026-04-27T15:14:49Z</time></trkpt><trkpt lat="42.35113918547995" lon="13.469025859192929"><ele>630.5</ele><time>2026-04-27T15:14:50Z</time></trkpt><trkpt lat="42.351261779431624" lon="13.468963539334576"><ele>631.0</ele><time>2026-04-27T15:14:51Z</time></trkpt><trkpt lat="42.35136666269817" lon="13.468891256155706"><ele>632.0</ele><time>2026-04-27T15:14:52Z</time></trkpt><trkpt lat="42.35144864755411" lon="13.468817860464219"><ele>633.0</ele><time>2026-04-27T15:14:53Z</time></trkpt><trkpt lat="42.35150670299897" lon="13.468741411591978"><ele>634.0</ele><time>2026-04-27T15:14:54Z</time></trkpt><trkpt lat="42.3515737578927" lon="13.468622233282094"><ele>635.0</ele><time>2026-04-27T15:14:56Z</time></trkpt><trkpt lat="42.35167097431738" lon="13.468697720556602"><ele>636.0</ele><time>2026-04-27T15:14:58Z</time></trkpt><trkpt lat="42.351758159621625" lon="13.468787775641497"><ele>636.0</ele><time>2026-04-27T15:14:59Z</time></trkpt><trkpt lat="42.351837348799975" lon="13.468860469920251"><ele>636.0</ele><time>2026-04-27T15:15:00Z</time></trkpt><trkpt lat="42.35192517410789" lon="13.468974574213524"><ele>636.0</ele><time>2026-04-27T15:15:01Z</time></trkpt><trkpt lat="42.352001154979796" lon="13.469077788286851"><ele>636.0</ele><time>2026-04-27T15:15:02Z</time></trkpt><trkpt lat="42.35208327703728" lon="13.46918306855749"><ele>636.0</ele><time>2026-04-27T15:15:03Z</time></trkpt><trkpt lat="42.35216837911925" lon="13.469283661895421"><ele>636.2</ele><time>2026-04-27T15:15:04Z</time></trkpt><trkpt lat="42.35225552018143" lon="13.469383551390914"><ele>636.4000000000001</ele><time>2026-04-27T15:15:05Z</time></trkpt><trkpt lat="42.35234139052309" lon="13.469478533454291"><ele>636.6</ele><time>2026-04-27T15:15:06Z</time></trkpt><trkpt lat="42.35242362569402" lon="13.469579680020885"><ele>636.8000000000001</ele><time>2026-04-27T15:15:07Z</time></trkpt><trkpt lat="42.35250156858313" lon="13.469665655223952"><ele>637.0</ele><time>2026-04-27T15:15:08Z</time></trkpt><trkpt lat="42.35256968239999" lon="13.469737500654672"><ele>637.3333333333334</ele><time>2026-04-27T15:15:09Z</time></trkpt><trkpt lat="42.35262762371761" lon="13.469799812666206"><ele>637.6666666666667</ele><time>2026-04-27T15:15:10Z</time></trkpt><trkpt lat="42.35267763986537" lon="13.469880397847382"><ele>638.0</ele><time>2026-04-27T15:15:11Z</time></trkpt><trkpt lat="42.352745162604315" lon="13.469955497516402"><ele>638.3333333333334</ele><time>2026-04-27T15:15:12Z</time></trkpt><trkpt lat="42.35282964476647" lon="13.470030478726827"><ele>638.6666666666666</ele><time>2026-04-27T15:15:13Z</time></trkpt><trkpt lat="42.35290092786265" lon="13.470126197938402"><ele>639.0</ele><time>2026-04-27T15:15:14Z</time></trkpt><trkpt lat="42.352976616223515" lon="13.470235953743272"><ele>639.0</ele><time>2026-04-27T15:15:15Z</time></trkpt><trkpt lat="42.353038100002735" lon="13.470360827931826"><ele>639.0</ele><time>2026-04-27T15:15:16Z</time></trkpt><trkpt lat="42.35312606030992" lon="13.470469084964197"><ele>639.0</ele><time>2026-04-27T15:15:17Z</time></trkpt><trkpt lat="42.35318365273412" lon="13.470610016791781"><ele>639.0</ele><time>2026-04-27T15:15:18Z</time></trkpt><trkpt lat="42.35325294511695" lon="13.470743904522676"><ele>639.75</ele><time>2026-04-27T15:15:19Z</time></trkpt><trkpt lat="42.35331576125874" lon="13.470888578381684"><ele>640.5</ele><time>2026-04-27T15:15:20Z</time></trkpt><trkpt lat="42.35338365083643" lon="13.471039263244537"><ele>641.25</ele><time>2026-04-27T15:15:21Z</time></trkpt><trkpt lat="42.353462478737896" lon="13.471165362140372"><ele>642.0</ele><time>2026-04-27T15:15:22Z</time></trkpt><trkpt lat="42.35352890268579" lon="13.471286510202017"><ele>642.0</ele><time>2026-04-27T15:15:23Z</time></trkpt><trkpt lat="42.35359552816902" lon="13.471370031778937"><ele>642.0</ele><time>2026-04-27T15:15:24Z</time></trkpt><trkpt lat="42.35365177387934" lon="13.471426451250975"><ele>642.0</ele><time>2026-04-27T15:15:25Z</time></trkpt><trkpt lat="42.35371415268899" lon="13.471533735781628"><ele>642.0</ele><time>2026-04-27T15:15:27Z</time></trkpt><trkpt lat="42.35383496200059" lon="13.471525959624278"><ele>642.0</ele><time>2026-04-27T15:15:30Z</time></trkpt><trkpt lat="42.35397590845688" lon="13.471518356924557"><ele>642.4000000000001</ele><time>2026-04-27T15:15:32Z</time></trkpt><trkpt lat="42.35406960712829" lon="13.471491702045222"><ele>642.8000000000001</ele><time>2026-04-27T15:15:33Z</time></trkpt><trkpt lat="42.35417158644028" lon="13.471455015772259"><ele>643.2</ele><time>2026-04-27T15:15:34Z</time></trkpt><trkpt lat="42.35427492641623" lon="13.471423443265747"><ele>643.6</ele><time>2026-04-27T15:15:35Z</time></trkpt><trkpt lat="42.35436456060933" lon="13.471402816234086"><ele>644.0</ele><time>2026-04-27T15:15:36Z</time></trkpt><trkpt lat="42.354447200137706" lon="13.471397994008537"><ele>644.0</ele><time>2026-04-27T15:15:37Z</time></trkpt><trkpt lat="42.35452150505157" lon="13.471426405049362"><ele>644.0</ele><time>2026-04-27T15:15:38Z</time></trkpt><trkpt lat="42.354601994834034" lon="13.4714887369462"><ele>644.0</ele><time>2026-04-27T15:15:39Z</time></trkpt><trkpt lat="42.3546664240115" lon="13.471610118014706"><ele>644.0</ele><time>2026-04-27T15:15:40Z</time></trkpt><trkpt lat="42.3547567569612" lon="13.471729772858529"><ele>644.0</ele><time>2026-04-27T15:15:41Z</time></trkpt><trkpt lat="42.354855003817136" lon="13.471832709650045"><ele>644.75</ele><time>2026-04-27T15:15:42Z</time></trkpt><trkpt lat="42.35494671622125" lon="13.471932936019313"><ele>645.5</ele><time>2026-04-27T15:15:43Z</time></trkpt><trkpt lat="42.355030466762656" lon="13.472057857753107"><ele>646.25</ele><time>2026-04-27T15:15:44Z</time></trkpt><trkpt lat="42.35513209584274" lon="13.472183733318973"><ele>647.0</ele><time>2026-04-27T15:15:45Z</time></trkpt><trkpt lat="42.35523390108933" lon="13.47230982752992"><ele>647.0</ele><time>2026-04-27T15:15:46Z</time></trkpt><trkpt lat="42.355332391995645" lon="13.472431817738894"><ele>647.0</ele><time>2026-04-27T15:15:47Z</time></trkpt><trkpt lat="42.355433524401754" lon="13.472558575401742"><ele>647.0</ele><time>2026-04-27T15:15:48Z</time></trkpt><trkpt lat="42.355542919110505" lon="13.47268440212166"><ele>647.0</ele><time>2026-04-27T15:15:49Z</time></trkpt><trkpt lat="42.35565418757832" lon="13.472828139308096"><ele>647.75</ele><time>2026-04-27T15:15:50Z</time></trkpt><trkpt lat="42.35576922696187" lon="13.472953640542276"><ele>648.5</ele><time>2026-04-27T15:15:51Z</time></trkpt><trkpt lat="42.355889917850924" lon="13.473065366875337"><ele>649.25</ele><time>2026-04-27T15:15:52Z</time></trkpt><trkpt lat="42.3559962032819" lon="13.473166309916065"><ele>650.0</ele><time>2026-04-27T15:15:53Z</time></trkpt><trkpt lat="42.35609551691105" lon="13.473258123244827"><ele>650.0</ele><time>2026-04-27T15:15:54Z</time></trkpt><trkpt lat="42.35618620174668" lon="13.473346580285403"><ele>650.0</ele><time>2026-04-27T15:15:55Z</time></trkpt><trkpt lat="42.35625839854856" lon="13.473423430091518"><ele>650.0</ele><time>2026-04-27T15:15:56Z</time></trkpt><trkpt lat="42.35632013159233" lon="13.473511532865961"><ele>650.0</ele><time>2026-04-27T15:15:57Z</time></trkpt><trkpt lat="42.35642852042076" lon="13.47353747050526"><ele>650.0</ele><time>2026-04-27T15:15:58Z</time></trkpt><trkpt lat="42.356526696038706" lon="13.473568148406235"><ele>650.6</ele><time>2026-04-27T15:15:59Z</time></trkpt><trkpt lat="42.356590333573074" lon="13.473568346533424"><ele>651.2</ele><time>2026-04-27T15:16:00Z</time></trkpt><trkpt lat="42.35660406443703" lon="13.47370611768794"><ele>651.8</ele><time>2026-04-27T15:16:02Z</time></trkpt><trkpt lat="42.35664971996213" lon="13.473847837640168"><ele>652.4</ele><time>2026-04-27T15:16:04.001Z</time></trkpt><trkpt lat="42.35669134494042" lon="13.473956366279255"><ele>653.0</ele><time>2026-04-27T15:16:05.001Z</time></trkpt><trkpt lat="42.35673569070634" lon="13.474078192207129"><ele>653.5999999999999</ele><time>2026-04-27T15:16:06.001Z</time></trkpt><trkpt lat="42.35677469538637" lon="13.474200246995926"><ele>654.1999999999999</ele><time>2026-04-27T15:16:07.001Z</time></trkpt><trkpt lat="42.356811584865696" lon="13.474312272423044"><ele>654.8</ele><time>2026-04-27T15:16:08.001Z</time></trkpt><trkpt lat="42.356852360117855" lon="13.474447806580175"><ele>655.4</ele><time>2026-04-27T15:16:09.001Z</time></trkpt><trkpt lat="42.35689823100854" lon="13.47460022192321"><ele>656.0</ele><time>2026-04-27T15:16:10.001Z</time></trkpt><trkpt lat="42.356953289377344" lon="13.474749782694799"><ele>657.8</ele><time>2026-04-27T15:16:11.001Z</time></trkpt><trkpt lat="42.357013506303474" lon="13.474894662797974"><ele>659.5999999999999</ele><time>2026-04-27T15:16:12.001Z</time></trkpt><trkpt lat="42.35706255701537" lon="13.475012262554053"><ele>661.4</ele><time>2026-04-27T15:16:13.001Z</time></trkpt><trkpt lat="42.35709220498063" lon="13.47511472372919"><ele>663.2</ele><time>2026-04-27T15:16:14.001Z</time></trkpt><trkpt lat="42.357123859872125" lon="13.475241093242452"><ele>665.0</ele><time>2026-04-27T15:16:15.001Z</time></trkpt><trkpt lat="42.357151278245105" lon="13.475378328549777"><ele>666.2</ele><time>2026-04-27T15:16:16.001Z</time></trkpt><trkpt lat="42.35717881593599" lon="13.475516822120282"><ele>667.4</ele><time>2026-04-27T15:16:17.001Z</time></trkpt><trkpt lat="42.35720947432871" lon="13.475645816619608"><ele>668.5999999999999</ele><time>2026-04-27T15:16:18.001Z</time></trkpt><trkpt lat="42.35723692495448" lon="13.475766838461903"><ele>669.8</ele><time>2026-04-27T15:16:19.001Z</time></trkpt><trkpt lat="42.357240428481326" lon="13.47589097143463"><ele>671.0</ele><time>2026-04-27T15:16:20.001Z</time></trkpt><trkpt lat="42.35724772148969" lon="13.47601197464475"><ele>672.25</ele><time>2026-04-27T15:16:21.001Z</time></trkpt><trkpt lat="42.357234223043804" lon="13.476151081736173"><ele>673.5</ele><time>2026-04-27T15:16:22.001Z</time></trkpt><trkpt lat="42.357222665709685" lon="13.476316604449009"><ele>674.75</ele><time>2026-04-27T15:16:23.001Z</time></trkpt><trkpt lat="42.357239150250166" lon="13.476492549239877"><ele>676.0</ele><time>2026-04-27T15:16:24.001Z</time></trkpt><trkpt lat="42.35724538233161" lon="13.476668715834114"><ele>677.75</ele><time>2026-04-27T15:16:25.001Z</time></trkpt><trkpt lat="42.357262359551925" lon="13.476866194806627"><ele>679.5</ele><time>2026-04-27T15:16:26.001Z</time></trkpt><trkpt lat="42.357277496730504" lon="13.477053107295514"><ele>681.25</ele><time>2026-04-27T15:16:27.001Z</time></trkpt><trkpt lat="42.35730638913564" lon="13.477243469902985"><ele>683.0</ele><time>2026-04-27T15:16:28.001Z</time></trkpt><trkpt lat="42.35733014189441" lon="13.477423828247048"><ele>684.5</ele><time>2026-04-27T15:16:29.001Z</time></trkpt><trkpt lat="42.35732054270515" lon="13.477601802422903"><ele>686.0</ele><time>2026-04-27T15:16:30.001Z</time></trkpt><trkpt lat="42.35734010368703" lon="13.477777675829307"><ele>687.5</ele><time>2026-04-27T15:16:31.001Z</time></trkpt><trkpt lat="42.35737795605359" lon="13.477941297576546"><ele>689.0</ele><time>2026-04-27T15:16:32.001Z</time></trkpt><trkpt lat="42.35740684298859" lon="13.478107298931954"><ele>691.0</ele><time>2026-04-27T15:16:33.001Z</time></trkpt><trkpt lat="42.357435925201685" lon="13.478272398310352"><ele>693.0</ele><time>2026-04-27T15:16:34.001Z</time></trkpt><trkpt lat="42.357484107018344" lon="13.478431248892"><ele>695.0</ele><time>2026-04-27T15:16:35.001Z</time></trkpt><trkpt lat="42.35752605161132" lon="13.478564992544712"><ele>697.0</ele><time>2026-04-27T15:16:36.001Z</time></trkpt><trkpt lat="42.35756879002184" lon="13.47870597935709"><ele>699.25</ele><time>2026-04-27T15:16:37.001Z</time></trkpt><trkpt lat="42.35756924715318" lon="13.478864817814689"><ele>701.5</ele><time>2026-04-27T15:16:38.001Z</time></trkpt><trkpt lat="42.35758724445233" lon="13.479030054718706"><ele>703.75</ele><time>2026-04-27T15:16:39.001Z</time></trkpt><trkpt lat="42.35760930207767" lon="13.479213365820607"><ele>706.0</ele><time>2026-04-27T15:16:40.001Z</time></trkpt><trkpt lat="42.35763198856995" lon="13.479393457838103"><ele>706.0</ele><time>2026-04-27T15:16:41.001Z</time></trkpt><trkpt lat="42.35765565055843" lon="13.479581293343047"><ele>706.0</ele><time>2026-04-27T15:16:42.001Z</time></trkpt><trkpt lat="42.35767729014472" lon="13.479750116277668"><ele>706.0</ele><time>2026-04-27T15:16:43.001Z</time></trkpt><trkpt lat="42.35770668964595" lon="13.479950630357195"><ele>706.0</ele><time>2026-04-27T15:16:44.001Z</time></trkpt><trkpt lat="42.357748614836616" lon="13.480128546650826"><ele>708.25</ele><time>2026-04-27T15:16:45.001Z</time></trkpt><trkpt lat="42.35773434725416" lon="13.480285597326617"><ele>710.5</ele><time>2026-04-27T15:16:46.001Z</time></trkpt><trkpt lat="42.3577118170668" lon="13.480421848053568"><ele>712.75</ele><time>2026-04-27T15:16:47.001Z</time></trkpt><trkpt lat="42.357667354884406" lon="13.480577990378604"><ele>715.0</ele><time>2026-04-27T15:16:48.001Z</time></trkpt><trkpt lat="42.357669818685594" lon="13.480744573528264"><ele>716.3333333333334</ele><time>2026-04-27T15:16:49.001Z</time></trkpt><trkpt lat="42.357682075299444" lon="13.480882228973199"><ele>717.6666666666667</ele><time>2026-04-27T15:16:50.001Z</time></trkpt><trkpt lat="42.35771430644064" lon="13.48098487857204"><ele>719.0</ele><time>2026-04-27T15:16:51.001Z</time></trkpt><trkpt lat="42.35774526647779" lon="13.481075334892282"><ele>720.3333333333334</ele><time>2026-04-27T15:16:52.001Z</time></trkpt><trkpt lat="42.357753211109724" lon="13.481161070364427"><ele>721.6666666666666</ele><time>2026-04-27T15:16:53.001Z</time></trkpt><trkpt lat="42.35778582451158" lon="13.481247679755409"><ele>723.0</ele><time>2026-04-27T15:16:54.001Z</time></trkpt><trkpt lat="42.35772578150021" lon="13.481395516105808"><ele>725.5</ele><time>2026-04-27T15:16:55.001Z</time></trkpt><trkpt lat="42.357708294102466" lon="13.481557892880865"><ele>728.0</ele><time>2026-04-27T15:16:56.001Z</time></trkpt><trkpt lat="42.357691837580106" lon="13.481706026071823"><ele>730.5</ele><time>2026-04-27T15:16:57.001Z</time></trkpt><trkpt lat="42.357664374759054" lon="13.481857362522115"><ele>733.0</ele><time>2026-04-27T15:16:58.001Z</time></trkpt><trkpt lat="42.35763256219734" lon="13.481991124707362"><ele>735.5</ele><time>2026-04-27T15:16:59.001Z</time></trkpt><trkpt lat="42.35759595991836" lon="13.482123705306462"><ele>738.0</ele><time>2026-04-27T15:17:00.001Z</time></trkpt><trkpt lat="42.35756670759062" lon="13.482280086600529"><ele>740.5</ele><time>2026-04-27T15:17:01.001Z</time></trkpt><trkpt lat="42.35754669395076" lon="13.482433628077558"><ele>743.0</ele><time>2026-04-27T15:17:02.001Z</time></trkpt><trkpt lat="42.35755135932375" lon="13.482588197701556"><ele>743.0</ele><time>2026-04-27T15:17:03.001Z</time></trkpt><trkpt lat="42.357572489672805" lon="13.48276596455428"><ele>743.0</ele><time>2026-04-27T15:17:04.001Z</time></trkpt><trkpt lat="42.35759379335982" lon="13.48293839211259"><ele>743.0</ele><time>2026-04-27T15:17:05.001Z</time></trkpt><trkpt lat="42.35761102546676" lon="13.48312463632171"><ele>743.0</ele><time>2026-04-27T15:17:06.001Z</time></trkpt><trkpt lat="42.357626259031626" lon="13.48332172377783"><ele>744.75</ele><time>2026-04-27T15:17:07.001Z</time></trkpt><trkpt lat="42.3576372130726" lon="13.483518168679998"><ele>746.5</ele><time>2026-04-27T15:17:08.001Z</time></trkpt><trkpt lat="42.35765526867213" lon="13.483683772485437"><ele>748.25</ele><time>2026-04-27T15:17:09.001Z</time></trkpt><trkpt lat="42.357678622525704" lon="13.483840480272438"><ele>750.0</ele><time>2026-04-27T15:17:10.001Z</time></trkpt><trkpt lat="42.357709450386054" lon="13.483988243202775"><ele>751.0</ele><time>2026-04-27T15:17:11.001Z</time></trkpt><trkpt lat="42.357753162983" lon="13.48417994038254"><ele>752.0</ele><time>2026-04-27T15:17:12.001Z</time></trkpt><trkpt lat="42.357781507837544" lon="13.48437068313887"><ele>753.0</ele><time>2026-04-27T15:17:13.001Z</time></trkpt><trkpt lat="42.35778420529041" lon="13.484556056174572"><ele>754.0</ele><time>2026-04-27T15:17:14.001Z</time></trkpt><trkpt lat="42.35777339811266" lon="13.48474512584985"><ele>754.75</ele><time>2026-04-27T15:17:15.001Z</time></trkpt><trkpt lat="42.35774779049734" lon="13.4849415080946"><ele>755.5</ele><time>2026-04-27T15:17:16.001Z</time></trkpt><trkpt lat="42.35772376136316" lon="13.48513641419074"><ele>756.25</ele><time>2026-04-27T15:17:17.001Z</time></trkpt><trkpt lat="42.357706819300326" lon="13.485302719170562"><ele>757.0</ele><time>2026-04-27T15:17:18.001Z</time></trkpt><trkpt lat="42.35769372496158" lon="13.485454033748297"><ele>757.0</ele><time>2026-04-27T15:17:19.001Z</time></trkpt><trkpt lat="42.35768547913159" lon="13.485586631206147"><ele>757.0</ele><time>2026-04-27T15:17:20.001Z</time></trkpt><trkpt lat="42.3576838596798" lon="13.485699861175384"><ele>757.0</ele><time>2026-04-27T15:17:21.001Z</time></trkpt><trkpt lat="42.35768848095203" lon="13.485810000392306"><ele>757.0</ele><time>2026-04-27T15:17:22.001Z</time></trkpt><trkpt lat="42.35770355028913" lon="13.485916708977605"><ele>757.0</ele><time>2026-04-27T15:17:23.001Z</time></trkpt><trkpt lat="42.35773224728384" lon="13.486026814199937"><ele>757.0</ele><time>2026-04-27T15:17:24.001Z</time></trkpt><trkpt lat="42.35777286578599" lon="13.48614069679432"><ele>756.0</ele><time>2026-04-27T15:17:25.001Z</time></trkpt><trkpt lat="42.35782557663042" lon="13.48627872053623"><ele>755.0</ele><time>2026-04-27T15:17:26.001Z</time></trkpt><trkpt lat="42.35788632581693" lon="13.486412780251106"><ele>754.0</ele><time>2026-04-27T15:17:27.001Z</time></trkpt><trkpt lat="42.35795051921461" lon="13.4865358989894"><ele>753.0</ele><time>2026-04-27T15:17:28.001Z</time></trkpt><trkpt lat="42.35802498586812" lon="13.486633101978404"><ele>752.0</ele><time>2026-04-27T15:17:29.001Z</time></trkpt><trkpt lat="42.35811874155826" lon="13.486735300780055"><ele>755.6666666666666</ele><time>2026-04-27T15:17:30.001Z</time></trkpt><trkpt lat="42.35822318853153" lon="13.486867242472616"><ele>759.3333333333334</ele><time>2026-04-27T15:17:31.001Z</time></trkpt><trkpt lat="42.358341604263465" lon="13.487006053549843"><ele>763.0</ele><time>2026-04-27T15:17:32.001Z</time></trkpt><trkpt lat="42.35846179405882" lon="13.487145452365498"><ele>763.0</ele><time>2026-04-27T15:17:33.001Z</time></trkpt><trkpt lat="42.35857042650194" lon="13.48729698515638"><ele>763.0</ele><time>2026-04-27T15:17:34.001Z</time></trkpt><trkpt lat="42.358673713552214" lon="13.487411996644596"><ele>763.0</ele><time>2026-04-27T15:17:35.001Z</time></trkpt><trkpt lat="42.35874201235727" lon="13.4875142003332"><ele>763.0</ele><time>2026-04-27T15:17:36.001Z</time></trkpt><trkpt lat="42.358792209745616" lon="13.487630868665942"><ele>763.0</ele><time>2026-04-27T15:17:37.001Z</time></trkpt><trkpt lat="42.35885497595639" lon="13.48778542711315"><ele>763.0</ele><time>2026-04-27T15:17:38.001Z</time></trkpt><trkpt lat="42.35892720472161" lon="13.487929315238002"><ele>763.0</ele><time>2026-04-27T15:17:39.001Z</time></trkpt><trkpt lat="42.35899469770398" lon="13.488037068495466"><ele>763.0</ele><time>2026-04-27T15:17:40.001Z</time></trkpt><trkpt lat="42.35906760203617" lon="13.488123869958619"><ele>767.25</ele><time>2026-04-27T15:17:41.001Z</time></trkpt><trkpt lat="42.35914270771875" lon="13.488202510791389"><ele>771.5</ele><time>2026-04-27T15:17:42.001Z</time></trkpt><trkpt lat="42.359228303723064" lon="13.488311488470286"><ele>775.75</ele><time>2026-04-27T15:17:43.001Z</time></trkpt><trkpt lat="42.3593106959366" lon="13.488434332200328"><ele>780.0</ele><time>2026-04-27T15:17:44.001Z</time></trkpt><trkpt lat="42.35940175952719" lon="13.48855347945007"><ele>780.0</ele><time>2026-04-27T15:17:45.001Z</time></trkpt><trkpt lat="42.35948151807869" lon="13.488672867341126"><ele>780.0</ele><time>2026-04-27T15:17:46.001Z</time></trkpt><trkpt lat="42.359549332482445" lon="13.488812311685415"><ele>780.0</ele><time>2026-04-27T15:17:47.001Z</time></trkpt><trkpt lat="42.35961434348234" lon="13.488956870052858"><ele>780.0</ele><time>2026-04-27T15:17:48.001Z</time></trkpt><trkpt lat="42.359668949066354" lon="13.489083010981165"><ele>782.4</ele><time>2026-04-27T15:17:49.001Z</time></trkpt><trkpt lat="42.359733272816335" lon="13.489176202900092"><ele>784.8</ele><time>2026-04-27T15:17:50.001Z</time></trkpt><trkpt lat="42.359817170735994" lon="13.489269766775033"><ele>787.2</ele><time>2026-04-27T15:17:51.001Z</time></trkpt><trkpt lat="42.35991712168613" lon="13.489356004736171"><ele>789.6</ele><time>2026-04-27T15:17:52.001Z</time></trkpt><trkpt lat="42.36002397924533" lon="13.489409241484202"><ele>792.0</ele><time>2026-04-27T15:17:53.001Z</time></trkpt><trkpt lat="42.36014910528284" lon="13.489463108126174"><ele>792.0</ele><time>2026-04-27T15:17:54.001Z</time></trkpt><trkpt lat="42.36023457480314" lon="13.489520314746116"><ele>792.0</ele><time>2026-04-27T15:17:55.001Z</time></trkpt><trkpt lat="42.3602918143441" lon="13.489600162939496"><ele>792.0</ele><time>2026-04-27T15:17:56.001Z</time></trkpt><trkpt lat="42.36036873797788" lon="13.489705372484531"><ele>792.0</ele><time>2026-04-27T15:17:57.001Z</time></trkpt><trkpt lat="42.3604719467153" lon="13.489802265121757"><ele>792.0</ele><time>2026-04-27T15:17:58.001Z</time></trkpt><trkpt lat="42.360589797933244" lon="13.489886299531717"><ele>794.0</ele><time>2026-04-27T15:17:59.001Z</time></trkpt><trkpt lat="42.360710835655276" lon="13.489971303068144"><ele>796.0</ele><time>2026-04-27T15:18:00.001Z</time></trkpt><trkpt lat="42.36082124033721" lon="13.490074143642696"><ele>798.0</ele><time>2026-04-27T15:18:01.001Z</time></trkpt><trkpt lat="42.36090486595286" lon="13.490162956905506"><ele>800.0</ele><time>2026-04-27T15:18:02.001Z</time></trkpt><trkpt lat="42.36098074882963" lon="13.490226776208083"><ele>800.0</ele><time>2026-04-27T15:18:03.001Z</time></trkpt><trkpt lat="42.36107885061556" lon="13.490270601467815"><ele>800.0</ele><time>2026-04-27T15:18:04.001Z</time></trkpt><trkpt lat="42.36118305184375" lon="13.490313804352867"><ele>800.0</ele><time>2026-04-27T15:18:05.001Z</time></trkpt><trkpt lat="42.361274799013465" lon="13.490384022822608"><ele>800.0</ele><time>2026-04-27T15:18:06.001Z</time></trkpt><trkpt lat="42.36136585598399" lon="13.490485845829483"><ele>800.0</ele><time>2026-04-27T15:18:07.001Z</time></trkpt><trkpt lat="42.36147334950513" lon="13.490604454750727"><ele>802.4</ele><time>2026-04-27T15:18:08.001Z</time></trkpt><trkpt lat="42.361571490415265" lon="13.490705411289158"><ele>804.8</ele><time>2026-04-27T15:18:09.001Z</time></trkpt><trkpt lat="42.36165946694923" lon="13.490758005155083"><ele>807.2</ele><time>2026-04-27T15:18:10.001Z</time></trkpt><trkpt lat="42.36174825459105" lon="13.490830295624017"><ele>809.6</ele><time>2026-04-27T15:18:11.001Z</time></trkpt><trkpt lat="42.361841695082056" lon="13.490889171035588"><ele>812.0</ele><time>2026-04-27T15:18:12.001Z</time></trkpt><trkpt lat="42.36190775961595" lon="13.490939174185849"><ele>812.0</ele><time>2026-04-27T15:18:13.001Z</time></trkpt><trkpt lat="42.36197090497794" lon="13.491012698198562"><ele>812.0</ele><time>2026-04-27T15:18:14.001Z</time></trkpt><trkpt lat="42.36204054782775" lon="13.491114066785181"><ele>812.0</ele><time>2026-04-27T15:18:15.001Z</time></trkpt><trkpt lat="42.362098620564424" lon="13.491243672409812"><ele>812.0</ele><time>2026-04-27T15:18:16.001Z</time></trkpt><trkpt lat="42.362173316333894" lon="13.491369237097276"><ele>812.0</ele><time>2026-04-27T15:18:17.001Z</time></trkpt><trkpt lat="42.3622811402474" lon="13.491495728830053"><ele>813.4000000000001</ele><time>2026-04-27T15:18:18.001Z</time></trkpt><trkpt lat="42.3623789953634" lon="13.49161569132294"><ele>814.8000000000001</ele><time>2026-04-27T15:18:19.001Z</time></trkpt><trkpt lat="42.36245172133857" lon="13.49170321905119"><ele>816.2</ele><time>2026-04-27T15:18:20.001Z</time></trkpt><trkpt lat="42.36251703385554" lon="13.491802930943855"><ele>817.6</ele><time>2026-04-27T15:18:21.001Z</time></trkpt><trkpt lat="42.36256821271689" lon="13.4919278444849"><ele>819.0</ele><time>2026-04-27T15:18:22.001Z</time></trkpt><trkpt lat="42.36261117852178" lon="13.492063474494918"><ele>821.25</ele><time>2026-04-27T15:18:23.001Z</time></trkpt><trkpt lat="42.36266177618111" lon="13.492183941868017"><ele>823.5</ele><time>2026-04-27T15:18:24.001Z</time></trkpt><trkpt lat="42.3627003193966" lon="13.49234541809885"><ele>825.75</ele><time>2026-04-27T15:18:25.001Z</time></trkpt><trkpt lat="42.3627298249046" lon="13.492485458177297"><ele>828.0</ele><time>2026-04-27T15:18:26.001Z</time></trkpt><trkpt lat="42.362766870641806" lon="13.492646757784716"><ele>828.0</ele><time>2026-04-27T15:18:27.001Z</time></trkpt><trkpt lat="42.36280094899082" lon="13.492800337310026"><ele>828.0</ele><time>2026-04-27T15:18:28.001Z</time></trkpt><trkpt lat="42.36283513251362" lon="13.49293230545229"><ele>828.0</ele><time>2026-04-27T15:18:29.001Z</time></trkpt><trkpt lat="42.362831329919736" lon="13.49304257905252"><ele>828.0</ele><time>2026-04-27T15:18:30.001Z</time></trkpt><trkpt lat="42.362813831475705" lon="13.493162611395954"><ele>828.0</ele><time>2026-04-27T15:18:31.001Z</time></trkpt><trkpt lat="42.36279484343461" lon="13.493298260654392"><ele>831.2</ele><time>2026-04-27T15:18:32.001Z</time></trkpt><trkpt lat="42.36280743276923" lon="13.49341091033989"><ele>834.4</ele><time>2026-04-27T15:18:33.001Z</time></trkpt><trkpt lat="42.362833643220085" lon="13.49352450145298"><ele>837.6</ele><time>2026-04-27T15:18:34Z</time></trkpt><trkpt lat="42.3628928102779" lon="13.493625610233861"><ele>840.8000000000001</ele><time>2026-04-27T15:18:35Z</time></trkpt><trkpt lat="42.3629510893396" lon="13.493695999008239"><ele>844.0</ele><time>2026-04-27T15:18:36Z</time></trkpt><trkpt lat="42.36296421884255" lon="13.493892980900178"><ele>846.6</ele><time>2026-04-27T15:18:38Z</time></trkpt><trkpt lat="42.3629583766409" lon="13.494011928445676"><ele>849.2</ele><time>2026-04-27T15:18:39Z</time></trkpt><trkpt lat="42.36297294617848" lon="13.494153040648476"><ele>851.8000000000001</ele><time>2026-04-27T15:18:40Z</time></trkpt><trkpt lat="42.36299468322757" lon="13.494328830316842"><ele>854.4000000000001</ele><time>2026-04-27T15:18:41Z</time></trkpt><trkpt lat="42.36299878540425" lon="13.49449434518713"><ele>857.0</ele><time>2026-04-27T15:18:42Z</time></trkpt><trkpt lat="42.36299335286896" lon="13.49462855439515"><ele>858.5</ele><time>2026-04-27T15:18:43Z</time></trkpt><trkpt lat="42.36297688994319" lon="13.494758733110318"><ele>860.0</ele><time>2026-04-27T15:18:44Z</time></trkpt><trkpt lat="42.36295969016866" lon="13.49490415337462"><ele>861.5</ele><time>2026-04-27T15:18:45Z</time></trkpt><trkpt lat="42.362943432667606" lon="13.49512254580268"><ele>863.0</ele><time>2026-04-27T15:18:47Z</time></trkpt><trkpt lat="42.36293126634668" lon="13.495281888532551"><ele>863.5</ele><time>2026-04-27T15:18:48Z</time></trkpt><trkpt lat="42.36291561553967" lon="13.495431280400245"><ele>864.0</ele><time>2026-04-27T15:18:49Z</time></trkpt><trkpt lat="42.36289690609721" lon="13.49559009115078"><ele>864.5</ele><time>2026-04-27T15:18:50Z</time></trkpt><trkpt lat="42.36288284635885" lon="13.495770861842196"><ele>865.0</ele><time>2026-04-27T15:18:51Z</time></trkpt><trkpt lat="42.36287335806435" lon="13.495966700526699"><ele>865.0</ele><time>2026-04-27T15:18:52Z</time></trkpt><trkpt lat="42.36286242753498" lon="13.496146631584848"><ele>865.0</ele><time>2026-04-27T15:18:53Z</time></trkpt><trkpt lat="42.36284733251311" lon="13.496287532662363"><ele>865.0</ele><time>2026-04-27T15:18:54Z</time></trkpt><trkpt lat="42.36282952193746" lon="13.496441293854101"><ele>865.0</ele><time>2026-04-27T15:18:55.001Z</time></trkpt><trkpt lat="42.36282176376116" lon="13.496590442813437"><ele>866.2</ele><time>2026-04-27T15:18:56Z</time></trkpt><trkpt lat="42.36283145384711" lon="13.496713234374806"><ele>867.4</ele><time>2026-04-27T15:18:57Z</time></trkpt><trkpt lat="42.362861719213285" lon="13.496859790722747"><ele>868.5999999999999</ele><time>2026-04-27T15:18:58Z</time></trkpt><trkpt lat="42.362900867731064" lon="13.49701313266695"><ele>869.8</ele><time>2026-04-27T15:18:59Z</time></trkpt><trkpt lat="42.36293180955514" lon="13.497115875294142"><ele>871.0</ele><time>2026-04-27T15:19:00Z</time></trkpt><trkpt lat="42.3629299870712" lon="13.497218961743656"><ele>871.6666666666666</ele><time>2026-04-27T15:19:01Z</time></trkpt><trkpt lat="42.36290770087441" lon="13.497346407885194"><ele>872.3333333333333</ele><time>2026-04-27T15:19:02Z</time></trkpt><trkpt lat="42.36289122859281" lon="13.497482645115014"><ele>873.0</ele><time>2026-04-27T15:19:03Z</time></trkpt><trkpt lat="42.36290331681521" lon="13.49760503118493"><ele>873.6666666666667</ele><time>2026-04-27T15:19:04Z</time></trkpt><trkpt lat="42.362930741684146" lon="13.497700834245832"><ele>874.3333333333334</ele><time>2026-04-27T15:19:05Z</time></trkpt><trkpt lat="42.36297128300676" lon="13.497796716920156"><ele>875.0</ele><time>2026-04-27T15:19:06Z</time></trkpt><trkpt lat="42.36302814073186" lon="13.497899634348883"><ele>878.6</ele><time>2026-04-27T15:19:07Z</time></trkpt><trkpt lat="42.363092826977564" lon="13.497995332401409"><ele>882.2</ele><time>2026-04-27T15:19:08Z</time></trkpt><trkpt lat="42.36316701153055" lon="13.498083667518845"><ele>885.8</ele><time>2026-04-27T15:19:09Z</time></trkpt><trkpt lat="42.36324482930492" lon="13.498149764430336"><ele>889.4</ele><time>2026-04-27T15:19:10Z</time></trkpt><trkpt lat="42.36332663040723" lon="13.498211145772846"><ele>893.0</ele><time>2026-04-27T15:19:11Z</time></trkpt><trkpt lat="42.36339345940743" lon="13.498267474016986"><ele>893.0</ele><time>2026-04-27T15:19:12Z</time></trkpt><trkpt lat="42.363477522457224" lon="13.498335060214236"><ele>893.0</ele><time>2026-04-27T15:19:13Z</time></trkpt><trkpt lat="42.36356297175864" lon="13.498412378230919"><ele>893.0</ele><time>2026-04-27T15:19:14Z</time></trkpt><trkpt lat="42.36363440966196" lon="13.498493665264569"><ele>893.0</ele><time>2026-04-27T15:19:15Z</time></trkpt><trkpt lat="42.36366696649424" lon="13.498568099330196"><ele>893.0</ele><time>2026-04-27T15:19:16Z</time></trkpt><trkpt lat="42.36369251636725" lon="13.49875394858356"><ele>893.5000000000001</ele><time>2026-04-27T15:19:18Z</time></trkpt><trkpt lat="42.36372456879118" lon="13.498869002904897"><ele>894.0</ele><time>2026-04-27T15:19:19Z</time></trkpt><trkpt lat="42.36375665100493" lon="13.498965060117268"><ele>894.5</ele><time>2026-04-27T15:19:20Z</time></trkpt><trkpt lat="42.36382999630982" lon="13.499062829304213"><ele>895.0</ele><time>2026-04-27T15:19:22Z</time></trkpt><trkpt lat="42.36389257569822" lon="13.499097998685633"><ele>895.5000000000001</ele><time>2026-04-27T15:19:23Z</time></trkpt><trkpt lat="42.363939329357144" lon="13.499160533336006"><ele>896.0</ele><time>2026-04-27T15:19:24Z</time></trkpt><trkpt lat="42.36397184495533" lon="13.499244453398841"><ele>898.0</ele><time>2026-04-27T15:19:25Z</time></trkpt><trkpt lat="42.364000032267214" lon="13.499340195093097"><ele>899.9999999999999</ele><time>2026-04-27T15:19:26Z</time></trkpt><trkpt lat="42.3640565789946" lon="13.499444126459322"><ele>901.9999999999999</ele><time>2026-04-27T15:19:27Z</time></trkpt><trkpt lat="42.36413165753524" lon="13.49953501687421"><ele>904.0</ele><time>2026-04-27T15:19:28Z</time></trkpt><trkpt lat="42.364206791475745" lon="13.499618242285246"><ele>906.0</ele><time>2026-04-27T15:19:29Z</time></trkpt><trkpt lat="42.3642791242865" lon="13.499740507393486"><ele>906.5</ele><time>2026-04-27T15:19:30Z</time></trkpt><trkpt lat="42.364351359708444" lon="13.499882943755447"><ele>907.0</ele><time>2026-04-27T15:19:31Z</time></trkpt><trkpt lat="42.36442234827891" lon="13.500033033850041"><ele>907.5</ele><time>2026-04-27T15:19:32Z</time></trkpt><trkpt lat="42.36447742164845" lon="13.500151796883696"><ele>908.0</ele><time>2026-04-27T15:19:33Z</time></trkpt><trkpt lat="42.364529638476746" lon="13.500270378006796"><ele>908.0</ele><time>2026-04-27T15:19:34Z</time></trkpt><trkpt lat="42.36459084348691" lon="13.500397209684387"><ele>908.0</ele><time>2026-04-27T15:19:35Z</time></trkpt><trkpt lat="42.36463658019807" lon="13.500513243789808"><ele>908.0</ele><time>2026-04-27T15:19:36Z</time></trkpt><trkpt lat="42.36468058668973" lon="13.500640045851656"><ele>908.0</ele><time>2026-04-27T15:19:37Z</time></trkpt><trkpt lat="42.3647242564098" lon="13.500749069116909"><ele>908.0</ele><time>2026-04-27T15:19:38Z</time></trkpt><trkpt lat="42.36476506877879" lon="13.500842869985915"><ele>910.0000000000001</ele><time>2026-04-27T15:19:39Z</time></trkpt><trkpt lat="42.36479745767198" lon="13.500927756606755"><ele>912.0</ele><time>2026-04-27T15:19:40Z</time></trkpt><trkpt lat="42.364845605164206" lon="13.50104982396883"><ele>914.0</ele><time>2026-04-27T15:19:41Z</time></trkpt><trkpt lat="42.36488337657813" lon="13.501176251414906"><ele>916.0</ele><time>2026-04-27T15:19:42Z</time></trkpt><trkpt lat="42.364910857687235" lon="13.501277503737345"><ele>918.0000000000001</ele><time>2026-04-27T15:19:43Z</time></trkpt><trkpt lat="42.36493161236639" lon="13.50138557435573"><ele>920.0</ele><time>2026-04-27T15:19:44Z</time></trkpt><trkpt lat="42.364947354979435" lon="13.501520300040744"><ele>921.4</ele><time>2026-04-27T15:19:45Z</time></trkpt><trkpt lat="42.36497154302416" lon="13.501648436774403"><ele>922.8</ele><time>2026-04-27T15:19:46Z</time></trkpt><trkpt lat="42.36500931362467" lon="13.501777193659438"><ele>924.2</ele><time>2026-04-27T15:19:47Z</time></trkpt><trkpt lat="42.36503631664115" lon="13.501920972500152"><ele>925.6</ele><time>2026-04-27T15:19:48Z</time></trkpt><trkpt lat="42.365072122621605" lon="13.50201730064075"><ele>927.0</ele><time>2026-04-27T15:19:49Z</time></trkpt><trkpt lat="42.36510692025651" lon="13.502136282046509"><ele>928.0</ele><time>2026-04-27T15:19:50.001Z</time></trkpt><trkpt lat="42.36513511800245" lon="13.502237544946656"><ele>929.0</ele><time>2026-04-27T15:19:51.001Z</time></trkpt><trkpt lat="42.365165681789044" lon="13.502357254567283"><ele>930.0</ele><time>2026-04-27T15:19:52.001Z</time></trkpt><trkpt lat="42.365184203440165" lon="13.502458188672898"><ele>931.0</ele><time>2026-04-27T15:19:53.001Z</time></trkpt><trkpt lat="42.36519337442982" lon="13.502579673541556"><ele>932.0</ele><time>2026-04-27T15:19:54.001Z</time></trkpt><trkpt lat="42.365207721759994" lon="13.502694583419"><ele>933.0</ele><time>2026-04-27T15:19:55.001Z</time></trkpt><trkpt lat="42.365251542368064" lon="13.502788956788065"><ele>933.0</ele><time>2026-04-27T15:19:56.001Z</time></trkpt><trkpt lat="42.36530157243352" lon="13.502913510907463"><ele>933.0</ele><time>2026-04-27T15:19:57.001Z</time></trkpt><trkpt lat="42.36533922534476" lon="13.50302647730639"><ele>933.0</ele><time>2026-04-27T15:19:58.001Z</time></trkpt><trkpt lat="42.36539908079316" lon="13.503153692292736"><ele>933.0</ele><time>2026-04-27T15:19:59.001Z</time></trkpt><trkpt lat="42.36546510213786" lon="13.503265337584551"><ele>933.0</ele><time>2026-04-27T15:20:00.001Z</time></trkpt><trkpt lat="42.36554557056244" lon="13.503406772444919"><ele>934.5999999999999</ele><time>2026-04-27T15:20:01.001Z</time></trkpt><trkpt lat="42.36561523192421" lon="13.503527007284935"><ele>936.1999999999999</ele><time>2026-04-27T15:20:02.001Z</time></trkpt><trkpt lat="42.36566584089517" lon="13.503645724639204"><ele>937.8</ele><time>2026-04-27T15:20:03.001Z</time></trkpt><trkpt lat="42.36570939700239" lon="13.503745394117946"><ele>939.4</ele><time>2026-04-27T15:20:04.001Z</time></trkpt><trkpt lat="42.36574641172225" lon="13.503861227485558"><ele>941.0</ele><time>2026-04-27T15:20:05.001Z</time></trkpt><trkpt lat="42.365780617835746" lon="13.503980095595844"><ele>941.8</ele><time>2026-04-27T15:20:06.001Z</time></trkpt><trkpt lat="42.36580923919444" lon="13.504103519582623"><ele>942.5999999999999</ele><time>2026-04-27T15:20:07.001Z</time></trkpt><trkpt lat="42.36583485591416" lon="13.50420751832735"><ele>943.4</ele><time>2026-04-27T15:20:08.001Z</time></trkpt><trkpt lat="42.365841158336735" lon="13.50432266635345"><ele>944.2</ele><time>2026-04-27T15:20:09.001Z</time></trkpt><trkpt lat="42.36584049611275" lon="13.504451192497875"><ele>945.0</ele><time>2026-04-27T15:20:10.001Z</time></trkpt><trkpt lat="42.36582811981506" lon="13.504591355565088"><ele>945.2</ele><time>2026-04-27T15:20:11.001Z</time></trkpt><trkpt lat="42.36580828670472" lon="13.504725231699249"><ele>945.4</ele><time>2026-04-27T15:20:12.001Z</time></trkpt><trkpt lat="42.36580086270827" lon="13.504847833750388"><ele>945.5999999999999</ele><time>2026-04-27T15:20:13Z</time></trkpt><trkpt lat="42.36582230721391" lon="13.504989571519246"><ele>945.8</ele><time>2026-04-27T15:20:14Z</time></trkpt><trkpt lat="42.36585895007127" lon="13.505153432812412"><ele>946.0</ele><time>2026-04-27T15:20:15Z</time></trkpt><trkpt lat="42.365899657461604" lon="13.505306963988232"><ele>946.1999999999999</ele><time>2026-04-27T15:20:16Z</time></trkpt><trkpt lat="42.365932784128944" lon="13.50546485918087"><ele>946.3999999999999</ele><time>2026-04-27T15:20:17Z</time></trkpt><trkpt lat="42.36596104372518" lon="13.505606225702133"><ele>946.6</ele><time>2026-04-27T15:20:18Z</time></trkpt><trkpt lat="42.365974717602576" lon="13.505741733649852"><ele>946.8</ele><time>2026-04-27T15:20:19Z</time></trkpt><trkpt lat="42.365992405385725" lon="13.505871068980758"><ele>947.0</ele><time>2026-04-27T15:20:20Z</time></trkpt><trkpt lat="42.36601109314312" lon="13.505974541148781"><ele>947.0</ele><time>2026-04-27T15:20:21Z</time></trkpt><trkpt lat="42.36603360720979" lon="13.506123391834697"><ele>947.0</ele><time>2026-04-27T15:20:22Z</time></trkpt><trkpt lat="42.36603859311291" lon="13.50624442592417"><ele>947.0</ele><time>2026-04-27T15:20:23Z</time></trkpt><trkpt lat="42.36604778446472" lon="13.506386411639644"><ele>947.0</ele><time>2026-04-27T15:20:24Z</time></trkpt><trkpt lat="42.366075222018885" lon="13.50650424658828"><ele>947.0</ele><time>2026-04-27T15:20:25Z</time></trkpt><trkpt lat="42.366138607138346" lon="13.506613244725248"><ele>947.3333333333334</ele><time>2026-04-27T15:20:27Z</time></trkpt><trkpt lat="42.36618885942518" lon="13.506675920466835"><ele>947.6666666666667</ele><time>2026-04-27T15:20:28Z</time></trkpt><trkpt lat="42.366228290044646" lon="13.506767953554979"><ele>948.0</ele><time>2026-04-27T15:20:29Z</time></trkpt><trkpt lat="42.366267881195796" lon="13.50686140705812"><ele>948.3333333333333</ele><time>2026-04-27T15:20:30Z</time></trkpt><trkpt lat="42.36632101394326" lon="13.50693264259745"><ele>948.6666666666666</ele><time>2026-04-27T15:20:31Z</time></trkpt><trkpt lat="42.36639245633754" lon="13.507014165769565"><ele>949.0</ele><time>2026-04-27T15:20:32Z</time></trkpt><trkpt lat="42.36646274053102" lon="13.507084791315894"><ele>951.2</ele><time>2026-04-27T15:20:33Z</time></trkpt><trkpt lat="42.36652624919025" lon="13.507180573439479"><ele>953.4000000000001</ele><time>2026-04-27T15:20:34Z</time></trkpt><trkpt lat="42.366585515628095" lon="13.50729043997917"><ele>955.6</ele><time>2026-04-27T15:20:35Z</time></trkpt><trkpt lat="42.366656876008236" lon="13.507414505265055"><ele>957.8</ele><time>2026-04-27T15:20:36Z</time></trkpt><trkpt lat="42.366728466846986" lon="13.50752300540974"><ele>960.0</ele><time>2026-04-27T15:20:37Z</time></trkpt><trkpt lat="42.3667886750584" lon="13.507623416975171"><ele>960.0</ele><time>2026-04-27T15:20:38Z</time></trkpt><trkpt lat="42.36683702326809" lon="13.507708749425396"><ele>960.0</ele><time>2026-04-27T15:20:39Z</time></trkpt><trkpt lat="42.36688327283635" lon="13.507902529809403"><ele>960.0</ele><time>2026-04-27T15:20:41Z</time></trkpt><trkpt lat="42.36692873446126" lon="13.508034709021862"><ele>960.0</ele><time>2026-04-27T15:20:42Z</time></trkpt><trkpt lat="42.366971409358946" lon="13.508169985543596"><ele>960.0</ele><time>2026-04-27T15:20:43Z</time></trkpt><trkpt lat="42.36699278035098" lon="13.508280204881661"><ele>960.6</ele><time>2026-04-27T15:20:44Z</time></trkpt><trkpt lat="42.36700536578259" lon="13.508407493908148"><ele>961.2</ele><time>2026-04-27T15:20:45Z</time></trkpt><trkpt lat="42.367003170963095" lon="13.508548284776344"><ele>961.8</ele><time>2026-04-27T15:20:46Z</time></trkpt><trkpt lat="42.36701028541557" lon="13.508663407245077"><ele>962.4</ele><time>2026-04-27T15:20:47Z</time></trkpt><trkpt lat="42.36706969626052" lon="13.50877798055372"><ele>963.0</ele><time>2026-04-27T15:20:49Z</time></trkpt><trkpt lat="42.36717438856619" lon="13.508858278189573"><ele>967.0</ele><time>2026-04-27T15:20:51Z</time></trkpt><trkpt lat="42.36720924096441" lon="13.509013400934368"><ele>971.0</ele><time>2026-04-27T15:20:53Z</time></trkpt><trkpt lat="42.36721430340263" lon="13.509119079985904"><ele>975.0</ele><time>2026-04-27T15:20:54Z</time></trkpt><trkpt lat="42.367232616381365" lon="13.509254484860648"><ele>979.0</ele><time>2026-04-27T15:20:55Z</time></trkpt><trkpt lat="42.36726845168902" lon="13.509399454462022"><ele>983.0</ele><time>2026-04-27T15:20:56Z</time></trkpt><trkpt lat="42.367289099643294" lon="13.509495986306115"><ele>983.0</ele><time>2026-04-27T15:20:57Z</time></trkpt><trkpt lat="42.36727678099988" lon="13.509614417370765"><ele>983.0</ele><time>2026-04-27T15:20:59Z</time></trkpt><trkpt lat="42.36727244992911" lon="13.50971338257238"><ele>983.0</ele><time>2026-04-27T15:21:13Z</time></trkpt><trkpt lat="42.36727004635275" lon="13.509618241319766"><ele>983.0</ele><time>2026-04-27T15:21:28Z</time></trkpt><trkpt lat="42.36726867510135" lon="13.509435792896724"><ele>983.0</ele><time>2026-04-27T15:21:30Z</time></trkpt><trkpt lat="42.367246235591935" lon="13.509302575375811"><ele>983.0000000000001</ele><time>2026-04-27T15:21:31Z</time></trkpt><trkpt lat="42.36722411022811" lon="13.509197903852987"><ele>983.0</ele><time>2026-04-27T15:21:32Z</time></trkpt><trkpt lat="42.36719984550713" lon="13.509099731179177"><ele>983.0</ele><time>2026-04-27T15:21:33Z</time></trkpt><trkpt lat="42.36718024499731" lon="13.509011178894594"><ele>983.0</ele><time>2026-04-27T15:21:34Z</time></trkpt><trkpt lat="42.36715972120072" lon="13.508867124238003"><ele>983.0000000000001</ele><time>2026-04-27T15:21:36Z</time></trkpt><trkpt lat="42.36714116458683" lon="13.508779156456589"><ele>983.0</ele><time>2026-04-27T15:21:38Z</time></trkpt><trkpt lat="42.36708204834916" lon="13.50874430966353"><ele>979.0</ele><time>2026-04-27T15:21:40Z</time></trkpt><trkpt lat="42.36700450937299" lon="13.508666561803883"><ele>975.0</ele><time>2026-04-27T15:21:42Z</time></trkpt><trkpt lat="42.366979449642244" lon="13.508564970465713"><ele>971.0</ele><time>2026-04-27T15:21:44Z</time></trkpt><trkpt lat="42.366981179385476" lon="13.508413259911086"><ele>967.0</ele><time>2026-04-27T15:21:46Z</time></trkpt><trkpt lat="42.36697198251011" lon="13.508289114692396"><ele>963.0</ele><time>2026-04-27T15:21:47Z</time></trkpt><trkpt lat="42.36696344222104" lon="13.50818063184853"><ele>963.0</ele><time>2026-04-27T15:21:48Z</time></trkpt><trkpt lat="42.36694477616871" lon="13.508093974792018"><ele>963.0</ele><time>2026-04-27T15:21:49Z</time></trkpt><trkpt lat="42.366912491854926" lon="13.50801099616176"><ele>963.0</ele><time>2026-04-27T15:21:50Z</time></trkpt><trkpt lat="42.3668750211069" lon="13.50790786373613"><ele>963.0</ele><time>2026-04-27T15:21:51Z</time></trkpt><trkpt lat="42.36684184873986" lon="13.507826531342944"><ele>963.0</ele><time>2026-04-27T15:21:52Z</time></trkpt><trkpt lat="42.3667447490311" lon="13.507791514877425"><ele>963.0</ele><time>2026-04-27T15:21:55Z</time></trkpt><trkpt lat="42.366674717783745" lon="13.507758695173582"><ele>962.5</ele><time>2026-04-27T15:21:57.001Z</time></trkpt><trkpt lat="42.36661431397298" lon="13.50770285806697"><ele>962.0</ele><time>2026-04-27T15:21:59.001Z</time></trkpt><trkpt lat="42.36654744971585" lon="13.507694717339982"><ele>961.5</ele><time>2026-04-27T15:22:01.001Z</time></trkpt><trkpt lat="42.366499779886674" lon="13.507830658522172"><ele>961.0</ele><time>2026-04-27T15:22:05.001Z</time></trkpt><trkpt lat="42.366419114780626" lon="13.507881365743286"><ele>960.5</ele><time>2026-04-27T15:22:06.001Z</time></trkpt><trkpt lat="42.366331906222484" lon="13.507928423178184"><ele>960.0</ele><time>2026-04-27T15:22:07.001Z</time></trkpt><trkpt lat="42.366232836530116" lon="13.507995620009138"><ele>958.6</ele><time>2026-04-27T15:22:08.001Z</time></trkpt><trkpt lat="42.366147766418564" lon="13.508038990525465"><ele>957.2</ele><time>2026-04-27T15:22:09.001Z</time></trkpt><trkpt lat="42.366082849770294" lon="13.508077351888064"><ele>955.8</ele><time>2026-04-27T15:22:10.001Z</time></trkpt><trkpt lat="42.36601898168131" lon="13.508223798255328"><ele>954.4</ele><time>2026-04-27T15:22:12.001Z</time></trkpt><trkpt lat="42.365966954024664" lon="13.50833237559019"><ele>953.0</ele><time>2026-04-27T15:22:13.001Z</time></trkpt><trkpt lat="42.36591510864953" lon="13.508460092835225"><ele>953.0000000000001</ele><time>2026-04-27T15:22:14.001Z</time></trkpt><trkpt lat="42.36586424011583" lon="13.508566690656963"><ele>953.0</ele><time>2026-04-27T15:22:15.001Z</time></trkpt><trkpt lat="42.36581001820533" lon="13.508614035222925"><ele>953.0</ele><time>2026-04-27T15:22:16.001Z</time></trkpt><trkpt lat="42.36576188996223" lon="13.508679326624183"><ele>953.0</ele><time>2026-04-27T15:22:18.001Z</time></trkpt><trkpt lat="42.36575736227664" lon="13.508842438952605"><ele>953.0000000000001</ele><time>2026-04-27T15:22:20.001Z</time></trkpt><trkpt lat="42.3657323340198" lon="13.5089673407669"><ele>953.0</ele><time>2026-04-27T15:22:21.001Z</time></trkpt><trkpt lat="42.36568781867354" lon="13.509085603008508"><ele>953.6666666666667</ele><time>2026-04-27T15:22:22.001Z</time></trkpt><trkpt lat="42.365642011104086" lon="13.50917667091827"><ele>954.3333333333334</ele><time>2026-04-27T15:22:23.001Z</time></trkpt><trkpt lat="42.36560032892479" lon="13.509331367004085"><ele>955.0</ele><time>2026-04-27T15:22:25.001Z</time></trkpt><trkpt lat="42.36560178684651" lon="13.509442289752016"><ele>955.6666666666667</ele><time>2026-04-27T15:22:26.001Z</time></trkpt><trkpt lat="42.36560241525896" lon="13.509538479769846"><ele>956.3333333333334</ele><time>2026-04-27T15:22:27Z</time></trkpt><trkpt lat="42.3656165786887" lon="13.509634530233614"><ele>957.0</ele><time>2026-04-27T15:22:28Z</time></trkpt><trkpt lat="42.36569942830736" lon="13.509742037037649"><ele>957.0</ele><time>2026-04-27T15:22:30Z</time></trkpt><trkpt lat="42.36577847140717" lon="13.509800421951356"><ele>957.0</ele><time>2026-04-27T15:22:31Z</time></trkpt><trkpt lat="42.36587093073466" lon="13.509855625742228"><ele>957.0</ele><time>2026-04-27T15:22:32Z</time></trkpt><trkpt lat="42.36596884227098" lon="13.50990500552032"><ele>957.0</ele><time>2026-04-27T15:22:33Z</time></trkpt><trkpt lat="42.36605243405865" lon="13.50993440066337"><ele>957.0</ele><time>2026-04-27T15:22:34Z</time></trkpt><trkpt lat="42.3661127712654" lon="13.509960135370228"><ele>957.0</ele><time>2026-04-27T15:22:35Z</time></trkpt><trkpt lat="42.3660973833009" lon="13.510117702790453"><ele>957.0</ele><time>2026-04-27T15:22:37Z</time></trkpt><trkpt lat="42.36605214070887" lon="13.510218805811048"><ele>957.0</ele><time>2026-04-27T15:22:38Z</time></trkpt><trkpt lat="42.36600906962097" lon="13.510348762684036"><ele>957.0</ele><time>2026-04-27T15:22:39Z</time></trkpt><trkpt lat="42.36597408584821" lon="13.510467814980338"><ele>957.0</ele><time>2026-04-27T15:22:40Z</time></trkpt><trkpt lat="42.365937243483124" lon="13.51055174495191"><ele>957.0</ele><time>2026-04-27T15:22:41Z</time></trkpt><trkpt lat="42.36587564115729" lon="13.510627849963683"><ele>957.0</ele><time>2026-04-27T15:22:42Z</time></trkpt><trkpt lat="42.36579779544314" lon="13.510690386163597"><ele>956.8333333333334</ele><time>2026-04-27T15:22:43Z</time></trkpt><trkpt lat="42.365732286587914" lon="13.510750177603162"><ele>956.6666666666667</ele><time>2026-04-27T15:22:44Z</time></trkpt><trkpt lat="42.36568664930776" lon="13.510830741870512"><ele>956.5</ele><time>2026-04-27T15:22:45Z</time></trkpt><trkpt lat="42.36562661006028" lon="13.51094584148186"><ele>956.3333333333334</ele><time>2026-04-27T15:22:46Z</time></trkpt><trkpt lat="42.365596087691" lon="13.51106830447367"><ele>956.1666666666667</ele><time>2026-04-27T15:22:47Z</time></trkpt><trkpt lat="42.36557794192599" lon="13.511174399338499"><ele>956.0</ele><time>2026-04-27T15:22:48Z</time></trkpt><trkpt lat="42.365567492267104" lon="13.511332805050817"><ele>955.5999999999999</ele><time>2026-04-27T15:22:49Z</time></trkpt><trkpt lat="42.365540997422485" lon="13.511466969507847"><ele>955.1999999999999</ele><time>2026-04-27T15:22:50Z</time></trkpt><trkpt lat="42.36549752403257" lon="13.511599786644213"><ele>954.8000000000001</ele><time>2026-04-27T15:22:51Z</time></trkpt><trkpt lat="42.36544282183005" lon="13.511750325526423"><ele>954.4000000000001</ele><time>2026-04-27T15:22:52Z</time></trkpt><trkpt lat="42.365404336840236" lon="13.511877317793925"><ele>954.0</ele><time>2026-04-27T15:22:53Z</time></trkpt><trkpt lat="42.36537617510114" lon="13.51200780526118"><ele>954.6</ele><time>2026-04-27T15:22:54Z</time></trkpt><trkpt lat="42.365366200900034" lon="13.51210731806058"><ele>955.2</ele><time>2026-04-27T15:22:55Z</time></trkpt><trkpt lat="42.36538210563831" lon="13.51226967416751"><ele>955.8000000000001</ele><time>2026-04-27T15:22:57Z</time></trkpt><trkpt lat="42.365409193457765" lon="13.512441322445298"><ele>956.4000000000001</ele><time>2026-04-27T15:22:59Z</time></trkpt><trkpt lat="42.36545102031453" lon="13.512559661112247"><ele>957.0</ele><time>2026-04-27T15:23:00Z</time></trkpt><trkpt lat="42.365495029626466" lon="13.512730896367044"><ele>957.0</ele><time>2026-04-27T15:23:01Z</time></trkpt><trkpt lat="42.36552229523373" lon="13.512884588583963"><ele>957.0</ele><time>2026-04-27T15:23:02Z</time></trkpt><trkpt lat="42.365537047566264" lon="13.51303348427434"><ele>957.0</ele><time>2026-04-27T15:23:03Z</time></trkpt><trkpt lat="42.3655470225308" lon="13.513163271348391"><ele>957.0</ele><time>2026-04-27T15:23:04Z</time></trkpt><trkpt lat="42.36553156848542" lon="13.51325615506421"><ele>957.0</ele><time>2026-04-27T15:23:06Z</time></trkpt><trkpt lat="42.36546793715913" lon="13.513232307082887"><ele>957.0</ele><time>2026-04-27T15:23:08Z</time></trkpt><trkpt lat="42.365409733056644" lon="13.51319378643478"><ele>957.0</ele><time>2026-04-27T15:23:09Z</time></trkpt><trkpt lat="42.36533140717887" lon="13.51310173807671"><ele>957.0</ele><time>2026-04-27T15:23:10Z</time></trkpt><trkpt lat="42.36527251065216" lon="13.512998214930501"><ele>957.0</ele><time>2026-04-27T15:23:11Z</time></trkpt><trkpt lat="42.36520204766186" lon="13.512871417066854"><ele>957.0</ele><time>2026-04-27T15:23:12Z</time></trkpt><trkpt lat="42.365110662574885" lon="13.512725393065494"><ele>957.0</ele><time>2026-04-27T15:23:13Z</time></trkpt><trkpt lat="42.365016590944194" lon="13.512607939023857"><ele>957.0</ele><time>2026-04-27T15:23:14Z</time></trkpt><trkpt lat="42.364951526432236" lon="13.512501864564241"><ele>957.0</ele><time>2026-04-27T15:23:15Z</time></trkpt><trkpt lat="42.364888463486025" lon="13.512378738965513"><ele>957.0</ele><time>2026-04-27T15:23:16Z</time></trkpt><trkpt lat="42.36482800537121" lon="13.512271890524952"><ele>957.0</ele><time>2026-04-27T15:23:17Z</time></trkpt><trkpt lat="42.36476098945289" lon="13.512159930326083"><ele>954.8</ele><time>2026-04-27T15:23:18Z</time></trkpt><trkpt lat="42.364685755448754" lon="13.512064890103085"><ele>952.6</ele><time>2026-04-27T15:23:19Z</time></trkpt><trkpt lat="42.36459381067778" lon="13.511978019704912"><ele>950.3999999999999</ele><time>2026-04-27T15:23:20Z</time></trkpt><trkpt lat="42.36449921486713" lon="13.51189833794747"><ele>948.1999999999999</ele><time>2026-04-27T15:23:21Z</time></trkpt><trkpt lat="42.36441107318917" lon="13.511799598829404"><ele>946.0</ele><time>2026-04-27T15:23:22Z</time></trkpt><trkpt lat="42.36433679482561" lon="13.511699736611044"><ele>946.0</ele><time>2026-04-27T15:23:23Z</time></trkpt><trkpt lat="42.36426122511304" lon="13.511617153923828"><ele>945.9999999999999</ele><time>2026-04-27T15:23:24Z</time></trkpt><trkpt lat="42.36419086832401" lon="13.511534529961619"><ele>945.9999999999999</ele><time>2026-04-27T15:23:25Z</time></trkpt><trkpt lat="42.364116323834416" lon="13.511460361746463"><ele>946.0</ele><time>2026-04-27T15:23:26Z</time></trkpt><trkpt lat="42.36405005153102" lon="13.511427592106443"><ele>946.0</ele><time>2026-04-27T15:23:27Z</time></trkpt><trkpt lat="42.36395772450063" lon="13.51138640583191"><ele>946.25</ele><time>2026-04-27T15:23:28Z</time></trkpt><trkpt lat="42.36384789778108" lon="13.511345204177465"><ele>946.5</ele><time>2026-04-27T15:23:29Z</time></trkpt><trkpt lat="42.363708253265834" lon="13.511313452606304"><ele>946.75</ele><time>2026-04-27T15:23:30Z</time></trkpt><trkpt lat="42.36359487116312" lon="13.511286932585854"><ele>947.0</ele><time>2026-04-27T15:23:31Z</time></trkpt><trkpt lat="42.363502196136366" lon="13.511260124977545"><ele>946.0000000000001</ele><time>2026-04-27T15:23:32Z</time></trkpt><trkpt lat="42.36340556045983" lon="13.511236864008554"><ele>945.0</ele><time>2026-04-27T15:23:33Z</time></trkpt><trkpt lat="42.36329868827591" lon="13.51121985821607"><ele>944.0</ele><time>2026-04-27T15:23:34Z</time></trkpt><trkpt lat="42.363211166808085" lon="13.511200557350259"><ele>943.0</ele><time>2026-04-27T15:23:35Z</time></trkpt><trkpt lat="42.36314364466307" lon="13.511168150117003"><ele>942.0000000000001</ele><time>2026-04-27T15:23:36Z</time></trkpt><trkpt lat="42.36309538146168" lon="13.511093702634161"><ele>941.0</ele><time>2026-04-27T15:23:37Z</time></trkpt><trkpt lat="42.363025806481154" lon="13.51098369399985"><ele>938.75</ele><time>2026-04-27T15:23:38Z</time></trkpt><trkpt lat="42.362938331885324" lon="13.510876003186565"><ele>936.5</ele><time>2026-04-27T15:23:39Z</time></trkpt><trkpt lat="42.36284127278671" lon="13.510764384594058"><ele>934.25</ele><time>2026-04-27T15:23:40Z</time></trkpt><trkpt lat="42.362759584373435" lon="13.51066259836582"><ele>932.0</ele><time>2026-04-27T15:23:41Z</time></trkpt><trkpt lat="42.362681551162886" lon="13.510580014770925"><ele>932.0000000000001</ele><time>2026-04-27T15:23:42Z</time></trkpt><trkpt lat="42.36261551236708" lon="13.510512091372554"><ele>932.0</ele><time>2026-04-27T15:23:43Z</time></trkpt><trkpt lat="42.36255126599829" lon="13.510497430526717"><ele>932.0</ele><time>2026-04-27T15:23:44Z</time></trkpt><trkpt lat="42.362481291373044" lon="13.510503886547871"><ele>932.0</ele><time>2026-04-27T15:23:45Z</time></trkpt><trkpt lat="42.36238131502315" lon="13.510518262260065"><ele>932.0000000000001</ele><time>2026-04-27T15:23:46Z</time></trkpt><trkpt lat="42.362288755845135" lon="13.510534307757272"><ele>932.0</ele><time>2026-04-27T15:23:47Z</time></trkpt><trkpt lat="42.36219498632153" lon="13.51056787326936"><ele>930.4000000000001</ele><time>2026-04-27T15:23:48Z</time></trkpt><trkpt lat="42.36209616219393" lon="13.510613064766511"><ele>928.8000000000001</ele><time>2026-04-27T15:23:49Z</time></trkpt><trkpt lat="42.362011858743344" lon="13.510639392994856"><ele>927.2</ele><time>2026-04-27T15:23:50Z</time></trkpt><trkpt lat="42.36190792660004" lon="13.51064640410526"><ele>925.6</ele><time>2026-04-27T15:23:51Z</time></trkpt><trkpt lat="42.36179546208345" lon="13.510666705505457"><ele>924.0</ele><time>2026-04-27T15:23:52Z</time></trkpt><trkpt lat="42.36169740565631" lon="13.510704925112417"><ele>924.0</ele><time>2026-04-27T15:23:53Z</time></trkpt><trkpt lat="42.361609034261974" lon="13.51072536796976"><ele>924.0000000000001</ele><time>2026-04-27T15:23:54Z</time></trkpt><trkpt lat="42.36151052209966" lon="13.510717158466218"><ele>924.0000000000001</ele><time>2026-04-27T15:23:55Z</time></trkpt><trkpt lat="42.3613927349421" lon="13.510702932710926"><ele>924.0</ele><time>2026-04-27T15:23:56Z</time></trkpt><trkpt lat="42.36131706133318" lon="13.51069534012719"><ele>924.0</ele><time>2026-04-27T15:23:57Z</time></trkpt><trkpt lat="42.36123731934694" lon="13.510652699876395"><ele>923.0</ele><time>2026-04-27T15:23:58Z</time></trkpt><trkpt lat="42.361131303747" lon="13.510597144291255"><ele>922.0000000000001</ele><time>2026-04-27T15:23:59Z</time></trkpt><trkpt lat="42.361028830617485" lon="13.510564891467249"><ele>921.0000000000001</ele><time>2026-04-27T15:24:00Z</time></trkpt><trkpt lat="42.36091147914314" lon="13.51055121027102"><ele>920.0</ele><time>2026-04-27T15:24:01Z</time></trkpt><trkpt lat="42.36081189768535" lon="13.510523874858972"><ele>919.0</ele><time>2026-04-27T15:24:02.001Z</time></trkpt><trkpt lat="42.360746320949765" lon="13.51047655223274"><ele>918.9999999999999</ele><time>2026-04-27T15:24:03.001Z</time></trkpt><trkpt lat="42.36068856958621" lon="13.510425345865794"><ele>919.0</ele><time>2026-04-27T15:24:04.001Z</time></trkpt><trkpt lat="42.36062854371632" lon="13.510364172259129"><ele>919.0</ele><time>2026-04-27T15:24:05.001Z</time></trkpt><trkpt lat="42.36055724576238" lon="13.510293189695123"><ele>919.0</ele><time>2026-04-27T15:24:06.001Z</time></trkpt><trkpt lat="42.36047907886064" lon="13.5102336469958"><ele>918.9999999999999</ele><time>2026-04-27T15:24:07.001Z</time></trkpt><trkpt lat="42.36040247504308" lon="13.5101706241275"><ele>919.0</ele><time>2026-04-27T15:24:08.001Z</time></trkpt><trkpt lat="42.36034099955614" lon="13.510114182169074"><ele>917.1428571428571</ele><time>2026-04-27T15:24:09.001Z</time></trkpt><trkpt lat="42.3602818722051" lon="13.510045683582549"><ele>915.2857142857142</ele><time>2026-04-27T15:24:10.001Z</time></trkpt><trkpt lat="42.36023454341525" lon="13.509970979659936"><ele>913.4285714285713</ele><time>2026-04-27T15:24:11.001Z</time></trkpt><trkpt lat="42.36017706674296" lon="13.509893264903685"><ele>911.5714285714284</ele><time>2026-04-27T15:24:12.001Z</time></trkpt><trkpt lat="42.360120041813694" lon="13.50982713909701"><ele>909.7142857142857</ele><time>2026-04-27T15:24:13.001Z</time></trkpt><trkpt lat="42.36006518510499" lon="13.509777807724417"><ele>907.8571428571427</ele><time>2026-04-27T15:24:14.001Z</time></trkpt><trkpt lat="42.360016282492396" lon="13.50972047737689"><ele>905.9999999999999</ele><time>2026-04-27T15:24:15.001Z</time></trkpt><trkpt lat="42.359967494376946" lon="13.509641424657621"><ele>905.8</ele><time>2026-04-27T15:24:16.001Z</time></trkpt><trkpt lat="42.359943884574704" lon="13.509538408806128"><ele>905.5999999999999</ele><time>2026-04-27T15:24:17.001Z</time></trkpt><trkpt lat="42.35991109193695" lon="13.509416153651232"><ele>905.4</ele><time>2026-04-27T15:24:18.001Z</time></trkpt><trkpt lat="42.3598808400656" lon="13.509260992022874"><ele>905.2</ele><time>2026-04-27T15:24:19Z</time></trkpt><trkpt lat="42.35984461921373" lon="13.509111628483867"><ele>905.0</ele><time>2026-04-27T15:24:20Z</time></trkpt><trkpt lat="42.35980210402959" lon="13.508966446082255"><ele>905.0</ele><time>2026-04-27T15:24:21Z</time></trkpt><trkpt lat="42.35978084135149" lon="13.508799536803684"><ele>905.0</ele><time>2026-04-27T15:24:22Z</time></trkpt><trkpt lat="42.35973948257572" lon="13.508588915539042"><ele>905.0</ele><time>2026-04-27T15:24:23Z</time></trkpt><trkpt lat="42.35969542689587" lon="13.508390742407768"><ele>905.0</ele><time>2026-04-27T15:24:24Z</time></trkpt><trkpt lat="42.359671489399155" lon="13.508236511239105"><ele>902.25</ele><time>2026-04-27T15:24:25Z</time></trkpt><trkpt lat="42.35965266326985" lon="13.50808206382168"><ele>899.5</ele><time>2026-04-27T15:24:26Z</time></trkpt><trkpt lat="42.359625628407386" lon="13.507899909810746"><ele>896.75</ele><time>2026-04-27T15:24:27Z</time></trkpt><trkpt lat="42.35958850825835" lon="13.507736404196926"><ele>894.0</ele><time>2026-04-27T15:24:28Z</time></trkpt><trkpt lat="42.35956604768363" lon="13.507607055848903"><ele>892.8333333333334</ele><time>2026-04-27T15:24:29Z</time></trkpt><trkpt lat="42.359560883965536" lon="13.50749733960725"><ele>891.6666666666667</ele><time>2026-04-27T15:24:30Z</time></trkpt><trkpt lat="42.35957250818323" lon="13.507367200075727"><ele>890.5</ele><time>2026-04-27T15:24:31Z</time></trkpt><trkpt lat="42.35955808183592" lon="13.507248680373102"><ele>889.3333333333334</ele><time>2026-04-27T15:24:32Z</time></trkpt><trkpt lat="42.35951574143594" lon="13.507144047927326"><ele>888.1666666666667</ele><time>2026-04-27T15:24:33Z</time></trkpt><trkpt lat="42.35947965339016" lon="13.507067967774267"><ele>887.0</ele><time>2026-04-27T15:24:34Z</time></trkpt><trkpt lat="42.359500485592385" lon="13.506867309319434"><ele>886.0000000000001</ele><time>2026-04-27T15:24:36Z</time></trkpt><trkpt lat="42.35950601059007" lon="13.50673841911605"><ele>885.0</ele><time>2026-04-27T15:24:37Z</time></trkpt><trkpt lat="42.35947971330032" lon="13.506623895931233"><ele>884.0</ele><time>2026-04-27T15:24:38Z</time></trkpt><trkpt lat="42.35944162209768" lon="13.506507480152079"><ele>883.0</ele><time>2026-04-27T15:24:39Z</time></trkpt><trkpt lat="42.3594085079453" lon="13.506381336112469"><ele>882.0000000000001</ele><time>2026-04-27T15:24:40Z</time></trkpt><trkpt lat="42.35938304615299" lon="13.506301284524417"><ele>881.0</ele><time>2026-04-27T15:24:41Z</time></trkpt><trkpt lat="42.35931515839587" lon="13.506229478164654"><ele>881.0</ele><time>2026-04-27T15:24:44Z</time></trkpt><trkpt lat="42.359224974846036" lon="13.506333515581973"><ele>880.9999999999999</ele><time>2026-04-27T15:24:46Z</time></trkpt><trkpt lat="42.35914323536071" lon="13.506358456951492"><ele>880.9999999999999</ele><time>2026-04-27T15:24:47Z</time></trkpt><trkpt lat="42.3590374965061" lon="13.506318849490517"><ele>881.0</ele><time>2026-04-27T15:24:48Z</time></trkpt><trkpt lat="42.35893929396721" lon="13.506239566507839"><ele>881.0</ele><time>2026-04-27T15:24:49Z</time></trkpt><trkpt lat="42.35883782051168" lon="13.506119168966935"><ele>884.3333333333334</ele><time>2026-04-27T15:24:50Z</time></trkpt><trkpt lat="42.35874796868843" lon="13.505941504227712"><ele>887.6666666666667</ele><time>2026-04-27T15:24:51Z</time></trkpt><trkpt lat="42.35866325190314" lon="13.505778454995864"><ele>891.0</ele><time>2026-04-27T15:24:52Z</time></trkpt><trkpt lat="42.35857451345771" lon="13.505611354264769"><ele>891.0</ele><time>2026-04-27T15:24:53Z</time></trkpt><trkpt lat="42.358479508388854" lon="13.505439214887758"><ele>891.0</ele><time>2026-04-27T15:24:54Z</time></trkpt><trkpt lat="42.3583817223863" lon="13.505258680247056"><ele>891.0</ele><time>2026-04-27T15:24:55Z</time></trkpt><trkpt lat="42.358280511584276" lon="13.505090999757748"><ele>893.6666666666667</ele><time>2026-04-27T15:24:56Z</time></trkpt><trkpt lat="42.35816475742712" lon="13.504941534079023"><ele>896.3333333333334</ele><time>2026-04-27T15:24:57Z</time></trkpt><trkpt lat="42.35802677131522" lon="13.504831695281988"><ele>899.0</ele><time>2026-04-27T15:24:58Z</time></trkpt><trkpt lat="42.35788380930347" lon="13.504728799572618"><ele>899.0</ele><time>2026-04-27T15:24:59Z</time></trkpt><trkpt lat="42.357737968044766" lon="13.504623485432019"><ele>899.0</ele><time>2026-04-27T15:25:00Z</time></trkpt><trkpt lat="42.35760220032342" lon="13.504534557865377"><ele>899.0</ele><time>2026-04-27T15:25:01Z</time></trkpt><trkpt lat="42.35746463438158" lon="13.504477272716741"><ele>892.6666666666667</ele><time>2026-04-27T15:25:02Z</time></trkpt><trkpt lat="42.35731960782344" lon="13.504462499253368"><ele>886.3333333333333</ele><time>2026-04-27T15:25:03Z</time></trkpt><trkpt lat="42.35717086400174" lon="13.50447306999722"><ele>880.0</ele><time>2026-04-27T15:25:04Z</time></trkpt><trkpt lat="42.3570172509305" lon="13.504506535674436"><ele>880.0</ele><time>2026-04-27T15:25:05Z</time></trkpt><trkpt lat="42.35686857331601" lon="13.504560183381297"><ele>880.0</ele><time>2026-04-27T15:25:06Z</time></trkpt><trkpt lat="42.35675063351951" lon="13.504647669940901"><ele>880.0</ele><time>2026-04-27T15:25:07Z</time></trkpt><trkpt lat="42.35665294138518" lon="13.504768505018548"><ele>880.0</ele><time>2026-04-27T15:25:08Z</time></trkpt><trkpt lat="42.35657761186961" lon="13.504912939823024"><ele>884.5</ele><time>2026-04-27T15:25:09Z</time></trkpt><trkpt lat="42.356520486251725" lon="13.505080453663876"><ele>889.0</ele><time>2026-04-27T15:25:10Z</time></trkpt><trkpt lat="42.35647185656245" lon="13.505257689585251"><ele>893.5</ele><time>2026-04-27T15:25:11Z</time></trkpt><trkpt lat="42.3564199935463" lon="13.505425358872765"><ele>898.0</ele><time>2026-04-27T15:25:12Z</time></trkpt><trkpt lat="42.35636064249533" lon="13.505562335605157"><ele>901.0</ele><time>2026-04-27T15:25:13Z</time></trkpt><trkpt lat="42.35629625590746" lon="13.505658593211175"><ele>904.0</ele><time>2026-04-27T15:25:14Z</time></trkpt><trkpt lat="42.356207192229554" lon="13.505707487491893"><ele>907.0</ele><time>2026-04-27T15:25:16Z</time></trkpt><trkpt lat="42.35613215348084" lon="13.505698989369778"><ele>910.0</ele><time>2026-04-27T15:25:18Z</time></trkpt><trkpt lat="42.35638067454648" lon="13.50549736362372"><ele>909.9999999999999</ele><time>2026-04-27T15:25:24Z</time></trkpt><trkpt lat="42.35630061364103" lon="13.505659121872135"><ele>910.0</ele><time>2026-04-27T15:25:25Z</time></trkpt><trkpt lat="42.35635221016153" lon="13.505581389099598"><ele>910.0</ele><time>2026-04-27T15:25:26Z</time></trkpt><trkpt lat="42.35640021908423" lon="13.505490959379333"><ele>910.0</ele><time>2026-04-27T15:25:28Z</time></trkpt><trkpt lat="42.35645921187165" lon="13.505528836247063"><ele>909.9999999999999</ele><time>2026-04-27T15:25:30Z</time></trkpt><trkpt lat="42.356500557816666" lon="13.505606610732992"><ele>910.0</ele><time>2026-04-27T15:25:31Z</time></trkpt><trkpt lat="42.356539156678146" lon="13.50568246917285"><ele>909.9999999999999</ele><time>2026-04-27T15:25:32Z</time></trkpt><trkpt lat="42.3566398556254" lon="13.505788012228859"><ele>910.0</ele><time>2026-04-27T15:25:34Z</time></trkpt><trkpt lat="42.3566976317487" lon="13.505858464674688"><ele>910.0</ele><time>2026-04-27T15:25:35Z</time></trkpt><trkpt lat="42.35675687411178" lon="13.505920415963656"><ele>910.0</ele><time>2026-04-27T15:25:36Z</time></trkpt><trkpt lat="42.35682152253238" lon="13.505956602050137"><ele>909.9999999999999</ele><time>2026-04-27T15:25:37Z</time></trkpt><trkpt lat="42.35688253548156" lon="13.506001194800342"><ele>910.0</ele><time>2026-04-27T15:25:38Z</time></trkpt><trkpt lat="42.35693144646839" lon="13.506101960240372"><ele>909.9999999999999</ele><time>2026-04-27T15:25:39Z</time></trkpt><trkpt lat="42.35698700651233" lon="13.506170984426847"><ele>910.0</ele><time>2026-04-27T15:25:40Z</time></trkpt><trkpt lat="42.35702229413277" lon="13.506281852567273"><ele>910.0</ele><time>2026-04-27T15:25:41Z</time></trkpt><trkpt lat="42.35700362800398" lon="13.506392474355133"><ele>910.0</ele><time>2026-04-27T15:25:42Z</time></trkpt><trkpt lat="42.35699731023824" lon="13.506524028636349"><ele>909.9999999999999</ele><time>2026-04-27T15:25:43Z</time></trkpt><trkpt lat="42.356988843819195" lon="13.50664894880387"><ele>910.0</ele><time>2026-04-27T15:25:44Z</time></trkpt><trkpt lat="42.356989968698855" lon="13.506760948216014"><ele>912.0</ele><time>2026-04-27T15:25:46Z</time></trkpt><trkpt lat="42.35701779149457" lon="13.50684405006618"><ele>914.0</ele><time>2026-04-27T15:25:48Z</time></trkpt><trkpt lat="42.35716504149001" lon="13.506792248981606"><ele>916.0</ele><time>2026-04-27T15:25:49Z</time></trkpt><trkpt lat="42.35723021440993" lon="13.506752332776205"><ele>918.0</ele><time>2026-04-27T15:25:50Z</time></trkpt><trkpt lat="42.35731217113133" lon="13.506677705743648"><ele>920.0</ele><time>2026-04-27T15:25:51Z</time></trkpt><trkpt lat="42.35737102180308" lon="13.506630712524641"><ele>921.0</ele><time>2026-04-27T15:25:52Z</time></trkpt><trkpt lat="42.357450835289285" lon="13.506635546410239"><ele>922.0</ele><time>2026-04-27T15:25:54Z</time></trkpt><trkpt lat="42.35749467904114" lon="13.506779720350016"><ele>923.0</ele><time>2026-04-27T15:25:56Z</time></trkpt><trkpt lat="42.35751151503601" lon="13.506895478562893"><ele>924.0</ele><time>2026-04-27T15:25:57Z</time></trkpt><trkpt lat="42.35751257485102" lon="13.50701423959572"><ele>925.0</ele><time>2026-04-27T15:25:58Z</time></trkpt><trkpt lat="42.357512047009166" lon="13.507170373307563"><ele>926.25</ele><time>2026-04-27T15:25:59Z</time></trkpt><trkpt lat="42.35755381906207" lon="13.507341351162399"><ele>927.5</ele><time>2026-04-27T15:26:00Z</time></trkpt><trkpt lat="42.35753325108983" lon="13.507501165771036"><ele>928.75</ele><time>2026-04-27T15:26:01Z</time></trkpt><trkpt lat="42.35750406472215" lon="13.50764733634928"><ele>930.0</ele><time>2026-04-27T15:26:02Z</time></trkpt><trkpt lat="42.357493873789664" lon="13.507807827718034"><ele>931.6</ele><time>2026-04-27T15:26:03Z</time></trkpt><trkpt lat="42.3575207793659" lon="13.507948329608563"><ele>933.2</ele><time>2026-04-27T15:26:04Z</time></trkpt><trkpt lat="42.35754405516125" lon="13.508098746592225"><ele>934.8</ele><time>2026-04-27T15:26:05Z</time></trkpt><trkpt lat="42.357535672892716" lon="13.508234254184165"><ele>936.4</ele><time>2026-04-27T15:26:06Z</time></trkpt><trkpt lat="42.35752422261811" lon="13.50835955116906"><ele>938.0</ele><time>2026-04-27T15:26:07Z</time></trkpt><trkpt lat="42.35751092189811" lon="13.508492239224553"><ele>938.0</ele><time>2026-04-27T15:26:08Z</time></trkpt><trkpt lat="42.35750897613515" lon="13.508635187961982"><ele>938.0</ele><time>2026-04-27T15:26:09Z</time></trkpt><trkpt lat="42.35749313221665" lon="13.508769820513317"><ele>938.0</ele><time>2026-04-27T15:26:10Z</time></trkpt><trkpt lat="42.357462244291064" lon="13.50887641060336"><ele>938.0</ele><time>2026-04-27T15:26:11Z</time></trkpt><trkpt lat="42.35744880474083" lon="13.508978729689954"><ele>938.0</ele><time>2026-04-27T15:26:13Z</time></trkpt><trkpt lat="42.35754527243429" lon="13.509087864601474"><ele>941.75</ele><time>2026-04-27T15:26:15Z</time></trkpt><trkpt lat="42.35762866947406" lon="13.509173677029546"><ele>945.5</ele><time>2026-04-27T15:26:16Z</time></trkpt><trkpt lat="42.35770749993701" lon="13.509273771639272"><ele>949.25</ele><time>2026-04-27T15:26:17Z</time></trkpt><trkpt lat="42.357776217458046" lon="13.509418976534327"><ele>953.0</ele><time>2026-04-27T15:26:18Z</time></trkpt><trkpt lat="42.357846863288785" lon="13.509563651461027"><ele>955.75</ele><time>2026-04-27T15:26:19Z</time></trkpt><trkpt lat="42.35790194414483" lon="13.50972758564111"><ele>958.5</ele><time>2026-04-27T15:26:20Z</time></trkpt><trkpt lat="42.35795522814279" lon="13.509906828488896"><ele>961.25</ele><time>2026-04-27T15:26:21Z</time></trkpt><trkpt lat="42.3579817404943" lon="13.510106156355336"><ele>964.0</ele><time>2026-04-27T15:26:22Z</time></trkpt><trkpt lat="42.357980314367005" lon="13.510287851031109"><ele>964.4000000000001</ele><time>2026-04-27T15:26:23Z</time></trkpt><trkpt lat="42.357958191491356" lon="13.510438938208726"><ele>964.8000000000001</ele><time>2026-04-27T15:26:24Z</time></trkpt><trkpt lat="42.35791315215432" lon="13.510541790119959"><ele>965.1999999999999</ele><time>2026-04-27T15:26:25Z</time></trkpt><trkpt lat="42.35784840017472" lon="13.510588255310786"><ele>965.5999999999999</ele><time>2026-04-27T15:26:26Z</time></trkpt><trkpt lat="42.35775884929018" lon="13.510565345899652"><ele>966.0</ele><time>2026-04-27T15:26:27Z</time></trkpt><trkpt lat="42.357664489840694" lon="13.5105650051711"><ele>966.0</ele><time>2026-04-27T15:26:28Z</time></trkpt><trkpt lat="42.357596834036656" lon="13.510586303088665"><ele>965.9999999999999</ele><time>2026-04-27T15:26:29Z</time></trkpt><trkpt lat="42.35750782842634" lon="13.510623951040268"><ele>965.9999999999999</ele><time>2026-04-27T15:26:34Z</time></trkpt><trkpt lat="42.35759766531752" lon="13.510830997448338"><ele>966.0</ele><time>2026-04-27T15:26:35Z</time></trkpt><trkpt lat="42.35766400951526" lon="13.510927507725567"><ele>966.0</ele><time>2026-04-27T15:26:36Z</time></trkpt><trkpt lat="42.35770007814976" lon="13.51104471521977"><ele>966.0</ele><time>2026-04-27T15:26:37Z</time></trkpt><trkpt lat="42.35775129271267" lon="13.511175332269865"><ele>966.0</ele><time>2026-04-27T15:26:38Z</time></trkpt><trkpt lat="42.357805107073155" lon="13.51132358367442"><ele>966.0</ele><time>2026-04-27T15:26:39Z</time></trkpt><trkpt lat="42.35785987209227" lon="13.51147349206065"><ele>966.0</ele><time>2026-04-27T15:26:40Z</time></trkpt><trkpt lat="42.35791680672088" lon="13.511626455261833"><ele>966.0</ele><time>2026-04-27T15:26:41Z</time></trkpt><trkpt lat="42.35797354536429" lon="13.511778891966845"><ele>966.0</ele><time>2026-04-27T15:26:42Z</time></trkpt><trkpt lat="42.35803272077004" lon="13.511941474883754"><ele>966.0</ele><time>2026-04-27T15:26:43Z</time></trkpt><trkpt lat="42.3580951005605" lon="13.512113572451181"><ele>966.0</ele><time>2026-04-27T15:26:44Z</time></trkpt><trkpt lat="42.358170793839776" lon="13.51227474147126"><ele>966.75</ele><time>2026-04-27T15:26:45Z</time></trkpt><trkpt lat="42.35822307225736" lon="13.512453713981827"><ele>967.5</ele><time>2026-04-27T15:26:46Z</time></trkpt><trkpt lat="42.358274643153905" lon="13.512600131425298"><ele>968.25</ele><time>2026-04-27T15:26:47Z</time></trkpt><trkpt lat="42.358320840727" lon="13.5127187739812"><ele>969.0</ele><time>2026-04-27T15:26:48Z</time></trkpt><trkpt lat="42.35837624037797" lon="13.512856530493876"><ele>969.5</ele><time>2026-04-27T15:26:49Z</time></trkpt><trkpt lat="42.35844226158721" lon="13.513005996867927"><ele>970.0</ele><time>2026-04-27T15:26:50Z</time></trkpt><trkpt lat="42.358513747040256" lon="13.513176312148262"><ele>970.5</ele><time>2026-04-27T15:26:51Z</time></trkpt><trkpt lat="42.35858760735362" lon="13.51335846502835"><ele>971.0</ele><time>2026-04-27T15:26:52Z</time></trkpt><trkpt lat="42.35865513396402" lon="13.513541063075866"><ele>971.0</ele><time>2026-04-27T15:26:53Z</time></trkpt><trkpt lat="42.35869976523588" lon="13.513683528883266"><ele>970.9999999999999</ele><time>2026-04-27T15:26:54Z</time></trkpt><trkpt lat="42.35871555327584" lon="13.513775875194229"><ele>970.9999999999999</ele><time>2026-04-27T15:26:55Z</time></trkpt><trkpt lat="42.35877038250941" lon="13.513945503999274"><ele>971.0</ele><time>2026-04-27T15:26:57Z</time></trkpt><trkpt lat="42.358809374159065" lon="13.514038927097578"><ele>971.0</ele><time>2026-04-27T15:26:58Z</time></trkpt><trkpt lat="42.358854676673126" lon="13.514146805468394"><ele>973.75</ele><time>2026-04-27T15:26:59Z</time></trkpt><trkpt lat="42.358915701594825" lon="13.514282966046599"><ele>976.5</ele><time>2026-04-27T15:27:00Z</time></trkpt><trkpt lat="42.35898732259872" lon="13.514442768653446"><ele>979.25</ele><time>2026-04-27T15:27:01Z</time></trkpt><trkpt lat="42.35906271316272" lon="13.514619303290129"><ele>982.0</ele><time>2026-04-27T15:27:02Z</time></trkpt><trkpt lat="42.359124252785875" lon="13.51476462496402"><ele>982.6</ele><time>2026-04-27T15:27:03Z</time></trkpt><trkpt lat="42.35919039734676" lon="13.514902659809268"><ele>983.2</ele><time>2026-04-27T15:27:04Z</time></trkpt><trkpt lat="42.35925863295241" lon="13.515021294939922"><ele>983.8</ele><time>2026-04-27T15:27:05Z</time></trkpt><trkpt lat="42.359330259252104" lon="13.515134157386887"><ele>984.4</ele><time>2026-04-27T15:27:06Z</time></trkpt><trkpt lat="42.35938500719965" lon="13.515220421326637"><ele>985.0</ele><time>2026-04-27T15:27:07Z</time></trkpt><trkpt lat="42.35942992000366" lon="13.515291188479717"><ele>987.5</ele><time>2026-04-27T15:27:08Z</time></trkpt><trkpt lat="42.35917905172494" lon="13.515651176582177"><ele>990.0</ele><time>2026-04-27T15:27:10Z</time></trkpt><trkpt lat="42.35914242615334" lon="13.515753708524665"><ele>990.0</ele><time>2026-04-27T15:27:11Z</time></trkpt><trkpt lat="42.359101457441454" lon="13.515886980475772"><ele>990.0</ele><time>2026-04-27T15:27:12Z</time></trkpt><trkpt lat="42.35906304324764" lon="13.516038694539093"><ele>990.0</ele><time>2026-04-27T15:27:13Z</time></trkpt><trkpt lat="42.359035386412984" lon="13.516191658225141"><ele>990.0</ele><time>2026-04-27T15:27:14Z</time></trkpt><trkpt lat="42.35903594094387" lon="13.516324724148044"><ele>990.0</ele><time>2026-04-27T15:27:15Z</time></trkpt><trkpt lat="42.35905055445955" lon="13.516443017795648"><ele>992.25</ele><time>2026-04-27T15:27:16Z</time></trkpt><trkpt lat="42.359043742147755" lon="13.516588402923675"><ele>994.5</ele><time>2026-04-27T15:27:17Z</time></trkpt><trkpt lat="42.35900713523392" lon="13.516749819744918"><ele>996.75</ele><time>2026-04-27T15:27:18Z</time></trkpt><trkpt lat="42.358945340427944" lon="13.516924478121148"><ele>999.0</ele><time>2026-04-27T15:27:19Z</time></trkpt><trkpt lat="42.35886764246645" lon="13.517101605810849"><ele>999.0</ele><time>2026-04-27T15:27:20Z</time></trkpt><trkpt lat="42.3587787759195" lon="13.517278036724099"><ele>999.0</ele><time>2026-04-27T15:27:21Z</time></trkpt><trkpt lat="42.35871005060145" lon="13.517420503994964"><ele>999.0</ele><time>2026-04-27T15:27:22Z</time></trkpt><trkpt lat="42.35864697330447" lon="13.517534725000184"><ele>999.0</ele><time>2026-04-27T15:27:23Z</time></trkpt><trkpt lat="42.35859186476564" lon="13.517613499180786"><ele>999.0</ele><time>2026-04-27T15:27:24Z</time></trkpt><trkpt lat="42.358558970722505" lon="13.517729429666108"><ele>999.0</ele><time>2026-04-27T15:27:26Z</time></trkpt><trkpt lat="42.35864848552788" lon="13.517803830037018"><ele>999.0</ele><time>2026-04-27T15:27:28Z</time></trkpt><trkpt lat="42.35872921130562" lon="13.51772982503445"><ele>999.0</ele><time>2026-04-27T15:27:30Z</time></trkpt><trkpt lat="42.35876641494775" lon="13.517660030562435"><ele>999.0</ele><time>2026-04-27T15:27:31Z</time></trkpt><trkpt lat="42.35881457708881" lon="13.517566211662814"><ele>999.0</ele><time>2026-04-27T15:27:32Z</time></trkpt><trkpt lat="42.35887213237966" lon="13.517455492674518"><ele>1000.5</ele><time>2026-04-27T15:27:33Z</time></trkpt><trkpt lat="42.35894513853489" lon="13.51733195447243"><ele>1002.0</ele><time>2026-04-27T15:27:34Z</time></trkpt><trkpt lat="42.35903559675442" lon="13.517220411937771"><ele>1003.5</ele><time>2026-04-27T15:27:35Z</time></trkpt><trkpt lat="42.35913627444401" lon="13.517096836270344"><ele>1005.0</ele><time>2026-04-27T15:27:36Z</time></trkpt><trkpt lat="42.35921974177626" lon="13.516962854533066"><ele>1005.0</ele><time>2026-04-27T15:27:37Z</time></trkpt><trkpt lat="42.359301613405215" lon="13.516837386864562"><ele>1005.0</ele><time>2026-04-27T15:27:38Z</time></trkpt><trkpt lat="42.359369864707006" lon="13.516735893796378"><ele>1005.0</ele><time>2026-04-27T15:27:39Z</time></trkpt><trkpt lat="42.359459284025284" lon="13.51665932362383"><ele>1005.0</ele><time>2026-04-27T15:27:40Z</time></trkpt><trkpt lat="42.359554340518876" lon="13.516614198289433"><ele>1005.0</ele><time>2026-04-27T15:27:41Z</time></trkpt><trkpt lat="42.35966643772293" lon="13.516575428781783"><ele>1009.25</ele><time>2026-04-27T15:27:42Z</time></trkpt><trkpt lat="42.35978474524012" lon="13.516542679679995"><ele>1013.5</ele><time>2026-04-27T15:27:43Z</time></trkpt><trkpt lat="42.35990282251746" lon="13.516509302889247"><ele>1017.75</ele><time>2026-04-27T15:27:44Z</time></trkpt><trkpt lat="42.3600169383931" lon="13.516476605215221"><ele>1022.0</ele><time>2026-04-27T15:27:45Z</time></trkpt><trkpt lat="42.36015084125066" lon="13.516459070032727"><ele>1022.0</ele><time>2026-04-27T15:27:46Z</time></trkpt><trkpt lat="42.36028485320153" lon="13.516433575997702"><ele>1022.0</ele><time>2026-04-27T15:27:47Z</time></trkpt><trkpt lat="42.36042038626299" lon="13.516426231890328"><ele>1022.0</ele><time>2026-04-27T15:27:48Z</time></trkpt><trkpt lat="42.360561247349516" lon="13.516453685783143"><ele>1022.0</ele><time>2026-04-27T15:27:49Z</time></trkpt><trkpt lat="42.36069842017527" lon="13.516491956786806"><ele>1024.25</ele><time>2026-04-27T15:27:50Z</time></trkpt><trkpt lat="42.36082897061655" lon="13.516552023195128"><ele>1026.5</ele><time>2026-04-27T15:27:51Z</time></trkpt><trkpt lat="42.360953795426845" lon="13.516599109322119"><ele>1028.75</ele><time>2026-04-27T15:27:52Z</time></trkpt><trkpt lat="42.36107213941849" lon="13.516618383754103"><ele>1031.0</ele><time>2026-04-27T15:27:53Z</time></trkpt><trkpt lat="42.36117796653243" lon="13.516610269515493"><ele>1031.0</ele><time>2026-04-27T15:27:54Z</time></trkpt><trkpt lat="42.36130308845801" lon="13.516599384874821"><ele>1031.0</ele><time>2026-04-27T15:27:55Z</time></trkpt><trkpt lat="42.36145781652759" lon="13.516581549242499"><ele>1031.0</ele><time>2026-04-27T15:27:56Z</time></trkpt><trkpt lat="42.36160126421408" lon="13.516574113700202"><ele>1031.0</ele><time>2026-04-27T15:27:57Z</time></trkpt><trkpt lat="42.36175231135632" lon="13.516568585535992"><ele>1032.5</ele><time>2026-04-27T15:27:58Z</time></trkpt><trkpt lat="42.361908186485614" lon="13.51657350306228"><ele>1034.0</ele><time>2026-04-27T15:27:59Z</time></trkpt><trkpt lat="42.36205357312085" lon="13.516585900552602"><ele>1035.5</ele><time>2026-04-27T15:28:00Z</time></trkpt><trkpt lat="42.36217130503001" lon="13.516567801570266"><ele>1037.0</ele><time>2026-04-27T15:28:01Z</time></trkpt><trkpt lat="42.36228252248366" lon="13.516557829724244"><ele>1038.25</ele><time>2026-04-27T15:28:02Z</time></trkpt><trkpt lat="42.36238844694867" lon="13.516561173684826"><ele>1039.5</ele><time>2026-04-27T15:28:03Z</time></trkpt><trkpt lat="42.362531357533804" lon="13.516593751247553"><ele>1040.75</ele><time>2026-04-27T15:28:04Z</time></trkpt><trkpt lat="42.362676960186874" lon="13.51662524274957"><ele>1042.0</ele><time>2026-04-27T15:28:05Z</time></trkpt><trkpt lat="42.36281777926646" lon="13.516642673895179"><ele>1042.0</ele><time>2026-04-27T15:28:06Z</time></trkpt><trkpt lat="42.36294411187127" lon="13.516683044957054"><ele>1042.0</ele><time>2026-04-27T15:28:07Z</time></trkpt><trkpt lat="42.36306419893613" lon="13.516752155620411"><ele>1042.0</ele><time>2026-04-27T15:28:08Z</time></trkpt><trkpt lat="42.36316032324725" lon="13.51681754017431"><ele>1042.0</ele><time>2026-04-27T15:28:09Z</time></trkpt><trkpt lat="42.36324501083914" lon="13.516904996364952"><ele>1042.0</ele><time>2026-04-27T15:28:10Z</time></trkpt><trkpt lat="42.36335160351974" lon="13.517002572225966"><ele>1042.0</ele><time>2026-04-27T15:28:11Z</time></trkpt><trkpt lat="42.363468474990505" lon="13.517084966295082"><ele>1042.0</ele><time>2026-04-27T15:28:12Z</time></trkpt><trkpt lat="42.36359854168717" lon="13.517169254523786"><ele>1042.0</ele><time>2026-04-27T15:28:13Z</time></trkpt><trkpt lat="42.3637057461986" lon="13.517253599501082"><ele>1044.8</ele><time>2026-04-27T15:28:14.001Z</time></trkpt><trkpt lat="42.363837593848736" lon="13.51729020068019"><ele>1047.6</ele><time>2026-04-27T15:28:15.001Z</time></trkpt><trkpt lat="42.363947512333866" lon="13.517313946475806"><ele>1050.3999999999999</ele><time>2026-04-27T15:28:16.001Z</time></trkpt><trkpt lat="42.36404359986301" lon="13.517321049741382"><ele>1053.2</ele><time>2026-04-27T15:28:17.001Z</time></trkpt><trkpt lat="42.36414887989675" lon="13.5173409374769"><ele>1056.0</ele><time>2026-04-27T15:28:18.001Z</time></trkpt><trkpt lat="42.36425824379897" lon="13.517383556223189"><ele>1056.0</ele><time>2026-04-27T15:28:19.001Z</time></trkpt><trkpt lat="42.36438703015149" lon="13.51738488832453"><ele>1056.0</ele><time>2026-04-27T15:28:20.001Z</time></trkpt><trkpt lat="42.364493350315" lon="13.517428006703112"><ele>1056.0</ele><time>2026-04-27T15:28:21.001Z</time></trkpt><trkpt lat="42.36459244252339" lon="13.517458356961258"><ele>1056.0</ele><time>2026-04-27T15:28:22.001Z</time></trkpt><trkpt lat="42.36469187418034" lon="13.51749468722501"><ele>1056.0</ele><time>2026-04-27T15:28:23.001Z</time></trkpt><trkpt lat="42.3648188131427" lon="13.517532817763295"><ele>1057.0</ele><time>2026-04-27T15:28:24.001Z</time></trkpt><trkpt lat="42.364940526235536" lon="13.51757346705563"><ele>1058.0</ele><time>2026-04-27T15:28:25.001Z</time></trkpt><trkpt lat="42.365050872207924" lon="13.517625838187955"><ele>1059.0</ele><time>2026-04-27T15:28:26.001Z</time></trkpt><trkpt lat="42.36513915401964" lon="13.51769681681306"><ele>1060.0</ele><time>2026-04-27T15:28:27.001Z</time></trkpt><trkpt lat="42.36523835605995" lon="13.517752514766865"><ele>1060.0</ele><time>2026-04-27T15:28:28.001Z</time></trkpt><trkpt lat="42.3653442084277" lon="13.51781425792367"><ele>1060.0</ele><time>2026-04-27T15:28:29.001Z</time></trkpt><trkpt lat="42.36546114016772" lon="13.517863229770697"><ele>1060.0</ele><time>2026-04-27T15:28:30.001Z</time></trkpt><trkpt lat="42.36557013504665" lon="13.517948973023683"><ele>1060.0</ele><time>2026-04-27T15:28:31.001Z</time></trkpt><trkpt lat="42.36568652183447" lon="13.518013160147904"><ele>1061.8</ele><time>2026-04-27T15:28:32.001Z</time></trkpt><trkpt lat="42.3657771593643" lon="13.518081570284508"><ele>1063.6</ele><time>2026-04-27T15:28:33.001Z</time></trkpt><trkpt lat="42.36581988098082" lon="13.51816742994099"><ele>1065.4</ele><time>2026-04-27T15:28:35Z</time></trkpt><trkpt lat="42.365740058356735" lon="13.51823509840889"><ele>1067.2</ele><time>2026-04-27T15:28:37Z</time></trkpt><trkpt lat="42.36563528308462" lon="13.518209525345544"><ele>1069.0</ele><time>2026-04-27T15:28:39Z</time></trkpt><trkpt lat="42.3655346018079" lon="13.518184109069006"><ele>1071.0</ele><time>2026-04-27T15:28:40Z</time></trkpt><trkpt lat="42.3654213574227" lon="13.518145191669957"><ele>1073.0</ele><time>2026-04-27T15:28:41Z</time></trkpt><trkpt lat="42.36530482547308" lon="13.518121417910931"><ele>1075.0</ele><time>2026-04-27T15:28:42Z</time></trkpt><trkpt lat="42.36519817552171" lon="13.518113604754527"><ele>1077.0</ele><time>2026-04-27T15:28:43Z</time></trkpt><trkpt lat="42.36508837000529" lon="13.518143984069152"><ele>1077.0</ele><time>2026-04-27T15:28:44Z</time></trkpt><trkpt lat="42.364959324410705" lon="13.518148987045127"><ele>1077.0</ele><time>2026-04-27T15:28:45Z</time></trkpt><trkpt lat="42.36482902888032" lon="13.518165849937501"><ele>1077.0</ele><time>2026-04-27T15:28:46Z</time></trkpt><trkpt lat="42.364721772561765" lon="13.518182366514507"><ele>1077.0</ele><time>2026-04-27T15:28:47Z</time></trkpt><trkpt lat="42.36462827268385" lon="13.51824798340601"><ele>1077.0</ele><time>2026-04-27T15:28:49Z</time></trkpt><trkpt lat="42.3646010844576" lon="13.518332864811237"><ele>1077.0</ele><time>2026-04-27T15:28:50Z</time></trkpt><trkpt lat="42.364635108748395" lon="13.518448633596174"><ele>1077.0</ele><time>2026-04-27T15:28:51Z</time></trkpt><trkpt lat="42.364699645584984" lon="13.518515131345675"><ele>1077.0</ele><time>2026-04-27T15:28:52Z</time></trkpt><trkpt lat="42.36481369847382" lon="13.518475230869027"><ele>1077.0</ele><time>2026-04-27T15:28:53Z</time></trkpt><trkpt lat="42.36491276396193" lon="13.518449855473365"><ele>1077.0</ele><time>2026-04-27T15:28:54Z</time></trkpt><trkpt lat="42.36503394252715" lon="13.51849201593266"><ele>1077.0</ele><time>2026-04-27T15:28:55Z</time></trkpt><trkpt lat="42.36514145102324" lon="13.518537304628094"><ele>1077.0</ele><time>2026-04-27T15:28:56Z</time></trkpt><trkpt lat="42.365226402074505" lon="13.518598781993294"><ele>1077.0</ele><time>2026-04-27T15:28:57Z</time></trkpt><trkpt lat="42.36530023033198" lon="13.518690582913873"><ele>1077.0</ele><time>2026-04-27T15:28:58Z</time></trkpt><trkpt lat="42.36540126703683" lon="13.518797932511054"><ele>1079.0</ele><time>2026-04-27T15:28:59Z</time></trkpt><trkpt lat="42.36550384824301" lon="13.518896223643583"><ele>1081.0</ele><time>2026-04-27T15:29:00Z</time></trkpt><trkpt lat="42.36563340338997" lon="13.519011701459853"><ele>1083.0</ele><time>2026-04-27T15:29:01Z</time></trkpt><trkpt lat="42.365719501333196" lon="13.519130916549061"><ele>1085.0</ele><time>2026-04-27T15:29:02Z</time></trkpt><trkpt lat="42.36578108335555" lon="13.519213381851308"><ele>1085.0</ele><time>2026-04-27T15:29:03Z</time></trkpt><trkpt lat="42.36581557707037" lon="13.519375985053552"><ele>1085.0</ele><time>2026-04-27T15:29:05Z</time></trkpt><trkpt lat="42.3657957411765" lon="13.519504474471566"><ele>1085.0</ele><time>2026-04-27T15:29:06Z</time></trkpt><trkpt lat="42.36579519197964" lon="13.519666615555616"><ele>1085.0</ele><time>2026-04-27T15:29:07Z</time></trkpt><trkpt lat="42.36579559639407" lon="13.519867371870719"><ele>1087.75</ele><time>2026-04-27T15:29:08Z</time></trkpt><trkpt lat="42.36579375423186" lon="13.520031048287683"><ele>1090.5</ele><time>2026-04-27T15:29:09Z</time></trkpt><trkpt lat="42.36579205367527" lon="13.520188444838961"><ele>1093.25</ele><time>2026-04-27T15:29:10Z</time></trkpt><trkpt lat="42.36579513656337" lon="13.520325037513862"><ele>1096.0</ele><time>2026-04-27T15:29:11Z</time></trkpt><trkpt lat="42.36582647053004" lon="13.520485734130359"><ele>1096.75</ele><time>2026-04-27T15:29:12Z</time></trkpt><trkpt lat="42.36585896387081" lon="13.520656969470348"><ele>1097.5</ele><time>2026-04-27T15:29:13Z</time></trkpt><trkpt lat="42.36586727865481" lon="13.52084317367286"><ele>1098.25</ele><time>2026-04-27T15:29:14Z</time></trkpt><trkpt lat="42.3658631781645" lon="13.520981124948447"><ele>1099.0</ele><time>2026-04-27T15:29:15Z</time></trkpt><trkpt lat="42.36585188725017" lon="13.521168276839466"><ele>1099.4</ele><time>2026-04-27T15:29:17Z</time></trkpt><trkpt lat="42.365840038047686" lon="13.521277422965193"><ele>1099.8000000000002</ele><time>2026-04-27T15:29:18Z</time></trkpt><trkpt lat="42.36582681046446" lon="13.52141536259399"><ele>1100.1999999999998</ele><time>2026-04-27T15:29:19Z</time></trkpt><trkpt lat="42.365811774108124" lon="13.521553332287755"><ele>1100.6</ele><time>2026-04-27T15:29:20Z</time></trkpt><trkpt lat="42.365774649992545" lon="13.521714382591659"><ele>1101.0</ele><time>2026-04-27T15:29:21Z</time></trkpt><trkpt lat="42.36574483110849" lon="13.521828518278582"><ele>1101.0</ele><time>2026-04-27T15:29:22Z</time></trkpt><trkpt lat="42.36575205711639" lon="13.521940890766944"><ele>1101.0</ele><time>2026-04-27T15:29:23Z</time></trkpt><trkpt lat="42.36575174185172" lon="13.522061135261277"><ele>1101.0</ele><time>2026-04-27T15:29:24Z</time></trkpt><trkpt lat="42.36574930933797" lon="13.522213182329745"><ele>1101.0</ele><time>2026-04-27T15:29:25Z</time></trkpt><trkpt lat="42.365729094485644" lon="13.522354048654055"><ele>1101.0</ele><time>2026-04-27T15:29:26Z</time></trkpt><trkpt lat="42.365691007456206" lon="13.522434861694352"><ele>1102.75</ele><time>2026-04-27T15:29:27Z</time></trkpt><trkpt lat="42.36560132370747" lon="13.52256076019029"><ele>1104.5</ele><time>2026-04-27T15:29:29Z</time></trkpt><trkpt lat="42.36554359396401" lon="13.522685239345034"><ele>1106.25</ele><time>2026-04-27T15:29:30Z</time></trkpt><trkpt lat="42.36545614163984" lon="13.522798916983957"><ele>1108.0</ele><time>2026-04-27T15:29:31Z</time></trkpt><trkpt lat="42.36537188142809" lon="13.522933566049034"><ele>1109.5</ele><time>2026-04-27T15:29:32Z</time></trkpt><trkpt lat="42.36529618975275" lon="13.523048825722746"><ele>1111.0</ele><time>2026-04-27T15:29:33Z</time></trkpt><trkpt lat="42.36522907217678" lon="13.523144598236259"><ele>1112.5</ele><time>2026-04-27T15:29:34Z</time></trkpt><trkpt lat="42.36514750924234" lon="13.52325799948169"><ele>1114.0</ele><time>2026-04-27T15:29:35Z</time></trkpt><trkpt lat="42.365046890359146" lon="13.523397895190984"><ele>1114.0</ele><time>2026-04-27T15:29:36Z</time></trkpt><trkpt lat="42.364951367600575" lon="13.523530857083546"><ele>1114.0</ele><time>2026-04-27T15:29:37Z</time></trkpt><trkpt lat="42.36485496641641" lon="13.52366621558066"><ele>1114.0</ele><time>2026-04-27T15:29:38Z</time></trkpt><trkpt lat="42.36477971205542" lon="13.523782845907157"><ele>1114.0</ele><time>2026-04-27T15:29:39Z</time></trkpt><trkpt lat="42.36471183541846" lon="13.523902065711182"><ele>1116.0</ele><time>2026-04-27T15:29:40Z</time></trkpt><trkpt lat="42.364650008718996" lon="13.524045889166148"><ele>1118.0</ele><time>2026-04-27T15:29:41Z</time></trkpt><trkpt lat="42.364602994585034" lon="13.524189273232848"><ele>1120.0</ele><time>2026-04-27T15:29:42Z</time></trkpt><trkpt lat="42.3645515240378" lon="13.52437446667679"><ele>1122.0</ele><time>2026-04-27T15:29:43Z</time></trkpt><trkpt lat="42.364507549634865" lon="13.524560236984065"><ele>1122.2</ele><time>2026-04-27T15:29:44Z</time></trkpt><trkpt lat="42.364479137354174" lon="13.524732862708031"><ele>1122.4</ele><time>2026-04-27T15:29:45Z</time></trkpt><trkpt lat="42.364466889272336" lon="13.524887230728249"><ele>1122.6</ele><time>2026-04-27T15:29:46Z</time></trkpt><trkpt lat="42.36446975878989" lon="13.525012417174255"><ele>1122.8</ele><time>2026-04-27T15:29:47Z</time></trkpt><trkpt lat="42.364489952044664" lon="13.525153244060162"><ele>1123.0</ele><time>2026-04-27T15:29:48Z</time></trkpt><trkpt lat="42.3645213315183" lon="13.525311721410977"><ele>1123.25</ele><time>2026-04-27T15:29:49Z</time></trkpt><trkpt lat="42.36455573297572" lon="13.525491666082154"><ele>1123.5</ele><time>2026-04-27T15:29:50Z</time></trkpt><trkpt lat="42.364572400828855" lon="13.525664015165304"><ele>1123.75</ele><time>2026-04-27T15:29:51Z</time></trkpt><trkpt lat="42.364573119642515" lon="13.525856332079064"><ele>1124.0</ele><time>2026-04-27T15:29:52Z</time></trkpt><trkpt lat="42.36456723144397" lon="13.52604629404809"><ele>1124.5</ele><time>2026-04-27T15:29:53Z</time></trkpt><trkpt lat="42.364542631445985" lon="13.526236195760108"><ele>1125.0</ele><time>2026-04-27T15:29:54Z</time></trkpt><trkpt lat="42.364513182239726" lon="13.526415388015714"><ele>1125.5</ele><time>2026-04-27T15:29:55Z</time></trkpt><trkpt lat="42.3645057460602" lon="13.52655992318693"><ele>1126.0</ele><time>2026-04-27T15:29:56Z</time></trkpt><trkpt lat="42.36450756619423" lon="13.526671567355866"><ele>1126.0</ele><time>2026-04-27T15:29:57Z</time></trkpt><trkpt lat="42.36451530753874" lon="13.526820529189164"><ele>1126.0</ele><time>2026-04-27T15:29:58Z</time></trkpt><trkpt lat="42.36452822128613" lon="13.526956607991943"><ele>1126.0</ele><time>2026-04-27T15:29:59Z</time></trkpt><trkpt lat="42.36454771373593" lon="13.527120966285297"><ele>1126.0</ele><time>2026-04-27T15:30:00Z</time></trkpt><trkpt lat="42.3645698122774" lon="13.527267668090396"><ele>1126.0</ele><time>2026-04-27T15:30:01Z</time></trkpt><trkpt lat="42.36461021830651" lon="13.52742146860518"><ele>1127.2</ele><time>2026-04-27T15:30:02Z</time></trkpt><trkpt lat="42.36461244229917" lon="13.527576696972929"><ele>1128.3999999999999</ele><time>2026-04-27T15:30:03Z</time></trkpt><trkpt lat="42.364601357412106" lon="13.527684289618756"><ele>1129.6</ele><time>2026-04-27T15:30:04Z</time></trkpt><trkpt lat="42.36459830487375" lon="13.527822163005686"><ele>1130.8</ele><time>2026-04-27T15:30:05Z</time></trkpt><trkpt lat="42.364588594544664" lon="13.52795066388746"><ele>1132.0</ele><time>2026-04-27T15:30:06Z</time></trkpt><trkpt lat="42.364561685756556" lon="13.52811544810264"><ele>1133.5</ele><time>2026-04-27T15:30:07Z</time></trkpt><trkpt lat="42.364534907700325" lon="13.528288202410517"><ele>1135.0</ele><time>2026-04-27T15:30:08Z</time></trkpt><trkpt lat="42.3645117837654" lon="13.528461623886063"><ele>1136.5</ele><time>2026-04-27T15:30:09Z</time></trkpt><trkpt lat="42.36450693844488" lon="13.528618106123789"><ele>1138.0</ele><time>2026-04-27T15:30:10Z</time></trkpt><trkpt lat="42.36450745917631" lon="13.528767478701049"><ele>1140.0</ele><time>2026-04-27T15:30:11Z</time></trkpt><trkpt lat="42.36453656309843" lon="13.528936893778504"><ele>1142.0</ele><time>2026-04-27T15:30:12Z</time></trkpt><trkpt lat="42.36452824839363" lon="13.529079239370814"><ele>1144.0</ele><time>2026-04-27T15:30:13Z</time></trkpt><trkpt lat="42.36452424839445" lon="13.529226040199495"><ele>1146.0</ele><time>2026-04-27T15:30:14Z</time></trkpt><trkpt lat="42.3645323728545" lon="13.52934283573113"><ele>1148.0</ele><time>2026-04-27T15:30:15Z</time></trkpt><trkpt lat="42.364587520193474" lon="13.52949323606158"><ele>1148.0</ele><time>2026-04-27T15:30:17Z</time></trkpt><trkpt lat="42.36468651116255" lon="13.529482439439347"><ele>1148.0</ele><time>2026-04-27T15:30:18Z</time></trkpt><trkpt lat="42.36475025969917" lon="13.529445730482244"><ele>1148.0</ele><time>2026-04-27T15:30:19Z</time></trkpt><trkpt lat="42.36479364259126" lon="13.529368187909695"><ele>1148.0</ele><time>2026-04-27T15:30:20.001Z</time></trkpt><trkpt lat="42.36481742265665" lon="13.529262347441776"><ele>1148.0</ele><time>2026-04-27T15:30:21.001Z</time></trkpt><trkpt lat="42.3648564524407" lon="13.529145632412854"><ele>1148.0</ele><time>2026-04-27T15:30:22.001Z</time></trkpt><trkpt lat="42.36490919620205" lon="13.529035752120306"><ele>1147.5</ele><time>2026-04-27T15:30:23.001Z</time></trkpt><trkpt lat="42.36500301855522" lon="13.5289300907817"><ele>1147.0</ele><time>2026-04-27T15:30:24.001Z</time></trkpt><trkpt lat="42.36510197890175" lon="13.528843146385409"><ele>1146.5</ele><time>2026-04-27T15:30:25.001Z</time></trkpt><trkpt lat="42.36523009185084" lon="13.528783095902172"><ele>1146.0</ele><time>2026-04-27T15:30:26.001Z</time></trkpt><trkpt lat="42.36532901160782" lon="13.528697807268932"><ele>1146.0</ele><time>2026-04-27T15:30:27.001Z</time></trkpt><trkpt lat="42.36541922767728" lon="13.528652481106967"><ele>1146.0</ele><time>2026-04-27T15:30:28.001Z</time></trkpt><trkpt lat="42.36551840118103" lon="13.528631911702075"><ele>1146.0</ele><time>2026-04-27T15:30:30.001Z</time></trkpt><trkpt lat="42.36556764197125" lon="13.528704795439811"><ele>1146.0</ele><time>2026-04-27T15:30:32Z</time></trkpt><trkpt lat="42.365508629291156" lon="13.528780619551352"><ele>1146.0</ele><time>2026-04-27T15:30:34Z</time></trkpt><trkpt lat="42.36539784529545" lon="13.528834113325694"><ele>1148.0</ele><time>2026-04-27T15:30:36Z</time></trkpt><trkpt lat="42.36532389196696" lon="13.528885947477253"><ele>1150.0</ele><time>2026-04-27T15:30:37Z</time></trkpt><trkpt lat="42.365251287144986" lon="13.528954651348359"><ele>1152.0</ele><time>2026-04-27T15:30:38Z</time></trkpt><trkpt lat="42.36517881941255" lon="13.529041072186644"><ele>1154.0</ele><time>2026-04-27T15:30:39Z</time></trkpt><trkpt lat="42.3651188067801" lon="13.529155471226963"><ele>1156.0</ele><time>2026-04-27T15:30:40Z</time></trkpt><trkpt lat="42.365078617588104" lon="13.529259763362015"><ele>1156.0</ele><time>2026-04-27T15:30:41Z</time></trkpt><trkpt lat="42.365057770760984" lon="13.529397650260066"><ele>1156.0</ele><time>2026-04-27T15:30:42Z</time></trkpt><trkpt lat="42.36505093747456" lon="13.529525932083533"><ele>1156.0</ele><time>2026-04-27T15:30:43Z</time></trkpt><trkpt lat="42.36508083286221" lon="13.529649737485279"><ele>1156.0</ele><time>2026-04-27T15:30:44Z</time></trkpt><trkpt lat="42.365096923353775" lon="13.52973680712634"><ele>1156.0</ele><time>2026-04-27T15:30:45Z</time></trkpt><trkpt lat="42.365117918026264" lon="13.529833270600557"><ele>1156.0</ele><time>2026-04-27T15:30:46Z</time></trkpt><trkpt lat="42.36518884938887" lon="13.529895901589743"><ele>1157.25</ele><time>2026-04-27T15:30:47Z</time></trkpt><trkpt lat="42.365271951830216" lon="13.529996382344539"><ele>1158.5</ele><time>2026-04-27T15:30:48Z</time></trkpt><trkpt lat="42.36535434586866" lon="13.53009321408585"><ele>1159.75</ele><time>2026-04-27T15:30:49Z</time></trkpt><trkpt lat="42.36544377541871" lon="13.530221068986087"><ele>1161.0</ele><time>2026-04-27T15:30:50Z</time></trkpt><trkpt lat="42.36551760296814" lon="13.530335299738152"><ele>1164.0</ele><time>2026-04-27T15:30:51Z</time></trkpt><trkpt lat="42.36557244723015" lon="13.530442969152281"><ele>1167.0</ele><time>2026-04-27T15:30:52Z</time></trkpt><trkpt lat="42.36559344955702" lon="13.530573117565726"><ele>1170.0</ele><time>2026-04-27T15:30:53Z</time></trkpt><trkpt lat="42.36560743827493" lon="13.530729091527768"><ele>1173.0</ele><time>2026-04-27T15:30:54Z</time></trkpt><trkpt lat="42.365630231161106" lon="13.530919980406953"><ele>1173.0</ele><time>2026-04-27T15:30:55Z</time></trkpt><trkpt lat="42.36567741939357" lon="13.531066878576626"><ele>1173.0</ele><time>2026-04-27T15:30:56Z</time></trkpt><trkpt lat="42.365717046278334" lon="13.531187072606865"><ele>1173.0</ele><time>2026-04-27T15:30:57Z</time></trkpt><trkpt lat="42.365766514059644" lon="13.53131846156411"><ele>1173.0</ele><time>2026-04-27T15:30:58Z</time></trkpt><trkpt lat="42.3658332198766" lon="13.531441344924257"><ele>1173.0</ele><time>2026-04-27T15:30:59Z</time></trkpt><trkpt lat="42.36589898677597" lon="13.531589590256091"><ele>1174.25</ele><time>2026-04-27T15:31:00Z</time></trkpt><trkpt lat="42.365953403555466" lon="13.531745493078365"><ele>1175.5</ele><time>2026-04-27T15:31:01Z</time></trkpt><trkpt lat="42.36598645055795" lon="13.531916077224793"><ele>1176.75</ele><time>2026-04-27T15:31:02Z</time></trkpt><trkpt lat="42.366025852052715" lon="13.532051692013338"><ele>1178.0</ele><time>2026-04-27T15:31:03Z</time></trkpt><trkpt lat="42.36600458793318" lon="13.532195840864153"><ele>1178.2</ele><time>2026-04-27T15:31:04Z</time></trkpt><trkpt lat="42.36598895637453" lon="13.532325678652478"><ele>1178.4</ele><time>2026-04-27T15:31:05Z</time></trkpt><trkpt lat="42.365959750222785" lon="13.5324510409559"><ele>1178.6000000000001</ele><time>2026-04-27T15:31:06Z</time></trkpt><trkpt lat="42.36591600080661" lon="13.53254238128686"><ele>1178.8</ele><time>2026-04-27T15:31:07Z</time></trkpt><trkpt lat="42.365853684015576" lon="13.532651836731143"><ele>1179.0</ele><time>2026-04-27T15:31:08Z</time></trkpt><trkpt lat="42.36579767873171" lon="13.532772396488204"><ele>1179.0</ele><time>2026-04-27T15:31:09Z</time></trkpt><trkpt lat="42.36569283386692" lon="13.532854594443569"><ele>1179.0</ele><time>2026-04-27T15:31:10Z</time></trkpt><trkpt lat="42.365584301875586" lon="13.532923146004407"><ele>1179.0</ele><time>2026-04-27T15:31:11Z</time></trkpt><trkpt lat="42.36546803374346" lon="13.533010021732334"><ele>1179.0</ele><time>2026-04-27T15:31:12Z</time></trkpt><trkpt lat="42.36537226076664" lon="13.533115289040929"><ele>1185.0</ele><time>2026-04-27T15:31:13Z</time></trkpt><trkpt lat="42.36526335659412" lon="13.533230428619767"><ele>1191.0</ele><time>2026-04-27T15:31:14Z</time></trkpt><trkpt lat="42.36517261706934" lon="13.533360956099019"><ele>1197.0</ele><time>2026-04-27T15:31:15Z</time></trkpt><trkpt lat="42.36511458194526" lon="13.533519544181964"><ele>1203.0</ele><time>2026-04-27T15:31:16Z</time></trkpt><trkpt lat="42.365061001325785" lon="13.53367767392735"><ele>1204.25</ele><time>2026-04-27T15:31:17Z</time></trkpt><trkpt lat="42.3650346617991" lon="13.533840288205047"><ele>1205.5</ele><time>2026-04-27T15:31:18Z</time></trkpt><trkpt lat="42.365031880779895" lon="13.534013791780083"><ele>1206.75</ele><time>2026-04-27T15:31:19Z</time></trkpt><trkpt lat="42.36501911049553" lon="13.534197179524577"><ele>1208.0</ele><time>2026-04-27T15:31:20Z</time></trkpt><trkpt lat="42.36499730376978" lon="13.534387339990278"><ele>1209.25</ele><time>2026-04-27T15:31:21Z</time></trkpt><trkpt lat="42.36498320407802" lon="13.53457137732107"><ele>1210.5</ele><time>2026-04-27T15:31:22Z</time></trkpt><trkpt lat="42.36497933691903" lon="13.534784240450735"><ele>1211.75</ele><time>2026-04-27T15:31:23Z</time></trkpt><trkpt lat="42.36495834854902" lon="13.534970001183908"><ele>1213.0</ele><time>2026-04-27T15:31:24Z</time></trkpt><trkpt lat="42.364955683364634" lon="13.535137653895596"><ele>1213.0</ele><time>2026-04-27T15:31:25Z</time></trkpt><trkpt lat="42.364929030351576" lon="13.53529130617442"><ele>1213.0</ele><time>2026-04-27T15:31:26Z</time></trkpt><trkpt lat="42.36489777160735" lon="13.535475814249669"><ele>1213.0</ele><time>2026-04-27T15:31:27Z</time></trkpt><trkpt lat="42.364862928417026" lon="13.53564371106208"><ele>1213.0</ele><time>2026-04-27T15:31:28Z</time></trkpt><trkpt lat="42.364824505340685" lon="13.535831040558216"><ele>1213.25</ele><time>2026-04-27T15:31:29Z</time></trkpt><trkpt lat="42.36479964410211" lon="13.536012889250973"><ele>1213.5</ele><time>2026-04-27T15:31:30Z</time></trkpt><trkpt lat="42.36474382328338" lon="13.536203247337745"><ele>1213.75</ele><time>2026-04-27T15:31:31Z</time></trkpt><trkpt lat="42.36469730620097" lon="13.536393702968928"><ele>1214.0</ele><time>2026-04-27T15:31:32Z</time></trkpt><trkpt lat="42.36466755590474" lon="13.536564414127358"><ele>1214.5</ele><time>2026-04-27T15:31:33Z</time></trkpt><trkpt lat="42.36465577152724" lon="13.536713880075856"><ele>1215.0</ele><time>2026-04-27T15:31:34Z</time></trkpt><trkpt lat="42.36460060597507" lon="13.5368519812525"><ele>1215.5</ele><time>2026-04-27T15:31:35Z</time></trkpt><trkpt lat="42.36453837911547" lon="13.537001327627678"><ele>1216.0</ele><time>2026-04-27T15:31:36Z</time></trkpt><trkpt lat="42.364456615673845" lon="13.537172185753926"><ele>1217.0</ele><time>2026-04-27T15:31:37Z</time></trkpt><trkpt lat="42.364370067890526" lon="13.537341956910074"><ele>1218.0</ele><time>2026-04-27T15:31:38Z</time></trkpt><trkpt lat="42.364271076248265" lon="13.537527539160234"><ele>1219.0</ele><time>2026-04-27T15:31:39Z</time></trkpt><trkpt lat="42.364182489425666" lon="13.537720423159533"><ele>1219.0</ele><time>2026-04-27T15:31:40Z</time></trkpt><trkpt lat="42.36410947473588" lon="13.537880890376345"><ele>1219.0</ele><time>2026-04-27T15:31:41Z</time></trkpt><trkpt lat="42.36403917246416" lon="13.538025159763508"><ele>1219.0</ele><time>2026-04-27T15:31:42Z</time></trkpt><trkpt lat="42.363959458451106" lon="13.538129096031637"><ele>1219.0</ele><time>2026-04-27T15:31:43Z</time></trkpt><trkpt lat="42.36387835429166" lon="13.538230796927516"><ele>1220.6666666666665</ele><time>2026-04-27T15:31:44Z</time></trkpt><trkpt lat="42.363777775730696" lon="13.538355391159678"><ele>1222.3333333333333</ele><time>2026-04-27T15:31:45Z</time></trkpt><trkpt lat="42.363662639640225" lon="13.538521297487918"><ele>1224.0</ele><time>2026-04-27T15:31:46Z</time></trkpt><trkpt lat="42.36352555498573" lon="13.538661155157625"><ele>1225.3333333333333</ele><time>2026-04-27T15:31:47Z</time></trkpt><trkpt lat="42.36340434721594" lon="13.53884278626776"><ele>1226.6666666666665</ele><time>2026-04-27T15:31:48Z</time></trkpt><trkpt lat="42.36327315425295" lon="13.539019483065745"><ele>1228.0</ele><time>2026-04-27T15:31:49Z</time></trkpt><trkpt lat="42.363137164506654" lon="13.539217961973334"><ele>1228.3333333333333</ele><time>2026-04-27T15:31:50Z</time></trkpt><trkpt lat="42.36299156299775" lon="13.539397668510462"><ele>1228.6666666666667</ele><time>2026-04-27T15:31:51Z</time></trkpt><trkpt lat="42.362866059925935" lon="13.539573258379832"><ele>1229.0</ele><time>2026-04-27T15:31:52Z</time></trkpt><trkpt lat="42.362761292346" lon="13.539711121977833"><ele>1228.25</ele><time>2026-04-27T15:31:53Z</time></trkpt><trkpt lat="42.36268855041852" lon="13.53985034941019"><ele>1227.5</ele><time>2026-04-27T15:31:54Z</time></trkpt><trkpt lat="42.36261023068397" lon="13.539969634534042"><ele>1226.75</ele><time>2026-04-27T15:31:55Z</time></trkpt><trkpt lat="42.362538880888046" lon="13.54011051001114"><ele>1226.0</ele><time>2026-04-27T15:31:56Z</time></trkpt><trkpt lat="42.36247438954518" lon="13.54028516244876"><ele>1227.3333333333335</ele><time>2026-04-27T15:31:57Z</time></trkpt><trkpt lat="42.36241489904151" lon="13.5404782337683"><ele>1228.6666666666667</ele><time>2026-04-27T15:31:58Z</time></trkpt><trkpt lat="42.36235239075349" lon="13.540678330422388"><ele>1230.0</ele><time>2026-04-27T15:31:59Z</time></trkpt><trkpt lat="42.3622964699051" lon="13.540921162569456"><ele>1230.0</ele><time>2026-04-27T15:32:00Z</time></trkpt><trkpt lat="42.362238432478584" lon="13.541141934001757"><ele>1230.0</ele><time>2026-04-27T15:32:01Z</time></trkpt><trkpt lat="42.36215959928437" lon="13.54135793704366"><ele>1230.0</ele><time>2026-04-27T15:32:02Z</time></trkpt><trkpt lat="42.36208727234165" lon="13.541602020784188"><ele>1230.0</ele><time>2026-04-27T15:32:03Z</time></trkpt><trkpt lat="42.362038378576486" lon="13.541835319841185"><ele>1230.0</ele><time>2026-04-27T15:32:04Z</time></trkpt><trkpt lat="42.36197143911411" lon="13.542025356966446"><ele>1230.0</ele><time>2026-04-27T15:32:05Z</time></trkpt><trkpt lat="42.361920325541746" lon="13.542204849633727"><ele>1230.0</ele><time>2026-04-27T15:32:06Z</time></trkpt><trkpt lat="42.36187314978337" lon="13.5423705141247"><ele>1230.0</ele><time>2026-04-27T15:32:07Z</time></trkpt><trkpt lat="42.36182904704457" lon="13.542521132245822"><ele>1230.0</ele><time>2026-04-27T15:32:08Z</time></trkpt><trkpt lat="42.361787656206445" lon="13.54265947642966"><ele>1230.0</ele><time>2026-04-27T15:32:09Z</time></trkpt><trkpt lat="42.36176401918975" lon="13.54282167254926"><ele>1230.0</ele><time>2026-04-27T15:32:10Z</time></trkpt><trkpt lat="42.36177220469559" lon="13.543019434740026"><ele>1230.0</ele><time>2026-04-27T15:32:11Z</time></trkpt><trkpt lat="42.361763787713706" lon="13.543238814652478"><ele>1230.0</ele><time>2026-04-27T15:32:12Z</time></trkpt><trkpt lat="42.36175198714689" lon="13.54347384854775"><ele>1230.0</ele><time>2026-04-27T15:32:13Z</time></trkpt><trkpt lat="42.361720959433875" lon="13.543672486641444"><ele>1230.0</ele><time>2026-04-27T15:32:14Z</time></trkpt><trkpt lat="42.36166094718964" lon="13.543875368294458"><ele>1230.0</ele><time>2026-04-27T15:32:15Z</time></trkpt><trkpt lat="42.36161412134205" lon="13.544069888904833"><ele>1230.75</ele><time>2026-04-27T15:32:16Z</time></trkpt><trkpt lat="42.361572596055986" lon="13.544280373319687"><ele>1231.5</ele><time>2026-04-27T15:32:17Z</time></trkpt><trkpt lat="42.36154397178605" lon="13.54446482702703"><ele>1232.25</ele><time>2026-04-27T15:32:18Z</time></trkpt><trkpt lat="42.36152258747523" lon="13.54463553051973"><ele>1233.0</ele><time>2026-04-27T15:32:19Z</time></trkpt><trkpt lat="42.361520493730865" lon="13.544799238233997"><ele>1233.5</ele><time>2026-04-27T15:32:20Z</time></trkpt><trkpt lat="42.36151802997796" lon="13.54495198328765"><ele>1234.0</ele><time>2026-04-27T15:32:21Z</time></trkpt><trkpt lat="42.36153420812648" lon="13.545126135051134"><ele>1234.5</ele><time>2026-04-27T15:32:22Z</time></trkpt><trkpt lat="42.361538490323454" lon="13.545320967118924"><ele>1235.0</ele><time>2026-04-27T15:32:23Z</time></trkpt><trkpt lat="42.36153127144511" lon="13.545496669469218"><ele>1235.0</ele><time>2026-04-27T15:32:24Z</time></trkpt><trkpt lat="42.36150935560476" lon="13.545652018783715"><ele>1235.0</ele><time>2026-04-27T15:32:25Z</time></trkpt><trkpt lat="42.36151286265139" lon="13.54580977436182"><ele>1235.0</ele><time>2026-04-27T15:32:26Z</time></trkpt><trkpt lat="42.36150940403802" lon="13.545939165009985"><ele>1235.0</ele><time>2026-04-27T15:32:27.001Z</time></trkpt><trkpt lat="42.361533662741486" lon="13.546077835936421"><ele>1235.0</ele><time>2026-04-27T15:32:28Z</time></trkpt><trkpt lat="42.361567939525145" lon="13.546203825158"><ele>1234.8333333333335</ele><time>2026-04-27T15:32:29.001Z</time></trkpt><trkpt lat="42.361565708889685" lon="13.546331075587027"><ele>1234.6666666666667</ele><time>2026-04-27T15:32:30.001Z</time></trkpt><trkpt lat="42.36154073166718" lon="13.546414809360654"><ele>1234.5</ele><time>2026-04-27T15:32:31Z</time></trkpt><trkpt lat="42.36151828664236" lon="13.546549057671184"><ele>1234.3333333333333</ele><time>2026-04-27T15:32:32Z</time></trkpt><trkpt lat="42.36149264849595" lon="13.546654728047525"><ele>1234.1666666666665</ele><time>2026-04-27T15:32:33Z</time></trkpt><trkpt lat="42.36142122280653" lon="13.546745493041476"><ele>1234.0</ele><time>2026-04-27T15:32:34Z</time></trkpt><trkpt lat="42.36136487434923" lon="13.546854978037693"><ele>1234.0</ele><time>2026-04-27T15:32:35Z</time></trkpt><trkpt lat="42.361325993089096" lon="13.546987954313542"><ele>1234.0</ele><time>2026-04-27T15:32:36Z</time></trkpt><trkpt lat="42.36126627561453" lon="13.547131288057042"><ele>1234.0</ele><time>2026-04-27T15:32:37Z</time></trkpt><trkpt lat="42.36120714389815" lon="13.547282646223008"><ele>1234.0</ele><time>2026-04-27T15:32:38Z</time></trkpt><trkpt lat="42.36114017862904" lon="13.547429349249468"><ele>1231.75</ele><time>2026-04-27T15:32:39Z</time></trkpt><trkpt lat="42.361065583373374" lon="13.54759085578094"><ele>1229.5</ele><time>2026-04-27T15:32:40Z</time></trkpt><trkpt lat="42.361009469590186" lon="13.547756556774305"><ele>1227.25</ele><time>2026-04-27T15:32:41Z</time></trkpt><trkpt lat="42.360964844772674" lon="13.547869972971768"><ele>1225.0</ele><time>2026-04-27T15:32:42Z</time></trkpt><trkpt lat="42.360888327537204" lon="13.547953189884495"><ele>1225.0</ele><time>2026-04-27T15:32:43Z</time></trkpt><trkpt lat="42.3608010069307" lon="13.548048291586737"><ele>1225.0</ele><time>2026-04-27T15:32:44Z</time></trkpt><trkpt lat="42.36071923278078" lon="13.548166142812986"><ele>1225.0</ele><time>2026-04-27T15:32:45Z</time></trkpt><trkpt lat="42.36065105427215" lon="13.548288580476843"><ele>1225.0</ele><time>2026-04-27T15:32:46Z</time></trkpt><trkpt lat="42.36059061092909" lon="13.548449227954787"><ele>1225.0</ele><time>2026-04-27T15:32:47Z</time></trkpt><trkpt lat="42.36054084063112" lon="13.548644216118584"><ele>1225.0</ele><time>2026-04-27T15:32:48Z</time></trkpt><trkpt lat="42.360505037248444" lon="13.548849006767522"><ele>1225.0</ele><time>2026-04-27T15:32:49Z</time></trkpt><trkpt lat="42.36047617866151" lon="13.54902425216108"><ele>1225.0</ele><time>2026-04-27T15:32:50Z</time></trkpt><trkpt lat="42.36044979751938" lon="13.549194362402336"><ele>1223.25</ele><time>2026-04-27T15:32:51Z</time></trkpt><trkpt lat="42.360425977884574" lon="13.54936029015651"><ele>1221.5</ele><time>2026-04-27T15:32:52Z</time></trkpt><trkpt lat="42.36040478101355" lon="13.549528222661904"><ele>1219.75</ele><time>2026-04-27T15:32:53Z</time></trkpt><trkpt lat="42.36038133539347" lon="13.54971397093361"><ele>1218.0</ele><time>2026-04-27T15:32:54Z</time></trkpt><trkpt lat="42.36036566104429" lon="13.549929527427906"><ele>1217.0</ele><time>2026-04-27T15:32:55Z</time></trkpt><trkpt lat="42.36031010021429" lon="13.550176023987245"><ele>1216.0</ele><time>2026-04-27T15:32:56Z</time></trkpt><trkpt lat="42.36026029016236" lon="13.550453953101876"><ele>1215.0</ele><time>2026-04-27T15:32:57Z</time></trkpt><trkpt lat="42.36020470551833" lon="13.550744002772545"><ele>1214.3333333333333</ele><time>2026-04-27T15:32:58Z</time></trkpt><trkpt lat="42.36014990499349" lon="13.55099482848409"><ele>1213.6666666666665</ele><time>2026-04-27T15:32:59Z</time></trkpt><trkpt lat="42.36011129582259" lon="13.551252328801182"><ele>1213.0</ele><time>2026-04-27T15:33:00Z</time></trkpt><trkpt lat="42.360061226859756" lon="13.55147353701941"><ele>1212.75</ele><time>2026-04-27T15:33:01Z</time></trkpt><trkpt lat="42.35999934333534" lon="13.551669385916034"><ele>1212.5</ele><time>2026-04-27T15:33:02Z</time></trkpt><trkpt lat="42.35994968547238" lon="13.55184210316626"><ele>1212.25</ele><time>2026-04-27T15:33:03Z</time></trkpt><trkpt lat="42.35989512875793" lon="13.552014905053417"><ele>1212.0</ele><time>2026-04-27T15:33:04Z</time></trkpt><trkpt lat="42.35984682798075" lon="13.552164419816382"><ele>1211.75</ele><time>2026-04-27T15:33:05Z</time></trkpt><trkpt lat="42.35979751353431" lon="13.552284318378886"><ele>1211.5</ele><time>2026-04-27T15:33:06Z</time></trkpt><trkpt lat="42.35973350461089" lon="13.552412521591569"><ele>1211.25</ele><time>2026-04-27T15:33:07Z</time></trkpt><trkpt lat="42.35964667172491" lon="13.552579015288572"><ele>1211.0</ele><time>2026-04-27T15:33:08Z</time></trkpt><trkpt lat="42.35955753524563" lon="13.552778224683639"><ele>1211.0</ele><time>2026-04-27T15:33:09Z</time></trkpt><trkpt lat="42.35947263432065" lon="13.552973576857589"><ele>1211.0</ele><time>2026-04-27T15:33:10Z</time></trkpt><trkpt lat="42.359372895240156" lon="13.553174352439234"><ele>1211.0</ele><time>2026-04-27T15:33:11Z</time></trkpt><trkpt lat="42.35931114959207" lon="13.553404108260247"><ele>1211.0</ele><time>2026-04-27T15:33:12Z</time></trkpt><trkpt lat="42.359251660439334" lon="13.553627007989544"><ele>1211.0</ele><time>2026-04-27T15:33:13Z</time></trkpt><trkpt lat="42.359201184479154" lon="13.553814339930321"><ele>1211.0</ele><time>2026-04-27T15:33:14Z</time></trkpt><trkpt lat="42.359120063555835" lon="13.553971968362125"><ele>1211.3333333333335</ele><time>2026-04-27T15:33:15Z</time></trkpt><trkpt lat="42.359038154884175" lon="13.554163088542786"><ele>1211.6666666666667</ele><time>2026-04-27T15:33:16Z</time></trkpt><trkpt lat="42.358951800567034" lon="13.554356688742349"><ele>1212.0</ele><time>2026-04-27T15:33:17Z</time></trkpt><trkpt lat="42.35887572158479" lon="13.554534473742978"><ele>1214.5</ele><time>2026-04-27T15:33:18Z</time></trkpt><trkpt lat="42.35881113083998" lon="13.554699442030996"><ele>1217.0</ele><time>2026-04-27T15:33:19Z</time></trkpt><trkpt lat="42.358755542935995" lon="13.55484741749911"><ele>1219.5</ele><time>2026-04-27T15:33:20Z</time></trkpt><trkpt lat="42.35871424347099" lon="13.555018133148614"><ele>1222.0</ele><time>2026-04-27T15:33:21Z</time></trkpt><trkpt lat="42.35865986709677" lon="13.555198934549098"><ele>1220.75</ele><time>2026-04-27T15:33:22Z</time></trkpt><trkpt lat="42.35859432987347" lon="13.5554056166867"><ele>1219.5</ele><time>2026-04-27T15:33:23Z</time></trkpt><trkpt lat="42.35854013728742" lon="13.555581165278792"><ele>1218.25</ele><time>2026-04-27T15:33:24Z</time></trkpt><trkpt lat="42.358472611780996" lon="13.555739994573528"><ele>1217.0</ele><time>2026-04-27T15:33:25Z</time></trkpt><trkpt lat="42.358425359568635" lon="13.555889507609537"><ele>1217.0</ele><time>2026-04-27T15:33:26Z</time></trkpt><trkpt lat="42.358428664986675" lon="13.556051033025206"><ele>1217.0</ele><time>2026-04-27T15:33:27Z</time></trkpt><trkpt lat="42.35842243380984" lon="13.556209159420222"><ele>1217.0</ele><time>2026-04-27T15:33:28Z</time></trkpt><trkpt lat="42.358442236780554" lon="13.556393024110244"><ele>1217.0</ele><time>2026-04-27T15:33:29Z</time></trkpt><trkpt lat="42.358461586015004" lon="13.556575914934486"><ele>1215.8</ele><time>2026-04-27T15:33:30Z</time></trkpt><trkpt lat="42.35847932078388" lon="13.556721780984995"><ele>1214.6</ele><time>2026-04-27T15:33:31Z</time></trkpt><trkpt lat="42.35849088874594" lon="13.55685405155135"><ele>1213.3999999999999</ele><time>2026-04-27T15:33:32Z</time></trkpt><trkpt lat="42.35850061928169" lon="13.556985130733697"><ele>1212.2</ele><time>2026-04-27T15:33:33Z</time></trkpt><trkpt lat="42.35854860907171" lon="13.557126310738232"><ele>1211.0</ele><time>2026-04-27T15:33:34Z</time></trkpt><trkpt lat="42.35862736028269" lon="13.557275830829976"><ele>1211.0</ele><time>2026-04-27T15:33:35Z</time></trkpt><trkpt lat="42.358711508908335" lon="13.557416534294124"><ele>1211.0</ele><time>2026-04-27T15:33:36Z</time></trkpt><trkpt lat="42.35876933177171" lon="13.557543784642268"><ele>1211.0</ele><time>2026-04-27T15:33:37Z</time></trkpt><trkpt lat="42.35880597564814" lon="13.557688295310866"><ele>1211.0</ele><time>2026-04-27T15:33:38Z</time></trkpt><trkpt lat="42.35882351286473" lon="13.55783090651582"><ele>1210.75</ele><time>2026-04-27T15:33:39Z</time></trkpt><trkpt lat="42.35881684059606" lon="13.558009384480203"><ele>1210.5</ele><time>2026-04-27T15:33:40Z</time></trkpt><trkpt lat="42.35881259032425" lon="13.558188519792916"><ele>1210.25</ele><time>2026-04-27T15:33:41Z</time></trkpt><trkpt lat="42.358824668147655" lon="13.558360542571412"><ele>1210.0</ele><time>2026-04-27T15:33:42Z</time></trkpt><trkpt lat="42.358874944993744" lon="13.558558823934419"><ele>1207.3333333333333</ele><time>2026-04-27T15:33:43Z</time></trkpt><trkpt lat="42.35892647520514" lon="13.558777850346608"><ele>1204.6666666666667</ele><time>2026-04-27T15:33:44Z</time></trkpt><trkpt lat="42.35896643220242" lon="13.558984150349541"><ele>1202.0</ele><time>2026-04-27T15:33:45Z</time></trkpt><trkpt lat="42.359000198844186" lon="13.559155635520778"><ele>1202.0</ele><time>2026-04-27T15:33:46Z</time></trkpt><trkpt lat="42.35902094414531" lon="13.559303417877"><ele>1202.0</ele><time>2026-04-27T15:33:47Z</time></trkpt><trkpt lat="42.359026235836616" lon="13.55944967008669"><ele>1202.0</ele><time>2026-04-27T15:33:48Z</time></trkpt><trkpt lat="42.35901322458657" lon="13.559613152310881"><ele>1202.0</ele><time>2026-04-27T15:33:49Z</time></trkpt><trkpt lat="42.35898192326772" lon="13.559791771138762"><ele>1202.0</ele><time>2026-04-27T15:33:50Z</time></trkpt><trkpt lat="42.35894848751494" lon="13.560001538528239"><ele>1202.0</ele><time>2026-04-27T15:33:51Z</time></trkpt><trkpt lat="42.35893261755165" lon="13.560216283176924"><ele>1202.0</ele><time>2026-04-27T15:33:52Z</time></trkpt><trkpt lat="42.35891641404163" lon="13.560457038283312"><ele>1201.6666666666667</ele><time>2026-04-27T15:33:53Z</time></trkpt><trkpt lat="42.35891383568056" lon="13.560689247916695"><ele>1201.3333333333333</ele><time>2026-04-27T15:33:54Z</time></trkpt><trkpt lat="42.358912020501414" lon="13.560972233887291"><ele>1201.0</ele><time>2026-04-27T15:33:55Z</time></trkpt><trkpt lat="42.358910325997385" lon="13.561257166127701"><ele>1200.0</ele><time>2026-04-27T15:33:56Z</time></trkpt><trkpt lat="42.358907179421095" lon="13.561491910024698"><ele>1199.0</ele><time>2026-04-27T15:33:57Z</time></trkpt><trkpt lat="42.358901063299754" lon="13.561711789926276"><ele>1198.0</ele><time>2026-04-27T15:33:58Z</time></trkpt><trkpt lat="42.35889271067712" lon="13.561933020830132"><ele>1198.0</ele><time>2026-04-27T15:33:59Z</time></trkpt><trkpt lat="42.35887790088582" lon="13.562127123147098"><ele>1198.0</ele><time>2026-04-27T15:34:00Z</time></trkpt><trkpt lat="42.35887728223677" lon="13.562315920373072"><ele>1198.0</ele><time>2026-04-27T15:34:01Z</time></trkpt><trkpt lat="42.35887689564695" lon="13.562537514742505"><ele>1198.0</ele><time>2026-04-27T15:34:02Z</time></trkpt><trkpt lat="42.35887338519264" lon="13.562758688592984"><ele>1196.0</ele><time>2026-04-27T15:34:03Z</time></trkpt><trkpt lat="42.35889597612999" lon="13.562960682556607"><ele>1194.0</ele><time>2026-04-27T15:34:04Z</time></trkpt><trkpt lat="42.358919431257576" lon="13.563149237726602"><ele>1192.0</ele><time>2026-04-27T15:34:05Z</time></trkpt><trkpt lat="42.358959261235825" lon="13.563351949826368"><ele>1190.0</ele><time>2026-04-27T15:34:06Z</time></trkpt><trkpt lat="42.35899830287819" lon="13.563547137209861"><ele>1189.0</ele><time>2026-04-27T15:34:07Z</time></trkpt><trkpt lat="42.359013241788034" lon="13.563718163383975"><ele>1188.0</ele><time>2026-04-27T15:34:08Z</time></trkpt><trkpt lat="42.35900896336116" lon="13.563871621746955"><ele>1187.0</ele><time>2026-04-27T15:34:09Z</time></trkpt><trkpt lat="42.358994473151675" lon="13.564034159189259"><ele>1186.0</ele><time>2026-04-27T15:34:10Z</time></trkpt><trkpt lat="42.35899181259036" lon="13.56418461164735"><ele>1186.0</ele><time>2026-04-27T15:34:11Z</time></trkpt><trkpt lat="42.35900019690483" lon="13.564317848130802"><ele>1186.0</ele><time>2026-04-27T15:34:12Z</time></trkpt><trkpt lat="42.359015237365846" lon="13.564439086724379"><ele>1186.0</ele><time>2026-04-27T15:34:13Z</time></trkpt><trkpt lat="42.35902463221081" lon="13.564533148045008"><ele>1186.0</ele><time>2026-04-27T15:34:14Z</time></trkpt><trkpt lat="42.359018303224325" lon="13.564631332270174"><ele>1186.0</ele><time>2026-04-27T15:34:16Z</time></trkpt><trkpt lat="42.3589791315207" lon="13.56473261581634"><ele>1186.0</ele><time>2026-04-27T15:36:30Z</time></trkpt><trkpt lat="42.35895733851335" lon="13.56481698654714"><ele>1187.0</ele><time>2026-04-27T15:36:31Z</time></trkpt><trkpt lat="42.358933715104236" lon="13.564911713777912"><ele>1188.0</ele><time>2026-04-27T15:36:32Z</time></trkpt><trkpt lat="42.358909253609546" lon="13.565015200840763"><ele>1189.0</ele><time>2026-04-27T15:36:33Z</time></trkpt><trkpt lat="42.35888533081492" lon="13.565137474150461"><ele>1190.0</ele><time>2026-04-27T15:36:34Z</time></trkpt><trkpt lat="42.35886282696745" lon="13.56526830502073"><ele>1191.0</ele><time>2026-04-27T15:36:35Z</time></trkpt><trkpt lat="42.3588438265734" lon="13.565405428334163"><ele>1191.0</ele><time>2026-04-27T15:36:36Z</time></trkpt><trkpt lat="42.358829550335145" lon="13.565555429878568"><ele>1191.0</ele><time>2026-04-27T15:36:37.001Z</time></trkpt><trkpt lat="42.35881906450158" lon="13.565710121040167"><ele>1191.0</ele><time>2026-04-27T15:36:38.001Z</time></trkpt><trkpt lat="42.358810851267144" lon="13.565876456786576"><ele>1191.0</ele><time>2026-04-27T15:36:39.001Z</time></trkpt><trkpt lat="42.3588102534671" lon="13.566045859073109"><ele>1191.0</ele><time>2026-04-27T15:36:40.001Z</time></trkpt><trkpt lat="42.358808956350636" lon="13.566231587789131"><ele>1191.0</ele><time>2026-04-27T15:36:41.001Z</time></trkpt><trkpt lat="42.35881296854451" lon="13.566426018197028"><ele>1191.0</ele><time>2026-04-27T15:36:42.001Z</time></trkpt><trkpt lat="42.358822384024414" lon="13.566626500238339"><ele>1191.0</ele><time>2026-04-27T15:36:43.001Z</time></trkpt><trkpt lat="42.35882455235361" lon="13.566823715861737"><ele>1191.0</ele><time>2026-04-27T15:36:44.001Z</time></trkpt><trkpt lat="42.35881831198065" lon="13.5670220672039"><ele>1191.0</ele><time>2026-04-27T15:36:45.001Z</time></trkpt><trkpt lat="42.35881328037387" lon="13.567230626212833"><ele>1191.0</ele><time>2026-04-27T15:36:46.001Z</time></trkpt><trkpt lat="42.35880712471208" lon="13.567418149793578"><ele>1191.0</ele><time>2026-04-27T15:36:47.001Z</time></trkpt><trkpt lat="42.3588007266565" lon="13.567601483527968"><ele>1191.0</ele><time>2026-04-27T15:36:48.001Z</time></trkpt><trkpt lat="42.35879824927391" lon="13.567769366397336"><ele>1191.0</ele><time>2026-04-27T15:36:49.001Z</time></trkpt><trkpt lat="42.3587846698815" lon="13.56794971020605"><ele>1191.0</ele><time>2026-04-27T15:36:50.001Z</time></trkpt><trkpt lat="42.358765356829075" lon="13.568141567736214"><ele>1191.0</ele><time>2026-04-27T15:36:51.001Z</time></trkpt><trkpt lat="42.358739990492595" lon="13.568333681862834"><ele>1191.0</ele><time>2026-04-27T15:36:52.001Z</time></trkpt><trkpt lat="42.3587103361473" lon="13.568531033356651"><ele>1191.0</ele><time>2026-04-27T15:36:53.001Z</time></trkpt><trkpt lat="42.3586798668102" lon="13.568720089774832"><ele>1191.0</ele><time>2026-04-27T15:36:54.001Z</time></trkpt><trkpt lat="42.3586501053857" lon="13.568874641764742"><ele>1191.0</ele><time>2026-04-27T15:36:55.001Z</time></trkpt><trkpt lat="42.3586242375942" lon="13.569008821007777"><ele>1191.6</ele><time>2026-04-27T15:36:56.001Z</time></trkpt><trkpt lat="42.358585521702544" lon="13.569131667416137"><ele>1192.1999999999998</ele><time>2026-04-27T15:36:57.001Z</time></trkpt><trkpt lat="42.358527806389326" lon="13.569236921733694"><ele>1192.8000000000002</ele><time>2026-04-27T15:36:58Z</time></trkpt><trkpt lat="42.35845324066626" lon="13.56935530744215"><ele>1193.4</ele><time>2026-04-27T15:36:59Z</time></trkpt><trkpt lat="42.35836861153372" lon="13.569474094702985"><ele>1194.0</ele><time>2026-04-27T15:37:00Z</time></trkpt><trkpt lat="42.35827565642664" lon="13.569610694298"><ele>1194.0</ele><time>2026-04-27T15:37:01Z</time></trkpt><trkpt lat="42.35818003819398" lon="13.569764422769813"><ele>1194.0</ele><time>2026-04-27T15:37:02Z</time></trkpt><trkpt lat="42.35808139521464" lon="13.569929840477524"><ele>1194.0</ele><time>2026-04-27T15:37:03Z</time></trkpt><trkpt lat="42.3579799335292" lon="13.570105435666154"><ele>1193.6666666666667</ele><time>2026-04-27T15:37:04Z</time></trkpt><trkpt lat="42.357886255958626" lon="13.57027848713986"><ele>1193.3333333333335</ele><time>2026-04-27T15:37:05Z</time></trkpt><trkpt lat="42.357792289245424" lon="13.570457067826473"><ele>1193.0</ele><time>2026-04-27T15:37:06Z</time></trkpt><trkpt lat="42.35770361674927" lon="13.570642434626844"><ele>1192.3333333333335</ele><time>2026-04-27T15:37:07Z</time></trkpt><trkpt lat="42.35761931369611" lon="13.570831346599876"><ele>1191.6666666666667</ele><time>2026-04-27T15:37:08Z</time></trkpt><trkpt lat="42.35752609465773" lon="13.571027683919684"><ele>1191.0</ele><time>2026-04-27T15:37:09Z</time></trkpt><trkpt lat="42.357438149331266" lon="13.571210873955131"><ele>1191.0</ele><time>2026-04-27T15:37:10Z</time></trkpt><trkpt lat="42.35734220973696" lon="13.571378915444269"><ele>1191.0</ele><time>2026-04-27T15:37:11Z</time></trkpt><trkpt lat="42.357237089945876" lon="13.571555627691033"><ele>1191.0</ele><time>2026-04-27T15:37:12Z</time></trkpt><trkpt lat="42.35713518034231" lon="13.571715656263766"><ele>1189.75</ele><time>2026-04-27T15:37:13Z</time></trkpt><trkpt lat="42.357038893283395" lon="13.571888671806175"><ele>1188.5</ele><time>2026-04-27T15:37:14Z</time></trkpt><trkpt lat="42.356956590430265" lon="13.572033325147908"><ele>1187.25</ele><time>2026-04-27T15:37:15Z</time></trkpt><trkpt lat="42.356877629277506" lon="13.572169791581153"><ele>1186.0</ele><time>2026-04-27T15:37:16Z</time></trkpt><trkpt lat="42.35678639589812" lon="13.572297608266974"><ele>1186.0</ele><time>2026-04-27T15:37:17Z</time></trkpt><trkpt lat="42.356688457236615" lon="13.572401730562987"><ele>1186.0</ele><time>2026-04-27T15:37:18Z</time></trkpt><trkpt lat="42.356595357218" lon="13.572474152752777"><ele>1186.0</ele><time>2026-04-27T15:37:19Z</time></trkpt><trkpt lat="42.356506811427096" lon="13.572512326082858"><ele>1186.0</ele><time>2026-04-27T15:37:20Z</time></trkpt><trkpt lat="42.35642482826332" lon="13.57251414132839"><ele>1186.0</ele><time>2026-04-27T15:37:21Z</time></trkpt><trkpt lat="42.35633648755609" lon="13.572483207230187"><ele>1185.0</ele><time>2026-04-27T15:37:22Z</time></trkpt><trkpt lat="42.35624201270596" lon="13.572432351318025"><ele>1184.0</ele><time>2026-04-27T15:37:23Z</time></trkpt><trkpt lat="42.356121203244754" lon="13.572400164114423"><ele>1183.0</ele><time>2026-04-27T15:37:24Z</time></trkpt><trkpt lat="42.35600030036504" lon="13.572401552595085"><ele>1182.0</ele><time>2026-04-27T15:37:25Z</time></trkpt><trkpt lat="42.355872306699204" lon="13.572431950696402"><ele>1182.0</ele><time>2026-04-27T15:37:26Z</time></trkpt><trkpt lat="42.355737452012036" lon="13.572484741864224"><ele>1182.0</ele><time>2026-04-27T15:37:27Z</time></trkpt><trkpt lat="42.35559478525" lon="13.572552713230259"><ele>1182.0</ele><time>2026-04-27T15:37:28Z</time></trkpt><trkpt lat="42.35544428006533" lon="13.572637013600593"><ele>1180.0</ele><time>2026-04-27T15:37:29Z</time></trkpt><trkpt lat="42.35529498132441" lon="13.572734045166886"><ele>1178.0</ele><time>2026-04-27T15:37:30Z</time></trkpt><trkpt lat="42.35513569896288" lon="13.572832259009624"><ele>1176.0</ele><time>2026-04-27T15:37:31Z</time></trkpt><trkpt lat="42.35498762497064" lon="13.572920168907087"><ele>1176.0</ele><time>2026-04-27T15:37:32Z</time></trkpt><trkpt lat="42.35484316839769" lon="13.573001644266242"><ele>1176.0</ele><time>2026-04-27T15:37:33Z</time></trkpt><trkpt lat="42.354683405448846" lon="13.573085111787822"><ele>1176.0</ele><time>2026-04-27T15:37:34Z</time></trkpt><trkpt lat="42.35452355011553" lon="13.573174746350414"><ele>1175.6666666666667</ele><time>2026-04-27T15:37:35Z</time></trkpt><trkpt lat="42.35436989343633" lon="13.573257153162125"><ele>1175.3333333333335</ele><time>2026-04-27T15:37:36Z</time></trkpt><trkpt lat="42.35422106448868" lon="13.573343056387614"><ele>1175.0</ele><time>2026-04-27T15:37:37Z</time></trkpt><trkpt lat="42.35407405713579" lon="13.573433148869368"><ele>1175.0</ele><time>2026-04-27T15:37:38Z</time></trkpt><trkpt lat="42.353929221453605" lon="13.573524460723636"><ele>1175.0</ele><time>2026-04-27T15:37:39Z</time></trkpt><trkpt lat="42.35378277021121" lon="13.573618908353955"><ele>1175.0</ele><time>2026-04-27T15:37:40Z</time></trkpt><trkpt lat="42.35364297919155" lon="13.573710363751752"><ele>1172.25</ele><time>2026-04-27T15:37:41Z</time></trkpt><trkpt lat="42.353501340903804" lon="13.573802266135571"><ele>1169.5</ele><time>2026-04-27T15:37:42Z</time></trkpt><trkpt lat="42.35336733411503" lon="13.573880035172781"><ele>1166.75</ele><time>2026-04-27T15:37:43Z</time></trkpt><trkpt lat="42.35324399566523" lon="13.573963246749727"><ele>1164.0</ele><time>2026-04-27T15:37:44Z</time></trkpt><trkpt lat="42.35313316684871" lon="13.574028871133097"><ele>1162.8</ele><time>2026-04-27T15:37:45Z</time></trkpt><trkpt lat="42.353030942002135" lon="13.574100440141363"><ele>1161.6000000000001</ele><time>2026-04-27T15:37:46Z</time></trkpt><trkpt lat="42.352940150794836" lon="13.574167760114884"><ele>1160.4</ele><time>2026-04-27T15:37:47Z</time></trkpt><trkpt lat="42.35285391778892" lon="13.574215183740558"><ele>1159.2</ele><time>2026-04-27T15:37:48Z</time></trkpt><trkpt lat="42.35277016026073" lon="13.574244900637153"><ele>1158.0</ele><time>2026-04-27T15:37:49Z</time></trkpt><trkpt lat="42.35267710283758" lon="13.574243293572287"><ele>1158.0</ele><time>2026-04-27T15:37:50Z</time></trkpt><trkpt lat="42.35256665617174" lon="13.574220382243835"><ele>1158.0</ele><time>2026-04-27T15:37:51Z</time></trkpt><trkpt lat="42.352460061120766" lon="13.574178649142977"><ele>1158.0</ele><time>2026-04-27T15:37:52Z</time></trkpt><trkpt lat="42.3523527945875" lon="13.574118314298396"><ele>1158.0</ele><time>2026-04-27T15:37:53Z</time></trkpt><trkpt lat="42.35224784915934" lon="13.57404369627165"><ele>1156.75</ele><time>2026-04-27T15:37:54Z</time></trkpt><trkpt lat="42.35213690255759" lon="13.57395559756342"><ele>1155.5</ele><time>2026-04-27T15:37:55Z</time></trkpt><trkpt lat="42.35202244044327" lon="13.573862396886831"><ele>1154.25</ele><time>2026-04-27T15:37:56Z</time></trkpt><trkpt lat="42.35191147563001" lon="13.573762144856278"><ele>1153.0</ele><time>2026-04-27T15:37:57Z</time></trkpt><trkpt lat="42.3517945480596" lon="13.57367109408753"><ele>1153.0</ele><time>2026-04-27T15:37:58Z</time></trkpt><trkpt lat="42.351666308275234" lon="13.573584055994518"><ele>1153.0</ele><time>2026-04-27T15:37:59Z</time></trkpt><trkpt lat="42.351538785481324" lon="13.573487907805434"><ele>1153.0</ele><time>2026-04-27T15:38:00Z</time></trkpt><trkpt lat="42.35141139317319" lon="13.573374132425712"><ele>1153.0</ele><time>2026-04-27T15:38:01Z</time></trkpt><trkpt lat="42.35129184283811" lon="13.573248264031644"><ele>1151.6666666666665</ele><time>2026-04-27T15:38:02Z</time></trkpt><trkpt lat="42.35117086618594" lon="13.573104738276173"><ele>1150.3333333333333</ele><time>2026-04-27T15:38:03Z</time></trkpt><trkpt lat="42.351068059652654" lon="13.5729484069053"><ele>1149.0</ele><time>2026-04-27T15:38:04Z</time></trkpt><trkpt lat="42.35097523377311" lon="13.572792841811767"><ele>1149.0</ele><time>2026-04-27T15:38:05Z</time></trkpt><trkpt lat="42.35088872302376" lon="13.57265151988367"><ele>1149.0</ele><time>2026-04-27T15:38:06Z</time></trkpt><trkpt lat="42.350795434174074" lon="13.57252248202279"><ele>1149.0</ele><time>2026-04-27T15:38:07Z</time></trkpt><trkpt lat="42.35068976930871" lon="13.572422930067505"><ele>1149.0</ele><time>2026-04-27T15:38:08Z</time></trkpt><trkpt lat="42.350576050470835" lon="13.57235479297258"><ele>1147.75</ele><time>2026-04-27T15:38:09Z</time></trkpt><trkpt lat="42.3504527368043" lon="13.572289497463805"><ele>1146.5</ele><time>2026-04-27T15:38:10Z</time></trkpt><trkpt lat="42.35032361623567" lon="13.572208060503828"><ele>1145.25</ele><time>2026-04-27T15:38:11Z</time></trkpt><trkpt lat="42.35019730962816" lon="13.572095456383668"><ele>1144.0</ele><time>2026-04-27T15:38:12Z</time></trkpt><trkpt lat="42.35007217922357" lon="13.571979867940458"><ele>1144.0</ele><time>2026-04-27T15:38:13Z</time></trkpt><trkpt lat="42.349952575149665" lon="13.571878936890819"><ele>1144.0</ele><time>2026-04-27T15:38:14Z</time></trkpt><trkpt lat="42.34985036010187" lon="13.57177916649966"><ele>1144.0</ele><time>2026-04-27T15:38:15Z</time></trkpt><trkpt lat="42.34975449331277" lon="13.571675484860043"><ele>1144.0</ele><time>2026-04-27T15:38:16Z</time></trkpt><trkpt lat="42.34966646588222" lon="13.571562339571717"><ele>1140.5</ele><time>2026-04-27T15:38:17Z</time></trkpt><trkpt lat="42.34957568350073" lon="13.571443548068782"><ele>1137.0</ele><time>2026-04-27T15:38:18Z</time></trkpt><trkpt lat="42.34948180766998" lon="13.57135956856396"><ele>1133.5</ele><time>2026-04-27T15:38:19Z</time></trkpt><trkpt lat="42.349367648051505" lon="13.571294475684967"><ele>1130.0</ele><time>2026-04-27T15:38:20Z</time></trkpt><trkpt lat="42.34924130024837" lon="13.571267907797465"><ele>1130.0</ele><time>2026-04-27T15:38:21Z</time></trkpt><trkpt lat="42.3490957552468" lon="13.571254773293896"><ele>1130.0</ele><time>2026-04-27T15:38:22Z</time></trkpt><trkpt lat="42.34894323252892" lon="13.571241465845613"><ele>1130.0</ele><time>2026-04-27T15:38:23Z</time></trkpt><trkpt lat="42.348803644957" lon="13.571211036030157"><ele>1130.0</ele><time>2026-04-27T15:38:24Z</time></trkpt><trkpt lat="42.34867722203331" lon="13.57115280085005"><ele>1129.75</ele><time>2026-04-27T15:38:25Z</time></trkpt><trkpt lat="42.34854566054958" lon="13.571064696921516"><ele>1129.5</ele><time>2026-04-27T15:38:26Z</time></trkpt><trkpt lat="42.348412105173026" lon="13.570965237355813"><ele>1129.25</ele><time>2026-04-27T15:38:27Z</time></trkpt><trkpt lat="42.34829838053662" lon="13.570874642258905"><ele>1129.0</ele><time>2026-04-27T15:38:28Z</time></trkpt><trkpt lat="42.34820872742956" lon="13.570796887234879"><ele>1129.0</ele><time>2026-04-27T15:38:29Z</time></trkpt><trkpt lat="42.348137916331346" lon="13.570709817633514"><ele>1129.0</ele><time>2026-04-27T15:38:30Z</time></trkpt><trkpt lat="42.348071489978366" lon="13.570600957749415"><ele>1129.0</ele><time>2026-04-27T15:38:31Z</time></trkpt><trkpt lat="42.34801406598698" lon="13.570448495971014"><ele>1129.0</ele><time>2026-04-27T15:38:32Z</time></trkpt><trkpt lat="42.34794476872185" lon="13.570269327277341"><ele>1127.0</ele><time>2026-04-27T15:38:33Z</time></trkpt><trkpt lat="42.34785688435962" lon="13.570117133956897"><ele>1125.0</ele><time>2026-04-27T15:38:34Z</time></trkpt><trkpt lat="42.34775427158991" lon="13.569987590307186"><ele>1123.0</ele><time>2026-04-27T15:38:35Z</time></trkpt><trkpt lat="42.34765083488525" lon="13.569883371226268"><ele>1121.0</ele><time>2026-04-27T15:38:36Z</time></trkpt><trkpt lat="42.347557609459564" lon="13.569799570109614"><ele>1121.0</ele><time>2026-04-27T15:38:37Z</time></trkpt><trkpt lat="42.34748066643761" lon="13.569750854537812"><ele>1121.0</ele><time>2026-04-27T15:38:38Z</time></trkpt><trkpt lat="42.347381743112486" lon="13.56973075151234"><ele>1121.0</ele><time>2026-04-27T15:38:39Z</time></trkpt><trkpt lat="42.34727454976477" lon="13.569741895670722"><ele>1121.0</ele><time>2026-04-27T15:38:40Z</time></trkpt><trkpt lat="42.347149818787116" lon="13.56977248762695"><ele>1121.0</ele><time>2026-04-27T15:38:41Z</time></trkpt><trkpt lat="42.34701570175305" lon="13.569825161037063"><ele>1120.5</ele><time>2026-04-27T15:38:42.001Z</time></trkpt><trkpt lat="42.34687026086893" lon="13.569881685271373"><ele>1120.0</ele><time>2026-04-27T15:38:43.001Z</time></trkpt><trkpt lat="42.34673396048138" lon="13.56991139747037"><ele>1119.5</ele><time>2026-04-27T15:38:44.001Z</time></trkpt><trkpt lat="42.34660547088973" lon="13.569917180711206"><ele>1119.0</ele><time>2026-04-27T15:38:45.001Z</time></trkpt><trkpt lat="42.34648060958083" lon="13.56992281131361"><ele>1117.8</ele><time>2026-04-27T15:38:46.001Z</time></trkpt><trkpt lat="42.34637017947867" lon="13.569954025304643"><ele>1116.6000000000001</ele><time>2026-04-27T15:38:47.001Z</time></trkpt><trkpt lat="42.3462772686595" lon="13.570000908306797"><ele>1115.4</ele><time>2026-04-27T15:38:48.001Z</time></trkpt><trkpt lat="42.346206889424344" lon="13.570066668028128"><ele>1114.2</ele><time>2026-04-27T15:38:49.001Z</time></trkpt><trkpt lat="42.34610865944183" lon="13.57014651438173"><ele>1113.0</ele><time>2026-04-27T15:38:50.001Z</time></trkpt><trkpt lat="42.346009243170805" lon="13.57025718695467"><ele>1113.0</ele><time>2026-04-27T15:38:51Z</time></trkpt><trkpt lat="42.345913747196555" lon="13.570357442414991"><ele>1113.0</ele><time>2026-04-27T15:38:52Z</time></trkpt><trkpt lat="42.34583400730557" lon="13.570444991181223"><ele>1113.0</ele><time>2026-04-27T15:38:53Z</time></trkpt><trkpt lat="42.34579172554319" lon="13.570551604429248"><ele>1113.0</ele><time>2026-04-27T15:38:54Z</time></trkpt><trkpt lat="42.34575067635516" lon="13.570699025700915"><ele>1113.0</ele><time>2026-04-27T15:38:55Z</time></trkpt><trkpt lat="42.345744002372726" lon="13.570867706337797"><ele>1113.4</ele><time>2026-04-27T15:38:56Z</time></trkpt><trkpt lat="42.34571965844664" lon="13.57101603902929"><ele>1113.8</ele><time>2026-04-27T15:38:57Z</time></trkpt><trkpt lat="42.345677205217605" lon="13.571133307243857"><ele>1114.2</ele><time>2026-04-27T15:38:58Z</time></trkpt><trkpt lat="42.34558096963649" lon="13.571184455521523"><ele>1114.6</ele><time>2026-04-27T15:38:59Z</time></trkpt><trkpt lat="42.34549064450746" lon="13.571279561581974"><ele>1115.0</ele><time>2026-04-27T15:39:00Z</time></trkpt><trkpt lat="42.345392621022" lon="13.571367218133792"><ele>1113.25</ele><time>2026-04-27T15:39:01Z</time></trkpt><trkpt lat="42.345276794041915" lon="13.571484316120209"><ele>1111.5</ele><time>2026-04-27T15:39:02Z</time></trkpt><trkpt lat="42.34518380682098" lon="13.571611812112824"><ele>1109.75</ele><time>2026-04-27T15:39:03Z</time></trkpt><trkpt lat="42.345122306601205" lon="13.57173721778441"><ele>1108.0</ele><time>2026-04-27T15:39:04Z</time></trkpt><trkpt lat="42.34508144443088" lon="13.571904952553131"><ele>1108.0</ele><time>2026-04-27T15:39:05Z</time></trkpt><trkpt lat="42.345018004340275" lon="13.572083603816534"><ele>1108.0</ele><time>2026-04-27T15:39:06Z</time></trkpt><trkpt lat="42.34495755579954" lon="13.572259675788304"><ele>1108.0</ele><time>2026-04-27T15:39:07Z</time></trkpt><trkpt lat="42.34488982001482" lon="13.572393581809017"><ele>1108.0</ele><time>2026-04-27T15:39:08Z</time></trkpt><trkpt lat="42.34481313989626" lon="13.572521190924089"><ele>1107.3333333333333</ele><time>2026-04-27T15:39:09Z</time></trkpt><trkpt lat="42.34471261602546" lon="13.572656018192841"><ele>1106.6666666666667</ele><time>2026-04-27T15:39:10Z</time></trkpt><trkpt lat="42.34459430845822" lon="13.572800036105292"><ele>1106.0</ele><time>2026-04-27T15:39:11Z</time></trkpt><trkpt lat="42.344462904489326" lon="13.57295753115853"><ele>1106.0</ele><time>2026-04-27T15:39:12Z</time></trkpt><trkpt lat="42.34431717915378" lon="13.573128570203734"><ele>1106.0</ele><time>2026-04-27T15:39:13Z</time></trkpt><trkpt lat="42.34417441942146" lon="13.573297836589965"><ele>1106.0</ele><time>2026-04-27T15:39:14Z</time></trkpt><trkpt lat="42.3440584903892" lon="13.573464046199343"><ele>1106.0</ele><time>2026-04-27T15:39:15Z</time></trkpt><trkpt lat="42.34392368518917" lon="13.573582255284682"><ele>1106.0</ele><time>2026-04-27T15:39:16Z</time></trkpt><trkpt lat="42.34380067302974" lon="13.573725772275443"><ele>1106.0</ele><time>2026-04-27T15:39:17Z</time></trkpt><trkpt lat="42.343674436759876" lon="13.573898216478261"><ele>1104.3333333333335</ele><time>2026-04-27T15:39:18Z</time></trkpt><trkpt lat="42.34356064414633" lon="13.574066926926532"><ele>1102.6666666666667</ele><time>2026-04-27T15:39:19Z</time></trkpt><trkpt lat="42.343448522628144" lon="13.574257474497877"><ele>1101.0</ele><time>2026-04-27T15:39:20Z</time></trkpt><trkpt lat="42.34334630157371" lon="13.574460715615748"><ele>1101.25</ele><time>2026-04-27T15:39:21Z</time></trkpt><trkpt lat="42.34324312683552" lon="13.574605201594562"><ele>1101.5</ele><time>2026-04-27T15:39:22Z</time></trkpt><trkpt lat="42.34312955514695" lon="13.574728756247316"><ele>1101.75</ele><time>2026-04-27T15:39:23Z</time></trkpt><trkpt lat="42.34301329374805" lon="13.574854249696601"><ele>1102.0</ele><time>2026-04-27T15:39:24Z</time></trkpt><trkpt lat="42.34288915148164" lon="13.57496568644125"><ele>1102.0</ele><time>2026-04-27T15:39:25Z</time></trkpt><trkpt lat="42.34276908044745" lon="13.575072105621492"><ele>1102.0</ele><time>2026-04-27T15:39:26Z</time></trkpt><trkpt lat="42.342661844090834" lon="13.575193242921168"><ele>1102.0</ele><time>2026-04-27T15:39:27Z</time></trkpt><trkpt lat="42.34256539298599" lon="13.575339091930756"><ele>1102.0</ele><time>2026-04-27T15:39:28Z</time></trkpt><trkpt lat="42.342452283386216" lon="13.57551655650446"><ele>1102.3333333333333</ele><time>2026-04-27T15:39:29Z</time></trkpt><trkpt lat="42.34233162607399" lon="13.575703298111122"><ele>1102.6666666666667</ele><time>2026-04-27T15:39:30Z</time></trkpt><trkpt lat="42.34220593957794" lon="13.575893358703196"><ele>1103.0</ele><time>2026-04-27T15:39:31Z</time></trkpt><trkpt lat="42.342075350179066" lon="13.576085017657112"><ele>1101.3333333333335</ele><time>2026-04-27T15:39:32Z</time></trkpt><trkpt lat="42.34193929248568" lon="13.576284182104532"><ele>1099.6666666666667</ele><time>2026-04-27T15:39:33Z</time></trkpt><trkpt lat="42.34180570955625" lon="13.576482596146867"><ele>1098.0</ele><time>2026-04-27T15:39:34Z</time></trkpt><trkpt lat="42.34166929460273" lon="13.576685216486116"><ele>1098.0</ele><time>2026-04-27T15:39:35Z</time></trkpt><trkpt lat="42.34152830510914" lon="13.576894158395188"><ele>1098.0</ele><time>2026-04-27T15:39:36Z</time></trkpt><trkpt lat="42.34138416672849" lon="13.577105244624528"><ele>1098.0</ele><time>2026-04-27T15:39:37Z</time></trkpt><trkpt lat="42.341227894232475" lon="13.577321456612843"><ele>1097.3333333333333</ele><time>2026-04-27T15:39:38Z</time></trkpt><trkpt lat="42.34108136953506" lon="13.577528459425153"><ele>1096.6666666666665</ele><time>2026-04-27T15:39:39Z</time></trkpt><trkpt lat="42.34092720505856" lon="13.577748949527631"><ele>1096.0</ele><time>2026-04-27T15:39:40Z</time></trkpt><trkpt lat="42.34078268494741" lon="13.57795095584261"><ele>1097.3333333333333</ele><time>2026-04-27T15:39:41Z</time></trkpt><trkpt lat="42.34063226980477" lon="13.578157359566404"><ele>1098.6666666666667</ele><time>2026-04-27T15:39:42Z</time></trkpt><trkpt lat="42.34048600879842" lon="13.578361409939166"><ele>1100.0</ele><time>2026-04-27T15:39:43Z</time></trkpt><trkpt lat="42.34034257055019" lon="13.578559809787684"><ele>1097.3333333333335</ele><time>2026-04-27T15:39:44Z</time></trkpt><trkpt lat="42.34020644316642" lon="13.57874653375758"><ele>1094.6666666666667</ele><time>2026-04-27T15:39:45Z</time></trkpt><trkpt lat="42.34007405849291" lon="13.578921561654438"><ele>1092.0</ele><time>2026-04-27T15:39:46Z</time></trkpt><trkpt lat="42.33994875089137" lon="13.579087204072811"><ele>1092.0</ele><time>2026-04-27T15:39:47Z</time></trkpt><trkpt lat="42.33981856326389" lon="13.57927543893425"><ele>1092.0</ele><time>2026-04-27T15:39:48Z</time></trkpt><trkpt lat="42.339687461648495" lon="13.579476026152342"><ele>1092.0</ele><time>2026-04-27T15:39:49Z</time></trkpt><trkpt lat="42.33956573202918" lon="13.57967645438262"><ele>1090.3333333333333</ele><time>2026-04-27T15:39:50Z</time></trkpt><trkpt lat="42.33946024129837" lon="13.579857041066722"><ele>1088.6666666666665</ele><time>2026-04-27T15:39:51Z</time></trkpt><trkpt lat="42.33935588588123" lon="13.580028297798316"><ele>1087.0</ele><time>2026-04-27T15:39:52Z</time></trkpt><trkpt lat="42.339255715083276" lon="13.58017410604421"><ele>1087.0</ele><time>2026-04-27T15:39:53Z</time></trkpt><trkpt lat="42.33915454611209" lon="13.58028700777155"><ele>1087.0</ele><time>2026-04-27T15:39:54Z</time></trkpt><trkpt lat="42.33904442821527" lon="13.580388776758662"><ele>1087.0</ele><time>2026-04-27T15:39:55Z</time></trkpt><trkpt lat="42.33893243954957" lon="13.580497371707825"><ele>1087.0</ele><time>2026-04-27T15:39:56Z</time></trkpt><trkpt lat="42.3388270302928" lon="13.580599473718186"><ele>1087.4</ele><time>2026-04-27T15:39:57Z</time></trkpt><trkpt lat="42.338726983834555" lon="13.580693879960847"><ele>1087.8000000000002</ele><time>2026-04-27T15:39:58Z</time></trkpt><trkpt lat="42.33864353546956" lon="13.580752258265827"><ele>1088.2</ele><time>2026-04-27T15:39:59Z</time></trkpt><trkpt lat="42.33855906512781" lon="13.580787860250762"><ele>1088.6000000000001</ele><time>2026-04-27T15:40:00Z</time></trkpt><trkpt lat="42.33848896973207" lon="13.580762920681131"><ele>1089.0</ele><time>2026-04-27T15:40:01Z</time></trkpt><trkpt lat="42.338415264442126" lon="13.58071568542418"><ele>1089.0</ele><time>2026-04-27T15:40:02Z</time></trkpt><trkpt lat="42.33834232077863" lon="13.580652062389307"><ele>1089.0</ele><time>2026-04-27T15:40:03Z</time></trkpt><trkpt lat="42.338269739167" lon="13.580593750795252"><ele>1089.0</ele><time>2026-04-27T15:40:05Z</time></trkpt><trkpt lat="42.33815528606349" lon="13.580801675393522"><ele>1089.0</ele><time>2026-04-27T15:40:07Z</time></trkpt><trkpt lat="42.3381225557936" lon="13.580900910323829"><ele>1089.0</ele><time>2026-04-27T15:40:08Z</time></trkpt><trkpt lat="42.338072516908476" lon="13.581010187425981"><ele>1090.5</ele><time>2026-04-27T15:40:09Z</time></trkpt><trkpt lat="42.3380206332809" lon="13.581113197682742"><ele>1092.0</ele><time>2026-04-27T15:40:10Z</time></trkpt><trkpt lat="42.33796258298342" lon="13.581212685917757"><ele>1093.5</ele><time>2026-04-27T15:40:11Z</time></trkpt><trkpt lat="42.33792048643388" lon="13.581277460836315"><ele>1095.0</ele><time>2026-04-27T15:40:12Z</time></trkpt><trkpt lat="42.33786670138821" lon="13.581340131822447"><ele>1096.5</ele><time>2026-04-27T15:40:13Z</time></trkpt><trkpt lat="42.337783001890735" lon="13.581413765017398"><ele>1098.0</ele><time>2026-04-27T15:40:13.999Z</time></trkpt><trkpt lat="42.337695785550316" lon="13.581487441854266"><ele>1098.0</ele><time>2026-04-27T15:40:14.999Z</time></trkpt><trkpt lat="42.33762252289025" lon="13.58154951483791"><ele>1098.0</ele><time>2026-04-27T15:40:15.999Z</time></trkpt><trkpt lat="42.3375666100455" lon="13.581603906447107"><ele>1098.0</ele><time>2026-04-27T15:40:16.999Z</time></trkpt><trkpt lat="42.337521893915756" lon="13.581686657909167"><ele>1098.0</ele><time>2026-04-27T15:40:18.999Z</time></trkpt><trkpt lat="42.33749960968535" lon="13.581772159149653"><ele>1098.0</ele><time>2026-04-27T15:40:19.999Z</time></trkpt><trkpt lat="42.33749323737815" lon="13.581880203969042"><ele>1098.0</ele><time>2026-04-27T15:40:20.999Z</time></trkpt><trkpt lat="42.337498518302525" lon="13.582008026788019"><ele>1098.75</ele><time>2026-04-27T15:40:21.999Z</time></trkpt><trkpt lat="42.337513466260226" lon="13.582145215423395"><ele>1099.5</ele><time>2026-04-27T15:40:22.999Z</time></trkpt><trkpt lat="42.33753560351089" lon="13.582298937445712"><ele>1100.25</ele><time>2026-04-27T15:40:23.999Z</time></trkpt><trkpt lat="42.33756272024725" lon="13.582460569526136"><ele>1101.0</ele><time>2026-04-27T15:40:24.999Z</time></trkpt><trkpt lat="42.3375870320238" lon="13.582614662435686"><ele>1101.0</ele><time>2026-04-27T15:40:25.999Z</time></trkpt><trkpt lat="42.33760804760596" lon="13.582742627744818"><ele>1101.0</ele><time>2026-04-27T15:40:26.999Z</time></trkpt><trkpt lat="42.337626550492686" lon="13.582840167295142"><ele>1101.0</ele><time>2026-04-27T15:40:27.999Z</time></trkpt><trkpt lat="42.337642603375386" lon="13.582980505826418"><ele>1101.0</ele><time>2026-04-27T15:40:29.999Z</time></trkpt><trkpt lat="42.33761967970533" lon="13.583062771418046"><ele>1101.0</ele><time>2026-04-27T15:40:33.999Z</time></trkpt><trkpt lat="42.33762667889672" lon="13.583166495399993"><ele>1101.0</ele><time>2026-04-27T15:40:38.999Z</time></trkpt><trkpt lat="42.337523586698154" lon="13.583203168443"><ele>1100.8333333333333</ele><time>2026-04-27T15:40:41.999Z</time></trkpt><trkpt lat="42.337479731006404" lon="13.583268256786967"><ele>1100.6666666666667</ele><time>2026-04-27T15:40:42.999Z</time></trkpt><trkpt lat="42.337393056658215" lon="13.583328580488011"><ele>1100.5</ele><time>2026-04-27T15:40:44.999Z</time></trkpt><trkpt lat="42.33733182583464" lon="13.583368723761872"><ele>1100.3333333333335</ele><time>2026-04-27T15:40:45.999Z</time></trkpt><trkpt lat="42.33727429929741" lon="13.583407590541055"><ele>1100.1666666666667</ele><time>2026-04-27T15:40:46.999Z</time></trkpt><trkpt lat="42.33719472512352" lon="13.583487929076439"><ele>1100.0</ele><time>2026-04-27T15:40:49Z</time></trkpt><trkpt lat="42.33713683653605" lon="13.58355169168498"><ele>1100.1666666666667</ele><time>2026-04-27T15:40:51Z</time></trkpt><trkpt lat="42.33721395037284" lon="13.583629141125234"><ele>1100.3333333333335</ele><time>2026-04-27T15:40:54Z</time></trkpt><trkpt lat="42.33725763803055" lon="13.583699893999258"><ele>1100.5</ele><time>2026-04-27T15:40:56Z</time></trkpt><trkpt lat="42.33721140991854" lon="13.583808316828081"><ele>1100.6666666666667</ele><time>2026-04-27T15:40:58Z</time></trkpt><trkpt lat="42.337180228745815" lon="13.58388728482066"><ele>1100.8333333333333</ele><time>2026-04-27T15:40:59Z</time></trkpt><trkpt lat="42.33713338578013" lon="13.584013629286888"><ele>1101.0</ele><time>2026-04-27T15:41:01Z</time></trkpt><trkpt lat="42.33706988004572" lon="13.58411561628233"><ele>1098.3333333333333</ele><time>2026-04-27T15:41:03Z</time></trkpt><trkpt lat="42.337014237520755" lon="13.584173684952114"><ele>1095.6666666666667</ele><time>2026-04-27T15:41:05Z</time></trkpt><trkpt lat="42.33696128236486" lon="13.584228073241423"><ele>1093.0</ele><time>2026-04-27T15:41:07Z</time></trkpt><trkpt lat="42.33691159269507" lon="13.584332942719604"><ele>1090.3333333333335</ele><time>2026-04-27T15:41:10Z</time></trkpt><trkpt lat="42.33683236971612" lon="13.584442495457068"><ele>1087.6666666666667</ele><time>2026-04-27T15:41:12Z</time></trkpt><trkpt lat="42.336771657131614" lon="13.584506837247453"><ele>1085.0</ele><time>2026-04-27T15:41:14Z</time></trkpt><trkpt lat="42.33671769999746" lon="13.584566017560832"><ele>1084.5</ele><time>2026-04-27T15:41:16Z</time></trkpt><trkpt lat="42.3366715802117" lon="13.584687140385403"><ele>1084.0</ele><time>2026-04-27T15:41:19Z</time></trkpt><trkpt lat="42.33661223849936" lon="13.584719511781607"><ele>1083.5</ele><time>2026-04-27T15:41:21Z</time></trkpt><trkpt lat="42.33656006575176" lon="13.584807248222083"><ele>1083.0</ele><time>2026-04-27T15:41:24Z</time></trkpt><trkpt lat="42.33653092537209" lon="13.584916840945796"><ele>1082.5</ele><time>2026-04-27T15:41:26Z</time></trkpt><trkpt lat="42.336490616839534" lon="13.5850081334885"><ele>1082.0</ele><time>2026-04-27T15:41:27Z</time></trkpt><trkpt lat="42.33644500188777" lon="13.585108701378413"><ele>1082.0</ele><time>2026-04-27T15:41:28Z</time></trkpt><trkpt lat="42.336412361960264" lon="13.585196811299877"><ele>1082.0</ele><time>2026-04-27T15:41:29Z</time></trkpt><trkpt lat="42.336387854151155" lon="13.585277551126156"><ele>1082.0</ele><time>2026-04-27T15:41:31Z</time></trkpt><trkpt lat="42.336322187540304" lon="13.585349558719624"><ele>1082.0</ele><time>2026-04-27T15:41:35Z</time></trkpt><trkpt lat="42.336284584358246" lon="13.58545647149285"><ele>1082.0</ele><time>2026-04-27T15:41:39Z</time></trkpt><trkpt lat="42.33625755924524" lon="13.585571173038423"><ele>1082.0</ele><time>2026-04-27T15:41:47.999Z</time></trkpt><trkpt lat="42.336252142233654" lon="13.585677063411984"><ele>1079.0</ele><time>2026-04-27T15:41:51.999Z</time></trkpt><trkpt lat="42.33621804463838" lon="13.585769284002634"><ele>1076.0</ele><time>2026-04-27T15:41:55.999Z</time></trkpt><trkpt lat="42.3361274698107" lon="13.585831382908442"><ele>1073.0</ele><time>2026-04-27T15:41:57.999Z</time></trkpt><trkpt lat="42.336049086787376" lon="13.585908741777688"><ele>1070.0</ele><time>2026-04-27T15:41:59.999Z</time></trkpt><trkpt lat="42.33595177262413" lon="13.585997314968095"><ele>1067.0</ele><time>2026-04-27T15:42:01.999Z</time></trkpt><trkpt lat="42.33586263564371" lon="13.586048073530696"><ele>1067.0</ele><time>2026-04-27T15:42:02.999Z</time></trkpt><trkpt lat="42.3357959455762" lon="13.58610280230414"><ele>1067.0</ele><time>2026-04-27T15:42:03.999Z</time></trkpt><trkpt lat="42.33571686308302" lon="13.58618184268398"><ele>1067.0</ele><time>2026-04-27T15:42:04.999Z</time></trkpt><trkpt lat="42.335660520888204" lon="13.586251213304141"><ele>1067.0</ele><time>2026-04-27T15:42:05.999Z</time></trkpt><trkpt lat="42.335591847188425" lon="13.586301717810185"><ele>1067.0</ele><time>2026-04-27T15:42:06.999Z</time></trkpt><trkpt lat="42.33552852339761" lon="13.586316537864354"><ele>1067.0</ele><time>2026-04-27T15:42:07.999Z</time></trkpt><trkpt lat="42.335463677756934" lon="13.586352864860315"><ele>1065.4</ele><time>2026-04-27T15:42:08.999Z</time></trkpt><trkpt lat="42.335392678698526" lon="13.586398671920024"><ele>1063.8000000000002</ele><time>2026-04-27T15:42:09.999Z</time></trkpt><trkpt lat="42.335315647791354" lon="13.586446549948112"><ele>1062.2</ele><time>2026-04-27T15:42:10.999Z</time></trkpt><trkpt lat="42.33520830170755" lon="13.586504756867718"><ele>1060.6000000000001</ele><time>2026-04-27T15:42:11.999Z</time></trkpt><trkpt lat="42.33512689167538" lon="13.586544060441588"><ele>1059.0</ele><time>2026-04-27T15:42:12.999Z</time></trkpt><trkpt lat="42.33504192259083" lon="13.586593185052013"><ele>1059.0</ele><time>2026-04-27T15:42:13.999Z</time></trkpt><trkpt lat="42.33495146506915" lon="13.586650340998913"><ele>1059.0</ele><time>2026-04-27T15:42:14.999Z</time></trkpt><trkpt lat="42.33486617892459" lon="13.586700440736953"><ele>1059.0</ele><time>2026-04-27T15:42:15.999Z</time></trkpt><trkpt lat="42.33475071751402" lon="13.586749244299705"><ele>1059.0</ele><time>2026-04-27T15:42:17.999Z</time></trkpt><trkpt lat="42.334631919189846" lon="13.586759210090587"><ele>1059.0</ele><time>2026-04-27T15:42:19.999Z</time></trkpt><trkpt lat="42.33454334709582" lon="13.586736310098102"><ele>1056.6666666666667</ele><time>2026-04-27T15:42:20.999Z</time></trkpt><trkpt lat="42.33445254943388" lon="13.586729838207361"><ele>1054.3333333333333</ele><time>2026-04-27T15:42:21.999Z</time></trkpt><trkpt lat="42.33435034855815" lon="13.586743453375158"><ele>1052.0</ele><time>2026-04-27T15:42:22.999Z</time></trkpt><trkpt lat="42.334265728666814" lon="13.58677436030276"><ele>1049.6666666666665</ele><time>2026-04-27T15:42:23.999Z</time></trkpt><trkpt lat="42.334191897164594" lon="13.586801697511083"><ele>1047.3333333333333</ele><time>2026-04-27T15:42:24.999Z</time></trkpt><trkpt lat="42.334120978928134" lon="13.586801032289411"><ele>1045.0</ele><time>2026-04-27T15:42:25.999Z</time></trkpt><trkpt lat="42.33400761278682" lon="13.586767525194817"><ele>1045.0</ele><time>2026-04-27T15:42:27.999Z</time></trkpt><trkpt lat="42.33394454475714" lon="13.58675874771761"><ele>1045.0</ele><time>2026-04-27T15:42:28.999Z</time></trkpt><trkpt lat="42.33387983532047" lon="13.58674571180158"><ele>1045.0</ele><time>2026-04-27T15:42:29.999Z</time></trkpt><trkpt lat="42.33376161742627" lon="13.586778468708934"><ele>1045.0</ele><time>2026-04-27T15:42:31.999Z</time></trkpt><trkpt lat="42.33368902836693" lon="13.586771023009442"><ele>1045.0</ele><time>2026-04-27T15:42:32.999Z</time></trkpt><trkpt lat="42.33359623305186" lon="13.586756933034287"><ele>1045.0</ele><time>2026-04-27T15:42:33.999Z</time></trkpt><trkpt lat="42.33350281790509" lon="13.586735212253393"><ele>1043.1666666666665</ele><time>2026-04-27T15:42:34.999Z</time></trkpt><trkpt lat="42.33343372195613" lon="13.586736626880676"><ele>1041.3333333333333</ele><time>2026-04-27T15:42:35.999Z</time></trkpt><trkpt lat="42.33335929988775" lon="13.586746236319462"><ele>1039.5</ele><time>2026-04-27T15:42:36.999Z</time></trkpt><trkpt lat="42.3332722136279" lon="13.58677314624709"><ele>1037.6666666666667</ele><time>2026-04-27T15:42:37.999Z</time></trkpt><trkpt lat="42.33314772595058" lon="13.58685655545134"><ele>1035.8333333333335</ele><time>2026-04-27T15:42:39.999Z</time></trkpt><trkpt lat="42.33307738914498" lon="13.586874398975255"><ele>1034.0</ele><time>2026-04-27T15:42:40.999Z</time></trkpt><trkpt lat="42.333010853678914" lon="13.586889346761312"><ele>1032.857142857143</ele><time>2026-04-27T15:42:41.999Z</time></trkpt><trkpt lat="42.332946509631604" lon="13.586871693673572"><ele>1031.7142857142858</ele><time>2026-04-27T15:42:43.999Z</time></trkpt><trkpt lat="42.33289594552378" lon="13.586929046115271"><ele>1030.5714285714287</ele><time>2026-04-27T15:42:46.999Z</time></trkpt><trkpt lat="42.33283249134848" lon="13.586955909487822"><ele>1029.4285714285716</ele><time>2026-04-27T15:42:48.999Z</time></trkpt><trkpt lat="42.332754324566004" lon="13.587000258542657"><ele>1028.2857142857142</ele><time>2026-04-27T15:42:50.999Z</time></trkpt><trkpt lat="42.33268052251199" lon="13.587023269538406"><ele>1027.1428571428573</ele><time>2026-04-27T15:42:54Z</time></trkpt><trkpt lat="42.3326080861763" lon="13.58707297301792"><ele>1026.0</ele><time>2026-04-27T15:43:01Z</time></trkpt><trkpt lat="42.33254302036218" lon="13.587047124819238"><ele>1026.0</ele><time>2026-04-27T15:43:34.999Z</time></trkpt><trkpt lat="42.33247304389312" lon="13.587090697771478"><ele>1026.0</ele><time>2026-04-27T15:43:37.999Z</time></trkpt><trkpt lat="42.33241809300835" lon="13.587157985599095"><ele>1026.0</ele><time>2026-04-27T15:43:39.999Z</time></trkpt><trkpt lat="42.332335925316855" lon="13.587233467806096"><ele>1026.0</ele><time>2026-04-27T15:43:41.999Z</time></trkpt><trkpt lat="42.332256924771436" lon="13.587301736412435"><ele>1026.0</ele><time>2026-04-27T15:43:43.999Z</time></trkpt><trkpt lat="42.332164222420694" lon="13.587331812625745"><ele>1026.0</ele><time>2026-04-27T15:43:45.999Z</time></trkpt><trkpt lat="42.33210428404465" lon="13.587360355181502"><ele>1023.6666666666666</ele><time>2026-04-27T15:43:46.999Z</time></trkpt><trkpt lat="42.332034866436786" lon="13.58741452939816"><ele>1021.3333333333333</ele><time>2026-04-27T15:43:48.999Z</time></trkpt><trkpt lat="42.33199032050986" lon="13.587344562171735"><ele>1019.0</ele><time>2026-04-27T15:43:50.999Z</time></trkpt><trkpt lat="42.3319497475843" lon="13.587170101854428"><ele>1016.6666666666666</ele><time>2026-04-27T15:43:52.999Z</time></trkpt><trkpt lat="42.331934425892214" lon="13.587083465361102"><ele>1014.3333333333333</ele><time>2026-04-27T15:43:53.999Z</time></trkpt><trkpt lat="42.33188138789669" lon="13.587015150820985"><ele>1012.0</ele><time>2026-04-27T15:43:55.999Z</time></trkpt><trkpt lat="42.33180773840093" lon="13.587060383021488"><ele>1012.0</ele><time>2026-04-27T15:43:57.999Z</time></trkpt><trkpt lat="42.33177867842542" lon="13.587136613378071"><ele>1012.0</ele><time>2026-04-27T15:43:58.999Z</time></trkpt><trkpt lat="42.33174721377066" lon="13.587237501041233"><ele>1012.0</ele><time>2026-04-27T15:43:59.999Z</time></trkpt><trkpt lat="42.33170123673182" lon="13.587349316384255"><ele>1012.0</ele><time>2026-04-27T15:44:00.999Z</time></trkpt><trkpt lat="42.331639690604504" lon="13.587472861075618"><ele>1012.0</ele><time>2026-04-27T15:44:01.999Z</time></trkpt><trkpt lat="42.33157344662095" lon="13.587612338122266"><ele>1012.0</ele><time>2026-04-27T15:44:02.999Z</time></trkpt><trkpt lat="42.331510070750596" lon="13.587749033788517"><ele>1012.0</ele><time>2026-04-27T15:44:03.999Z</time></trkpt><trkpt lat="42.331452338801796" lon="13.587874667172658"><ele>1012.0</ele><time>2026-04-27T15:44:04.999Z</time></trkpt><trkpt lat="42.33140184743531" lon="13.587988871499721"><ele>1012.0</ele><time>2026-04-27T15:44:05.999Z</time></trkpt><trkpt lat="42.33135440713595" lon="13.58810020889533"><ele>1012.0</ele><time>2026-04-27T15:44:06.999Z</time></trkpt><trkpt lat="42.33130044866708" lon="13.588226033891791"><ele>1008.75</ele><time>2026-04-27T15:44:07.999Z</time></trkpt><trkpt lat="42.33124322870336" lon="13.588363167820594"><ele>1005.5</ele><time>2026-04-27T15:44:08.999Z</time></trkpt><trkpt lat="42.33118960308559" lon="13.588512757121496"><ele>1002.25</ele><time>2026-04-27T15:44:09.999Z</time></trkpt><trkpt lat="42.331142643603734" lon="13.58867679789011"><ele>999.0</ele><time>2026-04-27T15:44:10.999Z</time></trkpt><trkpt lat="42.33109907533629" lon="13.58885920488305"><ele>999.0</ele><time>2026-04-27T15:44:11.999Z</time></trkpt><trkpt lat="42.33103134849175" lon="13.589032930980693"><ele>999.0</ele><time>2026-04-27T15:44:12.999Z</time></trkpt><trkpt lat="42.33098322177036" lon="13.589199947452952"><ele>999.0</ele><time>2026-04-27T15:44:13.999Z</time></trkpt><trkpt lat="42.3309507831959" lon="13.589369387063446"><ele>999.0</ele><time>2026-04-27T15:44:14.999Z</time></trkpt><trkpt lat="42.33089676336828" lon="13.58952323217894"><ele>999.25</ele><time>2026-04-27T15:44:15.999Z</time></trkpt><trkpt lat="42.3308311264401" lon="13.589664100332191"><ele>999.5</ele><time>2026-04-27T15:44:16.999Z</time></trkpt><trkpt lat="42.33075101319883" lon="13.589783674408928"><ele>999.75</ele><time>2026-04-27T15:44:17.999Z</time></trkpt><trkpt lat="42.330660630618425" lon="13.589882476036875"><ele>1000.0</ele><time>2026-04-27T15:44:18.999Z</time></trkpt><trkpt lat="42.33055440865305" lon="13.589951461864306"><ele>998.0</ele><time>2026-04-27T15:44:19.999Z</time></trkpt><trkpt lat="42.33044397093608" lon="13.590011841716874"><ele>996.0</ele><time>2026-04-27T15:44:20.999Z</time></trkpt><trkpt lat="42.330332246382504" lon="13.590067062113064"><ele>994.0</ele><time>2026-04-27T15:44:21.999Z</time></trkpt><trkpt lat="42.33021763430452" lon="13.59011242440528"><ele>992.0</ele><time>2026-04-27T15:44:22.999Z</time></trkpt><trkpt lat="42.33011143847713" lon="13.590143589579156"><ele>992.0</ele><time>2026-04-27T15:44:23.999Z</time></trkpt><trkpt lat="42.33002097952448" lon="13.59016667542641"><ele>992.0</ele><time>2026-04-27T15:44:24.999Z</time></trkpt><trkpt lat="42.329942778602366" lon="13.590204782386428"><ele>992.0</ele><time>2026-04-27T15:44:25.999Z</time></trkpt><trkpt lat="42.32985894577635" lon="13.590201085894861"><ele>992.0</ele><time>2026-04-27T15:44:26.999Z</time></trkpt><trkpt lat="42.32979313175562" lon="13.590382555367526"><ele>992.0</ele><time>2026-04-27T15:44:27.999Z</time></trkpt><trkpt lat="42.32970372793685" lon="13.59046637864175"><ele>991.1666666666667</ele><time>2026-04-27T15:44:28.999Z</time></trkpt><trkpt lat="42.329644121257395" lon="13.590557194793172"><ele>990.3333333333334</ele><time>2026-04-27T15:44:29.999Z</time></trkpt><trkpt lat="42.32960703128322" lon="13.5906267480714"><ele>989.5</ele><time>2026-04-27T15:44:31.999Z</time></trkpt><trkpt lat="42.32971483971446" lon="13.59068689924257"><ele>988.6666666666667</ele><time>2026-04-27T15:44:34.999Z</time></trkpt><trkpt lat="42.329790562700225" lon="13.590720854844575"><ele>987.8333333333334</ele><time>2026-04-27T15:44:35.999Z</time></trkpt><trkpt lat="42.32987320681025" lon="13.590751152290945"><ele>987.0</ele><time>2026-04-27T15:44:36.999Z</time></trkpt><trkpt lat="42.329964146177886" lon="13.59081332741534"><ele>989.5</ele><time>2026-04-27T15:44:37.999Z</time></trkpt><trkpt lat="42.3300623597595" lon="13.590885480615642"><ele>992.0</ele><time>2026-04-27T15:44:38.999Z</time></trkpt><trkpt lat="42.330158975903096" lon="13.590953883191574"><ele>994.5</ele><time>2026-04-27T15:44:39.999Z</time></trkpt><trkpt lat="42.33026208878019" lon="13.591026205812515"><ele>997.0</ele><time>2026-04-27T15:44:40.999Z</time></trkpt><trkpt lat="42.33034740328752" lon="13.59112638364905"><ele>998.75</ele><time>2026-04-27T15:44:41.999Z</time></trkpt><trkpt lat="42.33043637253491" lon="13.591217183597383"><ele>1000.5</ele><time>2026-04-27T15:44:42.999Z</time></trkpt><trkpt lat="42.33053986574689" lon="13.591323108639502"><ele>1002.25</ele><time>2026-04-27T15:44:43.999Z</time></trkpt><trkpt lat="42.3306479532711" lon="13.591433735944072"><ele>1004.0</ele><time>2026-04-27T15:44:44.999Z</time></trkpt><trkpt lat="42.33075892149449" lon="13.591547311654162"><ele>1006.25</ele><time>2026-04-27T15:44:45.999Z</time></trkpt><trkpt lat="42.330866275997984" lon="13.5916584299111"><ele>1008.5</ele><time>2026-04-27T15:44:46.999Z</time></trkpt><trkpt lat="42.33097302855299" lon="13.59177634014"><ele>1010.75</ele><time>2026-04-27T15:44:47.999Z</time></trkpt><trkpt lat="42.33106128459333" lon="13.59190648131697"><ele>1013.0</ele><time>2026-04-27T15:44:48.999Z</time></trkpt><trkpt lat="42.33115556317186" lon="13.592049496373576"><ele>1014.5</ele><time>2026-04-27T15:44:49.999Z</time></trkpt><trkpt lat="42.33124669665025" lon="13.5921935638363"><ele>1016.0</ele><time>2026-04-27T15:44:50.999Z</time></trkpt><trkpt lat="42.33132608591718" lon="13.59235373061077"><ele>1017.5</ele><time>2026-04-27T15:44:51.999Z</time></trkpt><trkpt lat="42.331408385335436" lon="13.592514154942238"><ele>1019.0</ele><time>2026-04-27T15:44:52.999Z</time></trkpt><trkpt lat="42.33149526932162" lon="13.592682029826543"><ele>1022.5</ele><time>2026-04-27T15:44:53.999Z</time></trkpt><trkpt lat="42.331579480422754" lon="13.592846532725051"><ele>1026.0</ele><time>2026-04-27T15:44:54.999Z</time></trkpt><trkpt lat="42.33166497565554" lon="13.593014154051927"><ele>1029.5</ele><time>2026-04-27T15:44:55.999Z</time></trkpt><trkpt lat="42.33175062424286" lon="13.593182076080323"><ele>1033.0</ele><time>2026-04-27T15:44:56.999Z</time></trkpt><trkpt lat="42.33183584609648" lon="13.593344374652338"><ele>1033.0</ele><time>2026-04-27T15:44:57.999Z</time></trkpt><trkpt lat="42.331911929245926" lon="13.593494283003455"><ele>1033.0</ele><time>2026-04-27T15:44:58.999Z</time></trkpt><trkpt lat="42.33197993230945" lon="13.593630235293881"><ele>1033.0</ele><time>2026-04-27T15:44:59.999Z</time></trkpt><trkpt lat="42.3320605564553" lon="13.593741193480243"><ele>1033.0</ele><time>2026-04-27T15:45:00.999Z</time></trkpt><trkpt lat="42.332103351059914" lon="13.593840962534122"><ele>1036.0</ele><time>2026-04-27T15:45:01.999Z</time></trkpt><trkpt lat="42.33212330324671" lon="13.593933891131611"><ele>1039.0</ele><time>2026-04-27T15:45:04.999Z</time></trkpt><trkpt lat="42.331923952292435" lon="13.594218975575423"><ele>1042.0</ele><time>2026-04-27T15:45:06.999Z</time></trkpt><trkpt lat="42.33187172069378" lon="13.594355638597305"><ele>1042.0</ele><time>2026-04-27T15:45:07.999Z</time></trkpt><trkpt lat="42.33179613553061" lon="13.594476461658136"><ele>1042.0</ele><time>2026-04-27T15:45:08.999Z</time></trkpt><trkpt lat="42.33171685332481" lon="13.594591373472184"><ele>1042.0</ele><time>2026-04-27T15:45:09.999Z</time></trkpt><trkpt lat="42.33165094058931" lon="13.594701391504271"><ele>1042.0</ele><time>2026-04-27T15:45:10.999Z</time></trkpt><trkpt lat="42.33161662733847" lon="13.594797196333221"><ele>1042.0</ele><time>2026-04-27T15:45:11.999Z</time></trkpt><trkpt lat="42.33163684072012" lon="13.59490989292665"><ele>1041.2</ele><time>2026-04-27T15:45:13.999Z</time></trkpt><trkpt lat="42.3317271835715" lon="13.5949643238063"><ele>1040.4</ele><time>2026-04-27T15:45:15.999Z</time></trkpt><trkpt lat="42.33179119020108" lon="13.594960601474591"><ele>1039.6</ele><time>2026-04-27T15:45:16.999Z</time></trkpt><trkpt lat="42.33186545037012" lon="13.595060963162048"><ele>1038.8</ele><time>2026-04-27T15:45:18.999Z</time></trkpt><trkpt lat="42.331889906562175" lon="13.595191345144322"><ele>1038.0</ele><time>2026-04-27T15:45:19.999Z</time></trkpt><trkpt lat="42.33190682197112" lon="13.595339913816188"><ele>1037.5</ele><time>2026-04-27T15:45:20.999Z</time></trkpt><trkpt lat="42.33191382591935" lon="13.595501849020467"><ele>1037.0</ele><time>2026-04-27T15:45:21.999Z</time></trkpt><trkpt lat="42.33192132978084" lon="13.595637214468654"><ele>1036.5</ele><time>2026-04-27T15:45:22.999Z</time></trkpt><trkpt lat="42.331932535345054" lon="13.595742416777227"><ele>1036.0</ele><time>2026-04-27T15:45:23.999Z</time></trkpt><trkpt lat="42.33191871551175" lon="13.595826329743083"><ele>1035.5</ele><time>2026-04-27T15:45:24.999Z</time></trkpt><trkpt lat="42.33186646256413" lon="13.595890378954735"><ele>1035.0</ele><time>2026-04-27T15:45:25.999Z</time></trkpt><trkpt lat="42.33179406471795" lon="13.59597941453329"><ele>1035.0</ele><time>2026-04-27T15:45:26.999Z</time></trkpt><trkpt lat="42.33171372955906" lon="13.596091197102522"><ele>1035.0</ele><time>2026-04-27T15:45:27.999Z</time></trkpt><trkpt lat="42.33165133597199" lon="13.596197845348021"><ele>1035.0</ele><time>2026-04-27T15:45:28.999Z</time></trkpt><trkpt lat="42.33160082220435" lon="13.59626193664188"><ele>1035.0</ele><time>2026-04-27T15:45:29.999Z</time></trkpt><trkpt lat="42.3314690456943" lon="13.596238209051277"><ele>1035.0</ele><time>2026-04-27T15:45:31.999Z</time></trkpt><trkpt lat="42.33139681395021" lon="13.596180194464509"><ele>1034.0</ele><time>2026-04-27T15:45:32.999Z</time></trkpt><trkpt lat="42.33130791064712" lon="13.59614433363304"><ele>1033.0</ele><time>2026-04-27T15:45:33.999Z</time></trkpt><trkpt lat="42.331212219293555" lon="13.596169202517371"><ele>1032.0</ele><time>2026-04-27T15:45:34.999Z</time></trkpt><trkpt lat="42.33109338270705" lon="13.596193852393972"><ele>1031.0</ele><time>2026-04-27T15:45:35.999Z</time></trkpt><trkpt lat="42.33098254460877" lon="13.596246068287945"><ele>1030.0</ele><time>2026-04-27T15:45:36.999Z</time></trkpt><trkpt lat="42.330910279411256" lon="13.596318306883628"><ele>1029.4</ele><time>2026-04-27T15:45:37.999Z</time></trkpt><trkpt lat="42.33085305180043" lon="13.596411803617844"><ele>1028.8</ele><time>2026-04-27T15:45:38.999Z</time></trkpt><trkpt lat="42.33080392166488" lon="13.596531886713338"><ele>1028.2</ele><time>2026-04-27T15:45:39.999Z</time></trkpt><trkpt lat="42.33074604978264" lon="13.596655827669027"><ele>1027.6</ele><time>2026-04-27T15:45:40.999Z</time></trkpt><trkpt lat="42.330697878808294" lon="13.596772005570601"><ele>1027.0</ele><time>2026-04-27T15:45:41.999Z</time></trkpt><trkpt lat="42.33067740206644" lon="13.59690067962992"><ele>1027.2</ele><time>2026-04-27T15:45:42.999Z</time></trkpt><trkpt lat="42.3306688247722" lon="13.597045417446369"><ele>1027.4</ele><time>2026-04-27T15:45:43.999Z</time></trkpt><trkpt lat="42.33066353232497" lon="13.597177538343807"><ele>1027.6</ele><time>2026-04-27T15:45:44.999Z</time></trkpt><trkpt lat="42.33065524292082" lon="13.59731213228278"><ele>1027.8</ele><time>2026-04-27T15:45:45.999Z</time></trkpt><trkpt lat="42.33063042403559" lon="13.597415017423861"><ele>1028.0</ele><time>2026-04-27T15:45:46.999Z</time></trkpt><trkpt lat="42.33057526709695" lon="13.597493842649202"><ele>1027.0</ele><time>2026-04-27T15:45:47.999Z</time></trkpt><trkpt lat="42.330494532034024" lon="13.597557483015658"><ele>1026.0</ele><time>2026-04-27T15:45:48.999Z</time></trkpt><trkpt lat="42.33039261610045" lon="13.59763483502812"><ele>1025.0</ele><time>2026-04-27T15:45:49.999Z</time></trkpt><trkpt lat="42.330299300642686" lon="13.597756402631074"><ele>1024.0</ele><time>2026-04-27T15:45:50.999Z</time></trkpt><trkpt lat="42.330211211491516" lon="13.597891616015321"><ele>1024.0</ele><time>2026-04-27T15:45:51.999Z</time></trkpt><trkpt lat="42.33012844938302" lon="13.597989791417953"><ele>1024.0</ele><time>2026-04-27T15:45:52.999Z</time></trkpt><trkpt lat="42.330045987693" lon="13.598039159783118"><ele>1024.0</ele><time>2026-04-27T15:45:53.999Z</time></trkpt><trkpt lat="42.32994483043243" lon="13.598059030963071"><ele>1024.0</ele><time>2026-04-27T15:45:54.999Z</time></trkpt><trkpt lat="42.32983264185224" lon="13.598077399619745"><ele>1024.0</ele><time>2026-04-27T15:45:55.999Z</time></trkpt><trkpt lat="42.32975480972424" lon="13.598147916101873"><ele>1022.8000000000001</ele><time>2026-04-27T15:45:56.999Z</time></trkpt><trkpt lat="42.329684367389575" lon="13.5982250946848"><ele>1021.6000000000001</ele><time>2026-04-27T15:45:57.999Z</time></trkpt><trkpt lat="42.329598971613514" lon="13.598302918954445"><ele>1020.4</ele><time>2026-04-27T15:45:58.999Z</time></trkpt><trkpt lat="42.3295087271991" lon="13.598378362811575"><ele>1019.2</ele><time>2026-04-27T15:45:59.999Z</time></trkpt><trkpt lat="42.32942269509811" lon="13.598478928759999"><ele>1018.0</ele><time>2026-04-27T15:46:00.999Z</time></trkpt><trkpt lat="42.3293599706612" lon="13.598566537366686"><ele>1017.9999999999999</ele><time>2026-04-27T15:46:01.999Z</time></trkpt><trkpt lat="42.32929918156244" lon="13.598624013592728"><ele>1018.0</ele><time>2026-04-27T15:46:02.999Z</time></trkpt><trkpt lat="42.32923493668823" lon="13.598650240898818"><ele>1018.0</ele><time>2026-04-27T15:46:03.999Z</time></trkpt><trkpt lat="42.329145477279575" lon="13.598674666032696"><ele>1018.0</ele><time>2026-04-27T15:46:04.999Z</time></trkpt><trkpt lat="42.32905817822341" lon="13.598722965694975"><ele>1017.9999999999999</ele><time>2026-04-27T15:46:05.999Z</time></trkpt><trkpt lat="42.32899134468518" lon="13.598802397045858"><ele>1018.0</ele><time>2026-04-27T15:46:06.999Z</time></trkpt><trkpt lat="42.32892774161335" lon="13.598899919777582"><ele>1017.5</ele><time>2026-04-27T15:46:07.999Z</time></trkpt><trkpt lat="42.32885676178236" lon="13.599009259866433"><ele>1017.0</ele><time>2026-04-27T15:46:08.999Z</time></trkpt><trkpt lat="42.32877275328934" lon="13.599130373252867"><ele>1016.5</ele><time>2026-04-27T15:46:09.999Z</time></trkpt><trkpt lat="42.328696392246314" lon="13.599249828292004"><ele>1016.0</ele><time>2026-04-27T15:46:10.999Z</time></trkpt><trkpt lat="42.3286298536093" lon="13.599364580029178"><ele>1016.0000000000001</ele><time>2026-04-27T15:46:11.999Z</time></trkpt><trkpt lat="42.32858613429435" lon="13.599468019635038"><ele>1016.0</ele><time>2026-04-27T15:46:12.999Z</time></trkpt><trkpt lat="42.32853521762782" lon="13.59956436889257"><ele>1016.0</ele><time>2026-04-27T15:46:13.999Z</time></trkpt><trkpt lat="42.32848277167588" lon="13.599632357834551"><ele>1016.0</ele><time>2026-04-27T15:46:14.999Z</time></trkpt><trkpt lat="42.32840740680192" lon="13.599678753694464"><ele>1016.0000000000001</ele><time>2026-04-27T15:46:15.999Z</time></trkpt><trkpt lat="42.32831449266599" lon="13.599765905337506"><ele>1016.0</ele><time>2026-04-27T15:46:16.999Z</time></trkpt><trkpt lat="42.32824797343474" lon="13.599865662694135"><ele>1016.4</ele><time>2026-04-27T15:46:17.999Z</time></trkpt><trkpt lat="42.32818238124801" lon="13.599934240062579"><ele>1016.8</ele><time>2026-04-27T15:46:18.999Z</time></trkpt><trkpt lat="42.32811562096992" lon="13.600024910481647"><ele>1017.1999999999999</ele><time>2026-04-27T15:46:19.999Z</time></trkpt><trkpt lat="42.32803875067031" lon="13.600134203536378"><ele>1017.5999999999999</ele><time>2026-04-27T15:46:20.999Z</time></trkpt><trkpt lat="42.32800558679246" lon="13.600250327034384"><ele>1018.0</ele><time>2026-04-27T15:46:21.999Z</time></trkpt><trkpt lat="42.32795128992166" lon="13.600390347169498"><ele>1018.0</ele><time>2026-04-27T15:46:22.999Z</time></trkpt><trkpt lat="42.327865586049334" lon="13.600488104404429"><ele>1018.0</ele><time>2026-04-27T15:46:23.999Z</time></trkpt><trkpt lat="42.32776653484197" lon="13.600553183009609"><ele>1018.0</ele><time>2026-04-27T15:46:24.999Z</time></trkpt><trkpt lat="42.32769210866576" lon="13.600642928204177"><ele>1018.0</ele><time>2026-04-27T15:46:25.999Z</time></trkpt><trkpt lat="42.32760415146376" lon="13.600775768165189"><ele>1018.0</ele><time>2026-04-27T15:46:26.999Z</time></trkpt><trkpt lat="42.327549834748694" lon="13.600895823490319"><ele>1018.0</ele><time>2026-04-27T15:46:27.999Z</time></trkpt><trkpt lat="42.32750719125939" lon="13.60100485456429"><ele>1018.0</ele><time>2026-04-27T15:46:28.999Z</time></trkpt><trkpt lat="42.32745450813844" lon="13.601141453888976"><ele>1018.0</ele><time>2026-04-27T15:46:29.999Z</time></trkpt><trkpt lat="42.327385100133135" lon="13.601279935961806"><ele>1018.0</ele><time>2026-04-27T15:46:30.999Z</time></trkpt><trkpt lat="42.32731312695338" lon="13.601394992917216"><ele>1017.8</ele><time>2026-04-27T15:46:31.999Z</time></trkpt><trkpt lat="42.32724175311201" lon="13.601515848638966"><ele>1017.5999999999999</ele><time>2026-04-27T15:46:32.999Z</time></trkpt><trkpt lat="42.327190694290444" lon="13.60165120857977"><ele>1017.4000000000001</ele><time>2026-04-27T15:46:33.999Z</time></trkpt><trkpt lat="42.32713965870438" lon="13.601793598837752"><ele>1017.2</ele><time>2026-04-27T15:46:34.999Z</time></trkpt><trkpt lat="42.32707564160556" lon="13.601907321005354"><ele>1017.0</ele><time>2026-04-27T15:46:35.999Z</time></trkpt><trkpt lat="42.32702021787733" lon="13.602008823149578"><ele>1016.2</ele><time>2026-04-27T15:46:36.999Z</time></trkpt><trkpt lat="42.3269878755382" lon="13.60211583208434"><ele>1015.4000000000001</ele><time>2026-04-27T15:46:37.999Z</time></trkpt><trkpt lat="42.32694800431128" lon="13.60225594575359"><ele>1014.5999999999999</ele><time>2026-04-27T15:46:38.999Z</time></trkpt><trkpt lat="42.326906846159346" lon="13.602401437335539"><ele>1013.8</ele><time>2026-04-27T15:46:39.999Z</time></trkpt><trkpt lat="42.32688316285255" lon="13.602541389748303"><ele>1013.0</ele><time>2026-04-27T15:46:40.999Z</time></trkpt><trkpt lat="42.32686189361496" lon="13.602698228121291"><ele>1013.0</ele><time>2026-04-27T15:46:41.999Z</time></trkpt><trkpt lat="42.32681715735276" lon="13.602814670999878"><ele>1013.0</ele><time>2026-04-27T15:46:42.999Z</time></trkpt><trkpt lat="42.32674624362604" lon="13.602944051144217"><ele>1013.0</ele><time>2026-04-27T15:46:43.999Z</time></trkpt><trkpt lat="42.32667175906858" lon="13.60305603112972"><ele>1013.0</ele><time>2026-04-27T15:46:44.999Z</time></trkpt><trkpt lat="42.32660736303537" lon="13.603190655606292"><ele>1013.0</ele><time>2026-04-27T15:46:45.999Z</time></trkpt><trkpt lat="42.326529550394945" lon="13.603300370514685"><ele>1012.75</ele><time>2026-04-27T15:46:46.999Z</time></trkpt><trkpt lat="42.32643648993129" lon="13.603409132649777"><ele>1012.5</ele><time>2026-04-27T15:46:47.999Z</time></trkpt><trkpt lat="42.326345197202905" lon="13.603507538610707"><ele>1012.25</ele><time>2026-04-27T15:46:48.999Z</time></trkpt><trkpt lat="42.326264310350766" lon="13.603613663171197"><ele>1012.0</ele><time>2026-04-27T15:46:49.999Z</time></trkpt><trkpt lat="42.32618799374045" lon="13.603716594925467"><ele>1012.0</ele><time>2026-04-27T15:46:50.999Z</time></trkpt><trkpt lat="42.326123931341094" lon="13.603806160980717"><ele>1012.0</ele><time>2026-04-27T15:46:51.999Z</time></trkpt><trkpt lat="42.32603736722164" lon="13.603922903561358"><ele>1012.0</ele><time>2026-04-27T15:46:52.999Z</time></trkpt><trkpt lat="42.32595504632949" lon="13.604028410329787"><ele>1012.0</ele><time>2026-04-27T15:46:53.999Z</time></trkpt><trkpt lat="42.32588281167856" lon="13.604136691722484"><ele>1012.0</ele><time>2026-04-27T15:46:54.999Z</time></trkpt><trkpt lat="42.32583641005862" lon="13.604262260386506"><ele>1012.0</ele><time>2026-04-27T15:46:55.999Z</time></trkpt><trkpt lat="42.325800762605965" lon="13.604362317279898"><ele>1012.0</ele><time>2026-04-27T15:46:56.999Z</time></trkpt><trkpt lat="42.32575235164587" lon="13.60446449517275"><ele>1012.0</ele><time>2026-04-27T15:46:57.999Z</time></trkpt><trkpt lat="42.325673844021196" lon="13.604538422163028"><ele>1012.0</ele><time>2026-04-27T15:46:58.999Z</time></trkpt><trkpt lat="42.325584146022464" lon="13.604627720397191"><ele>1012.0</ele><time>2026-04-27T15:46:59.999Z</time></trkpt><trkpt lat="42.32551531441504" lon="13.604750826004747"><ele>1011.8</ele><time>2026-04-27T15:47:00.999Z</time></trkpt><trkpt lat="42.32546294642313" lon="13.604882024523466"><ele>1011.6</ele><time>2026-04-27T15:47:01.999Z</time></trkpt><trkpt lat="42.325417401577944" lon="13.605007458255859"><ele>1011.3999999999999</ele><time>2026-04-27T15:47:02.999Z</time></trkpt><trkpt lat="42.32535851871056" lon="13.605131539430536"><ele>1011.1999999999999</ele><time>2026-04-27T15:47:03.999Z</time></trkpt><trkpt lat="42.32528929407091" lon="13.605241879505519"><ele>1011.0</ele><time>2026-04-27T15:47:04.999Z</time></trkpt><trkpt lat="42.325222902452374" lon="13.60532884206683"><ele>1009.8</ele><time>2026-04-27T15:47:05.999Z</time></trkpt><trkpt lat="42.32516935032062" lon="13.605452670641267"><ele>1008.5999999999999</ele><time>2026-04-27T15:47:06.999Z</time></trkpt><trkpt lat="42.3251343277523" lon="13.60558275119955"><ele>1007.4</ele><time>2026-04-27T15:47:07.999Z</time></trkpt><trkpt lat="42.32509304329244" lon="13.605710031658836"><ele>1006.2</ele><time>2026-04-27T15:47:08.999Z</time></trkpt><trkpt lat="42.325052261911885" lon="13.605840030213383"><ele>1005.0</ele><time>2026-04-27T15:47:09.999Z</time></trkpt><trkpt lat="42.32501534314655" lon="13.605944999330104"><ele>1005.0</ele><time>2026-04-27T15:47:10.999Z</time></trkpt><trkpt lat="42.3249914623454" lon="13.606051063149868"><ele>1005.0</ele><time>2026-04-27T15:47:11.999Z</time></trkpt><trkpt lat="42.324989926981694" lon="13.606162149825142"><ele>1005.0</ele><time>2026-04-27T15:47:12.999Z</time></trkpt><trkpt lat="42.32499909377531" lon="13.606260205193045"><ele>1005.0</ele><time>2026-04-27T15:47:13.999Z</time></trkpt><trkpt lat="42.324940894551276" lon="13.60637887037391"><ele>1005.0</ele><time>2026-04-27T15:47:30.999Z</time></trkpt><trkpt lat="42.324871711967496" lon="13.606443783254344"><ele>1005.0</ele><time>2026-04-27T15:47:32.999Z</time></trkpt><trkpt lat="42.324813736724636" lon="13.60649742553319"><ele>1005.0</ele><time>2026-04-27T15:47:39.999Z</time></trkpt><trkpt lat="42.32474292524724" lon="13.606567450041856"><ele>1005.0</ele><time>2026-04-27T15:47:42.999Z</time></trkpt><trkpt lat="42.32467451503162" lon="13.606683282463194"><ele>1005.0</ele><time>2026-04-27T15:47:44.999Z</time></trkpt><trkpt lat="42.324585412661975" lon="13.606782404103047"><ele>1005.0</ele><time>2026-04-27T15:47:46.999Z</time></trkpt><trkpt lat="42.32448276070926" lon="13.60684973382241"><ele>1005.0</ele><time>2026-04-27T15:47:48.999Z</time></trkpt><trkpt lat="42.32441451197644" lon="13.606887794527987"><ele>1004.3333333333334</ele><time>2026-04-27T15:47:49.999Z</time></trkpt><trkpt lat="42.324358642068034" lon="13.60694605998894"><ele>1003.6666666666667</ele><time>2026-04-27T15:47:50.999Z</time></trkpt><trkpt lat="42.32430168372774" lon="13.606990618064012"><ele>1003.0</ele><time>2026-04-27T15:47:51.999Z</time></trkpt><trkpt lat="42.32421461236555" lon="13.607049973838963"><ele>1002.3333333333334</ele><time>2026-04-27T15:47:53.999Z</time></trkpt><trkpt lat="42.324172621791774" lon="13.607134001436535"><ele>1001.6666666666667</ele><time>2026-04-27T15:47:54.999Z</time></trkpt><trkpt lat="42.324117238779145" lon="13.607211206197988"><ele>1001.0</ele><time>2026-04-27T15:47:55.999Z</time></trkpt><trkpt lat="42.324072877421386" lon="13.60727312465773"><ele>999.3333333333334</ele><time>2026-04-27T15:47:56.999Z</time></trkpt><trkpt lat="42.3240173668524" lon="13.607347737872317"><ele>997.6666666666667</ele><time>2026-04-27T15:47:57.999Z</time></trkpt><trkpt lat="42.32395027112399" lon="13.607436585411012"><ele>996.0</ele><time>2026-04-27T15:47:58.999Z</time></trkpt><trkpt lat="42.32389981633383" lon="13.607509760387671"><ele>994.3333333333333</ele><time>2026-04-27T15:47:59.999Z</time></trkpt><trkpt lat="42.32386774681531" lon="13.607595574041182"><ele>992.6666666666666</ele><time>2026-04-27T15:48:00.999Z</time></trkpt><trkpt lat="42.3238628866818" lon="13.607686671609965"><ele>991.0</ele><time>2026-04-27T15:48:01.999Z</time></trkpt><trkpt lat="42.32386232101058" lon="13.607789876857955"><ele>990.6666666666666</ele><time>2026-04-27T15:48:02.999Z</time></trkpt><trkpt lat="42.32383382558358" lon="13.607870974086872"><ele>990.3333333333333</ele><time>2026-04-27T15:48:03.999Z</time></trkpt><trkpt lat="42.32378984424124" lon="13.607980997487884"><ele>990.0</ele><time>2026-04-27T15:48:04.999Z</time></trkpt><trkpt lat="42.32373286086701" lon="13.608128271583146"><ele>989.6666666666667</ele><time>2026-04-27T15:48:05.999Z</time></trkpt><trkpt lat="42.32369958214542" lon="13.608207068442185"><ele>989.3333333333334</ele><time>2026-04-27T15:48:06.999Z</time></trkpt><trkpt lat="42.32365101369983" lon="13.608309508867016"><ele>989.0</ele><time>2026-04-27T15:48:07.999Z</time></trkpt><trkpt lat="42.32360829329243" lon="13.608410914678549"><ele>989.0</ele><time>2026-04-27T15:48:08.999Z</time></trkpt><trkpt lat="42.323557530360475" lon="13.608565456194176"><ele>989.0000000000001</ele><time>2026-04-27T15:48:10.999Z</time></trkpt><trkpt lat="42.323524677142224" lon="13.608668448270707"><ele>989.0000000000001</ele><time>2026-04-27T15:48:11.999Z</time></trkpt><trkpt lat="42.323475629305044" lon="13.60878278550668"><ele>989.0</ele><time>2026-04-27T15:48:12.999Z</time></trkpt><trkpt lat="42.323434352837864" lon="13.608886028938867"><ele>989.0</ele><time>2026-04-27T15:48:13.999Z</time></trkpt><trkpt lat="42.32338264813929" lon="13.608987518836372"><ele>986.0</ele><time>2026-04-27T15:48:14.999Z</time></trkpt><trkpt lat="42.32331246031707" lon="13.609108739212635"><ele>983.0</ele><time>2026-04-27T15:48:15.999Z</time></trkpt><trkpt lat="42.323244908541966" lon="13.609228629269335"><ele>980.0</ele><time>2026-04-27T15:48:16.999Z</time></trkpt><trkpt lat="42.32319628259346" lon="13.609354550077954"><ele>977.0</ele><time>2026-04-27T15:48:17.999Z</time></trkpt><trkpt lat="42.323135550747025" lon="13.609500247108373"><ele>977.0</ele><time>2026-04-27T15:48:18.999Z</time></trkpt><trkpt lat="42.32308019216907" lon="13.609624540624031"><ele>977.0</ele><time>2026-04-27T15:48:19.999Z</time></trkpt><trkpt lat="42.3230184173462" lon="13.609741791532796"><ele>977.0</ele><time>2026-04-27T15:48:20.999Z</time></trkpt><trkpt lat="42.322950034926734" lon="13.609838382012759"><ele>977.0</ele><time>2026-04-27T15:48:21.999Z</time></trkpt><trkpt lat="42.322880810901594" lon="13.609961276123455"><ele>977.0</ele><time>2026-04-27T15:48:22.999Z</time></trkpt><trkpt lat="42.32281049070697" lon="13.61010184842655"><ele>976.8</ele><time>2026-04-27T15:48:23.999Z</time></trkpt><trkpt lat="42.32273665936282" lon="13.610216030715838"><ele>976.6</ele><time>2026-04-27T15:48:24.999Z</time></trkpt><trkpt lat="42.32267081097388" lon="13.610321677623576"><ele>976.3999999999999</ele><time>2026-04-27T15:48:25.999Z</time></trkpt><trkpt lat="42.322620897080746" lon="13.610425900146739"><ele>976.1999999999999</ele><time>2026-04-27T15:48:26.999Z</time></trkpt><trkpt lat="42.322586231178896" lon="13.610549392461659"><ele>976.0</ele><time>2026-04-27T15:48:27.999Z</time></trkpt><trkpt lat="42.32254810237084" lon="13.610659359881256"><ele>974.4</ele><time>2026-04-27T15:48:28.999Z</time></trkpt><trkpt lat="42.32247960301994" lon="13.610758709912673"><ele>972.8</ele><time>2026-04-27T15:48:29.999Z</time></trkpt><trkpt lat="42.322391773591214" lon="13.610866710926386"><ele>971.1999999999999</ele><time>2026-04-27T15:48:30.999Z</time></trkpt><trkpt lat="42.322303547277414" lon="13.610971576339198"><ele>969.5999999999999</ele><time>2026-04-27T15:48:31.999Z</time></trkpt><trkpt lat="42.32223289744696" lon="13.611061877548385"><ele>968.0</ele><time>2026-04-27T15:48:32.999Z</time></trkpt><trkpt lat="42.32216412345713" lon="13.611148607191124"><ele>966.0000000000001</ele><time>2026-04-27T15:48:33.999Z</time></trkpt><trkpt lat="42.32210531880481" lon="13.611247617653259"><ele>964.0</ele><time>2026-04-27T15:48:34.999Z</time></trkpt><trkpt lat="42.32205487181315" lon="13.611323653143025"><ele>962.0</ele><time>2026-04-27T15:48:35.999Z</time></trkpt><trkpt lat="42.321995090468825" lon="13.611358551373776"><ele>960.0</ele><time>2026-04-27T15:48:36.999Z</time></trkpt><trkpt lat="42.32189190683965" lon="13.611402321147658"><ele>958.0000000000001</ele><time>2026-04-27T15:48:38.999Z</time></trkpt><trkpt lat="42.32184012906062" lon="13.611479790317423"><ele>956.0</ele><time>2026-04-27T15:48:39.999Z</time></trkpt><trkpt lat="42.321774519509596" lon="13.611599529019683"><ele>956.0</ele><time>2026-04-27T15:48:40.999Z</time></trkpt><trkpt lat="42.321702078061406" lon="13.611722129302464"><ele>955.9999999999999</ele><time>2026-04-27T15:48:41.999Z</time></trkpt><trkpt lat="42.32163676788579" lon="13.611826915589855"><ele>955.9999999999999</ele><time>2026-04-27T15:48:42.999Z</time></trkpt><trkpt lat="42.32159259338644" lon="13.6119387775735"><ele>956.0</ele><time>2026-04-27T15:48:43.999Z</time></trkpt><trkpt lat="42.32157739777262" lon="13.612065515092379"><ele>956.0</ele><time>2026-04-27T15:48:44.999Z</time></trkpt><trkpt lat="42.321564946642816" lon="13.612183362006217"><ele>955.0</ele><time>2026-04-27T15:48:45.999Z</time></trkpt><trkpt lat="42.32154488914471" lon="13.612282470134042"><ele>953.9999999999999</ele><time>2026-04-27T15:48:46.999Z</time></trkpt><trkpt lat="42.321515226313316" lon="13.612370277149836"><ele>952.9999999999999</ele><time>2026-04-27T15:48:47.999Z</time></trkpt><trkpt lat="42.32144404016259" lon="13.61248381376308"><ele>952.0</ele><time>2026-04-27T15:48:49.999Z</time></trkpt><trkpt lat="42.32138698811536" lon="13.612561472244607"><ele>951.0</ele><time>2026-04-27T15:48:50.999Z</time></trkpt><trkpt lat="42.321300428426284" lon="13.61268935244363"><ele>949.75</ele><time>2026-04-27T15:48:51.999Z</time></trkpt><trkpt lat="42.321201849122076" lon="13.612851708769458"><ele>948.5</ele><time>2026-04-27T15:48:52.999Z</time></trkpt><trkpt lat="42.32111225012188" lon="13.613037806003176"><ele>947.25</ele><time>2026-04-27T15:48:53.999Z</time></trkpt><trkpt lat="42.3210262575338" lon="13.613167102468124"><ele>946.0</ele><time>2026-04-27T15:48:54.999Z</time></trkpt><trkpt lat="42.32092283472719" lon="13.613272950973723"><ele>946.0</ele><time>2026-04-27T15:48:55.999Z</time></trkpt><trkpt lat="42.320830019538974" lon="13.613380395922317"><ele>945.9999999999999</ele><time>2026-04-27T15:48:56.999Z</time></trkpt><trkpt lat="42.320767723025014" lon="13.613433991753647"><ele>945.9999999999999</ele><time>2026-04-27T15:48:57.999Z</time></trkpt><trkpt lat="42.32067768499557" lon="13.613394188833196"><ele>946.0</ele><time>2026-04-27T15:48:59.999Z</time></trkpt><trkpt lat="42.320630588363095" lon="13.613304363471824"><ele>946.0</ele><time>2026-04-27T15:49:00.999Z</time></trkpt><trkpt lat="42.32057547553587" lon="13.613181889954205"><ele>946.8333333333333</ele><time>2026-04-27T15:49:01.999Z</time></trkpt><trkpt lat="42.320524373311706" lon="13.613105849723752"><ele>947.6666666666666</ele><time>2026-04-27T15:49:02.999Z</time></trkpt><trkpt lat="42.32045732566648" lon="13.61315426817447"><ele>948.5</ele><time>2026-04-27T15:49:04.999Z</time></trkpt><trkpt lat="42.32044035864257" lon="13.613239310322767"><ele>949.3333333333333</ele><time>2026-04-27T15:49:05.999Z</time></trkpt><trkpt lat="42.32042924463524" lon="13.61334554840939"><ele>950.1666666666666</ele><time>2026-04-27T15:49:06.999Z</time></trkpt><trkpt lat="42.32039574030957" lon="13.613442123551733"><ele>951.0</ele><time>2026-04-27T15:49:07.999Z</time></trkpt><trkpt lat="42.320329870123125" lon="13.613526488663197"><ele>951.0</ele><time>2026-04-27T15:49:08.999Z</time></trkpt><trkpt lat="42.32025168658475" lon="13.613649179240692"><ele>950.9999999999999</ele><time>2026-04-27T15:49:09.999Z</time></trkpt><trkpt lat="42.320211715337955" lon="13.613759686561343"><ele>950.9999999999999</ele><time>2026-04-27T15:49:10.999Z</time></trkpt><trkpt lat="42.32018410287852" lon="13.613887480803244"><ele>951.0</ele><time>2026-04-27T15:49:11.999Z</time></trkpt><trkpt lat="42.320167859601085" lon="13.614028330897034"><ele>951.0</ele><time>2026-04-27T15:49:12.999Z</time></trkpt><trkpt lat="42.320168195582184" lon="13.614158524836055"><ele>950.5999999999999</ele><time>2026-04-27T15:49:13.999Z</time></trkpt><trkpt lat="42.32013028345711" lon="13.614265070755659"><ele>950.1999999999999</ele><time>2026-04-27T15:49:14.999Z</time></trkpt><trkpt lat="42.32005939320287" lon="13.614375978654975"><ele>949.8000000000001</ele><time>2026-04-27T15:49:15.999Z</time></trkpt><trkpt lat="42.31998329576657" lon="13.614453368556745"><ele>949.4000000000001</ele><time>2026-04-27T15:49:16.999Z</time></trkpt><trkpt lat="42.31990575175859" lon="13.614540878187409"><ele>949.0</ele><time>2026-04-27T15:49:17.999Z</time></trkpt><trkpt lat="42.31985637238288" lon="13.614644069058627"><ele>948.5</ele><time>2026-04-27T15:49:18.999Z</time></trkpt><trkpt lat="42.319799088461636" lon="13.614772310145565"><ele>948.0</ele><time>2026-04-27T15:49:19.999Z</time></trkpt><trkpt lat="42.31972718022031" lon="13.614912454033467"><ele>947.5</ele><time>2026-04-27T15:49:20.999Z</time></trkpt><trkpt lat="42.319650127276766" lon="13.615049537671661"><ele>947.0</ele><time>2026-04-27T15:49:21.999Z</time></trkpt><trkpt lat="42.31958022196017" lon="13.615204194908252"><ele>948.6</ele><time>2026-04-27T15:49:22.999Z</time></trkpt><trkpt lat="42.319521660100015" lon="13.615342660121739"><ele>950.2</ele><time>2026-04-27T15:49:23.999Z</time></trkpt><trkpt lat="42.31947038371401" lon="13.6154392312666"><ele>951.8</ele><time>2026-04-27T15:49:24.999Z</time></trkpt><trkpt lat="42.31940316178143" lon="13.615516644758278"><ele>953.4</ele><time>2026-04-27T15:49:25.999Z</time></trkpt><trkpt lat="42.31931647469343" lon="13.615602580695617"><ele>955.0</ele><time>2026-04-27T15:49:26.999Z</time></trkpt><trkpt lat="42.31925356077902" lon="13.61568216460297"><ele>954.9999999999999</ele><time>2026-04-27T15:49:27.999Z</time></trkpt><trkpt lat="42.31920285561619" lon="13.615775116560386"><ele>955.0</ele><time>2026-04-27T15:49:28.999Z</time></trkpt><trkpt lat="42.31915724368984" lon="13.615865293187799"><ele>955.0</ele><time>2026-04-27T15:49:29.999Z</time></trkpt><trkpt lat="42.3191462523722" lon="13.615962453191408"><ele>955.0</ele><time>2026-04-27T15:49:30.999Z</time></trkpt><trkpt lat="42.31914295342951" lon="13.616048786505656"><ele>954.9999999999999</ele><time>2026-04-27T15:49:31.999Z</time></trkpt><trkpt lat="42.31909120362343" lon="13.616190559551955"><ele>955.0</ele><time>2026-04-27T15:49:33.999Z</time></trkpt><trkpt lat="42.31905260508088" lon="13.6162646069049"><ele>954.8333333333333</ele><time>2026-04-27T15:49:34.999Z</time></trkpt><trkpt lat="42.31901602661909" lon="13.616357144150607"><ele>954.6666666666666</ele><time>2026-04-27T15:49:35.999Z</time></trkpt><trkpt lat="42.31898562761427" lon="13.61643594161526"><ele>954.5</ele><time>2026-04-27T15:49:36.999Z</time></trkpt><trkpt lat="42.31893325276677" lon="13.616512951643886"><ele>954.3333333333333</ele><time>2026-04-27T15:49:37.999Z</time></trkpt><trkpt lat="42.31887237873932" lon="13.616589538145757"><ele>954.1666666666666</ele><time>2026-04-27T15:49:38.999Z</time></trkpt><trkpt lat="42.318804127015994" lon="13.61668465611286"><ele>954.0</ele><time>2026-04-27T15:49:39.999Z</time></trkpt><trkpt lat="42.31872781688034" lon="13.616753938829373"><ele>955.0</ele><time>2026-04-27T15:49:40.999Z</time></trkpt><trkpt lat="42.318666527605515" lon="13.616811041884837"><ele>956.0000000000001</ele><time>2026-04-27T15:49:41.999Z</time></trkpt><trkpt lat="42.318573271417144" lon="13.61694074998674"><ele>957.0000000000001</ele><time>2026-04-27T15:49:43.999Z</time></trkpt><trkpt lat="42.3185307475148" lon="13.617029429328332"><ele>958.0</ele><time>2026-04-27T15:49:44.999Z</time></trkpt><trkpt lat="42.31846507375906" lon="13.617100031402067"><ele>959.0</ele><time>2026-04-27T15:49:45.999Z</time></trkpt><trkpt lat="42.31839075307633" lon="13.617162526870207"><ele>959.0</ele><time>2026-04-27T15:49:46.999Z</time></trkpt><trkpt lat="42.31831257071696" lon="13.61721384681186"><ele>959.0000000000001</ele><time>2026-04-27T15:49:47.999Z</time></trkpt><trkpt lat="42.31822788067647" lon="13.617272597361477"><ele>959.0000000000001</ele><time>2026-04-27T15:49:48.999Z</time></trkpt><trkpt lat="42.31814814218217" lon="13.617365586947477"><ele>959.0</ele><time>2026-04-27T15:49:49.999Z</time></trkpt><trkpt lat="42.318067375099105" lon="13.617460567659515"><ele>959.0</ele><time>2026-04-27T15:49:50.999Z</time></trkpt><trkpt lat="42.31799114163219" lon="13.617502517883914"><ele>959.75</ele><time>2026-04-27T15:49:51.999Z</time></trkpt><trkpt lat="42.317909523056784" lon="13.61755504463141"><ele>960.5</ele><time>2026-04-27T15:49:52.999Z</time></trkpt><trkpt lat="42.31781044535223" lon="13.617649531421295"><ele>961.25</ele><time>2026-04-27T15:49:53.999Z</time></trkpt><trkpt lat="42.31771302307433" lon="13.61775180448563"><ele>962.0</ele><time>2026-04-27T15:49:54.999Z</time></trkpt><trkpt lat="42.31761699869776" lon="13.617840244844992"><ele>962.0</ele><time>2026-04-27T15:49:55.999Z</time></trkpt><trkpt lat="42.31754084506944" lon="13.617919059302416"><ele>962.0</ele><time>2026-04-27T15:49:56.999Z</time></trkpt><trkpt lat="42.31748033750492" lon="13.61800034734834"><ele>962.0</ele><time>2026-04-27T15:49:57.999Z</time></trkpt><trkpt lat="42.31740053241542" lon="13.618076764945904"><ele>962.0</ele><time>2026-04-27T15:49:58.999Z</time></trkpt><trkpt lat="42.31730780979954" lon="13.61815868656548"><ele>962.0</ele><time>2026-04-27T15:49:59.999Z</time></trkpt><trkpt lat="42.317203311441695" lon="13.618261160209078"><ele>966.0</ele><time>2026-04-27T15:50:00.999Z</time></trkpt><trkpt lat="42.31710191531231" lon="13.618366656291943"><ele>970.0</ele><time>2026-04-27T15:50:01.999Z</time></trkpt><trkpt lat="42.31699947375589" lon="13.61847459817289"><ele>974.0</ele><time>2026-04-27T15:50:02.999Z</time></trkpt><trkpt lat="42.316921410791224" lon="13.618568995524173"><ele>978.0</ele><time>2026-04-27T15:50:03.999Z</time></trkpt><trkpt lat="42.3168524940538" lon="13.618646338854687"><ele>976.2</ele><time>2026-04-27T15:50:04.999Z</time></trkpt><trkpt lat="42.31677990047355" lon="13.618699097792486"><ele>974.4</ele><time>2026-04-27T15:50:05.999Z</time></trkpt><trkpt lat="42.31670215528837" lon="13.61874193737319"><ele>972.6000000000001</ele><time>2026-04-27T15:50:06.999Z</time></trkpt><trkpt lat="42.31661489122497" lon="13.618824821053101"><ele>970.8000000000001</ele><time>2026-04-27T15:50:07.999Z</time></trkpt><trkpt lat="42.31652185218162" lon="13.618910810704485"><ele>969.0</ele><time>2026-04-27T15:50:08.999Z</time></trkpt><trkpt lat="42.31645486659441" lon="13.618975296380457"><ele>970.6666666666666</ele><time>2026-04-27T15:50:09.999Z</time></trkpt><trkpt lat="42.316385387328474" lon="13.619045643773546"><ele>972.3333333333333</ele><time>2026-04-27T15:50:10.999Z</time></trkpt><trkpt lat="42.3162991700677" lon="13.619160642504067"><ele>974.0</ele><time>2026-04-27T15:50:12.999Z</time></trkpt><trkpt lat="42.316269600156716" lon="13.619253405066432"><ele>975.6666666666666</ele><time>2026-04-27T15:50:13.999Z</time></trkpt><trkpt lat="42.316244497556596" lon="13.619362932501172"><ele>977.3333333333333</ele><time>2026-04-27T15:50:14.999Z</time></trkpt><trkpt lat="42.31623412962686" lon="13.619465855600096"><ele>979.0</ele><time>2026-04-27T15:50:15.999Z</time></trkpt><trkpt lat="42.31621545331066" lon="13.619547371767045"><ele>978.9999999999999</ele><time>2026-04-27T15:50:16.999Z</time></trkpt><trkpt lat="42.3162107915218" lon="13.619647243126511"><ele>979.0</ele><time>2026-04-27T15:50:17.999Z</time></trkpt><trkpt lat="42.316206222849026" lon="13.619750573124604"><ele>979.0</ele><time>2026-04-27T15:50:18.999Z</time></trkpt><trkpt lat="42.316123330370445" lon="13.619849847552425"><ele>979.0</ele><time>2026-04-27T15:50:20.999Z</time></trkpt><trkpt lat="42.31605882150706" lon="13.619857918322149"><ele>978.9999999999999</ele><time>2026-04-27T15:50:21.999Z</time></trkpt><trkpt lat="42.31600018587882" lon="13.619902026634696"><ele>979.0</ele><time>2026-04-27T15:50:22.999Z</time></trkpt><trkpt lat="42.3159335936444" lon="13.61999959300682"><ele>979.0</ele><time>2026-04-27T15:50:23.999Z</time></trkpt><trkpt lat="42.315868587032675" lon="13.620105341070895"><ele>979.0000000000001</ele><time>2026-04-27T15:50:24.999Z</time></trkpt><trkpt lat="42.315795753626986" lon="13.620197152343696"><ele>979.0000000000001</ele><time>2026-04-27T15:50:25.999Z</time></trkpt><trkpt lat="42.31573298083244" lon="13.62028850636222"><ele>979.0</ele><time>2026-04-27T15:50:26.999Z</time></trkpt><trkpt lat="42.31568159504611" lon="13.620389323215472"><ele>979.0</ele><time>2026-04-27T15:50:27.999Z</time></trkpt><trkpt lat="42.31563373992444" lon="13.62046605483424"><ele>979.2</ele><time>2026-04-27T15:50:28.999Z</time></trkpt><trkpt lat="42.31552423754478" lon="13.620485465648466"><ele>979.4000000000001</ele><time>2026-04-27T15:50:30.999Z</time></trkpt><trkpt lat="42.31546200241515" lon="13.620466579860132"><ele>979.6</ele><time>2026-04-27T15:50:31.999Z</time></trkpt><trkpt lat="42.31537740764354" lon="13.620556247811294"><ele>979.8</ele><time>2026-04-27T15:50:33.999Z</time></trkpt><trkpt lat="42.315311429444606" lon="13.620651202968606"><ele>980.0</ele><time>2026-04-27T15:50:34.999Z</time></trkpt><trkpt lat="42.31523774727002" lon="13.620748204928015"><ele>980.0</ele><time>2026-04-27T15:50:35.999Z</time></trkpt><trkpt lat="42.31514923227928" lon="13.620856818961636"><ele>980.0</ele><time>2026-04-27T15:50:36.999Z</time></trkpt><trkpt lat="42.315045492475555" lon="13.620951746191922"><ele>980.0</ele><time>2026-04-27T15:50:37.999Z</time></trkpt><trkpt lat="42.31494375347673" lon="13.621022027401096"><ele>980.0</ele><time>2026-04-27T15:50:38.999Z</time></trkpt><trkpt lat="42.3148365422917" lon="13.621075791115457"><ele>980.2</ele><time>2026-04-27T15:50:39.999Z</time></trkpt><trkpt lat="42.31472158414311" lon="13.621125190472071"><ele>980.4</ele><time>2026-04-27T15:50:40.999Z</time></trkpt><trkpt lat="42.31463024404832" lon="13.621175018934347"><ele>980.5999999999999</ele><time>2026-04-27T15:50:41.999Z</time></trkpt><trkpt lat="42.31454564803189" lon="13.62123889093178"><ele>980.8</ele><time>2026-04-27T15:50:42.999Z</time></trkpt><trkpt lat="42.31447276522251" lon="13.621296859981035"><ele>981.0</ele><time>2026-04-27T15:50:43.999Z</time></trkpt><trkpt lat="42.314404380825685" lon="13.621373777244376"><ele>981.0</ele><time>2026-04-27T15:50:44.999Z</time></trkpt><trkpt lat="42.31434362267398" lon="13.621439394092404"><ele>981.0</ele><time>2026-04-27T15:50:45.999Z</time></trkpt><trkpt lat="42.31427678905948" lon="13.621492765138386"><ele>981.0</ele><time>2026-04-27T15:50:46.999Z</time></trkpt><trkpt lat="42.31421636759229" lon="13.621546250483016"><ele>981.0</ele><time>2026-04-27T15:50:47.999Z</time></trkpt><trkpt lat="42.314145283676304" lon="13.62160042279177"><ele>981.0</ele><time>2026-04-27T15:50:48.999Z</time></trkpt><trkpt lat="42.31406132904407" lon="13.621668458972174"><ele>981.0</ele><time>2026-04-27T15:50:49.999Z</time></trkpt><trkpt lat="42.313977103909075" lon="13.621759859465126"><ele>981.0</ele><time>2026-04-27T15:50:51.999Z</time></trkpt><trkpt lat="42.31390712897505" lon="13.621773399561521"><ele>980.9999999999999</ele><time>2026-04-27T15:50:53.999Z</time></trkpt><trkpt lat="42.31381012146889" lon="13.621698365713128"><ele>980.9999999999999</ele><time>2026-04-27T15:50:55.999Z</time></trkpt><trkpt lat="42.31372545067581" lon="13.62169930125264"><ele>981.0</ele><time>2026-04-27T15:50:56.999Z</time></trkpt><trkpt lat="42.313655940802086" lon="13.621722880629916"><ele>981.0</ele><time>2026-04-27T15:50:57.999Z</time></trkpt><trkpt lat="42.31354943954066" lon="13.621839319656742"><ele>981.4</ele><time>2026-04-27T15:50:59.999Z</time></trkpt><trkpt lat="42.313472920988595" lon="13.62190756771898"><ele>981.8</ele><time>2026-04-27T15:51:00.999Z</time></trkpt><trkpt lat="42.31339259148941" lon="13.621975278775443"><ele>982.1999999999999</ele><time>2026-04-27T15:51:01.999Z</time></trkpt><trkpt lat="42.31333870212942" lon="13.622040101246526"><ele>982.5999999999999</ele><time>2026-04-27T15:51:02.999Z</time></trkpt><trkpt lat="42.31326436315249" lon="13.622168331513954"><ele>983.0</ele><time>2026-04-27T15:51:04.999Z</time></trkpt><trkpt lat="42.313215242761885" lon="13.622259876774372"><ele>983.0</ele><time>2026-04-27T15:51:05.999Z</time></trkpt><trkpt lat="42.313149087659454" lon="13.62236779538416"><ele>983.0</ele><time>2026-04-27T15:51:06.999Z</time></trkpt><trkpt lat="42.31308191661899" lon="13.622461759839823"><ele>983.0</ele><time>2026-04-27T15:51:07.999Z</time></trkpt><trkpt lat="42.313014918960114" lon="13.622533382130051"><ele>983.0</ele><time>2026-04-27T15:51:08.999Z</time></trkpt><trkpt lat="42.31294733959101" lon="13.62260548478036"><ele>983.0</ele><time>2026-04-27T15:51:09.999Z</time></trkpt><trkpt lat="42.31287634530339" lon="13.622709262012828"><ele>984.5999999999999</ele><time>2026-04-27T15:51:10.999Z</time></trkpt><trkpt lat="42.31280623477178" lon="13.62282086791208"><ele>986.1999999999999</ele><time>2026-04-27T15:51:11.999Z</time></trkpt><trkpt lat="42.312739809111925" lon="13.622932937844379"><ele>987.8</ele><time>2026-04-27T15:51:12.999Z</time></trkpt><trkpt lat="42.31267418238967" lon="13.623035686730343"><ele>989.4</ele><time>2026-04-27T15:51:13.999Z</time></trkpt><trkpt lat="42.31264179869749" lon="13.62313932386272"><ele>991.0</ele><time>2026-04-27T15:51:14.999Z</time></trkpt><trkpt lat="42.312609241868145" lon="13.62322693843081"><ele>991.0</ele><time>2026-04-27T15:51:15.999Z</time></trkpt><trkpt lat="42.3125636230389" lon="13.623285926714912"><ele>990.9999999999999</ele><time>2026-04-27T15:51:16.999Z</time></trkpt><trkpt lat="42.31249618519067" lon="13.623350631305138"><ele>990.9999999999999</ele><time>2026-04-27T15:51:17.999Z</time></trkpt><trkpt lat="42.31243792463587" lon="13.623417651580032"><ele>991.0</ele><time>2026-04-27T15:51:18.999Z</time></trkpt><trkpt lat="42.31235738081186" lon="13.623567385996036"><ele>991.0</ele><time>2026-04-27T15:51:20.999Z</time></trkpt><trkpt lat="42.312316276799606" lon="13.6236789364739"><ele>990.3333333333333</ele><time>2026-04-27T15:51:21.999Z</time></trkpt><trkpt lat="42.312257373006936" lon="13.623778710752818"><ele>989.6666666666666</ele><time>2026-04-27T15:51:22.999Z</time></trkpt><trkpt lat="42.3122060234183" lon="13.623871836893938"><ele>989.0</ele><time>2026-04-27T15:51:23.999Z</time></trkpt><trkpt lat="42.31214268903403" lon="13.623954303447205"><ele>988.3333333333333</ele><time>2026-04-27T15:51:24.999Z</time></trkpt><trkpt lat="42.31209566169365" lon="13.624057557266951"><ele>987.6666666666666</ele><time>2026-04-27T15:51:25.999Z</time></trkpt><trkpt lat="42.312044621268505" lon="13.624152798638516"><ele>987.0</ele><time>2026-04-27T15:51:26.999Z</time></trkpt><trkpt lat="42.31199086176272" lon="13.624267315494022"><ele>988.4000000000001</ele><time>2026-04-27T15:51:27.999Z</time></trkpt><trkpt lat="42.311919182878675" lon="13.624404280364425"><ele>989.8000000000001</ele><time>2026-04-27T15:51:28.999Z</time></trkpt><trkpt lat="42.311859046305024" lon="13.624540082428178"><ele>991.2</ele><time>2026-04-27T15:51:29.999Z</time></trkpt><trkpt lat="42.31179184505452" lon="13.624662975868464"><ele>992.6</ele><time>2026-04-27T15:51:30.999Z</time></trkpt><trkpt lat="42.31174206557251" lon="13.624769741717097"><ele>994.0</ele><time>2026-04-27T15:51:31.999Z</time></trkpt><trkpt lat="42.31169336992429" lon="13.624840320558437"><ele>994.0</ele><time>2026-04-27T15:51:32.999Z</time></trkpt><trkpt lat="42.311629788125764" lon="13.624913211070076"><ele>994.0000000000001</ele><time>2026-04-27T15:51:33.999Z</time></trkpt><trkpt lat="42.31155056427486" lon="13.624986449570857"><ele>994.0000000000001</ele><time>2026-04-27T15:51:34.999Z</time></trkpt><trkpt lat="42.31147900209984" lon="13.625082786269179"><ele>994.0</ele><time>2026-04-27T15:51:35.999Z</time></trkpt><trkpt lat="42.3114100498891" lon="13.625224570135241"><ele>994.0</ele><time>2026-04-27T15:51:36.999Z</time></trkpt><trkpt lat="42.311330612223394" lon="13.625350135259156"><ele>998.5</ele><time>2026-04-27T15:51:37.999Z</time></trkpt><trkpt lat="42.311252177231594" lon="13.625498247188114"><ele>1003.0</ele><time>2026-04-27T15:51:38.999Z</time></trkpt><trkpt lat="42.31119487937474" lon="13.625642560896209"><ele>1007.5</ele><time>2026-04-27T15:51:39.999Z</time></trkpt><trkpt lat="42.3111357127532" lon="13.625778647397823"><ele>1012.0</ele><time>2026-04-27T15:51:40.999Z</time></trkpt><trkpt lat="42.31107202402071" lon="13.625911313454278"><ele>1012.0</ele><time>2026-04-27T15:51:41.999Z</time></trkpt><trkpt lat="42.31100507535214" lon="13.62605733122141"><ele>1012.0</ele><time>2026-04-27T15:51:42.999Z</time></trkpt><trkpt lat="42.310943045347884" lon="13.62620387390641"><ele>1012.0</ele><time>2026-04-27T15:51:43.999Z</time></trkpt><trkpt lat="42.310882547623656" lon="13.626339037325089"><ele>1012.0</ele><time>2026-04-27T15:51:44.999Z</time></trkpt><trkpt lat="42.310834346969926" lon="13.626456808010625"><ele>1011.0</ele><time>2026-04-27T15:51:45.999Z</time></trkpt><trkpt lat="42.310793069227024" lon="13.62655605347015"><ele>1010.0</ele><time>2026-04-27T15:51:46.999Z</time></trkpt><trkpt lat="42.31073618660668" lon="13.626660994802597"><ele>1009.0</ele><time>2026-04-27T15:51:47.999Z</time></trkpt><trkpt lat="42.31066280975403" lon="13.626789389536814"><ele>1008.0</ele><time>2026-04-27T15:51:48.999Z</time></trkpt><trkpt lat="42.31058493628292" lon="13.62691698993843"><ele>1007.0</ele><time>2026-04-27T15:51:49.999Z</time></trkpt><trkpt lat="42.310506215416616" lon="13.627017002912039"><ele>1007.0</ele><time>2026-04-27T15:51:50.999Z</time></trkpt><trkpt lat="42.31044549216292" lon="13.627137011122812"><ele>1007.0</ele><time>2026-04-27T15:51:51.999Z</time></trkpt><trkpt lat="42.310389713123776" lon="13.627284876239333"><ele>1007.0</ele><time>2026-04-27T15:51:52.999Z</time></trkpt><trkpt lat="42.31034650076496" lon="13.627419997713842"><ele>1007.0</ele><time>2026-04-27T15:51:53.999Z</time></trkpt><trkpt lat="42.31030494947138" lon="13.627518041041789"><ele>1007.0</ele><time>2026-04-27T15:51:54.999Z</time></trkpt><trkpt lat="42.31025026042131" lon="13.627614618798484"><ele>1007.0000000000001</ele><time>2026-04-27T15:51:55.999Z</time></trkpt><trkpt lat="42.31018565798707" lon="13.62768672364635"><ele>1007.0</ele><time>2026-04-27T15:51:56.999Z</time></trkpt><trkpt lat="42.31010912123703" lon="13.627727679458673"><ele>1007.0</ele><time>2026-04-27T15:51:57.999Z</time></trkpt><trkpt lat="42.31004767447059" lon="13.627799251561784"><ele>1007.0</ele><time>2026-04-27T15:51:58.999Z</time></trkpt><trkpt lat="42.31002487865175" lon="13.627931295665459"><ele>1007.0000000000001</ele><time>2026-04-27T15:51:59.999Z</time></trkpt><trkpt lat="42.30997756897786" lon="13.628052035941298"><ele>1007.0</ele><time>2026-04-27T15:52:00.999Z</time></trkpt><trkpt lat="42.309923277923374" lon="13.62818494453123"><ele>1008.2</ele><time>2026-04-27T15:52:01.999Z</time></trkpt><trkpt lat="42.30987794307011" lon="13.628284004680829"><ele>1009.4000000000001</ele><time>2026-04-27T15:52:02.999Z</time></trkpt><trkpt lat="42.30982529479985" lon="13.628402455654161"><ele>1010.5999999999999</ele><time>2026-04-27T15:52:03.999Z</time></trkpt><trkpt lat="42.309770476078036" lon="13.628533356111411"><ele>1011.8</ele><time>2026-04-27T15:52:04.999Z</time></trkpt><trkpt lat="42.30973091166231" lon="13.628601506039919"><ele>1013.0</ele><time>2026-04-27T15:52:05.999Z</time></trkpt><trkpt lat="42.30967107588796" lon="13.628696490847313"><ele>1013.0</ele><time>2026-04-27T15:52:06.999Z</time></trkpt><trkpt lat="42.30961206260593" lon="13.628800256254172"><ele>1013.0</ele><time>2026-04-27T15:52:07.999Z</time></trkpt><trkpt lat="42.309558649939994" lon="13.628885006534754"><ele>1013.0</ele><time>2026-04-27T15:52:08.999Z</time></trkpt><trkpt lat="42.309519632847405" lon="13.628998757876404"><ele>1013.0</ele><time>2026-04-27T15:52:09.999Z</time></trkpt><trkpt lat="42.30946973798954" lon="13.629148625446781"><ele>1013.0</ele><time>2026-04-27T15:52:10.999Z</time></trkpt><trkpt lat="42.3094338268454" lon="13.629263955156343"><ele>1013.0</ele><time>2026-04-27T15:52:11.999Z</time></trkpt><trkpt lat="42.30938124772976" lon="13.629354678624633"><ele>1013.0</ele><time>2026-04-27T15:52:12.999Z</time></trkpt><trkpt lat="42.30932436865986" lon="13.629436330372242"><ele>1013.0</ele><time>2026-04-27T15:52:13.999Z</time></trkpt><trkpt lat="42.309260744428265" lon="13.629535717677832"><ele>1013.0</ele><time>2026-04-27T15:52:14.999Z</time></trkpt><trkpt lat="42.309184483182335" lon="13.6296655864036"><ele>1013.0</ele><time>2026-04-27T15:52:15.999Z</time></trkpt><trkpt lat="42.30911123287677" lon="13.629786297144522"><ele>1012.4</ele><time>2026-04-27T15:52:16.999Z</time></trkpt><trkpt lat="42.30903380344768" lon="13.629890605098867"><ele>1011.8</ele><time>2026-04-27T15:52:17.999Z</time></trkpt><trkpt lat="42.30898780590319" lon="13.629953139958689"><ele>1011.2</ele><time>2026-04-27T15:52:18.999Z</time></trkpt><trkpt lat="42.30892256541141" lon="13.630106316047879"><ele>1010.6</ele><time>2026-04-27T15:52:20.999Z</time></trkpt><trkpt lat="42.30889724365734" lon="13.630288471681832"><ele>1010.0</ele><time>2026-04-27T15:52:21.999Z</time></trkpt><trkpt lat="42.30886234057143" lon="13.630468429198157"><ele>1009.8</ele><time>2026-04-27T15:52:22.999Z</time></trkpt><trkpt lat="42.30883395170863" lon="13.630586287630225"><ele>1009.6</ele><time>2026-04-27T15:52:23.999Z</time></trkpt><trkpt lat="42.30882593717506" lon="13.630684471319462"><ele>1009.4000000000001</ele><time>2026-04-27T15:52:24.999Z</time></trkpt><trkpt lat="42.30885078984588" lon="13.6308063930364"><ele>1009.2</ele><time>2026-04-27T15:52:25.999Z</time></trkpt><trkpt lat="42.308885451050216" lon="13.630939707018781"><ele>1009.0</ele><time>2026-04-27T15:52:26.999Z</time></trkpt><trkpt lat="42.30892942788222" lon="13.63106858738635"><ele>1009.6666666666666</ele><time>2026-04-27T15:52:27.999Z</time></trkpt><trkpt lat="42.30895837729689" lon="13.631160810295553"><ele>1010.3333333333333</ele><time>2026-04-27T15:52:28.999Z</time></trkpt><trkpt lat="42.308954297026816" lon="13.631253421481668"><ele>1011.0</ele><time>2026-04-27T15:52:29.999Z</time></trkpt><trkpt lat="42.30891393914627" lon="13.6313511274353"><ele>1011.6666666666667</ele><time>2026-04-27T15:52:30.999Z</time></trkpt><trkpt lat="42.308872742087246" lon="13.63146060867319"><ele>1012.3333333333334</ele><time>2026-04-27T15:52:31.999Z</time></trkpt><trkpt lat="42.30883842250182" lon="13.631546642157268"><ele>1013.0</ele><time>2026-04-27T15:52:32.999Z</time></trkpt><trkpt lat="42.308812583183574" lon="13.631661617231103"><ele>1009.5</ele><time>2026-04-27T15:52:33.999Z</time></trkpt><trkpt lat="42.30878068147029" lon="13.631850413678656"><ele>1006.0</ele><time>2026-04-27T15:52:34.999Z</time></trkpt><trkpt lat="42.308736594543646" lon="13.632021004919237"><ele>1002.5</ele><time>2026-04-27T15:52:35.999Z</time></trkpt><trkpt lat="42.3086802279143" lon="13.632175309960084"><ele>999.0</ele><time>2026-04-27T15:52:36.999Z</time></trkpt><trkpt lat="42.3086049123787" lon="13.632359685421266"><ele>999.0</ele><time>2026-04-27T15:52:37.999Z</time></trkpt><trkpt lat="42.30852822721072" lon="13.63251561618044"><ele>999.0</ele><time>2026-04-27T15:52:38.999Z</time></trkpt><trkpt lat="42.308434614909956" lon="13.632674555363975"><ele>999.0</ele><time>2026-04-27T15:52:39.999Z</time></trkpt><trkpt lat="42.30833045023447" lon="13.632881612452074"><ele>999.0</ele><time>2026-04-27T15:52:40.999Z</time></trkpt><trkpt lat="42.30822579555717" lon="13.633097495746972"><ele>999.0</ele><time>2026-04-27T15:52:41.999Z</time></trkpt><trkpt lat="42.308135700803746" lon="13.633283297650365"><ele>999.0</ele><time>2026-04-27T15:52:42.999Z</time></trkpt><trkpt lat="42.30805703503181" lon="13.633431809483579"><ele>997.0</ele><time>2026-04-27T15:52:43.999Z</time></trkpt><trkpt lat="42.307991114980176" lon="13.633575757759415"><ele>995.0000000000001</ele><time>2026-04-27T15:52:44.999Z</time></trkpt><trkpt lat="42.30793856614835" lon="13.633689686757727"><ele>993.0000000000001</ele><time>2026-04-27T15:52:45.999Z</time></trkpt><trkpt lat="42.30790348179637" lon="13.633792968024023"><ele>991.0</ele><time>2026-04-27T15:52:46.999Z</time></trkpt><trkpt lat="42.30787136814269" lon="13.633901909602823"><ele>989.0</ele><time>2026-04-27T15:52:47.999Z</time></trkpt><trkpt lat="42.30781952875201" lon="13.633972006163276"><ele>988.8000000000001</ele><time>2026-04-27T15:52:48.999Z</time></trkpt><trkpt lat="42.30773125367534" lon="13.634014061122837"><ele>988.6000000000001</ele><time>2026-04-27T15:52:49.999Z</time></trkpt><trkpt lat="42.30762546726328" lon="13.634036435567369"><ele>988.4</ele><time>2026-04-27T15:52:50.999Z</time></trkpt><trkpt lat="42.30755861786094" lon="13.634082482789232"><ele>988.2</ele><time>2026-04-27T15:52:51.999Z</time></trkpt><trkpt lat="42.307500364788005" lon="13.634184270546786"><ele>988.0</ele><time>2026-04-27T15:52:52.999Z</time></trkpt><trkpt lat="42.307437377880746" lon="13.634304879705448"><ele>988.0</ele><time>2026-04-27T15:52:53.999Z</time></trkpt><trkpt lat="42.30734736689664" lon="13.63445757951444"><ele>988.0</ele><time>2026-04-27T15:52:54.999Z</time></trkpt><trkpt lat="42.30723475821989" lon="13.634591218627037"><ele>988.0</ele><time>2026-04-27T15:52:55.999Z</time></trkpt><trkpt lat="42.30713796377504" lon="13.634742758666107"><ele>988.0</ele><time>2026-04-27T15:52:56.999Z</time></trkpt><trkpt lat="42.30705141642244" lon="13.634922119145173"><ele>987.0</ele><time>2026-04-27T15:52:57.999Z</time></trkpt><trkpt lat="42.3069558813692" lon="13.635134330843425"><ele>986.0</ele><time>2026-04-27T15:52:58.999Z</time></trkpt><trkpt lat="42.30687032562488" lon="13.635328044848503"><ele>985.0</ele><time>2026-04-27T15:52:59.999Z</time></trkpt><trkpt lat="42.30678160708501" lon="13.635493750908584"><ele>984.0</ele><time>2026-04-27T15:53:00.999Z</time></trkpt><trkpt lat="42.30669863026845" lon="13.635643305527566"><ele>983.0</ele><time>2026-04-27T15:53:01.999Z</time></trkpt><trkpt lat="42.30661979017807" lon="13.63576747343724"><ele>982.0</ele><time>2026-04-27T15:53:02.999Z</time></trkpt><trkpt lat="42.306559137371046" lon="13.635894983407283"><ele>981.0</ele><time>2026-04-27T15:53:03.999Z</time></trkpt><trkpt lat="42.30648889235961" lon="13.636058150908019"><ele>980.25</ele><time>2026-04-27T15:53:04.999Z</time></trkpt><trkpt lat="42.30639894607506" lon="13.636236760266877"><ele>979.5</ele><time>2026-04-27T15:53:05.999Z</time></trkpt><trkpt lat="42.30632626834115" lon="13.636390977494434"><ele>978.75</ele><time>2026-04-27T15:53:06.999Z</time></trkpt><trkpt lat="42.30627325790792" lon="13.636534367452715"><ele>978.0</ele><time>2026-04-27T15:53:07.999Z</time></trkpt><trkpt lat="42.30622569330532" lon="13.63668660257126"><ele>978.0</ele><time>2026-04-27T15:53:08.999Z</time></trkpt><trkpt lat="42.30618262833797" lon="13.636871152999356"><ele>978.0</ele><time>2026-04-27T15:53:09.999Z</time></trkpt><trkpt lat="42.30613364780723" lon="13.63707535639716"><ele>978.0</ele><time>2026-04-27T15:53:10.999Z</time></trkpt><trkpt lat="42.306067629763795" lon="13.637268045474727"><ele>976.75</ele><time>2026-04-27T15:53:11.999Z</time></trkpt><trkpt lat="42.3060130150271" lon="13.637438326147286"><ele>975.5</ele><time>2026-04-27T15:53:12.999Z</time></trkpt><trkpt lat="42.30596766038777" lon="13.63760014523125"><ele>974.25</ele><time>2026-04-27T15:53:13.999Z</time></trkpt><trkpt lat="42.30592757718108" lon="13.637754781682025"><ele>973.0</ele><time>2026-04-27T15:53:14.999Z</time></trkpt><trkpt lat="42.30588260310272" lon="13.63789402305402"><ele>972.2</ele><time>2026-04-27T15:53:15.999Z</time></trkpt><trkpt lat="42.30583940605284" lon="13.638028152078613"><ele>971.4</ele><time>2026-04-27T15:53:16.999Z</time></trkpt><trkpt lat="42.30582162231221" lon="13.638164804719818"><ele>970.6000000000001</ele><time>2026-04-27T15:53:17.999Z</time></trkpt><trkpt lat="42.30582404211492" lon="13.638313623156524"><ele>969.8000000000001</ele><time>2026-04-27T15:53:18.999Z</time></trkpt><trkpt lat="42.305817485245086" lon="13.63844300451413"><ele>969.0</ele><time>2026-04-27T15:53:19.999Z</time></trkpt><trkpt lat="42.305784108047284" lon="13.638530077479773"><ele>969.0</ele><time>2026-04-27T15:53:20.999Z</time></trkpt><trkpt lat="42.3057317758229" lon="13.63860973623493"><ele>969.0</ele><time>2026-04-27T15:53:22Z</time></trkpt><trkpt lat="42.30568689493685" lon="13.638682551865815"><ele>969.0</ele><time>2026-04-27T15:53:23Z</time></trkpt><trkpt lat="42.30566742609923" lon="13.638782841658417"><ele>969.0</ele><time>2026-04-27T15:53:24Z</time></trkpt><trkpt lat="42.30564660975741" lon="13.638924900738576"><ele>969.0</ele><time>2026-04-27T15:53:25Z</time></trkpt><trkpt lat="42.30563726307651" lon="13.63905265463901"><ele>969.0</ele><time>2026-04-27T15:53:26Z</time></trkpt><trkpt lat="42.30561145033842" lon="13.639179853341664"><ele>968.8000000000001</ele><time>2026-04-27T15:53:27Z</time></trkpt><trkpt lat="42.3055474013339" lon="13.639294611671824"><ele>968.6000000000001</ele><time>2026-04-27T15:53:28Z</time></trkpt><trkpt lat="42.30547147526182" lon="13.63940381463834"><ele>968.4</ele><time>2026-04-27T15:53:29Z</time></trkpt><trkpt lat="42.305417813028534" lon="13.639499336244093"><ele>968.2</ele><time>2026-04-27T15:53:30Z</time></trkpt><trkpt lat="42.30538899390145" lon="13.639582398806098"><ele>968.0</ele><time>2026-04-27T15:53:31Z</time></trkpt><trkpt lat="42.3053499706525" lon="13.639705871875982"><ele>964.5</ele><time>2026-04-27T15:53:32Z</time></trkpt><trkpt lat="42.305324673026" lon="13.639838943000598"><ele>961.0</ele><time>2026-04-27T15:53:33Z</time></trkpt><trkpt lat="42.30528508516644" lon="13.639992131637559"><ele>957.5</ele><time>2026-04-27T15:53:34Z</time></trkpt><trkpt lat="42.305234994454054" lon="13.640162893650905"><ele>954.0</ele><time>2026-04-27T15:53:35Z</time></trkpt><trkpt lat="42.30520616039725" lon="13.640310789819512"><ele>952.0</ele><time>2026-04-27T15:53:36Z</time></trkpt><trkpt lat="42.30519135126333" lon="13.640416318706064"><ele>950.0</ele><time>2026-04-27T15:53:37Z</time></trkpt><trkpt lat="42.30515526523551" lon="13.64053629888723"><ele>948.0</ele><time>2026-04-27T15:53:38Z</time></trkpt><trkpt lat="42.30512102706717" lon="13.640632123044046"><ele>946.0</ele><time>2026-04-27T15:53:39Z</time></trkpt><trkpt lat="42.305067881894196" lon="13.640731163337534"><ele>944.0</ele><time>2026-04-27T15:53:40Z</time></trkpt><trkpt lat="42.305002749794156" lon="13.64083470931997"><ele>942.0</ele><time>2026-04-27T15:53:41Z</time></trkpt><trkpt lat="42.30495079334766" lon="13.641005306979535"><ele>942.0</ele><time>2026-04-27T15:53:43Z</time></trkpt><trkpt lat="42.30495952126487" lon="13.64109448467412"><ele>942.0</ele><time>2026-04-27T15:53:44Z</time></trkpt><trkpt lat="42.30497382543835" lon="13.641226095560032"><ele>942.0</ele><time>2026-04-27T15:53:45Z</time></trkpt><trkpt lat="42.30496322147844" lon="13.641341809881473"><ele>942.0</ele><time>2026-04-27T15:53:46Z</time></trkpt><trkpt lat="42.30493599613091" lon="13.641438946915446"><ele>942.0</ele><time>2026-04-27T15:53:47Z</time></trkpt><trkpt lat="42.30488951254223" lon="13.641525598486572"><ele>942.0</ele><time>2026-04-27T15:53:48Z</time></trkpt><trkpt lat="42.304851959005504" lon="13.64164116079998"><ele>940.6</ele><time>2026-04-27T15:53:49Z</time></trkpt><trkpt lat="42.30483071603918" lon="13.641761440798005"><ele>939.2</ele><time>2026-04-27T15:53:50Z</time></trkpt><trkpt lat="42.304808574401385" lon="13.641886226827886"><ele>937.8</ele><time>2026-04-27T15:53:51Z</time></trkpt><trkpt lat="42.30479330251945" lon="13.6420061767709"><ele>936.4</ele><time>2026-04-27T15:53:52Z</time></trkpt><trkpt lat="42.304766859364506" lon="13.642142655622777"><ele>935.0</ele><time>2026-04-27T15:53:53Z</time></trkpt><trkpt lat="42.30465754505421" lon="13.642191797448499"><ele>930.75</ele><time>2026-04-27T15:53:55Z</time></trkpt><trkpt lat="42.3045645905606" lon="13.642272028425522"><ele>926.5</ele><time>2026-04-27T15:53:56Z</time></trkpt><trkpt lat="42.304470450413355" lon="13.642373374192614"><ele>922.25</ele><time>2026-04-27T15:53:57Z</time></trkpt><trkpt lat="42.304389527912264" lon="13.642486044227201"><ele>918.0</ele><time>2026-04-27T15:53:58Z</time></trkpt><trkpt lat="42.30431993699811" lon="13.642593695731149"><ele>918.0</ele><time>2026-04-27T15:53:59Z</time></trkpt><trkpt lat="42.30425810708525" lon="13.642688764001017"><ele>918.0</ele><time>2026-04-27T15:54:00Z</time></trkpt><trkpt lat="42.304204123526304" lon="13.642762304867329"><ele>918.0</ele><time>2026-04-27T15:54:01Z</time></trkpt><trkpt lat="42.30414698802315" lon="13.64281023702642"><ele>918.0</ele><time>2026-04-27T15:54:02Z</time></trkpt><trkpt lat="42.30408139339108" lon="13.6428381539734"><ele>918.0</ele><time>2026-04-27T15:54:03Z</time></trkpt><trkpt lat="42.30401183754291" lon="13.642836589480373"><ele>918.0</ele><time>2026-04-27T15:54:04Z</time></trkpt><trkpt lat="42.3039332218806" lon="13.642824411352217"><ele>915.8</ele><time>2026-04-27T15:54:06Z</time></trkpt><trkpt lat="42.30386828612904" lon="13.64286433882807"><ele>913.5999999999999</ele><time>2026-04-27T15:54:07Z</time></trkpt><trkpt lat="42.30377832162133" lon="13.642933482744825"><ele>911.4000000000001</ele><time>2026-04-27T15:54:08Z</time></trkpt><trkpt lat="42.303674277345735" lon="13.642986300197917"><ele>909.2</ele><time>2026-04-27T15:54:09Z</time></trkpt><trkpt lat="42.303559257213365" lon="13.643033022719896"><ele>907.0</ele><time>2026-04-27T15:54:10Z</time></trkpt><trkpt lat="42.30347739481309" lon="13.643068466864"><ele>906.9999999999999</ele><time>2026-04-27T15:54:11Z</time></trkpt><trkpt lat="42.303400841228736" lon="13.64308733986094"><ele>907.0</ele><time>2026-04-27T15:54:12Z</time></trkpt><trkpt lat="42.303325129549755" lon="13.643106222937822"><ele>907.0</ele><time>2026-04-27T15:54:13Z</time></trkpt><trkpt lat="42.30324274288382" lon="13.643081919703423"><ele>907.0</ele><time>2026-04-27T15:54:14Z</time></trkpt><trkpt lat="42.303157551172305" lon="13.643111813819026"><ele>906.9999999999999</ele><time>2026-04-27T15:54:15Z</time></trkpt><trkpt lat="42.30307751093508" lon="13.643139900276067"><ele>907.0</ele><time>2026-04-27T15:54:16Z</time></trkpt><trkpt lat="42.30300202924626" lon="13.643165117922715"><ele>904.3333333333333</ele><time>2026-04-27T15:54:17Z</time></trkpt><trkpt lat="42.302915489674746" lon="13.64318281909876"><ele>901.6666666666666</ele><time>2026-04-27T15:54:18Z</time></trkpt><trkpt lat="42.30282995342668" lon="13.643187634355398"><ele>899.0</ele><time>2026-04-27T15:54:19Z</time></trkpt><trkpt lat="42.30275088835042" lon="13.643175444034698"><ele>896.3333333333333</ele><time>2026-04-27T15:54:20Z</time></trkpt><trkpt lat="42.302657085440345" lon="13.643154065221383"><ele>893.6666666666666</ele><time>2026-04-27T15:54:21Z</time></trkpt><trkpt lat="42.30257672900307" lon="13.643120825900956"><ele>891.0</ele><time>2026-04-27T15:54:22Z</time></trkpt><trkpt lat="42.302482573934334" lon="13.643104147781482"><ele>891.0</ele><time>2026-04-27T15:54:23Z</time></trkpt><trkpt lat="42.30239779865417" lon="13.643072724544014"><ele>891.0</ele><time>2026-04-27T15:54:24Z</time></trkpt><trkpt lat="42.30231416333472" lon="13.643080384808025"><ele>891.0</ele><time>2026-04-27T15:54:25Z</time></trkpt><trkpt lat="42.302228045893465" lon="13.643118309129948"><ele>891.0</ele><time>2026-04-27T15:54:26Z</time></trkpt><trkpt lat="42.30215541640199" lon="13.64318068404421"><ele>891.0</ele><time>2026-04-27T15:54:27Z</time></trkpt><trkpt lat="42.30206880768473" lon="13.643213108856976"><ele>891.0</ele><time>2026-04-27T15:54:28Z</time></trkpt><trkpt lat="42.301985868709636" lon="13.643264926965562"><ele>889.0</ele><time>2026-04-27T15:54:29Z</time></trkpt><trkpt lat="42.30190024749978" lon="13.643295007041521"><ele>886.9999999999999</ele><time>2026-04-27T15:54:30Z</time></trkpt><trkpt lat="42.301798613691105" lon="13.643312730960837"><ele>884.9999999999999</ele><time>2026-04-27T15:54:31Z</time></trkpt><trkpt lat="42.301697740042364" lon="13.643355658506684"><ele>883.0</ele><time>2026-04-27T15:54:32Z</time></trkpt><trkpt lat="42.301598056319634" lon="13.643370945186831"><ele>881.0</ele><time>2026-04-27T15:54:33Z</time></trkpt><trkpt lat="42.3014888598644" lon="13.643400982463007"><ele>879.25</ele><time>2026-04-27T15:54:34Z</time></trkpt><trkpt lat="42.30136675404801" lon="13.643444550209914"><ele>877.5</ele><time>2026-04-27T15:54:35Z</time></trkpt><trkpt lat="42.301247272784586" lon="13.643480468482002"><ele>875.75</ele><time>2026-04-27T15:54:36Z</time></trkpt><trkpt lat="42.30112089512534" lon="13.643531685399202"><ele>874.0</ele><time>2026-04-27T15:54:37Z</time></trkpt><trkpt lat="42.30101154035796" lon="13.643593970350034"><ele>873.25</ele><time>2026-04-27T15:54:38Z</time></trkpt><trkpt lat="42.300880581995884" lon="13.643649007392368"><ele>872.5</ele><time>2026-04-27T15:54:39Z</time></trkpt><trkpt lat="42.30075151124871" lon="13.643698859732718"><ele>871.75</ele><time>2026-04-27T15:54:40Z</time></trkpt><trkpt lat="42.300637209744224" lon="13.643744328632112"><ele>871.0</ele><time>2026-04-27T15:54:41Z</time></trkpt><trkpt lat="42.30053761265294" lon="13.643759915799384"><ele>869.8</ele><time>2026-04-27T15:54:42Z</time></trkpt><trkpt lat="42.30043228970729" lon="13.643800118302568"><ele>868.5999999999999</ele><time>2026-04-27T15:54:43Z</time></trkpt><trkpt lat="42.30032738616292" lon="13.643833875003336"><ele>867.4</ele><time>2026-04-27T15:54:44Z</time></trkpt><trkpt lat="42.30021345613146" lon="13.643851782445847"><ele>866.2</ele><time>2026-04-27T15:54:45Z</time></trkpt><trkpt lat="42.30011833801452" lon="13.643885884278939"><ele>865.0</ele><time>2026-04-27T15:54:46Z</time></trkpt><trkpt lat="42.30002598695773" lon="13.643885586817815"><ele>864.9999999999999</ele><time>2026-04-27T15:54:47Z</time></trkpt><trkpt lat="42.29992215629125" lon="13.64384467404844"><ele>865.0</ele><time>2026-04-27T15:54:48Z</time></trkpt><trkpt lat="42.29984755074984" lon="13.643836802461552"><ele>865.0</ele><time>2026-04-27T15:54:49Z</time></trkpt><trkpt lat="42.299761950839226" lon="13.643826756346842"><ele>865.0</ele><time>2026-04-27T15:54:50Z</time></trkpt><trkpt lat="42.299687438011226" lon="13.643823600762385"><ele>864.9999999999999</ele><time>2026-04-27T15:54:51Z</time></trkpt><trkpt lat="42.299626796309084" lon="13.643751620969162"><ele>865.0</ele><time>2026-04-27T15:54:52Z</time></trkpt><trkpt lat="42.299548532814704" lon="13.643672959028084"><ele>863.2</ele><time>2026-04-27T15:54:53Z</time></trkpt><trkpt lat="42.29946196943847" lon="13.64359263600152"><ele>861.4</ele><time>2026-04-27T15:54:54Z</time></trkpt><trkpt lat="42.29937225728877" lon="13.643538252128439"><ele>859.5999999999999</ele><time>2026-04-27T15:54:55Z</time></trkpt><trkpt lat="42.29929242307968" lon="13.64346214642861"><ele>857.8</ele><time>2026-04-27T15:54:56Z</time></trkpt><trkpt lat="42.299209240079506" lon="13.64339145602082"><ele>856.0</ele><time>2026-04-27T15:54:57Z</time></trkpt><trkpt lat="42.29912706663866" lon="13.643315700165589"><ele>856.0</ele><time>2026-04-27T15:54:58Z</time></trkpt><trkpt lat="42.29902710730288" lon="13.643226517131867"><ele>855.9999999999999</ele><time>2026-04-27T15:54:59Z</time></trkpt><trkpt lat="42.2989352403788" lon="13.643138345833451"><ele>855.9999999999999</ele><time>2026-04-27T15:55:00Z</time></trkpt><trkpt lat="42.298869942518174" lon="13.643050221016368"><ele>856.0</ele><time>2026-04-27T15:55:01Z</time></trkpt><trkpt lat="42.29879511619095" lon="13.643001011435466"><ele>856.0</ele><time>2026-04-27T15:55:02Z</time></trkpt><trkpt lat="42.2987258346492" lon="13.642920476320226"><ele>854.8333333333333</ele><time>2026-04-27T15:55:03Z</time></trkpt><trkpt lat="42.298655401424675" lon="13.642828079304406"><ele>853.6666666666666</ele><time>2026-04-27T15:55:04Z</time></trkpt><trkpt lat="42.298599612008104" lon="13.6427306447026"><ele>852.5</ele><time>2026-04-27T15:55:05Z</time></trkpt><trkpt lat="42.298536745676664" lon="13.642649070302367"><ele>851.3333333333333</ele><time>2026-04-27T15:55:06Z</time></trkpt><trkpt lat="42.2984866249236" lon="13.642573951918047"><ele>850.1666666666666</ele><time>2026-04-27T15:55:07Z</time></trkpt><trkpt lat="42.298438037815735" lon="13.642485173994253"><ele>849.0</ele><time>2026-04-27T15:55:08Z</time></trkpt><trkpt lat="42.298380183115064" lon="13.642389792356532"><ele>848.0</ele><time>2026-04-27T15:55:09Z</time></trkpt><trkpt lat="42.29832238145419" lon="13.642300271198579"><ele>847.0</ele><time>2026-04-27T15:55:10Z</time></trkpt><trkpt lat="42.298275434527426" lon="13.642220064318016"><ele>846.0</ele><time>2026-04-27T15:55:11Z</time></trkpt><trkpt lat="42.29822186880672" lon="13.642153657185723"><ele>845.0</ele><time>2026-04-27T15:55:12Z</time></trkpt><trkpt lat="42.29817303253267" lon="13.642086176713045"><ele>844.0</ele><time>2026-04-27T15:55:13Z</time></trkpt><trkpt lat="42.29811819942174" lon="13.6420107753133"><ele>843.0</ele><time>2026-04-27T15:55:14Z</time></trkpt><trkpt lat="42.29807480882502" lon="13.641929688306664"><ele>841.0</ele><time>2026-04-27T15:55:15Z</time></trkpt><trkpt lat="42.2980247128457" lon="13.641863009629951"><ele>839.0</ele><time>2026-04-27T15:55:16Z</time></trkpt><trkpt lat="42.297973506575936" lon="13.641797195058315"><ele>837.0</ele><time>2026-04-27T15:55:17Z</time></trkpt><trkpt lat="42.297923981210275" lon="13.64173354077269"><ele>835.0</ele><time>2026-04-27T15:55:18Z</time></trkpt><trkpt lat="42.29788184354223" lon="13.64166849158622"><ele>833.0</ele><time>2026-04-27T15:55:19Z</time></trkpt><trkpt lat="42.29780668708902" lon="13.641532694750916"><ele>831.0</ele><time>2026-04-27T15:55:21Z</time></trkpt><trkpt lat="42.29776666051494" lon="13.641463413367237"><ele>831.0</ele><time>2026-04-27T15:55:22Z</time></trkpt><trkpt lat="42.29771177921493" lon="13.641364164798796"><ele>831.0</ele><time>2026-04-27T15:55:24Z</time></trkpt><trkpt lat="42.29729151726913" lon="13.641634628035801"><ele>829.1999999999999</ele><time>2026-04-27T15:55:25Z</time></trkpt><trkpt lat="42.29717670772435" lon="13.641617935396699"><ele>827.4</ele><time>2026-04-27T15:55:26Z</time></trkpt><trkpt lat="42.297078454652734" lon="13.641596532385462"><ele>825.6</ele><time>2026-04-27T15:55:27Z</time></trkpt><trkpt lat="42.29696235900116" lon="13.641571748572924"><ele>823.8</ele><time>2026-04-27T15:55:28Z</time></trkpt><trkpt lat="42.29685303120217" lon="13.641546071673563"><ele>822.0</ele><time>2026-04-27T15:55:29Z</time></trkpt><trkpt lat="42.29676724508476" lon="13.641528413835841"><ele>822.0</ele><time>2026-04-27T15:55:30Z</time></trkpt><trkpt lat="42.29668567742344" lon="13.641516815685884"><ele>822.0</ele><time>2026-04-27T15:55:31Z</time></trkpt><trkpt lat="42.29659098213959" lon="13.64154051427211"><ele>822.0</ele><time>2026-04-27T15:55:32Z</time></trkpt><trkpt lat="42.29647818665942" lon="13.641574930984664"><ele>822.0</ele><time>2026-04-27T15:55:33Z</time></trkpt><trkpt lat="42.29635958297952" lon="13.64157691738513"><ele>822.0</ele><time>2026-04-27T15:55:34Z</time></trkpt><trkpt lat="42.296248544017004" lon="13.641560399456376"><ele>819.75</ele><time>2026-04-27T15:55:35Z</time></trkpt><trkpt lat="42.29613784968978" lon="13.641520644277557"><ele>817.5</ele><time>2026-04-27T15:55:36Z</time></trkpt><trkpt lat="42.29602124064811" lon="13.641460035780598"><ele>815.25</ele><time>2026-04-27T15:55:37Z</time></trkpt><trkpt lat="42.29588657632324" lon="13.6413877827424"><ele>813.0</ele><time>2026-04-27T15:55:38Z</time></trkpt><trkpt lat="42.2957637219576" lon="13.641325004380024"><ele>813.0</ele><time>2026-04-27T15:55:39Z</time></trkpt><trkpt lat="42.29565674771742" lon="13.64129628878453"><ele>813.0</ele><time>2026-04-27T15:55:40Z</time></trkpt><trkpt lat="42.29552839751341" lon="13.641281476987324"><ele>813.0</ele><time>2026-04-27T15:55:41Z</time></trkpt><trkpt lat="42.29540025809204" lon="13.641276645686709"><ele>813.0</ele><time>2026-04-27T15:55:42Z</time></trkpt><trkpt lat="42.29527938413524" lon="13.641271225486559"><ele>811.2</ele><time>2026-04-27T15:55:43Z</time></trkpt><trkpt lat="42.29516706938722" lon="13.641252828536379"><ele>809.4</ele><time>2026-04-27T15:55:44Z</time></trkpt><trkpt lat="42.29505613869789" lon="13.641247560252443"><ele>807.6</ele><time>2026-04-27T15:55:45Z</time></trkpt><trkpt lat="42.29494941381806" lon="13.641245299998523"><ele>805.8000000000001</ele><time>2026-04-27T15:55:46Z</time></trkpt><trkpt lat="42.2948528835791" lon="13.641234286992129"><ele>804.0</ele><time>2026-04-27T15:55:47Z</time></trkpt><trkpt lat="42.29476378672266" lon="13.641228720617416"><ele>803.0</ele><time>2026-04-27T15:55:48Z</time></trkpt><trkpt lat="42.29467999247727" lon="13.641200981313819"><ele>802.0</ele><time>2026-04-27T15:55:49Z</time></trkpt><trkpt lat="42.2945959416359" lon="13.64116392802267"><ele>801.0</ele><time>2026-04-27T15:55:50Z</time></trkpt><trkpt lat="42.294529786731175" lon="13.641131222113609"><ele>800.0</ele><time>2026-04-27T15:55:51Z</time></trkpt><trkpt lat="42.294471560695534" lon="13.641097057615383"><ele>799.0</ele><time>2026-04-27T15:55:52Z</time></trkpt><trkpt lat="42.294373428190895" lon="13.64107083284999"><ele>798.0</ele><time>2026-04-27T15:55:54Z</time></trkpt><trkpt lat="42.2942851834696" lon="13.641143432813351"><ele>798.0</ele><time>2026-04-27T15:55:56Z</time></trkpt><trkpt lat="42.29424209498854" lon="13.641213289520945"><ele>798.0</ele><time>2026-04-27T15:55:57Z</time></trkpt><trkpt lat="42.29417479820924" lon="13.64127021670284"><ele>798.0</ele><time>2026-04-27T15:55:58Z</time></trkpt><trkpt lat="42.294113553928696" lon="13.641336450996095"><ele>798.0</ele><time>2026-04-27T15:55:59Z</time></trkpt><trkpt lat="42.29405191893088" lon="13.641403107782697"><ele>798.0</ele><time>2026-04-27T15:56:00Z</time></trkpt><trkpt lat="42.29399148684181" lon="13.641468959368808"><ele>798.0</ele><time>2026-04-27T15:56:01Z</time></trkpt><trkpt lat="42.29392542245209" lon="13.641545386591273"><ele>798.0</ele><time>2026-04-27T15:56:02Z</time></trkpt><trkpt lat="42.29385605794661" lon="13.641637747028339"><ele>798.0</ele><time>2026-04-27T15:56:03Z</time></trkpt><trkpt lat="42.293783274949476" lon="13.64175729281214"><ele>798.0</ele><time>2026-04-27T15:56:04Z</time></trkpt><trkpt lat="42.293714049275046" lon="13.641913511729548"><ele>798.0</ele><time>2026-04-27T15:56:05Z</time></trkpt><trkpt lat="42.293660904128835" lon="13.64208172441636"><ele>798.0</ele><time>2026-04-27T15:56:06Z</time></trkpt><trkpt lat="42.29360965240957" lon="13.642198789737463"><ele>798.0</ele><time>2026-04-27T15:56:07Z</time></trkpt><trkpt lat="42.29354356214842" lon="13.642269548522703"><ele>798.0</ele><time>2026-04-27T15:56:08Z</time></trkpt><trkpt lat="42.29345349238943" lon="13.642330423398212"><ele>798.0</ele><time>2026-04-27T15:56:09Z</time></trkpt><trkpt lat="42.29333863445268" lon="13.642404289920123"><ele>798.0</ele><time>2026-04-27T15:56:10Z</time></trkpt><trkpt lat="42.29321682166649" lon="13.642475116307152"><ele>798.0</ele><time>2026-04-27T15:56:11Z</time></trkpt><trkpt lat="42.29309037776882" lon="13.642541475598255"><ele>798.0</ele><time>2026-04-27T15:56:12Z</time></trkpt><trkpt lat="42.29295491801094" lon="13.64261112350146"><ele>798.0</ele><time>2026-04-27T15:56:13Z</time></trkpt><trkpt lat="42.29281506665115" lon="13.64268311995387"><ele>798.0</ele><time>2026-04-27T15:56:14Z</time></trkpt><trkpt lat="42.29267787806124" lon="13.642753893078567"><ele>797.75</ele><time>2026-04-27T15:56:15Z</time></trkpt><trkpt lat="42.29254254847081" lon="13.6428237072396"><ele>797.5</ele><time>2026-04-27T15:56:16Z</time></trkpt><trkpt lat="42.29241350203377" lon="13.642889358838076"><ele>797.25</ele><time>2026-04-27T15:56:17Z</time></trkpt><trkpt lat="42.292287671024" lon="13.642951670529584"><ele>797.0</ele><time>2026-04-27T15:56:18Z</time></trkpt><trkpt lat="42.29216481435857" lon="13.64300947568761"><ele>796.5</ele><time>2026-04-27T15:56:19Z</time></trkpt><trkpt lat="42.29205053068821" lon="13.643057090282586"><ele>796.0</ele><time>2026-04-27T15:56:20Z</time></trkpt><trkpt lat="42.291936652821846" lon="13.643098273289363"><ele>795.5</ele><time>2026-04-27T15:56:21Z</time></trkpt><trkpt lat="42.29182174297164" lon="13.643133321226854"><ele>795.0</ele><time>2026-04-27T15:56:22Z</time></trkpt><trkpt lat="42.29171147209366" lon="13.643158320948377"><ele>795.0</ele><time>2026-04-27T15:56:23Z</time></trkpt><trkpt lat="42.29160429111292" lon="13.643171282164618"><ele>795.0</ele><time>2026-04-27T15:56:24Z</time></trkpt><trkpt lat="42.29150060421779" lon="13.643153313260658"><ele>795.0</ele><time>2026-04-27T15:56:25Z</time></trkpt><trkpt lat="42.291414441735675" lon="13.643087337418343"><ele>795.0</ele><time>2026-04-27T15:56:26Z</time></trkpt><trkpt lat="42.2913272531465" lon="13.643045310654795"><ele>795.0</ele><time>2026-04-27T15:56:27Z</time></trkpt><trkpt lat="42.29123305444344" lon="13.643021177411011"><ele>794.0</ele><time>2026-04-27T15:56:28Z</time></trkpt><trkpt lat="42.29112990293843" lon="13.643026237507717"><ele>793.0</ele><time>2026-04-27T15:56:29Z</time></trkpt><trkpt lat="42.29101209754678" lon="13.64305288844543"><ele>792.0</ele><time>2026-04-27T15:56:30Z</time></trkpt><trkpt lat="42.29089310942259" lon="13.643084712279471"><ele>791.0</ele><time>2026-04-27T15:56:31Z</time></trkpt><trkpt lat="42.2907677438814" lon="13.643118241801906"><ele>791.0</ele><time>2026-04-27T15:56:32Z</time></trkpt><trkpt lat="42.290641925847446" lon="13.643151000278152"><ele>791.0</ele><time>2026-04-27T15:56:33Z</time></trkpt><trkpt lat="42.290512593670705" lon="13.643174053647515"><ele>791.0</ele><time>2026-04-27T15:56:34Z</time></trkpt><trkpt lat="42.290385966394695" lon="13.643186321154861"><ele>791.0</ele><time>2026-04-27T15:56:35Z</time></trkpt><trkpt lat="42.290256027102636" lon="13.643195727796313"><ele>789.75</ele><time>2026-04-27T15:56:36Z</time></trkpt><trkpt lat="42.2901229989038" lon="13.643211367470826"><ele>788.5</ele><time>2026-04-27T15:56:37Z</time></trkpt><trkpt lat="42.289993470523406" lon="13.643229498383112"><ele>787.25</ele><time>2026-04-27T15:56:38Z</time></trkpt><trkpt lat="42.28986772568534" lon="13.643259841515892"><ele>786.0</ele><time>2026-04-27T15:56:39Z</time></trkpt><trkpt lat="42.28977777171996" lon="13.643325906853514"><ele>787.0</ele><time>2026-04-27T15:56:40Z</time></trkpt><trkpt lat="42.289705051985024" lon="13.643380244401339"><ele>788.0</ele><time>2026-04-27T15:56:41Z</time></trkpt><trkpt lat="42.28966086195299" lon="13.643484166813053"><ele>789.0</ele><time>2026-04-27T15:56:42Z</time></trkpt><trkpt lat="42.28967174137809" lon="13.6436261249218"><ele>790.0</ele><time>2026-04-27T15:56:43Z</time></trkpt><trkpt lat="42.28973075486762" lon="13.643750912178866"><ele>791.0</ele><time>2026-04-27T15:56:44Z</time></trkpt><trkpt lat="42.28975884375346" lon="13.643890235306433"><ele>791.0</ele><time>2026-04-27T15:56:45Z</time></trkpt><trkpt lat="42.28978673817352" lon="13.644033592325112"><ele>791.0</ele><time>2026-04-27T15:56:46Z</time></trkpt><trkpt lat="42.289804123977554" lon="13.644181074608936"><ele>791.0</ele><time>2026-04-27T15:56:47Z</time></trkpt><trkpt lat="42.28982061067313" lon="13.644327789636227"><ele>791.0</ele><time>2026-04-27T15:56:48Z</time></trkpt><trkpt lat="42.28983497607155" lon="13.64446768717778"><ele>791.0</ele><time>2026-04-27T15:56:49Z</time></trkpt><trkpt lat="42.28985088971392" lon="13.644617627384006"><ele>792.0</ele><time>2026-04-27T15:56:50Z</time></trkpt><trkpt lat="42.289879742438785" lon="13.644768843187025"><ele>793.0</ele><time>2026-04-27T15:56:51Z</time></trkpt><trkpt lat="42.28992044304517" lon="13.64491961190526"><ele>794.0</ele><time>2026-04-27T15:56:52Z</time></trkpt><trkpt lat="42.28996364001069" lon="13.645072030521057"><ele>795.0</ele><time>2026-04-27T15:56:53Z</time></trkpt><trkpt lat="42.29000697510335" lon="13.645225215022098"><ele>795.2</ele><time>2026-04-27T15:56:54Z</time></trkpt><trkpt lat="42.29005019316367" lon="13.645377782747415"><ele>795.4</ele><time>2026-04-27T15:56:55Z</time></trkpt><trkpt lat="42.29007773792406" lon="13.645510913172629"><ele>795.5999999999999</ele><time>2026-04-27T15:56:56Z</time></trkpt><trkpt lat="42.290089092209" lon="13.64564975210178"><ele>795.8</ele><time>2026-04-27T15:56:57Z</time></trkpt><trkpt lat="42.29008732655853" lon="13.645793646014353"><ele>796.0</ele><time>2026-04-27T15:56:58Z</time></trkpt><trkpt lat="42.29007809711197" lon="13.645947252439441"><ele>796.0</ele><time>2026-04-27T15:56:59Z</time></trkpt><trkpt lat="42.29005992310979" lon="13.64609961455173"><ele>796.0</ele><time>2026-04-27T15:57:00Z</time></trkpt><trkpt lat="42.29003004163393" lon="13.646251269595217"><ele>796.0</ele><time>2026-04-27T15:57:01Z</time></trkpt><trkpt lat="42.2899861503669" lon="13.64639568237605"><ele>796.0</ele><time>2026-04-27T15:57:02Z</time></trkpt><trkpt lat="42.2899193072403" lon="13.64651697901287"><ele>794.75</ele><time>2026-04-27T15:57:03Z</time></trkpt><trkpt lat="42.289844491894705" lon="13.646640819353024"><ele>793.5</ele><time>2026-04-27T15:57:04Z</time></trkpt><trkpt lat="42.28977062545115" lon="13.646767532923137"><ele>792.25</ele><time>2026-04-27T15:57:05Z</time></trkpt><trkpt lat="42.28970179264237" lon="13.646910228299204"><ele>791.0</ele><time>2026-04-27T15:57:06Z</time></trkpt><trkpt lat="42.28964127971576" lon="13.647063871322361"><ele>791.0</ele><time>2026-04-27T15:57:07Z</time></trkpt><trkpt lat="42.289592130747224" lon="13.647234648475088"><ele>791.0</ele><time>2026-04-27T15:57:08Z</time></trkpt><trkpt lat="42.289560584698165" lon="13.64739477502363"><ele>791.0</ele><time>2026-04-27T15:57:09Z</time></trkpt><trkpt lat="42.289526745028446" lon="13.647531589144679"><ele>791.0</ele><time>2026-04-27T15:57:10Z</time></trkpt><trkpt lat="42.28949110973129" lon="13.64766363829418"><ele>791.0</ele><time>2026-04-27T15:57:11Z</time></trkpt><trkpt lat="42.28943162348373" lon="13.647779065767534"><ele>791.0</ele><time>2026-04-27T15:57:12Z</time></trkpt><trkpt lat="42.28935411692533" lon="13.647902080747073"><ele>791.0</ele><time>2026-04-27T15:57:13Z</time></trkpt><trkpt lat="42.28926865203166" lon="13.648026387498566"><ele>791.0</ele><time>2026-04-27T15:57:14Z</time></trkpt><trkpt lat="42.28917510240061" lon="13.648157104395931"><ele>790.25</ele><time>2026-04-27T15:57:15Z</time></trkpt><trkpt lat="42.28908259460873" lon="13.648286365595236"><ele>789.5</ele><time>2026-04-27T15:57:16Z</time></trkpt><trkpt lat="42.28898982007617" lon="13.648413936211902"><ele>788.75</ele><time>2026-04-27T15:57:17Z</time></trkpt><trkpt lat="42.288893033642445" lon="13.648543503305774"><ele>788.0</ele><time>2026-04-27T15:57:18Z</time></trkpt><trkpt lat="42.28879023457061" lon="13.648671061992292"><ele>788.0</ele><time>2026-04-27T15:57:19Z</time></trkpt><trkpt lat="42.2886778599956" lon="13.648794475848614"><ele>788.0</ele><time>2026-04-27T15:57:20Z</time></trkpt><trkpt lat="42.28855789809947" lon="13.648909894214423"><ele>788.0</ele><time>2026-04-27T15:57:21Z</time></trkpt><trkpt lat="42.288435914760555" lon="13.649032281126495"><ele>788.0</ele><time>2026-04-27T15:57:22Z</time></trkpt><trkpt lat="42.28831225725018" lon="13.649152356305875"><ele>788.0</ele><time>2026-04-27T15:57:23Z</time></trkpt><trkpt lat="42.28819470574949" lon="13.649269624219277"><ele>788.0</ele><time>2026-04-27T15:57:24Z</time></trkpt><trkpt lat="42.28807951107137" lon="13.649392343497007"><ele>788.0</ele><time>2026-04-27T15:57:25Z</time></trkpt><trkpt lat="42.28797538617163" lon="13.649529963139736"><ele>788.0</ele><time>2026-04-27T15:57:26Z</time></trkpt><trkpt lat="42.28789113219077" lon="13.649681368382481"><ele>786.0</ele><time>2026-04-27T15:57:27Z</time></trkpt><trkpt lat="42.28783320026013" lon="13.649850989129959"><ele>784.0</ele><time>2026-04-27T15:57:28Z</time></trkpt><trkpt lat="42.28776123926149" lon="13.64997968865693"><ele>782.0</ele><time>2026-04-27T15:57:29Z</time></trkpt><trkpt lat="42.28770954490411" lon="13.650114228909686"><ele>780.0</ele><time>2026-04-27T15:57:30Z</time></trkpt><trkpt lat="42.28765832379805" lon="13.650260451828492"><ele>781.25</ele><time>2026-04-27T15:57:31Z</time></trkpt><trkpt lat="42.287608607066076" lon="13.65041516748621"><ele>782.5</ele><time>2026-04-27T15:57:32Z</time></trkpt><trkpt lat="42.287561219705985" lon="13.650585353474158"><ele>783.75</ele><time>2026-04-27T15:57:33Z</time></trkpt><trkpt lat="42.287519892711344" lon="13.650761904761946"><ele>785.0</ele><time>2026-04-27T15:57:34Z</time></trkpt><trkpt lat="42.28748705514288" lon="13.650942477872736"><ele>785.75</ele><time>2026-04-27T15:57:35Z</time></trkpt><trkpt lat="42.287462426459314" lon="13.651131862562895"><ele>786.5</ele><time>2026-04-27T15:57:36Z</time></trkpt><trkpt lat="42.287448457736524" lon="13.651320358921291"><ele>787.25</ele><time>2026-04-27T15:57:37Z</time></trkpt><trkpt lat="42.28745250089955" lon="13.651512023063654"><ele>788.0</ele><time>2026-04-27T15:57:38Z</time></trkpt><trkpt lat="42.28748213283192" lon="13.651698082977775"><ele>788.0</ele><time>2026-04-27T15:57:39Z</time></trkpt><trkpt lat="42.28750991302076" lon="13.651871454485143"><ele>788.0</ele><time>2026-04-27T15:57:40Z</time></trkpt><trkpt lat="42.28751504723586" lon="13.652030266284218"><ele>788.0</ele><time>2026-04-27T15:57:41Z</time></trkpt><trkpt lat="42.28748405993779" lon="13.652164998593134"><ele>788.0</ele><time>2026-04-27T15:57:42Z</time></trkpt><trkpt lat="42.28741704038789" lon="13.652283026111094"><ele>789.25</ele><time>2026-04-27T15:57:43Z</time></trkpt><trkpt lat="42.28733972046155" lon="13.652408087269665"><ele>790.5</ele><time>2026-04-27T15:57:44Z</time></trkpt><trkpt lat="42.28726257005756" lon="13.652542806776019"><ele>791.75</ele><time>2026-04-27T15:57:45Z</time></trkpt><trkpt lat="42.28719209455364" lon="13.652672616138403"><ele>793.0</ele><time>2026-04-27T15:57:46Z</time></trkpt><trkpt lat="42.28712861947674" lon="13.652808444473637"><ele>789.75</ele><time>2026-04-27T15:57:47Z</time></trkpt><trkpt lat="42.28708199915063" lon="13.652971808203013"><ele>786.5</ele><time>2026-04-27T15:57:48Z</time></trkpt><trkpt lat="42.287053702889565" lon="13.653149879789943"><ele>783.25</ele><time>2026-04-27T15:57:49Z</time></trkpt><trkpt lat="42.287026838927574" lon="13.653330581079555"><ele>780.0</ele><time>2026-04-27T15:57:50Z</time></trkpt><trkpt lat="42.28700129623257" lon="13.653516737694698"><ele>781.75</ele><time>2026-04-27T15:57:51Z</time></trkpt><trkpt lat="42.286968817080584" lon="13.653694895735203"><ele>783.5</ele><time>2026-04-27T15:57:52Z</time></trkpt><trkpt lat="42.28693045317553" lon="13.653872770646988"><ele>785.25</ele><time>2026-04-27T15:57:53Z</time></trkpt><trkpt lat="42.28688378509839" lon="13.65403326962218"><ele>787.0</ele><time>2026-04-27T15:57:54Z</time></trkpt><trkpt lat="42.28682720529777" lon="13.654154504008407"><ele>787.0</ele><time>2026-04-27T15:57:55Z</time></trkpt><trkpt lat="42.286765901723285" lon="13.654255937110877"><ele>787.0</ele><time>2026-04-27T15:57:56Z</time></trkpt><trkpt lat="42.28669798276495" lon="13.654339472541407"><ele>787.0</ele><time>2026-04-27T15:57:57Z</time></trkpt><trkpt lat="42.28662500394637" lon="13.654433176901604"><ele>787.0</ele><time>2026-04-27T15:57:58Z</time></trkpt><trkpt lat="42.286563135483966" lon="13.654541566390801"><ele>787.0</ele><time>2026-04-27T15:57:59Z</time></trkpt><trkpt lat="42.28650473411533" lon="13.65464504940732"><ele>788.0</ele><time>2026-04-27T15:58:00Z</time></trkpt><trkpt lat="42.28643947976988" lon="13.654739013217194"><ele>789.0</ele><time>2026-04-27T15:58:01Z</time></trkpt><trkpt lat="42.28636206132348" lon="13.654840402939756"><ele>790.0</ele><time>2026-04-27T15:58:02Z</time></trkpt><trkpt lat="42.28629465457292" lon="13.6549412106627"><ele>791.0</ele><time>2026-04-27T15:58:03Z</time></trkpt><trkpt lat="42.28624300848511" lon="13.655025258663716"><ele>792.0</ele><time>2026-04-27T15:58:04Z</time></trkpt><trkpt lat="42.286199250746385" lon="13.65511204257134"><ele>790.2</ele><time>2026-04-27T15:58:06Z</time></trkpt><trkpt lat="42.286188347231096" lon="13.655262212002329"><ele>788.4000000000001</ele><time>2026-04-27T15:58:09Z</time></trkpt><trkpt lat="42.2861982672373" lon="13.655346656360244"><ele>786.5999999999999</ele><time>2026-04-27T15:58:10Z</time></trkpt><trkpt lat="42.28614877682655" lon="13.655425041986316"><ele>784.8</ele><time>2026-04-27T15:58:11Z</time></trkpt><trkpt lat="42.28612256404121" lon="13.655530312165927"><ele>783.0</ele><time>2026-04-27T15:58:12Z</time></trkpt><trkpt lat="42.2860721967767" lon="13.655721627125072"><ele>783.0</ele><time>2026-04-27T15:58:14Z</time></trkpt><trkpt lat="42.286047641739145" lon="13.655825486892798"><ele>783.0</ele><time>2026-04-27T15:58:15Z</time></trkpt><trkpt lat="42.28603411800762" lon="13.65593020401634"><ele>783.0</ele><time>2026-04-27T15:58:16Z</time></trkpt><trkpt lat="42.28603996449368" lon="13.656040659315188"><ele>783.0</ele><time>2026-04-27T15:58:17Z</time></trkpt><trkpt lat="42.286037542192815" lon="13.656186191293758"><ele>783.0</ele><time>2026-04-27T15:58:19Z</time></trkpt><trkpt lat="42.28603543916329" lon="13.656312541560382"><ele>783.0</ele><time>2026-04-27T15:58:21Z</time></trkpt><trkpt lat="42.28603882717548" lon="13.65618022880451"><ele>783.0</ele><time>2026-04-27T15:58:45Z</time></trkpt><trkpt lat="42.286074820798255" lon="13.656068784035995"><ele>783.0</ele><time>2026-04-27T15:58:46Z</time></trkpt><trkpt lat="42.286070434673434" lon="13.655961899769368"><ele>783.0</ele><time>2026-04-27T15:58:47Z</time></trkpt><trkpt lat="42.28607388727728" lon="13.65584689676694"><ele>783.0</ele><time>2026-04-27T15:58:48Z</time></trkpt><trkpt lat="42.28609249189493" lon="13.655747423310812"><ele>783.0</ele><time>2026-04-27T15:58:49Z</time></trkpt><trkpt lat="42.28611698517987" lon="13.655631782255313"><ele>783.0</ele><time>2026-04-27T15:58:50Z</time></trkpt><trkpt lat="42.28614402841789" lon="13.655522081890979"><ele>783.0</ele><time>2026-04-27T15:58:51Z</time></trkpt><trkpt lat="42.286171100006236" lon="13.655422033459006"><ele>783.0</ele><time>2026-04-27T15:58:52Z</time></trkpt><trkpt lat="42.28620180122231" lon="13.655305443313186"><ele>783.0</ele><time>2026-04-27T15:58:54Z</time></trkpt><trkpt lat="42.28627299805106" lon="13.65524206503599"><ele>783.0</ele><time>2026-04-27T15:58:58Z</time></trkpt><trkpt lat="42.2863434305899" lon="13.655335436261296"><ele>783.0</ele><time>2026-04-27T15:59:00Z</time></trkpt><trkpt lat="42.286401438411076" lon="13.655458981363337"><ele>783.0</ele><time>2026-04-27T15:59:02Z</time></trkpt><trkpt lat="42.286407717756845" lon="13.65560921448822"><ele>783.0</ele><time>2026-04-27T15:59:04Z</time></trkpt><trkpt lat="42.286399049057515" lon="13.655725915352082"><ele>783.0</ele><time>2026-04-27T15:59:05Z</time></trkpt><trkpt lat="42.28638978947702" lon="13.655860942546987"><ele>783.0</ele><time>2026-04-27T15:59:06Z</time></trkpt><trkpt lat="42.28638040519351" lon="13.655994556090189"><ele>783.0</ele><time>2026-04-27T15:59:07Z</time></trkpt><trkpt lat="42.2863719407499" lon="13.656125170115496"><ele>783.6666666666666</ele><time>2026-04-27T15:59:08Z</time></trkpt><trkpt lat="42.28635863241003" lon="13.656275956362519"><ele>784.3333333333333</ele><time>2026-04-27T15:59:09Z</time></trkpt><trkpt lat="42.286357564735965" lon="13.656407372881999"><ele>785.0</ele><time>2026-04-27T15:59:10Z</time></trkpt><trkpt lat="42.28637000294293" lon="13.656506011052945"><ele>785.6666666666666</ele><time>2026-04-27T15:59:11Z</time></trkpt><trkpt lat="42.286410912447366" lon="13.65657447550436"><ele>786.3333333333333</ele><time>2026-04-27T15:59:12Z</time></trkpt><trkpt lat="42.286483824355514" lon="13.65661903277467"><ele>787.0</ele><time>2026-04-27T15:59:13Z</time></trkpt><trkpt lat="42.28655514923814" lon="13.656627807389597"><ele>789.9999999999999</ele><time>2026-04-27T15:59:14Z</time></trkpt><trkpt lat="42.28663123290321" lon="13.656630643602698"><ele>793.0</ele><time>2026-04-27T15:59:15Z</time></trkpt><trkpt lat="42.28669482953064" lon="13.656742617894418"><ele>796.0</ele><time>2026-04-27T15:59:17Z</time></trkpt><trkpt lat="42.286674424012716" lon="13.656830845387534"><ele>799.0</ele><time>2026-04-27T15:59:18Z</time></trkpt><trkpt lat="42.286624324609136" lon="13.656900312356372"><ele>801.9999999999999</ele><time>2026-04-27T15:59:19Z</time></trkpt><trkpt lat="42.2865734286545" lon="13.656966334324697"><ele>805.0</ele><time>2026-04-27T15:59:20Z</time></trkpt><trkpt lat="42.2865307116746" lon="13.657051006675495"><ele>803.4999999999999</ele><time>2026-04-27T15:59:21Z</time></trkpt><trkpt lat="42.28648990412839" lon="13.657136799171466"><ele>802.0</ele><time>2026-04-27T15:59:22Z</time></trkpt><trkpt lat="42.286445248405194" lon="13.657232310019332"><ele>800.5</ele><time>2026-04-27T15:59:23Z</time></trkpt><trkpt lat="42.28636825763672" lon="13.657310335776927"><ele>799.0</ele><time>2026-04-27T15:59:24Z</time></trkpt><trkpt lat="42.286317547536335" lon="13.657412210568427"><ele>797.4999999999999</ele><time>2026-04-27T15:59:25Z</time></trkpt><trkpt lat="42.28626149645586" lon="13.657517171902285"><ele>796.0</ele><time>2026-04-27T15:59:26Z</time></trkpt><trkpt lat="42.28617358682393" lon="13.657664939427152"><ele>795.9999999999999</ele><time>2026-04-27T15:59:28Z</time></trkpt><trkpt lat="42.28613464263695" lon="13.657749340001365"><ele>796.0</ele><time>2026-04-27T15:59:29Z</time></trkpt><trkpt lat="42.28606620797947" lon="13.657809320998428"><ele>796.0</ele><time>2026-04-27T15:59:30Z</time></trkpt><trkpt lat="42.28601845213604" lon="13.657897398715754"><ele>796.0</ele><time>2026-04-27T15:59:31Z</time></trkpt><trkpt lat="42.28597667314589" lon="13.657992412930989"><ele>796.0</ele><time>2026-04-27T15:59:32Z</time></trkpt><trkpt lat="42.285928787573994" lon="13.658057742227662"><ele>795.9999999999999</ele><time>2026-04-27T15:59:33Z</time></trkpt><trkpt lat="42.28587752787349" lon="13.658107236792086"><ele>796.0</ele><time>2026-04-27T15:59:34Z</time></trkpt><trkpt lat="42.285823301590256" lon="13.658215836050303"><ele>796.3333333333333</ele><time>2026-04-27T15:59:35Z</time></trkpt><trkpt lat="42.28576675827383" lon="13.658297617606936"><ele>796.6666666666666</ele><time>2026-04-27T15:59:36Z</time></trkpt><trkpt lat="42.285672309090174" lon="13.658312644489273"><ele>797.0</ele><time>2026-04-27T15:59:37Z</time></trkpt><trkpt lat="42.28563227490253" lon="13.658380787190925"><ele>797.3333333333333</ele><time>2026-04-27T15:59:38Z</time></trkpt><trkpt lat="42.28558833844273" lon="13.65845242159064"><ele>797.6666666666666</ele><time>2026-04-27T15:59:39Z</time></trkpt><trkpt lat="42.28553170246801" lon="13.6585403581982"><ele>798.0</ele><time>2026-04-27T15:59:40Z</time></trkpt><trkpt lat="42.28547179018372" lon="13.658637360620695"><ele>798.0</ele><time>2026-04-27T15:59:41Z</time></trkpt><trkpt lat="42.28542473405152" lon="13.658722672336468"><ele>798.0</ele><time>2026-04-27T15:59:42Z</time></trkpt><trkpt lat="42.28538529620293" lon="13.658792511066515"><ele>798.0</ele><time>2026-04-27T15:59:43Z</time></trkpt><trkpt lat="42.28533252459141" lon="13.658885961845016"><ele>798.0</ele><time>2026-04-27T15:59:44Z</time></trkpt><trkpt lat="42.285285479799825" lon="13.658963823821031"><ele>798.0</ele><time>2026-04-27T15:59:45Z</time></trkpt><trkpt lat="42.28517121411784" lon="13.6590870857495"><ele>798.0</ele><time>2026-04-27T15:59:47Z</time></trkpt><trkpt lat="42.285100310945765" lon="13.65917708013527"><ele>798.0</ele><time>2026-04-27T15:59:48Z</time></trkpt><trkpt lat="42.285038295077605" lon="13.65926122406225"><ele>798.0</ele><time>2026-04-27T15:59:49Z</time></trkpt><trkpt lat="42.28497438485033" lon="13.659356239526346"><ele>798.0</ele><time>2026-04-27T15:59:50Z</time></trkpt><trkpt lat="42.28492033653055" lon="13.65946258687818"><ele>798.0</ele><time>2026-04-27T15:59:51Z</time></trkpt><trkpt lat="42.284888867333294" lon="13.659558335006892"><ele>797.4</ele><time>2026-04-27T15:59:52Z</time></trkpt><trkpt lat="42.28487015407432" lon="13.65974142598993"><ele>796.8</ele><time>2026-04-27T15:59:54Z</time></trkpt><trkpt lat="42.28484099798423" lon="13.659836519564445"><ele>796.2</ele><time>2026-04-27T15:59:55Z</time></trkpt><trkpt lat="42.284788115656575" lon="13.659947148153764"><ele>795.6</ele><time>2026-04-27T15:59:56Z</time></trkpt><trkpt lat="42.28471917978951" lon="13.660049728521509"><ele>795.0</ele><time>2026-04-27T15:59:57Z</time></trkpt><trkpt lat="42.284635660614036" lon="13.660153149887158"><ele>795.0</ele><time>2026-04-27T15:59:58Z</time></trkpt><trkpt lat="42.28454691411702" lon="13.660256652684247"><ele>795.0</ele><time>2026-04-27T15:59:59Z</time></trkpt><trkpt lat="42.284449040215875" lon="13.660351356923064"><ele>795.0</ele><time>2026-04-27T16:00:00Z</time></trkpt><trkpt lat="42.284339397901356" lon="13.66043519216007"><ele>795.0</ele><time>2026-04-27T16:00:01Z</time></trkpt><trkpt lat="42.28423377490321" lon="13.660538359069943"><ele>799.0</ele><time>2026-04-27T16:00:02Z</time></trkpt><trkpt lat="42.28413639234188" lon="13.660655603937762"><ele>803.0</ele><time>2026-04-27T16:00:03Z</time></trkpt><trkpt lat="42.28404564069663" lon="13.66079160169336"><ele>807.0</ele><time>2026-04-27T16:00:04Z</time></trkpt><trkpt lat="42.2839691698255" lon="13.660948879501182"><ele>811.0</ele><time>2026-04-27T16:00:05Z</time></trkpt><trkpt lat="42.283894066288894" lon="13.661128381133466"><ele>811.0</ele><time>2026-04-27T16:00:06Z</time></trkpt><trkpt lat="42.283821051471925" lon="13.661305643671167"><ele>811.0</ele><time>2026-04-27T16:00:07Z</time></trkpt><trkpt lat="42.28375061402001" lon="13.661476653384701"><ele>811.0</ele><time>2026-04-27T16:00:08Z</time></trkpt><trkpt lat="42.28367706252884" lon="13.661655223434872"><ele>811.0</ele><time>2026-04-27T16:00:09Z</time></trkpt><trkpt lat="42.28367562743068" lon="13.661901702712964"><ele>815.75</ele><time>2026-04-27T16:00:10Z</time></trkpt><trkpt lat="42.28361905656848" lon="13.662087707185906"><ele>820.5</ele><time>2026-04-27T16:00:11Z</time></trkpt><trkpt lat="42.28355566571277" lon="13.662273989164602"><ele>825.25</ele><time>2026-04-27T16:00:12Z</time></trkpt><trkpt lat="42.283492302577464" lon="13.66243977248615"><ele>830.0</ele><time>2026-04-27T16:00:13Z</time></trkpt><trkpt lat="42.283421326992894" lon="13.662615391868314"><ele>834.0</ele><time>2026-04-27T16:00:14Z</time></trkpt><trkpt lat="42.283358834289864" lon="13.662794459065985"><ele>838.0</ele><time>2026-04-27T16:00:15Z</time></trkpt><trkpt lat="42.28329562185598" lon="13.662979665178874"><ele>842.0</ele><time>2026-04-27T16:00:16Z</time></trkpt><trkpt lat="42.28322584212514" lon="13.663159139098202"><ele>846.0</ele><time>2026-04-27T16:00:17Z</time></trkpt><trkpt lat="42.28314319140804" lon="13.663338053878773"><ele>840.0</ele><time>2026-04-27T16:00:18Z</time></trkpt><trkpt lat="42.28306613559747" lon="13.663511356828948"><ele>834.0</ele><time>2026-04-27T16:00:19Z</time></trkpt><trkpt lat="42.282982245674084" lon="13.663695322164395"><ele>828.0</ele><time>2026-04-27T16:00:20Z</time></trkpt><trkpt lat="42.28289756056675" lon="13.663888803344738"><ele>828.0</ele><time>2026-04-27T16:00:21Z</time></trkpt><trkpt lat="42.28281039911529" lon="13.664088557175258"><ele>828.0</ele><time>2026-04-27T16:00:22Z</time></trkpt><trkpt lat="42.28272519807226" lon="13.664288130793942"><ele>828.0</ele><time>2026-04-27T16:00:23Z</time></trkpt><trkpt lat="42.28263279330278" lon="13.664493479569023"><ele>833.0</ele><time>2026-04-27T16:00:24Z</time></trkpt><trkpt lat="42.28254477764164" lon="13.664715613162262"><ele>838.0</ele><time>2026-04-27T16:00:25Z</time></trkpt><trkpt lat="42.28245532769142" lon="13.664931494639571"><ele>843.0</ele><time>2026-04-27T16:00:26Z</time></trkpt><trkpt lat="42.282365313167546" lon="13.66515576928149"><ele>848.0</ele><time>2026-04-27T16:00:27Z</time></trkpt><trkpt lat="42.282270374145114" lon="13.665369616914694"><ele>853.0</ele><time>2026-04-27T16:00:28Z</time></trkpt><trkpt lat="42.28217249058024" lon="13.665581847000219"><ele>858.0</ele><time>2026-04-27T16:00:29Z</time></trkpt><trkpt lat="42.282085464206155" lon="13.665797856884868"><ele>852.6666666666667</ele><time>2026-04-27T16:00:30Z</time></trkpt><trkpt lat="42.28199700672244" lon="13.666013686688663"><ele>847.3333333333334</ele><time>2026-04-27T16:00:31Z</time></trkpt><trkpt lat="42.281908689972944" lon="13.666225238431064"><ele>842.0</ele><time>2026-04-27T16:00:32Z</time></trkpt><trkpt lat="42.28182361570726" lon="13.666432465521067"><ele>842.0</ele><time>2026-04-27T16:00:33Z</time></trkpt><trkpt lat="42.281734368600354" lon="13.666633666969298"><ele>842.0</ele><time>2026-04-27T16:00:34Z</time></trkpt><trkpt lat="42.28164158267862" lon="13.6668466702484"><ele>842.0</ele><time>2026-04-27T16:00:35Z</time></trkpt><trkpt lat="42.28154071085862" lon="13.667049782457221"><ele>838.3333333333334</ele><time>2026-04-27T16:00:36Z</time></trkpt><trkpt lat="42.28144385022544" lon="13.667248865084993"><ele>834.6666666666667</ele><time>2026-04-27T16:00:37Z</time></trkpt><trkpt lat="42.281357084185004" lon="13.667460874707817"><ele>831.0</ele><time>2026-04-27T16:00:38Z</time></trkpt><trkpt lat="42.281269202372435" lon="13.667680332880481"><ele>835.0</ele><time>2026-04-27T16:00:39Z</time></trkpt><trkpt lat="42.28117676772668" lon="13.667890417072025"><ele>839.0</ele><time>2026-04-27T16:00:40Z</time></trkpt><trkpt lat="42.28107645027677" lon="13.668090451232995"><ele>843.0</ele><time>2026-04-27T16:00:41Z</time></trkpt><trkpt lat="42.280971769868685" lon="13.668294171402898"><ele>843.0</ele><time>2026-04-27T16:00:42Z</time></trkpt><trkpt lat="42.280877108162606" lon="13.668473258188492"><ele>843.0</ele><time>2026-04-27T16:00:43Z</time></trkpt><trkpt lat="42.28076358092466" lon="13.668659238999963"><ele>843.0</ele><time>2026-04-27T16:00:44Z</time></trkpt><trkpt lat="42.280648070734735" lon="13.668833225557579"><ele>840.3333333333333</ele><time>2026-04-27T16:00:45Z</time></trkpt><trkpt lat="42.28051618888467" lon="13.66901665746743"><ele>837.6666666666666</ele><time>2026-04-27T16:00:46Z</time></trkpt><trkpt lat="42.28040044304901" lon="13.669191462211048"><ele>835.0</ele><time>2026-04-27T16:00:47Z</time></trkpt><trkpt lat="42.28028108303806" lon="13.669374145013126"><ele>840.3333333333333</ele><time>2026-04-27T16:00:48Z</time></trkpt><trkpt lat="42.280157495015516" lon="13.669570096876955"><ele>845.6666666666667</ele><time>2026-04-27T16:00:49Z</time></trkpt><trkpt lat="42.280044083468205" lon="13.669751915385792"><ele>851.0</ele><time>2026-04-27T16:00:50Z</time></trkpt><trkpt lat="42.279927955284045" lon="13.669929358782646"><ele>851.0</ele><time>2026-04-27T16:00:51Z</time></trkpt><trkpt lat="42.27981329190206" lon="13.670095243103841"><ele>851.0</ele><time>2026-04-27T16:00:52Z</time></trkpt><trkpt lat="42.279692360555806" lon="13.670276895436121"><ele>851.0</ele><time>2026-04-27T16:00:53Z</time></trkpt><trkpt lat="42.279575134508576" lon="13.670494004179405"><ele>848.3333333333334</ele><time>2026-04-27T16:00:54Z</time></trkpt><trkpt lat="42.27943856251076" lon="13.670664653960545"><ele>845.6666666666667</ele><time>2026-04-27T16:00:55Z</time></trkpt><trkpt lat="42.279308261515965" lon="13.670850068880858"><ele>843.0</ele><time>2026-04-27T16:00:56Z</time></trkpt><trkpt lat="42.27917875008287" lon="13.671035158511406"><ele>841.0</ele><time>2026-04-27T16:00:57Z</time></trkpt><trkpt lat="42.27905618136441" lon="13.671217649820896"><ele>839.0</ele><time>2026-04-27T16:00:58Z</time></trkpt><trkpt lat="42.278925038046125" lon="13.671400304177553"><ele>837.0</ele><time>2026-04-27T16:00:59Z</time></trkpt><trkpt lat="42.27879426073825" lon="13.671573827971294"><ele>837.0</ele><time>2026-04-27T16:01:00Z</time></trkpt><trkpt lat="42.27866721934492" lon="13.671755050825457"><ele>837.0</ele><time>2026-04-27T16:01:01Z</time></trkpt><trkpt lat="42.27854075371087" lon="13.671947939277874"><ele>837.0</ele><time>2026-04-27T16:01:02Z</time></trkpt><trkpt lat="42.27841823163493" lon="13.672144158200478"><ele>834.6666666666667</ele><time>2026-04-27T16:01:03Z</time></trkpt><trkpt lat="42.27829055358604" lon="13.672336133959586"><ele>832.3333333333334</ele><time>2026-04-27T16:01:04Z</time></trkpt><trkpt lat="42.27818498851707" lon="13.67252918900887"><ele>830.0</ele><time>2026-04-27T16:01:05Z</time></trkpt><trkpt lat="42.27805657894946" lon="13.672712222407508"><ele>833.6666666666667</ele><time>2026-04-27T16:01:06Z</time></trkpt><trkpt lat="42.27792071655327" lon="13.672890955819748"><ele>837.3333333333333</ele><time>2026-04-27T16:01:07Z</time></trkpt><trkpt lat="42.27779383051735" lon="13.673083093538319"><ele>841.0</ele><time>2026-04-27T16:01:08Z</time></trkpt><trkpt lat="42.27766579076961" lon="13.673266540151296"><ele>841.0</ele><time>2026-04-27T16:01:09Z</time></trkpt><trkpt lat="42.27754200519139" lon="13.67345049807477"><ele>841.0</ele><time>2026-04-27T16:01:10Z</time></trkpt><trkpt lat="42.277409084893" lon="13.673636598258936"><ele>841.0</ele><time>2026-04-27T16:01:11Z</time></trkpt><trkpt lat="42.27727847472041" lon="13.673821584639747"><ele>840.3333333333333</ele><time>2026-04-27T16:01:12Z</time></trkpt><trkpt lat="42.27715027345174" lon="13.67400849587141"><ele>839.6666666666667</ele><time>2026-04-27T16:01:13Z</time></trkpt><trkpt lat="42.27703204490851" lon="13.674195038376682"><ele>839.0</ele><time>2026-04-27T16:01:14Z</time></trkpt><trkpt lat="42.276915628338145" lon="13.674369811876971"><ele>843.3333333333334</ele><time>2026-04-27T16:01:15Z</time></trkpt><trkpt lat="42.27679625319024" lon="13.674542940319066"><ele>847.6666666666667</ele><time>2026-04-27T16:01:16Z</time></trkpt><trkpt lat="42.2766782004352" lon="13.67471757676499"><ele>852.0</ele><time>2026-04-27T16:01:17Z</time></trkpt><trkpt lat="42.27655123817782" lon="13.674893523199849"><ele>850.6666666666667</ele><time>2026-04-27T16:01:18Z</time></trkpt><trkpt lat="42.276422276137254" lon="13.675062825228487"><ele>849.3333333333334</ele><time>2026-04-27T16:01:19Z</time></trkpt><trkpt lat="42.2762914682067" lon="13.675243251463929"><ele>848.0</ele><time>2026-04-27T16:01:20Z</time></trkpt><trkpt lat="42.27615207224192" lon="13.675418294044885"><ele>848.0</ele><time>2026-04-27T16:01:21Z</time></trkpt><trkpt lat="42.276015052691385" lon="13.675606522433217"><ele>848.0</ele><time>2026-04-27T16:01:22Z</time></trkpt><trkpt lat="42.27587775167801" lon="13.67578968182377"><ele>848.0</ele><time>2026-04-27T16:01:23Z</time></trkpt><trkpt lat="42.275732909095034" lon="13.675972084894797"><ele>847.3333333333334</ele><time>2026-04-27T16:01:24Z</time></trkpt><trkpt lat="42.27561438021018" lon="13.676155539727151"><ele>846.6666666666667</ele><time>2026-04-27T16:01:25Z</time></trkpt><trkpt lat="42.27547914003284" lon="13.67632849588368"><ele>846.0</ele><time>2026-04-27T16:01:26Z</time></trkpt><trkpt lat="42.27534269088432" lon="13.676502414307679"><ele>846.0</ele><time>2026-04-27T16:01:27Z</time></trkpt><trkpt lat="42.275218070048204" lon="13.676674145975106"><ele>846.0</ele><time>2026-04-27T16:01:28Z</time></trkpt><trkpt lat="42.27509936409199" lon="13.676838307578818"><ele>846.0</ele><time>2026-04-27T16:01:29Z</time></trkpt><trkpt lat="42.274987807796535" lon="13.676995486664516"><ele>847.0</ele><time>2026-04-27T16:01:30Z</time></trkpt><trkpt lat="42.27487592692161" lon="13.67715186750894"><ele>848.0</ele><time>2026-04-27T16:01:31Z</time></trkpt><trkpt lat="42.274765142971404" lon="13.67730732604501"><ele>849.0</ele><time>2026-04-27T16:01:32Z</time></trkpt><trkpt lat="42.274647800228486" lon="13.67747806361124"><ele>849.0</ele><time>2026-04-27T16:01:33Z</time></trkpt><trkpt lat="42.27451959535024" lon="13.677625717274532"><ele>849.0</ele><time>2026-04-27T16:01:34Z</time></trkpt><trkpt lat="42.27437974620274" lon="13.677778591971457"><ele>849.0</ele><time>2026-04-27T16:01:35Z</time></trkpt><trkpt lat="42.274235812432394" lon="13.67795135285771"><ele>850.0</ele><time>2026-04-27T16:01:36Z</time></trkpt><trkpt lat="42.27412241240135" lon="13.678130390542133"><ele>851.0</ele><time>2026-04-27T16:01:37Z</time></trkpt><trkpt lat="42.27400225152711" lon="13.678264268549938"><ele>852.0</ele><time>2026-04-27T16:01:38Z</time></trkpt><trkpt lat="42.27388449718551" lon="13.678422507640466"><ele>852.0</ele><time>2026-04-27T16:01:39Z</time></trkpt><trkpt lat="42.27377078943756" lon="13.678589525930635"><ele>852.0</ele><time>2026-04-27T16:01:40Z</time></trkpt><trkpt lat="42.273643508008334" lon="13.678779565189778"><ele>852.0</ele><time>2026-04-27T16:01:41Z</time></trkpt><trkpt lat="42.2735253895476" lon="13.678967495873211"><ele>856.3333333333333</ele><time>2026-04-27T16:01:42Z</time></trkpt><trkpt lat="42.2734042133045" lon="13.679155660494072"><ele>860.6666666666666</ele><time>2026-04-27T16:01:43Z</time></trkpt><trkpt lat="42.27329384956687" lon="13.679337057061682"><ele>865.0</ele><time>2026-04-27T16:01:44Z</time></trkpt><trkpt lat="42.27321334124096" lon="13.6795176783165"><ele>869.0</ele><time>2026-04-27T16:01:45Z</time></trkpt><trkpt lat="42.27312958697063" lon="13.6797292921273"><ele>873.0</ele><time>2026-04-27T16:01:46Z</time></trkpt><trkpt lat="42.273049899363116" lon="13.679950818749347"><ele>877.0</ele><time>2026-04-27T16:01:47Z</time></trkpt><trkpt lat="42.27297314549982" lon="13.680198245230159"><ele>872.3333333333333</ele><time>2026-04-27T16:01:48Z</time></trkpt><trkpt lat="42.272892942760954" lon="13.68043472708004"><ele>867.6666666666667</ele><time>2026-04-27T16:01:49Z</time></trkpt><trkpt lat="42.27279978149139" lon="13.680669633510584"><ele>863.0</ele><time>2026-04-27T16:01:50Z</time></trkpt><trkpt lat="42.27270708626758" lon="13.680918999200768"><ele>866.6666666666667</ele><time>2026-04-27T16:01:51Z</time></trkpt><trkpt lat="42.27261156482085" lon="13.681157510558405"><ele>870.3333333333333</ele><time>2026-04-27T16:01:52Z</time></trkpt><trkpt lat="42.27250673584538" lon="13.681409864506481"><ele>874.0</ele><time>2026-04-27T16:01:53Z</time></trkpt><trkpt lat="42.27241532962962" lon="13.681653726151662"><ele>874.0</ele><time>2026-04-27T16:01:54Z</time></trkpt><trkpt lat="42.27232047092191" lon="13.681884938180405"><ele>874.0</ele><time>2026-04-27T16:01:55Z</time></trkpt><trkpt lat="42.27222753227596" lon="13.68211408220571"><ele>874.0</ele><time>2026-04-27T16:01:56Z</time></trkpt><trkpt lat="42.27214079578215" lon="13.682338253843254"><ele>873.3333333333333</ele><time>2026-04-27T16:01:57Z</time></trkpt><trkpt lat="42.27206163865599" lon="13.682538552460791"><ele>872.6666666666667</ele><time>2026-04-27T16:01:58Z</time></trkpt><trkpt lat="42.2719868770602" lon="13.68273923576514"><ele>872.0</ele><time>2026-04-27T16:01:59Z</time></trkpt><trkpt lat="42.271915447383606" lon="13.682922034291295"><ele>872.0</ele><time>2026-04-27T16:02:00Z</time></trkpt><trkpt lat="42.271833084184095" lon="13.68312938236576"><ele>872.0</ele><time>2026-04-27T16:02:01Z</time></trkpt><trkpt lat="42.271767875359366" lon="13.683356510837529"><ele>872.0</ele><time>2026-04-27T16:02:02Z</time></trkpt><trkpt lat="42.27170692804767" lon="13.683559061195043"><ele>877.6666666666667</ele><time>2026-04-27T16:02:03Z</time></trkpt><trkpt lat="42.27164484848833" lon="13.683772278551292"><ele>883.3333333333333</ele><time>2026-04-27T16:02:04Z</time></trkpt><trkpt lat="42.271580371820896" lon="13.683977067657699"><ele>889.0</ele><time>2026-04-27T16:02:05Z</time></trkpt><trkpt lat="42.27152583051841" lon="13.684130939514747"><ele>889.0</ele><time>2026-04-27T16:02:06Z</time></trkpt><trkpt lat="42.27146271189784" lon="13.684264216748241"><ele>889.0</ele><time>2026-04-27T16:02:07Z</time></trkpt><trkpt lat="42.27137427888549" lon="13.684386297442893"><ele>889.0</ele><time>2026-04-27T16:02:08Z</time></trkpt><trkpt lat="42.27128472044192" lon="13.684506063624228"><ele>889.0</ele><time>2026-04-27T16:02:09Z</time></trkpt><trkpt lat="42.271215190236084" lon="13.684629534487453"><ele>888.25</ele><time>2026-04-27T16:02:10Z</time></trkpt><trkpt lat="42.27114144023904" lon="13.684759969965011"><ele>887.5</ele><time>2026-04-27T16:02:11Z</time></trkpt><trkpt lat="42.27106210793822" lon="13.68490161378438"><ele>886.75</ele><time>2026-04-27T16:02:12Z</time></trkpt><trkpt lat="42.27098313151348" lon="13.685025246799857"><ele>886.0</ele><time>2026-04-27T16:02:13Z</time></trkpt><trkpt lat="42.270915092945025" lon="13.68516002072239"><ele>889.4</ele><time>2026-04-27T16:02:14Z</time></trkpt><trkpt lat="42.27085341242756" lon="13.685283247428796"><ele>892.8</ele><time>2026-04-27T16:02:15Z</time></trkpt><trkpt lat="42.270804407330665" lon="13.685401648783133"><ele>896.1999999999999</ele><time>2026-04-27T16:02:16Z</time></trkpt><trkpt lat="42.27076389482647" lon="13.685522275435098"><ele>899.5999999999999</ele><time>2026-04-27T16:02:17Z</time></trkpt><trkpt lat="42.27071698120927" lon="13.685647249853147"><ele>903.0</ele><time>2026-04-27T16:02:18Z</time></trkpt><trkpt lat="42.270668958644755" lon="13.685778964565898"><ele>903.0</ele><time>2026-04-27T16:02:19Z</time></trkpt><trkpt lat="42.27063679818776" lon="13.685926574951878"><ele>903.0</ele><time>2026-04-27T16:02:20Z</time></trkpt><trkpt lat="42.27060277991737" lon="13.686051754047185"><ele>903.0</ele><time>2026-04-27T16:02:21Z</time></trkpt><trkpt lat="42.270599268784444" lon="13.686200905130253"><ele>903.0</ele><time>2026-04-27T16:02:22Z</time></trkpt><trkpt lat="42.270620419567244" lon="13.68636686139781"><ele>903.0</ele><time>2026-04-27T16:02:23Z</time></trkpt><trkpt lat="42.27064518473474" lon="13.686550395444401"><ele>906.5</ele><time>2026-04-27T16:02:24Z</time></trkpt><trkpt lat="42.270690528539724" lon="13.686713038239844"><ele>910.0</ele><time>2026-04-27T16:02:25Z</time></trkpt><trkpt lat="42.2707464205836" lon="13.686868996671024"><ele>913.5</ele><time>2026-04-27T16:02:26Z</time></trkpt><trkpt lat="42.27079373198226" lon="13.687010836463475"><ele>917.0</ele><time>2026-04-27T16:02:27Z</time></trkpt><trkpt lat="42.27080866183208" lon="13.68716867579147"><ele>917.75</ele><time>2026-04-27T16:02:28Z</time></trkpt><trkpt lat="42.270805863924146" lon="13.68735699957104"><ele>918.5</ele><time>2026-04-27T16:02:29Z</time></trkpt><trkpt lat="42.270795972784505" lon="13.687557585332126"><ele>919.25</ele><time>2026-04-27T16:02:30Z</time></trkpt><trkpt lat="42.27077713076741" lon="13.68773348432314"><ele>920.0</ele><time>2026-04-27T16:02:31Z</time></trkpt><trkpt lat="42.27074448067993" lon="13.687889639707027"><ele>920.0000000000001</ele><time>2026-04-27T16:02:32Z</time></trkpt><trkpt lat="42.27073592833906" lon="13.688022159344042"><ele>920.0</ele><time>2026-04-27T16:02:33Z</time></trkpt><trkpt lat="42.27075230196508" lon="13.688109804517772"><ele>920.0</ele><time>2026-04-27T16:02:34Z</time></trkpt><trkpt lat="42.27079637907342" lon="13.688179616117033"><ele>920.0</ele><time>2026-04-27T16:02:35Z</time></trkpt><trkpt lat="42.270868903746745" lon="13.688208939225275"><ele>920.0000000000001</ele><time>2026-04-27T16:02:36Z</time></trkpt><trkpt lat="42.270975690679364" lon="13.688121892010477"><ele>920.0</ele><time>2026-04-27T16:02:38Z</time></trkpt><trkpt lat="42.271004545699434" lon="13.688031244257289"><ele>920.0</ele><time>2026-04-27T16:02:39Z</time></trkpt><trkpt lat="42.27102083525873" lon="13.68791513644009"><ele>920.0</ele><time>2026-04-27T16:02:40Z</time></trkpt><trkpt lat="42.271047254725815" lon="13.687768504041548"><ele>920.0</ele><time>2026-04-27T16:02:41Z</time></trkpt><trkpt lat="42.27106717339075" lon="13.6876023459362"><ele>920.0</ele><time>2026-04-27T16:02:42Z</time></trkpt><trkpt lat="42.27111087280257" lon="13.68741589183006"><ele>919.25</ele><time>2026-04-27T16:02:43Z</time></trkpt><trkpt lat="42.27116089918453" lon="13.687220795000954"><ele>918.5</ele><time>2026-04-27T16:02:44Z</time></trkpt><trkpt lat="42.271208292742735" lon="13.68705208221364"><ele>917.75</ele><time>2026-04-27T16:02:45Z</time></trkpt><trkpt lat="42.271252165362505" lon="13.686933866916114"><ele>917.0</ele><time>2026-04-27T16:02:46Z</time></trkpt><trkpt lat="42.271310356159006" lon="13.686837941854366"><ele>917.0</ele><time>2026-04-27T16:02:47Z</time></trkpt><trkpt lat="42.27136645723051" lon="13.686782169729991"><ele>917.0</ele><time>2026-04-27T16:02:48Z</time></trkpt><trkpt lat="42.27148375309764" lon="13.68684101048961"><ele>917.0</ele><time>2026-04-27T16:02:50Z</time></trkpt><trkpt lat="42.27148667657392" lon="13.687011213566114"><ele>917.0</ele><time>2026-04-27T16:02:52Z</time></trkpt><trkpt lat="42.27145593944353" lon="13.687121025826771"><ele>917.0</ele><time>2026-04-27T16:02:53Z</time></trkpt><trkpt lat="42.27141065189117" lon="13.68725647981601"><ele>917.75</ele><time>2026-04-27T16:02:54Z</time></trkpt><trkpt lat="42.271378214976494" lon="13.68740183261092"><ele>918.5</ele><time>2026-04-27T16:02:55Z</time></trkpt><trkpt lat="42.271369246281914" lon="13.687557827025438"><ele>919.25</ele><time>2026-04-27T16:02:56Z</time></trkpt><trkpt lat="42.271392945392165" lon="13.687726637061175"><ele>920.0</ele><time>2026-04-27T16:02:57Z</time></trkpt><trkpt lat="42.27142077392553" lon="13.687892159009941"><ele>924.4</ele><time>2026-04-27T16:02:58Z</time></trkpt><trkpt lat="42.27146016518393" lon="13.688025919822653"><ele>928.8</ele><time>2026-04-27T16:02:59Z</time></trkpt><trkpt lat="42.2715081019897" lon="13.688119035749624"><ele>933.2</ele><time>2026-04-27T16:03:00Z</time></trkpt><trkpt lat="42.27157167692131" lon="13.688191854586465"><ele>937.6</ele><time>2026-04-27T16:03:01Z</time></trkpt><trkpt lat="42.27165245695377" lon="13.688254137931038"><ele>942.0</ele><time>2026-04-27T16:03:02Z</time></trkpt><trkpt lat="42.27175209631907" lon="13.68830902883636"><ele>942.0</ele><time>2026-04-27T16:03:03Z</time></trkpt><trkpt lat="42.27185950410193" lon="13.688339988207833"><ele>942.0</ele><time>2026-04-27T16:03:04Z</time></trkpt><trkpt lat="42.272015651470845" lon="13.6883957353816"><ele>942.0</ele><time>2026-04-27T16:03:05Z</time></trkpt><trkpt lat="42.27216280728806" lon="13.68846573618841"><ele>942.0</ele><time>2026-04-27T16:03:06Z</time></trkpt><trkpt lat="42.27232613828236" lon="13.688543718617113"><ele>940.0</ele><time>2026-04-27T16:03:07Z</time></trkpt><trkpt lat="42.27247609336688" lon="13.688624632572362"><ele>938.0</ele><time>2026-04-27T16:03:08Z</time></trkpt><trkpt lat="42.27261173176996" lon="13.688709365976765"><ele>936.0</ele><time>2026-04-27T16:03:09Z</time></trkpt><trkpt lat="42.27274946134403" lon="13.68881946120618"><ele>936.0</ele><time>2026-04-27T16:03:10Z</time></trkpt><trkpt lat="42.27290030479122" lon="13.688953093322992"><ele>936.0</ele><time>2026-04-27T16:03:11Z</time></trkpt><trkpt lat="42.27304533863861" lon="13.689090800593172"><ele>936.0</ele><time>2026-04-27T16:03:12Z</time></trkpt><trkpt lat="42.27317092605508" lon="13.689222513624658"><ele>936.25</ele><time>2026-04-27T16:03:13Z</time></trkpt><trkpt lat="42.27327355152147" lon="13.689346413784302"><ele>936.5</ele><time>2026-04-27T16:03:14Z</time></trkpt><trkpt lat="42.27337526891791" lon="13.68944317940079"><ele>936.75</ele><time>2026-04-27T16:03:15Z</time></trkpt><trkpt lat="42.27346690639188" lon="13.689501804101623"><ele>937.0</ele><time>2026-04-27T16:03:16Z</time></trkpt><trkpt lat="42.27355711149928" lon="13.689530857791157"><ele>937.0</ele><time>2026-04-27T16:03:17Z</time></trkpt><trkpt lat="42.27365662752672" lon="13.689529368315382"><ele>937.0</ele><time>2026-04-27T16:03:18Z</time></trkpt><trkpt lat="42.273781524413835" lon="13.689501467937314"><ele>937.0</ele><time>2026-04-27T16:03:19Z</time></trkpt><trkpt lat="42.27390097769002" lon="13.68944419289727"><ele>937.0</ele><time>2026-04-27T16:03:20Z</time></trkpt><trkpt lat="42.274008979012926" lon="13.689360662240158"><ele>942.5</ele><time>2026-04-27T16:03:21Z</time></trkpt><trkpt lat="42.27411299470689" lon="13.689247546971657"><ele>948.0</ele><time>2026-04-27T16:03:22Z</time></trkpt><trkpt lat="42.27423300646777" lon="13.68912597652805"><ele>953.5</ele><time>2026-04-27T16:03:23Z</time></trkpt><trkpt lat="42.27435779497249" lon="13.689016760057212"><ele>959.0</ele><time>2026-04-27T16:03:24Z</time></trkpt><trkpt lat="42.2744786057946" lon="13.688923634984127"><ele>959.0</ele><time>2026-04-27T16:03:25Z</time></trkpt><trkpt lat="42.27459931969623" lon="13.688853111771751"><ele>959.0</ele><time>2026-04-27T16:03:26Z</time></trkpt><trkpt lat="42.27474326294609" lon="13.688774878608934"><ele>959.0</ele><time>2026-04-27T16:03:27Z</time></trkpt><trkpt lat="42.27489868047374" lon="13.688698010743158"><ele>958.3333333333334</ele><time>2026-04-27T16:03:28Z</time></trkpt><trkpt lat="42.27506504078086" lon="13.688612190455943"><ele>957.6666666666667</ele><time>2026-04-27T16:03:29Z</time></trkpt><trkpt lat="42.27523529543481" lon="13.688512335362256"><ele>957.0</ele><time>2026-04-27T16:03:30Z</time></trkpt><trkpt lat="42.275416255556024" lon="13.688410004839932"><ele>958.6666666666667</ele><time>2026-04-27T16:03:31Z</time></trkpt><trkpt lat="42.275572776203894" lon="13.68833870809926"><ele>960.3333333333334</ele><time>2026-04-27T16:03:32Z</time></trkpt><trkpt lat="42.27573158424245" lon="13.688278140138838"><ele>962.0</ele><time>2026-04-27T16:03:33Z</time></trkpt><trkpt lat="42.275865965173814" lon="13.688222486519052"><ele>962.0</ele><time>2026-04-27T16:03:34Z</time></trkpt><trkpt lat="42.27599718729168" lon="13.688132614747971"><ele>962.0</ele><time>2026-04-27T16:03:35Z</time></trkpt><trkpt lat="42.27613961168869" lon="13.688020926505542"><ele>962.0</ele><time>2026-04-27T16:03:36Z</time></trkpt><trkpt lat="42.27630760063662" lon="13.68788658336915"><ele>964.3333333333334</ele><time>2026-04-27T16:03:37Z</time></trkpt><trkpt lat="42.27649303723839" lon="13.687741242376234"><ele>966.6666666666667</ele><time>2026-04-27T16:03:38Z</time></trkpt><trkpt lat="42.27667811697522" lon="13.687604667786081"><ele>969.0</ele><time>2026-04-27T16:03:39Z</time></trkpt><trkpt lat="42.276847972696615" lon="13.687478003932602"><ele>969.0</ele><time>2026-04-27T16:03:40Z</time></trkpt><trkpt lat="42.27702138538099" lon="13.687364219646192"><ele>969.0</ele><time>2026-04-27T16:03:41Z</time></trkpt><trkpt lat="42.27717463136159" lon="13.68726982818477"><ele>969.0</ele><time>2026-04-27T16:03:42Z</time></trkpt><trkpt lat="42.27730756610113" lon="13.687187073058515"><ele>968.0</ele><time>2026-04-27T16:03:43Z</time></trkpt><trkpt lat="42.27741292228296" lon="13.687113562675089"><ele>967.0000000000001</ele><time>2026-04-27T16:03:44Z</time></trkpt><trkpt lat="42.277510795868196" lon="13.687035692418993"><ele>966.0000000000001</ele><time>2026-04-27T16:03:45Z</time></trkpt><trkpt lat="42.27759303611524" lon="13.686937850576935"><ele>965.0</ele><time>2026-04-27T16:03:46Z</time></trkpt><trkpt lat="42.27764666330217" lon="13.686870053393749"><ele>964.0</ele><time>2026-04-27T16:03:47Z</time></trkpt><trkpt lat="42.277720482823966" lon="13.686942825252626"><ele>964.0</ele><time>2026-04-27T16:03:50Z</time></trkpt><trkpt lat="42.27772916820044" lon="13.687113157552675"><ele>964.0000000000001</ele><time>2026-04-27T16:03:52Z</time></trkpt><trkpt lat="42.277732815080974" lon="13.687246155577995"><ele>964.0000000000001</ele><time>2026-04-27T16:03:53Z</time></trkpt><trkpt lat="42.27775918391059" lon="13.687361328660801"><ele>964.0</ele><time>2026-04-27T16:03:54Z</time></trkpt><trkpt lat="42.277710576970975" lon="13.68751684357996"><ele>964.0</ele><time>2026-04-27T16:03:56Z</time></trkpt><trkpt lat="42.27765825660775" lon="13.687620396216852"><ele>963.0</ele><time>2026-04-27T16:03:57Z</time></trkpt><trkpt lat="42.27761320864767" lon="13.687777183358694"><ele>962.0000000000001</ele><time>2026-04-27T16:03:58Z</time></trkpt><trkpt lat="42.277589017633666" lon="13.687895080141557"><ele>961.0000000000001</ele><time>2026-04-27T16:03:59Z</time></trkpt><trkpt lat="42.27755271378668" lon="13.687992171269702"><ele>960.0</ele><time>2026-04-27T16:04:00Z</time></trkpt><trkpt lat="42.277487262650205" lon="13.688089114111563"><ele>959.0</ele><time>2026-04-27T16:04:01Z</time></trkpt><trkpt lat="42.27742341775279" lon="13.688185042629701"><ele>959.0</ele><time>2026-04-27T16:04:02Z</time></trkpt><trkpt lat="42.277392324022856" lon="13.688292795254815"><ele>959.0000000000001</ele><time>2026-04-27T16:04:03Z</time></trkpt><trkpt lat="42.27750408638992" lon="13.6883413062771"><ele>959.0000000000001</ele><time>2026-04-27T16:04:32Z</time></trkpt><trkpt lat="42.277603800607366" lon="13.68836139119546"><ele>959.0</ele><time>2026-04-27T16:04:33Z</time></trkpt><trkpt lat="42.27768788659301" lon="13.68837133349516"><ele>959.0</ele><time>2026-04-27T16:04:34Z</time></trkpt><trkpt lat="42.27776462911328" lon="13.688391896685863"><ele>959.0</ele><time>2026-04-27T16:04:35Z</time></trkpt><trkpt lat="42.27784691301437" lon="13.688434337909966"><ele>959.0000000000001</ele><time>2026-04-27T16:04:36Z</time></trkpt><trkpt lat="42.27794419779833" lon="13.688484000123266"><ele>959.0000000000001</ele><time>2026-04-27T16:04:37Z</time></trkpt><trkpt lat="42.27803540543156" lon="13.688525331498257"><ele>959.0</ele><time>2026-04-27T16:04:38Z</time></trkpt><trkpt lat="42.27813586901494" lon="13.688567017399043"><ele>959.0</ele><time>2026-04-27T16:04:39Z</time></trkpt><trkpt lat="42.27822594764785" lon="13.688585720681433"><ele>958.2</ele><time>2026-04-27T16:04:40Z</time></trkpt><trkpt lat="42.27832180554004" lon="13.688627884100827"><ele>957.4000000000001</ele><time>2026-04-27T16:04:41Z</time></trkpt><trkpt lat="42.278421100393594" lon="13.688702135584416"><ele>956.6</ele><time>2026-04-27T16:04:42Z</time></trkpt><trkpt lat="42.27851181122523" lon="13.688803971254163"><ele>955.8</ele><time>2026-04-27T16:04:43Z</time></trkpt><trkpt lat="42.278599639008576" lon="13.688906496218637"><ele>955.0</ele><time>2026-04-27T16:04:44Z</time></trkpt><trkpt lat="42.27868958825675" lon="13.689029640689682"><ele>955.0</ele><time>2026-04-27T16:04:45Z</time></trkpt><trkpt lat="42.278781632737626" lon="13.689176214453632"><ele>955.0</ele><time>2026-04-27T16:04:46Z</time></trkpt><trkpt lat="42.278888207292496" lon="13.689325174591044"><ele>955.0</ele><time>2026-04-27T16:04:47Z</time></trkpt><trkpt lat="42.27899791925185" lon="13.689469498003191"><ele>955.0</ele><time>2026-04-27T16:04:48Z</time></trkpt><trkpt lat="42.2791020326503" lon="13.689588895101588"><ele>955.8</ele><time>2026-04-27T16:04:49Z</time></trkpt><trkpt lat="42.27918022684973" lon="13.6896932126483"><ele>956.6</ele><time>2026-04-27T16:04:50Z</time></trkpt><trkpt lat="42.27925735254845" lon="13.689767999761596"><ele>957.4000000000001</ele><time>2026-04-27T16:04:51Z</time></trkpt><trkpt lat="42.27932967100495" lon="13.689803542202663"><ele>958.2</ele><time>2026-04-27T16:04:52Z</time></trkpt><trkpt lat="42.2794215907355" lon="13.68981044984637"><ele>959.0</ele><time>2026-04-27T16:04:53Z</time></trkpt><trkpt lat="42.27952199903702" lon="13.68982899115485"><ele>959.0000000000001</ele><time>2026-04-27T16:04:54Z</time></trkpt><trkpt lat="42.27960920864933" lon="13.68985509777334"><ele>959.0</ele><time>2026-04-27T16:04:55Z</time></trkpt><trkpt lat="42.27965852503889" lon="13.689930268385107"><ele>959.0</ele><time>2026-04-27T16:04:56Z</time></trkpt><trkpt lat="42.27970780711921" lon="13.69004011935495"><ele>959.0</ele><time>2026-04-27T16:04:57Z</time></trkpt><trkpt lat="42.279768200478344" lon="13.690145478635728"><ele>959.0000000000001</ele><time>2026-04-27T16:04:58Z</time></trkpt><trkpt lat="42.27984338692144" lon="13.69021290261395"><ele>959.0</ele><time>2026-04-27T16:04:59Z</time></trkpt><trkpt lat="42.27993939932972" lon="13.69024784231098"><ele>959.6</ele><time>2026-04-27T16:05:00Z</time></trkpt><trkpt lat="42.28003364736276" lon="13.690287330819773"><ele>960.2</ele><time>2026-04-27T16:05:01Z</time></trkpt><trkpt lat="42.28012544073556" lon="13.690290382017029"><ele>960.8000000000001</ele><time>2026-04-27T16:05:02Z</time></trkpt><trkpt lat="42.28025244671561" lon="13.690300789696582"><ele>961.4000000000001</ele><time>2026-04-27T16:05:03Z</time></trkpt><trkpt lat="42.28034790764347" lon="13.690323003783552"><ele>962.0</ele><time>2026-04-27T16:05:04Z</time></trkpt><trkpt lat="42.28041924788402" lon="13.690368127830595"><ele>962.0</ele><time>2026-04-27T16:05:05Z</time></trkpt><trkpt lat="42.280470997684404" lon="13.690476779984373"><ele>962.0</ele><time>2026-04-27T16:05:06Z</time></trkpt><trkpt lat="42.28052394017224" lon="13.690616163510835"><ele>962.0</ele><time>2026-04-27T16:05:07Z</time></trkpt><trkpt lat="42.28055613079707" lon="13.690757367007869"><ele>962.0</ele><time>2026-04-27T16:05:08Z</time></trkpt><trkpt lat="42.2805770892655" lon="13.69091144086498"><ele>962.0</ele><time>2026-04-27T16:05:09Z</time></trkpt><trkpt lat="42.280575591595074" lon="13.691088010056353"><ele>962.75</ele><time>2026-04-27T16:05:10Z</time></trkpt><trkpt lat="42.28055255795071" lon="13.691270261324403"><ele>963.5</ele><time>2026-04-27T16:05:11Z</time></trkpt><trkpt lat="42.280522198154024" lon="13.691458872729287"><ele>964.25</ele><time>2026-04-27T16:05:12Z</time></trkpt><trkpt lat="42.28048175729156" lon="13.691616029471078"><ele>965.0</ele><time>2026-04-27T16:05:13Z</time></trkpt><trkpt lat="42.280430177959346" lon="13.69175177481865"><ele>965.0</ele><time>2026-04-27T16:05:14Z</time></trkpt><trkpt lat="42.2803651769729" lon="13.691915223862317"><ele>965.0</ele><time>2026-04-27T16:05:15Z</time></trkpt><trkpt lat="42.280300229786846" lon="13.692100875194381"><ele>965.0</ele><time>2026-04-27T16:05:16Z</time></trkpt><trkpt lat="42.28023457248299" lon="13.692298056202821"><ele>965.0</ele><time>2026-04-27T16:05:17Z</time></trkpt><trkpt lat="42.28017161007804" lon="13.692467081310658"><ele>967.6</ele><time>2026-04-27T16:05:18Z</time></trkpt><trkpt lat="42.28010762557942" lon="13.692630213592743"><ele>970.2</ele><time>2026-04-27T16:05:19Z</time></trkpt><trkpt lat="42.28004853163539" lon="13.692783543563765"><ele>972.8</ele><time>2026-04-27T16:05:20Z</time></trkpt><trkpt lat="42.28000620696093" lon="13.692894872704017"><ele>975.4</ele><time>2026-04-27T16:05:21Z</time></trkpt><trkpt lat="42.279998650465984" lon="13.692985129981992"><ele>978.0</ele><time>2026-04-27T16:05:22Z</time></trkpt><trkpt lat="42.280015368320704" lon="13.69310671263009"><ele>978.8</ele><time>2026-04-27T16:05:23Z</time></trkpt><trkpt lat="42.28004554465274" lon="13.69323835645726"><ele>979.5999999999999</ele><time>2026-04-27T16:05:24Z</time></trkpt><trkpt lat="42.28005768515974" lon="13.693353306295553"><ele>980.4000000000001</ele><time>2026-04-27T16:05:25Z</time></trkpt><trkpt lat="42.28006058366948" lon="13.693505607174298"><ele>981.2</ele><time>2026-04-27T16:05:26Z</time></trkpt><trkpt lat="42.28006426018219" lon="13.69369666764756"><ele>982.0</ele><time>2026-04-27T16:05:27Z</time></trkpt><trkpt lat="42.28007655568051" lon="13.693890213715894"><ele>982.0</ele><time>2026-04-27T16:05:28Z</time></trkpt><trkpt lat="42.28006968131454" lon="13.694056487616804"><ele>982.0</ele><time>2026-04-27T16:05:29Z</time></trkpt><trkpt lat="42.280067092190414" lon="13.694213785552618"><ele>982.0</ele><time>2026-04-27T16:05:30Z</time></trkpt><trkpt lat="42.28005049523532" lon="13.694397943268706"><ele>982.0</ele><time>2026-04-27T16:05:31Z</time></trkpt><trkpt lat="42.280043807310555" lon="13.694572825155852"><ele>981.0</ele><time>2026-04-27T16:05:32Z</time></trkpt><trkpt lat="42.28004191811499" lon="13.694708630094384"><ele>980.0</ele><time>2026-04-27T16:05:33Z</time></trkpt><trkpt lat="42.28001662071235" lon="13.694844133057423"><ele>979.0</ele><time>2026-04-27T16:05:34Z</time></trkpt><trkpt lat="42.279990850967685" lon="13.69500161030144"><ele>978.0</ele><time>2026-04-27T16:05:35Z</time></trkpt><trkpt lat="42.279994387232236" lon="13.695120892932763"><ele>977.0</ele><time>2026-04-27T16:05:36Z</time></trkpt><trkpt lat="42.28001620510906" lon="13.695223673545868"><ele>975.6</ele><time>2026-04-27T16:05:37Z</time></trkpt><trkpt lat="42.28005962417405" lon="13.695342175596188"><ele>974.2</ele><time>2026-04-27T16:05:38Z</time></trkpt><trkpt lat="42.2800944424716" lon="13.695427562975263"><ele>972.8</ele><time>2026-04-27T16:05:39Z</time></trkpt><trkpt lat="42.280153049850625" lon="13.695515979332294"><ele>971.4</ele><time>2026-04-27T16:05:41Z</time></trkpt><trkpt lat="42.28024922352262" lon="13.695594518375286"><ele>970.0</ele><time>2026-04-27T16:05:43Z</time></trkpt><trkpt lat="42.28033016399585" lon="13.695648808092763"><ele>969.9999999999999</ele><time>2026-04-27T16:05:44Z</time></trkpt><trkpt lat="42.28040867748409" lon="13.695722949966003"><ele>970.0</ele><time>2026-04-27T16:05:45Z</time></trkpt><trkpt lat="42.280478489987225" lon="13.695783913161652"><ele>970.0</ele><time>2026-04-27T16:05:46Z</time></trkpt><trkpt lat="42.28054620984043" lon="13.695860019195123"><ele>970.0</ele><time>2026-04-27T16:05:47Z</time></trkpt><trkpt lat="42.28061832726079" lon="13.695910422255533"><ele>969.9999999999999</ele><time>2026-04-27T16:05:48Z</time></trkpt><trkpt lat="42.28068353823464" lon="13.695957508521664"><ele>970.0</ele><time>2026-04-27T16:05:49Z</time></trkpt><trkpt lat="42.28074895096654" lon="13.695956739959696"><ele>973.2</ele><time>2026-04-27T16:05:50Z</time></trkpt><trkpt lat="42.28084667111407" lon="13.695950976709932"><ele>976.4</ele><time>2026-04-27T16:05:51Z</time></trkpt><trkpt lat="42.28094014328565" lon="13.695918009998428"><ele>979.5999999999999</ele><time>2026-04-27T16:05:52Z</time></trkpt><trkpt lat="42.28105224108189" lon="13.695864897065837"><ele>982.8</ele><time>2026-04-27T16:05:53Z</time></trkpt><trkpt lat="42.28115734010969" lon="13.695812009550348"><ele>986.0</ele><time>2026-04-27T16:05:54Z</time></trkpt><trkpt lat="42.2812594219598" lon="13.695753219952962"><ele>986.0000000000001</ele><time>2026-04-27T16:05:55Z</time></trkpt><trkpt lat="42.2813301447738" lon="13.695716058305461"><ele>986.0</ele><time>2026-04-27T16:05:56Z</time></trkpt><trkpt lat="42.2814145464062" lon="13.695791225319594"><ele>986.0</ele><time>2026-04-27T16:05:58Z</time></trkpt><trkpt lat="42.28143884571458" lon="13.695881909210176"><ele>986.0</ele><time>2026-04-27T16:05:59Z</time></trkpt><trkpt lat="42.28146429701045" lon="13.695987222624598"><ele>986.0000000000001</ele><time>2026-04-27T16:06:00Z</time></trkpt><trkpt lat="42.28151785858417" lon="13.696115024023248"><ele>986.0</ele><time>2026-04-27T16:06:01Z</time></trkpt><trkpt lat="42.28158497352567" lon="13.696248860560413"><ele>986.8</ele><time>2026-04-27T16:06:02Z</time></trkpt><trkpt lat="42.28165819166515" lon="13.696372635863934"><ele>987.5999999999999</ele><time>2026-04-27T16:06:03Z</time></trkpt><trkpt lat="42.28172495040403" lon="13.696473588065508"><ele>988.4</ele><time>2026-04-27T16:06:04Z</time></trkpt><trkpt lat="42.28180620576258" lon="13.696558076973409"><ele>989.2</ele><time>2026-04-27T16:06:05Z</time></trkpt><trkpt lat="42.2818900211172" lon="13.696644780605949"><ele>990.0</ele><time>2026-04-27T16:06:06Z</time></trkpt><trkpt lat="42.281954370342525" lon="13.696728772798686"><ele>990.0</ele><time>2026-04-27T16:06:07Z</time></trkpt><trkpt lat="42.282013679832566" lon="13.696812024225993"><ele>990.0</ele><time>2026-04-27T16:06:08Z</time></trkpt><trkpt lat="42.28205877718681" lon="13.696881352709287"><ele>990.0</ele><time>2026-04-27T16:06:09Z</time></trkpt><trkpt lat="42.28212718717457" lon="13.696900980944912"><ele>990.0</ele><time>2026-04-27T16:06:10Z</time></trkpt><trkpt lat="42.2821750736081" lon="13.696778545918866"><ele>990.0</ele><time>2026-04-27T16:06:12Z</time></trkpt><trkpt lat="42.282101679999165" lon="13.696622686598507"><ele>990.0</ele><time>2026-04-27T16:06:14Z</time></trkpt><trkpt lat="42.28204867686626" lon="13.696523790253583"><ele>990.0</ele><time>2026-04-27T16:06:15Z</time></trkpt><trkpt lat="42.2820435173626" lon="13.696434317810068"><ele>990.0</ele><time>2026-04-27T16:06:16Z</time></trkpt><trkpt lat="42.282076766056264" lon="13.696352260652125"><ele>990.0</ele><time>2026-04-27T16:06:17Z</time></trkpt><trkpt lat="42.282143964062655" lon="13.696278196289267"><ele>990.0</ele><time>2026-04-27T16:06:18Z</time></trkpt><trkpt lat="42.28221866044939" lon="13.696183824117641"><ele>990.0</ele><time>2026-04-27T16:06:19Z</time></trkpt><trkpt lat="42.2822726515506" lon="13.696075261708858"><ele>984.5</ele><time>2026-04-27T16:06:20Z</time></trkpt><trkpt lat="42.28230301728849" lon="13.695973974097098"><ele>979.0</ele><time>2026-04-27T16:06:21Z</time></trkpt><trkpt lat="42.282305129480356" lon="13.695844178678222"><ele>973.5</ele><time>2026-04-27T16:06:22Z</time></trkpt><trkpt lat="42.28230989482198" lon="13.695677060007991"><ele>968.0</ele><time>2026-04-27T16:06:23Z</time></trkpt><trkpt lat="42.28231684797111" lon="13.695460558459857"><ele>967.25</ele><time>2026-04-27T16:06:24Z</time></trkpt><trkpt lat="42.28232693747356" lon="13.69523688795581"><ele>966.5</ele><time>2026-04-27T16:06:25Z</time></trkpt><trkpt lat="42.2823341687783" lon="13.69504198595924"><ele>965.75</ele><time>2026-04-27T16:06:26Z</time></trkpt><trkpt lat="42.2823431122298" lon="13.694880970799579"><ele>965.0</ele><time>2026-04-27T16:06:27Z</time></trkpt><trkpt lat="42.2823353817901" lon="13.694742094563193"><ele>965.0</ele><time>2026-04-27T16:06:28Z</time></trkpt><trkpt lat="42.282313039543126" lon="13.694595459665482"><ele>965.0</ele><time>2026-04-27T16:06:29Z</time></trkpt><trkpt lat="42.28228358883895" lon="13.69443764345264"><ele>965.0</ele><time>2026-04-27T16:06:30Z</time></trkpt><trkpt lat="42.28224732404951" lon="13.694287042975063"><ele>965.0</ele><time>2026-04-27T16:06:31Z</time></trkpt><trkpt lat="42.28222465541175" lon="13.694158468015727"><ele>965.0</ele><time>2026-04-27T16:06:32Z</time></trkpt><trkpt lat="42.282222137856564" lon="13.694009702486747"><ele>963.4</ele><time>2026-04-27T16:06:33Z</time></trkpt><trkpt lat="42.282244160829265" lon="13.693867496574411"><ele>961.8</ele><time>2026-04-27T16:06:34Z</time></trkpt><trkpt lat="42.28228612896473" lon="13.69373266774069"><ele>960.2</ele><time>2026-04-27T16:06:35Z</time></trkpt><trkpt lat="42.28232788091763" lon="13.693610719861455"><ele>958.6</ele><time>2026-04-27T16:06:36Z</time></trkpt><trkpt lat="42.282352316017025" lon="13.6934735285497"><ele>957.0</ele><time>2026-04-27T16:06:37Z</time></trkpt><trkpt lat="42.282364784991174" lon="13.693324285202836"><ele>957.25</ele><time>2026-04-27T16:06:38Z</time></trkpt><trkpt lat="42.28237885555296" lon="13.69315174510908"><ele>957.5</ele><time>2026-04-27T16:06:39Z</time></trkpt><trkpt lat="42.28239747988353" lon="13.692987360568743"><ele>957.75</ele><time>2026-04-27T16:06:40Z</time></trkpt><trkpt lat="42.28243902550581" lon="13.692843328565974"><ele>958.0</ele><time>2026-04-27T16:06:41Z</time></trkpt><trkpt lat="42.282501595217425" lon="13.692666880950348"><ele>958.0</ele><time>2026-04-27T16:06:42Z</time></trkpt><trkpt lat="42.28256693301382" lon="13.692487992009067"><ele>958.0</ele><time>2026-04-27T16:06:43Z</time></trkpt><trkpt lat="42.28262534860042" lon="13.692317589431768"><ele>958.0</ele><time>2026-04-27T16:06:44Z</time></trkpt><trkpt lat="42.28269766175913" lon="13.692171205274647"><ele>958.0</ele><time>2026-04-27T16:06:45Z</time></trkpt><trkpt lat="42.28277450569747" lon="13.69204117510617"><ele>962.0</ele><time>2026-04-27T16:06:46Z</time></trkpt><trkpt lat="42.28286723809053" lon="13.691904363569797"><ele>966.0</ele><time>2026-04-27T16:06:47Z</time></trkpt><trkpt lat="42.28294848150489" lon="13.6917731191586"><ele>970.0</ele><time>2026-04-27T16:06:48Z</time></trkpt><trkpt lat="42.283022117765206" lon="13.691657589056325"><ele>974.0</ele><time>2026-04-27T16:06:49Z</time></trkpt><trkpt lat="42.283108781809595" lon="13.691565320539894"><ele>965.25</ele><time>2026-04-27T16:06:50Z</time></trkpt><trkpt lat="42.28321733903437" lon="13.691478753645615"><ele>956.5</ele><time>2026-04-27T16:06:51Z</time></trkpt><trkpt lat="42.283355116468805" lon="13.691387237607376"><ele>947.75</ele><time>2026-04-27T16:06:52Z</time></trkpt><trkpt lat="42.28349202586361" lon="13.691290974000337"><ele>939.0</ele><time>2026-04-27T16:06:53Z</time></trkpt><trkpt lat="42.283642241919914" lon="13.691190521085517"><ele>939.0</ele><time>2026-04-27T16:06:54Z</time></trkpt><trkpt lat="42.283796245247366" lon="13.691091086319231"><ele>939.0</ele><time>2026-04-27T16:06:55Z</time></trkpt><trkpt lat="42.28392034498815" lon="13.69100180080999"><ele>939.0</ele><time>2026-04-27T16:06:56Z</time></trkpt><trkpt lat="42.28403567825226" lon="13.690926768646891"><ele>939.0</ele><time>2026-04-27T16:06:57Z</time></trkpt><trkpt lat="42.284141188924714" lon="13.690872879356958"><ele>939.8000000000001</ele><time>2026-04-27T16:06:58Z</time></trkpt><trkpt lat="42.28422862358582" lon="13.690855372703856"><ele>940.6000000000001</ele><time>2026-04-27T16:06:59Z</time></trkpt><trkpt lat="42.284313811656375" lon="13.690885867643338"><ele>941.4</ele><time>2026-04-27T16:07:00Z</time></trkpt><trkpt lat="42.2844116171233" lon="13.690936786110962"><ele>942.2</ele><time>2026-04-27T16:07:01Z</time></trkpt><trkpt lat="42.284519859635786" lon="13.690996956901763"><ele>943.0</ele><time>2026-04-27T16:07:02Z</time></trkpt><trkpt lat="42.28465722793451" lon="13.691056962416022"><ele>931.6666666666666</ele><time>2026-04-27T16:07:03Z</time></trkpt><trkpt lat="42.28481951680765" lon="13.691118094677027"><ele>920.3333333333333</ele><time>2026-04-27T16:07:04Z</time></trkpt><trkpt lat="42.284995950578455" lon="13.69117896953154"><ele>909.0</ele><time>2026-04-27T16:07:05Z</time></trkpt><trkpt lat="42.28515236109666" lon="13.691227616003797"><ele>909.0</ele><time>2026-04-27T16:07:06Z</time></trkpt><trkpt lat="42.28529654579685" lon="13.691260237965414"><ele>909.0</ele><time>2026-04-27T16:07:07Z</time></trkpt><trkpt lat="42.2854202959652" lon="13.691280462458437"><ele>909.0</ele><time>2026-04-27T16:07:08Z</time></trkpt><trkpt lat="42.28552632293101" lon="13.691290547761668"><ele>909.0</ele><time>2026-04-27T16:07:09Z</time></trkpt><trkpt lat="42.28562867956869" lon="13.691280379949596"><ele>909.6666666666667</ele><time>2026-04-27T16:07:10Z</time></trkpt><trkpt lat="42.28575871434905" lon="13.691248631934279"><ele>910.3333333333334</ele><time>2026-04-27T16:07:11Z</time></trkpt><trkpt lat="42.2859254550141" lon="13.691203149147848"><ele>911.0</ele><time>2026-04-27T16:07:12Z</time></trkpt><trkpt lat="42.286099549170025" lon="13.691160015919928"><ele>911.0</ele><time>2026-04-27T16:07:13Z</time></trkpt><trkpt lat="42.28628288381054" lon="13.691110585103385"><ele>911.0</ele><time>2026-04-27T16:07:14Z</time></trkpt><trkpt lat="42.28644519097962" lon="13.691069631178038"><ele>911.0</ele><time>2026-04-27T16:07:15Z</time></trkpt><trkpt lat="42.28660487799391" lon="13.691032709978336"><ele>918.0</ele><time>2026-04-27T16:07:16Z</time></trkpt><trkpt lat="42.28675287603333" lon="13.691001891781017"><ele>925.0</ele><time>2026-04-27T16:07:17Z</time></trkpt><trkpt lat="42.28690117887715" lon="13.690964728744417"><ele>932.0</ele><time>2026-04-27T16:07:18Z</time></trkpt><trkpt lat="42.28704300552052" lon="13.690912958850447"><ele>939.0</ele><time>2026-04-27T16:07:19Z</time></trkpt><trkpt lat="42.28717793990514" lon="13.690857524181183"><ele>935.0</ele><time>2026-04-27T16:07:20Z</time></trkpt><trkpt lat="42.28732219193531" lon="13.690796685742948"><ele>931.0</ele><time>2026-04-27T16:07:21Z</time></trkpt><trkpt lat="42.287462698748044" lon="13.690736972125753"><ele>927.0</ele><time>2026-04-27T16:07:22Z</time></trkpt><trkpt lat="42.28758220482599" lon="13.690685113970574"><ele>923.0</ele><time>2026-04-27T16:07:23Z</time></trkpt><trkpt lat="42.2877170951088" lon="13.690640686475648"><ele>923.0</ele><time>2026-04-27T16:07:24Z</time></trkpt><trkpt lat="42.287846085524926" lon="13.690603766220717"><ele>923.0</ele><time>2026-04-27T16:07:25Z</time></trkpt><trkpt lat="42.28795463639849" lon="13.690567905843015"><ele>923.0</ele><time>2026-04-27T16:07:26Z</time></trkpt><trkpt lat="42.28807156783064" lon="13.690507917472523"><ele>923.0</ele><time>2026-04-27T16:07:27Z</time></trkpt><trkpt lat="42.288207744043476" lon="13.690439875487925"><ele>919.5999999999999</ele><time>2026-04-27T16:07:28Z</time></trkpt><trkpt lat="42.28833292983291" lon="13.690380176827027"><ele>916.1999999999999</ele><time>2026-04-27T16:07:29Z</time></trkpt><trkpt lat="42.288430554770834" lon="13.690344310346951"><ele>912.8</ele><time>2026-04-27T16:07:30Z</time></trkpt><trkpt lat="42.28851868014789" lon="13.690336817206553"><ele>909.4</ele><time>2026-04-27T16:07:31Z</time></trkpt><trkpt lat="42.28861214268116" lon="13.69034189886895"><ele>906.0</ele><time>2026-04-27T16:07:32Z</time></trkpt><trkpt lat="42.288715168060826" lon="13.69038175366942"><ele>906.0</ele><time>2026-04-27T16:07:33Z</time></trkpt><trkpt lat="42.288813430672" lon="13.690422948692422"><ele>905.9999999999999</ele><time>2026-04-27T16:07:34Z</time></trkpt><trkpt lat="42.28890812150649" lon="13.690481935950327"><ele>905.9999999999999</ele><time>2026-04-27T16:07:35Z</time></trkpt><trkpt lat="42.288983429137474" lon="13.690515559756243"><ele>906.0</ele><time>2026-04-27T16:07:36Z</time></trkpt><trkpt lat="42.28907125054438" lon="13.690536443025788"><ele>906.0</ele><time>2026-04-27T16:07:37Z</time></trkpt><trkpt lat="42.28915897967771" lon="13.690538421675422"><ele>905.0</ele><time>2026-04-27T16:07:38Z</time></trkpt><trkpt lat="42.28923580229066" lon="13.6905340982462"><ele>903.9999999999999</ele><time>2026-04-27T16:07:39Z</time></trkpt><trkpt lat="42.289333059320235" lon="13.690508310468568"><ele>902.9999999999999</ele><time>2026-04-27T16:07:40Z</time></trkpt><trkpt lat="42.289452458398834" lon="13.690483606947081"><ele>902.0</ele><time>2026-04-27T16:07:41Z</time></trkpt><trkpt lat="42.28957033899725" lon="13.690469362423332"><ele>901.0</ele><time>2026-04-27T16:07:42Z</time></trkpt><trkpt lat="42.28967180646397" lon="13.69050081647701"><ele>900.1999999999999</ele><time>2026-04-27T16:07:43Z</time></trkpt><trkpt lat="42.28978910091397" lon="13.690549748691568"><ele>899.3999999999999</ele><time>2026-04-27T16:07:44Z</time></trkpt><trkpt lat="42.28989577435945" lon="13.690589277812405"><ele>898.6</ele><time>2026-04-27T16:07:45Z</time></trkpt><trkpt lat="42.290004375869664" lon="13.690630353045673"><ele>897.8</ele><time>2026-04-27T16:07:46Z</time></trkpt><trkpt lat="42.29010642448813" lon="13.69063073635208"><ele>897.0</ele><time>2026-04-27T16:07:47Z</time></trkpt><trkpt lat="42.290222306884985" lon="13.690618761355426"><ele>897.0</ele><time>2026-04-27T16:07:48Z</time></trkpt><trkpt lat="42.290336189016344" lon="13.690590923043858"><ele>897.0</ele><time>2026-04-27T16:07:49Z</time></trkpt><trkpt lat="42.29045086367192" lon="13.69056082450932"><ele>897.0</ele><time>2026-04-27T16:07:50Z</time></trkpt><trkpt lat="42.29056062295669" lon="13.690529994358451"><ele>897.0</ele><time>2026-04-27T16:07:51Z</time></trkpt><trkpt lat="42.29064836974597" lon="13.690515410000227"><ele>897.0</ele><time>2026-04-27T16:07:52Z</time></trkpt><trkpt lat="42.290731677570506" lon="13.690502518423251"><ele>895.0</ele><time>2026-04-27T16:07:53Z</time></trkpt><trkpt lat="42.29083364588561" lon="13.69051120226181"><ele>893.0</ele><time>2026-04-27T16:07:54Z</time></trkpt><trkpt lat="42.290919652057354" lon="13.690523360344168"><ele>891.0</ele><time>2026-04-27T16:07:55Z</time></trkpt><trkpt lat="42.291018389918236" lon="13.690535955654195"><ele>889.0</ele><time>2026-04-27T16:07:56Z</time></trkpt><trkpt lat="42.2911326361791" lon="13.69050004731951"><ele>887.0</ele><time>2026-04-27T16:07:57Z</time></trkpt><trkpt lat="42.291229687927085" lon="13.690458948023984"><ele>887.0</ele><time>2026-04-27T16:07:58Z</time></trkpt><trkpt lat="42.29133052542749" lon="13.690386633911173"><ele>887.0</ele><time>2026-04-27T16:07:59Z</time></trkpt><trkpt lat="42.29141466283122" lon="13.69029563545045"><ele>887.0</ele><time>2026-04-27T16:08:00Z</time></trkpt><trkpt lat="42.291506104957115" lon="13.690180811328029"><ele>887.0</ele><time>2026-04-27T16:08:01Z</time></trkpt><trkpt lat="42.29159584189825" lon="13.690077315764086"><ele>885.0</ele><time>2026-04-27T16:08:02Z</time></trkpt><trkpt lat="42.29167050930247" lon="13.689971972871083"><ele>883.0</ele><time>2026-04-27T16:08:03Z</time></trkpt><trkpt lat="42.2917370782899" lon="13.689901662179023"><ele>881.0</ele><time>2026-04-27T16:08:04Z</time></trkpt><trkpt lat="42.29180641593557" lon="13.689845786971889"><ele>879.0</ele><time>2026-04-27T16:08:05Z</time></trkpt><trkpt lat="42.291889035958896" lon="13.689796419918368"><ele>877.0</ele><time>2026-04-27T16:08:06Z</time></trkpt><trkpt lat="42.29199644472325" lon="13.689762055616237"><ele>877.0</ele><time>2026-04-27T16:08:07Z</time></trkpt><trkpt lat="42.2920883822546" lon="13.68970330427618"><ele>877.0</ele><time>2026-04-27T16:08:08Z</time></trkpt><trkpt lat="42.29216297204667" lon="13.689630011581782"><ele>877.0</ele><time>2026-04-27T16:08:09Z</time></trkpt><trkpt lat="42.29223908526213" lon="13.689508718454462"><ele>877.0</ele><time>2026-04-27T16:08:10Z</time></trkpt><trkpt lat="42.29232803897404" lon="13.689367301708645"><ele>877.0</ele><time>2026-04-27T16:08:11Z</time></trkpt><trkpt lat="42.292426337440155" lon="13.689213239732185"><ele>875.0</ele><time>2026-04-27T16:08:12Z</time></trkpt><trkpt lat="42.2925125736311" lon="13.689091711960362"><ele>873.0</ele><time>2026-04-27T16:08:13Z</time></trkpt><trkpt lat="42.29260778061598" lon="13.688985534486429"><ele>871.0</ele><time>2026-04-27T16:08:14Z</time></trkpt><trkpt lat="42.29270737495798" lon="13.688887766325104"><ele>869.0</ele><time>2026-04-27T16:08:15Z</time></trkpt><trkpt lat="42.29279854294761" lon="13.688819034062513"><ele>869.0</ele><time>2026-04-27T16:08:16Z</time></trkpt><trkpt lat="42.29288703241348" lon="13.688765478516789"><ele>869.0000000000001</ele><time>2026-04-27T16:08:17Z</time></trkpt><trkpt lat="42.29299205368102" lon="13.688712765647411"><ele>869.0000000000001</ele><time>2026-04-27T16:08:18Z</time></trkpt><trkpt lat="42.29309000386562" lon="13.688653479989634"><ele>869.0</ele><time>2026-04-27T16:08:19Z</time></trkpt><trkpt lat="42.293183117652504" lon="13.688593259428592"><ele>869.0</ele><time>2026-04-27T16:08:20Z</time></trkpt><trkpt lat="42.29325745842584" lon="13.68856571993968"><ele>869.0</ele><time>2026-04-27T16:08:21Z</time></trkpt><trkpt lat="42.29334158183076" lon="13.68856397159049"><ele>869.0000000000001</ele><time>2026-04-27T16:08:22Z</time></trkpt><trkpt lat="42.293433032841406" lon="13.688602237020813"><ele>869.0000000000001</ele><time>2026-04-27T16:08:24Z</time></trkpt><trkpt lat="42.293409785123465" lon="13.688724777369124"><ele>869.0</ele><time>2026-04-27T16:08:27Z</time></trkpt><trkpt lat="42.29334645028218" lon="13.688793553635783"><ele>869.0</ele><time>2026-04-27T16:08:28Z</time></trkpt><trkpt lat="42.29324977506235" lon="13.688896405171542"><ele>869.0</ele><time>2026-04-27T16:08:29Z</time></trkpt><trkpt lat="42.2931443897988" lon="13.689036487559662"><ele>869.0</ele><time>2026-04-27T16:08:30Z</time></trkpt><trkpt lat="42.29301212899448" lon="13.689183345279124"><ele>869.0</ele><time>2026-04-27T16:08:31Z</time></trkpt><trkpt lat="42.292901008040594" lon="13.689387597910928"><ele>865.6666666666667</ele><time>2026-04-27T16:08:32Z</time></trkpt><trkpt lat="42.29279509911799" lon="13.689615702386202"><ele>862.3333333333333</ele><time>2026-04-27T16:08:33Z</time></trkpt><trkpt lat="42.29270130842899" lon="13.689849450949081"><ele>859.0</ele><time>2026-04-27T16:08:34Z</time></trkpt><trkpt lat="42.292609307725044" lon="13.690072614232035"><ele>858.0</ele><time>2026-04-27T16:08:35Z</time></trkpt><trkpt lat="42.292532277217596" lon="13.690281344540582"><ele>857.0</ele><time>2026-04-27T16:08:36Z</time></trkpt><trkpt lat="42.29247209018978" lon="13.69046633837542"><ele>856.0</ele><time>2026-04-27T16:08:37Z</time></trkpt><trkpt lat="42.29243794838681" lon="13.69064389309525"><ele>856.0</ele><time>2026-04-27T16:08:38Z</time></trkpt><trkpt lat="42.29243052617992" lon="13.690819352561936"><ele>856.0</ele><time>2026-04-27T16:08:39Z</time></trkpt><trkpt lat="42.29241497525563" lon="13.690999515719525"><ele>856.0</ele><time>2026-04-27T16:08:40Z</time></trkpt><trkpt lat="42.29238929814079" lon="13.691150534018513"><ele>856.0</ele><time>2026-04-27T16:08:41Z</time></trkpt><trkpt lat="42.29234895035124" lon="13.691317634717027"><ele>857.25</ele><time>2026-04-27T16:08:42Z</time></trkpt><trkpt lat="42.29229491517181" lon="13.691487988563326"><ele>858.5</ele><time>2026-04-27T16:08:43Z</time></trkpt><trkpt lat="42.292226250314506" lon="13.691656325531811"><ele>859.75</ele><time>2026-04-27T16:08:44Z</time></trkpt><trkpt lat="42.29212900178205" lon="13.691805299715625"><ele>861.0</ele><time>2026-04-27T16:08:45Z</time></trkpt><trkpt lat="42.29200846934015" lon="13.691954544485217"><ele>861.3333333333333</ele><time>2026-04-27T16:08:46Z</time></trkpt><trkpt lat="42.29186065012024" lon="13.69212667777168"><ele>861.6666666666666</ele><time>2026-04-27T16:08:47Z</time></trkpt><trkpt lat="42.29169871727193" lon="13.692299971714924"><ele>862.0</ele><time>2026-04-27T16:08:48Z</time></trkpt><trkpt lat="42.291535116568845" lon="13.692465386864374"><ele>862.0</ele><time>2026-04-27T16:08:49Z</time></trkpt><trkpt lat="42.29140140686983" lon="13.692602720987153"><ele>862.0</ele><time>2026-04-27T16:08:50Z</time></trkpt><trkpt lat="42.2912946338291" lon="13.692734888605218"><ele>862.0</ele><time>2026-04-27T16:08:51Z</time></trkpt><trkpt lat="42.29121466648011" lon="13.692867397430389"><ele>862.0</ele><time>2026-04-27T16:08:52Z</time></trkpt><trkpt lat="42.291158652046896" lon="13.692998367907018"><ele>862.0</ele><time>2026-04-27T16:08:53Z</time></trkpt><trkpt lat="42.291125540819166" lon="13.693104787224295"><ele>862.0</ele><time>2026-04-27T16:08:54Z</time></trkpt><trkpt lat="42.291069755691574" lon="13.693157869466852"><ele>862.0</ele><time>2026-04-27T16:08:56Z</time></trkpt><trkpt lat="42.291191732121455" lon="13.693103774197693"><ele>862.0</ele><time>2026-04-27T16:09:00Z</time></trkpt><trkpt lat="42.291124879718545" lon="13.6929835631882"><ele>862.0</ele><time>2026-04-27T16:09:02Z</time></trkpt><trkpt lat="42.291000114565236" lon="13.692967513264122"><ele>862.0</ele><time>2026-04-27T16:09:04Z</time></trkpt><trkpt lat="42.29091113538522" lon="13.693008478254027"><ele>862.0</ele><time>2026-04-27T16:09:05Z</time></trkpt><trkpt lat="42.29079960714873" lon="13.693077802549517"><ele>862.0</ele><time>2026-04-27T16:09:06Z</time></trkpt><trkpt lat="42.290688140868866" lon="13.693141050752379"><ele>862.0</ele><time>2026-04-27T16:09:07Z</time></trkpt><trkpt lat="42.290581981112695" lon="13.693149204749078"><ele>862.0</ele><time>2026-04-27T16:09:08Z</time></trkpt><trkpt lat="42.290478471148816" lon="13.693164368583034"><ele>860.0</ele><time>2026-04-27T16:09:09Z</time></trkpt><trkpt lat="42.290363682879224" lon="13.693217522354539"><ele>858.0</ele><time>2026-04-27T16:09:10Z</time></trkpt><trkpt lat="42.29022632965226" lon="13.693322560484651"><ele>856.0</ele><time>2026-04-27T16:09:11Z</time></trkpt><trkpt lat="42.29009991307861" lon="13.693426215388506"><ele>854.0</ele><time>2026-04-27T16:09:12Z</time></trkpt><trkpt lat="42.28997943213705" lon="13.693520031837458"><ele>853.5</ele><time>2026-04-27T16:09:13Z</time></trkpt><trkpt lat="42.28985342442149" lon="13.693619316632589"><ele>853.0</ele><time>2026-04-27T16:09:14Z</time></trkpt><trkpt lat="42.28974831000009" lon="13.69372368651238"><ele>852.5</ele><time>2026-04-27T16:09:15Z</time></trkpt><trkpt lat="42.28965390710149" lon="13.693809368506558"><ele>852.0</ele><time>2026-04-27T16:09:16Z</time></trkpt><trkpt lat="42.28958375164513" lon="13.693918061756046"><ele>848.75</ele><time>2026-04-27T16:09:17Z</time></trkpt><trkpt lat="42.28953201605466" lon="13.694024851554408"><ele>845.5</ele><time>2026-04-27T16:09:18Z</time></trkpt><trkpt lat="42.289496353299555" lon="13.694147067649956"><ele>842.25</ele><time>2026-04-27T16:09:19Z</time></trkpt><trkpt lat="42.28944900736748" lon="13.694299975427136"><ele>839.0</ele><time>2026-04-27T16:09:20Z</time></trkpt><trkpt lat="42.289379810302044" lon="13.69446191689942"><ele>837.75</ele><time>2026-04-27T16:09:21Z</time></trkpt><trkpt lat="42.28930821826757" lon="13.694615159710857"><ele>836.5</ele><time>2026-04-27T16:09:22Z</time></trkpt><trkpt lat="42.28922993017339" lon="13.694774489304576"><ele>835.25</ele><time>2026-04-27T16:09:23Z</time></trkpt><trkpt lat="42.28915024598095" lon="13.69492337940151"><ele>834.0</ele><time>2026-04-27T16:09:24Z</time></trkpt><trkpt lat="42.289082402994" lon="13.69505807030379"><ele>834.0</ele><time>2026-04-27T16:09:25Z</time></trkpt><trkpt lat="42.289019076702935" lon="13.695186920165225"><ele>834.0</ele><time>2026-04-27T16:09:26Z</time></trkpt><trkpt lat="42.28895272405983" lon="13.695314592703957"><ele>834.0</ele><time>2026-04-27T16:09:27Z</time></trkpt><trkpt lat="42.28890444356726" lon="13.695444277439874"><ele>834.0</ele><time>2026-04-27T16:09:28Z</time></trkpt><trkpt lat="42.28885067061454" lon="13.69558986455956"><ele>831.0</ele><time>2026-04-27T16:09:29Z</time></trkpt><trkpt lat="42.2887897354268" lon="13.695732468716288"><ele>828.0</ele><time>2026-04-27T16:09:30Z</time></trkpt><trkpt lat="42.28872386045145" lon="13.695861145234895"><ele>825.0</ele><time>2026-04-27T16:09:31Z</time></trkpt><trkpt lat="42.2886574099461" lon="13.69594258855596"><ele>822.0</ele><time>2026-04-27T16:09:32Z</time></trkpt><trkpt lat="42.28857563849152" lon="13.695997881072314"><ele>819.0</ele><time>2026-04-27T16:09:33Z</time></trkpt><trkpt lat="42.2884597639182" lon="13.696045778745852"><ele>818.0</ele><time>2026-04-27T16:09:34Z</time></trkpt><trkpt lat="42.28834846120086" lon="13.696089418866384"><ele>817.0</ele><time>2026-04-27T16:09:35Z</time></trkpt><trkpt lat="42.28823827262798" lon="13.696168006481512"><ele>816.0</ele><time>2026-04-27T16:09:36Z</time></trkpt><trkpt lat="42.28814150181624" lon="13.696274115970192"><ele>815.0</ele><time>2026-04-27T16:09:37Z</time></trkpt><trkpt lat="42.288044684538" lon="13.696399377044031"><ele>812.6</ele><time>2026-04-27T16:09:38Z</time></trkpt><trkpt lat="42.28795781148862" lon="13.696507639796419"><ele>810.2</ele><time>2026-04-27T16:09:39Z</time></trkpt><trkpt lat="42.28788073302291" lon="13.696602496888252"><ele>807.8</ele><time>2026-04-27T16:09:40Z</time></trkpt><trkpt lat="42.28781636278212" lon="13.696686667628905"><ele>805.4</ele><time>2026-04-27T16:09:41Z</time></trkpt><trkpt lat="42.2877407974106" lon="13.696764815340915"><ele>803.0</ele><time>2026-04-27T16:09:42Z</time></trkpt><trkpt lat="42.28766417326661" lon="13.69682394774862"><ele>803.0</ele><time>2026-04-27T16:09:43Z</time></trkpt><trkpt lat="42.28760765168338" lon="13.696918616392173"><ele>803.0</ele><time>2026-04-27T16:09:44Z</time></trkpt><trkpt lat="42.28757970562026" lon="13.697050271282471"><ele>803.0</ele><time>2026-04-27T16:09:45Z</time></trkpt><trkpt lat="42.28758155665723" lon="13.697188850547207"><ele>803.0</ele><time>2026-04-27T16:09:46Z</time></trkpt><trkpt lat="42.28759747170373" lon="13.697347829839481"><ele>803.0</ele><time>2026-04-27T16:09:47Z</time></trkpt><trkpt lat="42.28757971405675" lon="13.697491638800672"><ele>802.25</ele><time>2026-04-27T16:09:48Z</time></trkpt><trkpt lat="42.287509761941294" lon="13.697624871004756"><ele>801.5</ele><time>2026-04-27T16:09:49Z</time></trkpt><trkpt lat="42.28742801386179" lon="13.69775931235233"><ele>800.75</ele><time>2026-04-27T16:09:50Z</time></trkpt><trkpt lat="42.28737176217732" lon="13.697878894940775"><ele>800.0</ele><time>2026-04-27T16:09:51Z</time></trkpt><trkpt lat="42.287332843007704" lon="13.698017994132895"><ele>799.8</ele><time>2026-04-27T16:09:52Z</time></trkpt><trkpt lat="42.28730527577649" lon="13.698151642697173"><ele>799.6</ele><time>2026-04-27T16:09:53Z</time></trkpt><trkpt lat="42.28729153249531" lon="13.698276173703531"><ele>799.4000000000001</ele><time>2026-04-27T16:09:54Z</time></trkpt><trkpt lat="42.28729188191761" lon="13.698399013018028"><ele>799.2</ele><time>2026-04-27T16:09:55Z</time></trkpt><trkpt lat="42.28730727515394" lon="13.698531642953458"><ele>799.0</ele><time>2026-04-27T16:09:56Z</time></trkpt><trkpt lat="42.28733115030577" lon="13.698666437727297"><ele>798.4000000000001</ele><time>2026-04-27T16:09:57Z</time></trkpt><trkpt lat="42.28734218201262" lon="13.698801202817677"><ele>797.8</ele><time>2026-04-27T16:09:58Z</time></trkpt><trkpt lat="42.28731703800558" lon="13.69893329171172"><ele>797.2</ele><time>2026-04-27T16:09:59Z</time></trkpt><trkpt lat="42.287270521690296" lon="13.699092534921688"><ele>796.5999999999999</ele><time>2026-04-27T16:10:00Z</time></trkpt><trkpt lat="42.28723337729377" lon="13.699230144751727"><ele>796.0</ele><time>2026-04-27T16:10:01Z</time></trkpt><trkpt lat="42.28724128038377" lon="13.699385905897325"><ele>795.4999999999999</ele><time>2026-04-27T16:10:03Z</time></trkpt><trkpt lat="42.287276633223556" lon="13.699480930174298"><ele>795.0</ele><time>2026-04-27T16:10:04Z</time></trkpt><trkpt lat="42.287330587319055" lon="13.699581101114118"><ele>794.5</ele><time>2026-04-27T16:10:05Z</time></trkpt><trkpt lat="42.28739550078439" lon="13.699657005360532"><ele>794.0</ele><time>2026-04-27T16:10:06Z</time></trkpt><trkpt lat="42.28742764978357" lon="13.699731198227587"><ele>793.4999999999999</ele><time>2026-04-27T16:10:07Z</time></trkpt><trkpt lat="42.2873909245038" lon="13.699886904160758"><ele>793.0</ele><time>2026-04-27T16:10:09Z</time></trkpt><trkpt lat="42.28737784146063" lon="13.700014712759824"><ele>793.0</ele><time>2026-04-27T16:10:10Z</time></trkpt><trkpt lat="42.28738028540968" lon="13.700156627842262"><ele>793.0</ele><time>2026-04-27T16:10:11Z</time></trkpt><trkpt lat="42.287365812851625" lon="13.700244882328208"><ele>793.0</ele><time>2026-04-27T16:10:12Z</time></trkpt><trkpt lat="42.287316264169455" lon="13.700350898989354"><ele>793.0</ele><time>2026-04-27T16:10:13Z</time></trkpt><trkpt lat="42.28724434788272" lon="13.700499624984511"><ele>793.0</ele><time>2026-04-27T16:10:14Z</time></trkpt><trkpt lat="42.287172786527" lon="13.700639961189516"><ele>790.5</ele><time>2026-04-27T16:10:15Z</time></trkpt><trkpt lat="42.287136926458416" lon="13.700773172890141"><ele>788.0</ele><time>2026-04-27T16:10:16Z</time></trkpt><trkpt lat="42.28712793668645" lon="13.700911897269812"><ele>785.5</ele><time>2026-04-27T16:10:17Z</time></trkpt><trkpt lat="42.28713362133445" lon="13.70106240330429"><ele>783.0</ele><time>2026-04-27T16:10:18Z</time></trkpt><trkpt lat="42.28714150352856" lon="13.701240189373031"><ele>783.0</ele><time>2026-04-27T16:10:19Z</time></trkpt><trkpt lat="42.28714386308519" lon="13.701443991940765"><ele>783.0</ele><time>2026-04-27T16:10:20Z</time></trkpt><trkpt lat="42.28711489526167" lon="13.701636784658456"><ele>783.0</ele><time>2026-04-27T16:10:21Z</time></trkpt><trkpt lat="42.28707497094328" lon="13.701796672139002"><ele>783.0</ele><time>2026-04-27T16:10:22Z</time></trkpt><trkpt lat="42.287013240468866" lon="13.701945266218727"><ele>782.6666666666667</ele><time>2026-04-27T16:10:23Z</time></trkpt><trkpt lat="42.28692867074833" lon="13.70210743618459"><ele>782.3333333333334</ele><time>2026-04-27T16:10:24Z</time></trkpt><trkpt lat="42.28684119263213" lon="13.702300674766896"><ele>782.0</ele><time>2026-04-27T16:10:25Z</time></trkpt><trkpt lat="42.28677119206991" lon="13.702511335731831"><ele>782.0</ele><time>2026-04-27T16:10:26Z</time></trkpt><trkpt lat="42.28670270695689" lon="13.702728913088578"><ele>782.0</ele><time>2026-04-27T16:10:27Z</time></trkpt><trkpt lat="42.28663662274745" lon="13.702909987701458"><ele>782.0</ele><time>2026-04-27T16:10:28Z</time></trkpt><trkpt lat="42.28656406081034" lon="13.70306049608122"><ele>783.0</ele><time>2026-04-27T16:10:29Z</time></trkpt><trkpt lat="42.28649643556523" lon="13.703200935647981"><ele>784.0</ele><time>2026-04-27T16:10:30Z</time></trkpt><trkpt lat="42.28644015599886" lon="13.703366668701822"><ele>785.0</ele><time>2026-04-27T16:10:31Z</time></trkpt><trkpt lat="42.286387866597565" lon="13.703541810218788"><ele>786.0</ele><time>2026-04-27T16:10:32Z</time></trkpt><trkpt lat="42.286346434539446" lon="13.703696791331138"><ele>784.3333333333334</ele><time>2026-04-27T16:10:33Z</time></trkpt><trkpt lat="42.28631428338637" lon="13.70380324959054"><ele>782.6666666666667</ele><time>2026-04-27T16:10:34Z</time></trkpt><trkpt lat="42.28626967012351" lon="13.703878178724345"><ele>781.0</ele><time>2026-04-27T16:10:35Z</time></trkpt><trkpt lat="42.28616001189114" lon="13.703904404326485"><ele>779.3333333333334</ele><time>2026-04-27T16:10:37Z</time></trkpt><trkpt lat="42.286076029722565" lon="13.703892834329768"><ele>777.6666666666667</ele><time>2026-04-27T16:10:38Z</time></trkpt><trkpt lat="42.28600301226522" lon="13.703842995431982"><ele>776.0</ele><time>2026-04-27T16:10:39Z</time></trkpt><trkpt lat="42.28589197152519" lon="13.703802097757835"><ele>776.0</ele><time>2026-04-27T16:10:40Z</time></trkpt><trkpt lat="42.28577846685894" lon="13.703779211981109"><ele>776.0</ele><time>2026-04-27T16:10:41Z</time></trkpt><trkpt lat="42.28568241912717" lon="13.703768308250675"><ele>776.0</ele><time>2026-04-27T16:10:42Z</time></trkpt><trkpt lat="42.2855998155838" lon="13.70377304530178"><ele>776.0</ele><time>2026-04-27T16:10:43Z</time></trkpt><trkpt lat="42.28550098440188" lon="13.703891682452012"><ele>776.0</ele><time>2026-04-27T16:10:45Z</time></trkpt><trkpt lat="42.285425315438076" lon="13.704036043429978"><ele>780.6666666666667</ele><time>2026-04-27T16:10:46Z</time></trkpt><trkpt lat="42.285336124049984" lon="13.704196633640404"><ele>785.3333333333333</ele><time>2026-04-27T16:10:47Z</time></trkpt><trkpt lat="42.28524490163738" lon="13.704367471447462"><ele>790.0</ele><time>2026-04-27T16:10:48Z</time></trkpt><trkpt lat="42.28516974700301" lon="13.704538623039358"><ele>790.0</ele><time>2026-04-27T16:10:49Z</time></trkpt><trkpt lat="42.285118777001884" lon="13.704732997675885"><ele>790.0</ele><time>2026-04-27T16:10:50Z</time></trkpt><trkpt lat="42.285070084805334" lon="13.704938920692687"><ele>790.0</ele><time>2026-04-27T16:10:51Z</time></trkpt><trkpt lat="42.285027363513045" lon="13.705126651331428"><ele>788.75</ele><time>2026-04-27T16:10:52Z</time></trkpt><trkpt lat="42.284986636996024" lon="13.705315271684466"><ele>787.5</ele><time>2026-04-27T16:10:53Z</time></trkpt><trkpt lat="42.284943160815025" lon="13.70547338783424"><ele>786.25</ele><time>2026-04-27T16:10:54Z</time></trkpt><trkpt lat="42.2848792991262" lon="13.705645388135506"><ele>785.0</ele><time>2026-04-27T16:10:55Z</time></trkpt><trkpt lat="42.28481292048199" lon="13.705834105384831"><ele>791.0</ele><time>2026-04-27T16:10:56Z</time></trkpt><trkpt lat="42.284758447825126" lon="13.706025392229666"><ele>797.0</ele><time>2026-04-27T16:10:57Z</time></trkpt><trkpt lat="42.284718419388206" lon="13.70619122051679"><ele>803.0</ele><time>2026-04-27T16:10:58Z</time></trkpt><trkpt lat="42.2846752112823" lon="13.706352461285247"><ele>809.0</ele><time>2026-04-27T16:10:59Z</time></trkpt><trkpt lat="42.284618685821286" lon="13.706499124712249"><ele>809.0</ele><time>2026-04-27T16:11:00Z</time></trkpt><trkpt lat="42.284543858471054" lon="13.70663584646457"><ele>809.0</ele><time>2026-04-27T16:11:01Z</time></trkpt><trkpt lat="42.284454100547926" lon="13.706786099507735"><ele>809.0</ele><time>2026-04-27T16:11:02Z</time></trkpt><trkpt lat="42.28435062079163" lon="13.706912625709425"><ele>809.0</ele><time>2026-04-27T16:11:03Z</time></trkpt><trkpt lat="42.28423185659252" lon="13.707041688425958"><ele>807.6666666666667</ele><time>2026-04-27T16:11:04Z</time></trkpt><trkpt lat="42.28411875488003" lon="13.707168378272307"><ele>806.3333333333333</ele><time>2026-04-27T16:11:05Z</time></trkpt><trkpt lat="42.28400935076383" lon="13.707298921200703"><ele>805.0</ele><time>2026-04-27T16:11:06Z</time></trkpt><trkpt lat="42.28389493095638" lon="13.707464650746742"><ele>808.25</ele><time>2026-04-27T16:11:07Z</time></trkpt><trkpt lat="42.28380590671522" lon="13.707610387612313"><ele>811.5</ele><time>2026-04-27T16:11:08Z</time></trkpt><trkpt lat="42.283710778571226" lon="13.70775578412246"><ele>814.75</ele><time>2026-04-27T16:11:09Z</time></trkpt><trkpt lat="42.28362722086243" lon="13.707922271055658"><ele>818.0</ele><time>2026-04-27T16:11:10Z</time></trkpt><trkpt lat="42.28356865947443" lon="13.70806820046368"><ele>818.0</ele><time>2026-04-27T16:11:11Z</time></trkpt><trkpt lat="42.283489844690706" lon="13.708193978587902"><ele>818.0</ele><time>2026-04-27T16:11:12Z</time></trkpt><trkpt lat="42.28339943794612" lon="13.708312370449974"><ele>818.0</ele><time>2026-04-27T16:11:13Z</time></trkpt><trkpt lat="42.283301169966386" lon="13.708443788933529"><ele>818.0</ele><time>2026-04-27T16:11:14Z</time></trkpt><trkpt lat="42.28319048550359" lon="13.708570576214958"><ele>818.5999999999999</ele><time>2026-04-27T16:11:15Z</time></trkpt><trkpt lat="42.28307980417578" lon="13.708691125902856"><ele>819.1999999999999</ele><time>2026-04-27T16:11:16Z</time></trkpt><trkpt lat="42.28298728311598" lon="13.708789963243092"><ele>819.8</ele><time>2026-04-27T16:11:17Z</time></trkpt><trkpt lat="42.28292227818928" lon="13.708845512224745"><ele>820.4</ele><time>2026-04-27T16:11:18Z</time></trkpt><trkpt lat="42.28284247124165" lon="13.708862024401508"><ele>821.0</ele><time>2026-04-27T16:11:19Z</time></trkpt><trkpt lat="42.28274494387348" lon="13.70888029131968"><ele>821.0</ele><time>2026-04-27T16:11:20Z</time></trkpt><trkpt lat="42.28262155398698" lon="13.708952393616563"><ele>821.0</ele><time>2026-04-27T16:11:21Z</time></trkpt><trkpt lat="42.28249200763335" lon="13.709054813912802"><ele>821.0</ele><time>2026-04-27T16:11:22Z</time></trkpt><trkpt lat="42.28235984767269" lon="13.709160033539245"><ele>821.0</ele><time>2026-04-27T16:11:23Z</time></trkpt><trkpt lat="42.28222519075979" lon="13.7092628746378"><ele>821.25</ele><time>2026-04-27T16:11:24Z</time></trkpt><trkpt lat="42.282087628638536" lon="13.709356365741925"><ele>821.5</ele><time>2026-04-27T16:11:25Z</time></trkpt><trkpt lat="42.28198133184267" lon="13.70943204739447"><ele>821.75</ele><time>2026-04-27T16:11:26Z</time></trkpt><trkpt lat="42.28188030649458" lon="13.709505612538939"><ele>822.0</ele><time>2026-04-27T16:11:27Z</time></trkpt><trkpt lat="42.281759951018145" lon="13.70957079632346"><ele>822.0</ele><time>2026-04-27T16:11:28Z</time></trkpt><trkpt lat="42.28164719771406" lon="13.709625539819935"><ele>822.0</ele><time>2026-04-27T16:11:29Z</time></trkpt><trkpt lat="42.28154254066592" lon="13.709713417545974"><ele>822.0</ele><time>2026-04-27T16:11:30Z</time></trkpt><trkpt lat="42.281425652065934" lon="13.709819883849983"><ele>822.0</ele><time>2026-04-27T16:11:31Z</time></trkpt><trkpt lat="42.28131341177116" lon="13.70990227098453"><ele>827.25</ele><time>2026-04-27T16:11:32Z</time></trkpt><trkpt lat="42.2812081124916" lon="13.709939598758139"><ele>832.5</ele><time>2026-04-27T16:11:33Z</time></trkpt><trkpt lat="42.28106458907185" lon="13.709978734341822"><ele>837.75</ele><time>2026-04-27T16:11:34Z</time></trkpt><trkpt lat="42.28092707677138" lon="13.710018724279351"><ele>843.0</ele><time>2026-04-27T16:11:35Z</time></trkpt><trkpt lat="42.28081331390391" lon="13.710072175971431"><ele>843.0</ele><time>2026-04-27T16:11:36Z</time></trkpt><trkpt lat="42.28073257008764" lon="13.710107450764973"><ele>843.0</ele><time>2026-04-27T16:11:37Z</time></trkpt><trkpt lat="42.280646417281694" lon="13.710122808142724"><ele>843.0</ele><time>2026-04-27T16:11:38Z</time></trkpt><trkpt lat="42.28052770290945" lon="13.710133817405366"><ele>843.0</ele><time>2026-04-27T16:11:39Z</time></trkpt><trkpt lat="42.28040340596602" lon="13.710141352816235"><ele>843.0</ele><time>2026-04-27T16:11:40Z</time></trkpt><trkpt lat="42.280302676318435" lon="13.710143448780583"><ele>845.2</ele><time>2026-04-27T16:11:41Z</time></trkpt><trkpt lat="42.28019080162479" lon="13.710132122035446"><ele>847.4</ele><time>2026-04-27T16:11:42Z</time></trkpt><trkpt lat="42.28010775319333" lon="13.710148424421602"><ele>849.6000000000001</ele><time>2026-04-27T16:11:43Z</time></trkpt><trkpt lat="42.28001265294493" lon="13.71018703778052"><ele>851.8000000000001</ele><time>2026-04-27T16:11:44Z</time></trkpt><trkpt lat="42.27991645150499" lon="13.710233642942843"><ele>854.0</ele><time>2026-04-27T16:11:45Z</time></trkpt><trkpt lat="42.27978872254653" lon="13.71022566221915"><ele>855.4000000000001</ele><time>2026-04-27T16:11:46Z</time></trkpt><trkpt lat="42.27967191584501" lon="13.710220274585632"><ele>856.8000000000001</ele><time>2026-04-27T16:11:47Z</time></trkpt><trkpt lat="42.27956466131685" lon="13.710212144485297"><ele>858.1999999999999</ele><time>2026-04-27T16:11:48Z</time></trkpt><trkpt lat="42.279456481145715" lon="13.710200178900875"><ele>859.5999999999999</ele><time>2026-04-27T16:11:49Z</time></trkpt><trkpt lat="42.27936147951769" lon="13.710189855403863"><ele>861.0</ele><time>2026-04-27T16:11:50Z</time></trkpt><trkpt lat="42.279279090260744" lon="13.71018918551239"><ele>861.0</ele><time>2026-04-27T16:11:51Z</time></trkpt><trkpt lat="42.279211892089975" lon="13.71017441708052"><ele>861.0</ele><time>2026-04-27T16:11:52Z</time></trkpt><trkpt lat="42.279123846748256" lon="13.71010395520505"><ele>861.0</ele><time>2026-04-27T16:11:54Z</time></trkpt><trkpt lat="42.27905183841848" lon="13.710069920901823"><ele>861.0</ele><time>2026-04-27T16:11:55Z</time></trkpt><trkpt lat="42.278964197842946" lon="13.710056304937094"><ele>861.0</ele><time>2026-04-27T16:11:56Z</time></trkpt><trkpt lat="42.27887047128777" lon="13.710071855595643"><ele>861.0</ele><time>2026-04-27T16:11:57Z</time></trkpt><trkpt lat="42.27876832597711" lon="13.710094232277626"><ele>864.25</ele><time>2026-04-27T16:11:58Z</time></trkpt><trkpt lat="42.2786631805926" lon="13.7101053685898"><ele>867.5</ele><time>2026-04-27T16:11:59Z</time></trkpt><trkpt lat="42.2785417334483" lon="13.710144044570592"><ele>870.75</ele><time>2026-04-27T16:12:00Z</time></trkpt><trkpt lat="42.278418723895975" lon="13.710152565439895"><ele>874.0</ele><time>2026-04-27T16:12:01Z</time></trkpt><trkpt lat="42.278291740421835" lon="13.710170899927764"><ele>874.0</ele><time>2026-04-27T16:12:02Z</time></trkpt><trkpt lat="42.278161496167634" lon="13.710227967078733"><ele>874.0</ele><time>2026-04-27T16:12:03Z</time></trkpt><trkpt lat="42.27804176458628" lon="13.710279620194763"><ele>874.0</ele><time>2026-04-27T16:12:04Z</time></trkpt><trkpt lat="42.27793240480205" lon="13.71030388354889"><ele>874.0</ele><time>2026-04-27T16:12:05Z</time></trkpt><trkpt lat="42.277836542600504" lon="13.710324601662514"><ele>875.2</ele><time>2026-04-27T16:12:06Z</time></trkpt><trkpt lat="42.27775422403909" lon="13.71032739486154"><ele>876.4000000000001</ele><time>2026-04-27T16:12:07Z</time></trkpt><trkpt lat="42.27762193875208" lon="13.710353762309726"><ele>877.6</ele><time>2026-04-27T16:12:09Z</time></trkpt><trkpt lat="42.2775318088282" lon="13.710358655352712"><ele>878.8</ele><time>2026-04-27T16:12:10Z</time></trkpt><trkpt lat="42.27744160738118" lon="13.71037490497907"><ele>880.0</ele><time>2026-04-27T16:12:11Z</time></trkpt><trkpt lat="42.27736820959655" lon="13.710421075492608"><ele>880.0</ele><time>2026-04-27T16:12:12Z</time></trkpt><trkpt lat="42.277325572794695" lon="13.710495188141202"><ele>880.0</ele><time>2026-04-27T16:12:13Z</time></trkpt><trkpt lat="42.27726892566418" lon="13.710586714677417"><ele>880.0</ele><time>2026-04-27T16:12:14Z</time></trkpt><trkpt lat="42.27718433570172" lon="13.710636326700403"><ele>880.0</ele><time>2026-04-27T16:12:15Z</time></trkpt><trkpt lat="42.277075330407854" lon="13.710655950223062"><ele>880.0</ele><time>2026-04-27T16:12:16Z</time></trkpt><trkpt lat="42.27695748741572" lon="13.710664044645842"><ele>879.0</ele><time>2026-04-27T16:12:17Z</time></trkpt><trkpt lat="42.276857030748516" lon="13.71070243842154"><ele>878.0</ele><time>2026-04-27T16:12:18Z</time></trkpt><trkpt lat="42.276759980564655" lon="13.710749980609323"><ele>877.0</ele><time>2026-04-27T16:12:19Z</time></trkpt><trkpt lat="42.27666810663868" lon="13.710778026574724"><ele>876.0</ele><time>2026-04-27T16:12:20Z</time></trkpt><trkpt lat="42.27658292977264" lon="13.710768757241869"><ele>875.0</ele><time>2026-04-27T16:12:21Z</time></trkpt><trkpt lat="42.27650508313211" lon="13.710714180436009"><ele>873.6666666666667</ele><time>2026-04-27T16:12:22Z</time></trkpt><trkpt lat="42.27643043696186" lon="13.710688660196698"><ele>872.3333333333334</ele><time>2026-04-27T16:12:23Z</time></trkpt><trkpt lat="42.27634719502641" lon="13.710682109304113"><ele>871.0</ele><time>2026-04-27T16:12:24Z</time></trkpt><trkpt lat="42.276269953965574" lon="13.710670859643386"><ele>869.6666666666667</ele><time>2026-04-27T16:12:25Z</time></trkpt><trkpt lat="42.27615711876253" lon="13.710724436992743"><ele>868.3333333333334</ele><time>2026-04-27T16:12:27Z</time></trkpt><trkpt lat="42.27609153009697" lon="13.710809868748534"><ele>867.0</ele><time>2026-04-27T16:12:28Z</time></trkpt><trkpt lat="42.27600377281758" lon="13.710899869531813"><ele>867.0</ele><time>2026-04-27T16:12:29Z</time></trkpt><trkpt lat="42.27589339515547" lon="13.710984803968053"><ele>867.0</ele><time>2026-04-27T16:12:30Z</time></trkpt><trkpt lat="42.2757756279509" lon="13.711023081547562"><ele>867.0</ele><time>2026-04-27T16:12:31Z</time></trkpt><trkpt lat="42.27565319016584" lon="13.711049289255454"><ele>867.0</ele><time>2026-04-27T16:12:32Z</time></trkpt><trkpt lat="42.27554750230054" lon="13.711082128398951"><ele>868.5</ele><time>2026-04-27T16:12:33Z</time></trkpt><trkpt lat="42.2754585483177" lon="13.711136294239898"><ele>870.0</ele><time>2026-04-27T16:12:34Z</time></trkpt><trkpt lat="42.27533607765773" lon="13.71124019854442"><ele>871.5</ele><time>2026-04-27T16:12:35Z</time></trkpt><trkpt lat="42.275210279167965" lon="13.711315852041757"><ele>873.0</ele><time>2026-04-27T16:12:36Z</time></trkpt><trkpt lat="42.27511286408668" lon="13.711403765469644"><ele>873.0</ele><time>2026-04-27T16:12:37Z</time></trkpt><trkpt lat="42.2750131858094" lon="13.71152195111424"><ele>873.0</ele><time>2026-04-27T16:12:38Z</time></trkpt><trkpt lat="42.274917191260286" lon="13.711658420106087"><ele>873.0</ele><time>2026-04-27T16:12:39Z</time></trkpt><trkpt lat="42.27482288062233" lon="13.711765314197065"><ele>873.0</ele><time>2026-04-27T16:12:40Z</time></trkpt><trkpt lat="42.274738846366446" lon="13.711863475755395"><ele>873.2</ele><time>2026-04-27T16:12:41Z</time></trkpt><trkpt lat="42.27467003729926" lon="13.711943182539878"><ele>873.4</ele><time>2026-04-27T16:12:42Z</time></trkpt><trkpt lat="42.27457682264754" lon="13.712000479128386"><ele>873.6000000000001</ele><time>2026-04-27T16:12:43Z</time></trkpt><trkpt lat="42.27447134373718" lon="13.712087139377369"><ele>873.8000000000001</ele><time>2026-04-27T16:12:44Z</time></trkpt><trkpt lat="42.27437865313475" lon="13.712185146626727"><ele>874.0</ele><time>2026-04-27T16:12:45Z</time></trkpt><trkpt lat="42.274309977967754" lon="13.712239544807169"><ele>873.9999999999999</ele><time>2026-04-27T16:12:46Z</time></trkpt><trkpt lat="42.274232764366154" lon="13.712210067596605"><ele>874.0</ele><time>2026-04-27T16:12:48Z</time></trkpt><trkpt lat="42.2741543005951" lon="13.712173511002819"><ele>874.0</ele><time>2026-04-27T16:12:50Z</time></trkpt><trkpt lat="42.27410277878789" lon="13.712235769245495"><ele>874.0</ele><time>2026-04-27T16:12:51Z</time></trkpt><trkpt lat="42.27404944446628" lon="13.712321235741848"><ele>873.9999999999999</ele><time>2026-04-27T16:12:52Z</time></trkpt><trkpt lat="42.27399736019019" lon="13.712431966153046"><ele>874.0</ele><time>2026-04-27T16:12:53Z</time></trkpt><trkpt lat="42.2739540089066" lon="13.712532849483582"><ele>876.6</ele><time>2026-04-27T16:12:54Z</time></trkpt><trkpt lat="42.2738952707943" lon="13.712581390733815"><ele>879.2</ele><time>2026-04-27T16:12:56Z</time></trkpt><trkpt lat="42.27386280491385" lon="13.71247569436367"><ele>881.8000000000001</ele><time>2026-04-27T16:12:58Z</time></trkpt><trkpt lat="42.273867807353845" lon="13.712260902874936"><ele>884.4000000000001</ele><time>2026-04-27T16:13:00Z</time></trkpt><trkpt lat="42.27384758838071" lon="13.712117981466156"><ele>887.0</ele><time>2026-04-27T16:13:01Z</time></trkpt><trkpt lat="42.27381822110563" lon="13.711959614953594"><ele>885.25</ele><time>2026-04-27T16:13:02Z</time></trkpt><trkpt lat="42.27377040815065" lon="13.711789895474235"><ele>883.5</ele><time>2026-04-27T16:13:03Z</time></trkpt><trkpt lat="42.27371230326494" lon="13.71162848163276"><ele>881.75</ele><time>2026-04-27T16:13:04Z</time></trkpt><trkpt lat="42.27365251411893" lon="13.711460529472362"><ele>880.0</ele><time>2026-04-27T16:13:05Z</time></trkpt><trkpt lat="42.27359416242212" lon="13.711301957771566"><ele>880.0</ele><time>2026-04-27T16:13:06Z</time></trkpt><trkpt lat="42.27355171570674" lon="13.71119032774197"><ele>880.0</ele><time>2026-04-27T16:13:07Z</time></trkpt><trkpt lat="42.27350846991212" lon="13.711089773021243"><ele>880.0</ele><time>2026-04-27T16:13:08Z</time></trkpt><trkpt lat="42.273454538271864" lon="13.710995634544894"><ele>880.0</ele><time>2026-04-27T16:13:09Z</time></trkpt><trkpt lat="42.27340047769388" lon="13.710885581325435"><ele>880.0</ele><time>2026-04-27T16:13:10Z</time></trkpt><trkpt lat="42.27334171429037" lon="13.710751570833077"><ele>880.4999999999999</ele><time>2026-04-27T16:13:11Z</time></trkpt><trkpt lat="42.273285738261414" lon="13.710622882753526"><ele>881.0</ele><time>2026-04-27T16:13:12Z</time></trkpt><trkpt lat="42.273230140926515" lon="13.710524447079141"><ele>881.5</ele><time>2026-04-27T16:13:13Z</time></trkpt><trkpt lat="42.273164392244034" lon="13.710436724603973"><ele>882.0</ele><time>2026-04-27T16:13:14Z</time></trkpt><trkpt lat="42.27310008200233" lon="13.7103735802172"><ele>882.4999999999999</ele><time>2026-04-27T16:13:15Z</time></trkpt><trkpt lat="42.273033370033104" lon="13.710351453650642"><ele>883.0</ele><time>2026-04-27T16:13:16Z</time></trkpt><trkpt lat="42.27295368194007" lon="13.710346617506818"><ele>883.0</ele><time>2026-04-27T16:13:17Z</time></trkpt><trkpt lat="42.272855205553746" lon="13.710358478392319"><ele>883.0</ele><time>2026-04-27T16:13:18Z</time></trkpt><trkpt lat="42.27273173656156" lon="13.710386389360536"><ele>883.0</ele><time>2026-04-27T16:13:19Z</time></trkpt><trkpt lat="42.27259966232796" lon="13.710416124344029"><ele>883.0</ele><time>2026-04-27T16:13:20Z</time></trkpt><trkpt lat="42.27249308012161" lon="13.710425993800504"><ele>882.9999999999999</ele><time>2026-04-27T16:13:21Z</time></trkpt><trkpt lat="42.27241752829396" lon="13.710424257417737"><ele>883.0</ele><time>2026-04-27T16:13:22Z</time></trkpt><trkpt lat="42.272375738251235" lon="13.710336545874089"><ele>883.0</ele><time>2026-04-27T16:13:24Z</time></trkpt><trkpt lat="42.27236709061152" lon="13.710229461143733"><ele>883.0</ele><time>2026-04-27T16:13:25Z</time></trkpt><trkpt lat="42.272344831804745" lon="13.710118505214973"><ele>882.9999999999999</ele><time>2026-04-27T16:13:26Z</time></trkpt><trkpt lat="42.2722902923314" lon="13.71005150463341"><ele>883.0</ele><time>2026-04-27T16:13:27Z</time></trkpt><trkpt lat="42.272220803815365" lon="13.710023743141779"><ele>882.2</ele><time>2026-04-27T16:13:28Z</time></trkpt><trkpt lat="42.272140779910906" lon="13.710009850597073"><ele>881.4</ele><time>2026-04-27T16:13:29Z</time></trkpt><trkpt lat="42.27207252535887" lon="13.709974086215755"><ele>880.6000000000001</ele><time>2026-04-27T16:13:30Z</time></trkpt><trkpt lat="42.272012351300724" lon="13.709899707962057"><ele>879.8000000000001</ele><time>2026-04-27T16:13:31Z</time></trkpt><trkpt lat="42.27194854954113" lon="13.709793016447824"><ele>879.0</ele><time>2026-04-27T16:13:32Z</time></trkpt><trkpt lat="42.2718735795376" lon="13.70967531875858"><ele>879.0</ele><time>2026-04-27T16:13:33Z</time></trkpt><trkpt lat="42.271811885061595" lon="13.709566448046699"><ele>879.0000000000001</ele><time>2026-04-27T16:13:34Z</time></trkpt><trkpt lat="42.2717757354473" lon="13.709453408822156"><ele>879.0000000000001</ele><time>2026-04-27T16:13:35Z</time></trkpt><trkpt lat="42.27175310636736" lon="13.70932062759651"><ele>879.0</ele><time>2026-04-27T16:13:36Z</time></trkpt><trkpt lat="42.27172700071606" lon="13.709177341103585"><ele>879.0</ele><time>2026-04-27T16:13:37Z</time></trkpt><trkpt lat="42.27170085779448" lon="13.709054532667942"><ele>878.8000000000001</ele><time>2026-04-27T16:13:38Z</time></trkpt><trkpt lat="42.27167835540089" lon="13.708929802762421"><ele>878.6000000000001</ele><time>2026-04-27T16:13:39Z</time></trkpt><trkpt lat="42.271651528197935" lon="13.708808331372138"><ele>878.4</ele><time>2026-04-27T16:13:40Z</time></trkpt><trkpt lat="42.27162609059066" lon="13.708670805122308"><ele>878.2</ele><time>2026-04-27T16:13:41Z</time></trkpt><trkpt lat="42.27160102488706" lon="13.708523368926228"><ele>878.0</ele><time>2026-04-27T16:13:42Z</time></trkpt><trkpt lat="42.27159709693655" lon="13.708395268450191"><ele>877.25</ele><time>2026-04-27T16:13:43Z</time></trkpt><trkpt lat="42.271598664076" lon="13.70823351882547"><ele>876.5</ele><time>2026-04-27T16:13:44Z</time></trkpt><trkpt lat="42.271596954297536" lon="13.70805183312387"><ele>875.75</ele><time>2026-04-27T16:13:45Z</time></trkpt><trkpt lat="42.27159716795213" lon="13.707876145851316"><ele>875.0</ele><time>2026-04-27T16:13:46Z</time></trkpt><trkpt lat="42.27158143792336" lon="13.707713397966149"><ele>874.0</ele><time>2026-04-27T16:13:47Z</time></trkpt><trkpt lat="42.27156000868261" lon="13.707588035806046"><ele>873.0</ele><time>2026-04-27T16:13:48Z</time></trkpt><trkpt lat="42.27155225438268" lon="13.70748183166845"><ele>872.0</ele><time>2026-04-27T16:13:49Z</time></trkpt><trkpt lat="42.2715822914348" lon="13.707369019735015"><ele>871.0</ele><time>2026-04-27T16:13:50Z</time></trkpt><trkpt lat="42.27162950520595" lon="13.707215488155493"><ele>870.0</ele><time>2026-04-27T16:13:51Z</time></trkpt><trkpt lat="42.27165678898047" lon="13.70707292809136"><ele>870.0</ele><time>2026-04-27T16:13:52Z</time></trkpt><trkpt lat="42.271660468725464" lon="13.706940250043408"><ele>870.0</ele><time>2026-04-27T16:13:53Z</time></trkpt><trkpt lat="42.2716656574298" lon="13.706796494706879"><ele>870.0</ele><time>2026-04-27T16:13:54Z</time></trkpt><trkpt lat="42.271682020485116" lon="13.70666567151682"><ele>870.0</ele><time>2026-04-27T16:13:55Z</time></trkpt><trkpt lat="42.27169635454864" lon="13.706497998564462"><ele>870.0</ele><time>2026-04-27T16:13:56Z</time></trkpt><trkpt lat="42.271717179299145" lon="13.706376953157497"><ele>868.2</ele><time>2026-04-27T16:13:57Z</time></trkpt><trkpt lat="42.2717132815065" lon="13.706220868753524"><ele>866.4</ele><time>2026-04-27T16:13:58Z</time></trkpt><trkpt lat="42.27171260736823" lon="13.706088751189426"><ele>864.5999999999999</ele><time>2026-04-27T16:13:59Z</time></trkpt><trkpt lat="42.271710874464944" lon="13.705941934163686"><ele>862.8</ele><time>2026-04-27T16:14:00Z</time></trkpt><trkpt lat="42.27170706244558" lon="13.705794385221322"><ele>861.0</ele><time>2026-04-27T16:14:01Z</time></trkpt><trkpt lat="42.271698656472076" lon="13.705640578505562"><ele>859.5999999999999</ele><time>2026-04-27T16:14:02Z</time></trkpt><trkpt lat="42.27168587176438" lon="13.705507370613871"><ele>858.1999999999999</ele><time>2026-04-27T16:14:03Z</time></trkpt><trkpt lat="42.27165307036664" lon="13.705373668101469"><ele>856.8000000000001</ele><time>2026-04-27T16:14:04Z</time></trkpt><trkpt lat="42.271621567477716" lon="13.705269365685739"><ele>855.4000000000001</ele><time>2026-04-27T16:14:05Z</time></trkpt><trkpt lat="42.271577510921375" lon="13.705184558116924"><ele>854.0</ele><time>2026-04-27T16:14:06Z</time></trkpt><trkpt lat="42.271488011379574" lon="13.705106502641716"><ele>851.5</ele><time>2026-04-27T16:14:08Z</time></trkpt><trkpt lat="42.27138717806553" lon="13.705071953260314"><ele>849.0</ele><time>2026-04-27T16:14:09Z</time></trkpt><trkpt lat="42.271292581015096" lon="13.704936673049437"><ele>846.5</ele><time>2026-04-27T16:14:11Z</time></trkpt><trkpt lat="42.27117707704693" lon="13.704851800452326"><ele>844.0</ele><time>2026-04-27T16:14:13Z</time></trkpt><trkpt lat="42.27110810378964" lon="13.704746249226424"><ele>844.0</ele><time>2026-04-27T16:14:14Z</time></trkpt><trkpt lat="42.27104275203075" lon="13.704637360992201"><ele>844.0</ele><time>2026-04-27T16:14:15Z</time></trkpt><trkpt lat="42.27098643748504" lon="13.70450297201117"><ele>844.0</ele><time>2026-04-27T16:14:16Z</time></trkpt><trkpt lat="42.27093855639573" lon="13.704374736621222"><ele>844.0</ele><time>2026-04-27T16:14:17Z</time></trkpt><trkpt lat="42.27088232698326" lon="13.704239826996934"><ele>844.0</ele><time>2026-04-27T16:14:18Z</time></trkpt><trkpt lat="42.270847695211906" lon="13.704114505748278"><ele>842.8333333333333</ele><time>2026-04-27T16:14:19Z</time></trkpt><trkpt lat="42.27080381219841" lon="13.704031969006339"><ele>841.6666666666666</ele><time>2026-04-27T16:14:20Z</time></trkpt><trkpt lat="42.27073837452169" lon="13.703972148035005"><ele>840.5</ele><time>2026-04-27T16:14:21Z</time></trkpt><trkpt lat="42.27066388508344" lon="13.703959338614398"><ele>839.3333333333333</ele><time>2026-04-27T16:14:22Z</time></trkpt><trkpt lat="42.27058482981382" lon="13.703957015148776"><ele>838.1666666666666</ele><time>2026-04-27T16:14:23Z</time></trkpt><trkpt lat="42.270500248216585" lon="13.703904912952911"><ele>837.0</ele><time>2026-04-27T16:14:25Z</time></trkpt><trkpt lat="42.27043288327898" lon="13.703898489905061"><ele>836.6</ele><time>2026-04-27T16:14:26Z</time></trkpt><trkpt lat="42.27034657423481" lon="13.703924230943787"><ele>836.2</ele><time>2026-04-27T16:14:27Z</time></trkpt><trkpt lat="42.270237622515324" lon="13.703932756852684"><ele>835.8</ele><time>2026-04-27T16:14:28Z</time></trkpt><trkpt lat="42.270121587501045" lon="13.703927067776524"><ele>835.4</ele><time>2026-04-27T16:14:29Z</time></trkpt><trkpt lat="42.27004869475144" lon="13.703935613042725"><ele>835.0</ele><time>2026-04-27T16:14:30Z</time></trkpt><trkpt lat="42.26997177290851" lon="13.703852041456813"><ele>835.0</ele><time>2026-04-27T16:14:32Z</time></trkpt><trkpt lat="42.26993406984174" lon="13.703732720315644"><ele>835.0</ele><time>2026-04-27T16:14:33Z</time></trkpt><trkpt lat="42.269872179205564" lon="13.703669193403508"><ele>835.0</ele><time>2026-04-27T16:14:34Z</time></trkpt><trkpt lat="42.26977965396078" lon="13.703616108606658"><ele>835.0</ele><time>2026-04-27T16:14:35Z</time></trkpt><trkpt lat="42.26967088035753" lon="13.703560543333394"><ele>835.0</ele><time>2026-04-27T16:14:36Z</time></trkpt><trkpt lat="42.26956751315273" lon="13.70351215453469"><ele>833.0</ele><time>2026-04-27T16:14:37Z</time></trkpt><trkpt lat="42.26945828434794" lon="13.70347537160892"><ele>831.0</ele><time>2026-04-27T16:14:38Z</time></trkpt><trkpt lat="42.269357685070894" lon="13.703456552513819"><ele>829.0</ele><time>2026-04-27T16:14:39Z</time></trkpt><trkpt lat="42.26927506791638" lon="13.703441827998098"><ele>827.0</ele><time>2026-04-27T16:14:40Z</time></trkpt><trkpt lat="42.269204217816394" lon="13.703406817878646"><ele>825.0</ele><time>2026-04-27T16:14:41Z</time></trkpt><trkpt lat="42.26912311317047" lon="13.703334603461425"><ele>825.0</ele><time>2026-04-27T16:14:42Z</time></trkpt><trkpt lat="42.26902655651819" lon="13.703254340609387"><ele>825.0</ele><time>2026-04-27T16:14:43Z</time></trkpt><trkpt lat="42.26892754908025" lon="13.703195222409095"><ele>825.0</ele><time>2026-04-27T16:14:44Z</time></trkpt><trkpt lat="42.26885233670046" lon="13.70315633898589"><ele>825.0</ele><time>2026-04-27T16:14:45Z</time></trkpt><trkpt lat="42.26877561505789" lon="13.703124820328489"><ele>825.0</ele><time>2026-04-27T16:14:46Z</time></trkpt><trkpt lat="42.26868981371596" lon="13.703119295899766"><ele>823.6666666666666</ele><time>2026-04-27T16:14:47Z</time></trkpt><trkpt lat="42.26859812601259" lon="13.703125203836882"><ele>822.3333333333333</ele><time>2026-04-27T16:14:48Z</time></trkpt><trkpt lat="42.26852387160598" lon="13.70313033060063"><ele>821.0</ele><time>2026-04-27T16:14:49Z</time></trkpt><trkpt lat="42.26843690247776" lon="13.703083294629804"><ele>819.6666666666666</ele><time>2026-04-27T16:14:51Z</time></trkpt><trkpt lat="42.268353146778566" lon="13.703006809997976"><ele>818.3333333333333</ele><time>2026-04-27T16:14:53Z</time></trkpt><trkpt lat="42.26832686715892" lon="13.7030996791499"><ele>817.0</ele><time>2026-04-27T16:14:57Z</time></trkpt><trkpt lat="42.26842356299992" lon="13.703164020763262"><ele>816.9999999999999</ele><time>2026-04-27T16:14:59Z</time></trkpt><trkpt lat="42.268506355834496" lon="13.703139706988452"><ele>817.0</ele><time>2026-04-27T16:15:00Z</time></trkpt><trkpt lat="42.26858142563661" lon="13.703118017747299"><ele>817.0</ele><time>2026-04-27T16:15:01Z</time></trkpt><trkpt lat="42.26864784388445" lon="13.703125991929687"><ele>817.0</ele><time>2026-04-27T16:15:02Z</time></trkpt><trkpt lat="42.2687155628929" lon="13.70319165090677"><ele>816.9999999999999</ele><time>2026-04-27T16:15:04Z</time></trkpt><trkpt lat="42.26868786238074" lon="13.70329254921385"><ele>817.0</ele><time>2026-04-27T16:15:06Z</time></trkpt><trkpt lat="42.26862851154572" lon="13.703345962484953"><ele>817.0</ele><time>2026-04-27T16:15:07Z</time></trkpt><trkpt lat="42.26854300620773" lon="13.70339993088764"><ele>817.0</ele><time>2026-04-27T16:15:08Z</time></trkpt><trkpt lat="42.26847097681728" lon="13.703463641361967"><ele>817.0</ele><time>2026-04-27T16:15:09Z</time></trkpt><trkpt lat="42.26840248866726" lon="13.70356517979109"><ele>817.0</ele><time>2026-04-27T16:15:10Z</time></trkpt><trkpt lat="42.268347512857105" lon="13.703673752378087"><ele>817.0</ele><time>2026-04-27T16:15:11Z</time></trkpt><trkpt lat="42.26829257831532" lon="13.703796027581859"><ele>816.9999999999999</ele><time>2026-04-27T16:15:12Z</time></trkpt><trkpt lat="42.2682418851776" lon="13.70390249618103"><ele>817.0</ele><time>2026-04-27T16:15:13Z</time></trkpt><trkpt lat="42.26819100645593" lon="13.704002037155728"><ele>817.0</ele><time>2026-04-27T16:15:14Z</time></trkpt><trkpt lat="42.26816707566146" lon="13.704082040170162"><ele>817.0</ele><time>2026-04-27T16:15:15Z</time></trkpt><trkpt lat="42.26812654024765" lon="13.704180514489597"><ele>816.9999999999999</ele><time>2026-04-27T16:15:16Z</time></trkpt><trkpt lat="42.26810838086037" lon="13.704285317718952"><ele>817.0</ele><time>2026-04-27T16:15:17Z</time></trkpt><trkpt lat="42.268080475861396" lon="13.704398702941909"><ele>818.4999999999999</ele><time>2026-04-27T16:15:18Z</time></trkpt><trkpt lat="42.26804689352266" lon="13.704501150470453"><ele>820.0</ele><time>2026-04-27T16:15:19Z</time></trkpt><trkpt lat="42.26800882776733" lon="13.704589939445036"><ele>821.5</ele><time>2026-04-27T16:15:20Z</time></trkpt><trkpt lat="42.267987265086944" lon="13.70473061339391"><ele>823.0</ele><time>2026-04-27T16:15:22Z</time></trkpt><trkpt lat="42.26791503431266" lon="13.704786394167789"><ele>824.4999999999999</ele><time>2026-04-27T16:15:25Z</time></trkpt><trkpt lat="42.26791119897905" lon="13.704656615505712"><ele>826.0</ele><time>2026-04-27T16:15:35Z</time></trkpt><trkpt lat="42.26790693777443" lon="13.704539302565802"><ele>824.1999999999999</ele><time>2026-04-27T16:15:36Z</time></trkpt><trkpt lat="42.26788968706505" lon="13.704403343474615"><ele>822.4</ele><time>2026-04-27T16:15:37Z</time></trkpt><trkpt lat="42.26787055883728" lon="13.704270165493298"><ele>820.6</ele><time>2026-04-27T16:15:38Z</time></trkpt><trkpt lat="42.26783656917171" lon="13.704178772268593"><ele>818.8</ele><time>2026-04-27T16:15:39Z</time></trkpt><trkpt lat="42.26775549009994" lon="13.70411766064933"><ele>817.0</ele><time>2026-04-27T16:15:41Z</time></trkpt><trkpt lat="42.267671978649915" lon="13.704127166193462"><ele>817.0</ele><time>2026-04-27T16:15:42Z</time></trkpt><trkpt lat="42.26758964920217" lon="13.704119890500717"><ele>817.0</ele><time>2026-04-27T16:15:43Z</time></trkpt><trkpt lat="42.267525601934594" lon="13.704076374567837"><ele>817.0</ele><time>2026-04-27T16:15:44Z</time></trkpt><trkpt lat="42.26744706536103" lon="13.703969514676064"><ele>817.0</ele><time>2026-04-27T16:15:45Z</time></trkpt><trkpt lat="42.26735020301309" lon="13.703842619971876"><ele>817.0</ele><time>2026-04-27T16:15:46Z</time></trkpt><trkpt lat="42.26724157379818" lon="13.703718601181231"><ele>818.0</ele><time>2026-04-27T16:15:47Z</time></trkpt><trkpt lat="42.26714148609468" lon="13.703596057173383"><ele>819.0</ele><time>2026-04-27T16:15:48Z</time></trkpt><trkpt lat="42.267041748656055" lon="13.703475749383317"><ele>820.0</ele><time>2026-04-27T16:15:49Z</time></trkpt><trkpt lat="42.26695140482424" lon="13.703378314210527"><ele>821.0</ele><time>2026-04-27T16:15:50Z</time></trkpt><trkpt lat="42.26687471199122" lon="13.703269873231811"><ele>819.5000000000001</ele><time>2026-04-27T16:15:51Z</time></trkpt><trkpt lat="42.266803132888555" lon="13.70315330398987"><ele>818.0</ele><time>2026-04-27T16:15:52Z</time></trkpt><trkpt lat="42.266746067772175" lon="13.703057797440767"><ele>816.5</ele><time>2026-04-27T16:15:53Z</time></trkpt><trkpt lat="42.266701604901236" lon="13.702970627068206"><ele>815.0</ele><time>2026-04-27T16:15:54Z</time></trkpt><trkpt lat="42.266624104757895" lon="13.702937679535951"><ele>813.5000000000001</ele><time>2026-04-27T16:15:56Z</time></trkpt><trkpt lat="42.26654480951507" lon="13.702930111132918"><ele>812.0</ele><time>2026-04-27T16:15:57Z</time></trkpt><trkpt lat="42.26647833965783" lon="13.702951184250827"><ele>810.5</ele><time>2026-04-27T16:15:58Z</time></trkpt><trkpt lat="42.26639254524187" lon="13.703006235447456"><ele>809.0</ele><time>2026-04-27T16:15:59Z</time></trkpt><trkpt lat="42.26630204250918" lon="13.70308953363971"><ele>807.5</ele><time>2026-04-27T16:16:00Z</time></trkpt><trkpt lat="42.26619085302334" lon="13.703175322685032"><ele>806.0</ele><time>2026-04-27T16:16:01Z</time></trkpt><trkpt lat="42.26606280829878" lon="13.703272466501023"><ele>806.0</ele><time>2026-04-27T16:16:02Z</time></trkpt><trkpt lat="42.265959935171274" lon="13.703357417863833"><ele>806.0</ele><time>2026-04-27T16:16:03Z</time></trkpt><trkpt lat="42.26586372548664" lon="13.703420010862661"><ele>806.0</ele><time>2026-04-27T16:16:04Z</time></trkpt><trkpt lat="42.265748647951526" lon="13.703444336123711"><ele>806.0</ele><time>2026-04-27T16:16:05Z</time></trkpt><trkpt lat="42.26561529265577" lon="13.703444367537505"><ele>805.6666666666667</ele><time>2026-04-27T16:16:06Z</time></trkpt><trkpt lat="42.26545241515165" lon="13.703445892356187"><ele>805.3333333333333</ele><time>2026-04-27T16:16:07Z</time></trkpt><trkpt lat="42.265278553860554" lon="13.703446740273337"><ele>805.0</ele><time>2026-04-27T16:16:08Z</time></trkpt><trkpt lat="42.26511157998223" lon="13.703459231897696"><ele>805.0</ele><time>2026-04-27T16:16:09Z</time></trkpt><trkpt lat="42.26497532266213" lon="13.703475258327542"><ele>805.0</ele><time>2026-04-27T16:16:10Z</time></trkpt><trkpt lat="42.2648480345704" lon="13.703478873532154"><ele>805.0</ele><time>2026-04-27T16:16:11Z</time></trkpt><trkpt lat="42.26472327683441" lon="13.703455773809624"><ele>805.0</ele><time>2026-04-27T16:16:12Z</time></trkpt><trkpt lat="42.26457882356518" lon="13.703401338241584"><ele>805.5</ele><time>2026-04-27T16:16:13Z</time></trkpt><trkpt lat="42.26442824271642" lon="13.703327139617151"><ele>806.0</ele><time>2026-04-27T16:16:14Z</time></trkpt><trkpt lat="42.26430456047132" lon="13.70326621599273"><ele>806.5</ele><time>2026-04-27T16:16:15Z</time></trkpt><trkpt lat="42.264208309533565" lon="13.703200631234305"><ele>807.0</ele><time>2026-04-27T16:16:16Z</time></trkpt><trkpt lat="42.26413170320023" lon="13.703122704984724"><ele>807.0</ele><time>2026-04-27T16:16:17Z</time></trkpt><trkpt lat="42.26406229802276" lon="13.703045547081842"><ele>807.0</ele><time>2026-04-27T16:16:18Z</time></trkpt><trkpt lat="42.263983714500185" lon="13.702943306524059"><ele>807.0</ele><time>2026-04-27T16:16:19Z</time></trkpt><trkpt lat="42.26390251617058" lon="13.702833569321538"><ele>807.0</ele><time>2026-04-27T16:16:20Z</time></trkpt><trkpt lat="42.2638809305775" lon="13.702709438214784"><ele>807.0</ele><time>2026-04-27T16:16:21Z</time></trkpt><trkpt lat="42.26382849231716" lon="13.702535887255591"><ele>806.5</ele><time>2026-04-27T16:16:22Z</time></trkpt><trkpt lat="42.26377088993806" lon="13.702376432298053"><ele>806.0</ele><time>2026-04-27T16:16:23Z</time></trkpt><trkpt lat="42.263722888356725" lon="13.702235535101723"><ele>805.5</ele><time>2026-04-27T16:16:24Z</time></trkpt><trkpt lat="42.263678688759846" lon="13.70209569040287"><ele>805.0</ele><time>2026-04-27T16:16:25Z</time></trkpt><trkpt lat="42.263623729456164" lon="13.70198756882217"><ele>804.5</ele><time>2026-04-27T16:16:26Z</time></trkpt><trkpt lat="42.26353891978919" lon="13.701884931834833"><ele>804.0</ele><time>2026-04-27T16:16:27Z</time></trkpt><trkpt lat="42.263452224023155" lon="13.701763331322688"><ele>803.5</ele><time>2026-04-27T16:16:28Z</time></trkpt><trkpt lat="42.26338962073105" lon="13.701656948500418"><ele>803.0</ele><time>2026-04-27T16:16:29Z</time></trkpt><trkpt lat="42.26328143671793" lon="13.70160031454735"><ele>803.0</ele><time>2026-04-27T16:16:31Z</time></trkpt><trkpt lat="42.26321133565614" lon="13.701621356792353"><ele>803.0</ele><time>2026-04-27T16:16:32Z</time></trkpt><trkpt lat="42.26312365199893" lon="13.70166428507922"><ele>803.0</ele><time>2026-04-27T16:16:33Z</time></trkpt><trkpt lat="42.26300742976" lon="13.7016893469725"><ele>803.0</ele><time>2026-04-27T16:16:34Z</time></trkpt><trkpt lat="42.262910364456005" lon="13.701698532476493"><ele>803.0</ele><time>2026-04-27T16:16:35Z</time></trkpt><trkpt lat="42.26282882690565" lon="13.701754957769444"><ele>804.25</ele><time>2026-04-27T16:16:36Z</time></trkpt><trkpt lat="42.262729338029324" lon="13.701869143400778"><ele>805.5</ele><time>2026-04-27T16:16:37Z</time></trkpt><trkpt lat="42.26261257507792" lon="13.701989518647506"><ele>806.75</ele><time>2026-04-27T16:16:38Z</time></trkpt><trkpt lat="42.26248909819789" lon="13.702088492679957"><ele>808.0</ele><time>2026-04-27T16:16:39Z</time></trkpt><trkpt lat="42.26235976697009" lon="13.702191592050186"><ele>816.3333333333333</ele><time>2026-04-27T16:16:40Z</time></trkpt><trkpt lat="42.262204194805406" lon="13.70226529638395"><ele>824.6666666666667</ele><time>2026-04-27T16:16:41Z</time></trkpt><trkpt lat="42.2620643397932" lon="13.702375544835771"><ele>833.0</ele><time>2026-04-27T16:16:42Z</time></trkpt><trkpt lat="42.26190853450136" lon="13.702535465788877"><ele>833.0</ele><time>2026-04-27T16:16:43Z</time></trkpt><trkpt lat="42.261779580315306" lon="13.702679666594475"><ele>833.0</ele><time>2026-04-27T16:16:44Z</time></trkpt><trkpt lat="42.261654669390445" lon="13.70281646921597"><ele>833.0</ele><time>2026-04-27T16:16:45Z</time></trkpt><trkpt lat="42.26151888175848" lon="13.702926769235248"><ele>832.0</ele><time>2026-04-27T16:16:46Z</time></trkpt><trkpt lat="42.26139597559404" lon="13.703018813017724"><ele>831.0</ele><time>2026-04-27T16:16:47Z</time></trkpt><trkpt lat="42.26125257428682" lon="13.70310684277104"><ele>830.0</ele><time>2026-04-27T16:16:48Z</time></trkpt><trkpt lat="42.261111627528585" lon="13.703193046751636"><ele>830.0</ele><time>2026-04-27T16:16:49Z</time></trkpt><trkpt lat="42.26097273140136" lon="13.703277505513434"><ele>830.0</ele><time>2026-04-27T16:16:50Z</time></trkpt><trkpt lat="42.26082936461992" lon="13.703363250853775"><ele>830.0</ele><time>2026-04-27T16:16:51Z</time></trkpt><trkpt lat="42.26068450236756" lon="13.703437756116905"><ele>830.0</ele><time>2026-04-27T16:16:52Z</time></trkpt><trkpt lat="42.26053185906037" lon="13.70349731029053"><ele>830.0</ele><time>2026-04-27T16:16:53Z</time></trkpt><trkpt lat="42.26036836045171" lon="13.703526319366214"><ele>830.0</ele><time>2026-04-27T16:16:54Z</time></trkpt><trkpt lat="42.26021112071929" lon="13.703552177725573"><ele>830.0</ele><time>2026-04-27T16:16:55Z</time></trkpt><trkpt lat="42.26008243136954" lon="13.703569782518406"><ele>830.0</ele><time>2026-04-27T16:16:56Z</time></trkpt><trkpt lat="42.26000401411625" lon="13.703567656301106"><ele>830.0</ele><time>2026-04-27T16:16:57Z</time></trkpt><trkpt lat="42.25993677688293" lon="13.703460349721599"><ele>830.0</ele><time>2026-04-27T16:16:59Z</time></trkpt><trkpt lat="42.25992471715027" lon="13.70334126998058"><ele>830.0</ele><time>2026-04-27T16:17:00Z</time></trkpt><trkpt lat="42.25990872919172" lon="13.70318778882737"><ele>830.0</ele><time>2026-04-27T16:17:01Z</time></trkpt><trkpt lat="42.25989561910562" lon="13.703010868562616"><ele>830.0</ele><time>2026-04-27T16:17:02Z</time></trkpt><trkpt lat="42.25988614216803" lon="13.702813896632009"><ele>830.0</ele><time>2026-04-27T16:17:03Z</time></trkpt><trkpt lat="42.25987516044733" lon="13.702615682870492"><ele>830.0</ele><time>2026-04-27T16:17:04Z</time></trkpt><trkpt lat="42.25986293464732" lon="13.702410040623208"><ele>831.75</ele><time>2026-04-27T16:17:05Z</time></trkpt><trkpt lat="42.25986109951831" lon="13.702212020510819"><ele>833.5</ele><time>2026-04-27T16:17:06Z</time></trkpt><trkpt lat="42.25988360806843" lon="13.702012158217013"><ele>835.25</ele><time>2026-04-27T16:17:07Z</time></trkpt><trkpt lat="42.2599075475876" lon="13.701829738781486"><ele>837.0</ele><time>2026-04-27T16:17:08Z</time></trkpt><trkpt lat="42.259910333638814" lon="13.70168023688957"><ele>835.8</ele><time>2026-04-27T16:17:09Z</time></trkpt><trkpt lat="42.25988320716362" lon="13.701546890764934"><ele>834.6</ele><time>2026-04-27T16:17:10Z</time></trkpt><trkpt lat="42.259825147694016" lon="13.70142793432567"><ele>833.4</ele><time>2026-04-27T16:17:11Z</time></trkpt><trkpt lat="42.25974319375049" lon="13.701350730536035"><ele>832.1999999999999</ele><time>2026-04-27T16:17:12Z</time></trkpt><trkpt lat="42.2596422956267" lon="13.701299443080254"><ele>831.0</ele><time>2026-04-27T16:17:13Z</time></trkpt><trkpt lat="42.259510043001676" lon="13.701233393484912"><ele>831.0</ele><time>2026-04-27T16:17:14Z</time></trkpt><trkpt lat="42.2593662915334" lon="13.701148437848572"><ele>831.0</ele><time>2026-04-27T16:17:15Z</time></trkpt><trkpt lat="42.25922042892062" lon="13.701048680328148"><ele>831.0</ele><time>2026-04-27T16:17:16Z</time></trkpt><trkpt lat="42.25906495254268" lon="13.700956993530909"><ele>837.6666666666667</ele><time>2026-04-27T16:17:17Z</time></trkpt><trkpt lat="42.25889907006924" lon="13.700879969634274"><ele>844.3333333333334</ele><time>2026-04-27T16:17:18Z</time></trkpt><trkpt lat="42.25872246281588" lon="13.700799860805411"><ele>851.0</ele><time>2026-04-27T16:17:19Z</time></trkpt><trkpt lat="42.258561493287154" lon="13.700723891987103"><ele>851.0</ele><time>2026-04-27T16:17:20Z</time></trkpt><trkpt lat="42.258392265881575" lon="13.700640841395833"><ele>851.0</ele><time>2026-04-27T16:17:21Z</time></trkpt><trkpt lat="42.25823417842553" lon="13.700578499532497"><ele>851.0</ele><time>2026-04-27T16:17:22Z</time></trkpt><trkpt lat="42.25808338138585" lon="13.700548019057615"><ele>853.0</ele><time>2026-04-27T16:17:23Z</time></trkpt><trkpt lat="42.25792411743244" lon="13.700532377956018"><ele>855.0</ele><time>2026-04-27T16:17:24Z</time></trkpt><trkpt lat="42.257774852460976" lon="13.700537085073748"><ele>857.0</ele><time>2026-04-27T16:17:25Z</time></trkpt><trkpt lat="42.25764579839313" lon="13.700572757613964"><ele>859.0</ele><time>2026-04-27T16:17:26Z</time></trkpt><trkpt lat="42.257513004626716" lon="13.700644301089996"><ele>859.0</ele><time>2026-04-27T16:17:27Z</time></trkpt><trkpt lat="42.25737822429125" lon="13.700742529318832"><ele>859.0000000000001</ele><time>2026-04-27T16:17:28Z</time></trkpt><trkpt lat="42.257257990143415" lon="13.700813908508845"><ele>859.0000000000001</ele><time>2026-04-27T16:17:29Z</time></trkpt><trkpt lat="42.25718873148774" lon="13.700840836124426"><ele>859.0</ele><time>2026-04-27T16:17:30Z</time></trkpt><trkpt lat="42.25715235411726" lon="13.70075516669512"><ele>859.0</ele><time>2026-04-27T16:17:32Z</time></trkpt><trkpt lat="42.25715396168086" lon="13.700663079369741"><ele>858.0</ele><time>2026-04-27T16:17:33Z</time></trkpt><trkpt lat="42.25715056813519" lon="13.700545932150117"><ele>857.0000000000001</ele><time>2026-04-27T16:17:34Z</time></trkpt><trkpt lat="42.25712324732522" lon="13.700421878731065"><ele>856.0000000000001</ele><time>2026-04-27T16:17:35Z</time></trkpt><trkpt lat="42.25708668576067" lon="13.700290797279376"><ele>855.0</ele><time>2026-04-27T16:17:36Z</time></trkpt><trkpt lat="42.25704869751718" lon="13.70016761956949"><ele>854.0</ele><time>2026-04-27T16:17:37Z</time></trkpt><trkpt lat="42.25693811758263" lon="13.700113357522804"><ele>854.0</ele><time>2026-04-27T16:17:39Z</time></trkpt><trkpt lat="42.25685533870295" lon="13.7001655441201"><ele>854.0</ele><time>2026-04-27T16:17:40Z</time></trkpt><trkpt lat="42.256735490176965" lon="13.70025007164004"><ele>854.0</ele><time>2026-04-27T16:17:41Z</time></trkpt><trkpt lat="42.256602569179435" lon="13.700311846610166"><ele>854.0</ele><time>2026-04-27T16:17:42Z</time></trkpt><trkpt lat="42.256460414394326" lon="13.700358422003747"><ele>853.3333333333334</ele><time>2026-04-27T16:17:43Z</time></trkpt><trkpt lat="42.25632195472408" lon="13.700429177865486"><ele>852.6666666666667</ele><time>2026-04-27T16:17:44Z</time></trkpt><trkpt lat="42.25617700963539" lon="13.700541648121712"><ele>852.0</ele><time>2026-04-27T16:17:45Z</time></trkpt><trkpt lat="42.25602723982431" lon="13.700665094622439"><ele>852.0</ele><time>2026-04-27T16:17:46Z</time></trkpt><trkpt lat="42.25586862958587" lon="13.700776577719491"><ele>852.0</ele><time>2026-04-27T16:17:47Z</time></trkpt><trkpt lat="42.25572921102214" lon="13.7008713436191"><ele>852.0</ele><time>2026-04-27T16:17:48Z</time></trkpt><trkpt lat="42.25558555263718" lon="13.70097343218157"><ele>854.25</ele><time>2026-04-27T16:17:49Z</time></trkpt><trkpt lat="42.25544611983991" lon="13.701063063313475"><ele>856.5</ele><time>2026-04-27T16:17:50Z</time></trkpt><trkpt lat="42.25531702784642" lon="13.701145702990651"><ele>858.75</ele><time>2026-04-27T16:17:51Z</time></trkpt><trkpt lat="42.25518693060302" lon="13.701206254194982"><ele>861.0</ele><time>2026-04-27T16:17:52Z</time></trkpt><trkpt lat="42.25503412478197" lon="13.701248577990576"><ele>861.0</ele><time>2026-04-27T16:17:53Z</time></trkpt><trkpt lat="42.25486645143484" lon="13.701275933136984"><ele>861.0</ele><time>2026-04-27T16:17:54Z</time></trkpt><trkpt lat="42.254694485870864" lon="13.701303846865438"><ele>861.0</ele><time>2026-04-27T16:17:55Z</time></trkpt><trkpt lat="42.254540101695895" lon="13.701316498066566"><ele>858.25</ele><time>2026-04-27T16:17:56Z</time></trkpt><trkpt lat="42.25440069972317" lon="13.701313116383284"><ele>855.5</ele><time>2026-04-27T16:17:57Z</time></trkpt><trkpt lat="42.25426619655741" lon="13.701303339763"><ele>852.75</ele><time>2026-04-27T16:17:58Z</time></trkpt><trkpt lat="42.254130498483775" lon="13.701291975615682"><ele>850.0</ele><time>2026-04-27T16:17:59Z</time></trkpt><trkpt lat="42.253993580395615" lon="13.701286971075323"><ele>846.0</ele><time>2026-04-27T16:18:00Z</time></trkpt><trkpt lat="42.25388592400625" lon="13.701294665656496"><ele>842.0</ele><time>2026-04-27T16:18:01Z</time></trkpt><trkpt lat="42.25379915896151" lon="13.701319157357757"><ele>838.0</ele><time>2026-04-27T16:18:02Z</time></trkpt><trkpt lat="42.253702257920416" lon="13.701383275384934"><ele>834.0</ele><time>2026-04-27T16:18:03Z</time></trkpt><trkpt lat="42.253579218875856" lon="13.701454227933775"><ele>830.0</ele><time>2026-04-27T16:18:04Z</time></trkpt><trkpt lat="42.25345034725232" lon="13.70151199465779"><ele>830.0</ele><time>2026-04-27T16:18:05Z</time></trkpt><trkpt lat="42.253335151768546" lon="13.701580365442478"><ele>830.0</ele><time>2026-04-27T16:18:06Z</time></trkpt><trkpt lat="42.253230733590414" lon="13.701694444383488"><ele>830.0</ele><time>2026-04-27T16:18:07Z</time></trkpt><trkpt lat="42.253116821977315" lon="13.701828918785335"><ele>830.0</ele><time>2026-04-27T16:18:08Z</time></trkpt><trkpt lat="42.25298540203882" lon="13.701954864760296"><ele>827.6666666666667</ele><time>2026-04-27T16:18:09Z</time></trkpt><trkpt lat="42.252843190600665" lon="13.7020771019281"><ele>825.3333333333333</ele><time>2026-04-27T16:18:10Z</time></trkpt><trkpt lat="42.25270711058072" lon="13.702198771330695"><ele>823.0</ele><time>2026-04-27T16:18:11Z</time></trkpt><trkpt lat="42.252564628404855" lon="13.702327484566737"><ele>823.0</ele><time>2026-04-27T16:18:12Z</time></trkpt><trkpt lat="42.25243136253726" lon="13.702455910473386"><ele>823.0</ele><time>2026-04-27T16:18:13Z</time></trkpt><trkpt lat="42.25229623667375" lon="13.702577565031289"><ele>823.0</ele><time>2026-04-27T16:18:14Z</time></trkpt><trkpt lat="42.25216845875838" lon="13.702699088458589"><ele>822.5</ele><time>2026-04-27T16:18:15Z</time></trkpt><trkpt lat="42.25204957784395" lon="13.702803413863577"><ele>822.0</ele><time>2026-04-27T16:18:16Z</time></trkpt><trkpt lat="42.251929986174034" lon="13.702887003421479"><ele>821.5</ele><time>2026-04-27T16:18:17Z</time></trkpt><trkpt lat="42.251801831601874" lon="13.702945296273846"><ele>821.0</ele><time>2026-04-27T16:18:18Z</time></trkpt><trkpt lat="42.2516674939849" lon="13.702977612917563"><ele>821.0</ele><time>2026-04-27T16:18:19Z</time></trkpt><trkpt lat="42.25152660046777" lon="13.702992280732202"><ele>821.0</ele><time>2026-04-27T16:18:20Z</time></trkpt><trkpt lat="42.25138840813065" lon="13.703008977996259"><ele>821.0</ele><time>2026-04-27T16:18:21Z</time></trkpt><trkpt lat="42.25126476438781" lon="13.703019592064368"><ele>821.0</ele><time>2026-04-27T16:18:22Z</time></trkpt><trkpt lat="42.25116106352523" lon="13.703021520239103"><ele>819.4</ele><time>2026-04-27T16:18:23Z</time></trkpt><trkpt lat="42.25107109786548" lon="13.703040067615126"><ele>817.8</ele><time>2026-04-27T16:18:24Z</time></trkpt><trkpt lat="42.25097212200473" lon="13.703085018553494"><ele>816.1999999999999</ele><time>2026-04-27T16:18:25Z</time></trkpt><trkpt lat="42.250873001570895" lon="13.703152321458116"><ele>814.5999999999999</ele><time>2026-04-27T16:18:26Z</time></trkpt><trkpt lat="42.25076169238646" lon="13.703244467495873"><ele>813.0</ele><time>2026-04-27T16:18:27Z</time></trkpt><trkpt lat="42.25064901866704" lon="13.70334878374389"><ele>811.75</ele><time>2026-04-27T16:18:28Z</time></trkpt><trkpt lat="42.25052914767816" lon="13.703445367204155"><ele>810.5</ele><time>2026-04-27T16:18:29Z</time></trkpt><trkpt lat="42.250426050298636" lon="13.70354309375376"><ele>809.25</ele><time>2026-04-27T16:18:30Z</time></trkpt><trkpt lat="42.250341163019" lon="13.703646883310247"><ele>808.0</ele><time>2026-04-27T16:18:31Z</time></trkpt><trkpt lat="42.250264559896" lon="13.703756062304194"><ele>808.0</ele><time>2026-04-27T16:18:32Z</time></trkpt><trkpt lat="42.250190659882655" lon="13.703863497421214"><ele>808.0</ele><time>2026-04-27T16:18:33Z</time></trkpt><trkpt lat="42.250118967286085" lon="13.703958535558943"><ele>808.0</ele><time>2026-04-27T16:18:34Z</time></trkpt><trkpt lat="42.25005870336152" lon="13.704026576904255"><ele>808.0</ele><time>2026-04-27T16:18:35Z</time></trkpt><trkpt lat="42.24998346760002" lon="13.70411251722718"><ele>808.0</ele><time>2026-04-27T16:18:37Z</time></trkpt><trkpt lat="42.2499763495589" lon="13.70425290637595"><ele>808.0</ele><time>2026-04-27T16:18:39Z</time></trkpt><trkpt lat="42.24996971388909" lon="13.704366908209893"><ele>808.0</ele><time>2026-04-27T16:18:41Z</time></trkpt><trkpt lat="42.249933655999506" lon="13.704451843334255"><ele>808.0</ele><time>2026-04-27T16:18:43Z</time></trkpt><trkpt lat="42.249885764987184" lon="13.70455182584358"><ele>808.0</ele><time>2026-04-27T16:18:45Z</time></trkpt><trkpt lat="42.24984760125793" lon="13.704698620125294"><ele>808.0</ele><time>2026-04-27T16:18:47Z</time></trkpt><trkpt lat="42.24981144774413" lon="13.704876664987925"><ele>807.8333333333333</ele><time>2026-04-27T16:18:49Z</time></trkpt><trkpt lat="42.24978724107898" lon="13.704964486811523"><ele>807.6666666666666</ele><time>2026-04-27T16:18:50Z</time></trkpt><trkpt lat="42.2497585690716" lon="13.705061794763775"><ele>807.5</ele><time>2026-04-27T16:18:51Z</time></trkpt><trkpt lat="42.249718519625624" lon="13.70514830525883"><ele>807.3333333333333</ele><time>2026-04-27T16:18:52Z</time></trkpt><trkpt lat="42.249674413111464" lon="13.705236447817644"><ele>807.1666666666666</ele><time>2026-04-27T16:18:53Z</time></trkpt><trkpt lat="42.24962302819782" lon="13.70531118217841"><ele>807.0</ele><time>2026-04-27T16:18:54Z</time></trkpt><trkpt lat="42.249536043053624" lon="13.705401439216036"><ele>810.2</ele><time>2026-04-27T16:18:55Z</time></trkpt><trkpt lat="42.249447026943535" lon="13.705482842766239"><ele>813.4000000000001</ele><time>2026-04-27T16:18:56Z</time></trkpt><trkpt lat="42.24935991362809" lon="13.705582884124153"><ele>816.5999999999999</ele><time>2026-04-27T16:18:57Z</time></trkpt><trkpt lat="42.249262462477375" lon="13.705673059456464"><ele>819.8</ele><time>2026-04-27T16:18:58Z</time></trkpt><trkpt lat="42.24916257213309" lon="13.705724389566084"><ele>823.0</ele><time>2026-04-27T16:18:59Z</time></trkpt><trkpt lat="42.24908767968715" lon="13.705769224729288"><ele>823.0</ele><time>2026-04-27T16:19:00Z</time></trkpt><trkpt lat="42.24899264790986" lon="13.705841602864085"><ele>823.0</ele><time>2026-04-27T16:19:01Z</time></trkpt><trkpt lat="42.24890417896388" lon="13.705933790968375"><ele>823.0</ele><time>2026-04-27T16:19:02Z</time></trkpt><trkpt lat="42.248799914899884" lon="13.706031968647975"><ele>823.0</ele><time>2026-04-27T16:19:03Z</time></trkpt><trkpt lat="42.248706865711874" lon="13.706128693802002"><ele>824.4999999999999</ele><time>2026-04-27T16:19:04Z</time></trkpt><trkpt lat="42.248606365562495" lon="13.706221028429068"><ele>826.0</ele><time>2026-04-27T16:19:05Z</time></trkpt><trkpt lat="42.24852902118375" lon="13.706303338663455"><ele>827.5</ele><time>2026-04-27T16:19:06Z</time></trkpt><trkpt lat="42.24846913681556" lon="13.706348561513652"><ele>829.0</ele><time>2026-04-27T16:19:07Z</time></trkpt><trkpt lat="42.24840919369389" lon="13.706399501855401"><ele>830.4999999999999</ele><time>2026-04-27T16:19:08Z</time></trkpt><trkpt lat="42.24834426355559" lon="13.706451171852645"><ele>832.0</ele><time>2026-04-27T16:19:09Z</time></trkpt><trkpt lat="42.248252563803845" lon="13.706513354317078"><ele>832.0</ele><time>2026-04-27T16:19:11Z</time></trkpt><trkpt lat="42.24817682287528" lon="13.706586028037329"><ele>832.0</ele><time>2026-04-27T16:19:13Z</time></trkpt><trkpt lat="42.248184583305154" lon="13.706675145433223"><ele>832.0</ele><time>2026-04-27T16:19:15Z</time></trkpt><trkpt lat="42.248229342398645" lon="13.706737946230264"><ele>832.0</ele><time>2026-04-27T16:19:17Z</time></trkpt><trkpt lat="42.24826675629677" lon="13.706870313302296"><ele>832.0</ele><time>2026-04-27T16:19:19Z</time></trkpt><trkpt lat="42.248289745170474" lon="13.70703424628863"><ele>832.0</ele><time>2026-04-27T16:19:21Z</time></trkpt><trkpt lat="42.2483059343366" lon="13.707181125831564"><ele>832.0</ele><time>2026-04-27T16:19:23Z</time></trkpt><trkpt lat="42.24830181590986" lon="13.70731072718502"><ele>832.0</ele><time>2026-04-27T16:19:25Z</time></trkpt><trkpt lat="42.24827290046448" lon="13.707498374582071"><ele>832.0</ele><time>2026-04-27T16:19:27Z</time></trkpt><trkpt lat="42.24825335060319" lon="13.707595723466047"><ele>832.0</ele><time>2026-04-27T16:19:28Z</time></trkpt><trkpt lat="42.24823139581527" lon="13.707686850544098"><ele>830.4285714285714</ele><time>2026-04-27T16:19:29Z</time></trkpt><trkpt lat="42.24820502431325" lon="13.707774649425415"><ele>828.8571428571429</ele><time>2026-04-27T16:19:30Z</time></trkpt><trkpt lat="42.248175584436176" lon="13.70786056335425"><ele>827.2857142857143</ele><time>2026-04-27T16:19:31Z</time></trkpt><trkpt lat="42.2481413929774" lon="13.707932229362685"><ele>825.7142857142858</ele><time>2026-04-27T16:19:32Z</time></trkpt><trkpt lat="42.248111643539694" lon="13.70801119785286"><ele>824.1428571428571</ele><time>2026-04-27T16:19:33Z</time></trkpt><trkpt lat="42.248083218744895" lon="13.708112524711481"><ele>822.5714285714287</ele><time>2026-04-27T16:19:34Z</time></trkpt><trkpt lat="42.24804329928638" lon="13.708188493741758"><ele>821.0</ele><time>2026-04-27T16:19:35Z</time></trkpt><trkpt lat="42.24798865994572" lon="13.70825139656732"><ele>820.4</ele><time>2026-04-27T16:19:36Z</time></trkpt><trkpt lat="42.247919054711204" lon="13.708301381050664"><ele>819.8</ele><time>2026-04-27T16:19:37Z</time></trkpt><trkpt lat="42.24783537516581" lon="13.70835651944889"><ele>819.1999999999999</ele><time>2026-04-27T16:19:38Z</time></trkpt><trkpt lat="42.247742581600576" lon="13.708417537881795"><ele>818.5999999999999</ele><time>2026-04-27T16:19:39Z</time></trkpt><trkpt lat="42.24766285826896" lon="13.708490564103911"><ele>818.0</ele><time>2026-04-27T16:19:40Z</time></trkpt><trkpt lat="42.247593029695444" lon="13.708550042294865"><ele>818.0000000000001</ele><time>2026-04-27T16:19:41Z</time></trkpt><trkpt lat="42.2475307809937" lon="13.708602330053369"><ele>818.0</ele><time>2026-04-27T16:19:42Z</time></trkpt><trkpt lat="42.247443822473564" lon="13.708646632971679"><ele>818.0</ele><time>2026-04-27T16:19:44Z</time></trkpt><trkpt lat="42.24736339669685" lon="13.70858454208313"><ele>818.0</ele><time>2026-04-27T16:19:47Z</time></trkpt><trkpt lat="42.24731326690696" lon="13.708493284355235"><ele>818.0000000000001</ele><time>2026-04-27T16:19:49Z</time></trkpt><trkpt lat="42.24726236837333" lon="13.708372533747088"><ele>818.0</ele><time>2026-04-27T16:19:51Z</time></trkpt><trkpt lat="42.24723301393593" lon="13.70829609880332"><ele>815.5999999999999</ele><time>2026-04-27T16:19:52Z</time></trkpt><trkpt lat="42.24721660844968" lon="13.708134979801237"><ele>813.1999999999999</ele><time>2026-04-27T16:19:54Z</time></trkpt><trkpt lat="42.24721513044125" lon="13.708025238693219"><ele>810.8</ele><time>2026-04-27T16:19:55Z</time></trkpt><trkpt lat="42.24720645539779" lon="13.70789881334791"><ele>808.4</ele><time>2026-04-27T16:19:56Z</time></trkpt><trkpt lat="42.247195318160735" lon="13.70776545740469"><ele>806.0</ele><time>2026-04-27T16:19:57Z</time></trkpt><trkpt lat="42.24718612827545" lon="13.707653215335291"><ele>806.0000000000001</ele><time>2026-04-27T16:19:58Z</time></trkpt><trkpt lat="42.24718534213779" lon="13.707558779449919"><ele>806.0</ele><time>2026-04-27T16:19:59Z</time></trkpt><trkpt lat="42.247158730429916" lon="13.707470050309428"><ele>806.0</ele><time>2026-04-27T16:20:00Z</time></trkpt><trkpt lat="42.247125011770564" lon="13.707342234898324"><ele>806.0</ele><time>2026-04-27T16:20:02Z</time></trkpt><trkpt lat="42.24705463574145" lon="13.707325784164361"><ele>806.0000000000001</ele><time>2026-04-27T16:20:03Z</time></trkpt><trkpt lat="42.247034906447645" lon="13.707232975116499"><ele>806.0</ele><time>2026-04-27T16:20:05Z</time></trkpt><trkpt lat="42.24702829132341" lon="13.707139806235991"><ele>806.0</ele><time>2026-04-27T16:20:07Z</time></trkpt><trkpt lat="42.246898319229295" lon="13.707116863154939"><ele>806.0</ele><time>2026-04-27T16:20:09Z</time></trkpt><trkpt lat="42.246830917297366" lon="13.707122534549788"><ele>806.0</ele><time>2026-04-27T16:20:10Z</time></trkpt><trkpt lat="42.24673255112691" lon="13.707121066964161"><ele>806.0</ele><time>2026-04-27T16:20:12Z</time></trkpt><trkpt lat="42.246683439621584" lon="13.707027364594335"><ele>806.0</ele><time>2026-04-27T16:20:15Z</time></trkpt><trkpt lat="42.24669229176805" lon="13.70690619487341"><ele>806.5999999999999</ele><time>2026-04-27T16:20:17Z</time></trkpt><trkpt lat="42.24670377562117" lon="13.706744866049117"><ele>807.2</ele><time>2026-04-27T16:20:19Z</time></trkpt><trkpt lat="42.246650420166475" lon="13.706673575623268"><ele>807.8</ele><time>2026-04-27T16:20:21Z</time></trkpt><trkpt lat="42.24656758474058" lon="13.706648185779077"><ele>808.4000000000001</ele><time>2026-04-27T16:20:23Z</time></trkpt><trkpt lat="42.24649143762422" lon="13.70678859600489"><ele>809.0</ele><time>2026-04-27T16:20:27Z</time></trkpt><trkpt lat="42.246478042707665" lon="13.706872439022561"><ele>808.4000000000001</ele><time>2026-04-27T16:20:28Z</time></trkpt><trkpt lat="42.24646482512236" lon="13.70701082960224"><ele>807.8</ele><time>2026-04-27T16:20:30Z</time></trkpt><trkpt lat="42.246433250782076" lon="13.7070849298511"><ele>807.2</ele><time>2026-04-27T16:21:06Z</time></trkpt><trkpt lat="42.246358300650705" lon="13.707065562107507"><ele>806.5999999999999</ele><time>2026-04-27T16:21:08Z</time></trkpt><trkpt lat="42.24621032804181" lon="13.707009997504764"><ele>806.0</ele><time>2026-04-27T16:21:10Z</time></trkpt><trkpt lat="42.246106476705464" lon="13.706982929384269"><ele>803.4</ele><time>2026-04-27T16:21:12Z</time></trkpt><trkpt lat="42.24611174758672" lon="13.707079811947416"><ele>800.8</ele><time>2026-04-27T16:21:15Z</time></trkpt><trkpt lat="42.24614153923881" lon="13.707262696090954"><ele>798.1999999999999</ele><time>2026-04-27T16:21:17Z</time></trkpt><trkpt lat="42.246151745006436" lon="13.707394895855744"><ele>795.5999999999999</ele><time>2026-04-27T16:21:18Z</time></trkpt><trkpt lat="42.24614557960603" lon="13.707552924723423"><ele>793.0</ele><time>2026-04-27T16:21:19Z</time></trkpt><trkpt lat="42.24613497329806" lon="13.707722904903784"><ele>792.25</ele><time>2026-04-27T16:21:20Z</time></trkpt><trkpt lat="42.24611666474182" lon="13.707907248009777"><ele>791.5</ele><time>2026-04-27T16:21:21Z</time></trkpt><trkpt lat="42.246100219423646" lon="13.708102418199305"><ele>790.75</ele><time>2026-04-27T16:21:22Z</time></trkpt><trkpt lat="42.24608854330672" lon="13.708306731491154"><ele>790.0</ele><time>2026-04-27T16:21:23Z</time></trkpt><trkpt lat="42.24607389327461" lon="13.708526942364875"><ele>789.0</ele><time>2026-04-27T16:21:24Z</time></trkpt><trkpt lat="42.24605852018212" lon="13.708725368536948"><ele>788.0</ele><time>2026-04-27T16:21:25Z</time></trkpt><trkpt lat="42.24604187790396" lon="13.708903195555768"><ele>787.0</ele><time>2026-04-27T16:21:26Z</time></trkpt><trkpt lat="42.246026970689066" lon="13.709065384326287"><ele>786.0</ele><time>2026-04-27T16:21:27Z</time></trkpt><trkpt lat="42.24602181998859" lon="13.709221114935966"><ele>786.0</ele><time>2026-04-27T16:21:28Z</time></trkpt><trkpt lat="42.246040765664254" lon="13.709381500461086"><ele>786.0</ele><time>2026-04-27T16:21:29Z</time></trkpt><trkpt lat="42.246089742408515" lon="13.709539532696217"><ele>786.0</ele><time>2026-04-27T16:21:30Z</time></trkpt><trkpt lat="42.246158062685325" lon="13.709687988128987"><ele>786.0</ele><time>2026-04-27T16:21:31Z</time></trkpt><trkpt lat="42.24625194370224" lon="13.709818864676805"><ele>785.6666666666667</ele><time>2026-04-27T16:21:32Z</time></trkpt><trkpt lat="42.24637069366384" lon="13.709944997277338"><ele>785.3333333333334</ele><time>2026-04-27T16:21:33Z</time></trkpt><trkpt lat="42.2465016313175" lon="13.710055435699912"><ele>785.0</ele><time>2026-04-27T16:21:34Z</time></trkpt><trkpt lat="42.246645008910065" lon="13.71014220196859"><ele>786.0</ele><time>2026-04-27T16:21:35Z</time></trkpt><trkpt lat="42.24679037472339" lon="13.710168578850348"><ele>787.0</ele><time>2026-04-27T16:21:36Z</time></trkpt><trkpt lat="42.246943145325055" lon="13.71014806316622"><ele>788.0</ele><time>2026-04-27T16:21:37Z</time></trkpt><trkpt lat="42.247103282459946" lon="13.710094021481401"><ele>788.0</ele><time>2026-04-27T16:21:38Z</time></trkpt><trkpt lat="42.24727255811278" lon="13.710014784467056"><ele>788.0</ele><time>2026-04-27T16:21:39Z</time></trkpt><trkpt lat="42.24744413691956" lon="13.709945842112274"><ele>788.0</ele><time>2026-04-27T16:21:40Z</time></trkpt><trkpt lat="42.24760928328907" lon="13.70989590735044"><ele>786.75</ele><time>2026-04-27T16:21:41Z</time></trkpt><trkpt lat="42.24775819590918" lon="13.709894282459377"><ele>785.5</ele><time>2026-04-27T16:21:42Z</time></trkpt><trkpt lat="42.24789332937978" lon="13.709902779960972"><ele>784.25</ele><time>2026-04-27T16:21:43Z</time></trkpt><trkpt lat="42.24800210787092" lon="13.709956749750527"><ele>783.0</ele><time>2026-04-27T16:21:44Z</time></trkpt><trkpt lat="42.24809599923513" lon="13.710048846466535"><ele>783.75</ele><time>2026-04-27T16:21:45Z</time></trkpt><trkpt lat="42.248167710086996" lon="13.71018335555276"><ele>784.5</ele><time>2026-04-27T16:21:46Z</time></trkpt><trkpt lat="42.24817092416063" lon="13.710335288595234"><ele>785.25</ele><time>2026-04-27T16:21:47Z</time></trkpt><trkpt lat="42.248138161491696" lon="13.710485057822869"><ele>786.0</ele><time>2026-04-27T16:21:48Z</time></trkpt><trkpt lat="42.24809281457652" lon="13.710653286055487"><ele>779.6666666666666</ele><time>2026-04-27T16:21:49Z</time></trkpt><trkpt lat="42.24803492602843" lon="13.710834656363115"><ele>773.3333333333333</ele><time>2026-04-27T16:21:50Z</time></trkpt><trkpt lat="42.247973516960016" lon="13.71102754118779"><ele>767.0</ele><time>2026-04-27T16:21:51Z</time></trkpt><trkpt lat="42.247913579427085" lon="13.711221262058562"><ele>766.0</ele><time>2026-04-27T16:21:52Z</time></trkpt><trkpt lat="42.247856305264996" lon="13.711413239932002"><ele>765.0</ele><time>2026-04-27T16:21:53Z</time></trkpt><trkpt lat="42.24781631894299" lon="13.711614297095501"><ele>764.0</ele><time>2026-04-27T16:21:54Z</time></trkpt><trkpt lat="42.247756041747124" lon="13.711793383428738"><ele>764.75</ele><time>2026-04-27T16:21:55Z</time></trkpt><trkpt lat="42.247704985007296" lon="13.711960816137111"><ele>765.5</ele><time>2026-04-27T16:21:56Z</time></trkpt><trkpt lat="42.24771561462309" lon="13.71215313218641"><ele>766.25</ele><time>2026-04-27T16:21:57Z</time></trkpt><trkpt lat="42.24773271983846" lon="13.712356333628133"><ele>767.0</ele><time>2026-04-27T16:21:58Z</time></trkpt><trkpt lat="42.247748227795505" lon="13.712548093227557"><ele>767.0</ele><time>2026-04-27T16:21:59Z</time></trkpt><trkpt lat="42.24773083665891" lon="13.712729690041323"><ele>767.0</ele><time>2026-04-27T16:22:00Z</time></trkpt><trkpt lat="42.247720010462366" lon="13.712902862024402"><ele>767.0</ele><time>2026-04-27T16:22:01Z</time></trkpt><trkpt lat="42.2477125759128" lon="13.713096802800171"><ele>767.0</ele><time>2026-04-27T16:22:02Z</time></trkpt><trkpt lat="42.24768834707519" lon="13.713301349038888"><ele>767.25</ele><time>2026-04-27T16:22:03Z</time></trkpt><trkpt lat="42.24765764475144" lon="13.713492023090984"><ele>767.5</ele><time>2026-04-27T16:22:04Z</time></trkpt><trkpt lat="42.24764231607366" lon="13.71367102600695"><ele>767.75</ele><time>2026-04-27T16:22:05Z</time></trkpt><trkpt lat="42.24764939553274" lon="13.713849247718816"><ele>768.0</ele><time>2026-04-27T16:22:06Z</time></trkpt><trkpt lat="42.247631971678345" lon="13.714045180342112"><ele>767.3333333333334</ele><time>2026-04-27T16:22:07Z</time></trkpt><trkpt lat="42.2476736937993" lon="13.714240106809482"><ele>766.6666666666667</ele><time>2026-04-27T16:22:08Z</time></trkpt><trkpt lat="42.247724837484334" lon="13.714431745935714"><ele>766.0</ele><time>2026-04-27T16:22:09Z</time></trkpt><trkpt lat="42.24778919375465" lon="13.714626839053523"><ele>763.3333333333334</ele><time>2026-04-27T16:22:10Z</time></trkpt><trkpt lat="42.247864394437514" lon="13.71482463842141"><ele>760.6666666666666</ele><time>2026-04-27T16:22:11Z</time></trkpt><trkpt lat="42.24794569968386" lon="13.715016540269259"><ele>758.0</ele><time>2026-04-27T16:22:12Z</time></trkpt><trkpt lat="42.248014260103666" lon="13.715163697223952"><ele>756.0</ele><time>2026-04-27T16:22:13Z</time></trkpt><trkpt lat="42.24808169643456" lon="13.715293083286394"><ele>754.0</ele><time>2026-04-27T16:22:14Z</time></trkpt><trkpt lat="42.2481505453607" lon="13.715407310332125"><ele>752.0</ele><time>2026-04-27T16:22:15Z</time></trkpt><trkpt lat="42.2482469322243" lon="13.715511151485646"><ele>750.0</ele><time>2026-04-27T16:22:16Z</time></trkpt><trkpt lat="42.24835333436502" lon="13.715611003297127"><ele>756.0</ele><time>2026-04-27T16:22:17Z</time></trkpt><trkpt lat="42.2484780260742" lon="13.71571070692576"><ele>762.0</ele><time>2026-04-27T16:22:18Z</time></trkpt><trkpt lat="42.248603375838215" lon="13.715826059624774"><ele>768.0</ele><time>2026-04-27T16:22:19Z</time></trkpt><trkpt lat="42.248722584233334" lon="13.715962356913142"><ele>768.0</ele><time>2026-04-27T16:22:20Z</time></trkpt><trkpt lat="42.24885670323026" lon="13.716067551300142"><ele>768.0</ele><time>2026-04-27T16:22:21Z</time></trkpt><trkpt lat="42.24897995510001" lon="13.71619385043412"><ele>768.0</ele><time>2026-04-27T16:22:22Z</time></trkpt><trkpt lat="42.249113482643295" lon="13.716264254414094"><ele>767.4</ele><time>2026-04-27T16:22:23Z</time></trkpt><trkpt lat="42.249228107479446" lon="13.71634666767665"><ele>766.8</ele><time>2026-04-27T16:22:24Z</time></trkpt><trkpt lat="42.24931651283836" lon="13.71641465778385"><ele>766.2</ele><time>2026-04-27T16:22:25Z</time></trkpt><trkpt lat="42.24936504352477" lon="13.71648607347445"><ele>765.6</ele><time>2026-04-27T16:22:26Z</time></trkpt><trkpt lat="42.249390554178035" lon="13.716596767734634"><ele>765.0</ele><time>2026-04-27T16:22:27Z</time></trkpt><trkpt lat="42.2493596039072" lon="13.71672040042454"><ele>765.0</ele><time>2026-04-27T16:22:28Z</time></trkpt><trkpt lat="42.249387918373344" lon="13.716852335316608"><ele>765.0</ele><time>2026-04-27T16:22:29Z</time></trkpt><trkpt lat="42.2494319961568" lon="13.71698463080934"><ele>765.0</ele><time>2026-04-27T16:22:30Z</time></trkpt><trkpt lat="42.24952160167076" lon="13.717106940520033"><ele>765.0</ele><time>2026-04-27T16:22:31Z</time></trkpt><trkpt lat="42.2496117551747" lon="13.717224620558733"><ele>764.0</ele><time>2026-04-27T16:22:32Z</time></trkpt><trkpt lat="42.24972047087673" lon="13.717335366889298"><ele>763.0</ele><time>2026-04-27T16:22:33Z</time></trkpt><trkpt lat="42.24982233560925" lon="13.717448900832187"><ele>762.0</ele><time>2026-04-27T16:22:34Z</time></trkpt><trkpt lat="42.24987823480216" lon="13.717589674131208"><ele>761.0</ele><time>2026-04-27T16:22:35Z</time></trkpt><trkpt lat="42.249907746751475" lon="13.717730060198086"><ele>764.0</ele><time>2026-04-27T16:22:36Z</time></trkpt><trkpt lat="42.249967938332325" lon="13.717887947938209"><ele>767.0</ele><time>2026-04-27T16:22:37Z</time></trkpt><trkpt lat="42.25003906635675" lon="13.718020511961988"><ele>770.0</ele><time>2026-04-27T16:22:38Z</time></trkpt><trkpt lat="42.250119447419685" lon="13.71814577913286"><ele>773.0</ele><time>2026-04-27T16:22:39Z</time></trkpt><trkpt lat="42.25020443330425" lon="13.718273918826172"><ele>773.0</ele><time>2026-04-27T16:22:40Z</time></trkpt><trkpt lat="42.25027624510582" lon="13.718411076507683"><ele>773.0</ele><time>2026-04-27T16:22:41Z</time></trkpt><trkpt lat="42.2503742498313" lon="13.71852346877165"><ele>773.0</ele><time>2026-04-27T16:22:42Z</time></trkpt><trkpt lat="42.250485784209" lon="13.718625142733082"><ele>773.0</ele><time>2026-04-27T16:22:43Z</time></trkpt><trkpt lat="42.25059825090738" lon="13.718723334414657"><ele>773.0</ele><time>2026-04-27T16:22:44Z</time></trkpt><trkpt lat="42.250717051408664" lon="13.718790878759627"><ele>773.0</ele><time>2026-04-27T16:22:45Z</time></trkpt><trkpt lat="42.250854469319904" lon="13.7188415702112"><ele>773.0</ele><time>2026-04-27T16:22:46Z</time></trkpt><trkpt lat="42.250996674198554" lon="13.718899449266441"><ele>773.0</ele><time>2026-04-27T16:22:47Z</time></trkpt><trkpt lat="42.251125351305745" lon="13.718996525727087"><ele>773.0</ele><time>2026-04-27T16:22:48Z</time></trkpt><trkpt lat="42.251236946550044" lon="13.719110014140115"><ele>773.0</ele><time>2026-04-27T16:22:49Z</time></trkpt><trkpt lat="42.251331737981275" lon="13.719243708594306"><ele>773.0</ele><time>2026-04-27T16:22:50Z</time></trkpt><trkpt lat="42.25142249540389" lon="13.719391504742735"><ele>773.0</ele><time>2026-04-27T16:22:51Z</time></trkpt><trkpt lat="42.25152744005705" lon="13.719507416849995"><ele>774.75</ele><time>2026-04-27T16:22:52Z</time></trkpt><trkpt lat="42.251631057147435" lon="13.719619316432214"><ele>776.5</ele><time>2026-04-27T16:22:53Z</time></trkpt><trkpt lat="42.251754739372494" lon="13.719715693996488"><ele>778.25</ele><time>2026-04-27T16:22:54Z</time></trkpt><trkpt lat="42.25188433239317" lon="13.719807539246721"><ele>780.0</ele><time>2026-04-27T16:22:55Z</time></trkpt><trkpt lat="42.252000432266804" lon="13.719932608915592"><ele>780.0</ele><time>2026-04-27T16:22:56Z</time></trkpt><trkpt lat="42.252116756472915" lon="13.72004182445958"><ele>780.0</ele><time>2026-04-27T16:22:57Z</time></trkpt><trkpt lat="42.252235755436146" lon="13.720162931081564"><ele>780.0</ele><time>2026-04-27T16:22:58Z</time></trkpt><trkpt lat="42.25235838446271" lon="13.720288466226107"><ele>780.0</ele><time>2026-04-27T16:22:59Z</time></trkpt><trkpt lat="42.252489582384364" lon="13.720400655389462"><ele>779.0</ele><time>2026-04-27T16:23:00Z</time></trkpt><trkpt lat="42.25260647084166" lon="13.720522993934825"><ele>778.0</ele><time>2026-04-27T16:23:01Z</time></trkpt><trkpt lat="42.25274666669637" lon="13.720622299242313"><ele>777.0</ele><time>2026-04-27T16:23:02Z</time></trkpt><trkpt lat="42.252892331756144" lon="13.720702757752289"><ele>777.0</ele><time>2026-04-27T16:23:03Z</time></trkpt><trkpt lat="42.25304044558682" lon="13.720781297315728"><ele>777.0</ele><time>2026-04-27T16:23:04Z</time></trkpt><trkpt lat="42.25319279814865" lon="13.720858194649747"><ele>777.0</ele><time>2026-04-27T16:23:05Z</time></trkpt><trkpt lat="42.253333003680076" lon="13.720891477065246"><ele>777.6</ele><time>2026-04-27T16:23:06Z</time></trkpt><trkpt lat="42.25344792927501" lon="13.720934908935892"><ele>778.2</ele><time>2026-04-27T16:23:07Z</time></trkpt><trkpt lat="42.25353932771917" lon="13.720966610362842"><ele>778.8</ele><time>2026-04-27T16:23:08Z</time></trkpt><trkpt lat="42.25360475258236" lon="13.72102396990298"><ele>779.4</ele><time>2026-04-27T16:23:09Z</time></trkpt><trkpt lat="42.253606479194964" lon="13.721156216505499"><ele>780.0</ele><time>2026-04-27T16:23:10Z</time></trkpt><trkpt lat="42.25365212677783" lon="13.721291262258369"><ele>780.0</ele><time>2026-04-27T16:23:11Z</time></trkpt><trkpt lat="42.25368498971231" lon="13.721418427321348"><ele>780.0</ele><time>2026-04-27T16:23:12Z</time></trkpt><trkpt lat="42.25369514874771" lon="13.721534716815247"><ele>780.0</ele><time>2026-04-27T16:23:13Z</time></trkpt><trkpt lat="42.25366959546368" lon="13.721627755200213"><ele>780.0</ele><time>2026-04-27T16:23:14Z</time></trkpt><trkpt lat="42.25360601893335" lon="13.721711184318684"><ele>780.0</ele><time>2026-04-27T16:23:15Z</time></trkpt><trkpt lat="42.25354079547181" lon="13.721810088162965"><ele>780.0</ele><time>2026-04-27T16:23:16Z</time></trkpt><trkpt lat="42.25346656772489" lon="13.721931785680331"><ele>781.25</ele><time>2026-04-27T16:23:17Z</time></trkpt><trkpt lat="42.25339485711784" lon="13.722082449725947"><ele>782.5</ele><time>2026-04-27T16:23:18Z</time></trkpt><trkpt lat="42.253339854009575" lon="13.72223412784318"><ele>783.75</ele><time>2026-04-27T16:23:19Z</time></trkpt><trkpt lat="42.25334141287536" lon="13.722376521598886"><ele>785.0</ele><time>2026-04-27T16:23:20Z</time></trkpt><trkpt lat="42.25340626597695" lon="13.722484881744212"><ele>785.0</ele><time>2026-04-27T16:23:21Z</time></trkpt><trkpt lat="42.253424941559174" lon="13.72261318584316"><ele>785.0</ele><time>2026-04-27T16:23:22Z</time></trkpt><trkpt lat="42.253465410600384" lon="13.722748624317424"><ele>785.0</ele><time>2026-04-27T16:23:23Z</time></trkpt><trkpt lat="42.25352636814003" lon="13.72289028162097"><ele>785.0</ele><time>2026-04-27T16:23:24Z</time></trkpt><trkpt lat="42.25359745742963" lon="13.723036568447686"><ele>786.25</ele><time>2026-04-27T16:23:25Z</time></trkpt><trkpt lat="42.25364770885608" lon="13.723204581334072"><ele>787.5</ele><time>2026-04-27T16:23:26Z</time></trkpt><trkpt lat="42.25370738855483" lon="13.72336220513699"><ele>788.75</ele><time>2026-04-27T16:23:27Z</time></trkpt><trkpt lat="42.25376737207799" lon="13.723530358423929"><ele>790.0</ele><time>2026-04-27T16:23:28Z</time></trkpt><trkpt lat="42.253811355261604" lon="13.72366617298006"><ele>790.6</ele><time>2026-04-27T16:23:29Z</time></trkpt><trkpt lat="42.2538500728102" lon="13.723794036178868"><ele>791.2</ele><time>2026-04-27T16:23:30Z</time></trkpt><trkpt lat="42.253886388447526" lon="13.723922745410643"><ele>791.8</ele><time>2026-04-27T16:23:31Z</time></trkpt><trkpt lat="42.253924413889614" lon="13.724023933240156"><ele>792.4</ele><time>2026-04-27T16:23:32Z</time></trkpt><trkpt lat="42.25396987463954" lon="13.72410681597013"><ele>793.0</ele><time>2026-04-27T16:23:33Z</time></trkpt><trkpt lat="42.25404572887719" lon="13.724159458205065"><ele>791.7142857142858</ele><time>2026-04-27T16:23:34Z</time></trkpt><trkpt lat="42.25411044634451" lon="13.724199544492407"><ele>790.4285714285714</ele><time>2026-04-27T16:23:35Z</time></trkpt><trkpt lat="42.25418463213331" lon="13.72421735767032"><ele>789.1428571428571</ele><time>2026-04-27T16:23:36Z</time></trkpt><trkpt lat="42.25425907910836" lon="13.724183182797425"><ele>787.8571428571429</ele><time>2026-04-27T16:23:37Z</time></trkpt><trkpt lat="42.254332724144646" lon="13.724186311702063"><ele>786.5714285714286</ele><time>2026-04-27T16:23:38Z</time></trkpt><trkpt lat="42.25440392048634" lon="13.724189336415883"><ele>785.2857142857143</ele><time>2026-04-27T16:23:39Z</time></trkpt><trkpt lat="42.254476420337475" lon="13.724185583933783"><ele>784.0</ele><time>2026-04-27T16:23:40Z</time></trkpt><trkpt lat="42.254546908240265" lon="13.72417762716377"><ele>784.0</ele><time>2026-04-27T16:23:41Z</time></trkpt><trkpt lat="42.25463637076102" lon="13.724162571765287"><ele>784.0</ele><time>2026-04-27T16:23:42Z</time></trkpt><trkpt lat="42.25473951996626" lon="13.724144291707356"><ele>784.0</ele><time>2026-04-27T16:23:43Z</time></trkpt><trkpt lat="42.25484448781304" lon="13.72413828738297"><ele>784.0</ele><time>2026-04-27T16:23:44Z</time></trkpt><trkpt lat="42.254966420259315" lon="13.724137257823266"><ele>784.0</ele><time>2026-04-27T16:23:45Z</time></trkpt><trkpt lat="42.25508750553239" lon="13.724140616640426"><ele>784.25</ele><time>2026-04-27T16:23:46Z</time></trkpt><trkpt lat="42.25517262428333" lon="13.724144931916175"><ele>784.5</ele><time>2026-04-27T16:23:47Z</time></trkpt><trkpt lat="42.25526233474496" lon="13.724150796388402"><ele>784.75</ele><time>2026-04-27T16:23:48Z</time></trkpt><trkpt lat="42.25538665574436" lon="13.724205403607026"><ele>785.0</ele><time>2026-04-27T16:23:50Z</time></trkpt><trkpt lat="42.25535130947663" lon="13.725035619759634"><ele>780.25</ele><time>2026-04-27T16:23:51Z</time></trkpt><trkpt lat="42.25537277730767" lon="13.725187261810508"><ele>775.5</ele><time>2026-04-27T16:23:52Z</time></trkpt><trkpt lat="42.255408210717334" lon="13.725357462437303"><ele>770.75</ele><time>2026-04-27T16:23:53Z</time></trkpt><trkpt lat="42.255464832571185" lon="13.725539010567166"><ele>766.0</ele><time>2026-04-27T16:23:54Z</time></trkpt><trkpt lat="42.25552279438388" lon="13.725732341637698"><ele>765.75</ele><time>2026-04-27T16:23:55Z</time></trkpt><trkpt lat="42.25557328576949" lon="13.725903328586439"><ele>765.5</ele><time>2026-04-27T16:23:56Z</time></trkpt><trkpt lat="42.25562527065284" lon="13.72605254309876"><ele>765.25</ele><time>2026-04-27T16:23:57Z</time></trkpt><trkpt lat="42.25567486744792" lon="13.72620401844164"><ele>765.0</ele><time>2026-04-27T16:23:58Z</time></trkpt><trkpt lat="42.25572294111572" lon="13.726346037119438"><ele>765.0</ele><time>2026-04-27T16:23:59Z</time></trkpt><trkpt lat="42.255748160805474" lon="13.726461208456595"><ele>765.0</ele><time>2026-04-27T16:24:00Z</time></trkpt><trkpt lat="42.255740454991646" lon="13.726563584478477"><ele>765.0</ele><time>2026-04-27T16:24:01Z</time></trkpt><trkpt lat="42.25570315817316" lon="13.726644173563578"><ele>765.0</ele><time>2026-04-27T16:24:02Z</time></trkpt><trkpt lat="42.25564743670893" lon="13.72671143994085"><ele>765.0</ele><time>2026-04-27T16:24:03Z</time></trkpt><trkpt lat="42.25557535009583" lon="13.726787316522081"><ele>765.0</ele><time>2026-04-27T16:24:04Z</time></trkpt><trkpt lat="42.255522219097635" lon="13.726850351189201"><ele>761.8</ele><time>2026-04-27T16:24:05Z</time></trkpt><trkpt lat="42.25549254163698" lon="13.726999045252946"><ele>758.6</ele><time>2026-04-27T16:24:07Z</time></trkpt><trkpt lat="42.25549382720408" lon="13.727142106029289"><ele>755.4000000000001</ele><time>2026-04-27T16:24:08Z</time></trkpt><trkpt lat="42.25547964620708" lon="13.727296755819065"><ele>752.2</ele><time>2026-04-27T16:24:09Z</time></trkpt><trkpt lat="42.255462746262275" lon="13.727422927470915"><ele>749.0</ele><time>2026-04-27T16:24:10Z</time></trkpt><trkpt lat="42.255467003536694" lon="13.72751681040382"><ele>749.0</ele><time>2026-04-27T16:24:11Z</time></trkpt><trkpt lat="42.25554026443488" lon="13.72760770129306"><ele>749.0</ele><time>2026-04-27T16:24:13Z</time></trkpt><trkpt lat="42.255641176269" lon="13.727564593529427"><ele>749.0</ele><time>2026-04-27T16:24:15Z</time></trkpt><trkpt lat="42.25572440700937" lon="13.72752893022222"><ele>749.0</ele><time>2026-04-27T16:24:17Z</time></trkpt><trkpt lat="42.2558267937218" lon="13.727548870583037"><ele>749.0</ele><time>2026-04-27T16:27:56Z</time></trkpt><trkpt lat="42.255951890856" lon="13.72760605773277"><ele>749.8333333333333</ele><time>2026-04-27T16:27:58Z</time></trkpt><trkpt lat="42.25601039727371" lon="13.72763935298694"><ele>750.6666666666666</ele><time>2026-04-27T16:27:59Z</time></trkpt><trkpt lat="42.25607349939469" lon="13.727689008118906"><ele>751.5</ele><time>2026-04-27T16:28:00Z</time></trkpt><trkpt lat="42.25615824049411" lon="13.727736440287197"><ele>752.3333333333334</ele><time>2026-04-27T16:28:01Z</time></trkpt><trkpt lat="42.25623180945395" lon="13.727798370688669"><ele>753.1666666666667</ele><time>2026-04-27T16:28:02Z</time></trkpt><trkpt lat="42.25631486525913" lon="13.727870604857001"><ele>754.0</ele><time>2026-04-27T16:28:03Z</time></trkpt><trkpt lat="42.256410356482604" lon="13.72794977976683"><ele>749.8000000000001</ele><time>2026-04-27T16:28:04Z</time></trkpt><trkpt lat="42.25649379240019" lon="13.728027883939774"><ele>745.6</ele><time>2026-04-27T16:28:05Z</time></trkpt><trkpt lat="42.25658384834309" lon="13.728101939898165"><ele>741.4</ele><time>2026-04-27T16:28:06Z</time></trkpt><trkpt lat="42.25667518959146" lon="13.72817760155982"><ele>737.2</ele><time>2026-04-27T16:28:07Z</time></trkpt><trkpt lat="42.25675010218368" lon="13.728229774359994"><ele>733.0</ele><time>2026-04-27T16:28:08Z</time></trkpt><trkpt lat="42.25683816837474" lon="13.728307463680817"><ele>733.0</ele><time>2026-04-27T16:28:09Z</time></trkpt><trkpt lat="42.25690456721941" lon="13.728368955471426"><ele>733.0</ele><time>2026-04-27T16:28:10Z</time></trkpt><trkpt lat="42.25694704877762" lon="13.728443347938953"><ele>733.0</ele><time>2026-04-27T16:28:11Z</time></trkpt><trkpt lat="42.25700100017075" lon="13.728526464988434"><ele>733.0</ele><time>2026-04-27T16:28:12Z</time></trkpt><trkpt lat="42.257066342798744" lon="13.728610580083783"><ele>733.0</ele><time>2026-04-27T16:28:13Z</time></trkpt><trkpt lat="42.257142055950624" lon="13.72868253614397"><ele>733.0</ele><time>2026-04-27T16:28:14Z</time></trkpt><trkpt lat="42.25720487053055" lon="13.728764709170289"><ele>730.6666666666667</ele><time>2026-04-27T16:28:15Z</time></trkpt><trkpt lat="42.25725076209796" lon="13.728853327668945"><ele>728.3333333333334</ele><time>2026-04-27T16:28:16Z</time></trkpt><trkpt lat="42.25728284713409" lon="13.728957865476497"><ele>726.0</ele><time>2026-04-27T16:28:17Z</time></trkpt><trkpt lat="42.2573146688237" lon="13.72906732349896"><ele>723.6666666666666</ele><time>2026-04-27T16:28:18Z</time></trkpt><trkpt lat="42.25735356507755" lon="13.729167008691217"><ele>721.3333333333333</ele><time>2026-04-27T16:28:19Z</time></trkpt><trkpt lat="42.25738955070182" lon="13.72925530187656"><ele>719.0</ele><time>2026-04-27T16:28:20Z</time></trkpt><trkpt lat="42.25742257152084" lon="13.729334298455939"><ele>713.3333333333333</ele><time>2026-04-27T16:28:21Z</time></trkpt><trkpt lat="42.25746882126555" lon="13.729397965579604"><ele>707.6666666666666</ele><time>2026-04-27T16:28:22Z</time></trkpt><trkpt lat="42.257530688359864" lon="13.729436985649201"><ele>702.0</ele><time>2026-04-27T16:28:23Z</time></trkpt><trkpt lat="42.2576002313679" lon="13.729473619790639"><ele>696.3333333333334</ele><time>2026-04-27T16:28:24Z</time></trkpt><trkpt lat="42.257680196853116" lon="13.729499176071425"><ele>690.6666666666667</ele><time>2026-04-27T16:28:25Z</time></trkpt><trkpt lat="42.25777554171423" lon="13.729529440764502"><ele>685.0</ele><time>2026-04-27T16:28:26Z</time></trkpt><trkpt lat="42.25787254138489" lon="13.729543348911704"><ele>685.0</ele><time>2026-04-27T16:28:27Z</time></trkpt><trkpt lat="42.25799403420385" lon="13.729574211113015"><ele>685.0</ele><time>2026-04-27T16:28:28Z</time></trkpt><trkpt lat="42.25810859773455" lon="13.729602138114908"><ele>685.0</ele><time>2026-04-27T16:28:29Z</time></trkpt><trkpt lat="42.25823314724664" lon="13.72963767079086"><ele>685.0</ele><time>2026-04-27T16:28:30Z</time></trkpt><trkpt lat="42.25833840410793" lon="13.729682594847148"><ele>686.5</ele><time>2026-04-27T16:28:31Z</time></trkpt><trkpt lat="42.25843259451374" lon="13.729751269608775"><ele>688.0</ele><time>2026-04-27T16:28:32Z</time></trkpt><trkpt lat="42.25852433196589" lon="13.729831144834279"><ele>689.5</ele><time>2026-04-27T16:28:33Z</time></trkpt><trkpt lat="42.2586349180458" lon="13.729913778790284"><ele>691.0</ele><time>2026-04-27T16:28:34Z</time></trkpt><trkpt lat="42.25875972934432" lon="13.729977336418155"><ele>691.0</ele><time>2026-04-27T16:28:35Z</time></trkpt><trkpt lat="42.25889110015025" lon="13.730035514356336"><ele>691.0</ele><time>2026-04-27T16:28:36Z</time></trkpt><trkpt lat="42.25902112508021" lon="13.730096543487619"><ele>691.0</ele><time>2026-04-27T16:28:37Z</time></trkpt><trkpt lat="42.259141950425075" lon="13.730146741075824"><ele>691.0</ele><time>2026-04-27T16:28:38Z</time></trkpt><trkpt lat="42.2592564464633" lon="13.730192648470817"><ele>685.4</ele><time>2026-04-27T16:28:39Z</time></trkpt><trkpt lat="42.259371242293035" lon="13.730236557111112"><ele>679.8</ele><time>2026-04-27T16:28:40Z</time></trkpt><trkpt lat="42.259475275462805" lon="13.730275938172142"><ele>674.1999999999999</ele><time>2026-04-27T16:28:41Z</time></trkpt><trkpt lat="42.259575234040675" lon="13.730325553653946"><ele>668.5999999999999</ele><time>2026-04-27T16:28:42Z</time></trkpt><trkpt lat="42.25967720303879" lon="13.73038117049955"><ele>663.0</ele><time>2026-04-27T16:28:43Z</time></trkpt><trkpt lat="42.25975078026973" lon="13.730406251525746"><ele>664.1666666666666</ele><time>2026-04-27T16:28:44Z</time></trkpt><trkpt lat="42.25983908487355" lon="13.73044463970802"><ele>665.3333333333334</ele><time>2026-04-27T16:28:45Z</time></trkpt><trkpt lat="42.259920796415805" lon="13.730487165888745"><ele>666.5</ele><time>2026-04-27T16:28:46Z</time></trkpt><trkpt lat="42.26000373341279" lon="13.730532777191968"><ele>667.6666666666667</ele><time>2026-04-27T16:28:47Z</time></trkpt><trkpt lat="42.26008418363785" lon="13.730581934776776"><ele>668.8333333333334</ele><time>2026-04-27T16:28:48Z</time></trkpt><trkpt lat="42.2601592852488" lon="13.730630211053255"><ele>670.0</ele><time>2026-04-27T16:28:49Z</time></trkpt><trkpt lat="42.26022951906263" lon="13.730675540998945"><ele>670.0</ele><time>2026-04-27T16:28:50Z</time></trkpt><trkpt lat="42.260295603695" lon="13.73072188679967"><ele>670.0</ele><time>2026-04-27T16:28:51Z</time></trkpt><trkpt lat="42.260372877431706" lon="13.730782629469314"><ele>670.0</ele><time>2026-04-27T16:28:52Z</time></trkpt><trkpt lat="42.26045798164727" lon="13.730844165021864"><ele>670.0</ele><time>2026-04-27T16:28:53Z</time></trkpt><trkpt lat="42.260555773003254" lon="13.730923663830618"><ele>670.0</ele><time>2026-04-27T16:28:54Z</time></trkpt><trkpt lat="42.26065200295857" lon="13.731014373062063"><ele>666.4</ele><time>2026-04-27T16:28:55Z</time></trkpt><trkpt lat="42.260742851423785" lon="13.731103795313722"><ele>662.8</ele><time>2026-04-27T16:28:56Z</time></trkpt><trkpt lat="42.26082640299788" lon="13.731192673181885"><ele>659.2</ele><time>2026-04-27T16:28:57Z</time></trkpt><trkpt lat="42.260886352121766" lon="13.73127348748671"><ele>655.6</ele><time>2026-04-27T16:28:58Z</time></trkpt><trkpt lat="42.260934863840205" lon="13.73135644796404"><ele>652.0</ele><time>2026-04-27T16:28:59Z</time></trkpt><trkpt lat="42.26096774933621" lon="13.731439940275186"><ele>652.0</ele><time>2026-04-27T16:29:00Z</time></trkpt><trkpt lat="42.26099523294602" lon="13.731548196947161"><ele>652.0</ele><time>2026-04-27T16:29:01Z</time></trkpt><trkpt lat="42.2610184481783" lon="13.731655914977186"><ele>652.0</ele><time>2026-04-27T16:29:02Z</time></trkpt><trkpt lat="42.26106239617574" lon="13.731749488962917"><ele>652.0</ele><time>2026-04-27T16:29:03Z</time></trkpt><trkpt lat="42.26112966608212" lon="13.73185249837685"><ele>652.0</ele><time>2026-04-27T16:29:04Z</time></trkpt><trkpt lat="42.261184890883136" lon="13.731931231589174"><ele>652.0</ele><time>2026-04-27T16:29:05Z</time></trkpt><trkpt lat="42.261238257666335" lon="13.731981062387083"><ele>651.5</ele><time>2026-04-27T16:29:06Z</time></trkpt><trkpt lat="42.26137266525083" lon="13.731974518396934"><ele>651.0</ele><time>2026-04-27T16:29:08Z</time></trkpt><trkpt lat="42.261453227927966" lon="13.731976574466913"><ele>650.5</ele><time>2026-04-27T16:29:09Z</time></trkpt><trkpt lat="42.261515022647274" lon="13.732003395752722"><ele>650.0</ele><time>2026-04-27T16:29:10Z</time></trkpt><trkpt lat="42.261566256371395" lon="13.732070981493257"><ele>649.5</ele><time>2026-04-27T16:29:11Z</time></trkpt><trkpt lat="42.26160697419108" lon="13.73216717372607"><ele>649.0</ele><time>2026-04-27T16:29:12Z</time></trkpt><trkpt lat="42.26162948384992" lon="13.732269228674332"><ele>649.0</ele><time>2026-04-27T16:29:13Z</time></trkpt><trkpt lat="42.26163741308325" lon="13.732377819053726"><ele>649.0</ele><time>2026-04-27T16:29:14Z</time></trkpt><trkpt lat="42.261629620765405" lon="13.732466848270551"><ele>649.0</ele><time>2026-04-27T16:29:15Z</time></trkpt><trkpt lat="42.26160487250729" lon="13.732575254520139"><ele>649.0</ele><time>2026-04-27T16:29:16Z</time></trkpt><trkpt lat="42.26160305669079" lon="13.732707855245286"><ele>649.0</ele><time>2026-04-27T16:29:17Z</time></trkpt><trkpt lat="42.261610923061035" lon="13.732838950997015"><ele>649.0</ele><time>2026-04-27T16:29:18Z</time></trkpt><trkpt lat="42.26163420195781" lon="13.73298596800258"><ele>645.25</ele><time>2026-04-27T16:29:19Z</time></trkpt><trkpt lat="42.26165766324608" lon="13.733140462727489"><ele>641.5</ele><time>2026-04-27T16:29:20Z</time></trkpt><trkpt lat="42.26167821463111" lon="13.733297917709058"><ele>637.75</ele><time>2026-04-27T16:29:21Z</time></trkpt><trkpt lat="42.26169559068773" lon="13.733446034793463"><ele>634.0</ele><time>2026-04-27T16:29:22Z</time></trkpt><trkpt lat="42.261721839812424" lon="13.733593696917536"><ele>632.8</ele><time>2026-04-27T16:29:23Z</time></trkpt><trkpt lat="42.261757199840986" lon="13.73373410974043"><ele>631.5999999999999</ele><time>2026-04-27T16:29:24Z</time></trkpt><trkpt lat="42.261788644869" lon="13.733861015362253"><ele>630.4</ele><time>2026-04-27T16:29:25Z</time></trkpt><trkpt lat="42.26180067283561" lon="13.733986164354167"><ele>629.1999999999999</ele><time>2026-04-27T16:29:26Z</time></trkpt><trkpt lat="42.261796312416735" lon="13.73410974730847"><ele>628.0</ele><time>2026-04-27T16:29:27Z</time></trkpt><trkpt lat="42.26178445949942" lon="13.734228940487315"><ele>628.0</ele><time>2026-04-27T16:29:28Z</time></trkpt><trkpt lat="42.2617605509958" lon="13.734349123148679"><ele>628.0</ele><time>2026-04-27T16:29:29Z</time></trkpt><trkpt lat="42.26171266798026" lon="13.734457669492334"><ele>628.0</ele><time>2026-04-27T16:29:30Z</time></trkpt><trkpt lat="42.26166532101089" lon="13.734559171600552"><ele>628.0</ele><time>2026-04-27T16:29:31Z</time></trkpt><trkpt lat="42.26161569225403" lon="13.73468655254043"><ele>628.0</ele><time>2026-04-27T16:29:32Z</time></trkpt><trkpt lat="42.26154096543203" lon="13.734816623404827"><ele>628.1999999999999</ele><time>2026-04-27T16:29:33Z</time></trkpt><trkpt lat="42.2614516907479" lon="13.734930133083886"><ele>628.4</ele><time>2026-04-27T16:29:34Z</time></trkpt><trkpt lat="42.2613699630452" lon="13.735015160167753"><ele>628.5999999999999</ele><time>2026-04-27T16:29:35Z</time></trkpt><trkpt lat="42.261291248792375" lon="13.735114762490623"><ele>628.8</ele><time>2026-04-27T16:29:36Z</time></trkpt><trkpt lat="42.261228365114285" lon="13.735205313611916"><ele>629.0</ele><time>2026-04-27T16:29:37Z</time></trkpt><trkpt lat="42.26119125814568" lon="13.735278293342985"><ele>624.0</ele><time>2026-04-27T16:29:38Z</time></trkpt><trkpt lat="42.2611620396781" lon="13.735437470926952"><ele>619.0</ele><time>2026-04-27T16:29:40Z</time></trkpt><trkpt lat="42.26114133437079" lon="13.735547236227696"><ele>614.0</ele><time>2026-04-27T16:29:41Z</time></trkpt><trkpt lat="42.261106901201856" lon="13.735666054204602"><ele>609.0</ele><time>2026-04-27T16:29:42Z</time></trkpt><trkpt lat="42.26108852434916" lon="13.735761050937487"><ele>604.0</ele><time>2026-04-27T16:29:43Z</time></trkpt><trkpt lat="42.26106799254611" lon="13.735866816196788"><ele>604.0</ele><time>2026-04-27T16:29:44Z</time></trkpt><trkpt lat="42.261053033687105" lon="13.735960951340205"><ele>604.0</ele><time>2026-04-27T16:29:45Z</time></trkpt><trkpt lat="42.26103722074759" lon="13.7360609470532"><ele>604.0</ele><time>2026-04-27T16:29:46Z</time></trkpt><trkpt lat="42.261017236739214" lon="13.736160659836719"><ele>604.0</ele><time>2026-04-27T16:29:47Z</time></trkpt><trkpt lat="42.26100233135458" lon="13.73625099109341"><ele>604.0</ele><time>2026-04-27T16:29:48Z</time></trkpt><trkpt lat="42.260971292135544" lon="13.736336986594301"><ele>604.0</ele><time>2026-04-27T16:29:50Z</time></trkpt><trkpt lat="42.26102799967411" lon="13.736446255493842"><ele>602.6666666666667</ele><time>2026-04-27T16:29:53Z</time></trkpt><trkpt lat="42.261096632007515" lon="13.736500754309219"><ele>601.3333333333334</ele><time>2026-04-27T16:29:54Z</time></trkpt><trkpt lat="42.26115432329553" lon="13.73655670505365"><ele>600.0</ele><time>2026-04-27T16:29:55Z</time></trkpt><trkpt lat="42.26122074322345" lon="13.736640938967286"><ele>598.6666666666666</ele><time>2026-04-27T16:29:56Z</time></trkpt><trkpt lat="42.2612773030399" lon="13.736709600132034"><ele>597.3333333333333</ele><time>2026-04-27T16:29:57Z</time></trkpt><trkpt lat="42.261344263581705" lon="13.73678160386925"><ele>596.0</ele><time>2026-04-27T16:29:58Z</time></trkpt><trkpt lat="42.261405980805925" lon="13.7368465099283"><ele>593.0</ele><time>2026-04-27T16:29:59Z</time></trkpt><trkpt lat="42.26147137348965" lon="13.736895250229178"><ele>590.0</ele><time>2026-04-27T16:30:00Z</time></trkpt><trkpt lat="42.261538702561936" lon="13.736937881480037"><ele>587.0</ele><time>2026-04-27T16:30:01Z</time></trkpt><trkpt lat="42.26166956290735" lon="13.736972892373288"><ele>584.0</ele><time>2026-04-27T16:30:03Z</time></trkpt><trkpt lat="42.26176626370983" lon="13.736991957428547"><ele>581.0</ele><time>2026-04-27T16:30:04Z</time></trkpt><trkpt lat="42.26185057141286" lon="13.737019260169001"><ele>581.0</ele><time>2026-04-27T16:30:05Z</time></trkpt><trkpt lat="42.26192957222924" lon="13.737044486993762"><ele>581.0</ele><time>2026-04-27T16:30:06Z</time></trkpt><trkpt lat="42.262001923046" lon="13.737081056999092"><ele>581.0</ele><time>2026-04-27T16:30:07Z</time></trkpt><trkpt lat="42.26208357529824" lon="13.737144385169891"><ele>581.0</ele><time>2026-04-27T16:30:08Z</time></trkpt><trkpt lat="42.262161227844466" lon="13.737217257501761"><ele>581.0</ele><time>2026-04-27T16:30:09Z</time></trkpt><trkpt lat="42.26224030513301" lon="13.737277192228847"><ele>581.0</ele><time>2026-04-27T16:30:10Z</time></trkpt><trkpt lat="42.26231643037755" lon="13.737338773400618"><ele>582.0</ele><time>2026-04-27T16:30:11Z</time></trkpt><trkpt lat="42.26239561792307" lon="13.737389745031138"><ele>583.0</ele><time>2026-04-27T16:30:12Z</time></trkpt><trkpt lat="42.262477949057974" lon="13.737455345208005"><ele>584.0</ele><time>2026-04-27T16:30:13Z</time></trkpt><trkpt lat="42.26256495272343" lon="13.737510257089642"><ele>585.0</ele><time>2026-04-27T16:30:14Z</time></trkpt><trkpt lat="42.26264030068415" lon="13.737529120134926"><ele>586.0</ele><time>2026-04-27T16:30:15Z</time></trkpt><trkpt lat="42.26273384425385" lon="13.737546805024582"><ele>586.0</ele><time>2026-04-27T16:30:16Z</time></trkpt><trkpt lat="42.26283478136352" lon="13.737558637085005"><ele>586.0</ele><time>2026-04-27T16:30:17Z</time></trkpt><trkpt lat="42.262969512170564" lon="13.7376005584988"><ele>586.0</ele><time>2026-04-27T16:30:18Z</time></trkpt><trkpt lat="42.2630815574784" lon="13.737631525468203"><ele>586.0</ele><time>2026-04-27T16:30:19Z</time></trkpt><trkpt lat="42.263202358712356" lon="13.737655781981665"><ele>577.3333333333334</ele><time>2026-04-27T16:30:20Z</time></trkpt><trkpt lat="42.263304253020685" lon="13.738033710588649"><ele>568.6666666666666</ele><time>2026-04-27T16:30:21Z</time></trkpt><trkpt lat="42.26339127062331" lon="13.738037372284328"><ele>560.0</ele><time>2026-04-27T16:30:22Z</time></trkpt><trkpt lat="42.263480731219595" lon="13.738041136780215"><ele>560.0</ele><time>2026-04-27T16:30:23Z</time></trkpt><trkpt lat="42.26354644774987" lon="13.7380439021277"><ele>560.0</ele><time>2026-04-27T16:30:24Z</time></trkpt><trkpt lat="42.26361391845088" lon="13.738046741289248"><ele>560.0</ele><time>2026-04-27T16:30:25Z</time></trkpt><trkpt lat="42.26373024035907" lon="13.738051636111772"><ele>560.0</ele><time>2026-04-27T16:30:27Z</time></trkpt><trkpt lat="42.26380218201286" lon="13.738054663413271"><ele>560.0</ele><time>2026-04-27T16:30:28Z</time></trkpt><trkpt lat="42.26388739052353" lon="13.738058248980796"><ele>560.0</ele><time>2026-04-27T16:30:29Z</time></trkpt><trkpt lat="42.26396708875971" lon="13.73806160268425"><ele>559.2</ele><time>2026-04-27T16:30:30Z</time></trkpt><trkpt lat="42.26404892080242" lon="13.738065046167035"><ele>558.4</ele><time>2026-04-27T16:30:31Z</time></trkpt><trkpt lat="42.26412371778223" lon="13.738068193620437"><ele>557.6</ele><time>2026-04-27T16:30:32Z</time></trkpt><trkpt lat="42.26426075176467" lon="13.738073960007636"><ele>556.8</ele><time>2026-04-27T16:30:34Z</time></trkpt><trkpt lat="42.26435314066327" lon="13.738077847729464"><ele>556.0</ele><time>2026-04-27T16:30:35Z</time></trkpt><trkpt lat="42.26446161910759" lon="13.738082412494858"><ele>556.0</ele><time>2026-04-27T16:30:36Z</time></trkpt><trkpt lat="42.264566593468736" lon="13.73808682981145"><ele>556.0</ele><time>2026-04-27T16:30:37Z</time></trkpt><trkpt lat="42.264661272172226" lon="13.738090813882803"><ele>556.0</ele><time>2026-04-27T16:30:38Z</time></trkpt><trkpt lat="42.26473788450642" lon="13.738094037733548"><ele>556.0</ele><time>2026-04-27T16:30:39Z</time></trkpt><trkpt lat="42.26483967619345" lon="13.738098321114883"><ele>556.0</ele><time>2026-04-27T16:30:41Z</time></trkpt><trkpt lat="42.26491196618231" lon="13.738101191785093"><ele>555.0</ele><time>2026-04-27T16:30:43Z</time></trkpt><trkpt lat="42.26506276140582" lon="13.738107050417572"><ele>554.0</ele><time>2026-04-27T16:30:45Z</time></trkpt><trkpt lat="42.265196473345256" lon="13.73811300528972"><ele>553.0</ele><time>2026-04-27T16:30:46Z</time></trkpt><trkpt lat="42.265358121763136" lon="13.738133213567457"><ele>552.0</ele><time>2026-04-27T16:30:47Z</time></trkpt><trkpt lat="42.26552357568721" lon="13.738140442040692"><ele>551.5</ele><time>2026-04-27T16:30:48Z</time></trkpt><trkpt lat="42.265668770147414" lon="13.738142706485878"><ele>551.0</ele><time>2026-04-27T16:30:49Z</time></trkpt><trkpt lat="42.26578926193255" lon="13.738149903927917"><ele>550.5</ele><time>2026-04-27T16:30:50Z</time></trkpt><trkpt lat="42.26589516880825" lon="13.738152048565869"><ele>550.0</ele><time>2026-04-27T16:30:51Z</time></trkpt><trkpt lat="42.26599525493944" lon="13.738152781871902"><ele>550.0</ele><time>2026-04-27T16:30:52Z</time></trkpt><trkpt lat="42.26609397030306" lon="13.73815234390378"><ele>550.0</ele><time>2026-04-27T16:30:53Z</time></trkpt><trkpt lat="42.26619617264908" lon="13.738158169384505"><ele>550.0</ele><time>2026-04-27T16:30:54Z</time></trkpt><trkpt lat="42.26630661319063" lon="13.738163305383585"><ele>550.0</ele><time>2026-04-27T16:30:55Z</time></trkpt><trkpt lat="42.2664120522937" lon="13.738167282899061"><ele>550.0</ele><time>2026-04-27T16:30:56Z</time></trkpt><trkpt lat="42.266522628017945" lon="13.738172936574715"><ele>549.4</ele><time>2026-04-27T16:30:56.999Z</time></trkpt><trkpt lat="42.26662785854253" lon="13.738178641916182"><ele>548.8</ele><time>2026-04-27T16:30:57.999Z</time></trkpt><trkpt lat="42.26672669618777" lon="13.738186371016386"><ele>548.2</ele><time>2026-04-27T16:30:58.999Z</time></trkpt><trkpt lat="42.26682801873013" lon="13.73819113786164"><ele>547.6</ele><time>2026-04-27T16:30:59.999Z</time></trkpt><trkpt lat="42.26689619153146" lon="13.738197394085612"><ele>547.0</ele><time>2026-04-27T16:31:00.999Z</time></trkpt><trkpt lat="42.26697993544609" lon="13.738204144438207"><ele>547.0</ele><time>2026-04-27T16:31:02.999Z</time></trkpt><trkpt lat="42.26708278747806" lon="13.73819923847226"><ele>547.0</ele><time>2026-04-27T16:33:50.001Z</time></trkpt><trkpt lat="42.267170440703936" lon="13.738199990242336"><ele>547.0</ele><time>2026-04-27T16:33:51.001Z</time></trkpt><trkpt lat="42.267288819124026" lon="13.738210247087515"><ele>547.0</ele><time>2026-04-27T16:33:52.001Z</time></trkpt><trkpt lat="42.267411922177885" lon="13.738217753976807"><ele>547.0</ele><time>2026-04-27T16:33:53.001Z</time></trkpt><trkpt lat="42.26755754939343" lon="13.7382243102866"><ele>545.6666666666667</ele><time>2026-04-27T16:33:54.001Z</time></trkpt><trkpt lat="42.267724870313444" lon="13.738230568728271"><ele>544.3333333333334</ele><time>2026-04-27T16:33:55.001Z</time></trkpt><trkpt lat="42.267889851565286" lon="13.738234718997832"><ele>543.0</ele><time>2026-04-27T16:33:56.001Z</time></trkpt><trkpt lat="42.268039737811485" lon="13.73824246451916"><ele>541.75</ele><time>2026-04-27T16:33:57.001Z</time></trkpt><trkpt lat="42.268175538652706" lon="13.73825040749201"><ele>540.5</ele><time>2026-04-27T16:33:58.001Z</time></trkpt><trkpt lat="42.26830144907289" lon="13.738253270100623"><ele>539.25</ele><time>2026-04-27T16:33:59.001Z</time></trkpt><trkpt lat="42.2684105447311" lon="13.738265469913033"><ele>538.0</ele><time>2026-04-27T16:34:00.001Z</time></trkpt><trkpt lat="42.26850670690693" lon="13.738286065627664"><ele>538.0</ele><time>2026-04-27T16:34:01Z</time></trkpt><trkpt lat="42.26860394512016" lon="13.73831450448242"><ele>538.0</ele><time>2026-04-27T16:34:02Z</time></trkpt><trkpt lat="42.26872291109382" lon="13.738349625904904"><ele>538.0</ele><time>2026-04-27T16:34:03Z</time></trkpt><trkpt lat="42.26883355417326" lon="13.738362651371144"><ele>538.0</ele><time>2026-04-27T16:34:04Z</time></trkpt><trkpt lat="42.268947178001106" lon="13.73836742143206"><ele>538.0</ele><time>2026-04-27T16:34:05Z</time></trkpt><trkpt lat="42.26903818420226" lon="13.738371241966757"><ele>538.4</ele><time>2026-04-27T16:34:06Z</time></trkpt><trkpt lat="42.26912941610989" lon="13.738375071964995"><ele>538.8</ele><time>2026-04-27T16:34:07Z</time></trkpt><trkpt lat="42.26921082962283" lon="13.738378492456318"><ele>539.2</ele><time>2026-04-27T16:34:08Z</time></trkpt><trkpt lat="42.2692791931938" lon="13.738381367771371"><ele>539.6</ele><time>2026-04-27T16:34:09Z</time></trkpt><trkpt lat="42.26939048396458" lon="13.738386048580347"><ele>540.0</ele><time>2026-04-27T16:34:11Z</time></trkpt><trkpt lat="42.26942015546923" lon="13.738922786559307"><ele>537.2</ele><time>2026-04-27T16:34:14Z</time></trkpt><trkpt lat="42.26939287796691" lon="13.739029820495011"><ele>534.4</ele><time>2026-04-27T16:34:15Z</time></trkpt><trkpt lat="42.26936300709977" lon="13.73914867345938"><ele>531.6</ele><time>2026-04-27T16:34:16Z</time></trkpt><trkpt lat="42.26934294718079" lon="13.739289177583334"><ele>528.8</ele><time>2026-04-27T16:34:17Z</time></trkpt><trkpt lat="42.26932694271179" lon="13.739449536638745"><ele>526.0</ele><time>2026-04-27T16:34:18Z</time></trkpt><trkpt lat="42.26929627689586" lon="13.739614858947467"><ele>524.4</ele><time>2026-04-27T16:34:19Z</time></trkpt><trkpt lat="42.26926988583813" lon="13.739762621909717"><ele>522.8</ele><time>2026-04-27T16:34:20Z</time></trkpt><trkpt lat="42.2692328972176" lon="13.739908980130236"><ele>521.1999999999999</ele><time>2026-04-27T16:34:21Z</time></trkpt><trkpt lat="42.26921281642503" lon="13.740028742365814"><ele>519.6</ele><time>2026-04-27T16:34:22Z</time></trkpt><trkpt lat="42.269196685723045" lon="13.740138484571924"><ele>518.0</ele><time>2026-04-27T16:34:23Z</time></trkpt><trkpt lat="42.26919079680995" lon="13.740273102378639"><ele>515.1666666666666</ele><time>2026-04-27T16:34:25Z</time></trkpt><trkpt lat="42.269122738241805" lon="13.74032546381781"><ele>512.3333333333333</ele><time>2026-04-27T16:34:27Z</time></trkpt><trkpt lat="42.26905068447477" lon="13.740376654590868"><ele>509.5</ele><time>2026-04-27T16:34:28Z</time></trkpt><trkpt lat="42.26896472443206" lon="13.740439422666368"><ele>506.66666666666663</ele><time>2026-04-27T16:34:29Z</time></trkpt><trkpt lat="42.268888506995694" lon="13.74048793392775"><ele>503.8333333333333</ele><time>2026-04-27T16:34:30Z</time></trkpt><trkpt lat="42.26881430255207" lon="13.74053036971158"><ele>501.0</ele><time>2026-04-27T16:34:31Z</time></trkpt><trkpt lat="42.26874807081199" lon="13.740569820603051"><ele>501.0</ele><time>2026-04-27T16:34:32Z</time></trkpt><trkpt lat="42.26863045333802" lon="13.740578912598064"><ele>501.0</ele><time>2026-04-27T16:34:34Z</time></trkpt><trkpt lat="42.26858351761501" lon="13.740478023653697"><ele>501.0</ele><time>2026-04-27T16:34:36Z</time></trkpt><trkpt lat="42.26856787981861" lon="13.740382756532245"><ele>501.0</ele><time>2026-04-27T16:34:37Z</time></trkpt><trkpt lat="42.26855561415975" lon="13.74026288865656"><ele>501.0</ele><time>2026-04-27T16:34:38Z</time></trkpt><trkpt lat="42.26854557113905" lon="13.74014902878805"><ele>501.0</ele><time>2026-04-27T16:34:39Z</time></trkpt><trkpt lat="42.268506158403916" lon="13.740030165613414"><ele>501.0</ele><time>2026-04-27T16:34:41Z</time></trkpt><trkpt lat="42.26839553662738" lon="13.740022888233305"><ele>501.0</ele><time>2026-04-27T16:34:43Z</time></trkpt><trkpt lat="42.26834211268563" lon="13.740079763272075"><ele>501.0</ele><time>2026-04-27T16:34:44Z</time></trkpt><trkpt lat="42.2683171345671" lon="13.740163251594886"><ele>501.0</ele><time>2026-04-27T16:34:45Z</time></trkpt><trkpt lat="42.26827412909336" lon="13.740274769476267"><ele>501.0</ele><time>2026-04-27T16:34:46Z</time></trkpt><trkpt lat="42.268220763054245" lon="13.740333823767621"><ele>501.0</ele><time>2026-04-27T16:34:47Z</time></trkpt><trkpt lat="42.268146988781794" lon="13.740379547066803"><ele>501.0</ele><time>2026-04-27T16:34:48Z</time></trkpt><trkpt lat="42.26805385918744" lon="13.74041735162424"><ele>501.0</ele><time>2026-04-27T16:34:49Z</time></trkpt><trkpt lat="42.26795210452511" lon="13.740449715321475"><ele>501.0</ele><time>2026-04-27T16:34:50Z</time></trkpt><trkpt lat="42.2678579811647" lon="13.74047634077325"><ele>501.0</ele><time>2026-04-27T16:34:51Z</time></trkpt><trkpt lat="42.267783157105576" lon="13.740501877299593"><ele>499.4</ele><time>2026-04-27T16:34:52Z</time></trkpt><trkpt lat="42.26767507599773" lon="13.740472746723789"><ele>497.8</ele><time>2026-04-27T16:34:54Z</time></trkpt><trkpt lat="42.267557599139195" lon="13.740424329996175"><ele>496.19999999999993</ele><time>2026-04-27T16:34:56Z</time></trkpt><trkpt lat="42.2674972526832" lon="13.740393680712003"><ele>494.59999999999997</ele><time>2026-04-27T16:34:57Z</time></trkpt><trkpt lat="42.26742760873544" lon="13.740348572756115"><ele>493.0</ele><time>2026-04-27T16:34:58Z</time></trkpt><trkpt lat="42.26735165783704" lon="13.740281641942408"><ele>491.83333333333337</ele><time>2026-04-27T16:34:59Z</time></trkpt><trkpt lat="42.26727016962063" lon="13.740226173945334"><ele>490.6666666666667</ele><time>2026-04-27T16:35:00Z</time></trkpt><trkpt lat="42.267200653131596" lon="13.740197122484783"><ele>489.5</ele><time>2026-04-27T16:35:01Z</time></trkpt><trkpt lat="42.26713729110067" lon="13.740191386500657"><ele>488.33333333333337</ele><time>2026-04-27T16:35:02Z</time></trkpt><trkpt lat="42.26707247187363" lon="13.74019947544068"><ele>487.1666666666667</ele><time>2026-04-27T16:35:03Z</time></trkpt><trkpt lat="42.266922012062984" lon="13.740184223993811"><ele>486.0</ele><time>2026-04-27T16:35:05Z</time></trkpt><trkpt lat="42.266820749512156" lon="13.74016537148921"><ele>486.0</ele><time>2026-04-27T16:35:06Z</time></trkpt><trkpt lat="42.26673892725817" lon="13.740165439101965"><ele>486.0</ele><time>2026-04-27T16:35:07Z</time></trkpt><trkpt lat="42.26666503996864" lon="13.74017895154505"><ele>486.0</ele><time>2026-04-27T16:35:08Z</time></trkpt><trkpt lat="42.266571357383995" lon="13.740197665714632"><ele>486.0</ele><time>2026-04-27T16:35:09Z</time></trkpt><trkpt lat="42.26646205793873" lon="13.74022401694078"><ele>486.0</ele><time>2026-04-27T16:35:10Z</time></trkpt><trkpt lat="42.26636630575151" lon="13.740258876647832"><ele>486.1666666666667</ele><time>2026-04-27T16:35:11Z</time></trkpt><trkpt lat="42.26629240438227" lon="13.740283250988425"><ele>486.33333333333337</ele><time>2026-04-27T16:35:12Z</time></trkpt><trkpt lat="42.26623333063464" lon="13.740320676773075"><ele>486.5</ele><time>2026-04-27T16:35:13Z</time></trkpt><trkpt lat="42.26616802266951" lon="13.74039061754324"><ele>486.6666666666667</ele><time>2026-04-27T16:35:14Z</time></trkpt><trkpt lat="42.26609288036752" lon="13.740500534944143"><ele>486.83333333333337</ele><time>2026-04-27T16:35:15Z</time></trkpt><trkpt lat="42.26601786918967" lon="13.74059621686794"><ele>487.0</ele><time>2026-04-27T16:35:16Z</time></trkpt><trkpt lat="42.26593147325022" lon="13.740675726661792"><ele>487.0</ele><time>2026-04-27T16:35:17Z</time></trkpt><trkpt lat="42.265847504999236" lon="13.740765333937661"><ele>487.00000000000006</ele><time>2026-04-27T16:35:18Z</time></trkpt><trkpt lat="42.265767357722716" lon="13.740849949670713"><ele>487.00000000000006</ele><time>2026-04-27T16:35:19Z</time></trkpt><trkpt lat="42.26568922091904" lon="13.740920198051887"><ele>487.0</ele><time>2026-04-27T16:35:20Z</time></trkpt><trkpt lat="42.26561659337304" lon="13.740943145394503"><ele>487.0</ele><time>2026-04-27T16:35:21Z</time></trkpt><trkpt lat="42.26551956843113" lon="13.740971338538742"><ele>487.0</ele><time>2026-04-27T16:35:22Z</time></trkpt><trkpt lat="42.26541330836743" lon="13.740994044100129"><ele>487.00000000000006</ele><time>2026-04-27T16:35:23Z</time></trkpt><trkpt lat="42.26532112839348" lon="13.741006059601782"><ele>487.00000000000006</ele><time>2026-04-27T16:35:24Z</time></trkpt><trkpt lat="42.26523274771247" lon="13.741004060248326"><ele>487.0</ele><time>2026-04-27T16:35:25Z</time></trkpt><trkpt lat="42.265116259988346" lon="13.740988548026499"><ele>487.0</ele><time>2026-04-27T16:35:26Z</time></trkpt><trkpt lat="42.26501563125266" lon="13.740950562823228"><ele>487.0</ele><time>2026-04-27T16:35:27Z</time></trkpt><trkpt lat="42.26491731048878" lon="13.740935060430782"><ele>487.00000000000006</ele><time>2026-04-27T16:35:28Z</time></trkpt><trkpt lat="42.26482280147215" lon="13.740953165323777"><ele>487.00000000000006</ele><time>2026-04-27T16:35:29Z</time></trkpt><trkpt lat="42.26472780530218" lon="13.74099197054413"><ele>487.0</ele><time>2026-04-27T16:35:30Z</time></trkpt><trkpt lat="42.26463279359591" lon="13.741039323064555"><ele>487.0</ele><time>2026-04-27T16:35:31Z</time></trkpt><trkpt lat="42.26453435349997" lon="13.741112741945642"><ele>484.40000000000003</ele><time>2026-04-27T16:35:32Z</time></trkpt><trkpt lat="42.26443708682906" lon="13.741175308248819"><ele>481.80000000000007</ele><time>2026-04-27T16:35:33Z</time></trkpt><trkpt lat="42.264339305680814" lon="13.741206126342995"><ele>479.2</ele><time>2026-04-27T16:35:34Z</time></trkpt><trkpt lat="42.2642462108582" lon="13.741223738081858"><ele>476.6</ele><time>2026-04-27T16:35:35Z</time></trkpt><trkpt lat="42.26415141677314" lon="13.741244537561881"><ele>474.0</ele><time>2026-04-27T16:35:36Z</time></trkpt><trkpt lat="42.2640506465072" lon="13.741249833682096"><ele>474.0</ele><time>2026-04-27T16:35:37Z</time></trkpt><trkpt lat="42.26393994342859" lon="13.741239472470774"><ele>474.0</ele><time>2026-04-27T16:35:38Z</time></trkpt><trkpt lat="42.26382412530452" lon="13.741236148349364"><ele>474.0</ele><time>2026-04-27T16:35:39Z</time></trkpt><trkpt lat="42.26372053431666" lon="13.7412360244879"><ele>474.0</ele><time>2026-04-27T16:35:40Z</time></trkpt><trkpt lat="42.26363797463836" lon="13.741224289146007"><ele>474.0</ele><time>2026-04-27T16:35:41Z</time></trkpt><trkpt lat="42.2635712089174" lon="13.741235135919213"><ele>474.0</ele><time>2026-04-27T16:35:42Z</time></trkpt><trkpt lat="42.263487719546006" lon="13.741357571546983"><ele>474.0</ele><time>2026-04-27T16:35:44Z</time></trkpt><trkpt lat="42.26344216002902" lon="13.741437931496206"><ele>474.0</ele><time>2026-04-27T16:35:45Z</time></trkpt><trkpt lat="42.263391025300045" lon="13.741497308547107"><ele>474.0</ele><time>2026-04-27T16:35:46Z</time></trkpt><trkpt lat="42.26335636039521" lon="13.741650669225251"><ele>474.0</ele><time>2026-04-27T16:35:48Z</time></trkpt><trkpt lat="42.26329542835595" lon="13.741734776723474"><ele>474.0</ele><time>2026-04-27T16:35:50Z</time></trkpt><trkpt lat="42.263226974689026" lon="13.741741487220178"><ele>474.0</ele><time>2026-04-27T16:35:51Z</time></trkpt><trkpt lat="42.26315887547984" lon="13.74176802823773"><ele>474.0</ele><time>2026-04-27T16:35:52Z</time></trkpt><trkpt lat="42.263135485422374" lon="13.741904253175992"><ele>474.0</ele><time>2026-04-27T16:35:54Z</time></trkpt><trkpt lat="42.26316489520549" lon="13.741994941585862"><ele>474.0</ele><time>2026-04-27T16:35:55Z</time></trkpt><trkpt lat="42.26318782402613" lon="13.742084194687045"><ele>474.0</ele><time>2026-04-27T16:35:56Z</time></trkpt><trkpt lat="42.26314774393767" lon="13.742197717235193"><ele>472.0</ele><time>2026-04-27T16:35:58Z</time></trkpt><trkpt lat="42.263130443907016" lon="13.742364734996436"><ele>470.0</ele><time>2026-04-27T16:36:00Z</time></trkpt><trkpt lat="42.26312450044389" lon="13.74245731305395"><ele>468.0</ele><time>2026-04-27T16:36:01Z</time></trkpt><trkpt lat="42.26310428843984" lon="13.74254703088234"><ele>466.0</ele><time>2026-04-27T16:36:02Z</time></trkpt><trkpt lat="42.263040824019264" lon="13.742674133947311"><ele>464.0</ele><time>2026-04-27T16:36:04Z</time></trkpt><trkpt lat="42.2629797893411" lon="13.742771381250186"><ele>462.8333333333333</ele><time>2026-04-27T16:36:06Z</time></trkpt><trkpt lat="42.262918262574225" lon="13.742790327527661"><ele>461.66666666666663</ele><time>2026-04-27T16:36:07Z</time></trkpt><trkpt lat="42.26285394169868" lon="13.742804377866621"><ele>460.5</ele><time>2026-04-27T16:36:08Z</time></trkpt><trkpt lat="42.262752987613815" lon="13.742857470002969"><ele>459.33333333333337</ele><time>2026-04-27T16:36:10Z</time></trkpt><trkpt lat="42.2626977358664" lon="13.74290027706034"><ele>458.1666666666667</ele><time>2026-04-27T16:36:11Z</time></trkpt><trkpt lat="42.26262132894" lon="13.742965228864215"><ele>457.0</ele><time>2026-04-27T16:36:12Z</time></trkpt><trkpt lat="42.26253756048047" lon="13.743026432473426"><ele>457.00000000000006</ele><time>2026-04-27T16:36:13Z</time></trkpt><trkpt lat="42.262465852436094" lon="13.743075693139767"><ele>457.0</ele><time>2026-04-27T16:36:14Z</time></trkpt><trkpt lat="42.26240410717681" lon="13.743097148847555"><ele>457.0</ele><time>2026-04-27T16:36:15Z</time></trkpt><trkpt lat="42.262338987882025" lon="13.743121235890463"><ele>457.0</ele><time>2026-04-27T16:36:16Z</time></trkpt><trkpt lat="42.262279455075664" lon="13.743177535177804"><ele>457.00000000000006</ele><time>2026-04-27T16:36:17Z</time></trkpt><trkpt lat="42.26223521189847" lon="13.743268233909902"><ele>457.0</ele><time>2026-04-27T16:36:18Z</time></trkpt><trkpt lat="42.262195685987194" lon="13.743398364484573"><ele>457.0</ele><time>2026-04-27T16:36:19Z</time></trkpt><trkpt lat="42.26216701674997" lon="13.743518924284071"><ele>457.00000000000006</ele><time>2026-04-27T16:36:20Z</time></trkpt><trkpt lat="42.26213444660369" lon="13.743605671040612"><ele>457.00000000000006</ele><time>2026-04-27T16:36:21Z</time></trkpt><trkpt lat="42.26209557954955" lon="13.743691432106507"><ele>457.0</ele><time>2026-04-27T16:36:23Z</time></trkpt><trkpt lat="42.26217957370767" lon="13.7438115553863"><ele>457.0</ele><time>2026-04-27T16:36:25Z</time></trkpt><trkpt lat="42.26224508059034" lon="13.743906965132558"><ele>456.20000000000005</ele><time>2026-04-27T16:36:26Z</time></trkpt><trkpt lat="42.262312252976045" lon="13.743978816659217"><ele>455.40000000000003</ele><time>2026-04-27T16:36:27Z</time></trkpt><trkpt lat="42.262384720929106" lon="13.744005655997837"><ele>454.59999999999997</ele><time>2026-04-27T16:36:28Z</time></trkpt><trkpt lat="42.26248528644972" lon="13.743996980400434"><ele>453.79999999999995</ele><time>2026-04-27T16:36:29Z</time></trkpt><trkpt lat="42.262622730997855" lon="13.743975816540312"><ele>453.0</ele><time>2026-04-27T16:36:30Z</time></trkpt><trkpt lat="42.26275301872946" lon="13.743955294006458"><ele>453.0</ele><time>2026-04-27T16:36:31Z</time></trkpt><trkpt lat="42.26287752620329" lon="13.743936899410786"><ele>453.0</ele><time>2026-04-27T16:36:32Z</time></trkpt><trkpt lat="42.262993408122206" lon="13.74392925448339"><ele>453.0</ele><time>2026-04-27T16:36:33Z</time></trkpt><trkpt lat="42.263099808911775" lon="13.743924564645708"><ele>453.0</ele><time>2026-04-27T16:36:34Z</time></trkpt><trkpt lat="42.26320195279263" lon="13.743914789047402"><ele>452.25</ele><time>2026-04-27T16:36:35Z</time></trkpt><trkpt lat="42.263324984863715" lon="13.743907282745543"><ele>451.5</ele><time>2026-04-27T16:36:36Z</time></trkpt><trkpt lat="42.263463176060036" lon="13.743909655107966"><ele>450.75</ele><time>2026-04-27T16:36:37Z</time></trkpt><trkpt lat="42.263610001956565" lon="13.743927475823055"><ele>450.0</ele><time>2026-04-27T16:36:38Z</time></trkpt><trkpt lat="42.26376557003815" lon="13.743968637093817"><ele>450.0</ele><time>2026-04-27T16:36:39Z</time></trkpt><trkpt lat="42.26392301624842" lon="13.744016541653776"><ele>450.0</ele><time>2026-04-27T16:36:40Z</time></trkpt><trkpt lat="42.264079312955666" lon="13.744043438041501"><ele>450.0</ele><time>2026-04-27T16:36:41Z</time></trkpt><trkpt lat="42.26421054933419" lon="13.74405951936617"><ele>449.6</ele><time>2026-04-27T16:36:42Z</time></trkpt><trkpt lat="42.26432919954831" lon="13.744081562431042"><ele>449.2</ele><time>2026-04-27T16:36:43Z</time></trkpt><trkpt lat="42.26443627262519" lon="13.744101717704845"><ele>448.79999999999995</ele><time>2026-04-27T16:36:44Z</time></trkpt><trkpt lat="42.26453609919607" lon="13.74409866849219"><ele>448.4</ele><time>2026-04-27T16:36:45Z</time></trkpt><trkpt lat="42.264643607857565" lon="13.74407148872582"><ele>448.0</ele><time>2026-04-27T16:36:46Z</time></trkpt><trkpt lat="42.26476073843644" lon="13.744021772888631"><ele>448.0</ele><time>2026-04-27T16:36:47Z</time></trkpt><trkpt lat="42.264877574232735" lon="13.743942773877299"><ele>448.0</ele><time>2026-04-27T16:36:48Z</time></trkpt><trkpt lat="42.2649876390336" lon="13.743827779909127"><ele>448.0</ele><time>2026-04-27T16:36:49Z</time></trkpt><trkpt lat="42.2651041709583" lon="13.74371840636167"><ele>448.0</ele><time>2026-04-27T16:36:50Z</time></trkpt><trkpt lat="42.26522651807848" lon="13.743642313983884"><ele>448.0</ele><time>2026-04-27T16:36:51Z</time></trkpt><trkpt lat="42.26534094149311" lon="13.743585213645112"><ele>448.0</ele><time>2026-04-27T16:36:52Z</time></trkpt><trkpt lat="42.265458193102404" lon="13.74353027155759"><ele>448.0</ele><time>2026-04-27T16:36:53Z</time></trkpt><trkpt lat="42.26557661486338" lon="13.743500921502486"><ele>448.0</ele><time>2026-04-27T16:36:54Z</time></trkpt><trkpt lat="42.26570361153727" lon="13.743505954736088"><ele>448.0</ele><time>2026-04-27T16:36:55Z</time></trkpt><trkpt lat="42.265843180946355" lon="13.743522140981984"><ele>448.0</ele><time>2026-04-27T16:36:56Z</time></trkpt><trkpt lat="42.26598419932706" lon="13.743521494545023"><ele>448.0</ele><time>2026-04-27T16:36:57Z</time></trkpt><trkpt lat="42.26611839644699" lon="13.743507731293482"><ele>448.0</ele><time>2026-04-27T16:36:58Z</time></trkpt><trkpt lat="42.266233482616904" lon="13.743507592415646"><ele>448.0</ele><time>2026-04-27T16:36:59Z</time></trkpt><trkpt lat="42.266362147647264" lon="13.743541915465503"><ele>448.0</ele><time>2026-04-27T16:37:00Z</time></trkpt><trkpt lat="42.26649703512319" lon="13.74358751520644"><ele>448.0</ele><time>2026-04-27T16:37:01Z</time></trkpt><trkpt lat="42.26663547705679" lon="13.743604383235295"><ele>448.0</ele><time>2026-04-27T16:37:02Z</time></trkpt><trkpt lat="42.266757622977" lon="13.743603206661346"><ele>447.5</ele><time>2026-04-27T16:37:03Z</time></trkpt><trkpt lat="42.266869297101096" lon="13.743585229773425"><ele>447.0</ele><time>2026-04-27T16:37:04Z</time></trkpt><trkpt lat="42.26697929842656" lon="13.743544265124918"><ele>446.5</ele><time>2026-04-27T16:37:05Z</time></trkpt><trkpt lat="42.26709942382071" lon="13.743474433180097"><ele>446.0</ele><time>2026-04-27T16:37:06Z</time></trkpt><trkpt lat="42.267227029954846" lon="13.743405910351447"><ele>444.6</ele><time>2026-04-27T16:37:07Z</time></trkpt><trkpt lat="42.26733862964591" lon="13.743377253321075"><ele>443.20000000000005</ele><time>2026-04-27T16:37:08Z</time></trkpt><trkpt lat="42.26743838304218" lon="13.743377129539295"><ele>441.79999999999995</ele><time>2026-04-27T16:37:09Z</time></trkpt><trkpt lat="42.26752694651899" lon="13.743369847773565"><ele>440.4</ele><time>2026-04-27T16:37:10Z</time></trkpt><trkpt lat="42.26760918742344" lon="13.743349473922182"><ele>439.0</ele><time>2026-04-27T16:37:11Z</time></trkpt><trkpt lat="42.267685513245524" lon="13.743363794072573"><ele>439.0</ele><time>2026-04-27T16:37:12Z</time></trkpt><trkpt lat="42.267791147551364" lon="13.743399643283327"><ele>439.0</ele><time>2026-04-27T16:37:13Z</time></trkpt><trkpt lat="42.267905696123485" lon="13.74345450989645"><ele>439.0</ele><time>2026-04-27T16:37:14Z</time></trkpt><trkpt lat="42.26803082259311" lon="13.743525056207623"><ele>439.0</ele><time>2026-04-27T16:37:15Z</time></trkpt><trkpt lat="42.268145726567724" lon="13.74361157603901"><ele>440.0</ele><time>2026-04-27T16:37:16Z</time></trkpt><trkpt lat="42.268241368621695" lon="13.743682993898014"><ele>441.0</ele><time>2026-04-27T16:37:17Z</time></trkpt><trkpt lat="42.268332977968036" lon="13.74373708401159"><ele>442.0</ele><time>2026-04-27T16:37:18Z</time></trkpt><trkpt lat="42.26841582195704" lon="13.743758800232218"><ele>443.0</ele><time>2026-04-27T16:37:19Z</time></trkpt><trkpt lat="42.26852413997907" lon="13.74376735313813"><ele>444.0</ele><time>2026-04-27T16:37:20Z</time></trkpt><trkpt lat="42.26862132415755" lon="13.743785764483357"><ele>444.0</ele><time>2026-04-27T16:37:21Z</time></trkpt><trkpt lat="42.268709639693554" lon="13.743797559208355"><ele>444.0</ele><time>2026-04-27T16:37:22Z</time></trkpt><trkpt lat="42.26878005963063" lon="13.74377493532951"><ele>444.0</ele><time>2026-04-27T16:37:23Z</time></trkpt><trkpt lat="42.26885755283923" lon="13.74371482674343"><ele>444.0</ele><time>2026-04-27T16:37:24Z</time></trkpt><trkpt lat="42.268936779040004" lon="13.743622497345193"><ele>444.0</ele><time>2026-04-27T16:37:25Z</time></trkpt><trkpt lat="42.26901040585936" lon="13.743539112895842"><ele>442.5</ele><time>2026-04-27T16:37:26Z</time></trkpt><trkpt lat="42.26905893902482" lon="13.743454738529822"><ele>441.0</ele><time>2026-04-27T16:37:27Z</time></trkpt><trkpt lat="42.269076130926436" lon="13.743370530773287"><ele>439.5</ele><time>2026-04-27T16:37:28Z</time></trkpt><trkpt lat="42.269105557993235" lon="13.743280431382125"><ele>438.0</ele><time>2026-04-27T16:37:29Z</time></trkpt><trkpt lat="42.26916158008131" lon="13.743225207776495"><ele>436.5</ele><time>2026-04-27T16:37:30Z</time></trkpt><trkpt lat="42.269235659641026" lon="13.743211408591423"><ele>435.0</ele><time>2026-04-27T16:37:31Z</time></trkpt><trkpt lat="42.26933224250698" lon="13.74320274511477"><ele>435.0</ele><time>2026-04-27T16:37:32Z</time></trkpt><trkpt lat="42.26944297403284" lon="13.743205683902357"><ele>435.0</ele><time>2026-04-27T16:37:33Z</time></trkpt><trkpt lat="42.269544677749344" lon="13.743215496217504"><ele>435.0</ele><time>2026-04-27T16:37:34Z</time></trkpt><trkpt lat="42.269647213470144" lon="13.743267527799912"><ele>435.0</ele><time>2026-04-27T16:37:35Z</time></trkpt><trkpt lat="42.26976673784534" lon="13.743336532958606"><ele>434.75</ele><time>2026-04-27T16:37:36Z</time></trkpt><trkpt lat="42.26987725754255" lon="13.743408350020355"><ele>434.5</ele><time>2026-04-27T16:37:37Z</time></trkpt><trkpt lat="42.2699801420561" lon="13.743491722627217"><ele>434.25</ele><time>2026-04-27T16:37:38Z</time></trkpt><trkpt lat="42.27007629414725" lon="13.743584942873964"><ele>434.0</ele><time>2026-04-27T16:37:39Z</time></trkpt><trkpt lat="42.270183209468634" lon="13.743673612052188"><ele>432.5</ele><time>2026-04-27T16:37:40Z</time></trkpt><trkpt lat="42.27030360919737" lon="13.743748181761447"><ele>431.0</ele><time>2026-04-27T16:37:41Z</time></trkpt><trkpt lat="42.27041404075298" lon="13.743825794077456"><ele>429.5</ele><time>2026-04-27T16:37:42Z</time></trkpt><trkpt lat="42.270504196279276" lon="13.743881064550715"><ele>428.0</ele><time>2026-04-27T16:37:43Z</time></trkpt><trkpt lat="42.27060156049758" lon="13.743906930329475"><ele>427.8333333333333</ele><time>2026-04-27T16:37:44Z</time></trkpt><trkpt lat="42.270692252710035" lon="13.74392701648529"><ele>427.66666666666663</ele><time>2026-04-27T16:37:45Z</time></trkpt><trkpt lat="42.27078195183432" lon="13.743966297210505"><ele>427.5</ele><time>2026-04-27T16:37:46Z</time></trkpt><trkpt lat="42.270866407380886" lon="13.744034473845346"><ele>427.33333333333337</ele><time>2026-04-27T16:37:47Z</time></trkpt><trkpt lat="42.27092062022894" lon="13.744111028868643"><ele>427.1666666666667</ele><time>2026-04-27T16:37:48Z</time></trkpt><trkpt lat="42.27094057992677" lon="13.744207242531397"><ele>427.0</ele><time>2026-04-27T16:37:50Z</time></trkpt><trkpt lat="42.270931396635966" lon="13.744367068655032"><ele>426.40000000000003</ele><time>2026-04-27T16:37:52Z</time></trkpt><trkpt lat="42.27096183485394" lon="13.744461457343295"><ele>425.80000000000007</ele><time>2026-04-27T16:37:53Z</time></trkpt><trkpt lat="42.27098145817763" lon="13.74458427929953"><ele>425.2</ele><time>2026-04-27T16:37:54Z</time></trkpt><trkpt lat="42.27103068066477" lon="13.744698445839015"><ele>424.6</ele><time>2026-04-27T16:37:55Z</time></trkpt><trkpt lat="42.27110315466746" lon="13.744827898732748"><ele>424.0</ele><time>2026-04-27T16:37:56Z</time></trkpt><trkpt lat="42.2711693399585" lon="13.744983632803919"><ele>424.0</ele><time>2026-04-27T16:37:57Z</time></trkpt><trkpt lat="42.27124431857649" lon="13.745133353944514"><ele>424.0</ele><time>2026-04-27T16:37:58Z</time></trkpt><trkpt lat="42.27131419424424" lon="13.74527288525284"><ele>424.0</ele><time>2026-04-27T16:37:59Z</time></trkpt><trkpt lat="42.27137122937126" lon="13.74539873257783"><ele>424.0</ele><time>2026-04-27T16:38:00Z</time></trkpt><trkpt lat="42.27140309050093" lon="13.74553084326627"><ele>423.79999999999995</ele><time>2026-04-27T16:38:01Z</time></trkpt><trkpt lat="42.27141852808157" lon="13.74564991607045"><ele>423.59999999999997</ele><time>2026-04-27T16:38:02Z</time></trkpt><trkpt lat="42.27142904497834" lon="13.745757444036338"><ele>423.4</ele><time>2026-04-27T16:38:03Z</time></trkpt><trkpt lat="42.27144293996422" lon="13.745897868661299"><ele>423.2</ele><time>2026-04-27T16:38:04Z</time></trkpt><trkpt lat="42.27146474390638" lon="13.746042084353398"><ele>423.0</ele><time>2026-04-27T16:38:05Z</time></trkpt><trkpt lat="42.271515262001785" lon="13.746206191664095"><ele>423.0</ele><time>2026-04-27T16:38:06Z</time></trkpt><trkpt lat="42.27155943697444" lon="13.746350981172913"><ele>423.0</ele><time>2026-04-27T16:38:07Z</time></trkpt><trkpt lat="42.27161717385718" lon="13.74650817943411"><ele>423.0</ele><time>2026-04-27T16:38:08Z</time></trkpt><trkpt lat="42.271683490945975" lon="13.746682872860134"><ele>423.0</ele><time>2026-04-27T16:38:09Z</time></trkpt><trkpt lat="42.27177247055999" lon="13.74684729128949"><ele>425.0</ele><time>2026-04-27T16:38:10Z</time></trkpt><trkpt lat="42.271848665800306" lon="13.74700788999034"><ele>427.0</ele><time>2026-04-27T16:38:11Z</time></trkpt><trkpt lat="42.27192210690018" lon="13.747143470393008"><ele>429.0</ele><time>2026-04-27T16:38:12Z</time></trkpt><trkpt lat="42.272004751250144" lon="13.747264463083633"><ele>431.0</ele><time>2026-04-27T16:38:13Z</time></trkpt><trkpt lat="42.272084165440255" lon="13.74740655643803"><ele>431.0</ele><time>2026-04-27T16:38:14Z</time></trkpt><trkpt lat="42.272171375761545" lon="13.747565358108345"><ele>431.0</ele><time>2026-04-27T16:38:15Z</time></trkpt><trkpt lat="42.27225189923874" lon="13.747714205937433"><ele>431.0</ele><time>2026-04-27T16:38:16Z</time></trkpt><trkpt lat="42.27232223676737" lon="13.747819580915646"><ele>431.0</ele><time>2026-04-27T16:38:17Z</time></trkpt><trkpt lat="42.27238890143667" lon="13.747884829871936"><ele>430.0</ele><time>2026-04-27T16:38:18Z</time></trkpt><trkpt lat="42.27244937638143" lon="13.747915309403393"><ele>429.0</ele><time>2026-04-27T16:38:19Z</time></trkpt><trkpt lat="42.272537473467686" lon="13.747984963092572"><ele>428.0</ele><time>2026-04-27T16:38:20Z</time></trkpt><trkpt lat="42.27264247412842" lon="13.748087774616415"><ele>427.0</ele><time>2026-04-27T16:38:21Z</time></trkpt><trkpt lat="42.27274858791012" lon="13.74821052210082"><ele>426.0</ele><time>2026-04-27T16:38:22Z</time></trkpt><trkpt lat="42.27286218961313" lon="13.748354017659528"><ele>426.0</ele><time>2026-04-27T16:38:23Z</time></trkpt><trkpt lat="42.272965077902384" lon="13.74850955463763"><ele>426.0</ele><time>2026-04-27T16:38:24Z</time></trkpt><trkpt lat="42.273061922908205" lon="13.748656120044545"><ele>426.0</ele><time>2026-04-27T16:38:25Z</time></trkpt><trkpt lat="42.27316405672803" lon="13.74877431335678"><ele>426.0</ele><time>2026-04-27T16:38:26Z</time></trkpt><trkpt lat="42.27326910778667" lon="13.748896460079003"><ele>424.25</ele><time>2026-04-27T16:38:27Z</time></trkpt><trkpt lat="42.27336466345527" lon="13.74900233471396"><ele>422.5</ele><time>2026-04-27T16:38:28Z</time></trkpt><trkpt lat="42.27347949825109" lon="13.749128405500814"><ele>420.75</ele><time>2026-04-27T16:38:29Z</time></trkpt><trkpt lat="42.27359824194081" lon="13.749235080014431"><ele>419.0</ele><time>2026-04-27T16:38:30Z</time></trkpt><trkpt lat="42.2737221491955" lon="13.749312385043153"><ele>419.0</ele><time>2026-04-27T16:38:31Z</time></trkpt><trkpt lat="42.27382793017606" lon="13.749383727286542"><ele>419.0</ele><time>2026-04-27T16:38:32Z</time></trkpt><trkpt lat="42.2738887021771" lon="13.749467843227835"><ele>419.0</ele><time>2026-04-27T16:38:33Z</time></trkpt><trkpt lat="42.27392830332328" lon="13.749541539015668"><ele>419.0</ele><time>2026-04-27T16:38:34Z</time></trkpt><trkpt lat="42.2739187149434" lon="13.749697131644682"><ele>419.0</ele><time>2026-04-27T16:38:36Z</time></trkpt><trkpt lat="42.273889692898145" lon="13.749795967505547"><ele>419.0</ele><time>2026-04-27T16:38:37Z</time></trkpt><trkpt lat="42.27383856696901" lon="13.749931755193666"><ele>419.0</ele><time>2026-04-27T16:38:38Z</time></trkpt><trkpt lat="42.27379581153256" lon="13.750084880094434"><ele>419.0</ele><time>2026-04-27T16:38:39Z</time></trkpt><trkpt lat="42.27371290119567" lon="13.750243152082337"><ele>419.0</ele><time>2026-04-27T16:38:40Z</time></trkpt><trkpt lat="42.27366519396074" lon="13.750409433309388"><ele>419.0</ele><time>2026-04-27T16:38:41Z</time></trkpt><trkpt lat="42.27361787030506" lon="13.750521225561481"><ele>419.0</ele><time>2026-04-27T16:38:42Z</time></trkpt><trkpt lat="42.273600246218315" lon="13.750684802561512"><ele>419.0</ele><time>2026-04-27T16:38:44Z</time></trkpt><trkpt lat="42.273624239224844" lon="13.750809464359"><ele>419.0</ele><time>2026-04-27T16:38:45Z</time></trkpt><trkpt lat="42.273681245304466" lon="13.750946390351817"><ele>419.0</ele><time>2026-04-27T16:38:46Z</time></trkpt><trkpt lat="42.27374813909434" lon="13.75106972107877"><ele>418.6</ele><time>2026-04-27T16:38:47Z</time></trkpt><trkpt lat="42.27381215567848" lon="13.751165663988628"><ele>418.2</ele><time>2026-04-27T16:38:48Z</time></trkpt><trkpt lat="42.27389327530254" lon="13.751209617506678"><ele>417.8</ele><time>2026-04-27T16:38:49Z</time></trkpt><trkpt lat="42.27396123087442" lon="13.751228219740335"><ele>417.40000000000003</ele><time>2026-04-27T16:38:50Z</time></trkpt><trkpt lat="42.274051483762484" lon="13.751205388116658"><ele>417.0</ele><time>2026-04-27T16:38:51Z</time></trkpt><trkpt lat="42.274151574954026" lon="13.751154941441621"><ele>416.75</ele><time>2026-04-27T16:38:52Z</time></trkpt><trkpt lat="42.274276343549154" lon="13.751080719520775"><ele>416.5</ele><time>2026-04-27T16:38:53Z</time></trkpt><trkpt lat="42.27440949350189" lon="13.751021996515234"><ele>416.25</ele><time>2026-04-27T16:38:54Z</time></trkpt><trkpt lat="42.27454725118543" lon="13.750990774178392"><ele>416.0</ele><time>2026-04-27T16:38:55Z</time></trkpt><trkpt lat="42.274663240345156" lon="13.75097656284789"><ele>415.0</ele><time>2026-04-27T16:38:56Z</time></trkpt><trkpt lat="42.27479607729292" lon="13.750967699738194"><ele>414.0</ele><time>2026-04-27T16:38:57Z</time></trkpt><trkpt lat="42.274944300514285" lon="13.750969472621351"><ele>413.0</ele><time>2026-04-27T16:38:58Z</time></trkpt><trkpt lat="42.27509857881765" lon="13.750976536525886"><ele>412.0</ele><time>2026-04-27T16:38:59Z</time></trkpt><trkpt lat="42.27525943523495" lon="13.75098793656369"><ele>412.0</ele><time>2026-04-27T16:39:00Z</time></trkpt><trkpt lat="42.27540587544174" lon="13.750999192788067"><ele>412.0</ele><time>2026-04-27T16:39:01Z</time></trkpt><trkpt lat="42.27553898005623" lon="13.751009423969196"><ele>412.0</ele><time>2026-04-27T16:39:02Z</time></trkpt><trkpt lat="42.275665254358934" lon="13.751017461023052"><ele>412.0</ele><time>2026-04-27T16:39:03Z</time></trkpt><trkpt lat="42.27579713857276" lon="13.751005086812382"><ele>411.40000000000003</ele><time>2026-04-27T16:39:04Z</time></trkpt><trkpt lat="42.27591560404937" lon="13.751036580526998"><ele>410.8</ele><time>2026-04-27T16:39:05Z</time></trkpt><trkpt lat="42.27602359700937" lon="13.75106069181069"><ele>410.2</ele><time>2026-04-27T16:39:06Z</time></trkpt><trkpt lat="42.27610648486808" lon="13.751118869347437"><ele>409.6</ele><time>2026-04-27T16:39:07Z</time></trkpt><trkpt lat="42.27616939169906" lon="13.75120625846577"><ele>409.0</ele><time>2026-04-27T16:39:08Z</time></trkpt><trkpt lat="42.2762506412577" lon="13.751321753509544"><ele>408.0</ele><time>2026-04-27T16:39:09Z</time></trkpt><trkpt lat="42.27634172158485" lon="13.751443177798137"><ele>407.0</ele><time>2026-04-27T16:39:10Z</time></trkpt><trkpt lat="42.27644455100798" lon="13.751545449480295"><ele>406.0</ele><time>2026-04-27T16:39:11Z</time></trkpt><trkpt lat="42.27654606694746" lon="13.751600357678873"><ele>405.0</ele><time>2026-04-27T16:39:12Z</time></trkpt><trkpt lat="42.276641520548395" lon="13.751651768780778"><ele>404.25</ele><time>2026-04-27T16:39:13Z</time></trkpt><trkpt lat="42.27676049854455" lon="13.751691666432158"><ele>403.5</ele><time>2026-04-27T16:39:14Z</time></trkpt><trkpt lat="42.276884083883026" lon="13.751710147171087"><ele>402.75</ele><time>2026-04-27T16:39:15Z</time></trkpt><trkpt lat="42.276988986229014" lon="13.751770215842669"><ele>402.0</ele><time>2026-04-27T16:39:16Z</time></trkpt><trkpt lat="42.27709844324975" lon="13.751777011162797"><ele>402.0</ele><time>2026-04-27T16:39:17Z</time></trkpt><trkpt lat="42.27721658509757" lon="13.751804527731778"><ele>402.0</ele><time>2026-04-27T16:39:18Z</time></trkpt><trkpt lat="42.277318755684156" lon="13.751806585227234"><ele>402.0</ele><time>2026-04-27T16:39:19Z</time></trkpt><trkpt lat="42.277409080777986" lon="13.751831463445457"><ele>402.0</ele><time>2026-04-27T16:39:20Z</time></trkpt><trkpt lat="42.2774853094345" lon="13.751871484351915"><ele>402.0</ele><time>2026-04-27T16:39:21Z</time></trkpt><trkpt lat="42.27761184782829" lon="13.751993687787454"><ele>403.0</ele><time>2026-04-27T16:39:23Z</time></trkpt><trkpt lat="42.27770252454231" lon="13.752009210593904"><ele>404.0</ele><time>2026-04-27T16:39:24Z</time></trkpt><trkpt lat="42.2778216480544" lon="13.752046820134897"><ele>405.0</ele><time>2026-04-27T16:39:25Z</time></trkpt><trkpt lat="42.277947240619596" lon="13.752091829375653"><ele>406.0</ele><time>2026-04-27T16:39:26Z</time></trkpt><trkpt lat="42.27808869449478" lon="13.7521381335152"><ele>405.0</ele><time>2026-04-27T16:39:27Z</time></trkpt><trkpt lat="42.27823541769089" lon="13.75216073032384"><ele>404.0</ele><time>2026-04-27T16:39:28Z</time></trkpt><trkpt lat="42.278380899611605" lon="13.752181982931935"><ele>403.0</ele><time>2026-04-27T16:39:29Z</time></trkpt><trkpt lat="42.27852390236063" lon="13.75217868167078"><ele>402.0</ele><time>2026-04-27T16:39:30Z</time></trkpt><trkpt lat="42.27867312751631" lon="13.752177366273935"><ele>402.0</ele><time>2026-04-27T16:39:31Z</time></trkpt><trkpt lat="42.27882270029743" lon="13.752184176449992"><ele>402.0</ele><time>2026-04-27T16:39:32Z</time></trkpt><trkpt lat="42.27898002906932" lon="13.752193029240248"><ele>402.0</ele><time>2026-04-27T16:39:33Z</time></trkpt><trkpt lat="42.279134481415205" lon="13.752190281730629"><ele>400.66666666666663</ele><time>2026-04-27T16:39:34Z</time></trkpt><trkpt lat="42.2792845642278" lon="13.752185143274184"><ele>399.3333333333333</ele><time>2026-04-27T16:39:35Z</time></trkpt><trkpt lat="42.27944026205457" lon="13.752179210762396"><ele>398.0</ele><time>2026-04-27T16:39:36Z</time></trkpt><trkpt lat="42.27959934807417" lon="13.752178605258196"><ele>398.0</ele><time>2026-04-27T16:39:37Z</time></trkpt><trkpt lat="42.27974501880542" lon="13.752168541679017"><ele>398.0</ele><time>2026-04-27T16:39:38Z</time></trkpt><trkpt lat="42.279890175838055" lon="13.752165309821649"><ele>398.0</ele><time>2026-04-27T16:39:39Z</time></trkpt><trkpt lat="42.28005250219587" lon="13.75216714462749"><ele>396.25</ele><time>2026-04-27T16:39:40Z</time></trkpt><trkpt lat="42.28019048550048" lon="13.752166046547497"><ele>394.5</ele><time>2026-04-27T16:39:41Z</time></trkpt><trkpt lat="42.28033626960683" lon="13.752190020082617"><ele>392.75</ele><time>2026-04-27T16:39:42Z</time></trkpt><trkpt lat="42.28047163525293" lon="13.752231377704252"><ele>391.0</ele><time>2026-04-27T16:39:43Z</time></trkpt><trkpt lat="42.280607587168284" lon="13.752311439124345"><ele>390.5</ele><time>2026-04-27T16:39:44Z</time></trkpt><trkpt lat="42.280743195863835" lon="13.752385902996524"><ele>390.0</ele><time>2026-04-27T16:39:45Z</time></trkpt><trkpt lat="42.280871715564714" lon="13.752487104953932"><ele>389.5</ele><time>2026-04-27T16:39:46Z</time></trkpt><trkpt lat="42.280997450745836" lon="13.752595860642309"><ele>389.0</ele><time>2026-04-27T16:39:47Z</time></trkpt><trkpt lat="42.28112550413315" lon="13.752718123795361"><ele>389.0</ele><time>2026-04-27T16:39:48Z</time></trkpt><trkpt lat="42.28125175688622" lon="13.752858279732193"><ele>389.0</ele><time>2026-04-27T16:39:49Z</time></trkpt><trkpt lat="42.28137805346909" lon="13.7530033392595"><ele>389.0</ele><time>2026-04-27T16:39:50Z</time></trkpt><trkpt lat="42.28150629011533" lon="13.753154103930655"><ele>389.0</ele><time>2026-04-27T16:39:51Z</time></trkpt><trkpt lat="42.28162913872963" lon="13.753297734298439"><ele>389.0</ele><time>2026-04-27T16:39:52Z</time></trkpt><trkpt lat="42.281758913361685" lon="13.753439969999015"><ele>389.0</ele><time>2026-04-27T16:39:53Z</time></trkpt><trkpt lat="42.28190286974552" lon="13.753562246377196"><ele>389.66666666666663</ele><time>2026-04-27T16:39:54Z</time></trkpt><trkpt lat="42.28201723454988" lon="13.753684796156445"><ele>390.33333333333337</ele><time>2026-04-27T16:39:55Z</time></trkpt><trkpt lat="42.28215196584791" lon="13.753795765851924"><ele>391.0</ele><time>2026-04-27T16:39:56Z</time></trkpt><trkpt lat="42.28229765788344" lon="13.753888961913958"><ele>391.0</ele><time>2026-04-27T16:39:57Z</time></trkpt><trkpt lat="42.282455596571445" lon="13.7539899126028"><ele>391.0</ele><time>2026-04-27T16:39:58Z</time></trkpt><trkpt lat="42.28260763654719" lon="13.754088487187703"><ele>391.0</ele><time>2026-04-27T16:39:59Z</time></trkpt><trkpt lat="42.28278145214309" lon="13.754190155175653"><ele>391.0</ele><time>2026-04-27T16:40:00Z</time></trkpt><trkpt lat="42.282947169832305" lon="13.754289454599233"><ele>391.0</ele><time>2026-04-27T16:40:01Z</time></trkpt><trkpt lat="42.28308803609457" lon="13.754395463849248"><ele>391.0</ele><time>2026-04-27T16:40:02Z</time></trkpt><trkpt lat="42.28323022964096" lon="13.75447194664018"><ele>390.20000000000005</ele><time>2026-04-27T16:40:03Z</time></trkpt><trkpt lat="42.28335803292599" lon="13.754532309807484"><ele>389.40000000000003</ele><time>2026-04-27T16:40:04Z</time></trkpt><trkpt lat="42.28346516844555" lon="13.754567701631474"><ele>388.6</ele><time>2026-04-27T16:40:05Z</time></trkpt><trkpt lat="42.2835447561149" lon="13.754570591111172"><ele>387.8</ele><time>2026-04-27T16:40:06Z</time></trkpt><trkpt lat="42.283613264456065" lon="13.754550328974805"><ele>387.0</ele><time>2026-04-27T16:40:08Z</time></trkpt><trkpt lat="42.283615048980145" lon="13.754393702369166"><ele>386.20000000000005</ele><time>2026-04-27T16:40:10Z</time></trkpt><trkpt lat="42.2835987001499" lon="13.754280546003402"><ele>385.4</ele><time>2026-04-27T16:40:11Z</time></trkpt><trkpt lat="42.28356991486835" lon="13.754168794252559"><ele>384.6</ele><time>2026-04-27T16:40:12Z</time></trkpt><trkpt lat="42.2835410740664" lon="13.75402976260274"><ele>383.79999999999995</ele><time>2026-04-27T16:40:13Z</time></trkpt><trkpt lat="42.2835182760439" lon="13.75387153090621"><ele>383.0</ele><time>2026-04-27T16:40:14Z</time></trkpt><trkpt lat="42.28349286179378" lon="13.753707918328343"><ele>383.5</ele><time>2026-04-27T16:40:15Z</time></trkpt><trkpt lat="42.28346717528006" lon="13.75351510067094"><ele>384.0</ele><time>2026-04-27T16:40:16Z</time></trkpt><trkpt lat="42.28344345135821" lon="13.753323700569425"><ele>384.5</ele><time>2026-04-27T16:40:17Z</time></trkpt><trkpt lat="42.28342125381811" lon="13.753129639038491"><ele>385.0</ele><time>2026-04-27T16:40:18Z</time></trkpt><trkpt lat="42.28340594952129" lon="13.752926854322059"><ele>385.0</ele><time>2026-04-27T16:40:19Z</time></trkpt><trkpt lat="42.28339804280581" lon="13.752745833752032"><ele>385.0</ele><time>2026-04-27T16:40:20Z</time></trkpt><trkpt lat="42.28339551224829" lon="13.752584378809878"><ele>385.0</ele><time>2026-04-27T16:40:21Z</time></trkpt><trkpt lat="42.283393499894444" lon="13.752437844607364"><ele>385.0</ele><time>2026-04-27T16:40:22Z</time></trkpt><trkpt lat="42.28340009479848" lon="13.752326571899205"><ele>385.0</ele><time>2026-04-27T16:40:23Z</time></trkpt><trkpt lat="42.283405556594765" lon="13.752201326667144"><ele>385.33333333333337</ele><time>2026-04-27T16:40:25Z</time></trkpt><trkpt lat="42.28364172452841" lon="13.752252217487431"><ele>385.66666666666663</ele><time>2026-04-27T16:40:27Z</time></trkpt><trkpt lat="42.28375674386312" lon="13.752259960152415"><ele>386.0</ele><time>2026-04-27T16:40:28Z</time></trkpt><trkpt lat="42.283892269597" lon="13.75229234768029"><ele>385.5</ele><time>2026-04-27T16:40:29Z</time></trkpt><trkpt lat="42.28402687100163" lon="13.752322207836539"><ele>385.0</ele><time>2026-04-27T16:40:30Z</time></trkpt><trkpt lat="42.28417775192989" lon="13.752357579797938"><ele>384.5</ele><time>2026-04-27T16:40:31Z</time></trkpt><trkpt lat="42.28432898927899" lon="13.752426968651488"><ele>384.0</ele><time>2026-04-27T16:40:32Z</time></trkpt><trkpt lat="42.28449400129458" lon="13.752456342151865"><ele>384.0</ele><time>2026-04-27T16:40:33Z</time></trkpt><trkpt lat="42.284654984956724" lon="13.75251537246244"><ele>384.0</ele><time>2026-04-27T16:40:34Z</time></trkpt><trkpt lat="42.28480121527303" lon="13.752574681922525"><ele>384.0</ele><time>2026-04-27T16:40:35Z</time></trkpt><trkpt lat="42.28492640832218" lon="13.752661374278336"><ele>383.5</ele><time>2026-04-27T16:40:36Z</time></trkpt><trkpt lat="42.28504083289197" lon="13.752736608660381"><ele>383.0</ele><time>2026-04-27T16:40:37Z</time></trkpt><trkpt lat="42.28515760659362" lon="13.752802740001446"><ele>382.5</ele><time>2026-04-27T16:40:38Z</time></trkpt><trkpt lat="42.28529278738288" lon="13.752839022140373"><ele>382.0</ele><time>2026-04-27T16:40:39Z</time></trkpt><trkpt lat="42.285437221655194" lon="13.752895468888575"><ele>382.0</ele><time>2026-04-27T16:40:40Z</time></trkpt><trkpt lat="42.2855869745459" lon="13.75294999589885"><ele>382.0</ele><time>2026-04-27T16:40:41Z</time></trkpt><trkpt lat="42.28572040644068" lon="13.752993501962381"><ele>382.0</ele><time>2026-04-27T16:40:42Z</time></trkpt><trkpt lat="42.28584131356274" lon="13.753032783761604"><ele>382.0</ele><time>2026-04-27T16:40:43Z</time></trkpt><trkpt lat="42.285954047695434" lon="13.753082412896674"><ele>381.6</ele><time>2026-04-27T16:40:44Z</time></trkpt><trkpt lat="42.286058384358526" lon="13.753107905371486"><ele>381.20000000000005</ele><time>2026-04-27T16:40:45Z</time></trkpt><trkpt lat="42.28613661043263" lon="13.753128522973197"><ele>380.8</ele><time>2026-04-27T16:40:46Z</time></trkpt><trkpt lat="42.286253223101774" lon="13.75317707584483"><ele>380.4</ele><time>2026-04-27T16:40:49Z</time></trkpt><trkpt lat="42.286350634694344" lon="13.753197956773692"><ele>380.0</ele><time>2026-04-27T16:40:50Z</time></trkpt><trkpt lat="42.28646009548729" lon="13.753204138491135"><ele>379.5</ele><time>2026-04-27T16:40:51Z</time></trkpt><trkpt lat="42.28657844268568" lon="13.753264248796194"><ele>379.0</ele><time>2026-04-27T16:40:52Z</time></trkpt><trkpt lat="42.286719555251025" lon="13.753310225061595"><ele>378.5</ele><time>2026-04-27T16:40:53Z</time></trkpt><trkpt lat="42.2868767969652" lon="13.7533215465981"><ele>378.0</ele><time>2026-04-27T16:40:54Z</time></trkpt><trkpt lat="42.28704564550406" lon="13.75336113012114"><ele>378.0</ele><time>2026-04-27T16:40:55Z</time></trkpt><trkpt lat="42.2871961581396" lon="13.75345622445792"><ele>378.0</ele><time>2026-04-27T16:40:56Z</time></trkpt><trkpt lat="42.28735339874328" lon="13.753519024984884"><ele>378.0</ele><time>2026-04-27T16:40:57Z</time></trkpt><trkpt lat="42.287483411024816" lon="13.75361315724671"><ele>377.4</ele><time>2026-04-27T16:40:58Z</time></trkpt><trkpt lat="42.28761077496068" lon="13.753702437696536"><ele>376.79999999999995</ele><time>2026-04-27T16:40:59Z</time></trkpt><trkpt lat="42.28771013239741" lon="13.753767703223518"><ele>376.2</ele><time>2026-04-27T16:41:00Z</time></trkpt><trkpt lat="42.28778906930011" lon="13.753828157911412"><ele>375.6</ele><time>2026-04-27T16:41:01Z</time></trkpt><trkpt lat="42.28786096666382" lon="13.75382871515357"><ele>375.0</ele><time>2026-04-27T16:41:02Z</time></trkpt><trkpt lat="42.28792060846556" lon="13.753797561331742"><ele>375.0</ele><time>2026-04-27T16:41:03Z</time></trkpt><trkpt lat="42.28797971671688" lon="13.753651851035258"><ele>375.0</ele><time>2026-04-27T16:41:04Z</time></trkpt><trkpt lat="42.28802862729814" lon="13.753544653155226"><ele>375.0</ele><time>2026-04-27T16:41:05Z</time></trkpt><trkpt lat="42.288082942612824" lon="13.753476738123963"><ele>375.0</ele><time>2026-04-27T16:41:06Z</time></trkpt><trkpt lat="42.28821933334463" lon="13.753497153385574"><ele>375.0</ele><time>2026-04-27T16:41:08Z</time></trkpt><trkpt lat="42.28827130765021" lon="13.753608051689712"><ele>375.0</ele><time>2026-04-27T16:41:09Z</time></trkpt><trkpt lat="42.288350038677955" lon="13.753692124078217"><ele>375.0</ele><time>2026-04-27T16:41:10Z</time></trkpt><trkpt lat="42.28844647552652" lon="13.753773016173424"><ele>375.0</ele><time>2026-04-27T16:41:11Z</time></trkpt><trkpt lat="42.28854082426015" lon="13.753874709249533"><ele>375.0</ele><time>2026-04-27T16:41:12Z</time></trkpt><trkpt lat="42.288636001556604" lon="13.753975792867157"><ele>375.0</ele><time>2026-04-27T16:41:13Z</time></trkpt><trkpt lat="42.28874117465936" lon="13.754077817499006"><ele>375.0</ele><time>2026-04-27T16:41:14Z</time></trkpt><trkpt lat="42.2888437481281" lon="13.754177388371453"><ele>375.0</ele><time>2026-04-27T16:41:15Z</time></trkpt><trkpt lat="42.28894969612901" lon="13.75427672127388"><ele>375.0</ele><time>2026-04-27T16:41:16Z</time></trkpt><trkpt lat="42.289050438291724" lon="13.754377067242725"><ele>374.5</ele><time>2026-04-27T16:41:17Z</time></trkpt><trkpt lat="42.28914529379657" lon="13.754471262138301"><ele>374.0</ele><time>2026-04-27T16:41:18Z</time></trkpt><trkpt lat="42.28923607426976" lon="13.754572211894994"><ele>373.5</ele><time>2026-04-27T16:41:19Z</time></trkpt><trkpt lat="42.28932435733905" lon="13.754669583564224"><ele>373.0</ele><time>2026-04-27T16:41:20Z</time></trkpt><trkpt lat="42.289395740241176" lon="13.754780378097552"><ele>373.0</ele><time>2026-04-27T16:41:21Z</time></trkpt><trkpt lat="42.28947348116264" lon="13.754847565031184"><ele>373.0</ele><time>2026-04-27T16:41:22Z</time></trkpt><trkpt lat="42.28952268190164" lon="13.754916360618807"><ele>373.0</ele><time>2026-04-27T16:41:23Z</time></trkpt><trkpt lat="42.28959293997352" lon="13.755014343617393"><ele>373.0</ele><time>2026-04-27T16:41:25Z</time></trkpt><trkpt lat="42.28966112722249" lon="13.755024787604896"><ele>373.0</ele><time>2026-04-27T16:41:29Z</time></trkpt><trkpt lat="42.28958860665553" lon="13.755047275503639"><ele>373.0</ele><time>2026-04-27T16:41:31Z</time></trkpt><trkpt lat="42.289487882689706" lon="13.754854796352529"><ele>373.0</ele><time>2026-04-27T16:41:32Z</time></trkpt><trkpt lat="42.28942996256049" lon="13.754782026950013"><ele>373.0</ele><time>2026-04-27T16:41:33Z</time></trkpt><trkpt lat="42.28932545723572" lon="13.754654826679207"><ele>373.0</ele><time>2026-04-27T16:41:34Z</time></trkpt><trkpt lat="42.28922837986874" lon="13.754541712093667"><ele>373.0</ele><time>2026-04-27T16:41:35Z</time></trkpt><trkpt lat="42.28912115152884" lon="13.754430946582644"><ele>373.5</ele><time>2026-04-27T16:41:36Z</time></trkpt><trkpt lat="42.28900577723214" lon="13.754320068773254"><ele>374.0</ele><time>2026-04-27T16:41:37Z</time></trkpt><trkpt lat="42.28888583892364" lon="13.754207627204009"><ele>374.5</ele><time>2026-04-27T16:41:38Z</time></trkpt><trkpt lat="42.288772018400756" lon="13.754070885855281"><ele>375.0</ele><time>2026-04-27T16:41:39Z</time></trkpt><trkpt lat="42.288648194598665" lon="13.753949324843099"><ele>375.0</ele><time>2026-04-27T16:41:40Z</time></trkpt><trkpt lat="42.28855125538474" lon="13.753848686780577"><ele>375.0</ele><time>2026-04-27T16:41:41Z</time></trkpt><trkpt lat="42.288460672129055" lon="13.753753015478726"><ele>375.0</ele><time>2026-04-27T16:41:42Z</time></trkpt><trkpt lat="42.28837767202329" lon="13.753664384274675"><ele>375.0</ele><time>2026-04-27T16:41:43Z</time></trkpt><trkpt lat="42.288300158714954" lon="13.753581611971486"><ele>375.0</ele><time>2026-04-27T16:41:44Z</time></trkpt><trkpt lat="42.28823487992777" lon="13.753511903719591"><ele>374.8</ele><time>2026-04-27T16:41:45Z</time></trkpt><trkpt lat="42.288169027222985" lon="13.753454357846163"><ele>374.6</ele><time>2026-04-27T16:41:46Z</time></trkpt><trkpt lat="42.288228264592576" lon="13.75328242491251"><ele>374.4</ele><time>2026-04-27T16:41:50Z</time></trkpt><trkpt lat="42.28828333924071" lon="13.753208466652495"><ele>374.2</ele><time>2026-04-27T16:41:51Z</time></trkpt><trkpt lat="42.28837071958448" lon="13.753118807049121"><ele>374.0</ele><time>2026-04-27T16:41:52Z</time></trkpt><trkpt lat="42.28845783415825" lon="13.75298679026116"><ele>374.0</ele><time>2026-04-27T16:41:53Z</time></trkpt><trkpt lat="42.28853405572414" lon="13.75282760247442"><ele>374.0</ele><time>2026-04-27T16:41:54Z</time></trkpt><trkpt lat="42.28861402282793" lon="13.752683636426443"><ele>374.0</ele><time>2026-04-27T16:41:55Z</time></trkpt><trkpt lat="42.288705024065095" lon="13.75253474423836"><ele>374.0</ele><time>2026-04-27T16:41:56Z</time></trkpt><trkpt lat="42.28880289715597" lon="13.752354448276902"><ele>375.0</ele><time>2026-04-27T16:41:57Z</time></trkpt><trkpt lat="42.28889813672916" lon="13.752162745822922"><ele>376.0</ele><time>2026-04-27T16:41:58Z</time></trkpt><trkpt lat="42.28898897192145" lon="13.751964791937874"><ele>377.0</ele><time>2026-04-27T16:41:59Z</time></trkpt><trkpt lat="42.28906586043436" lon="13.751788257535205"><ele>378.6666666666667</ele><time>2026-04-27T16:42:00Z</time></trkpt><trkpt lat="42.28914621348838" lon="13.751612024137582"><ele>380.3333333333333</ele><time>2026-04-27T16:42:01Z</time></trkpt><trkpt lat="42.289230149968354" lon="13.751428280349337"><ele>382.0</ele><time>2026-04-27T16:42:02Z</time></trkpt><trkpt lat="42.28930369959694" lon="13.75122045742717"><ele>382.0</ele><time>2026-04-27T16:42:03Z</time></trkpt><trkpt lat="42.28937746265879" lon="13.751033195131269"><ele>382.0</ele><time>2026-04-27T16:42:04Z</time></trkpt><trkpt lat="42.28944016024825" lon="13.75086195694721"><ele>382.0</ele><time>2026-04-27T16:42:05Z</time></trkpt><trkpt lat="42.28950549346338" lon="13.75069512749641"><ele>382.0</ele><time>2026-04-27T16:42:06Z</time></trkpt><trkpt lat="42.28958505540638" lon="13.750522621283269"><ele>382.0</ele><time>2026-04-27T16:42:07Z</time></trkpt><trkpt lat="42.28967247079812" lon="13.750370514790001"><ele>382.0</ele><time>2026-04-27T16:42:08Z</time></trkpt><trkpt lat="42.28978289740023" lon="13.75021822731909"><ele>382.0</ele><time>2026-04-27T16:42:09Z</time></trkpt><trkpt lat="42.28988129285623" lon="13.750049501837358"><ele>381.66666666666663</ele><time>2026-04-27T16:42:10Z</time></trkpt><trkpt lat="42.28997126906497" lon="13.749856940882092"><ele>381.3333333333333</ele><time>2026-04-27T16:42:11Z</time></trkpt><trkpt lat="42.290061109287926" lon="13.74964741205045"><ele>381.0</ele><time>2026-04-27T16:42:12Z</time></trkpt><trkpt lat="42.290131989951774" lon="13.7494542775119"><ele>381.75</ele><time>2026-04-27T16:42:13Z</time></trkpt><trkpt lat="42.29021582875404" lon="13.749305251878834"><ele>382.5</ele><time>2026-04-27T16:42:14Z</time></trkpt><trkpt lat="42.29029433081706" lon="13.749154838679853"><ele>383.25</ele><time>2026-04-27T16:42:15Z</time></trkpt><trkpt lat="42.29038992569054" lon="13.748979677239713"><ele>384.0</ele><time>2026-04-27T16:42:16Z</time></trkpt><trkpt lat="42.29050841298389" lon="13.748808945494451"><ele>383.3333333333333</ele><time>2026-04-27T16:42:17Z</time></trkpt><trkpt lat="42.2906227948056" lon="13.74862224064585"><ele>382.66666666666663</ele><time>2026-04-27T16:42:18Z</time></trkpt><trkpt lat="42.290727347335235" lon="13.748445319548736"><ele>382.0</ele><time>2026-04-27T16:42:19Z</time></trkpt><trkpt lat="42.290830113299045" lon="13.748277753514214"><ele>382.0</ele><time>2026-04-27T16:42:20Z</time></trkpt><trkpt lat="42.290935032324924" lon="13.748111773530379"><ele>382.0</ele><time>2026-04-27T16:42:21Z</time></trkpt><trkpt lat="42.291040989895095" lon="13.747927771120311"><ele>382.0</ele><time>2026-04-27T16:42:22Z</time></trkpt><trkpt lat="42.291144855844024" lon="13.747743266434886"><ele>382.66666666666663</ele><time>2026-04-27T16:42:23Z</time></trkpt><trkpt lat="42.29124025125465" lon="13.74756315825035"><ele>383.3333333333333</ele><time>2026-04-27T16:42:24Z</time></trkpt><trkpt lat="42.29132995971197" lon="13.747397000376589"><ele>384.0</ele><time>2026-04-27T16:42:25Z</time></trkpt><trkpt lat="42.29141708166769" lon="13.747224543652916"><ele>384.25</ele><time>2026-04-27T16:42:26Z</time></trkpt><trkpt lat="42.29151485867365" lon="13.747082528318236"><ele>384.5</ele><time>2026-04-27T16:42:27Z</time></trkpt><trkpt lat="42.291597987554" lon="13.746955551980177"><ele>384.75</ele><time>2026-04-27T16:42:28Z</time></trkpt><trkpt lat="42.29166720516302" lon="13.746829787763412"><ele>385.0</ele><time>2026-04-27T16:42:29Z</time></trkpt><trkpt lat="42.29172694036281" lon="13.746714939358402"><ele>385.4</ele><time>2026-04-27T16:42:30Z</time></trkpt><trkpt lat="42.29178193145114" lon="13.746630248000757"><ele>385.8</ele><time>2026-04-27T16:42:31Z</time></trkpt><trkpt lat="42.29183412110441" lon="13.74657350948079"><ele>386.20000000000005</ele><time>2026-04-27T16:42:32Z</time></trkpt><trkpt lat="42.29188152718444" lon="13.746502088229208"><ele>386.6</ele><time>2026-04-27T16:42:34Z</time></trkpt><trkpt lat="42.291953785769806" lon="13.746675424215345"><ele>387.0</ele><time>2026-04-27T16:42:35Z</time></trkpt><trkpt lat="42.29203055623057" lon="13.746714590808093"><ele>387.0</ele><time>2026-04-27T16:42:36Z</time></trkpt><trkpt lat="42.292118776335336" lon="13.74678689927489"><ele>387.0</ele><time>2026-04-27T16:42:37Z</time></trkpt><trkpt lat="42.292222280081184" lon="13.74686167661046"><ele>387.0</ele><time>2026-04-27T16:42:38Z</time></trkpt><trkpt lat="42.29233979475708" lon="13.746943435047596"><ele>387.0</ele><time>2026-04-27T16:42:39Z</time></trkpt><trkpt lat="42.29246489477765" lon="13.747034190770002"><ele>385.75</ele><time>2026-04-27T16:42:40Z</time></trkpt><trkpt lat="42.29259093379868" lon="13.747115240024122"><ele>384.5</ele><time>2026-04-27T16:42:41Z</time></trkpt><trkpt lat="42.292732792240365" lon="13.747187210944134"><ele>383.25</ele><time>2026-04-27T16:42:42Z</time></trkpt><trkpt lat="42.29288213738093" lon="13.747257526679627"><ele>382.0</ele><time>2026-04-27T16:42:43Z</time></trkpt><trkpt lat="42.29303329062011" lon="13.747309842963148"><ele>383.66666666666663</ele><time>2026-04-27T16:42:44Z</time></trkpt><trkpt lat="42.293167578251406" lon="13.747398617739261"><ele>385.3333333333333</ele><time>2026-04-27T16:42:45Z</time></trkpt><trkpt lat="42.29330691456579" lon="13.747484480580953"><ele>387.0</ele><time>2026-04-27T16:42:46Z</time></trkpt><trkpt lat="42.29345509605606" lon="13.747568456643924"><ele>387.0</ele><time>2026-04-27T16:42:47Z</time></trkpt><trkpt lat="42.2935914990378" lon="13.747669797239727"><ele>387.0</ele><time>2026-04-27T16:42:48Z</time></trkpt><trkpt lat="42.29374034948569" lon="13.747751904310782"><ele>387.0</ele><time>2026-04-27T16:42:49Z</time></trkpt><trkpt lat="42.293890294294066" lon="13.74783053527986"><ele>387.0</ele><time>2026-04-27T16:42:50Z</time></trkpt><trkpt lat="42.29402671664726" lon="13.74790472460919"><ele>387.0</ele><time>2026-04-27T16:42:51Z</time></trkpt><trkpt lat="42.29417345462916" lon="13.747974545537302"><ele>387.0</ele><time>2026-04-27T16:42:52Z</time></trkpt><trkpt lat="42.29431849681271" lon="13.74805000126837"><ele>387.0</ele><time>2026-04-27T16:42:53Z</time></trkpt><trkpt lat="42.294451059093305" lon="13.748154314466438"><ele>387.0</ele><time>2026-04-27T16:42:54Z</time></trkpt><trkpt lat="42.294589543028216" lon="13.748243654732075"><ele>387.0</ele><time>2026-04-27T16:42:55Z</time></trkpt><trkpt lat="42.2947242115597" lon="13.748324380306661"><ele>388.6</ele><time>2026-04-27T16:42:56Z</time></trkpt><trkpt lat="42.29485052074653" lon="13.748377357899509"><ele>390.20000000000005</ele><time>2026-04-27T16:42:57Z</time></trkpt><trkpt lat="42.2949518581092" lon="13.74844367881221"><ele>391.8</ele><time>2026-04-27T16:42:58Z</time></trkpt><trkpt lat="42.29503826515456" lon="13.748497565322062"><ele>393.4</ele><time>2026-04-27T16:42:59Z</time></trkpt><trkpt lat="42.29508932745049" lon="13.7485752182083"><ele>395.0</ele><time>2026-04-27T16:43:00Z</time></trkpt><trkpt lat="42.29514764990833" lon="13.748646324507702"><ele>395.4</ele><time>2026-04-27T16:43:02Z</time></trkpt><trkpt lat="42.29521150476944" lon="13.74873457397418"><ele>395.8</ele><time>2026-04-27T16:43:04Z</time></trkpt><trkpt lat="42.295303121303164" lon="13.748746671944332"><ele>396.20000000000005</ele><time>2026-04-27T16:43:05Z</time></trkpt><trkpt lat="42.29538197840883" lon="13.748777166117788"><ele>396.6</ele><time>2026-04-27T16:43:06Z</time></trkpt><trkpt lat="42.295472806604884" lon="13.748812459572765"><ele>397.0</ele><time>2026-04-27T16:43:07Z</time></trkpt><trkpt lat="42.29557267330676" lon="13.748859003053477"><ele>400.0</ele><time>2026-04-27T16:43:08Z</time></trkpt><trkpt lat="42.295677691885416" lon="13.748909524732387"><ele>403.0</ele><time>2026-04-27T16:43:09Z</time></trkpt><trkpt lat="42.295784802573856" lon="13.748962187209077"><ele>406.0</ele><time>2026-04-27T16:43:10Z</time></trkpt><trkpt lat="42.29587540818649" lon="13.74905397479698"><ele>409.0</ele><time>2026-04-27T16:43:11Z</time></trkpt><trkpt lat="42.29596775597208" lon="13.749143387881391"><ele>409.0</ele><time>2026-04-27T16:43:12Z</time></trkpt><trkpt lat="42.29606556758949" lon="13.749228809298517"><ele>409.0</ele><time>2026-04-27T16:43:13Z</time></trkpt><trkpt lat="42.29614179594925" lon="13.749361088767616"><ele>409.0</ele><time>2026-04-27T16:43:14Z</time></trkpt><trkpt lat="42.296224910962025" lon="13.749478894224815"><ele>409.0</ele><time>2026-04-27T16:43:15Z</time></trkpt><trkpt lat="42.29632192311488" lon="13.749564055509797"><ele>412.75</ele><time>2026-04-27T16:43:16Z</time></trkpt><trkpt lat="42.29643395247378" lon="13.749628921282424"><ele>416.5</ele><time>2026-04-27T16:43:17Z</time></trkpt><trkpt lat="42.29654178377294" lon="13.749714505204139"><ele>420.25</ele><time>2026-04-27T16:43:18Z</time></trkpt><trkpt lat="42.29666319164043" lon="13.749770286069273"><ele>424.0</ele><time>2026-04-27T16:43:19Z</time></trkpt><trkpt lat="42.296771112873714" lon="13.74986797288793"><ele>424.0</ele><time>2026-04-27T16:43:20Z</time></trkpt><trkpt lat="42.296873620416264" lon="13.749979954844996"><ele>424.0</ele><time>2026-04-27T16:43:21Z</time></trkpt><trkpt lat="42.296942720960246" lon="13.750109079797838"><ele>424.0</ele><time>2026-04-27T16:43:22Z</time></trkpt><trkpt lat="42.297016236059264" lon="13.750190577399476"><ele>424.0</ele><time>2026-04-27T16:43:23Z</time></trkpt><trkpt lat="42.29707709605932" lon="13.750262037224088"><ele>424.0</ele><time>2026-04-27T16:43:24Z</time></trkpt><trkpt lat="42.29715818321762" lon="13.7503201805596"><ele>424.2</ele><time>2026-04-27T16:43:25Z</time></trkpt><trkpt lat="42.297255104512786" lon="13.750376355986743"><ele>424.4</ele><time>2026-04-27T16:43:26Z</time></trkpt><trkpt lat="42.297350428313685" lon="13.750421113920106"><ele>424.6</ele><time>2026-04-27T16:43:27Z</time></trkpt><trkpt lat="42.297413809300444" lon="13.750483239177981"><ele>424.8</ele><time>2026-04-27T16:43:28Z</time></trkpt><trkpt lat="42.2974794497848" lon="13.75050545123889"><ele>425.0</ele><time>2026-04-27T16:43:31Z</time></trkpt><trkpt lat="42.29755922314001" lon="13.750296795098832"><ele>425.6</ele><time>2026-04-27T16:43:32Z</time></trkpt><trkpt lat="42.29761855289401" lon="13.750193479826159"><ele>426.2</ele><time>2026-04-27T16:43:33Z</time></trkpt><trkpt lat="42.297683747008584" lon="13.750111687028367"><ele>426.79999999999995</ele><time>2026-04-27T16:43:34Z</time></trkpt><trkpt lat="42.29776650851956" lon="13.75006917230901"><ele>427.4</ele><time>2026-04-27T16:43:35Z</time></trkpt><trkpt lat="42.297875976217526" lon="13.750039100857217"><ele>428.0</ele><time>2026-04-27T16:43:36Z</time></trkpt><trkpt lat="42.29799822375373" lon="13.750007632217002"><ele>428.5</ele><time>2026-04-27T16:43:37Z</time></trkpt><trkpt lat="42.29813745918858" lon="13.749996365899538"><ele>429.0</ele><time>2026-04-27T16:43:38Z</time></trkpt><trkpt lat="42.29827718546071" lon="13.750010662661738"><ele>429.5</ele><time>2026-04-27T16:43:39Z</time></trkpt><trkpt lat="42.298390898168805" lon="13.750022324288441"><ele>430.0</ele><time>2026-04-27T16:43:40Z</time></trkpt><trkpt lat="42.2984985754849" lon="13.750034361236118"><ele>430.0</ele><time>2026-04-27T16:43:41Z</time></trkpt><trkpt lat="42.29860842256706" lon="13.750017331714243"><ele>430.0</ele><time>2026-04-27T16:43:42Z</time></trkpt><trkpt lat="42.29874330410458" lon="13.74998207719434"><ele>430.0</ele><time>2026-04-27T16:43:43Z</time></trkpt><trkpt lat="42.2988756270515" lon="13.749948219141483"><ele>430.0</ele><time>2026-04-27T16:43:44Z</time></trkpt><trkpt lat="42.299016100905455" lon="13.749925283682348"><ele>429.25</ele><time>2026-04-27T16:43:45Z</time></trkpt><trkpt lat="42.299152094334396" lon="13.749893827688025"><ele>428.5</ele><time>2026-04-27T16:43:46Z</time></trkpt><trkpt lat="42.29927244465562" lon="13.749870724548385"><ele>427.75</ele><time>2026-04-27T16:43:47Z</time></trkpt><trkpt lat="42.29939209051105" lon="13.749857342099972"><ele>427.0</ele><time>2026-04-27T16:43:48Z</time></trkpt><trkpt lat="42.2995135403064" lon="13.749849876774407"><ele>427.0</ele><time>2026-04-27T16:43:49Z</time></trkpt><trkpt lat="42.299625395842675" lon="13.749836276893856"><ele>427.0</ele><time>2026-04-27T16:43:50Z</time></trkpt><trkpt lat="42.29973322838363" lon="13.749796978014121"><ele>427.0</ele><time>2026-04-27T16:43:51Z</time></trkpt><trkpt lat="42.29984308908248" lon="13.74973218056058"><ele>427.0</ele><time>2026-04-27T16:43:52Z</time></trkpt><trkpt lat="42.29996951346371" lon="13.749659866933737"><ele>426.0</ele><time>2026-04-27T16:43:53Z</time></trkpt><trkpt lat="42.30010868906328" lon="13.749605611214015"><ele>425.0</ele><time>2026-04-27T16:43:54Z</time></trkpt><trkpt lat="42.30025251407105" lon="13.749562896929449"><ele>424.0</ele><time>2026-04-27T16:43:55Z</time></trkpt><trkpt lat="42.300374218207914" lon="13.749536330184773"><ele>423.0</ele><time>2026-04-27T16:43:56Z</time></trkpt><trkpt lat="42.300482461690024" lon="13.749497170299936"><ele>421.5</ele><time>2026-04-27T16:43:57Z</time></trkpt><trkpt lat="42.30059533940192" lon="13.749451190636313"><ele>420.0</ele><time>2026-04-27T16:43:58Z</time></trkpt><trkpt lat="42.300726282473306" lon="13.749410230454492"><ele>418.5</ele><time>2026-04-27T16:43:59Z</time></trkpt><trkpt lat="42.300861495877804" lon="13.749377200198102"><ele>417.0</ele><time>2026-04-27T16:44:00Z</time></trkpt><trkpt lat="42.30098725666871" lon="13.74935749132272"><ele>419.8</ele><time>2026-04-27T16:44:01Z</time></trkpt><trkpt lat="42.30110198488225" lon="13.749337702189536"><ele>422.6</ele><time>2026-04-27T16:44:02Z</time></trkpt><trkpt lat="42.30121720073869" lon="13.749296311324585"><ele>425.40000000000003</ele><time>2026-04-27T16:44:03Z</time></trkpt><trkpt lat="42.30131139320771" lon="13.749242709831918"><ele>428.20000000000005</ele><time>2026-04-27T16:44:04Z</time></trkpt><trkpt lat="42.30138406094175" lon="13.749177129911608"><ele>431.0</ele><time>2026-04-27T16:44:05Z</time></trkpt><trkpt lat="42.30144907945575" lon="13.749094810074354"><ele>431.0</ele><time>2026-04-27T16:44:06Z</time></trkpt><trkpt lat="42.30150267602636" lon="13.748985340514142"><ele>431.0</ele><time>2026-04-27T16:44:07Z</time></trkpt><trkpt lat="42.301559131772514" lon="13.748868729214223"><ele>431.0</ele><time>2026-04-27T16:44:08Z</time></trkpt><trkpt lat="42.30163293397033" lon="13.74874522150674"><ele>431.0</ele><time>2026-04-27T16:44:09Z</time></trkpt><trkpt lat="42.30171755297213" lon="13.74862962737309"><ele>431.0</ele><time>2026-04-27T16:44:10Z</time></trkpt><trkpt lat="42.301807849674645" lon="13.748523838878148"><ele>437.0</ele><time>2026-04-27T16:44:11Z</time></trkpt><trkpt lat="42.30189634695337" lon="13.748419866388042"><ele>443.0</ele><time>2026-04-27T16:44:12Z</time></trkpt><trkpt lat="42.30198390920014" lon="13.748344240094752"><ele>449.0</ele><time>2026-04-27T16:44:13Z</time></trkpt><trkpt lat="42.30208964319064" lon="13.74828264831818"><ele>455.0</ele><time>2026-04-27T16:44:14Z</time></trkpt><trkpt lat="42.3021926898981" lon="13.748209526027608"><ele>453.75</ele><time>2026-04-27T16:44:15Z</time></trkpt><trkpt lat="42.302307981075735" lon="13.748118936767817"><ele>452.5</ele><time>2026-04-27T16:44:16Z</time></trkpt><trkpt lat="42.30240901066537" lon="13.748028893956207"><ele>451.25</ele><time>2026-04-27T16:44:17Z</time></trkpt><trkpt lat="42.30251710167943" lon="13.74796343757157"><ele>450.0</ele><time>2026-04-27T16:44:18Z</time></trkpt><trkpt lat="42.30263832861584" lon="13.747913478059026"><ele>450.0</ele><time>2026-04-27T16:44:19Z</time></trkpt><trkpt lat="42.302741857882246" lon="13.747869779531428"><ele>450.0</ele><time>2026-04-27T16:44:20Z</time></trkpt><trkpt lat="42.3028317912013" lon="13.747838047761427"><ele>450.0</ele><time>2026-04-27T16:44:21Z</time></trkpt><trkpt lat="42.30291868950959" lon="13.747856271537492"><ele>450.0</ele><time>2026-04-27T16:44:22Z</time></trkpt><trkpt lat="42.30303544280701" lon="13.747875657719472"><ele>450.0</ele><time>2026-04-27T16:44:23Z</time></trkpt><trkpt lat="42.303162947776386" lon="13.747899621355282"><ele>451.5</ele><time>2026-04-27T16:44:24Z</time></trkpt><trkpt lat="42.30329330071793" lon="13.747919036480686"><ele>453.0</ele><time>2026-04-27T16:44:25Z</time></trkpt><trkpt lat="42.303440586277624" lon="13.747959896661571"><ele>454.5</ele><time>2026-04-27T16:44:26Z</time></trkpt><trkpt lat="42.30357644134267" lon="13.747987321786383"><ele>456.0</ele><time>2026-04-27T16:44:27Z</time></trkpt><trkpt lat="42.30372049367191" lon="13.7480200721605"><ele>456.0</ele><time>2026-04-27T16:44:28Z</time></trkpt><trkpt lat="42.30384768737165" lon="13.748050484715538"><ele>456.0</ele><time>2026-04-27T16:44:29Z</time></trkpt><trkpt lat="42.30395771732305" lon="13.74806995334615"><ele>456.0</ele><time>2026-04-27T16:44:30Z</time></trkpt><trkpt lat="42.304060704694926" lon="13.748103332795235"><ele>456.0</ele><time>2026-04-27T16:44:31Z</time></trkpt><trkpt lat="42.30414955092097" lon="13.748152966645414"><ele>456.0</ele><time>2026-04-27T16:44:32Z</time></trkpt><trkpt lat="42.3042515372149" lon="13.748229146244691"><ele>460.0</ele><time>2026-04-27T16:44:33Z</time></trkpt><trkpt lat="42.304378298973894" lon="13.748300978058255"><ele>464.0</ele><time>2026-04-27T16:44:34Z</time></trkpt><trkpt lat="42.30449556226375" lon="13.748359624204967"><ele>468.0</ele><time>2026-04-27T16:44:35Z</time></trkpt><trkpt lat="42.304592782067125" lon="13.74839732248344"><ele>472.0</ele><time>2026-04-27T16:44:36Z</time></trkpt><trkpt lat="42.30468988470343" lon="13.748418362904092"><ele>475.0</ele><time>2026-04-27T16:44:37Z</time></trkpt><trkpt lat="42.304770974961485" lon="13.74839342853608"><ele>478.00000000000006</ele><time>2026-04-27T16:44:38Z</time></trkpt><trkpt lat="42.30488079585634" lon="13.74836158098032"><ele>481.00000000000006</ele><time>2026-04-27T16:44:39Z</time></trkpt><trkpt lat="42.304974065402874" lon="13.748331061706413"><ele>484.0</ele><time>2026-04-27T16:44:40Z</time></trkpt><trkpt lat="42.30505071983898" lon="13.748316254491192"><ele>487.0</ele><time>2026-04-27T16:44:41Z</time></trkpt><trkpt lat="42.30514271211712" lon="13.748332813961042"><ele>487.00000000000006</ele><time>2026-04-27T16:44:42Z</time></trkpt><trkpt lat="42.30519619307183" lon="13.74839559989045"><ele>487.0</ele><time>2026-04-27T16:44:43Z</time></trkpt><trkpt lat="42.30526147311426" lon="13.748460537783988"><ele>487.0</ele><time>2026-04-27T16:44:44Z</time></trkpt><trkpt lat="42.305326457357324" lon="13.748483434441107"><ele>487.0</ele><time>2026-04-27T16:44:45Z</time></trkpt><trkpt lat="42.30541977258647" lon="13.748494264532715"><ele>487.00000000000006</ele><time>2026-04-27T16:44:46Z</time></trkpt><trkpt lat="42.30552095083431" lon="13.748499733879761"><ele>487.0</ele><time>2026-04-27T16:44:47Z</time></trkpt><trkpt lat="42.3055996985871" lon="13.74849897110848"><ele>488.20000000000005</ele><time>2026-04-27T16:44:48Z</time></trkpt><trkpt lat="42.30567839830017" lon="13.748479377095814"><ele>489.40000000000003</ele><time>2026-04-27T16:44:49Z</time></trkpt><trkpt lat="42.30577442521543" lon="13.748447607192027"><ele>490.59999999999997</ele><time>2026-04-27T16:44:50Z</time></trkpt><trkpt lat="42.30588586657618" lon="13.748388653711903"><ele>491.79999999999995</ele><time>2026-04-27T16:44:51Z</time></trkpt><trkpt lat="42.30600841528761" lon="13.748313030771822"><ele>493.0</ele><time>2026-04-27T16:44:52Z</time></trkpt><trkpt lat="42.30613498165631" lon="13.748242726781534"><ele>493.0</ele><time>2026-04-27T16:44:53Z</time></trkpt><trkpt lat="42.30629325730415" lon="13.748183708819608"><ele>493.0</ele><time>2026-04-27T16:44:54Z</time></trkpt><trkpt lat="42.30646010861605" lon="13.748119632900764"><ele>493.0</ele><time>2026-04-27T16:44:55Z</time></trkpt><trkpt lat="42.30659298362547" lon="13.748055623859019"><ele>492.4</ele><time>2026-04-27T16:44:56Z</time></trkpt><trkpt lat="42.30670236397107" lon="13.747993822507365"><ele>491.79999999999995</ele><time>2026-04-27T16:44:57Z</time></trkpt><trkpt lat="42.306819166643386" lon="13.747946065271494"><ele>491.2</ele><time>2026-04-27T16:44:58Z</time></trkpt><trkpt lat="42.306919393965615" lon="13.747927141501496"><ele>490.6</ele><time>2026-04-27T16:44:59Z</time></trkpt><trkpt lat="42.30698458187129" lon="13.74793595471304"><ele>490.0</ele><time>2026-04-27T16:45:00Z</time></trkpt><trkpt lat="42.30705064588899" lon="13.747920203370462"><ele>490.00000000000006</ele><time>2026-04-27T16:45:02Z</time></trkpt><trkpt lat="42.30712651700418" lon="13.747892440676072"><ele>490.0</ele><time>2026-04-27T16:50:04Z</time></trkpt><trkpt lat="42.307189945208904" lon="13.747898233542621"><ele>490.0</ele><time>2026-04-27T16:50:05Z</time></trkpt><trkpt lat="42.307263034489765" lon="13.747914416394464"><ele>490.0</ele><time>2026-04-27T16:50:06Z</time></trkpt><trkpt lat="42.307339078668214" lon="13.747917347671681"><ele>490.00000000000006</ele><time>2026-04-27T16:50:07Z</time></trkpt><trkpt lat="42.307428543078316" lon="13.747914836651672"><ele>490.0</ele><time>2026-04-27T16:50:08Z</time></trkpt><trkpt lat="42.30751652137379" lon="13.7479140521245"><ele>489.0</ele><time>2026-04-27T16:50:09Z</time></trkpt><trkpt lat="42.307611648284905" lon="13.74790919799166"><ele>488.0</ele><time>2026-04-27T16:50:10Z</time></trkpt><trkpt lat="42.30771793427124" lon="13.747901955026357"><ele>487.0</ele><time>2026-04-27T16:50:11Z</time></trkpt><trkpt lat="42.30784596394863" lon="13.74789070828055"><ele>486.0</ele><time>2026-04-27T16:50:12Z</time></trkpt><trkpt lat="42.30797113064574" lon="13.747883721108547"><ele>486.20000000000005</ele><time>2026-04-27T16:50:13Z</time></trkpt><trkpt lat="42.3080885362709" lon="13.747871715228344"><ele>486.40000000000003</ele><time>2026-04-27T16:50:14Z</time></trkpt><trkpt lat="42.30816921466626" lon="13.74786671823628"><ele>486.6</ele><time>2026-04-27T16:50:15Z</time></trkpt><trkpt lat="42.30824980602419" lon="13.747859371815652"><ele>486.8</ele><time>2026-04-27T16:50:16Z</time></trkpt><trkpt lat="42.30833613822119" lon="13.747836752075312"><ele>487.0</ele><time>2026-04-27T16:50:17Z</time></trkpt><trkpt lat="42.30842514495052" lon="13.74778645793799"><ele>487.0</ele><time>2026-04-27T16:50:18Z</time></trkpt><trkpt lat="42.30849603822161" lon="13.747765963978726"><ele>487.00000000000006</ele><time>2026-04-27T16:50:19Z</time></trkpt><trkpt lat="42.30858398773538" lon="13.747792213261722"><ele>487.00000000000006</ele><time>2026-04-27T16:50:21Z</time></trkpt><trkpt lat="42.308704631077894" lon="13.747792073675198"><ele>487.0</ele><time>2026-04-27T16:50:23Z</time></trkpt><trkpt lat="42.30878367067846" lon="13.747790403968917"><ele>487.0</ele><time>2026-04-27T16:50:24Z</time></trkpt><trkpt lat="42.30890499933768" lon="13.747748925536406"><ele>488.6</ele><time>2026-04-27T16:50:26Z</time></trkpt><trkpt lat="42.30895583662873" lon="13.747648499401315"><ele>490.20000000000005</ele><time>2026-04-27T16:50:28Z</time></trkpt><trkpt lat="42.30897930048773" lon="13.747467940620739"><ele>491.8</ele><time>2026-04-27T16:50:30Z</time></trkpt><trkpt lat="42.30899704627707" lon="13.747359234772917"><ele>493.4</ele><time>2026-04-27T16:50:31Z</time></trkpt><trkpt lat="42.309034945812286" lon="13.747257859966574"><ele>495.0</ele><time>2026-04-27T16:50:32Z</time></trkpt><trkpt lat="42.309098628601596" lon="13.747153495955011"><ele>495.0</ele><time>2026-04-27T16:50:33Z</time></trkpt><trkpt lat="42.309178484397606" lon="13.747044645482488"><ele>495.0</ele><time>2026-04-27T16:50:34Z</time></trkpt><trkpt lat="42.30926411323915" lon="13.746904074162357"><ele>495.0</ele><time>2026-04-27T16:50:35Z</time></trkpt><trkpt lat="42.30935048781639" lon="13.746765803269637"><ele>495.0</ele><time>2026-04-27T16:50:36Z</time></trkpt><trkpt lat="42.30941705449497" lon="13.746658656488735"><ele>499.2</ele><time>2026-04-27T16:50:37Z</time></trkpt><trkpt lat="42.30948800127028" lon="13.746560963428928"><ele>503.4</ele><time>2026-04-27T16:50:38Z</time></trkpt><trkpt lat="42.30955811039103" lon="13.746482606019807"><ele>507.6</ele><time>2026-04-27T16:50:39Z</time></trkpt><trkpt lat="42.309649351168055" lon="13.746413255575838"><ele>511.8</ele><time>2026-04-27T16:50:41Z</time></trkpt><trkpt lat="42.30970715811604" lon="13.746452192179168"><ele>516.0</ele><time>2026-04-27T16:50:43Z</time></trkpt><trkpt lat="42.30982100618228" lon="13.746567086683052"><ele>516.0</ele><time>2026-04-27T16:50:45Z</time></trkpt><trkpt lat="42.30989660924227" lon="13.746626573550712"><ele>516.0</ele><time>2026-04-27T16:50:46Z</time></trkpt><trkpt lat="42.30998187904363" lon="13.746689384143806"><ele>516.0</ele><time>2026-04-27T16:50:47Z</time></trkpt><trkpt lat="42.310050231336376" lon="13.746732777050177"><ele>516.0</ele><time>2026-04-27T16:50:48Z</time></trkpt><trkpt lat="42.31013784787885" lon="13.746794602688327"><ele>516.0</ele><time>2026-04-27T16:50:49Z</time></trkpt><trkpt lat="42.310236841933666" lon="13.746852522763419"><ele>511.8</ele><time>2026-04-27T16:50:50Z</time></trkpt><trkpt lat="42.31034122286153" lon="13.74690169285571"><ele>507.6</ele><time>2026-04-27T16:50:51Z</time></trkpt><trkpt lat="42.310425302004155" lon="13.746938884375183"><ele>503.4</ele><time>2026-04-27T16:50:52Z</time></trkpt><trkpt lat="42.31049267297418" lon="13.74697794867938"><ele>499.2</ele><time>2026-04-27T16:50:53Z</time></trkpt><trkpt lat="42.31057985995222" lon="13.747024175410889"><ele>495.0</ele><time>2026-04-27T16:50:54Z</time></trkpt><trkpt lat="42.310667967475204" lon="13.747069824337506"><ele>495.0</ele><time>2026-04-27T16:50:55Z</time></trkpt><trkpt lat="42.31077837171149" lon="13.747121257633006"><ele>495.0</ele><time>2026-04-27T16:50:56Z</time></trkpt><trkpt lat="42.31086647592116" lon="13.74717756660589"><ele>495.0</ele><time>2026-04-27T16:50:57Z</time></trkpt><trkpt lat="42.310981326780684" lon="13.74722894872367"><ele>495.0</ele><time>2026-04-27T16:50:58Z</time></trkpt><trkpt lat="42.31107490426912" lon="13.747269991400094"><ele>495.0</ele><time>2026-04-27T16:50:59Z</time></trkpt><trkpt lat="42.311166727427384" lon="13.74731856012899"><ele>495.0</ele><time>2026-04-27T16:51:00Z</time></trkpt><trkpt lat="42.311259533027425" lon="13.747359821188462"><ele>495.0</ele><time>2026-04-27T16:51:01Z</time></trkpt><trkpt lat="42.311358911356564" lon="13.747408096997063"><ele>495.0</ele><time>2026-04-27T16:51:02Z</time></trkpt><trkpt lat="42.31145647891443" lon="13.74746000051206"><ele>495.0</ele><time>2026-04-27T16:51:03Z</time></trkpt><trkpt lat="42.311540517435084" lon="13.74749969403921"><ele>495.0</ele><time>2026-04-27T16:51:04Z</time></trkpt><trkpt lat="42.31163508382123" lon="13.747554343818557"><ele>497.0</ele><time>2026-04-27T16:51:05Z</time></trkpt><trkpt lat="42.31172726047121" lon="13.747601372715634"><ele>499.0</ele><time>2026-04-27T16:51:06Z</time></trkpt><trkpt lat="42.311818549353575" lon="13.747650473061247"><ele>501.0</ele><time>2026-04-27T16:51:07Z</time></trkpt><trkpt lat="42.31190808695623" lon="13.74770138687815"><ele>503.0</ele><time>2026-04-27T16:51:08Z</time></trkpt><trkpt lat="42.31200146670615" lon="13.747746646833148"><ele>505.0</ele><time>2026-04-27T16:51:09Z</time></trkpt><trkpt lat="42.31208528450636" lon="13.747794724765123"><ele>499.2</ele><time>2026-04-27T16:51:10Z</time></trkpt><trkpt lat="42.312191840650534" lon="13.747836618355894"><ele>493.4</ele><time>2026-04-27T16:51:11Z</time></trkpt><trkpt lat="42.31229185994782" lon="13.747881232276926"><ele>487.6</ele><time>2026-04-27T16:51:12Z</time></trkpt><trkpt lat="42.312394729560545" lon="13.74793599465722"><ele>481.8</ele><time>2026-04-27T16:51:13Z</time></trkpt><trkpt lat="42.31250213996081" lon="13.747980603864722"><ele>476.0</ele><time>2026-04-27T16:51:14Z</time></trkpt><trkpt lat="42.312608215986685" lon="13.748027544516793"><ele>475.6</ele><time>2026-04-27T16:51:15Z</time></trkpt><trkpt lat="42.31269987450633" lon="13.748090230918747"><ele>475.20000000000005</ele><time>2026-04-27T16:51:16Z</time></trkpt><trkpt lat="42.312799047174536" lon="13.748142260123984"><ele>474.79999999999995</ele><time>2026-04-27T16:51:17Z</time></trkpt><trkpt lat="42.31289338806754" lon="13.748199543664047"><ele>474.4</ele><time>2026-04-27T16:51:18Z</time></trkpt><trkpt lat="42.31298420109157" lon="13.748256075781658"><ele>474.0</ele><time>2026-04-27T16:51:19Z</time></trkpt><trkpt lat="42.313088323579095" lon="13.748319100817934"><ele>473.5</ele><time>2026-04-27T16:51:20Z</time></trkpt><trkpt lat="42.313193899442766" lon="13.748372379928858"><ele>473.0</ele><time>2026-04-27T16:51:21Z</time></trkpt><trkpt lat="42.3133125715704" lon="13.748423782276607"><ele>472.5</ele><time>2026-04-27T16:51:22Z</time></trkpt><trkpt lat="42.313428062240924" lon="13.748471950294203"><ele>472.0</ele><time>2026-04-27T16:51:23Z</time></trkpt><trkpt lat="42.313526400256634" lon="13.748532771344061"><ele>468.1666666666667</ele><time>2026-04-27T16:51:24Z</time></trkpt><trkpt lat="42.3136141960707" lon="13.748573280879173"><ele>464.33333333333337</ele><time>2026-04-27T16:51:25Z</time></trkpt><trkpt lat="42.31369425955671" lon="13.748591602421223"><ele>460.5</ele><time>2026-04-27T16:51:26Z</time></trkpt><trkpt lat="42.31377479832931" lon="13.748594989496905"><ele>456.66666666666663</ele><time>2026-04-27T16:51:27Z</time></trkpt><trkpt lat="42.31386122409502" lon="13.74859278669148"><ele>452.8333333333333</ele><time>2026-04-27T16:51:28Z</time></trkpt><trkpt lat="42.31396816776672" lon="13.748581873756603"><ele>449.0</ele><time>2026-04-27T16:51:29Z</time></trkpt><trkpt lat="42.31407600724255" lon="13.748580274333813"><ele>449.0</ele><time>2026-04-27T16:51:30Z</time></trkpt><trkpt lat="42.314198007177474" lon="13.74858313852312"><ele>449.0</ele><time>2026-04-27T16:51:31Z</time></trkpt><trkpt lat="42.31431222817939" lon="13.748589295057895"><ele>449.0</ele><time>2026-04-27T16:51:32Z</time></trkpt><trkpt lat="42.31441336845483" lon="13.748596973522606"><ele>449.0</ele><time>2026-04-27T16:51:33Z</time></trkpt><trkpt lat="42.314516359593746" lon="13.748595465784446"><ele>449.0</ele><time>2026-04-27T16:51:34Z</time></trkpt><trkpt lat="42.31463769725677" lon="13.74859307237886"><ele>448.79999999999995</ele><time>2026-04-27T16:51:35Z</time></trkpt><trkpt lat="42.314742553014966" lon="13.74858498451255"><ele>448.59999999999997</ele><time>2026-04-27T16:51:36Z</time></trkpt><trkpt lat="42.314833162782975" lon="13.74859312883649"><ele>448.4</ele><time>2026-04-27T16:51:37Z</time></trkpt><trkpt lat="42.31492256328201" lon="13.748604148744523"><ele>448.2</ele><time>2026-04-27T16:51:38Z</time></trkpt><trkpt lat="42.315035410390585" lon="13.748612088835912"><ele>448.0</ele><time>2026-04-27T16:51:39Z</time></trkpt><trkpt lat="42.315157841069166" lon="13.748611816701237"><ele>448.0</ele><time>2026-04-27T16:51:40Z</time></trkpt><trkpt lat="42.31526362967826" lon="13.748620487919778"><ele>448.0</ele><time>2026-04-27T16:51:41Z</time></trkpt><trkpt lat="42.31537725973852" lon="13.748631568580276"><ele>448.0</ele><time>2026-04-27T16:51:42Z</time></trkpt><trkpt lat="42.31550570133341" lon="13.748620893077826"><ele>448.0</ele><time>2026-04-27T16:51:43Z</time></trkpt><trkpt lat="42.31562724231003" lon="13.748601858281676"><ele>448.75</ele><time>2026-04-27T16:51:44Z</time></trkpt><trkpt lat="42.315767844245045" lon="13.748588890059114"><ele>449.5</ele><time>2026-04-27T16:51:45Z</time></trkpt><trkpt lat="42.31589125436619" lon="13.748588351855698"><ele>450.25</ele><time>2026-04-27T16:51:46Z</time></trkpt><trkpt lat="42.31599472988873" lon="13.748612084507306"><ele>451.0</ele><time>2026-04-27T16:51:47Z</time></trkpt><trkpt lat="42.316100219433146" lon="13.748641073661377"><ele>451.0</ele><time>2026-04-27T16:51:48Z</time></trkpt><trkpt lat="42.316216142145315" lon="13.748650944436731"><ele>451.0</ele><time>2026-04-27T16:51:49Z</time></trkpt><trkpt lat="42.31631574058861" lon="13.74866246255466"><ele>451.0</ele><time>2026-04-27T16:51:50Z</time></trkpt><trkpt lat="42.31639704105752" lon="13.748677706664557"><ele>451.0</ele><time>2026-04-27T16:51:51Z</time></trkpt><trkpt lat="42.31646409318895" lon="13.748722219258283"><ele>451.0</ele><time>2026-04-27T16:51:52Z</time></trkpt><trkpt lat="42.316535686718616" lon="13.748785519389102"><ele>452.20000000000005</ele><time>2026-04-27T16:51:53Z</time></trkpt><trkpt lat="42.31661248589678" lon="13.748864344780054"><ele>453.40000000000003</ele><time>2026-04-27T16:51:54Z</time></trkpt><trkpt lat="42.31669555564379" lon="13.748974108545328"><ele>454.6</ele><time>2026-04-27T16:51:55Z</time></trkpt><trkpt lat="42.31677651967607" lon="13.74909661999538"><ele>455.8</ele><time>2026-04-27T16:51:56Z</time></trkpt><trkpt lat="42.3168508208007" lon="13.749203185826698"><ele>457.0</ele><time>2026-04-27T16:51:57Z</time></trkpt><trkpt lat="42.31692178459491" lon="13.749291770199193"><ele>457.00000000000006</ele><time>2026-04-27T16:51:58Z</time></trkpt><trkpt lat="42.31699821781118" lon="13.749356734107858"><ele>457.0</ele><time>2026-04-27T16:51:59Z</time></trkpt><trkpt lat="42.317058896849296" lon="13.749398440323663"><ele>457.0</ele><time>2026-04-27T16:52:00Z</time></trkpt><trkpt lat="42.317142124189125" lon="13.74945327588801"><ele>457.0</ele><time>2026-04-27T16:52:01Z</time></trkpt><trkpt lat="42.31722202194312" lon="13.749509898908416"><ele>457.00000000000006</ele><time>2026-04-27T16:52:02Z</time></trkpt><trkpt lat="42.31729657252237" lon="13.749563257199513"><ele>457.0</ele><time>2026-04-27T16:52:03Z</time></trkpt><trkpt lat="42.317372844880865" lon="13.749627528505306"><ele>456.33333333333337</ele><time>2026-04-27T16:52:04Z</time></trkpt><trkpt lat="42.31744080399024" lon="13.74968552396318"><ele>455.6666666666667</ele><time>2026-04-27T16:52:05Z</time></trkpt><trkpt lat="42.31750252366363" lon="13.749738191489717"><ele>455.0</ele><time>2026-04-27T16:52:06Z</time></trkpt><trkpt lat="42.317562704728196" lon="13.74977221111462"><ele>454.33333333333337</ele><time>2026-04-27T16:52:07Z</time></trkpt><trkpt lat="42.317663654052666" lon="13.749791624814431"><ele>453.6666666666667</ele><time>2026-04-27T16:52:09Z</time></trkpt><trkpt lat="42.31774147206993" lon="13.749867611879731"><ele>453.0</ele><time>2026-04-27T16:52:11Z</time></trkpt><trkpt lat="42.31778988574521" lon="13.749945891910166"><ele>453.0</ele><time>2026-04-27T16:52:12Z</time></trkpt><trkpt lat="42.317859867846124" lon="13.750002048454373"><ele>452.99999999999994</ele><time>2026-04-27T16:52:13Z</time></trkpt><trkpt lat="42.31793804459162" lon="13.75003564190505"><ele>452.99999999999994</ele><time>2026-04-27T16:52:14Z</time></trkpt><trkpt lat="42.3180001458633" lon="13.750080115655857"><ele>453.0</ele><time>2026-04-27T16:52:15Z</time></trkpt><trkpt lat="42.3180973387333" lon="13.750156779858091"><ele>453.0</ele><time>2026-04-27T16:52:17Z</time></trkpt><trkpt lat="42.31819461594095" lon="13.750210596274167"><ele>452.6666666666667</ele><time>2026-04-27T16:52:19Z</time></trkpt><trkpt lat="42.31815405563231" lon="13.750359392972578"><ele>452.33333333333337</ele><time>2026-04-27T16:52:22Z</time></trkpt><trkpt lat="42.3180955084482" lon="13.750420123621396"><ele>452.0</ele><time>2026-04-27T16:52:23Z</time></trkpt><trkpt lat="42.31803870050234" lon="13.750498910662728"><ele>451.6666666666667</ele><time>2026-04-27T16:52:24Z</time></trkpt><trkpt lat="42.31798671066552" lon="13.750585716090825"><ele>451.33333333333337</ele><time>2026-04-27T16:52:25Z</time></trkpt><trkpt lat="42.317940154848266" lon="13.750692312493998"><ele>451.0</ele><time>2026-04-27T16:52:26Z</time></trkpt><trkpt lat="42.31788567451036" lon="13.750823737102978"><ele>449.6666666666667</ele><time>2026-04-27T16:52:27Z</time></trkpt><trkpt lat="42.31783775943812" lon="13.750932029927519"><ele>448.33333333333337</ele><time>2026-04-27T16:52:28Z</time></trkpt><trkpt lat="42.31778622378595" lon="13.751032927579233"><ele>447.0</ele><time>2026-04-27T16:52:29Z</time></trkpt><trkpt lat="42.31773867284094" lon="13.7511334501859"><ele>445.66666666666663</ele><time>2026-04-27T16:52:30Z</time></trkpt><trkpt lat="42.31770180415568" lon="13.751247841789407"><ele>444.3333333333333</ele><time>2026-04-27T16:52:31Z</time></trkpt><trkpt lat="42.31767456477782" lon="13.75135036167009"><ele>443.0</ele><time>2026-04-27T16:52:32Z</time></trkpt><trkpt lat="42.317644702181674" lon="13.751478110937171"><ele>442.4</ele><time>2026-04-27T16:52:34Z</time></trkpt><trkpt lat="42.31767474921727" lon="13.751563447367745"><ele>441.79999999999995</ele><time>2026-04-27T16:52:38Z</time></trkpt><trkpt lat="42.31783327680683" lon="13.75157183568313"><ele>441.2</ele><time>2026-04-27T16:52:40Z</time></trkpt><trkpt lat="42.31793224004252" lon="13.751557948963955"><ele>440.6</ele><time>2026-04-27T16:52:41Z</time></trkpt><trkpt lat="42.31802623772952" lon="13.751527664716134"><ele>440.0</ele><time>2026-04-27T16:52:42Z</time></trkpt><trkpt lat="42.31813012371879" lon="13.75147501926371"><ele>440.0</ele><time>2026-04-27T16:52:43Z</time></trkpt><trkpt lat="42.318234076957175" lon="13.751410470103027"><ele>440.0</ele><time>2026-04-27T16:52:44Z</time></trkpt><trkpt lat="42.31834502425097" lon="13.751339839483192"><ele>440.0</ele><time>2026-04-27T16:52:45Z</time></trkpt><trkpt lat="42.318468464880716" lon="13.75131712415105"><ele>440.0</ele><time>2026-04-27T16:52:46Z</time></trkpt><trkpt lat="42.318581147312514" lon="13.751275012591377"><ele>440.0</ele><time>2026-04-27T16:52:47Z</time></trkpt><trkpt lat="42.31866031553159" lon="13.751279057386771"><ele>440.0</ele><time>2026-04-27T16:52:48Z</time></trkpt><trkpt lat="42.31878256035818" lon="13.751332299398497"><ele>440.0</ele><time>2026-04-27T16:52:50Z</time></trkpt><trkpt lat="42.31886688551045" lon="13.751349414653518"><ele>440.0</ele><time>2026-04-27T16:52:51Z</time></trkpt><trkpt lat="42.318964719439215" lon="13.751362967026564"><ele>440.0</ele><time>2026-04-27T16:52:52Z</time></trkpt><trkpt lat="42.319059607851976" lon="13.751369842867131"><ele>440.99999999999994</ele><time>2026-04-27T16:52:53Z</time></trkpt><trkpt lat="42.31913316300267" lon="13.751375829163477"><ele>442.0</ele><time>2026-04-27T16:52:54Z</time></trkpt><trkpt lat="42.31919288297949" lon="13.751443728324288"><ele>443.0</ele><time>2026-04-27T16:52:56Z</time></trkpt><trkpt lat="42.31917618386928" lon="13.751543095275824"><ele>444.0</ele><time>2026-04-27T16:52:57Z</time></trkpt><trkpt lat="42.31921257718262" lon="13.751636796081115"><ele>444.99999999999994</ele><time>2026-04-27T16:52:58Z</time></trkpt><trkpt lat="42.319248030373515" lon="13.751749406892651"><ele>446.0</ele><time>2026-04-27T16:52:59Z</time></trkpt><trkpt lat="42.319290659076145" lon="13.751867754185348"><ele>443.4</ele><time>2026-04-27T16:53:00Z</time></trkpt><trkpt lat="42.31934828306415" lon="13.751976177908155"><ele>440.8</ele><time>2026-04-27T16:53:01Z</time></trkpt><trkpt lat="42.31940199436701" lon="13.7520877107309"><ele>438.19999999999993</ele><time>2026-04-27T16:53:02Z</time></trkpt><trkpt lat="42.31945728248599" lon="13.752198471200122"><ele>435.59999999999997</ele><time>2026-04-27T16:53:03Z</time></trkpt><trkpt lat="42.319504068505864" lon="13.752296899247304"><ele>433.0</ele><time>2026-04-27T16:53:04Z</time></trkpt><trkpt lat="42.319544398140664" lon="13.752401034294632"><ele>433.00000000000006</ele><time>2026-04-27T16:53:05Z</time></trkpt><trkpt lat="42.31957275365803" lon="13.752522076017977"><ele>433.0</ele><time>2026-04-27T16:53:06Z</time></trkpt><trkpt lat="42.31961845645704" lon="13.752619488683111"><ele>433.0</ele><time>2026-04-27T16:53:07Z</time></trkpt><trkpt lat="42.31963134943115" lon="13.752735950548114"><ele>433.0</ele><time>2026-04-27T16:53:08Z</time></trkpt><trkpt lat="42.319673789285225" lon="13.752838858086866"><ele>433.00000000000006</ele><time>2026-04-27T16:53:09Z</time></trkpt><trkpt lat="42.31970067680788" lon="13.752935623970885"><ele>433.0</ele><time>2026-04-27T16:53:10Z</time></trkpt><trkpt lat="42.319719599723925" lon="13.75306887319147"><ele>432.59999999999997</ele><time>2026-04-27T16:53:11Z</time></trkpt><trkpt lat="42.31975580929441" lon="13.753197331067868"><ele>432.19999999999993</ele><time>2026-04-27T16:53:12Z</time></trkpt><trkpt lat="42.31979940949441" lon="13.753350774874916"><ele>431.8</ele><time>2026-04-27T16:53:13Z</time></trkpt><trkpt lat="42.31983605680966" lon="13.753492129329503"><ele>431.4</ele><time>2026-04-27T16:53:14Z</time></trkpt><trkpt lat="42.31987211797669" lon="13.753630827946653"><ele>431.0</ele><time>2026-04-27T16:53:15Z</time></trkpt><trkpt lat="42.3199211482239" lon="13.753767771297206"><ele>431.0</ele><time>2026-04-27T16:53:16Z</time></trkpt><trkpt lat="42.31996724414382" lon="13.753913665469371"><ele>431.0</ele><time>2026-04-27T16:53:17Z</time></trkpt><trkpt lat="42.320002053511935" lon="13.754054198481265"><ele>431.0</ele><time>2026-04-27T16:53:18Z</time></trkpt><trkpt lat="42.32003738060265" lon="13.754170891284318"><ele>431.0</ele><time>2026-04-27T16:53:19Z</time></trkpt><trkpt lat="42.32006936652265" lon="13.754278546182604"><ele>431.0</ele><time>2026-04-27T16:53:20Z</time></trkpt><trkpt lat="42.320141586297694" lon="13.754381142425421"><ele>430.6</ele><time>2026-04-27T16:53:21Z</time></trkpt><trkpt lat="42.32020000514877" lon="13.754499816500239"><ele>430.20000000000005</ele><time>2026-04-27T16:53:22Z</time></trkpt><trkpt lat="42.320248711357095" lon="13.754611735550405"><ele>429.79999999999995</ele><time>2026-04-27T16:53:23Z</time></trkpt><trkpt lat="42.32027219678145" lon="13.754721650004221"><ele>429.4</ele><time>2026-04-27T16:53:24Z</time></trkpt><trkpt lat="42.320313577194646" lon="13.754839117119216"><ele>429.0</ele><time>2026-04-27T16:53:25Z</time></trkpt><trkpt lat="42.32036017847564" lon="13.75497265937018"><ele>429.0</ele><time>2026-04-27T16:53:26Z</time></trkpt><trkpt lat="42.32039173894279" lon="13.755067862328286"><ele>429.0</ele><time>2026-04-27T16:53:27Z</time></trkpt><trkpt lat="42.32042165053969" lon="13.755166181626883"><ele>429.0</ele><time>2026-04-27T16:53:28Z</time></trkpt><trkpt lat="42.32047126012646" lon="13.755294626815063"><ele>429.0</ele><time>2026-04-27T16:53:30Z</time></trkpt><trkpt lat="42.32046839869242" lon="13.755441186838768"><ele>429.0</ele><time>2026-04-27T16:53:32Z</time></trkpt><trkpt lat="42.32048772209846" lon="13.755573497520377"><ele>431.0</ele><time>2026-04-27T16:53:34Z</time></trkpt><trkpt lat="42.32073323936298" lon="13.755604172582201"><ele>433.0</ele><time>2026-04-27T16:53:35Z</time></trkpt><trkpt lat="42.3207977607726" lon="13.75567352763513"><ele>435.0</ele><time>2026-04-27T16:53:36Z</time></trkpt><trkpt lat="42.32087245466104" lon="13.755746404646311"><ele>437.0</ele><time>2026-04-27T16:53:37Z</time></trkpt><trkpt lat="42.32094714657055" lon="13.755808906790213"><ele>437.0</ele><time>2026-04-27T16:53:38Z</time></trkpt><trkpt lat="42.32102266533817" lon="13.755859067923083"><ele>437.00000000000006</ele><time>2026-04-27T16:53:39Z</time></trkpt><trkpt lat="42.32110303990073" lon="13.755919313710875"><ele>437.00000000000006</ele><time>2026-04-27T16:53:40Z</time></trkpt><trkpt lat="42.321171315448524" lon="13.756012750057042"><ele>437.0</ele><time>2026-04-27T16:53:41Z</time></trkpt><trkpt lat="42.321231296252435" lon="13.756135397446359"><ele>437.0</ele><time>2026-04-27T16:53:42Z</time></trkpt><trkpt lat="42.321298136923964" lon="13.756258876513815"><ele>438.0</ele><time>2026-04-27T16:53:43Z</time></trkpt><trkpt lat="42.32137550214496" lon="13.756359768375932"><ele>439.0</ele><time>2026-04-27T16:53:44Z</time></trkpt><trkpt lat="42.321475488422855" lon="13.756453562170647"><ele>440.0</ele><time>2026-04-27T16:53:45Z</time></trkpt><trkpt lat="42.32158080969519" lon="13.756539543180983"><ele>441.0</ele><time>2026-04-27T16:53:46Z</time></trkpt><trkpt lat="42.32168706775516" lon="13.75664285608332"><ele>442.20000000000005</ele><time>2026-04-27T16:53:47Z</time></trkpt><trkpt lat="42.32179182183579" lon="13.756748520218444"><ele>443.40000000000003</ele><time>2026-04-27T16:53:48Z</time></trkpt><trkpt lat="42.32187507618096" lon="13.756833900904201"><ele>444.6</ele><time>2026-04-27T16:53:49Z</time></trkpt><trkpt lat="42.3219582090484" lon="13.756902773943345"><ele>445.8</ele><time>2026-04-27T16:53:50Z</time></trkpt><trkpt lat="42.322033782779016" lon="13.756922351473195"><ele>447.0</ele><time>2026-04-27T16:53:51Z</time></trkpt><trkpt lat="42.32211493596756" lon="13.756943512012949"><ele>447.6666666666667</ele><time>2026-04-27T16:53:52Z</time></trkpt><trkpt lat="42.322183079692266" lon="13.75697780597432"><ele>448.33333333333337</ele><time>2026-04-27T16:53:53Z</time></trkpt><trkpt lat="42.322237012542885" lon="13.757034297582413"><ele>449.0</ele><time>2026-04-27T16:53:54Z</time></trkpt><trkpt lat="42.322283557843534" lon="13.757106209781474"><ele>449.6666666666667</ele><time>2026-04-27T16:53:55Z</time></trkpt><trkpt lat="42.32234595719735" lon="13.757197921127142"><ele>450.33333333333337</ele><time>2026-04-27T16:53:56Z</time></trkpt><trkpt lat="42.32239417285151" lon="13.75730635233258"><ele>451.0</ele><time>2026-04-27T16:53:57Z</time></trkpt><trkpt lat="42.32246021168796" lon="13.757414733318676"><ele>452.4</ele><time>2026-04-27T16:53:58Z</time></trkpt><trkpt lat="42.32250398525074" lon="13.757501903990306"><ele>453.8</ele><time>2026-04-27T16:53:59Z</time></trkpt><trkpt lat="42.32255872544456" lon="13.757617236318325"><ele>455.19999999999993</ele><time>2026-04-27T16:54:00Z</time></trkpt><trkpt lat="42.322573672725554" lon="13.757755501575145"><ele>456.59999999999997</ele><time>2026-04-27T16:54:01Z</time></trkpt><trkpt lat="42.322620473156405" lon="13.757892747649693"><ele>458.0</ele><time>2026-04-27T16:54:02Z</time></trkpt><trkpt lat="42.322665143856824" lon="13.758009770617102"><ele>458.59999999999997</ele><time>2026-04-27T16:54:03Z</time></trkpt><trkpt lat="42.32269568035321" lon="13.758112485078295"><ele>459.19999999999993</ele><time>2026-04-27T16:54:04Z</time></trkpt><trkpt lat="42.32271353104306" lon="13.758195907743476"><ele>459.8</ele><time>2026-04-27T16:54:06Z</time></trkpt><trkpt lat="42.32286857571203" lon="13.758206731485847"><ele>460.4</ele><time>2026-04-27T16:54:08Z</time></trkpt><trkpt lat="42.32294957853507" lon="13.758213897857926"><ele>461.0</ele><time>2026-04-27T16:54:09Z</time></trkpt><trkpt lat="42.323038362053516" lon="13.75822380549178"><ele>463.0</ele><time>2026-04-27T16:54:10Z</time></trkpt><trkpt lat="42.32311996816438" lon="13.758255837596188"><ele>465.0</ele><time>2026-04-27T16:54:10.999Z</time></trkpt><trkpt lat="42.3232075175501" lon="13.758303884229148"><ele>467.0</ele><time>2026-04-27T16:54:11.999Z</time></trkpt><trkpt lat="42.32330537485482" lon="13.758353272202477"><ele>469.0</ele><time>2026-04-27T16:54:12.999Z</time></trkpt><trkpt lat="42.323396184073" lon="13.758408482275621"><ele>471.0</ele><time>2026-04-27T16:54:13.999Z</time></trkpt><trkpt lat="42.3235047446107" lon="13.758459835126377"><ele>471.6</ele><time>2026-04-27T16:54:14.999Z</time></trkpt><trkpt lat="42.323605286726625" lon="13.758538237416483"><ele>472.20000000000005</ele><time>2026-04-27T16:54:15.999Z</time></trkpt><trkpt lat="42.32369159943382" lon="13.758605235773336"><ele>472.79999999999995</ele><time>2026-04-27T16:54:16.999Z</time></trkpt><trkpt lat="42.32377618204971" lon="13.75869078027058"><ele>473.4</ele><time>2026-04-27T16:54:17.999Z</time></trkpt><trkpt lat="42.32383833597145" lon="13.758785689292951"><ele>474.0</ele><time>2026-04-27T16:54:18.999Z</time></trkpt><trkpt lat="42.32389369566882" lon="13.758905956826837"><ele>475.2</ele><time>2026-04-27T16:54:19.999Z</time></trkpt><trkpt lat="42.323920792760255" lon="13.759020773094464"><ele>476.4</ele><time>2026-04-27T16:54:20.999Z</time></trkpt><trkpt lat="42.32392232352807" lon="13.759143426248247"><ele>477.6</ele><time>2026-04-27T16:54:21.999Z</time></trkpt><trkpt lat="42.32393975736109" lon="13.759285631834478"><ele>478.8</ele><time>2026-04-27T16:54:22.999Z</time></trkpt><trkpt lat="42.32396196438193" lon="13.759402332466935"><ele>480.0</ele><time>2026-04-27T16:54:23.999Z</time></trkpt><trkpt lat="42.32399350941605" lon="13.759523030698764"><ele>481.0</ele><time>2026-04-27T16:54:24.999Z</time></trkpt><trkpt lat="42.32402019804729" lon="13.759624413209792"><ele>482.0</ele><time>2026-04-27T16:54:25.999Z</time></trkpt><trkpt lat="42.32406090053701" lon="13.75970971441714"><ele>483.0</ele><time>2026-04-27T16:54:26.999Z</time></trkpt><trkpt lat="42.32409064234646" lon="13.759791897680358"><ele>484.0</ele><time>2026-04-27T16:54:27.999Z</time></trkpt><trkpt lat="42.32412219453663" lon="13.759879083411722"><ele>485.0</ele><time>2026-04-27T16:54:28.999Z</time></trkpt><trkpt lat="42.324159613893904" lon="13.759982481424622"><ele>486.0</ele><time>2026-04-27T16:54:29.999Z</time></trkpt><trkpt lat="42.324189242105746" lon="13.760064350402917"><ele>487.0</ele><time>2026-04-27T16:54:30.999Z</time></trkpt><trkpt lat="42.324222190018276" lon="13.76015539227153"><ele>487.0</ele><time>2026-04-27T16:54:31.999Z</time></trkpt><trkpt lat="42.32437197201736" lon="13.760161260310326"><ele>487.00000000000006</ele><time>2026-04-27T16:54:32.999Z</time></trkpt><trkpt lat="42.324459059618874" lon="13.760204354661337"><ele>487.00000000000006</ele><time>2026-04-27T16:54:34Z</time></trkpt><trkpt lat="42.32455328917257" lon="13.760246494162283"><ele>487.0</ele><time>2026-04-27T16:54:35Z</time></trkpt><trkpt lat="42.32465117208258" lon="13.760292599795743"><ele>487.0</ele><time>2026-04-27T16:54:36Z</time></trkpt><trkpt lat="42.32475163482261" lon="13.760339823101454"><ele>489.6</ele><time>2026-04-27T16:54:37Z</time></trkpt><trkpt lat="42.324844252858824" lon="13.76038738023897"><ele>492.20000000000005</ele><time>2026-04-27T16:54:38Z</time></trkpt><trkpt lat="42.32492055957613" lon="13.760429966889028"><ele>494.8</ele><time>2026-04-27T16:54:39Z</time></trkpt><trkpt lat="42.325013200382976" lon="13.760487480885645"><ele>497.4</ele><time>2026-04-27T16:54:41Z</time></trkpt><trkpt lat="42.32490211239556" lon="13.760599061207351"><ele>500.0</ele><time>2026-04-27T16:54:50Z</time></trkpt><trkpt lat="42.3248477639645" lon="13.760686612121914"><ele>500.0</ele><time>2026-04-27T16:54:51Z</time></trkpt><trkpt lat="42.32478734032813" lon="13.760757713675494"><ele>500.0</ele><time>2026-04-27T16:54:52Z</time></trkpt><trkpt lat="42.324711722967145" lon="13.760805889242082"><ele>500.0</ele><time>2026-04-27T16:54:53Z</time></trkpt><trkpt lat="42.32456885993942" lon="13.760846129079964"><ele>500.0</ele><time>2026-04-27T16:54:55Z</time></trkpt><trkpt lat="42.32446981339314" lon="13.760847758699727"><ele>500.0</ele><time>2026-04-27T16:54:56Z</time></trkpt><trkpt lat="42.324373744413656" lon="13.760840373459926"><ele>500.0</ele><time>2026-04-27T16:54:57Z</time></trkpt><trkpt lat="42.32427199155266" lon="13.760826929837718"><ele>500.0</ele><time>2026-04-27T16:54:58Z</time></trkpt><trkpt lat="42.32417436534642" lon="13.760827299976468"><ele>500.0</ele><time>2026-04-27T16:54:59Z</time></trkpt><trkpt lat="42.32407202531885" lon="13.760809709978133"><ele>500.0</ele><time>2026-04-27T16:55:00Z</time></trkpt><trkpt lat="42.323967392162835" lon="13.760785771998846"><ele>500.0</ele><time>2026-04-27T16:55:01Z</time></trkpt><trkpt lat="42.3238542924293" lon="13.760795891687195"><ele>499.8</ele><time>2026-04-27T16:55:02Z</time></trkpt><trkpt lat="42.323739700134816" lon="13.760818927990488"><ele>499.6</ele><time>2026-04-27T16:55:03Z</time></trkpt><trkpt lat="42.32363538821206" lon="13.760815299218299"><ele>499.4</ele><time>2026-04-27T16:55:04Z</time></trkpt><trkpt lat="42.32353445327065" lon="13.760796938641747"><ele>499.2</ele><time>2026-04-27T16:55:05Z</time></trkpt><trkpt lat="42.323418443252464" lon="13.76079750060172"><ele>499.0</ele><time>2026-04-27T16:55:06Z</time></trkpt><trkpt lat="42.323294066450735" lon="13.760827063558818"><ele>499.0</ele><time>2026-04-27T16:55:07Z</time></trkpt><trkpt lat="42.323164250663034" lon="13.760839189109523"><ele>499.0</ele><time>2026-04-27T16:55:08Z</time></trkpt><trkpt lat="42.32304994754255" lon="13.760883623252669"><ele>499.0</ele><time>2026-04-27T16:55:09Z</time></trkpt><trkpt lat="42.32292945865498" lon="13.760952852995318"><ele>499.0</ele><time>2026-04-27T16:55:10Z</time></trkpt><trkpt lat="42.322808197123024" lon="13.761036816463472"><ele>498.5</ele><time>2026-04-27T16:55:11Z</time></trkpt><trkpt lat="42.322683185432886" lon="13.761131993034107"><ele>498.0</ele><time>2026-04-27T16:55:12Z</time></trkpt><trkpt lat="42.32256423608137" lon="13.761225878683522"><ele>497.5</ele><time>2026-04-27T16:55:13Z</time></trkpt><trkpt lat="42.322450246900964" lon="13.761323983233028"><ele>497.0</ele><time>2026-04-27T16:55:14Z</time></trkpt><trkpt lat="42.32232466665025" lon="13.761388471332394"><ele>494.25</ele><time>2026-04-27T16:55:15Z</time></trkpt><trkpt lat="42.32219870526607" lon="13.761466432114396"><ele>491.5</ele><time>2026-04-27T16:55:16Z</time></trkpt><trkpt lat="42.32207942625649" lon="13.761542228548223"><ele>488.75</ele><time>2026-04-27T16:55:17Z</time></trkpt><trkpt lat="42.32197098002874" lon="13.761612606457017"><ele>486.0</ele><time>2026-04-27T16:55:18Z</time></trkpt><trkpt lat="42.32187892808966" lon="13.761673013548533"><ele>486.0</ele><time>2026-04-27T16:55:19Z</time></trkpt><trkpt lat="42.32180084450353" lon="13.761728615758976"><ele>486.0</ele><time>2026-04-27T16:55:20Z</time></trkpt><trkpt lat="42.32174231374565" lon="13.76178927460175"><ele>486.0</ele><time>2026-04-27T16:55:21Z</time></trkpt><trkpt lat="42.32163504123622" lon="13.761780808846607"><ele>486.0</ele><time>2026-04-27T16:55:23Z</time></trkpt><trkpt lat="42.321588700837424" lon="13.761689478738749"><ele>486.0</ele><time>2026-04-27T16:55:24Z</time></trkpt><trkpt lat="42.32152102161008" lon="13.761625641340238"><ele>486.0</ele><time>2026-04-27T16:55:25Z</time></trkpt><trkpt lat="42.3214726058954" lon="13.761533942169839"><ele>486.0</ele><time>2026-04-27T16:55:26Z</time></trkpt><trkpt lat="42.32143600888277" lon="13.761440377547054"><ele>486.0</ele><time>2026-04-27T16:55:27Z</time></trkpt><trkpt lat="42.32141757858027" lon="13.761342382664878"><ele>486.0</ele><time>2026-04-27T16:55:28Z</time></trkpt><trkpt lat="42.321414787297066" lon="13.761236777055386"><ele>486.0</ele><time>2026-04-27T16:55:29Z</time></trkpt><trkpt lat="42.321416305735355" lon="13.761130511215606"><ele>486.0</ele><time>2026-04-27T16:55:30Z</time></trkpt><trkpt lat="42.32140351327662" lon="13.76101326103592"><ele>486.0</ele><time>2026-04-27T16:55:31Z</time></trkpt><trkpt lat="42.32137869717396" lon="13.760914685339188"><ele>483.3333333333333</ele><time>2026-04-27T16:55:32Z</time></trkpt><trkpt lat="42.32134622472953" lon="13.76082034696745"><ele>480.66666666666663</ele><time>2026-04-27T16:55:33Z</time></trkpt><trkpt lat="42.32130673970167" lon="13.760718656503743"><ele>478.0</ele><time>2026-04-27T16:55:34Z</time></trkpt><trkpt lat="42.321274320788106" lon="13.760617115669032"><ele>475.3333333333333</ele><time>2026-04-27T16:55:35Z</time></trkpt><trkpt lat="42.32125653812068" lon="13.760521547629862"><ele>472.66666666666663</ele><time>2026-04-27T16:55:36Z</time></trkpt><trkpt lat="42.32123853443896" lon="13.760432524565802"><ele>470.0</ele><time>2026-04-27T16:55:39Z</time></trkpt><trkpt lat="42.32105955711212" lon="13.7604454415932"><ele>470.0</ele><time>2026-04-27T16:55:43Z</time></trkpt><trkpt lat="42.32098927437675" lon="13.760486320540714"><ele>470.0</ele><time>2026-04-27T16:55:44Z</time></trkpt><trkpt lat="42.32089922691666" lon="13.760544462761994"><ele>470.0</ele><time>2026-04-27T16:55:45Z</time></trkpt><trkpt lat="42.320808787971174" lon="13.76060676041901"><ele>470.0</ele><time>2026-04-27T16:55:46Z</time></trkpt><trkpt lat="42.32072662337735" lon="13.760664902130229"><ele>470.0</ele><time>2026-04-27T16:55:47Z</time></trkpt><trkpt lat="42.320654364594056" lon="13.760716034358806"><ele>469.99999999999994</ele><time>2026-04-27T16:55:48Z</time></trkpt><trkpt lat="42.32059351366658" lon="13.760759093902564"><ele>470.0</ele><time>2026-04-27T16:55:49Z</time></trkpt><trkpt lat="42.320525336288874" lon="13.76080733863153"><ele>470.0</ele><time>2026-04-27T16:55:50Z</time></trkpt><trkpt lat="42.32046077218395" lon="13.760851498193485"><ele>470.0</ele><time>2026-04-27T16:55:51Z</time></trkpt><trkpt lat="42.320401883373734" lon="13.760898056656684"><ele>469.99999999999994</ele><time>2026-04-27T16:55:52Z</time></trkpt><trkpt lat="42.32029260212329" lon="13.760999769687745"><ele>470.0</ele><time>2026-04-27T16:55:54Z</time></trkpt><trkpt lat="42.32023411893381" lon="13.761064974736147"><ele>469.2</ele><time>2026-04-27T16:55:55Z</time></trkpt><trkpt lat="42.32017173807691" lon="13.761148997813835"><ele>468.4</ele><time>2026-04-27T16:55:56Z</time></trkpt><trkpt lat="42.320112256805594" lon="13.761237821698494"><ele>467.6</ele><time>2026-04-27T16:55:57Z</time></trkpt><trkpt lat="42.320042855422656" lon="13.76133359007215"><ele>466.8</ele><time>2026-04-27T16:55:58Z</time></trkpt><trkpt lat="42.31996861893461" lon="13.76141695613793"><ele>466.0</ele><time>2026-04-27T16:55:59Z</time></trkpt><trkpt lat="42.319875390318145" lon="13.76149902215656"><ele>466.0</ele><time>2026-04-27T16:56:00Z</time></trkpt><trkpt lat="42.319788209282386" lon="13.761569065250146"><ele>466.0</ele><time>2026-04-27T16:56:01Z</time></trkpt><trkpt lat="42.319704442367524" lon="13.761634581701873"><ele>466.0</ele><time>2026-04-27T16:56:02Z</time></trkpt><trkpt lat="42.31962190654878" lon="13.761699135234073"><ele>466.0</ele><time>2026-04-27T16:56:03Z</time></trkpt><trkpt lat="42.31952653050372" lon="13.761775470902439"><ele>466.0</ele><time>2026-04-27T16:56:04Z</time></trkpt><trkpt lat="42.31943800379978" lon="13.761846954732588"><ele>465.6</ele><time>2026-04-27T16:56:05Z</time></trkpt><trkpt lat="42.319355127821034" lon="13.76191354614444"><ele>465.20000000000005</ele><time>2026-04-27T16:56:06Z</time></trkpt><trkpt lat="42.31927950782195" lon="13.761973408955582"><ele>464.79999999999995</ele><time>2026-04-27T16:56:07Z</time></trkpt><trkpt lat="42.31920141482261" lon="13.76203068387812"><ele>464.4</ele><time>2026-04-27T16:56:08Z</time></trkpt><trkpt lat="42.31912115278972" lon="13.762085787769307"><ele>464.0</ele><time>2026-04-27T16:56:09Z</time></trkpt><trkpt lat="42.31902422727627" lon="13.762149059205935"><ele>464.0</ele><time>2026-04-27T16:56:10Z</time></trkpt><trkpt lat="42.318911722208775" lon="13.762224539833781"><ele>464.0</ele><time>2026-04-27T16:56:11Z</time></trkpt><trkpt lat="42.31879695744814" lon="13.762309039445803"><ele>464.0</ele><time>2026-04-27T16:56:12Z</time></trkpt><trkpt lat="42.318664980325295" lon="13.762413238066559"><ele>464.0</ele><time>2026-04-27T16:56:13Z</time></trkpt><trkpt lat="42.31852101133824" lon="13.76253855516836"><ele>463.75</ele><time>2026-04-27T16:56:14Z</time></trkpt><trkpt lat="42.31839603505572" lon="13.762667655315981"><ele>463.5</ele><time>2026-04-27T16:56:15Z</time></trkpt><trkpt lat="42.318293200385924" lon="13.762772976245422"><ele>463.25</ele><time>2026-04-27T16:56:16Z</time></trkpt><trkpt lat="42.31818610537936" lon="13.762870578390046"><ele>463.0</ele><time>2026-04-27T16:56:16.999Z</time></trkpt><trkpt lat="42.31806591611691" lon="13.762977637093956"><ele>461.5</ele><time>2026-04-27T16:56:17.999Z</time></trkpt><trkpt lat="42.31793187473073" lon="13.76309541021077"><ele>460.0</ele><time>2026-04-27T16:56:18.999Z</time></trkpt><trkpt lat="42.317818262293564" lon="13.76322554299376"><ele>458.5</ele><time>2026-04-27T16:56:19.999Z</time></trkpt><trkpt lat="42.317710276172164" lon="13.76332166966404"><ele>457.0</ele><time>2026-04-27T16:56:20.999Z</time></trkpt><trkpt lat="42.31762368330682" lon="13.763432951829058"><ele>457.5</ele><time>2026-04-27T16:56:21.999Z</time></trkpt><trkpt lat="42.31754556449566" lon="13.763557315350234"><ele>458.0</ele><time>2026-04-27T16:56:22.999Z</time></trkpt><trkpt lat="42.317472769596556" lon="13.763709361459084"><ele>458.5</ele><time>2026-04-27T16:56:23.999Z</time></trkpt><trkpt lat="42.31738588964887" lon="13.763852326781526"><ele>459.0</ele><time>2026-04-27T16:56:24.999Z</time></trkpt><trkpt lat="42.3173043988774" lon="13.764023134104612"><ele>457.33333333333337</ele><time>2026-04-27T16:56:25.999Z</time></trkpt><trkpt lat="42.31720384374818" lon="13.764180504895812"><ele>455.6666666666667</ele><time>2026-04-27T16:56:26.999Z</time></trkpt><trkpt lat="42.317102743510226" lon="13.764347605988565"><ele>454.0</ele><time>2026-04-27T16:56:27.999Z</time></trkpt><trkpt lat="42.31700102377753" lon="13.764507789297753"><ele>454.0</ele><time>2026-04-27T16:56:28.999Z</time></trkpt><trkpt lat="42.31690585429293" lon="13.764652942449512"><ele>454.0</ele><time>2026-04-27T16:56:29.999Z</time></trkpt><trkpt lat="42.316805612472365" lon="13.764795356804187"><ele>454.0</ele><time>2026-04-27T16:56:30.999Z</time></trkpt><trkpt lat="42.316696191460515" lon="13.764917152214489"><ele>454.0</ele><time>2026-04-27T16:56:31.999Z</time></trkpt><trkpt lat="42.3165731358803" lon="13.765037598530942"><ele>454.0</ele><time>2026-04-27T16:56:32.999Z</time></trkpt><trkpt lat="42.31643282457349" lon="13.765154543824112"><ele>454.0</ele><time>2026-04-27T16:56:33.999Z</time></trkpt><trkpt lat="42.31628123901792" lon="13.765234261231443"><ele>454.0</ele><time>2026-04-27T16:56:34.999Z</time></trkpt><trkpt lat="42.316145828479755" lon="13.765364089937986"><ele>454.75</ele><time>2026-04-27T16:56:35.999Z</time></trkpt><trkpt lat="42.3160198663342" lon="13.765467147359995"><ele>455.5</ele><time>2026-04-27T16:56:36.999Z</time></trkpt><trkpt lat="42.31591036494386" lon="13.76559291455279"><ele>456.25</ele><time>2026-04-27T16:56:37.999Z</time></trkpt><trkpt lat="42.315818961199575" lon="13.765754752347574"><ele>457.0</ele><time>2026-04-27T16:56:38.999Z</time></trkpt><trkpt lat="42.315744201544014" lon="13.765946433106954"><ele>458.33333333333337</ele><time>2026-04-27T16:56:39.999Z</time></trkpt><trkpt lat="42.3156543415355" lon="13.766129366557461"><ele>459.66666666666663</ele><time>2026-04-27T16:56:40.999Z</time></trkpt><trkpt lat="42.31555772307553" lon="13.766317399652307"><ele>461.0</ele><time>2026-04-27T16:56:41.999Z</time></trkpt><trkpt lat="42.31546632190368" lon="13.766499999099624"><ele>461.0</ele><time>2026-04-27T16:56:42.999Z</time></trkpt><trkpt lat="42.315345354072974" lon="13.76665199331945"><ele>461.0</ele><time>2026-04-27T16:56:43.999Z</time></trkpt><trkpt lat="42.31518954786682" lon="13.766758747515789"><ele>461.0</ele><time>2026-04-27T16:56:44.999Z</time></trkpt><trkpt lat="42.3150536667974" lon="13.766875249286983"><ele>462.0</ele><time>2026-04-27T16:56:45.999Z</time></trkpt><trkpt lat="42.31492818583079" lon="13.767015127481537"><ele>463.0</ele><time>2026-04-27T16:56:46.999Z</time></trkpt><trkpt lat="42.31480358574808" lon="13.76714776895541"><ele>464.0</ele><time>2026-04-27T16:56:47.999Z</time></trkpt><trkpt lat="42.31469255397089" lon="13.767303149879526"><ele>464.0</ele><time>2026-04-27T16:56:48.999Z</time></trkpt><trkpt lat="42.31460424447723" lon="13.767448438069183"><ele>464.0</ele><time>2026-04-27T16:56:49.999Z</time></trkpt><trkpt lat="42.31451648765868" lon="13.767525666201122"><ele>464.0</ele><time>2026-04-27T16:56:51Z</time></trkpt><trkpt lat="42.31444600406172" lon="13.767584346854246"><ele>464.0</ele><time>2026-04-27T16:56:52Z</time></trkpt><trkpt lat="42.31439175149717" lon="13.767628682106618"><ele>464.0</ele><time>2026-04-27T16:56:53Z</time></trkpt><trkpt lat="42.314328287943475" lon="13.767665597867534"><ele>465.0</ele><time>2026-04-27T16:56:54Z</time></trkpt><trkpt lat="42.314242161642305" lon="13.767705430354978"><ele>466.0</ele><time>2026-04-27T16:56:55Z</time></trkpt><trkpt lat="42.314149638839595" lon="13.767743463792412"><ele>467.0</ele><time>2026-04-27T16:56:56Z</time></trkpt><trkpt lat="42.314075907745725" lon="13.767807659506236"><ele>468.0</ele><time>2026-04-27T16:56:57Z</time></trkpt><trkpt lat="42.31400169752142" lon="13.767915960049912"><ele>469.0</ele><time>2026-04-27T16:56:58Z</time></trkpt><trkpt lat="42.313936975296144" lon="13.768033561654963"><ele>464.2</ele><time>2026-04-27T16:56:59Z</time></trkpt><trkpt lat="42.31388656719596" lon="13.768156187519958"><ele>459.4</ele><time>2026-04-27T16:57:00Z</time></trkpt><trkpt lat="42.31384552038063" lon="13.768294055836286"><ele>454.6</ele><time>2026-04-27T16:57:01Z</time></trkpt><trkpt lat="42.313779389314625" lon="13.768415386512151"><ele>449.8</ele><time>2026-04-27T16:57:02Z</time></trkpt><trkpt lat="42.31372052791435" lon="13.768542059436307"><ele>445.0</ele><time>2026-04-27T16:57:03Z</time></trkpt><trkpt lat="42.31366929411086" lon="13.768683929851788"><ele>445.0</ele><time>2026-04-27T16:57:04Z</time></trkpt><trkpt lat="42.31359932836147" lon="13.768821634479298"><ele>445.0</ele><time>2026-04-27T16:57:05Z</time></trkpt><trkpt lat="42.31354437914143" lon="13.768975311937307"><ele>445.0</ele><time>2026-04-27T16:57:06Z</time></trkpt><trkpt lat="42.31349192743178" lon="13.769118723907916"><ele>445.0</ele><time>2026-04-27T16:57:07Z</time></trkpt><trkpt lat="42.31342947955181" lon="13.769258571580032"><ele>445.5</ele><time>2026-04-27T16:57:08Z</time></trkpt><trkpt lat="42.313357799674904" lon="13.769392018235825"><ele>446.0</ele><time>2026-04-27T16:57:09Z</time></trkpt><trkpt lat="42.31328139310946" lon="13.769526747253076"><ele>446.5</ele><time>2026-04-27T16:57:10Z</time></trkpt><trkpt lat="42.31320180516143" lon="13.769665314590197"><ele>447.0</ele><time>2026-04-27T16:57:11Z</time></trkpt><trkpt lat="42.31309900038781" lon="13.769763542965785"><ele>443.25</ele><time>2026-04-27T16:57:12Z</time></trkpt><trkpt lat="42.31299827175692" lon="13.769870942128916"><ele>439.5</ele><time>2026-04-27T16:57:13Z</time></trkpt><trkpt lat="42.31287433716185" lon="13.769951944262793"><ele>435.75</ele><time>2026-04-27T16:57:14Z</time></trkpt><trkpt lat="42.31273542288104" lon="13.770027996181907"><ele>432.0</ele><time>2026-04-27T16:57:15Z</time></trkpt><trkpt lat="42.312598647508494" lon="13.77009946020284"><ele>432.0</ele><time>2026-04-27T16:57:16Z</time></trkpt><trkpt lat="42.312470550936894" lon="13.770144265072082"><ele>432.0</ele><time>2026-04-27T16:57:17Z</time></trkpt><trkpt lat="42.31233733200659" lon="13.770167581235091"><ele>432.0</ele><time>2026-04-27T16:57:18Z</time></trkpt><trkpt lat="42.312205390485246" lon="13.770188791074476"><ele>432.0</ele><time>2026-04-27T16:57:19Z</time></trkpt><trkpt lat="42.312067906426954" lon="13.770213829157274"><ele>433.8</ele><time>2026-04-27T16:57:20Z</time></trkpt><trkpt lat="42.31194499205975" lon="13.770239089783425"><ele>435.6</ele><time>2026-04-27T16:57:21Z</time></trkpt><trkpt lat="42.31184273372319" lon="13.770267560597336"><ele>437.40000000000003</ele><time>2026-04-27T16:57:22Z</time></trkpt><trkpt lat="42.31174614204194" lon="13.770289322029974"><ele>439.20000000000005</ele><time>2026-04-27T16:57:23Z</time></trkpt><trkpt lat="42.311654010140806" lon="13.770302179365244"><ele>441.0</ele><time>2026-04-27T16:57:24Z</time></trkpt><trkpt lat="42.311569642531026" lon="13.770347387683112"><ele>441.0</ele><time>2026-04-27T16:57:25Z</time></trkpt><trkpt lat="42.311473309130754" lon="13.770423394670201"><ele>441.0</ele><time>2026-04-27T16:57:26Z</time></trkpt><trkpt lat="42.31135518491054" lon="13.77052357989934"><ele>441.0</ele><time>2026-04-27T16:57:27Z</time></trkpt><trkpt lat="42.31123671270071" lon="13.770626494490855"><ele>441.0</ele><time>2026-04-27T16:57:28Z</time></trkpt><trkpt lat="42.311127835955766" lon="13.770700364222227"><ele>440.3333333333333</ele><time>2026-04-27T16:57:29Z</time></trkpt><trkpt lat="42.31103501106536" lon="13.770769227425802"><ele>439.66666666666663</ele><time>2026-04-27T16:57:30Z</time></trkpt><trkpt lat="42.310960311672076" lon="13.770806690324687"><ele>439.0</ele><time>2026-04-27T16:57:31Z</time></trkpt><trkpt lat="42.31088388261697" lon="13.770823793559467"><ele>438.3333333333333</ele><time>2026-04-27T16:57:32Z</time></trkpt><trkpt lat="42.31079845657819" lon="13.770819278416393"><ele>437.66666666666663</ele><time>2026-04-27T16:57:33Z</time></trkpt><trkpt lat="42.31071274842124" lon="13.7707896014418"><ele>437.0</ele><time>2026-04-27T16:57:34Z</time></trkpt><trkpt lat="42.310638950043405" lon="13.770790788378472"><ele>436.25</ele><time>2026-04-27T16:57:35Z</time></trkpt><trkpt lat="42.31052788538903" lon="13.770812736546914"><ele>435.5</ele><time>2026-04-27T16:57:36Z</time></trkpt><trkpt lat="42.31041523901272" lon="13.770820431424497"><ele>434.75</ele><time>2026-04-27T16:57:37Z</time></trkpt><trkpt lat="42.31028853532352" lon="13.770835578574466"><ele>434.0</ele><time>2026-04-27T16:57:38Z</time></trkpt><trkpt lat="42.31015629987719" lon="13.770859208281365"><ele>434.0</ele><time>2026-04-27T16:57:39Z</time></trkpt><trkpt lat="42.31002628735225" lon="13.77089783643754"><ele>434.0</ele><time>2026-04-27T16:57:40Z</time></trkpt><trkpt lat="42.30990063515089" lon="13.770977596531365"><ele>434.0</ele><time>2026-04-27T16:57:41Z</time></trkpt><trkpt lat="42.30979549052203" lon="13.771040847244429"><ele>434.0</ele><time>2026-04-27T16:57:42Z</time></trkpt><trkpt lat="42.309722882521456" lon="13.771103644359288"><ele>435.66666666666663</ele><time>2026-04-27T16:57:43Z</time></trkpt><trkpt lat="42.30966910765077" lon="13.771157288843774"><ele>437.3333333333333</ele><time>2026-04-27T16:57:44Z</time></trkpt><trkpt lat="42.30961496608027" lon="13.771223134108961"><ele>439.0</ele><time>2026-04-27T16:57:46Z</time></trkpt><trkpt lat="42.309529464225086" lon="13.771295997638237"><ele>440.66666666666663</ele><time>2026-04-27T16:58:14Z</time></trkpt><trkpt lat="42.30947092149015" lon="13.771334528141189"><ele>442.3333333333333</ele><time>2026-04-27T16:58:15Z</time></trkpt><trkpt lat="42.30940148087246" lon="13.771380670988213"><ele>444.0</ele><time>2026-04-27T16:58:16Z</time></trkpt><trkpt lat="42.30932360867221" lon="13.771431912293291"><ele>444.0</ele><time>2026-04-27T16:58:17Z</time></trkpt><trkpt lat="42.309246126738046" lon="13.77148705785629"><ele>444.0</ele><time>2026-04-27T16:58:18Z</time></trkpt><trkpt lat="42.30913798789429" lon="13.771566347636247"><ele>444.0</ele><time>2026-04-27T16:58:19Z</time></trkpt><trkpt lat="42.30904852702712" lon="13.771641342379397"><ele>444.0</ele><time>2026-04-27T16:58:20Z</time></trkpt><trkpt lat="42.308972990134116" lon="13.77171332701658"><ele>444.0</ele><time>2026-04-27T16:58:21Z</time></trkpt><trkpt lat="42.308895719111874" lon="13.771802792894315"><ele>443.75</ele><time>2026-04-27T16:58:22Z</time></trkpt><trkpt lat="42.30881312501747" lon="13.771907052829924"><ele>443.5</ele><time>2026-04-27T16:58:22.999Z</time></trkpt><trkpt lat="42.30872531161113" lon="13.772024863407673"><ele>443.25</ele><time>2026-04-27T16:58:23.999Z</time></trkpt><trkpt lat="42.30865320921566" lon="13.772120593803141"><ele>443.0</ele><time>2026-04-27T16:58:24.999Z</time></trkpt><trkpt lat="42.30856558856008" lon="13.772229791125852"><ele>443.0</ele><time>2026-04-27T16:58:25.999Z</time></trkpt><trkpt lat="42.30845970545973" lon="13.772328868861567"><ele>443.0</ele><time>2026-04-27T16:58:26.999Z</time></trkpt><trkpt lat="42.30833390988977" lon="13.772383075954696"><ele>443.0</ele><time>2026-04-27T16:58:27.999Z</time></trkpt><trkpt lat="42.30819972725644" lon="13.772494287563408"><ele>443.0</ele><time>2026-04-27T16:58:28.999Z</time></trkpt><trkpt lat="42.30811732652552" lon="13.772607166077439"><ele>444.25</ele><time>2026-04-27T16:58:29.999Z</time></trkpt><trkpt lat="42.30815812071665" lon="13.772858380447293"><ele>445.5</ele><time>2026-04-27T16:58:30.999Z</time></trkpt><trkpt lat="42.30807968738779" lon="13.772940419228865"><ele>446.75</ele><time>2026-04-27T16:58:31.999Z</time></trkpt><trkpt lat="42.308002389288944" lon="13.773018311515614"><ele>448.0</ele><time>2026-04-27T16:58:32.999Z</time></trkpt><trkpt lat="42.30792313211492" lon="13.773098739457042"><ele>444.59999999999997</ele><time>2026-04-27T16:58:33.999Z</time></trkpt><trkpt lat="42.30784527907281" lon="13.773173976087936"><ele>441.19999999999993</ele><time>2026-04-27T16:58:34.999Z</time></trkpt><trkpt lat="42.307774696330036" lon="13.77324031465617"><ele>437.8</ele><time>2026-04-27T16:58:35.999Z</time></trkpt><trkpt lat="42.3076863869868" lon="13.773296142453944"><ele>434.4</ele><time>2026-04-27T16:58:36.999Z</time></trkpt><trkpt lat="42.30759135861805" lon="13.773377599273182"><ele>431.0</ele><time>2026-04-27T16:58:37.999Z</time></trkpt><trkpt lat="42.307497999266324" lon="13.773494412756868"><ele>432.25</ele><time>2026-04-27T16:58:38.999Z</time></trkpt><trkpt lat="42.30741974839661" lon="13.77361382648644"><ele>433.5</ele><time>2026-04-27T16:58:39.999Z</time></trkpt><trkpt lat="42.307333885843285" lon="13.773720945495905"><ele>434.75</ele><time>2026-04-27T16:58:40.999Z</time></trkpt><trkpt lat="42.30723046178027" lon="13.77381411505097"><ele>436.0</ele><time>2026-04-27T16:58:41.999Z</time></trkpt><trkpt lat="42.3070519349083" lon="13.77376745212967"><ele>433.25</ele><time>2026-04-27T16:58:43Z</time></trkpt><trkpt lat="42.306969317109484" lon="13.77390824813419"><ele>430.5</ele><time>2026-04-27T16:58:44Z</time></trkpt><trkpt lat="42.306930457957606" lon="13.774066315588872"><ele>427.75</ele><time>2026-04-27T16:58:45Z</time></trkpt><trkpt lat="42.306858546887334" lon="13.774185222899288"><ele>425.0</ele><time>2026-04-27T16:58:46Z</time></trkpt><trkpt lat="42.30677036128326" lon="13.774294959482097"><ele>425.75</ele><time>2026-04-27T16:58:47Z</time></trkpt><trkpt lat="42.30666824451747" lon="13.774412068643924"><ele>426.5</ele><time>2026-04-27T16:58:48Z</time></trkpt><trkpt lat="42.30656522091545" lon="13.774534259630295"><ele>427.25</ele><time>2026-04-27T16:58:49Z</time></trkpt><trkpt lat="42.30647372948924" lon="13.774681372796817"><ele>428.0</ele><time>2026-04-27T16:58:50Z</time></trkpt><trkpt lat="42.306395649194435" lon="13.77486366080794"><ele>427.0</ele><time>2026-04-27T16:58:51Z</time></trkpt><trkpt lat="42.30633751840591" lon="13.775046847243017"><ele>426.0</ele><time>2026-04-27T16:58:52Z</time></trkpt><trkpt lat="42.306289019317774" lon="13.775223329831293"><ele>425.0</ele><time>2026-04-27T16:58:53Z</time></trkpt><trkpt lat="42.30625024440398" lon="13.775370735626117"><ele>424.0</ele><time>2026-04-27T16:58:54Z</time></trkpt><trkpt lat="42.30621685558101" lon="13.775508877725631"><ele>424.0</ele><time>2026-04-27T16:58:55Z</time></trkpt><trkpt lat="42.30618489801359" lon="13.775655483948318"><ele>424.0</ele><time>2026-04-27T16:58:56Z</time></trkpt><trkpt lat="42.306150470502594" lon="13.7758202181731"><ele>424.0</ele><time>2026-04-27T16:58:57Z</time></trkpt><trkpt lat="42.30611491715843" lon="13.775988453229798"><ele>424.0</ele><time>2026-04-27T16:58:58Z</time></trkpt><trkpt lat="42.3060741583121" lon="13.77616865049406"><ele>423.79999999999995</ele><time>2026-04-27T16:58:59Z</time></trkpt><trkpt lat="42.30603069902935" lon="13.776334966757632"><ele>423.59999999999997</ele><time>2026-04-27T16:59:00Z</time></trkpt><trkpt lat="42.30598713936688" lon="13.776457130958907"><ele>423.4</ele><time>2026-04-27T16:59:01Z</time></trkpt><trkpt lat="42.30594723386829" lon="13.776557120051487"><ele>423.2</ele><time>2026-04-27T16:59:02Z</time></trkpt><trkpt lat="42.30588191279286" lon="13.776663758517435"><ele>423.0</ele><time>2026-04-27T16:59:04Z</time></trkpt><trkpt lat="42.30581971474926" lon="13.776746559456216"><ele>422.5</ele><time>2026-04-27T16:59:05Z</time></trkpt><trkpt lat="42.306137091603425" lon="13.777110293394145"><ele>422.0</ele><time>2026-04-27T16:59:06Z</time></trkpt><trkpt lat="42.306159274290344" lon="13.777223866689441"><ele>422.0</ele><time>2026-04-27T16:59:07Z</time></trkpt><trkpt lat="42.30616292096711" lon="13.777325124869927"><ele>422.0</ele><time>2026-04-27T16:59:08Z</time></trkpt><trkpt lat="42.30609498939231" lon="13.777491115439279"><ele>422.0</ele><time>2026-04-27T16:59:10Z</time></trkpt><trkpt lat="42.306046984680115" lon="13.777614532975104"><ele>422.0</ele><time>2026-04-27T16:59:11Z</time></trkpt><trkpt lat="42.30598932456072" lon="13.777713019912643"><ele>422.0</ele><time>2026-04-27T16:59:12Z</time></trkpt><trkpt lat="42.30591301522465" lon="13.777795626908562"><ele>421.75</ele><time>2026-04-27T16:59:13Z</time></trkpt><trkpt lat="42.30581348551075" lon="13.77786867291415"><ele>421.5</ele><time>2026-04-27T16:59:14Z</time></trkpt><trkpt lat="42.30571727770078" lon="13.777955369479784"><ele>421.25</ele><time>2026-04-27T16:59:15Z</time></trkpt><trkpt lat="42.3056268750705" lon="13.77806395640654"><ele>421.0</ele><time>2026-04-27T16:59:16Z</time></trkpt><trkpt lat="42.30553768620118" lon="13.778160961832942"><ele>419.6</ele><time>2026-04-27T16:59:17Z</time></trkpt><trkpt lat="42.30545505585546" lon="13.778234973790642"><ele>418.20000000000005</ele><time>2026-04-27T16:59:18Z</time></trkpt><trkpt lat="42.30536654424328" lon="13.778302260176163"><ele>416.79999999999995</ele><time>2026-04-27T16:59:19Z</time></trkpt><trkpt lat="42.305287972090206" lon="13.778375627508423"><ele>415.4</ele><time>2026-04-27T16:59:20Z</time></trkpt><trkpt lat="42.30522273235974" lon="13.778483650748264"><ele>414.0</ele><time>2026-04-27T16:59:21Z</time></trkpt><trkpt lat="42.30516096120945" lon="13.778577344339316"><ele>414.0</ele><time>2026-04-27T16:59:22Z</time></trkpt><trkpt lat="42.3051058761425" lon="13.77869167914388"><ele>414.0</ele><time>2026-04-27T16:59:23Z</time></trkpt><trkpt lat="42.30502095974659" lon="13.7788000231994"><ele>414.0</ele><time>2026-04-27T16:59:24Z</time></trkpt><trkpt lat="42.3049479122927" lon="13.778919417596617"><ele>414.0</ele><time>2026-04-27T16:59:25Z</time></trkpt><trkpt lat="42.304869483994146" lon="13.779034464890042"><ele>414.0</ele><time>2026-04-27T16:59:26Z</time></trkpt><trkpt lat="42.30478505691148" lon="13.77914689143854"><ele>412.4</ele><time>2026-04-27T16:59:27Z</time></trkpt><trkpt lat="42.30469598120251" lon="13.779264437333392"><ele>410.79999999999995</ele><time>2026-04-27T16:59:28Z</time></trkpt><trkpt lat="42.30461340613547" lon="13.779353740101694"><ele>409.20000000000005</ele><time>2026-04-27T16:59:29Z</time></trkpt><trkpt lat="42.304543051663295" lon="13.77940277646735"><ele>407.6</ele><time>2026-04-27T16:59:30Z</time></trkpt><trkpt lat="42.30445292674281" lon="13.779469802753457"><ele>406.0</ele><time>2026-04-27T16:59:31Z</time></trkpt><trkpt lat="42.304336542241984" lon="13.779465753878883"><ele>406.0</ele><time>2026-04-27T16:59:32Z</time></trkpt><trkpt lat="42.304230973708954" lon="13.7795793482842"><ele>406.0</ele><time>2026-04-27T16:59:33Z</time></trkpt><trkpt lat="42.3041652730948" lon="13.779690030040673"><ele>406.0</ele><time>2026-04-27T16:59:34Z</time></trkpt><trkpt lat="42.30410704608146" lon="13.779782784015215"><ele>406.0</ele><time>2026-04-27T16:59:35Z</time></trkpt><trkpt lat="42.304040306063996" lon="13.779880201984524"><ele>406.0</ele><time>2026-04-27T16:59:36Z</time></trkpt><trkpt lat="42.30396934581384" lon="13.77997040412935"><ele>405.50000000000006</ele><time>2026-04-27T16:59:37Z</time></trkpt><trkpt lat="42.30389262392318" lon="13.780068662934074"><ele>405.0</ele><time>2026-04-27T16:59:38Z</time></trkpt><trkpt lat="42.30384344636747" lon="13.780139946349713"><ele>404.5</ele><time>2026-04-27T16:59:39Z</time></trkpt><trkpt lat="42.30378807701331" lon="13.780231483633765"><ele>404.0</ele><time>2026-04-27T16:59:41Z</time></trkpt><trkpt lat="42.30373786454558" lon="13.780330527475453"><ele>403.50000000000006</ele><time>2026-04-27T16:59:43Z</time></trkpt><trkpt lat="42.30370547929692" lon="13.780422103846156"><ele>403.0</ele><time>2026-04-27T16:59:44Z</time></trkpt><trkpt lat="42.30366731966698" lon="13.780525146661043"><ele>403.0</ele><time>2026-04-27T16:59:45Z</time></trkpt><trkpt lat="42.30363259821957" lon="13.780653610787402"><ele>403.0</ele><time>2026-04-27T16:59:46Z</time></trkpt><trkpt lat="42.30358547567049" lon="13.780771299709597"><ele>403.0</ele><time>2026-04-27T16:59:47Z</time></trkpt><trkpt lat="42.30352973090805" lon="13.780854835955626"><ele>403.0</ele><time>2026-04-27T16:59:48Z</time></trkpt><trkpt lat="42.303449300253384" lon="13.78096012786275"><ele>403.0</ele><time>2026-04-27T16:59:50Z</time></trkpt><trkpt lat="42.30338686100702" lon="13.781021776156571"><ele>403.79999999999995</ele><time>2026-04-27T16:59:51Z</time></trkpt><trkpt lat="42.303312801593606" lon="13.781115001244936"><ele>404.6</ele><time>2026-04-27T16:59:52Z</time></trkpt><trkpt lat="42.30322355257343" lon="13.781183391312705"><ele>405.4</ele><time>2026-04-27T16:59:53Z</time></trkpt><trkpt lat="42.30314297923426" lon="13.781273699758406"><ele>406.20000000000005</ele><time>2026-04-27T16:59:54Z</time></trkpt><trkpt lat="42.303069379645976" lon="13.781375439969162"><ele>407.0</ele><time>2026-04-27T16:59:55Z</time></trkpt><trkpt lat="42.302993132585804" lon="13.781484107252291"><ele>405.0</ele><time>2026-04-27T16:59:56Z</time></trkpt><trkpt lat="42.30290274966003" lon="13.781589020579037"><ele>403.0</ele><time>2026-04-27T16:59:57Z</time></trkpt><trkpt lat="42.302824481146075" lon="13.781707900428827"><ele>401.0</ele><time>2026-04-27T16:59:58Z</time></trkpt><trkpt lat="42.302741362351696" lon="13.781832135700112"><ele>399.0</ele><time>2026-04-27T16:59:59Z</time></trkpt><trkpt lat="42.302660107582525" lon="13.781947863936912"><ele>399.0</ele><time>2026-04-27T17:00:00Z</time></trkpt><trkpt lat="42.30258255606902" lon="13.782047358145427"><ele>399.0</ele><time>2026-04-27T17:00:01Z</time></trkpt><trkpt lat="42.30250995504643" lon="13.782134833082788"><ele>399.0</ele><time>2026-04-27T17:00:02Z</time></trkpt><trkpt lat="42.30243690135714" lon="13.782219425870837"><ele>399.0</ele><time>2026-04-27T17:00:03Z</time></trkpt><trkpt lat="42.302360723214704" lon="13.782293843966082"><ele>399.0</ele><time>2026-04-27T17:00:04Z</time></trkpt><trkpt lat="42.30228228923046" lon="13.7823676604265"><ele>397.5</ele><time>2026-04-27T17:00:05Z</time></trkpt><trkpt lat="42.30221703978864" lon="13.78242321938704"><ele>396.0</ele><time>2026-04-27T17:00:06Z</time></trkpt><trkpt lat="42.30214909820153" lon="13.78246041496725"><ele>394.5</ele><time>2026-04-27T17:00:08Z</time></trkpt><trkpt lat="42.30212448304904" lon="13.782331467237128"><ele>393.0</ele><time>2026-04-27T17:00:10Z</time></trkpt><trkpt lat="42.302128038213795" lon="13.782229647974122"><ele>391.5</ele><time>2026-04-27T17:00:11Z</time></trkpt><trkpt lat="42.30210792284138" lon="13.782075159829843"><ele>390.0</ele><time>2026-04-27T17:00:12Z</time></trkpt><trkpt lat="42.302074844946944" lon="13.78189711897605"><ele>388.5</ele><time>2026-04-27T17:00:13Z</time></trkpt><trkpt lat="42.30204372932132" lon="13.78172442232137"><ele>387.0</ele><time>2026-04-27T17:00:14Z</time></trkpt><trkpt lat="42.302016560133985" lon="13.781552270375816"><ele>385.5</ele><time>2026-04-27T17:00:15Z</time></trkpt><trkpt lat="42.30200452788018" lon="13.781373164851418"><ele>384.0</ele><time>2026-04-27T17:00:16Z</time></trkpt><trkpt lat="42.30198096095749" lon="13.781187330858499"><ele>384.0</ele><time>2026-04-27T17:00:17Z</time></trkpt><trkpt lat="42.30196142149017" lon="13.78101916921489"><ele>384.0</ele><time>2026-04-27T17:00:18Z</time></trkpt><trkpt lat="42.30194301002235" lon="13.780859686801731"><ele>384.0</ele><time>2026-04-27T17:00:19Z</time></trkpt><trkpt lat="42.301927421585965" lon="13.780707587222627"><ele>384.0</ele><time>2026-04-27T17:00:20Z</time></trkpt><trkpt lat="42.3018962919325" lon="13.780558790769248"><ele>384.0</ele><time>2026-04-27T17:00:21Z</time></trkpt><trkpt lat="42.30190935376629" lon="13.780432892124738"><ele>384.0</ele><time>2026-04-27T17:00:22Z</time></trkpt><trkpt lat="42.30194215709715" lon="13.78031830736756"><ele>384.0</ele><time>2026-04-27T17:00:24Z</time></trkpt><trkpt lat="42.30197678141479" lon="13.78021498841502"><ele>384.0</ele><time>2026-04-27T17:00:26Z</time></trkpt><trkpt lat="42.301983571257594" lon="13.78009946569614"><ele>384.0</ele><time>2026-04-27T17:00:27Z</time></trkpt><trkpt lat="42.301972377672016" lon="13.780014285399895"><ele>384.0</ele><time>2026-04-27T17:00:28Z</time></trkpt><trkpt lat="42.301927268258645" lon="13.77991803935353"><ele>383.5</ele><time>2026-04-27T17:00:28.999Z</time></trkpt><trkpt lat="42.30186725795852" lon="13.779790701190159"><ele>383.0</ele><time>2026-04-27T17:00:29.999Z</time></trkpt><trkpt lat="42.30180800971721" lon="13.779632606242506"><ele>382.5</ele><time>2026-04-27T17:00:30.999Z</time></trkpt><trkpt lat="42.30174475506169" lon="13.779456638700152"><ele>382.0</ele><time>2026-04-27T17:00:31.999Z</time></trkpt><trkpt lat="42.30168611024129" lon="13.779291406584948"><ele>381.25</ele><time>2026-04-27T17:00:32.999Z</time></trkpt><trkpt lat="42.30165941656334" lon="13.77912861477761"><ele>380.5</ele><time>2026-04-27T17:00:33.999Z</time></trkpt><trkpt lat="42.30160065672765" lon="13.778948307679821"><ele>379.75</ele><time>2026-04-27T17:00:34.999Z</time></trkpt><trkpt lat="42.30155298705016" lon="13.778737924844567"><ele>379.0</ele><time>2026-04-27T17:00:35.999Z</time></trkpt><trkpt lat="42.301506358402314" lon="13.778534745395383"><ele>378.0</ele><time>2026-04-27T17:00:37Z</time></trkpt><trkpt lat="42.30146177167679" lon="13.778353338598038"><ele>377.0</ele><time>2026-04-27T17:00:38Z</time></trkpt><trkpt lat="42.30141683102994" lon="13.778176730337469"><ele>376.0</ele><time>2026-04-27T17:00:39Z</time></trkpt><trkpt lat="42.30136368055689" lon="13.778006744330689"><ele>375.0</ele><time>2026-04-27T17:00:40Z</time></trkpt><trkpt lat="42.3013162893006" lon="13.777820379381144"><ele>372.75</ele><time>2026-04-27T17:00:41Z</time></trkpt><trkpt lat="42.30129449669756" lon="13.7776577618201"><ele>370.5</ele><time>2026-04-27T17:00:42Z</time></trkpt><trkpt lat="42.30127915754682" lon="13.777510936377272"><ele>368.25</ele><time>2026-04-27T17:00:43Z</time></trkpt><trkpt lat="42.30126888236266" lon="13.777353830899399"><ele>366.0</ele><time>2026-04-27T17:00:44Z</time></trkpt><trkpt lat="42.30127439113214" lon="13.777185355913915"><ele>366.0</ele><time>2026-04-27T17:00:45Z</time></trkpt><trkpt lat="42.301310619375585" lon="13.77700288590797"><ele>366.0</ele><time>2026-04-27T17:00:46Z</time></trkpt><trkpt lat="42.3013074073506" lon="13.7768488687704"><ele>366.0</ele><time>2026-04-27T17:00:47Z</time></trkpt><trkpt lat="42.30126998830874" lon="13.77676031767208"><ele>366.0</ele><time>2026-04-27T17:00:48Z</time></trkpt><trkpt lat="42.30123051133872" lon="13.77666380221197"><ele>366.0</ele><time>2026-04-27T17:00:49Z</time></trkpt><trkpt lat="42.30115994991495" lon="13.776529777834034"><ele>366.25</ele><time>2026-04-27T17:00:50Z</time></trkpt><trkpt lat="42.3010767625091" lon="13.776376476496635"><ele>366.5</ele><time>2026-04-27T17:00:51Z</time></trkpt><trkpt lat="42.30098837076365" lon="13.776257638104806"><ele>366.75</ele><time>2026-04-27T17:00:52Z</time></trkpt><trkpt lat="42.300888257112916" lon="13.776178903292646"><ele>367.0</ele><time>2026-04-27T17:00:53Z</time></trkpt><trkpt lat="42.30084227956127" lon="13.776087402536303"><ele>367.5</ele><time>2026-04-27T17:00:54Z</time></trkpt><trkpt lat="42.3009133538275" lon="13.775941064621128"><ele>368.0</ele><time>2026-04-27T17:00:57Z</time></trkpt><trkpt lat="42.30091927602332" lon="13.775856001901458"><ele>368.5</ele><time>2026-04-27T17:00:58Z</time></trkpt><trkpt lat="42.30089765121985" lon="13.775770559065231"><ele>369.0</ele><time>2026-04-27T17:00:59Z</time></trkpt><trkpt lat="42.300815641246196" lon="13.775722551479108"><ele>369.5</ele><time>2026-04-27T17:01:00Z</time></trkpt><trkpt lat="42.30074313085083" lon="13.775666384626104"><ele>370.0</ele><time>2026-04-27T17:01:01Z</time></trkpt><trkpt lat="42.300668650895005" lon="13.775613016416735"><ele>370.0</ele><time>2026-04-27T17:01:02Z</time></trkpt><trkpt lat="42.30061098474628" lon="13.775563983454106"><ele>370.0</ele><time>2026-04-27T17:01:03Z</time></trkpt><trkpt lat="42.300545640157694" lon="13.775548405458206"><ele>370.0</ele><time>2026-04-27T17:01:04Z</time></trkpt><trkpt lat="42.300476493236886" lon="13.775538151581493"><ele>370.0</ele><time>2026-04-27T17:01:05Z</time></trkpt><trkpt lat="42.30044479340599" lon="13.77544892113379"><ele>370.0</ele><time>2026-04-27T17:01:06Z</time></trkpt><trkpt lat="42.3003943414069" lon="13.775360788626951"><ele>370.0</ele><time>2026-04-27T17:01:07Z</time></trkpt><trkpt lat="42.30033106842111" lon="13.775262526397688"><ele>368.3333333333333</ele><time>2026-04-27T17:01:08Z</time></trkpt><trkpt lat="42.300252878318524" lon="13.775162571904191"><ele>366.66666666666663</ele><time>2026-04-27T17:01:09Z</time></trkpt><trkpt lat="42.30016271990143" lon="13.775073040383772"><ele>365.0</ele><time>2026-04-27T17:01:10Z</time></trkpt><trkpt lat="42.3000898520158" lon="13.775013222456788"><ele>363.3333333333333</ele><time>2026-04-27T17:01:11Z</time></trkpt><trkpt lat="42.300030188135345" lon="13.774976093977273"><ele>361.6666666666667</ele><time>2026-04-27T17:01:12Z</time></trkpt><trkpt lat="42.299958383850715" lon="13.77501250488841"><ele>360.0</ele><time>2026-04-27T17:01:13Z</time></trkpt><trkpt lat="42.29990840188906" lon="13.775117951625496"><ele>359.8</ele><time>2026-04-27T17:01:14Z</time></trkpt><trkpt lat="42.299835929015956" lon="13.775224347669326"><ele>359.6</ele><time>2026-04-27T17:01:15Z</time></trkpt><trkpt lat="42.29972933961413" lon="13.775297049088238"><ele>359.4</ele><time>2026-04-27T17:01:16Z</time></trkpt><trkpt lat="42.299631268592236" lon="13.775389127576794"><ele>359.2</ele><time>2026-04-27T17:01:17Z</time></trkpt><trkpt lat="42.29954788970681" lon="13.775462231950142"><ele>359.0</ele><time>2026-04-27T17:01:18Z</time></trkpt><trkpt lat="42.299477138889216" lon="13.7755007332129"><ele>358.79999999999995</ele><time>2026-04-27T17:01:19Z</time></trkpt><trkpt lat="42.29938577857612" lon="13.775485873016173"><ele>358.59999999999997</ele><time>2026-04-27T17:01:21Z</time></trkpt><trkpt lat="42.299256504208635" lon="13.775407776504705"><ele>358.4</ele><time>2026-04-27T17:01:23Z</time></trkpt><trkpt lat="42.299183609101746" lon="13.775335387521963"><ele>358.2</ele><time>2026-04-27T17:01:24Z</time></trkpt><trkpt lat="42.29910442032323" lon="13.775279184699844"><ele>358.0</ele><time>2026-04-27T17:01:25Z</time></trkpt><trkpt lat="42.299034347020616" lon="13.775205505230373"><ele>358.0</ele><time>2026-04-27T17:01:27Z</time></trkpt><trkpt lat="42.29893556131252" lon="13.775377567545213"><ele>358.0</ele><time>2026-04-27T17:01:29Z</time></trkpt><trkpt lat="42.29890611852475" lon="13.775469007516993"><ele>358.0</ele><time>2026-04-27T17:01:30Z</time></trkpt><trkpt lat="42.29886791825159" lon="13.775587646224743"><ele>358.0</ele><time>2026-04-27T17:01:31Z</time></trkpt><trkpt lat="42.29883187813186" lon="13.775735782868178"><ele>358.0</ele><time>2026-04-27T17:01:32Z</time></trkpt><trkpt lat="42.29880770147123" lon="13.775902558660503"><ele>357.5</ele><time>2026-04-27T17:01:33Z</time></trkpt><trkpt lat="42.29876928154473" lon="13.776066669546873"><ele>357.0</ele><time>2026-04-27T17:01:34Z</time></trkpt><trkpt lat="42.298717082542495" lon="13.776235718121717"><ele>356.5</ele><time>2026-04-27T17:01:35Z</time></trkpt><trkpt lat="42.29867707269482" lon="13.776409960881521"><ele>356.0</ele><time>2026-04-27T17:01:36Z</time></trkpt><trkpt lat="42.29864202231751" lon="13.776562605685285"><ele>356.0</ele><time>2026-04-27T17:01:37Z</time></trkpt><trkpt lat="42.29860838647488" lon="13.77670908979929"><ele>356.0</ele><time>2026-04-27T17:01:38Z</time></trkpt><trkpt lat="42.29857260574997" lon="13.776864110759787"><ele>356.0</ele><time>2026-04-27T17:01:39Z</time></trkpt><trkpt lat="42.29853425923936" lon="13.777022819846723"><ele>356.0</ele><time>2026-04-27T17:01:40Z</time></trkpt><trkpt lat="42.298511502796735" lon="13.777182345288324"><ele>356.20000000000005</ele><time>2026-04-27T17:01:41Z</time></trkpt><trkpt lat="42.298460957746364" lon="13.77733840430913"><ele>356.40000000000003</ele><time>2026-04-27T17:01:42Z</time></trkpt><trkpt lat="42.29842456703924" lon="13.777498826884356"><ele>356.6</ele><time>2026-04-27T17:01:43Z</time></trkpt><trkpt lat="42.29837269817156" lon="13.77762004029359"><ele>356.8</ele><time>2026-04-27T17:01:44Z</time></trkpt><trkpt lat="42.29832905630937" lon="13.777704118281992"><ele>357.0</ele><time>2026-04-27T17:01:45Z</time></trkpt><trkpt lat="42.2982037388874" lon="13.777756697251936"><ele>357.0</ele><time>2026-04-27T17:01:47Z</time></trkpt><trkpt lat="42.298137657098984" lon="13.777813684425135"><ele>357.0</ele><time>2026-04-27T17:01:48Z</time></trkpt><trkpt lat="42.2980615312447" lon="13.777906233255303"><ele>357.0</ele><time>2026-04-27T17:01:49Z</time></trkpt><trkpt lat="42.29797007445103" lon="13.778019984289777"><ele>357.0</ele><time>2026-04-27T17:01:50Z</time></trkpt><trkpt lat="42.2978739922646" lon="13.778143408914335"><ele>357.0</ele><time>2026-04-27T17:01:51Z</time></trkpt><trkpt lat="42.29777558222219" lon="13.778270757642941"><ele>356.25</ele><time>2026-04-27T17:01:52Z</time></trkpt><trkpt lat="42.29768942813689" lon="13.778382246463224"><ele>355.5</ele><time>2026-04-27T17:01:53Z</time></trkpt><trkpt lat="42.29759991197345" lon="13.778498840574347"><ele>354.75</ele><time>2026-04-27T17:01:54Z</time></trkpt><trkpt lat="42.29750822236747" lon="13.778620889513821"><ele>354.0</ele><time>2026-04-27T17:01:55Z</time></trkpt><trkpt lat="42.297410728014185" lon="13.778742982840894"><ele>353.5</ele><time>2026-04-27T17:01:56Z</time></trkpt><trkpt lat="42.29730010031819" lon="13.77886176008799"><ele>353.0</ele><time>2026-04-27T17:01:57Z</time></trkpt><trkpt lat="42.29716989164233" lon="13.778971412304173"><ele>352.5</ele><time>2026-04-27T17:01:58Z</time></trkpt><trkpt lat="42.297041783828" lon="13.779080970087051"><ele>352.0</ele><time>2026-04-27T17:01:59Z</time></trkpt><trkpt lat="42.29692152959034" lon="13.779213667540608"><ele>351.75</ele><time>2026-04-27T17:02:00Z</time></trkpt><trkpt lat="42.29683429247499" lon="13.779346089377702"><ele>351.5</ele><time>2026-04-27T17:02:01Z</time></trkpt><trkpt lat="42.2967217002029" lon="13.77947734668115"><ele>351.25</ele><time>2026-04-27T17:02:02Z</time></trkpt><trkpt lat="42.29661482372507" lon="13.779644435886516"><ele>351.0</ele><time>2026-04-27T17:02:03Z</time></trkpt><trkpt lat="42.296513489559004" lon="13.77983443619456"><ele>351.0</ele><time>2026-04-27T17:02:04Z</time></trkpt><trkpt lat="42.29642051299132" lon="13.780017787502182"><ele>351.0</ele><time>2026-04-27T17:02:05Z</time></trkpt><trkpt lat="42.29634270744852" lon="13.780188598237245"><ele>351.0</ele><time>2026-04-27T17:02:06Z</time></trkpt><trkpt lat="42.296254953625926" lon="13.780336955832967"><ele>351.6666666666667</ele><time>2026-04-27T17:02:07Z</time></trkpt><trkpt lat="42.29616308920977" lon="13.780512436652208"><ele>352.33333333333337</ele><time>2026-04-27T17:02:08Z</time></trkpt><trkpt lat="42.296055702310625" lon="13.78067346428114"><ele>353.0</ele><time>2026-04-27T17:02:09Z</time></trkpt><trkpt lat="42.29595931918302" lon="13.780826398945512"><ele>353.0</ele><time>2026-04-27T17:02:10Z</time></trkpt><trkpt lat="42.29585685070884" lon="13.780991309751016"><ele>353.0</ele><time>2026-04-27T17:02:11Z</time></trkpt><trkpt lat="42.295763469901665" lon="13.781167939206115"><ele>353.0</ele><time>2026-04-27T17:02:12Z</time></trkpt><trkpt lat="42.29569730537111" lon="13.78133706428337"><ele>352.75</ele><time>2026-04-27T17:02:13Z</time></trkpt><trkpt lat="42.29560201379695" lon="13.781458379257888"><ele>352.5</ele><time>2026-04-27T17:02:14Z</time></trkpt><trkpt lat="42.295508595552775" lon="13.781562717893777"><ele>352.25</ele><time>2026-04-27T17:02:15Z</time></trkpt><trkpt lat="42.295397033338446" lon="13.781656374506762"><ele>352.0</ele><time>2026-04-27T17:02:16Z</time></trkpt><trkpt lat="42.29527617713924" lon="13.781771788205914"><ele>352.0</ele><time>2026-04-27T17:02:17Z</time></trkpt><trkpt lat="42.2951489927566" lon="13.781909104398531"><ele>352.0</ele><time>2026-04-27T17:02:18Z</time></trkpt><trkpt lat="42.29503031407068" lon="13.782053200107669"><ele>352.0</ele><time>2026-04-27T17:02:19Z</time></trkpt><trkpt lat="42.294897668117535" lon="13.7822018127123"><ele>352.0</ele><time>2026-04-27T17:02:20Z</time></trkpt><trkpt lat="42.29476284333176" lon="13.782351597297295"><ele>352.0</ele><time>2026-04-27T17:02:21Z</time></trkpt><trkpt lat="42.29463403873055" lon="13.782512409983214"><ele>352.0</ele><time>2026-04-27T17:02:22Z</time></trkpt><trkpt lat="42.2945017062771" lon="13.782686511173344"><ele>351.3333333333333</ele><time>2026-04-27T17:02:23Z</time></trkpt><trkpt lat="42.294359719125104" lon="13.782843344050573"><ele>350.6666666666667</ele><time>2026-04-27T17:02:24Z</time></trkpt><trkpt lat="42.29424099384814" lon="13.783000006378792"><ele>350.0</ele><time>2026-04-27T17:02:25Z</time></trkpt><trkpt lat="42.29413173771551" lon="13.783150825447853"><ele>350.0</ele><time>2026-04-27T17:02:26Z</time></trkpt><trkpt lat="42.29401629113217" lon="13.783311906323435"><ele>350.0</ele><time>2026-04-27T17:02:27Z</time></trkpt><trkpt lat="42.29389196602941" lon="13.783479363263444"><ele>350.0</ele><time>2026-04-27T17:02:28Z</time></trkpt><trkpt lat="42.29377473623804" lon="13.783635921866926"><ele>350.33333333333337</ele><time>2026-04-27T17:02:29Z</time></trkpt><trkpt lat="42.2936718594367" lon="13.783777398820419"><ele>350.6666666666667</ele><time>2026-04-27T17:02:30Z</time></trkpt><trkpt lat="42.29356603235657" lon="13.783920546831418"><ele>351.0</ele><time>2026-04-27T17:02:31Z</time></trkpt><trkpt lat="42.293450560881354" lon="13.784066144418464"><ele>351.0</ele><time>2026-04-27T17:02:32Z</time></trkpt><trkpt lat="42.293310091485914" lon="13.784218574682356"><ele>351.0</ele><time>2026-04-27T17:02:33Z</time></trkpt><trkpt lat="42.293188385907825" lon="13.784330083689282"><ele>351.0</ele><time>2026-04-27T17:02:34Z</time></trkpt><trkpt lat="42.29308653398336" lon="13.784413215011238"><ele>351.0</ele><time>2026-04-27T17:02:35Z</time></trkpt><trkpt lat="42.29295797542772" lon="13.784511079697227"><ele>351.3333333333333</ele><time>2026-04-27T17:02:36Z</time></trkpt><trkpt lat="42.29282455009278" lon="13.78460547956914"><ele>351.66666666666663</ele><time>2026-04-27T17:02:37Z</time></trkpt><trkpt lat="42.29267993005111" lon="13.784701812512877"><ele>352.0</ele><time>2026-04-27T17:02:38Z</time></trkpt><trkpt lat="42.29253461594" lon="13.784793958432582"><ele>352.0</ele><time>2026-04-27T17:02:39Z</time></trkpt><trkpt lat="42.29240834618311" lon="13.784871144899517"><ele>352.0</ele><time>2026-04-27T17:02:40Z</time></trkpt><trkpt lat="42.29227162113787" lon="13.784942614726559"><ele>352.0</ele><time>2026-04-27T17:02:41Z</time></trkpt><trkpt lat="42.29212338003673" lon="13.784999867816571"><ele>352.0</ele><time>2026-04-27T17:02:42Z</time></trkpt><trkpt lat="42.29196228483297" lon="13.785058096160755"><ele>352.3333333333333</ele><time>2026-04-27T17:02:43Z</time></trkpt><trkpt lat="42.291802738212" lon="13.785132121521261"><ele>352.6666666666667</ele><time>2026-04-27T17:02:44Z</time></trkpt><trkpt lat="42.29164599477903" lon="13.785222715383654"><ele>353.0</ele><time>2026-04-27T17:02:45Z</time></trkpt><trkpt lat="42.291494416938505" lon="13.78532259097331"><ele>352.33333333333337</ele><time>2026-04-27T17:02:46Z</time></trkpt><trkpt lat="42.291336059919615" lon="13.785436660481171"><ele>351.6666666666667</ele><time>2026-04-27T17:02:47Z</time></trkpt><trkpt lat="42.29119822089095" lon="13.785539626197268"><ele>351.0</ele><time>2026-04-27T17:02:48Z</time></trkpt><trkpt lat="42.29106930265405" lon="13.785653003795632"><ele>351.0</ele><time>2026-04-27T17:02:49Z</time></trkpt><trkpt lat="42.290925477891" lon="13.785755312152348"><ele>351.0</ele><time>2026-04-27T17:02:50Z</time></trkpt><trkpt lat="42.29078725158987" lon="13.785882552863766"><ele>351.0</ele><time>2026-04-27T17:02:51Z</time></trkpt><trkpt lat="42.2906400464754" lon="13.785973536340194"><ele>351.25</ele><time>2026-04-27T17:02:52Z</time></trkpt><trkpt lat="42.290514858004165" lon="13.786072894786798"><ele>351.5</ele><time>2026-04-27T17:02:53Z</time></trkpt><trkpt lat="42.29040213546455" lon="13.786162359380867"><ele>351.75</ele><time>2026-04-27T17:02:54Z</time></trkpt><trkpt lat="42.290299188022985" lon="13.786244065769795"><ele>352.0</ele><time>2026-04-27T17:02:55Z</time></trkpt><trkpt lat="42.29020146882905" lon="13.78632162270528"><ele>352.0</ele><time>2026-04-27T17:02:56Z</time></trkpt><trkpt lat="42.29011674027101" lon="13.786388869261723"><ele>352.0</ele><time>2026-04-27T17:02:57Z</time></trkpt><trkpt lat="42.29001673528709" lon="13.78646710225686"><ele>352.0</ele><time>2026-04-27T17:02:58Z</time></trkpt><trkpt lat="42.2899121866419" lon="13.786548830500998"><ele>352.0</ele><time>2026-04-27T17:02:59Z</time></trkpt><trkpt lat="42.28981364902193" lon="13.786625859780356"><ele>352.0</ele><time>2026-04-27T17:03:00Z</time></trkpt><trkpt lat="42.28970575863797" lon="13.786707778576668"><ele>351.5</ele><time>2026-04-27T17:03:01Z</time></trkpt><trkpt lat="42.289582664262795" lon="13.786799938865748"><ele>351.0</ele><time>2026-04-27T17:03:02Z</time></trkpt><trkpt lat="42.28945382827316" lon="13.786895327024006"><ele>350.5</ele><time>2026-04-27T17:03:03Z</time></trkpt><trkpt lat="42.28931800701889" lon="13.786995959877057"><ele>350.0</ele><time>2026-04-27T17:03:04Z</time></trkpt><trkpt lat="42.289175472959776" lon="13.787107266124558"><ele>351.6666666666667</ele><time>2026-04-27T17:03:05Z</time></trkpt><trkpt lat="42.28904814865571" lon="13.787237591439215"><ele>353.3333333333333</ele><time>2026-04-27T17:03:06Z</time></trkpt><trkpt lat="42.288896427923945" lon="13.78734884781075"><ele>355.0</ele><time>2026-04-27T17:03:07Z</time></trkpt><trkpt lat="42.28876623576292" lon="13.787466046561873"><ele>355.0</ele><time>2026-04-27T17:03:08Z</time></trkpt><trkpt lat="42.28862755118274" lon="13.78759089014442"><ele>355.0</ele><time>2026-04-27T17:03:09Z</time></trkpt><trkpt lat="42.288499301543446" lon="13.787701903243399"><ele>355.0</ele><time>2026-04-27T17:03:10Z</time></trkpt><trkpt lat="42.288356365579304" lon="13.787821117141764"><ele>356.25</ele><time>2026-04-27T17:03:11Z</time></trkpt><trkpt lat="42.28824273316034" lon="13.787908761806955"><ele>357.5</ele><time>2026-04-27T17:03:12Z</time></trkpt><trkpt lat="42.28811457169367" lon="13.78798851465192"><ele>358.75</ele><time>2026-04-27T17:03:13Z</time></trkpt><trkpt lat="42.287997176442325" lon="13.788033076885496"><ele>360.0</ele><time>2026-04-27T17:03:14Z</time></trkpt><trkpt lat="42.28786139074101" lon="13.788054612536456"><ele>360.6666666666667</ele><time>2026-04-27T17:03:15Z</time></trkpt><trkpt lat="42.28771300926099" lon="13.788106233136734"><ele>361.33333333333337</ele><time>2026-04-27T17:03:16Z</time></trkpt><trkpt lat="42.28755838673442" lon="13.788175909916975"><ele>362.0</ele><time>2026-04-27T17:03:17Z</time></trkpt><trkpt lat="42.287410864035955" lon="13.788252345858258"><ele>362.0</ele><time>2026-04-27T17:03:18Z</time></trkpt><trkpt lat="42.28728979643851" lon="13.788320233511216"><ele>362.0</ele><time>2026-04-27T17:03:19Z</time></trkpt><trkpt lat="42.28717034647231" lon="13.788391744391935"><ele>362.0</ele><time>2026-04-27T17:03:20Z</time></trkpt><trkpt lat="42.28704980163799" lon="13.788465536182095"><ele>362.0</ele><time>2026-04-27T17:03:21Z</time></trkpt><trkpt lat="42.286922584709515" lon="13.788544548518663"><ele>362.0</ele><time>2026-04-27T17:03:22Z</time></trkpt><trkpt lat="42.2868239365944" lon="13.78860609848196"><ele>362.0</ele><time>2026-04-27T17:03:23Z</time></trkpt><trkpt lat="42.28675083479986" lon="13.78865428126553"><ele>362.0</ele><time>2026-04-27T17:03:24Z</time></trkpt><trkpt lat="42.286652347529085" lon="13.788677802281569"><ele>362.0</ele><time>2026-04-27T17:03:26Z</time></trkpt><trkpt lat="42.28658206992276" lon="13.78856271165651"><ele>362.0</ele><time>2026-04-27T17:03:28Z</time></trkpt><trkpt lat="42.28657152154217" lon="13.78846921715608"><ele>361.0</ele><time>2026-04-27T17:03:29Z</time></trkpt><trkpt lat="42.2865701577328" lon="13.788332009613725"><ele>360.0</ele><time>2026-04-27T17:03:30Z</time></trkpt><trkpt lat="42.286567676239784" lon="13.788182140903757"><ele>359.0</ele><time>2026-04-27T17:03:31Z</time></trkpt><trkpt lat="42.286554498019754" lon="13.788003052476771"><ele>358.0</ele><time>2026-04-27T17:03:32Z</time></trkpt><trkpt lat="42.28653428763259" lon="13.787806748756985"><ele>356.3333333333333</ele><time>2026-04-27T17:03:33Z</time></trkpt><trkpt lat="42.286507957781716" lon="13.787604886952158"><ele>354.6666666666667</ele><time>2026-04-27T17:03:34Z</time></trkpt><trkpt lat="42.286485476400166" lon="13.787394367769357"><ele>353.0</ele><time>2026-04-27T17:03:35Z</time></trkpt><trkpt lat="42.286459390331906" lon="13.78718481425701"><ele>353.0</ele><time>2026-04-27T17:03:36Z</time></trkpt><trkpt lat="42.28643638241487" lon="13.786978065494923"><ele>353.0</ele><time>2026-04-27T17:03:37Z</time></trkpt><trkpt lat="42.28640646135909" lon="13.786763725216588"><ele>353.0</ele><time>2026-04-27T17:03:38Z</time></trkpt><trkpt lat="42.286381127014494" lon="13.786550892615129"><ele>350.0</ele><time>2026-04-27T17:03:39Z</time></trkpt><trkpt lat="42.28634731215752" lon="13.786341050453812"><ele>347.0</ele><time>2026-04-27T17:03:40Z</time></trkpt><trkpt lat="42.28630450162519" lon="13.786127395235694"><ele>344.0</ele><time>2026-04-27T17:03:41Z</time></trkpt><trkpt lat="42.286259869359654" lon="13.785915565115905"><ele>343.6666666666667</ele><time>2026-04-27T17:03:42Z</time></trkpt><trkpt lat="42.28622291170075" lon="13.78571107074309"><ele>343.3333333333333</ele><time>2026-04-27T17:03:43Z</time></trkpt><trkpt lat="42.28620756782402" lon="13.785500275195467"><ele>343.0</ele><time>2026-04-27T17:03:44Z</time></trkpt><trkpt lat="42.28618537431414" lon="13.785283630292625"><ele>343.0</ele><time>2026-04-27T17:03:45Z</time></trkpt><trkpt lat="42.28615796803739" lon="13.785063242656202"><ele>343.0</ele><time>2026-04-27T17:03:46Z</time></trkpt><trkpt lat="42.28613501739204" lon="13.78483857663923"><ele>343.0</ele><time>2026-04-27T17:03:47Z</time></trkpt><trkpt lat="42.2861084076066" lon="13.784608157249613"><ele>343.0</ele><time>2026-04-27T17:03:48Z</time></trkpt><trkpt lat="42.286079124959095" lon="13.784370298331982"><ele>343.0</ele><time>2026-04-27T17:03:49Z</time></trkpt><trkpt lat="42.28605225861347" lon="13.784133000980843"><ele>343.0</ele><time>2026-04-27T17:03:50Z</time></trkpt><trkpt lat="42.286024908387006" lon="13.783891918849841"><ele>343.66666666666663</ele><time>2026-04-27T17:03:51Z</time></trkpt><trkpt lat="42.28599262333999" lon="13.78364816196766"><ele>344.3333333333333</ele><time>2026-04-27T17:03:52Z</time></trkpt><trkpt lat="42.285974127507174" lon="13.783394061937615"><ele>345.0</ele><time>2026-04-27T17:03:53Z</time></trkpt><trkpt lat="42.28594419099732" lon="13.78313740085779"><ele>345.3333333333333</ele><time>2026-04-27T17:03:54Z</time></trkpt><trkpt lat="42.28591314905036" lon="13.782883382343837"><ele>345.66666666666663</ele><time>2026-04-27T17:03:55Z</time></trkpt><trkpt lat="42.28587873471333" lon="13.782629567539914"><ele>346.0</ele><time>2026-04-27T17:03:56Z</time></trkpt><trkpt lat="42.28583247737433" lon="13.782376654758197"><ele>345.3333333333333</ele><time>2026-04-27T17:03:57Z</time></trkpt><trkpt lat="42.28576477172875" lon="13.782126235615124"><ele>344.6666666666667</ele><time>2026-04-27T17:03:58Z</time></trkpt><trkpt lat="42.285668764574865" lon="13.781882569297196"><ele>344.0</ele><time>2026-04-27T17:03:59Z</time></trkpt><trkpt lat="42.28556431390174" lon="13.781647982070591"><ele>344.0</ele><time>2026-04-27T17:04:00Z</time></trkpt><trkpt lat="42.2854649499112" lon="13.781415211563543"><ele>344.0</ele><time>2026-04-27T17:04:01Z</time></trkpt><trkpt lat="42.285364657962056" lon="13.781174919335303"><ele>344.0</ele><time>2026-04-27T17:04:02Z</time></trkpt><trkpt lat="42.28526277882241" lon="13.78093047778715"><ele>343.6666666666667</ele><time>2026-04-27T17:04:03Z</time></trkpt><trkpt lat="42.28516231186028" lon="13.780686836987417"><ele>343.3333333333333</ele><time>2026-04-27T17:04:04Z</time></trkpt><trkpt lat="42.28505939626308" lon="13.780444598788419"><ele>343.0</ele><time>2026-04-27T17:04:05Z</time></trkpt><trkpt lat="42.284958921915916" lon="13.780197928688043"><ele>343.0</ele><time>2026-04-27T17:04:06Z</time></trkpt><trkpt lat="42.28485769390171" lon="13.779952620811533"><ele>343.0</ele><time>2026-04-27T17:04:07Z</time></trkpt><trkpt lat="42.284758709630104" lon="13.779704842372878"><ele>343.0</ele><time>2026-04-27T17:04:08Z</time></trkpt><trkpt lat="42.28466085594567" lon="13.779456331868909"><ele>343.0</ele><time>2026-04-27T17:04:09Z</time></trkpt><trkpt lat="42.28456211584953" lon="13.779211634166353"><ele>343.0</ele><time>2026-04-27T17:04:10Z</time></trkpt><trkpt lat="42.284461870287906" lon="13.77896794264175"><ele>343.0</ele><time>2026-04-27T17:04:11Z</time></trkpt><trkpt lat="42.284362059785494" lon="13.778725753890955"><ele>343.3333333333333</ele><time>2026-04-27T17:04:12Z</time></trkpt><trkpt lat="42.284261062297425" lon="13.778479478156797"><ele>343.6666666666667</ele><time>2026-04-27T17:04:13Z</time></trkpt><trkpt lat="42.284162382734564" lon="13.77823661139806"><ele>344.0</ele><time>2026-04-27T17:04:14Z</time></trkpt><trkpt lat="42.28406029847353" lon="13.77798954525825"><ele>344.0</ele><time>2026-04-27T17:04:15Z</time></trkpt><trkpt lat="42.28396126814136" lon="13.777745832862953"><ele>344.0</ele><time>2026-04-27T17:04:16Z</time></trkpt><trkpt lat="42.28386030029517" lon="13.777499078507558"><ele>344.0</ele><time>2026-04-27T17:04:17Z</time></trkpt><trkpt lat="42.283759939262744" lon="13.777250062781853"><ele>344.33333333333337</ele><time>2026-04-27T17:04:18Z</time></trkpt><trkpt lat="42.28366234804273" lon="13.777006124739474"><ele>344.6666666666667</ele><time>2026-04-27T17:04:19Z</time></trkpt><trkpt lat="42.28356194510405" lon="13.776758599074846"><ele>345.0</ele><time>2026-04-27T17:04:20Z</time></trkpt><trkpt lat="42.28346246089213" lon="13.77651244351304"><ele>345.0</ele><time>2026-04-27T17:04:21Z</time></trkpt><trkpt lat="42.283365041531475" lon="13.776272927918841"><ele>345.0</ele><time>2026-04-27T17:04:22Z</time></trkpt><trkpt lat="42.283269955736756" lon="13.77604564115499"><ele>345.0</ele><time>2026-04-27T17:04:23Z</time></trkpt><trkpt lat="42.28318647986433" lon="13.775838635106263"><ele>345.0</ele><time>2026-04-27T17:04:24Z</time></trkpt><trkpt lat="42.28310206046413" lon="13.775645456784233"><ele>345.0</ele><time>2026-04-27T17:04:25Z</time></trkpt><trkpt lat="42.28302793341438" lon="13.775460955717056"><ele>345.0</ele><time>2026-04-27T17:04:26Z</time></trkpt><trkpt lat="42.28296021042404" lon="13.775293277558037"><ele>345.75</ele><time>2026-04-27T17:04:27Z</time></trkpt><trkpt lat="42.28288847436664" lon="13.775147865191965"><ele>346.5</ele><time>2026-04-27T17:04:28Z</time></trkpt><trkpt lat="42.28280441283311" lon="13.775012230647688"><ele>347.25</ele><time>2026-04-27T17:04:29Z</time></trkpt><trkpt lat="42.28272624307984" lon="13.774865491573417"><ele>348.0</ele><time>2026-04-27T17:04:30Z</time></trkpt><trkpt lat="42.282597970889796" lon="13.774776484003317"><ele>348.0</ele><time>2026-04-27T17:04:31Z</time></trkpt><trkpt lat="42.28247115628148" lon="13.774677149335819"><ele>348.0</ele><time>2026-04-27T17:04:32Z</time></trkpt><trkpt lat="42.28231397118003" lon="13.774650578943561"><ele>348.0</ele><time>2026-04-27T17:04:33Z</time></trkpt><trkpt lat="42.28215803086496" lon="13.77461118774511"><ele>348.25</ele><time>2026-04-27T17:04:34Z</time></trkpt><trkpt lat="42.28201181655993" lon="13.774580360028294"><ele>348.5</ele><time>2026-04-27T17:04:35Z</time></trkpt><trkpt lat="42.281884561318044" lon="13.774551720242126"><ele>348.75</ele><time>2026-04-27T17:04:36Z</time></trkpt><trkpt lat="42.28176650434135" lon="13.77450190541041"><ele>349.0</ele><time>2026-04-27T17:04:37Z</time></trkpt><trkpt lat="42.28164995153204" lon="13.774421588615755"><ele>349.66666666666663</ele><time>2026-04-27T17:04:38Z</time></trkpt><trkpt lat="42.28153657292712" lon="13.774307987879538"><ele>350.3333333333333</ele><time>2026-04-27T17:04:39Z</time></trkpt><trkpt lat="42.28142638363457" lon="13.774162364257872"><ele>351.0</ele><time>2026-04-27T17:04:40Z</time></trkpt><trkpt lat="42.28131154972118" lon="13.77401100795472"><ele>351.0</ele><time>2026-04-27T17:04:40.999Z</time></trkpt><trkpt lat="42.28118915400353" lon="13.773850826012561"><ele>351.0</ele><time>2026-04-27T17:04:41.999Z</time></trkpt><trkpt lat="42.281071821079536" lon="13.773696418882428"><ele>351.0</ele><time>2026-04-27T17:04:42.999Z</time></trkpt><trkpt lat="42.28097532965045" lon="13.773561824683835"><ele>352.75</ele><time>2026-04-27T17:04:43.999Z</time></trkpt><trkpt lat="42.28088686468628" lon="13.773427957127273"><ele>354.5</ele><time>2026-04-27T17:04:44.999Z</time></trkpt><trkpt lat="42.28080060133693" lon="13.773275237102292"><ele>356.25</ele><time>2026-04-27T17:04:45.999Z</time></trkpt><trkpt lat="42.280720035883306" lon="13.773104520110545"><ele>358.0</ele><time>2026-04-27T17:04:46.999Z</time></trkpt><trkpt lat="42.28063127573292" lon="13.772922457201902"><ele>357.0</ele><time>2026-04-27T17:04:47.999Z</time></trkpt><trkpt lat="42.28053526720377" lon="13.772751016277546"><ele>356.0</ele><time>2026-04-27T17:04:48.999Z</time></trkpt><trkpt lat="42.28044070680639" lon="13.77256931379034"><ele>355.0</ele><time>2026-04-27T17:04:49.999Z</time></trkpt><trkpt lat="42.28035890009911" lon="13.772409049268783"><ele>355.0</ele><time>2026-04-27T17:04:50.999Z</time></trkpt><trkpt lat="42.280285523722846" lon="13.77227900608839"><ele>355.0</ele><time>2026-04-27T17:04:51.999Z</time></trkpt><trkpt lat="42.280195464663116" lon="13.77217726781709"><ele>355.0</ele><time>2026-04-27T17:04:53Z</time></trkpt><trkpt lat="42.28007808250014" lon="13.772088229475703"><ele>355.0</ele><time>2026-04-27T17:04:54Z</time></trkpt><trkpt lat="42.279948953176735" lon="13.7720060819136"><ele>355.0</ele><time>2026-04-27T17:04:55Z</time></trkpt><trkpt lat="42.279821526901166" lon="13.77191187622631"><ele>355.0</ele><time>2026-04-27T17:04:56Z</time></trkpt><trkpt lat="42.27972640228905" lon="13.771760775704841"><ele>355.0</ele><time>2026-04-27T17:04:57Z</time></trkpt><trkpt lat="42.27963949511809" lon="13.771593437653625"><ele>355.0</ele><time>2026-04-27T17:04:58Z</time></trkpt><trkpt lat="42.279570745264" lon="13.771403651202188"><ele>355.66666666666663</ele><time>2026-04-27T17:04:59Z</time></trkpt><trkpt lat="42.279488225140234" lon="13.771216357106454"><ele>356.3333333333333</ele><time>2026-04-27T17:05:00Z</time></trkpt><trkpt lat="42.27942451042556" lon="13.771007923822198"><ele>357.0</ele><time>2026-04-27T17:05:01Z</time></trkpt><trkpt lat="42.279360218354626" lon="13.770804882198933"><ele>357.6666666666667</ele><time>2026-04-27T17:05:02Z</time></trkpt><trkpt lat="42.27929474924778" lon="13.770612345195014"><ele>358.33333333333337</ele><time>2026-04-27T17:05:03Z</time></trkpt><trkpt lat="42.27922541201961" lon="13.770427459359034"><ele>359.0</ele><time>2026-04-27T17:05:04Z</time></trkpt><trkpt lat="42.2791597422201" lon="13.770257345965222"><ele>359.5</ele><time>2026-04-27T17:05:05Z</time></trkpt><trkpt lat="42.27910070273457" lon="13.770100343619834"><ele>360.0</ele><time>2026-04-27T17:05:06Z</time></trkpt><trkpt lat="42.27904738691493" lon="13.76994903826632"><ele>360.5</ele><time>2026-04-27T17:05:07Z</time></trkpt><trkpt lat="42.27899680588872" lon="13.769790956421598"><ele>361.0</ele><time>2026-04-27T17:05:08Z</time></trkpt><trkpt lat="42.27894692632603" lon="13.769642010001402"><ele>360.8</ele><time>2026-04-27T17:05:09Z</time></trkpt><trkpt lat="42.27890521622023" lon="13.769523800203212"><ele>360.6</ele><time>2026-04-27T17:05:10Z</time></trkpt><trkpt lat="42.27886934984854" lon="13.769429008928848"><ele>360.4</ele><time>2026-04-27T17:05:11Z</time></trkpt><trkpt lat="42.27883895100054" lon="13.769324818091377"><ele>360.2</ele><time>2026-04-27T17:05:13Z</time></trkpt><trkpt lat="42.27868169727134" lon="13.769407519321849"><ele>360.0</ele><time>2026-04-27T17:05:15Z</time></trkpt><trkpt lat="42.27860137608105" lon="13.769504977643058"><ele>360.0</ele><time>2026-04-27T17:05:16Z</time></trkpt><trkpt lat="42.27851002739925" lon="13.769614342139702"><ele>360.0</ele><time>2026-04-27T17:05:17Z</time></trkpt><trkpt lat="42.278403165298485" lon="13.769738424994621"><ele>360.0</ele><time>2026-04-27T17:05:18Z</time></trkpt><trkpt lat="42.27828212493787" lon="13.769850816314275"><ele>360.0</ele><time>2026-04-27T17:05:19Z</time></trkpt><trkpt lat="42.27815873788456" lon="13.769994547378586"><ele>359.3333333333333</ele><time>2026-04-27T17:05:20Z</time></trkpt><trkpt lat="42.27802600906661" lon="13.770147196906857"><ele>358.66666666666663</ele><time>2026-04-27T17:05:21Z</time></trkpt><trkpt lat="42.27790991258983" lon="13.770281841801173"><ele>358.0</ele><time>2026-04-27T17:05:22Z</time></trkpt><trkpt lat="42.27780254768636" lon="13.770421300362377"><ele>357.0</ele><time>2026-04-27T17:05:23Z</time></trkpt><trkpt lat="42.27769857640106" lon="13.770540479444842"><ele>356.0</ele><time>2026-04-27T17:05:24Z</time></trkpt><trkpt lat="42.27759022611215" lon="13.770646142166855"><ele>355.0</ele><time>2026-04-27T17:05:25Z</time></trkpt><trkpt lat="42.27746963216255" lon="13.770695822094828"><ele>354.0</ele><time>2026-04-27T17:05:26Z</time></trkpt><trkpt lat="42.27735020647365" lon="13.770746438104185"><ele>352.0</ele><time>2026-04-27T17:05:27Z</time></trkpt><trkpt lat="42.27720106908845" lon="13.770744860799827"><ele>350.0</ele><time>2026-04-27T17:05:28Z</time></trkpt><trkpt lat="42.277034827221904" lon="13.770721850371523"><ele>348.0</ele><time>2026-04-27T17:05:29Z</time></trkpt><trkpt lat="42.27685328975333" lon="13.770692203176552"><ele>348.0</ele><time>2026-04-27T17:05:30Z</time></trkpt><trkpt lat="42.27667454917145" lon="13.770661239956281"><ele>348.0</ele><time>2026-04-27T17:05:31Z</time></trkpt><trkpt lat="42.27648387881726" lon="13.770637959753218"><ele>348.0</ele><time>2026-04-27T17:05:32Z</time></trkpt><trkpt lat="42.276293058570445" lon="13.770616350409401"><ele>346.6666666666667</ele><time>2026-04-27T17:05:33Z</time></trkpt><trkpt lat="42.2760937237374" lon="13.770572710163394"><ele>345.33333333333337</ele><time>2026-04-27T17:05:34Z</time></trkpt><trkpt lat="42.27589850311084" lon="13.770542870582563"><ele>344.0</ele><time>2026-04-27T17:05:35Z</time></trkpt><trkpt lat="42.27571320440598" lon="13.770530899307554"><ele>346.0</ele><time>2026-04-27T17:05:36Z</time></trkpt><trkpt lat="42.275561088873026" lon="13.770512467587553"><ele>348.0</ele><time>2026-04-27T17:05:37Z</time></trkpt><trkpt lat="42.27542446065763" lon="13.77052212878473"><ele>350.0</ele><time>2026-04-27T17:05:38Z</time></trkpt><trkpt lat="42.27527990668367" lon="13.770575303065621"><ele>352.0</ele><time>2026-04-27T17:05:39Z</time></trkpt><trkpt lat="42.27512644793276" lon="13.770658292634902"><ele>352.0</ele><time>2026-04-27T17:05:40Z</time></trkpt><trkpt lat="42.27501005347344" lon="13.770751124252234"><ele>352.0</ele><time>2026-04-27T17:05:41Z</time></trkpt><trkpt lat="42.27493496943405" lon="13.770846510253241"><ele>352.0</ele><time>2026-04-27T17:05:42Z</time></trkpt><trkpt lat="42.27488520483779" lon="13.770988978408608"><ele>352.0</ele><time>2026-04-27T17:05:43Z</time></trkpt><trkpt lat="42.27485859588895" lon="13.771178360711675"><ele>353.66666666666663</ele><time>2026-04-27T17:05:44Z</time></trkpt><trkpt lat="42.27481255376776" lon="13.77138488396085"><ele>355.3333333333333</ele><time>2026-04-27T17:05:45Z</time></trkpt><trkpt lat="42.274766168786925" lon="13.771596874358991"><ele>357.0</ele><time>2026-04-27T17:05:46Z</time></trkpt><trkpt lat="42.274717546626825" lon="13.771816049455419"><ele>356.25</ele><time>2026-04-27T17:05:47Z</time></trkpt><trkpt lat="42.274670015330926" lon="13.77202516481747"><ele>355.5</ele><time>2026-04-27T17:05:48Z</time></trkpt><trkpt lat="42.27463649386062" lon="13.772224058908186"><ele>354.75</ele><time>2026-04-27T17:05:49Z</time></trkpt><trkpt lat="42.274589880639745" lon="13.772397237073168"><ele>354.0</ele><time>2026-04-27T17:05:50Z</time></trkpt><trkpt lat="42.27453378080011" lon="13.77256527233792"><ele>353.3333333333333</ele><time>2026-04-27T17:05:51Z</time></trkpt><trkpt lat="42.27443409493261" lon="13.77269604130181"><ele>352.66666666666663</ele><time>2026-04-27T17:05:52Z</time></trkpt><trkpt lat="42.274316638250376" lon="13.772844543101208"><ele>352.0</ele><time>2026-04-27T17:05:53Z</time></trkpt><trkpt lat="42.27419834246129" lon="13.773013055181492"><ele>352.0</ele><time>2026-04-27T17:05:54Z</time></trkpt><trkpt lat="42.27407107276346" lon="13.773164613480446"><ele>352.0</ele><time>2026-04-27T17:05:55Z</time></trkpt><trkpt lat="42.2739405145573" lon="13.773326083540585"><ele>352.0</ele><time>2026-04-27T17:05:56Z</time></trkpt><trkpt lat="42.273801402494776" lon="13.773488456790947"><ele>352.66666666666663</ele><time>2026-04-27T17:05:57Z</time></trkpt><trkpt lat="42.27366632997825" lon="13.773641353581011"><ele>353.3333333333333</ele><time>2026-04-27T17:05:58Z</time></trkpt><trkpt lat="42.27353004566924" lon="13.773792510077076"><ele>354.0</ele><time>2026-04-27T17:05:59Z</time></trkpt><trkpt lat="42.27338671803567" lon="13.773963744838666"><ele>354.0</ele><time>2026-04-27T17:06:00Z</time></trkpt><trkpt lat="42.27324344239597" lon="13.77413582200728"><ele>354.0</ele><time>2026-04-27T17:06:01Z</time></trkpt><trkpt lat="42.27311507620772" lon="13.774318098296506"><ele>354.0</ele><time>2026-04-27T17:06:02Z</time></trkpt><trkpt lat="42.27299750324403" lon="13.774529676211575"><ele>355.0</ele><time>2026-04-27T17:06:03Z</time></trkpt><trkpt lat="42.27286746051109" lon="13.774733165651815"><ele>356.0</ele><time>2026-04-27T17:06:04Z</time></trkpt><trkpt lat="42.27274339814676" lon="13.774949763170357"><ele>357.0</ele><time>2026-04-27T17:06:05Z</time></trkpt><trkpt lat="42.2726417773618" lon="13.775146509456114"><ele>356.0</ele><time>2026-04-27T17:06:06Z</time></trkpt><trkpt lat="42.27253827849778" lon="13.77532243780236"><ele>355.0</ele><time>2026-04-27T17:06:07Z</time></trkpt><trkpt lat="42.27244191818336" lon="13.775452647726457"><ele>354.0</ele><time>2026-04-27T17:06:08Z</time></trkpt><trkpt lat="42.272370919919446" lon="13.775599917339033"><ele>353.0</ele><time>2026-04-27T17:06:09Z</time></trkpt><trkpt lat="42.2723229865761" lon="13.775779521539407"><ele>353.0</ele><time>2026-04-27T17:06:10Z</time></trkpt><trkpt lat="42.27227459985401" lon="13.775963383766841"><ele>353.0</ele><time>2026-04-27T17:06:11Z</time></trkpt><trkpt lat="42.27224306348486" lon="13.776180292812853"><ele>353.0</ele><time>2026-04-27T17:06:12Z</time></trkpt><trkpt lat="42.2722255538495" lon="13.776424521831549"><ele>352.33333333333337</ele><time>2026-04-27T17:06:13Z</time></trkpt><trkpt lat="42.27218887225918" lon="13.776680685584669"><ele>351.6666666666667</ele><time>2026-04-27T17:06:14Z</time></trkpt><trkpt lat="42.272160720355515" lon="13.776953938761151"><ele>351.0</ele><time>2026-04-27T17:06:15Z</time></trkpt><trkpt lat="42.27213328450936" lon="13.777230727457615"><ele>350.0</ele><time>2026-04-27T17:06:16Z</time></trkpt><trkpt lat="42.272105814447855" lon="13.77751813909179"><ele>349.0</ele><time>2026-04-27T17:06:17Z</time></trkpt><trkpt lat="42.272082982620326" lon="13.777777568049673"><ele>348.0</ele><time>2026-04-27T17:06:18Z</time></trkpt><trkpt lat="42.27207364463897" lon="13.778064621316199"><ele>347.3333333333333</ele><time>2026-04-27T17:06:19Z</time></trkpt><trkpt lat="42.27203273774941" lon="13.77833396243141"><ele>346.66666666666663</ele><time>2026-04-27T17:06:20Z</time></trkpt><trkpt lat="42.272019714535055" lon="13.778622871562693"><ele>346.0</ele><time>2026-04-27T17:06:21Z</time></trkpt><trkpt lat="42.27197639938407" lon="13.778889890538608"><ele>345.0</ele><time>2026-04-27T17:06:22Z</time></trkpt><trkpt lat="42.27194994195523" lon="13.779137426037982"><ele>344.0</ele><time>2026-04-27T17:06:23Z</time></trkpt><trkpt lat="42.27192047294421" lon="13.779363232613521"><ele>343.0</ele><time>2026-04-27T17:06:24Z</time></trkpt><trkpt lat="42.271887442107904" lon="13.779554007355062"><ele>342.25</ele><time>2026-04-27T17:06:25Z</time></trkpt><trkpt lat="42.271843373297884" lon="13.779705449830434"><ele>341.5</ele><time>2026-04-27T17:06:26Z</time></trkpt><trkpt lat="42.27178613569593" lon="13.779830246600437"><ele>340.75</ele><time>2026-04-27T17:06:27Z</time></trkpt><trkpt lat="42.27170695208979" lon="13.779958795405312"><ele>340.0</ele><time>2026-04-27T17:06:28Z</time></trkpt><trkpt lat="42.27160431601848" lon="13.78011214224608"><ele>340.3333333333333</ele><time>2026-04-27T17:06:29Z</time></trkpt><trkpt lat="42.27149778963656" lon="13.780268311224713"><ele>340.6666666666667</ele><time>2026-04-27T17:06:30Z</time></trkpt><trkpt lat="42.27138117150004" lon="13.78044304243359"><ele>341.0</ele><time>2026-04-27T17:06:31Z</time></trkpt><trkpt lat="42.2712648101343" lon="13.780622616524058"><ele>341.0</ele><time>2026-04-27T17:06:32Z</time></trkpt><trkpt lat="42.27117713019078" lon="13.780793897229243"><ele>341.0</ele><time>2026-04-27T17:06:33Z</time></trkpt><trkpt lat="42.27109573771275" lon="13.780919906454228"><ele>341.0</ele><time>2026-04-27T17:06:34Z</time></trkpt><trkpt lat="42.2710247098522" lon="13.781021233945278"><ele>341.0</ele><time>2026-04-27T17:06:35Z</time></trkpt><trkpt lat="42.27097497019813" lon="13.781093555988454"><ele>340.0</ele><time>2026-04-27T17:06:36Z</time></trkpt><trkpt lat="42.270921917780896" lon="13.781164778228398"><ele>339.0</ele><time>2026-04-27T17:06:37Z</time></trkpt><trkpt lat="42.27086218113007" lon="13.781233304342273"><ele>338.0</ele><time>2026-04-27T17:06:38Z</time></trkpt><trkpt lat="42.270755886137515" lon="13.781323249686315"><ele>337.0</ele><time>2026-04-27T17:06:39Z</time></trkpt><trkpt lat="42.27064889215169" lon="13.781400034924141"><ele>336.0</ele><time>2026-04-27T17:06:40Z</time></trkpt><trkpt lat="42.270513709941" lon="13.781451686459363"><ele>336.0</ele><time>2026-04-27T17:06:41Z</time></trkpt><trkpt lat="42.270386583894975" lon="13.781564078172968"><ele>336.0</ele><time>2026-04-27T17:06:42Z</time></trkpt><trkpt lat="42.27025071150381" lon="13.78165670169263"><ele>336.0</ele><time>2026-04-27T17:06:43Z</time></trkpt><trkpt lat="42.270121998557634" lon="13.781761668131455"><ele>335.25</ele><time>2026-04-27T17:06:44Z</time></trkpt><trkpt lat="42.27000998136025" lon="13.78185274112845"><ele>334.5</ele><time>2026-04-27T17:06:45Z</time></trkpt><trkpt lat="42.2698832796317" lon="13.781911044318592"><ele>333.75</ele><time>2026-04-27T17:06:46Z</time></trkpt><trkpt lat="42.269751393111406" lon="13.781963084304534"><ele>333.0</ele><time>2026-04-27T17:06:47Z</time></trkpt><trkpt lat="42.26961841155387" lon="13.782003037354416"><ele>334.4</ele><time>2026-04-27T17:06:48Z</time></trkpt><trkpt lat="42.26950774850353" lon="13.782049063473849"><ele>335.79999999999995</ele><time>2026-04-27T17:06:49Z</time></trkpt><trkpt lat="42.26941987582863" lon="13.782120217850222"><ele>337.2</ele><time>2026-04-27T17:06:50Z</time></trkpt><trkpt lat="42.26936494468306" lon="13.78223343448619"><ele>338.6</ele><time>2026-04-27T17:06:51Z</time></trkpt><trkpt lat="42.269356615302506" lon="13.782386040699645"><ele>340.0</ele><time>2026-04-27T17:06:52Z</time></trkpt><trkpt lat="42.26933506414544" lon="13.782538033738856"><ele>339.75</ele><time>2026-04-27T17:06:53Z</time></trkpt><trkpt lat="42.269319964184724" lon="13.782711646477457"><ele>339.5</ele><time>2026-04-27T17:06:54Z</time></trkpt><trkpt lat="42.26929286783008" lon="13.782893877083884"><ele>339.25</ele><time>2026-04-27T17:06:55Z</time></trkpt><trkpt lat="42.26925782993886" lon="13.783078815138177"><ele>339.0</ele><time>2026-04-27T17:06:56Z</time></trkpt><trkpt lat="42.26920081280537" lon="13.783264895738046"><ele>339.0</ele><time>2026-04-27T17:06:57Z</time></trkpt><trkpt lat="42.269144611251065" lon="13.783454220678061"><ele>339.0</ele><time>2026-04-27T17:06:58Z</time></trkpt><trkpt lat="42.26908162729021" lon="13.783645790396927"><ele>339.0</ele><time>2026-04-27T17:06:59Z</time></trkpt><trkpt lat="42.26902160763254" lon="13.783847817364949"><ele>340.3333333333333</ele><time>2026-04-27T17:07:00Z</time></trkpt><trkpt lat="42.26891865103416" lon="13.784024735022049"><ele>341.66666666666663</ele><time>2026-04-27T17:07:01Z</time></trkpt><trkpt lat="42.268839946822304" lon="13.784217235514426"><ele>343.0</ele><time>2026-04-27T17:07:02Z</time></trkpt><trkpt lat="42.26873494257608" lon="13.784371403271592"><ele>343.0</ele><time>2026-04-27T17:07:03Z</time></trkpt><trkpt lat="42.26862969624432" lon="13.78454658930012"><ele>343.0</ele><time>2026-04-27T17:07:04Z</time></trkpt><trkpt lat="42.268525648720356" lon="13.784694280714564"><ele>343.0</ele><time>2026-04-27T17:07:05Z</time></trkpt><trkpt lat="42.268400843356105" lon="13.784840340842132"><ele>343.0</ele><time>2026-04-27T17:07:06Z</time></trkpt><trkpt lat="42.26827811388159" lon="13.784970154983368"><ele>343.0</ele><time>2026-04-27T17:07:07Z</time></trkpt><trkpt lat="42.268144273909584" lon="13.785101172672041"><ele>343.0</ele><time>2026-04-27T17:07:08Z</time></trkpt><trkpt lat="42.26800869115474" lon="13.785217258774285"><ele>344.3333333333333</ele><time>2026-04-27T17:07:09Z</time></trkpt><trkpt lat="42.26785963426112" lon="13.785338642611038"><ele>345.6666666666667</ele><time>2026-04-27T17:07:10Z</time></trkpt><trkpt lat="42.26771864494795" lon="13.785455415998603"><ele>347.0</ele><time>2026-04-27T17:07:11Z</time></trkpt><trkpt lat="42.26757777311909" lon="13.785601260464999"><ele>347.0</ele><time>2026-04-27T17:07:12Z</time></trkpt><trkpt lat="42.26745386479666" lon="13.785755338775719"><ele>347.0</ele><time>2026-04-27T17:07:13Z</time></trkpt><trkpt lat="42.26731675746923" lon="13.785916870557687"><ele>347.0</ele><time>2026-04-27T17:07:14Z</time></trkpt><trkpt lat="42.26717883294656" lon="13.786051911972423"><ele>347.33333333333337</ele><time>2026-04-27T17:07:15Z</time></trkpt><trkpt lat="42.267047223269955" lon="13.786201887821157"><ele>347.6666666666667</ele><time>2026-04-27T17:07:16Z</time></trkpt><trkpt lat="42.266913272730136" lon="13.786370124628178"><ele>348.0</ele><time>2026-04-27T17:07:17Z</time></trkpt><trkpt lat="42.26678698873053" lon="13.786548026706651"><ele>348.0</ele><time>2026-04-27T17:07:18Z</time></trkpt><trkpt lat="42.26667865621193" lon="13.78673763864256"><ele>348.0</ele><time>2026-04-27T17:07:19Z</time></trkpt><trkpt lat="42.266550474231735" lon="13.78692260398651"><ele>348.0</ele><time>2026-04-27T17:07:20Z</time></trkpt><trkpt lat="42.266434224053626" lon="13.787109675815476"><ele>347.6666666666667</ele><time>2026-04-27T17:07:21Z</time></trkpt><trkpt lat="42.26632300874976" lon="13.787311132684625"><ele>347.33333333333337</ele><time>2026-04-27T17:07:22Z</time></trkpt><trkpt lat="42.266218932522044" lon="13.787512447378344"><ele>347.0</ele><time>2026-04-27T17:07:23Z</time></trkpt><trkpt lat="42.26611147070855" lon="13.787715284411789"><ele>347.0</ele><time>2026-04-27T17:07:24Z</time></trkpt><trkpt lat="42.266003432458255" lon="13.787912079750946"><ele>347.0</ele><time>2026-04-27T17:07:25Z</time></trkpt><trkpt lat="42.265885207229225" lon="13.788106127792625"><ele>347.0</ele><time>2026-04-27T17:07:26Z</time></trkpt><trkpt lat="42.265766699360185" lon="13.788298510036087"><ele>347.0</ele><time>2026-04-27T17:07:27Z</time></trkpt><trkpt lat="42.265656275725426" lon="13.788487591398692"><ele>347.0</ele><time>2026-04-27T17:07:28Z</time></trkpt><trkpt lat="42.26555441598285" lon="13.788691765109363"><ele>347.0</ele><time>2026-04-27T17:07:29Z</time></trkpt><trkpt lat="42.26544060905758" lon="13.788875814916771"><ele>347.0</ele><time>2026-04-27T17:07:30Z</time></trkpt><trkpt lat="42.26535605385947" lon="13.7890432905616"><ele>347.0</ele><time>2026-04-27T17:07:31Z</time></trkpt><trkpt lat="42.2652763308641" lon="13.789221622769164"><ele>347.0</ele><time>2026-04-27T17:07:32Z</time></trkpt><trkpt lat="42.26520978519946" lon="13.789425662199001"><ele>347.0</ele><time>2026-04-27T17:07:33Z</time></trkpt><trkpt lat="42.26514459891114" lon="13.789639488401074"><ele>347.0</ele><time>2026-04-27T17:07:34Z</time></trkpt><trkpt lat="42.26507303161552" lon="13.789840331487522"><ele>347.0</ele><time>2026-04-27T17:07:35Z</time></trkpt><trkpt lat="42.264996454404354" lon="13.790038902556745"><ele>346.33333333333337</ele><time>2026-04-27T17:07:36Z</time></trkpt><trkpt lat="42.26492328634428" lon="13.790245524638973"><ele>345.6666666666667</ele><time>2026-04-27T17:07:37Z</time></trkpt><trkpt lat="42.26485262895039" lon="13.790466425534502"><ele>345.0</ele><time>2026-04-27T17:07:38Z</time></trkpt><trkpt lat="42.264782747014905" lon="13.790687545767389"><ele>346.3333333333333</ele><time>2026-04-27T17:07:39Z</time></trkpt><trkpt lat="42.26471426067142" lon="13.790904250087697"><ele>347.66666666666663</ele><time>2026-04-27T17:07:40Z</time></trkpt><trkpt lat="42.264644306365454" lon="13.791124287416823"><ele>349.0</ele><time>2026-04-27T17:07:41Z</time></trkpt><trkpt lat="42.264577427743696" lon="13.791334162993923"><ele>349.0</ele><time>2026-04-27T17:07:42Z</time></trkpt><trkpt lat="42.264507166888" lon="13.7915546527575"><ele>349.0</ele><time>2026-04-27T17:07:43Z</time></trkpt><trkpt lat="42.2644396754004" lon="13.791769096854814"><ele>349.0</ele><time>2026-04-27T17:07:44Z</time></trkpt><trkpt lat="42.26437265458252" lon="13.791998844706441"><ele>348.0</ele><time>2026-04-27T17:07:45Z</time></trkpt><trkpt lat="42.26431214936146" lon="13.79222501657206"><ele>347.0</ele><time>2026-04-27T17:07:46Z</time></trkpt><trkpt lat="42.26425496855455" lon="13.792477325459018"><ele>346.0</ele><time>2026-04-27T17:07:47Z</time></trkpt><trkpt lat="42.26419797608145" lon="13.792716538577446"><ele>345.3333333333333</ele><time>2026-04-27T17:07:48Z</time></trkpt><trkpt lat="42.264133041770606" lon="13.792948187358547"><ele>344.6666666666667</ele><time>2026-04-27T17:07:49Z</time></trkpt><trkpt lat="42.26405607054264" lon="13.793179529478525"><ele>344.0</ele><time>2026-04-27T17:07:50Z</time></trkpt><trkpt lat="42.26397794794215" lon="13.79341862343538"><ele>344.6666666666667</ele><time>2026-04-27T17:07:51Z</time></trkpt><trkpt lat="42.263902022123915" lon="13.793645599300062"><ele>345.3333333333333</ele><time>2026-04-27T17:07:52Z</time></trkpt><trkpt lat="42.26382548875341" lon="13.79387031293634"><ele>346.0</ele><time>2026-04-27T17:07:53Z</time></trkpt><trkpt lat="42.263757982710345" lon="13.79406852099519"><ele>346.0</ele><time>2026-04-27T17:07:54Z</time></trkpt><trkpt lat="42.26370023621327" lon="13.794273381241615"><ele>346.0</ele><time>2026-04-27T17:07:55Z</time></trkpt><trkpt lat="42.263607834606944" lon="13.794444254470411"><ele>346.0</ele><time>2026-04-27T17:07:56Z</time></trkpt><trkpt lat="42.26351622793409" lon="13.794607139470557"><ele>344.66666666666663</ele><time>2026-04-27T17:07:57Z</time></trkpt><trkpt lat="42.26340449907327" lon="13.794781103724663"><ele>343.3333333333333</ele><time>2026-04-27T17:07:58Z</time></trkpt><trkpt lat="42.26330489171824" lon="13.79495682452234"><ele>342.0</ele><time>2026-04-27T17:07:59Z</time></trkpt><trkpt lat="42.263195738415334" lon="13.79513583006438"><ele>343.3333333333333</ele><time>2026-04-27T17:08:00Z</time></trkpt><trkpt lat="42.26308676826145" lon="13.795326046860248"><ele>344.66666666666663</ele><time>2026-04-27T17:08:01Z</time></trkpt><trkpt lat="42.26298268591844" lon="13.79550836596124"><ele>346.0</ele><time>2026-04-27T17:08:02Z</time></trkpt><trkpt lat="42.26286396645969" lon="13.795675694275321"><ele>346.0</ele><time>2026-04-27T17:08:03Z</time></trkpt><trkpt lat="42.26277112380177" lon="13.795830428778434"><ele>346.0</ele><time>2026-04-27T17:08:04Z</time></trkpt><trkpt lat="42.26269803654434" lon="13.795991359979425"><ele>346.0</ele><time>2026-04-27T17:08:05Z</time></trkpt><trkpt lat="42.26262120528053" lon="13.796110758343"><ele>346.0</ele><time>2026-04-27T17:08:06Z</time></trkpt><trkpt lat="42.26258181062423" lon="13.79621062048323"><ele>345.6</ele><time>2026-04-27T17:08:07Z</time></trkpt><trkpt lat="42.26268569149327" lon="13.796349925709812"><ele>345.20000000000005</ele><time>2026-04-27T17:08:11Z</time></trkpt><trkpt lat="42.26276460234312" lon="13.79635693990797"><ele>344.79999999999995</ele><time>2026-04-27T17:08:12Z</time></trkpt><trkpt lat="42.26286771603037" lon="13.796356831424214"><ele>344.4</ele><time>2026-04-27T17:08:13Z</time></trkpt><trkpt lat="42.26298464725459" lon="13.796361183852557"><ele>344.0</ele><time>2026-04-27T17:08:14Z</time></trkpt><trkpt lat="42.26311128362259" lon="13.796377470428222"><ele>342.33333333333337</ele><time>2026-04-27T17:08:15Z</time></trkpt><trkpt lat="42.26325456705855" lon="13.796404250300455"><ele>340.6666666666667</ele><time>2026-04-27T17:08:16Z</time></trkpt><trkpt lat="42.26340267133304" lon="13.796432637159825"><ele>339.0</ele><time>2026-04-27T17:08:17Z</time></trkpt><trkpt lat="42.26355795225989" lon="13.796476590304707"><ele>339.0</ele><time>2026-04-27T17:08:18Z</time></trkpt><trkpt lat="42.26372758110174" lon="13.79651018386256"><ele>339.0</ele><time>2026-04-27T17:08:19Z</time></trkpt><trkpt lat="42.26389292105928" lon="13.796551543108171"><ele>339.0</ele><time>2026-04-27T17:08:20Z</time></trkpt><trkpt lat="42.26405246141806" lon="13.796587272838355"><ele>338.0</ele><time>2026-04-27T17:08:21Z</time></trkpt><trkpt lat="42.26419211925027" lon="13.796617005204626"><ele>337.0</ele><time>2026-04-27T17:08:22Z</time></trkpt><trkpt lat="42.264324097429835" lon="13.796655595888497"><ele>336.0</ele><time>2026-04-27T17:08:23Z</time></trkpt><trkpt lat="42.2644265686325" lon="13.796756980531606"><ele>335.0</ele><time>2026-04-27T17:08:24Z</time></trkpt><trkpt lat="42.26452435572993" lon="13.796858836315911"><ele>333.25</ele><time>2026-04-27T17:08:25Z</time></trkpt><trkpt lat="42.264615640492266" lon="13.79698071735449"><ele>331.5</ele><time>2026-04-27T17:08:26Z</time></trkpt><trkpt lat="42.2647088223138" lon="13.797096389233227"><ele>329.75</ele><time>2026-04-27T17:08:27Z</time></trkpt><trkpt lat="42.26476020307593" lon="13.797253160578814"><ele>328.0</ele><time>2026-04-27T17:08:28Z</time></trkpt><trkpt lat="42.26480423861285" lon="13.79742308117722"><ele>328.0</ele><time>2026-04-27T17:08:29Z</time></trkpt><trkpt lat="42.26482519171844" lon="13.797616561853303"><ele>328.0</ele><time>2026-04-27T17:08:30Z</time></trkpt><trkpt lat="42.26484663160931" lon="13.79782130901283"><ele>328.0</ele><time>2026-04-27T17:08:31Z</time></trkpt><trkpt lat="42.26486657573222" lon="13.798037153995764"><ele>328.25</ele><time>2026-04-27T17:08:32Z</time></trkpt><trkpt lat="42.26488752542162" lon="13.79824070460939"><ele>328.5</ele><time>2026-04-27T17:08:33Z</time></trkpt><trkpt lat="42.26492368802028" lon="13.79843613503674"><ele>328.75</ele><time>2026-04-27T17:08:34Z</time></trkpt><trkpt lat="42.264994074065775" lon="13.79860084145163"><ele>329.0</ele><time>2026-04-27T17:08:35Z</time></trkpt><trkpt lat="42.26506064815063" lon="13.798765689654253"><ele>329.0</ele><time>2026-04-27T17:08:36Z</time></trkpt><trkpt lat="42.26510557391111" lon="13.798938192850576"><ele>329.0</ele><time>2026-04-27T17:08:37Z</time></trkpt><trkpt lat="42.26517075978108" lon="13.799077621068482"><ele>329.0</ele><time>2026-04-27T17:08:38Z</time></trkpt><trkpt lat="42.265205334189766" lon="13.799188939514709"><ele>329.0</ele><time>2026-04-27T17:08:39Z</time></trkpt><trkpt lat="42.26504294515123" lon="13.799249644923298"><ele>329.0</ele><time>2026-04-27T17:08:52Z</time></trkpt><trkpt lat="42.264960512928326" lon="13.799302220274601"><ele>329.0</ele><time>2026-04-27T17:08:53Z</time></trkpt><trkpt lat="42.26486455105685" lon="13.799291398052011"><ele>329.0</ele><time>2026-04-27T17:08:54Z</time></trkpt><trkpt lat="42.2647648875277" lon="13.799269164369704"><ele>329.0</ele><time>2026-04-27T17:08:55Z</time></trkpt><trkpt lat="42.26466348670352" lon="13.799269900077562"><ele>329.0</ele><time>2026-04-27T17:08:56Z</time></trkpt><trkpt lat="42.26455693044142" lon="13.799304131928295"><ele>331.0</ele><time>2026-04-27T17:08:57Z</time></trkpt><trkpt lat="42.26446331235492" lon="13.799386526555196"><ele>333.0</ele><time>2026-04-27T17:08:58Z</time></trkpt><trkpt lat="42.264371127513996" lon="13.79946453692968"><ele>335.0</ele><time>2026-04-27T17:08:59Z</time></trkpt><trkpt lat="42.26428241018439" lon="13.799565113953147"><ele>337.0</ele><time>2026-04-27T17:09:00Z</time></trkpt><trkpt lat="42.26417640917908" lon="13.799647970735814"><ele>337.0</ele><time>2026-04-27T17:09:01Z</time></trkpt><trkpt lat="42.264076400384674" lon="13.799728635798902"><ele>337.0</ele><time>2026-04-27T17:09:02Z</time></trkpt><trkpt lat="42.26395653563213" lon="13.79982731472477"><ele>337.0</ele><time>2026-04-27T17:09:03Z</time></trkpt><trkpt lat="42.26382115087465" lon="13.79988476058097"><ele>337.0</ele><time>2026-04-27T17:09:04Z</time></trkpt><trkpt lat="42.26368052233709" lon="13.799950987991673"><ele>336.25</ele><time>2026-04-27T17:09:05Z</time></trkpt><trkpt lat="42.26354562382776" lon="13.80000670052383"><ele>335.5</ele><time>2026-04-27T17:09:06Z</time></trkpt><trkpt lat="42.26340275089195" lon="13.800055079024222"><ele>334.75</ele><time>2026-04-27T17:09:07Z</time></trkpt><trkpt lat="42.263269900379775" lon="13.80007195491778"><ele>334.0</ele><time>2026-04-27T17:09:08Z</time></trkpt><trkpt lat="42.26314215604083" lon="13.800059957150982"><ele>333.79999999999995</ele><time>2026-04-27T17:09:09Z</time></trkpt><trkpt lat="42.26302651863644" lon="13.800027882590223"><ele>333.59999999999997</ele><time>2026-04-27T17:09:10Z</time></trkpt><trkpt lat="42.262923421855795" lon="13.79999374271696"><ele>333.4</ele><time>2026-04-27T17:09:11Z</time></trkpt><trkpt lat="42.262831396604994" lon="13.799937465770181"><ele>333.2</ele><time>2026-04-27T17:09:12Z</time></trkpt><trkpt lat="42.262746454815584" lon="13.799909586507264"><ele>333.0</ele><time>2026-04-27T17:09:13Z</time></trkpt><trkpt lat="42.26267357487456" lon="13.799881287876351"><ele>333.0</ele><time>2026-04-27T17:09:14Z</time></trkpt><trkpt lat="42.26254526544916" lon="13.799850985416153"><ele>333.0</ele><time>2026-04-27T17:09:16Z</time></trkpt><trkpt lat="42.26241698793827" lon="13.79983623502784"><ele>333.0</ele><time>2026-04-27T17:09:18Z</time></trkpt><trkpt lat="42.26234405448683" lon="13.799837273604286"><ele>333.0</ele><time>2026-04-27T17:09:19Z</time></trkpt><trkpt lat="42.262262329226175" lon="13.799837149911893"><ele>333.0</ele><time>2026-04-27T17:09:20Z</time></trkpt><trkpt lat="42.26219003036674" lon="13.799810268386342"><ele>332.8333333333333</ele><time>2026-04-27T17:09:21Z</time></trkpt><trkpt lat="42.26212368656752" lon="13.799802547075052"><ele>332.6666666666667</ele><time>2026-04-27T17:09:22Z</time></trkpt><trkpt lat="42.262010625416174" lon="13.79979371065857"><ele>332.5</ele><time>2026-04-27T17:09:24Z</time></trkpt><trkpt lat="42.26194906187" lon="13.799814184705928"><ele>332.33333333333337</ele><time>2026-04-27T17:09:25Z</time></trkpt><trkpt lat="42.261829382305244" lon="13.799822977853225"><ele>332.1666666666667</ele><time>2026-04-27T17:09:27Z</time></trkpt><trkpt lat="42.26175542109854" lon="13.799853653728269"><ele>332.0</ele><time>2026-04-27T17:09:28Z</time></trkpt><trkpt lat="42.261669992912516" lon="13.799915604664196"><ele>332.0</ele><time>2026-04-27T17:09:29Z</time></trkpt><trkpt lat="42.26157974430931" lon="13.79996528798745"><ele>332.0</ele><time>2026-04-27T17:09:30Z</time></trkpt><trkpt lat="42.26149526432243" lon="13.800034230955214"><ele>332.0</ele><time>2026-04-27T17:09:31Z</time></trkpt><trkpt lat="42.261413764773856" lon="13.800101112388305"><ele>332.0</ele><time>2026-04-27T17:09:32Z</time></trkpt><trkpt lat="42.26132700640329" lon="13.800173783412848"><ele>332.0</ele><time>2026-04-27T17:09:33Z</time></trkpt><trkpt lat="42.261246302054765" lon="13.800248373655101"><ele>332.0</ele><time>2026-04-27T17:09:34Z</time></trkpt><trkpt lat="42.261178363430645" lon="13.800339448162998"><ele>332.0</ele><time>2026-04-27T17:09:35Z</time></trkpt><trkpt lat="42.26109911717441" lon="13.800424338905186"><ele>332.0</ele><time>2026-04-27T17:09:36Z</time></trkpt><trkpt lat="42.261020697960966" lon="13.800506254776225"><ele>332.0</ele><time>2026-04-27T17:09:37Z</time></trkpt><trkpt lat="42.260940163338134" lon="13.800609385302334"><ele>332.0</ele><time>2026-04-27T17:09:38Z</time></trkpt><trkpt lat="42.26086267276323" lon="13.800710521677763"><ele>332.0</ele><time>2026-04-27T17:09:39Z</time></trkpt><trkpt lat="42.26078749649957" lon="13.800811318673153"><ele>332.0</ele><time>2026-04-27T17:09:40Z</time></trkpt><trkpt lat="42.26069965895215" lon="13.800898100413374"><ele>332.0</ele><time>2026-04-27T17:09:41Z</time></trkpt><trkpt lat="42.260626763493605" lon="13.800954040724312"><ele>332.0</ele><time>2026-04-27T17:09:42Z</time></trkpt><trkpt lat="42.26054166483327" lon="13.801044148384188"><ele>332.0</ele><time>2026-04-27T17:09:43Z</time></trkpt><trkpt lat="42.26044312320638" lon="13.801133677676098"><ele>331.75</ele><time>2026-04-27T17:09:44Z</time></trkpt><trkpt lat="42.26034340535016" lon="13.801224857316832"><ele>331.5</ele><time>2026-04-27T17:09:45Z</time></trkpt><trkpt lat="42.260235794227356" lon="13.801308767380135"><ele>331.25</ele><time>2026-04-27T17:09:46Z</time></trkpt><trkpt lat="42.26014911996135" lon="13.80143632187463"><ele>331.0</ele><time>2026-04-27T17:09:47Z</time></trkpt><trkpt lat="42.260054867411775" lon="13.801552322093091"><ele>331.0</ele><time>2026-04-27T17:09:48Z</time></trkpt><trkpt lat="42.25996785032415" lon="13.801667421861099"><ele>331.0</ele><time>2026-04-27T17:09:49Z</time></trkpt><trkpt lat="42.2598873585324" lon="13.801789268548482"><ele>331.0</ele><time>2026-04-27T17:09:50Z</time></trkpt><trkpt lat="42.2598057512711" lon="13.801922914955924"><ele>331.0</ele><time>2026-04-27T17:09:51Z</time></trkpt><trkpt lat="42.259725022309325" lon="13.802042467484828"><ele>332.0</ele><time>2026-04-27T17:09:52Z</time></trkpt><trkpt lat="42.259628129624005" lon="13.802116312725083"><ele>333.0</ele><time>2026-04-27T17:09:53Z</time></trkpt><trkpt lat="42.259529648474384" lon="13.802211978439464"><ele>334.0</ele><time>2026-04-27T17:09:54Z</time></trkpt><trkpt lat="42.259409372252605" lon="13.802267841473247"><ele>335.0</ele><time>2026-04-27T17:09:55Z</time></trkpt><trkpt lat="42.25929630332822" lon="13.802329500352373"><ele>335.0</ele><time>2026-04-27T17:09:56Z</time></trkpt><trkpt lat="42.25919565759137" lon="13.802357693911741"><ele>335.0</ele><time>2026-04-27T17:09:57Z</time></trkpt><trkpt lat="42.25909105367139" lon="13.802362563696423"><ele>335.0</ele><time>2026-04-27T17:09:58Z</time></trkpt><trkpt lat="42.2590020740982" lon="13.802352321792332"><ele>335.0</ele><time>2026-04-27T17:09:59Z</time></trkpt><trkpt lat="42.25890825123498" lon="13.802326339876393"><ele>335.0</ele><time>2026-04-27T17:10:00Z</time></trkpt><trkpt lat="42.258800739165345" lon="13.802309075399744"><ele>335.75</ele><time>2026-04-27T17:10:01Z</time></trkpt><trkpt lat="42.258692202922305" lon="13.802264166696594"><ele>336.5</ele><time>2026-04-27T17:10:02Z</time></trkpt><trkpt lat="42.25857092099421" lon="13.802215323880008"><ele>337.25</ele><time>2026-04-27T17:10:03Z</time></trkpt><trkpt lat="42.25846508748019" lon="13.802146508112319"><ele>338.0</ele><time>2026-04-27T17:10:04Z</time></trkpt><trkpt lat="42.258354556187314" lon="13.802111314328666"><ele>338.0</ele><time>2026-04-27T17:10:05Z</time></trkpt><trkpt lat="42.258260075802546" lon="13.802067072854593"><ele>338.0</ele><time>2026-04-27T17:10:06Z</time></trkpt><trkpt lat="42.258173913899924" lon="13.802002986448958"><ele>338.0</ele><time>2026-04-27T17:10:07Z</time></trkpt><trkpt lat="42.258099684674015" lon="13.801919262395637"><ele>338.0</ele><time>2026-04-27T17:10:08Z</time></trkpt><trkpt lat="42.25804281194516" lon="13.80179838151628"><ele>338.0</ele><time>2026-04-27T17:10:09Z</time></trkpt><trkpt lat="42.25797924071702" lon="13.801643831627304"><ele>337.0</ele><time>2026-04-27T17:10:10Z</time></trkpt><trkpt lat="42.257902378268454" lon="13.801491155471643"><ele>336.0</ele><time>2026-04-27T17:10:11Z</time></trkpt><trkpt lat="42.25782087607282" lon="13.801352032917057"><ele>335.0</ele><time>2026-04-27T17:10:12Z</time></trkpt><trkpt lat="42.25773369686981" lon="13.801252469955669"><ele>334.0</ele><time>2026-04-27T17:10:13Z</time></trkpt><trkpt lat="42.257647467585514" lon="13.801196559373548"><ele>334.0</ele><time>2026-04-27T17:10:14Z</time></trkpt><trkpt lat="42.25757114582857" lon="13.80114722077932"><ele>334.0</ele><time>2026-04-27T17:10:15Z</time></trkpt><trkpt lat="42.25748510532495" lon="13.801144880365465"><ele>334.0</ele><time>2026-04-27T17:10:16Z</time></trkpt><trkpt lat="42.25738264766017" lon="13.801197239098045"><ele>334.0</ele><time>2026-04-27T17:10:17Z</time></trkpt><trkpt lat="42.25728360705583" lon="13.80127149319985"><ele>334.0</ele><time>2026-04-27T17:10:18Z</time></trkpt><trkpt lat="42.25718406082456" lon="13.8013517807521"><ele>332.25</ele><time>2026-04-27T17:10:19Z</time></trkpt><trkpt lat="42.257079353172195" lon="13.80144696113233"><ele>330.5</ele><time>2026-04-27T17:10:20Z</time></trkpt><trkpt lat="42.25697654093267" lon="13.801550032524021"><ele>328.75</ele><time>2026-04-27T17:10:21Z</time></trkpt><trkpt lat="42.256886589535796" lon="13.801672948415478"><ele>327.0</ele><time>2026-04-27T17:10:22Z</time></trkpt><trkpt lat="42.25680546448278" lon="13.801794766195657"><ele>329.0</ele><time>2026-04-27T17:10:23Z</time></trkpt><trkpt lat="42.25672138220124" lon="13.801921024782478"><ele>331.0</ele><time>2026-04-27T17:10:24Z</time></trkpt><trkpt lat="42.25663758058998" lon="13.80204437896878"><ele>333.0</ele><time>2026-04-27T17:10:25Z</time></trkpt><trkpt lat="42.25655092325581" lon="13.802154311520175"><ele>335.0</ele><time>2026-04-27T17:10:26Z</time></trkpt><trkpt lat="42.256456736542894" lon="13.80224664281107"><ele>333.75</ele><time>2026-04-27T17:10:27Z</time></trkpt><trkpt lat="42.256361412138986" lon="13.802307002969352"><ele>332.5</ele><time>2026-04-27T17:10:28Z</time></trkpt><trkpt lat="42.256258799348394" lon="13.802352107277827"><ele>331.25</ele><time>2026-04-27T17:10:29Z</time></trkpt><trkpt lat="42.2561388475254" lon="13.802396764350833"><ele>330.0</ele><time>2026-04-27T17:10:30Z</time></trkpt><trkpt lat="42.25601321405346" lon="13.802436666981945"><ele>330.0</ele><time>2026-04-27T17:10:31Z</time></trkpt><trkpt lat="42.255882137690705" lon="13.80247374904578"><ele>330.0</ele><time>2026-04-27T17:10:32Z</time></trkpt><trkpt lat="42.255751474195456" lon="13.802512565939466"><ele>330.0</ele><time>2026-04-27T17:10:33Z</time></trkpt><trkpt lat="42.25562261404639" lon="13.802559022523694"><ele>330.0</ele><time>2026-04-27T17:10:34Z</time></trkpt><trkpt lat="42.255500462337714" lon="13.802630943916803"><ele>331.25</ele><time>2026-04-27T17:10:35Z</time></trkpt><trkpt lat="42.25537915998347" lon="13.802713603688108"><ele>332.5</ele><time>2026-04-27T17:10:36Z</time></trkpt><trkpt lat="42.255257380587025" lon="13.802792989091726"><ele>333.75</ele><time>2026-04-27T17:10:37Z</time></trkpt><trkpt lat="42.255141507200825" lon="13.802860789580624"><ele>335.0</ele><time>2026-04-27T17:10:38Z</time></trkpt><trkpt lat="42.25502341904608" lon="13.80291422472193"><ele>335.0</ele><time>2026-04-27T17:10:39Z</time></trkpt><trkpt lat="42.254900161261936" lon="13.802954596889652"><ele>335.0</ele><time>2026-04-27T17:10:40Z</time></trkpt><trkpt lat="42.254770724013454" lon="13.80299307767061"><ele>335.0</ele><time>2026-04-27T17:10:41Z</time></trkpt><trkpt lat="42.2546596030253" lon="13.802998482072708"><ele>335.0</ele><time>2026-04-27T17:10:42Z</time></trkpt><trkpt lat="42.254555708838886" lon="13.802990483517883"><ele>333.75</ele><time>2026-04-27T17:10:43Z</time></trkpt><trkpt lat="42.2544368309742" lon="13.802992902467855"><ele>332.5</ele><time>2026-04-27T17:10:44Z</time></trkpt><trkpt lat="42.25430715544743" lon="13.803035105536573"><ele>331.25</ele><time>2026-04-27T17:10:45Z</time></trkpt><trkpt lat="42.25417204130992" lon="13.803093882790005"><ele>330.0</ele><time>2026-04-27T17:10:46Z</time></trkpt><trkpt lat="42.25402642528901" lon="13.803158904009107"><ele>328.25</ele><time>2026-04-27T17:10:47Z</time></trkpt><trkpt lat="42.253893416462034" lon="13.803217928676958"><ele>326.5</ele><time>2026-04-27T17:10:48Z</time></trkpt><trkpt lat="42.25376649522324" lon="13.80327288414012"><ele>324.75</ele><time>2026-04-27T17:10:49Z</time></trkpt><trkpt lat="42.25365428891765" lon="13.803316001467289"><ele>323.0</ele><time>2026-04-27T17:10:50Z</time></trkpt><trkpt lat="42.25354381499726" lon="13.803374999983493"><ele>323.0</ele><time>2026-04-27T17:10:51Z</time></trkpt><trkpt lat="42.25343540934213" lon="13.803456988999962"><ele>323.0</ele><time>2026-04-27T17:10:52Z</time></trkpt><trkpt lat="42.253330235266056" lon="13.803546901159047"><ele>323.0</ele><time>2026-04-27T17:10:53Z</time></trkpt><trkpt lat="42.253229344427275" lon="13.803641892495257"><ele>323.0</ele><time>2026-04-27T17:10:54Z</time></trkpt><trkpt lat="42.25313069263173" lon="13.803734915370896"><ele>324.0</ele><time>2026-04-27T17:10:55Z</time></trkpt><trkpt lat="42.253028818023914" lon="13.803825143800696"><ele>325.0</ele><time>2026-04-27T17:10:56Z</time></trkpt><trkpt lat="42.252929679044755" lon="13.80389654220201"><ele>326.0</ele><time>2026-04-27T17:10:57Z</time></trkpt><trkpt lat="42.25281664060759" lon="13.803949730143184"><ele>327.0</ele><time>2026-04-27T17:10:58Z</time></trkpt><trkpt lat="42.25268512539118" lon="13.80399883946938"><ele>327.0</ele><time>2026-04-27T17:10:59Z</time></trkpt><trkpt lat="42.25253549656955" lon="13.80403298815538"><ele>327.0</ele><time>2026-04-27T17:11:00Z</time></trkpt><trkpt lat="42.25239908820777" lon="13.804060647720299"><ele>327.0</ele><time>2026-04-27T17:11:01Z</time></trkpt><trkpt lat="42.252289466655924" lon="13.804068900367572"><ele>327.0</ele><time>2026-04-27T17:11:02Z</time></trkpt><trkpt lat="42.25217742711788" lon="13.804050517250014"><ele>329.5</ele><time>2026-04-27T17:11:03Z</time></trkpt><trkpt lat="42.25205271851021" lon="13.804014401678618"><ele>332.0</ele><time>2026-04-27T17:11:04Z</time></trkpt><trkpt lat="42.25193179246949" lon="13.80396668559217"><ele>334.5</ele><time>2026-04-27T17:11:05Z</time></trkpt><trkpt lat="42.251822344865026" lon="13.80385885046471"><ele>337.0</ele><time>2026-04-27T17:11:06Z</time></trkpt><trkpt lat="42.25174355586969" lon="13.803756339786446"><ele>337.0</ele><time>2026-04-27T17:11:07Z</time></trkpt><trkpt lat="42.25167847930051" lon="13.803642525607621"><ele>337.0</ele><time>2026-04-27T17:11:08Z</time></trkpt><trkpt lat="42.25161114741342" lon="13.803571571357937"><ele>337.0</ele><time>2026-04-27T17:11:09Z</time></trkpt><trkpt lat="42.251535098239295" lon="13.803534232918768"><ele>337.0</ele><time>2026-04-27T17:11:10Z</time></trkpt><trkpt lat="42.251446050127406" lon="13.803485595819508"><ele>337.0</ele><time>2026-04-27T17:11:11Z</time></trkpt><trkpt lat="42.25133918224015" lon="13.803442890076226"><ele>335.25</ele><time>2026-04-27T17:11:12Z</time></trkpt><trkpt lat="42.25122192045439" lon="13.803387009353905"><ele>333.5</ele><time>2026-04-27T17:11:13Z</time></trkpt><trkpt lat="42.251103942707125" lon="13.803349527134744"><ele>331.75</ele><time>2026-04-27T17:11:14Z</time></trkpt><trkpt lat="42.25098182809986" lon="13.80330741645671"><ele>330.0</ele><time>2026-04-27T17:11:15Z</time></trkpt><trkpt lat="42.25086702552681" lon="13.80329766258432"><ele>330.0</ele><time>2026-04-27T17:11:16Z</time></trkpt><trkpt lat="42.25074582368172" lon="13.803320586750072"><ele>330.0</ele><time>2026-04-27T17:11:17Z</time></trkpt><trkpt lat="42.25061424992456" lon="13.80334015090503"><ele>330.0</ele><time>2026-04-27T17:11:18Z</time></trkpt><trkpt lat="42.25049053599278" lon="13.803401328994093"><ele>330.0</ele><time>2026-04-27T17:11:19Z</time></trkpt><trkpt lat="42.25036359017591" lon="13.803472852110957"><ele>331.5</ele><time>2026-04-27T17:11:20Z</time></trkpt><trkpt lat="42.25024151583765" lon="13.803569177668518"><ele>333.0</ele><time>2026-04-27T17:11:21Z</time></trkpt><trkpt lat="42.25012219865937" lon="13.803672852049788"><ele>334.5</ele><time>2026-04-27T17:11:22Z</time></trkpt><trkpt lat="42.25000226753489" lon="13.803776146996608"><ele>336.0</ele><time>2026-04-27T17:11:23Z</time></trkpt><trkpt lat="42.249887340944035" lon="13.803880465334771"><ele>336.0</ele><time>2026-04-27T17:11:24Z</time></trkpt><trkpt lat="42.249804864864295" lon="13.804002220616436"><ele>336.0</ele><time>2026-04-27T17:11:25Z</time></trkpt><trkpt lat="42.249728693145165" lon="13.80413593727635"><ele>336.0</ele><time>2026-04-27T17:11:26Z</time></trkpt><trkpt lat="42.24965252680968" lon="13.804285208687709"><ele>336.0</ele><time>2026-04-27T17:11:27Z</time></trkpt><trkpt lat="42.24957514403527" lon="13.804424828338403"><ele>336.20000000000005</ele><time>2026-04-27T17:11:28Z</time></trkpt><trkpt lat="42.24949044713945" lon="13.804541427617867"><ele>336.40000000000003</ele><time>2026-04-27T17:11:29Z</time></trkpt><trkpt lat="42.249424177760915" lon="13.804655421745531"><ele>336.6</ele><time>2026-04-27T17:11:30Z</time></trkpt><trkpt lat="42.24937312348397" lon="13.80478566817204"><ele>336.8</ele><time>2026-04-27T17:11:31Z</time></trkpt><trkpt lat="42.249283213602695" lon="13.804862910128376"><ele>337.0</ele><time>2026-04-27T17:11:32Z</time></trkpt><trkpt lat="42.24920149406846" lon="13.80495856708913"><ele>337.0</ele><time>2026-04-27T17:11:33Z</time></trkpt><trkpt lat="42.24910903397788" lon="13.805053309353973"><ele>337.0</ele><time>2026-04-27T17:11:34Z</time></trkpt><trkpt lat="42.24901296496542" lon="13.805119699649179"><ele>337.0</ele><time>2026-04-27T17:11:35Z</time></trkpt><trkpt lat="42.248920153615856" lon="13.805152704799092"><ele>337.0</ele><time>2026-04-27T17:11:36Z</time></trkpt><trkpt lat="42.24884082022363" lon="13.805167304348977"><ele>337.0</ele><time>2026-04-27T17:11:37Z</time></trkpt><trkpt lat="42.24871942236851" lon="13.805195009594463"><ele>336.66666666666663</ele><time>2026-04-27T17:11:38Z</time></trkpt><trkpt lat="42.24862864088268" lon="13.80522515056881"><ele>336.3333333333333</ele><time>2026-04-27T17:11:39Z</time></trkpt><trkpt lat="42.24854482535281" lon="13.805272886879205"><ele>336.0</ele><time>2026-04-27T17:11:40Z</time></trkpt><trkpt lat="42.2484705571144" lon="13.80532730107426"><ele>335.6666666666667</ele><time>2026-04-27T17:11:41Z</time></trkpt><trkpt lat="42.24838134983803" lon="13.805404943806586"><ele>335.33333333333337</ele><time>2026-04-27T17:11:43Z</time></trkpt><trkpt lat="42.24833240687279" lon="13.805465974245081"><ele>335.0</ele><time>2026-04-27T17:13:21Z</time></trkpt><trkpt lat="42.24826159202601" lon="13.80558748980083"><ele>335.0</ele><time>2026-04-27T17:13:23Z</time></trkpt><trkpt lat="42.24822362712288" lon="13.805663095515484"><ele>335.0</ele><time>2026-04-27T17:13:24Z</time></trkpt><trkpt lat="42.24817746169039" lon="13.805751514593728"><ele>335.0</ele><time>2026-04-27T17:13:25Z</time></trkpt><trkpt lat="42.248121131766744" lon="13.805818596644139"><ele>335.0</ele><time>2026-04-27T17:13:26Z</time></trkpt><trkpt lat="42.248072634417994" lon="13.805932800254043"><ele>335.0</ele><time>2026-04-27T17:13:27Z</time></trkpt><trkpt lat="42.24801459833008" lon="13.806054433168901"><ele>335.0</ele><time>2026-04-27T17:13:28Z</time></trkpt><trkpt lat="42.24794786490169" lon="13.806187367666599"><ele>333.6</ele><time>2026-04-27T17:13:29Z</time></trkpt><trkpt lat="42.247881208767154" lon="13.806318335852591"><ele>332.2</ele><time>2026-04-27T17:13:30Z</time></trkpt><trkpt lat="42.24782246836725" lon="13.806436232489046"><ele>330.79999999999995</ele><time>2026-04-27T17:13:31Z</time></trkpt><trkpt lat="42.2477795506355" lon="13.80654351482252"><ele>329.4</ele><time>2026-04-27T17:13:32Z</time></trkpt><trkpt lat="42.247743634051886" lon="13.806682188095712"><ele>328.0</ele><time>2026-04-27T17:13:33Z</time></trkpt><trkpt lat="42.24772053645724" lon="13.80686158069419"><ele>328.0</ele><time>2026-04-27T17:13:34Z</time></trkpt><trkpt lat="42.247700781836436" lon="13.807031357011327"><ele>328.0</ele><time>2026-04-27T17:13:35Z</time></trkpt><trkpt lat="42.2476752924579" lon="13.807164094060084"><ele>328.0</ele><time>2026-04-27T17:13:36Z</time></trkpt><trkpt lat="42.24761036823694" lon="13.807308191889687"><ele>328.0</ele><time>2026-04-27T17:13:38Z</time></trkpt><trkpt lat="42.24755030018547" lon="13.807372809430623"><ele>328.0</ele><time>2026-04-27T17:13:39Z</time></trkpt><trkpt lat="42.247460571875656" lon="13.807446437059873"><ele>328.0</ele><time>2026-04-27T17:13:40Z</time></trkpt><trkpt lat="42.247339239941496" lon="13.807536022864168"><ele>328.0</ele><time>2026-04-27T17:13:41Z</time></trkpt><trkpt lat="42.24721978164757" lon="13.807636181252144"><ele>328.0</ele><time>2026-04-27T17:13:42Z</time></trkpt><trkpt lat="42.247114892708815" lon="13.807735909795607"><ele>328.0</ele><time>2026-04-27T17:13:43Z</time></trkpt><trkpt lat="42.24700578764311" lon="13.807862641748606"><ele>327.4</ele><time>2026-04-27T17:13:44Z</time></trkpt><trkpt lat="42.24692816102743" lon="13.807973064144257"><ele>326.79999999999995</ele><time>2026-04-27T17:13:45Z</time></trkpt><trkpt lat="42.246865727922696" lon="13.808091752902133"><ele>326.2</ele><time>2026-04-27T17:13:46Z</time></trkpt><trkpt lat="42.246827804815204" lon="13.80822464706632"><ele>325.6</ele><time>2026-04-27T17:13:47Z</time></trkpt><trkpt lat="42.24680177940502" lon="13.808367476662049"><ele>325.0</ele><time>2026-04-27T17:13:48Z</time></trkpt><trkpt lat="42.2467791430604" lon="13.808545695138118"><ele>325.0</ele><time>2026-04-27T17:13:49Z</time></trkpt><trkpt lat="42.2467271268785" lon="13.808738098853933"><ele>325.0</ele><time>2026-04-27T17:13:50Z</time></trkpt><trkpt lat="42.246684258704306" lon="13.808922160105832"><ele>325.0</ele><time>2026-04-27T17:13:51Z</time></trkpt><trkpt lat="42.246629402410115" lon="13.809116549128538"><ele>325.0</ele><time>2026-04-27T17:13:52Z</time></trkpt><trkpt lat="42.246568215875314" lon="13.80932561870451"><ele>325.0</ele><time>2026-04-27T17:13:53Z</time></trkpt><trkpt lat="42.246509609078046" lon="13.809540044798798"><ele>325.0</ele><time>2026-04-27T17:13:54Z</time></trkpt><trkpt lat="42.24645467456457" lon="13.809735570391721"><ele>325.0</ele><time>2026-04-27T17:13:55Z</time></trkpt><trkpt lat="42.24639512846054" lon="13.809915066106402"><ele>325.0</ele><time>2026-04-27T17:13:56Z</time></trkpt><trkpt lat="42.24633705245563" lon="13.810050842400907"><ele>325.0</ele><time>2026-04-27T17:13:57Z</time></trkpt><trkpt lat="42.246276886616144" lon="13.810161224599112"><ele>325.0</ele><time>2026-04-27T17:13:58Z</time></trkpt><trkpt lat="42.24620854232384" lon="13.810274680516997"><ele>325.0</ele><time>2026-04-27T17:13:59Z</time></trkpt><trkpt lat="42.24614103430564" lon="13.810396155697333"><ele>325.0</ele><time>2026-04-27T17:14:00Z</time></trkpt><trkpt lat="42.24604771100107" lon="13.810489668812044"><ele>325.0</ele><time>2026-04-27T17:14:01Z</time></trkpt><trkpt lat="42.24597528964073" lon="13.81058743228368"><ele>325.0</ele><time>2026-04-27T17:14:02Z</time></trkpt><trkpt lat="42.24590471567905" lon="13.810674947698956"><ele>325.0</ele><time>2026-04-27T17:14:03Z</time></trkpt><trkpt lat="42.24582614231909" lon="13.810774741510315"><ele>325.0</ele><time>2026-04-27T17:14:04Z</time></trkpt><trkpt lat="42.24572582502586" lon="13.810899760763416"><ele>325.0</ele><time>2026-04-27T17:14:05Z</time></trkpt><trkpt lat="42.245608579266396" lon="13.811009443409839"><ele>324.75</ele><time>2026-04-27T17:14:06Z</time></trkpt><trkpt lat="42.24549456283156" lon="13.81112830268531"><ele>324.5</ele><time>2026-04-27T17:14:07Z</time></trkpt><trkpt lat="42.24537106216133" lon="13.811242011967533"><ele>324.25</ele><time>2026-04-27T17:14:08Z</time></trkpt><trkpt lat="42.24526602142065" lon="13.811352576888169"><ele>324.0</ele><time>2026-04-27T17:14:09Z</time></trkpt><trkpt lat="42.24517820566684" lon="13.811459788444429"><ele>324.0</ele><time>2026-04-27T17:14:10Z</time></trkpt><trkpt lat="42.24511403759195" lon="13.811567475451062"><ele>324.0</ele><time>2026-04-27T17:14:11Z</time></trkpt><trkpt lat="42.2450662621925" lon="13.81169120593206"><ele>324.0</ele><time>2026-04-27T17:14:12Z</time></trkpt><trkpt lat="42.24502897958352" lon="13.811871758882921"><ele>324.0</ele><time>2026-04-27T17:14:13Z</time></trkpt><trkpt lat="42.24501486842509" lon="13.812046401794154"><ele>323.4</ele><time>2026-04-27T17:14:14Z</time></trkpt><trkpt lat="42.24498065285357" lon="13.812194749154228"><ele>322.79999999999995</ele><time>2026-04-27T17:14:15Z</time></trkpt><trkpt lat="42.244934835293776" lon="13.812303742542259"><ele>322.20000000000005</ele><time>2026-04-27T17:14:16Z</time></trkpt><trkpt lat="42.24487684829429" lon="13.812393569647956"><ele>321.6</ele><time>2026-04-27T17:14:17Z</time></trkpt><trkpt lat="42.244798075753806" lon="13.812459554842896"><ele>321.0</ele><time>2026-04-27T17:14:18Z</time></trkpt><trkpt lat="42.24469311057682" lon="13.812531320597197"><ele>321.0</ele><time>2026-04-27T17:14:19Z</time></trkpt><trkpt lat="42.244595749197" lon="13.812581963654079"><ele>321.0</ele><time>2026-04-27T17:14:20Z</time></trkpt><trkpt lat="42.244487813222264" lon="13.8126324668994"><ele>321.0</ele><time>2026-04-27T17:14:21.001Z</time></trkpt><trkpt lat="42.24436178922932" lon="13.812683272930183"><ele>321.0</ele><time>2026-04-27T17:14:22.001Z</time></trkpt><trkpt lat="42.24423278744109" lon="13.81274084514403"><ele>322.0</ele><time>2026-04-27T17:14:23.001Z</time></trkpt><trkpt lat="42.24411701219956" lon="13.812769261346416"><ele>323.0</ele><time>2026-04-27T17:14:24.001Z</time></trkpt><trkpt lat="42.24400892964854" lon="13.812819001972082"><ele>324.0</ele><time>2026-04-27T17:14:25.001Z</time></trkpt><trkpt lat="42.24390523847655" lon="13.812918957811657"><ele>325.0</ele><time>2026-04-27T17:14:26.001Z</time></trkpt><trkpt lat="42.24377586712033" lon="13.81295016369846"><ele>325.0</ele><time>2026-04-27T17:14:27.001Z</time></trkpt><trkpt lat="42.24367073925403" lon="13.812988847814053"><ele>325.0</ele><time>2026-04-27T17:14:28.001Z</time></trkpt><trkpt lat="42.24358092369021" lon="13.813054893107209"><ele>325.0</ele><time>2026-04-27T17:14:29.001Z</time></trkpt><trkpt lat="42.24347627471007" lon="13.813113339694656"><ele>325.0</ele><time>2026-04-27T17:14:30.001Z</time></trkpt><trkpt lat="42.24338071275831" lon="13.813214783574393"><ele>325.0</ele><time>2026-04-27T17:14:31.001Z</time></trkpt><trkpt lat="42.243284885171114" lon="13.813332394681517"><ele>325.0</ele><time>2026-04-27T17:14:32.001Z</time></trkpt><trkpt lat="42.243187529840675" lon="13.81347693370947"><ele>325.0</ele><time>2026-04-27T17:14:33.001Z</time></trkpt><trkpt lat="42.243085996669386" lon="13.813602206044383"><ele>325.0</ele><time>2026-04-27T17:14:34.001Z</time></trkpt><trkpt lat="42.24299014422557" lon="13.813719650753008"><ele>325.0</ele><time>2026-04-27T17:14:35.001Z</time></trkpt><trkpt lat="42.24288758282362" lon="13.8138376728707"><ele>323.3333333333333</ele><time>2026-04-27T17:14:36.001Z</time></trkpt><trkpt lat="42.2427749422387" lon="13.813959943012485"><ele>321.6666666666667</ele><time>2026-04-27T17:14:37.001Z</time></trkpt><trkpt lat="42.24264889279503" lon="13.814092205157827"><ele>320.0</ele><time>2026-04-27T17:14:38.001Z</time></trkpt><trkpt lat="42.242532143373914" lon="13.81420970335947"><ele>320.0</ele><time>2026-04-27T17:14:39.001Z</time></trkpt><trkpt lat="42.24241764720888" lon="13.814318988132177"><ele>320.0</ele><time>2026-04-27T17:14:40.001Z</time></trkpt><trkpt lat="42.242322140711714" lon="13.814403070955185"><ele>320.0</ele><time>2026-04-27T17:14:41.001Z</time></trkpt><trkpt lat="42.242241606574396" lon="13.81445790168736"><ele>320.0</ele><time>2026-04-27T17:14:42.001Z</time></trkpt><trkpt lat="42.242168758667184" lon="13.814466348093037"><ele>320.0</ele><time>2026-04-27T17:14:43.001Z</time></trkpt><trkpt lat="42.24208569337512" lon="13.814486291102936"><ele>319.8</ele><time>2026-04-27T17:14:44.001Z</time></trkpt><trkpt lat="42.24200067010911" lon="13.814517222448607"><ele>319.6</ele><time>2026-04-27T17:14:45.001Z</time></trkpt><trkpt lat="42.241956016739266" lon="13.814588690023097"><ele>319.4</ele><time>2026-04-27T17:14:46.001Z</time></trkpt><trkpt lat="42.24189943796809" lon="13.814714939896621"><ele>319.2</ele><time>2026-04-27T17:14:48.001Z</time></trkpt><trkpt lat="42.241904982744835" lon="13.814864345595387"><ele>319.0</ele><time>2026-04-27T17:14:50.001Z</time></trkpt><trkpt lat="42.24189933038255" lon="13.814995468031674"><ele>319.0</ele><time>2026-04-27T17:14:51.001Z</time></trkpt><trkpt lat="42.2418941334932" lon="13.815142054680576"><ele>319.0</ele><time>2026-04-27T17:14:52.001Z</time></trkpt><trkpt lat="42.241715815418594" lon="13.815222303734362"><ele>319.0</ele><time>2026-04-27T17:14:53.001Z</time></trkpt><trkpt lat="42.24166471536333" lon="13.815384109711179"><ele>319.0</ele><time>2026-04-27T17:14:54.001Z</time></trkpt><trkpt lat="42.24163706796993" lon="13.81556849002306"><ele>319.4</ele><time>2026-04-27T17:14:55.001Z</time></trkpt><trkpt lat="42.24164064852979" lon="13.815707555599264"><ele>319.79999999999995</ele><time>2026-04-27T17:14:56.001Z</time></trkpt><trkpt lat="42.24162633750041" lon="13.815823722490382"><ele>320.20000000000005</ele><time>2026-04-27T17:14:57.001Z</time></trkpt><trkpt lat="42.241591653902105" lon="13.815912343611439"><ele>320.6</ele><time>2026-04-27T17:14:58.001Z</time></trkpt><trkpt lat="42.241519754660644" lon="13.815988513812517"><ele>321.0</ele><time>2026-04-27T17:14:59.001Z</time></trkpt><trkpt lat="42.24141843320973" lon="13.816088592293143"><ele>323.0</ele><time>2026-04-27T17:15:00.001Z</time></trkpt><trkpt lat="42.2412973482947" lon="13.81615905435804"><ele>325.0</ele><time>2026-04-27T17:15:01.001Z</time></trkpt><trkpt lat="42.24117921806777" lon="13.816219108402365"><ele>327.0</ele><time>2026-04-27T17:15:02.001Z</time></trkpt><trkpt lat="42.24107013778293" lon="13.816253180306202"><ele>329.0</ele><time>2026-04-27T17:15:03.001Z</time></trkpt><trkpt lat="42.24094303008623" lon="13.816270986437464"><ele>329.0</ele><time>2026-04-27T17:15:04.001Z</time></trkpt><trkpt lat="42.24081157786972" lon="13.816276592232512"><ele>329.0</ele><time>2026-04-27T17:15:05.001Z</time></trkpt><trkpt lat="42.240680403488156" lon="13.816279414297323"><ele>329.0</ele><time>2026-04-27T17:15:06.001Z</time></trkpt><trkpt lat="42.240556876761815" lon="13.816293905593524"><ele>329.0</ele><time>2026-04-27T17:15:07.001Z</time></trkpt><trkpt lat="42.24042981810151" lon="13.81630921029718"><ele>328.5</ele><time>2026-04-27T17:15:08.001Z</time></trkpt><trkpt lat="42.240290978862234" lon="13.816312901033681"><ele>328.0</ele><time>2026-04-27T17:15:09.001Z</time></trkpt><trkpt lat="42.240146955207514" lon="13.816296968264776"><ele>327.5</ele><time>2026-04-27T17:15:10.001Z</time></trkpt><trkpt lat="42.24000955788418" lon="13.816321123746553"><ele>327.0</ele><time>2026-04-27T17:15:11.001Z</time></trkpt><trkpt lat="42.239891127502986" lon="13.816396890014312"><ele>326.20000000000005</ele><time>2026-04-27T17:15:12.001Z</time></trkpt><trkpt lat="42.239757182618554" lon="13.816435866055302"><ele>325.4</ele><time>2026-04-27T17:15:13.001Z</time></trkpt><trkpt lat="42.23963325342055" lon="13.81646064598449"><ele>324.6</ele><time>2026-04-27T17:15:14.001Z</time></trkpt><trkpt lat="42.23952636032191" lon="13.816491848212657"><ele>323.79999999999995</ele><time>2026-04-27T17:15:15.001Z</time></trkpt><trkpt lat="42.23945789486821" lon="13.816468833002071"><ele>323.0</ele><time>2026-04-27T17:15:16.001Z</time></trkpt><trkpt lat="42.23943091549859" lon="13.81636955768587"><ele>323.0</ele><time>2026-04-27T17:15:18.001Z</time></trkpt><trkpt lat="42.23935935013553" lon="13.816210763179148"><ele>323.0</ele><time>2026-04-27T17:15:20.001Z</time></trkpt><trkpt lat="42.239337785050175" lon="13.81611714984899"><ele>323.0</ele><time>2026-04-27T17:15:21.001Z</time></trkpt><trkpt lat="42.23919023311655" lon="13.816125175491969"><ele>323.0</ele><time>2026-04-27T17:15:22.001Z</time></trkpt><trkpt lat="42.23906736702547" lon="13.816131027489291"><ele>322.0</ele><time>2026-04-27T17:15:23.001Z</time></trkpt><trkpt lat="42.23893445032029" lon="13.816123046548041"><ele>321.0</ele><time>2026-04-27T17:15:24.001Z</time></trkpt><trkpt lat="42.23878824298468" lon="13.816095032511972"><ele>320.0</ele><time>2026-04-27T17:15:25.001Z</time></trkpt><trkpt lat="42.23864635261176" lon="13.816075584278225"><ele>319.0</ele><time>2026-04-27T17:15:26.001Z</time></trkpt><trkpt lat="42.23850759031848" lon="13.816084504000843"><ele>319.0</ele><time>2026-04-27T17:15:27.001Z</time></trkpt><trkpt lat="42.23836035693261" lon="13.816137953326747"><ele>319.0</ele><time>2026-04-27T17:15:28.001Z</time></trkpt><trkpt lat="42.23819593531041" lon="13.816223741071846"><ele>319.0</ele><time>2026-04-27T17:15:29.001Z</time></trkpt><trkpt lat="42.23802988636205" lon="13.816283978734702"><ele>319.0</ele><time>2026-04-27T17:15:30.001Z</time></trkpt><trkpt lat="42.23786167692048" lon="13.816358465958155"><ele>319.0</ele><time>2026-04-27T17:15:31.001Z</time></trkpt><trkpt lat="42.2376962439993" lon="13.816441474472105"><ele>319.0</ele><time>2026-04-27T17:15:32.001Z</time></trkpt><trkpt lat="42.23751541311754" lon="13.816534621595808"><ele>319.0</ele><time>2026-04-27T17:15:33.001Z</time></trkpt><trkpt lat="42.23735978604522" lon="13.816605181802492"><ele>319.0</ele><time>2026-04-27T17:15:34.001Z</time></trkpt><trkpt lat="42.23721205604248" lon="13.816664767289929"><ele>319.0</ele><time>2026-04-27T17:15:35.001Z</time></trkpt><trkpt lat="42.237070878524484" lon="13.816699975876894"><ele>319.3333333333333</ele><time>2026-04-27T17:15:36.001Z</time></trkpt><trkpt lat="42.23690925826154" lon="13.816712647736399"><ele>319.6666666666667</ele><time>2026-04-27T17:15:37.001Z</time></trkpt><trkpt lat="42.236747864910726" lon="13.816693823593189"><ele>320.0</ele><time>2026-04-27T17:15:38.001Z</time></trkpt><trkpt lat="42.23659663177027" lon="13.816638839616047"><ele>320.6666666666667</ele><time>2026-04-27T17:15:39.001Z</time></trkpt><trkpt lat="42.23643157401497" lon="13.816552144942635"><ele>321.3333333333333</ele><time>2026-04-27T17:15:40.001Z</time></trkpt><trkpt lat="42.23627688488986" lon="13.816432548075817"><ele>322.0</ele><time>2026-04-27T17:15:41.001Z</time></trkpt><trkpt lat="42.23614686541259" lon="13.81633068427336"><ele>322.0</ele><time>2026-04-27T17:15:42.001Z</time></trkpt><trkpt lat="42.236016838497825" lon="13.81622842783734"><ele>322.0</ele><time>2026-04-27T17:15:43.001Z</time></trkpt><trkpt lat="42.235894791281524" lon="13.81618978140115"><ele>322.0</ele><time>2026-04-27T17:15:44.001Z</time></trkpt><trkpt lat="42.235763818859766" lon="13.816203019304437"><ele>322.0</ele><time>2026-04-27T17:15:45.001Z</time></trkpt><trkpt lat="42.23562657897631" lon="13.816231290247321"><ele>321.0</ele><time>2026-04-27T17:15:46.001Z</time></trkpt><trkpt lat="42.23548777937928" lon="13.816320772129055"><ele>320.0</ele><time>2026-04-27T17:15:47.001Z</time></trkpt><trkpt lat="42.23538800191052" lon="13.816460914109303"><ele>319.0</ele><time>2026-04-27T17:15:48.001Z</time></trkpt><trkpt lat="42.235293658220655" lon="13.816612640060622"><ele>318.0</ele><time>2026-04-27T17:15:49.001Z</time></trkpt><trkpt lat="42.235201342022656" lon="13.816784760429888"><ele>319.0</ele><time>2026-04-27T17:15:50.001Z</time></trkpt><trkpt lat="42.23511571264316" lon="13.816974374033984"><ele>320.0</ele><time>2026-04-27T17:15:51.001Z</time></trkpt><trkpt lat="42.235028549337684" lon="13.81716675510318"><ele>321.0</ele><time>2026-04-27T17:15:52.001Z</time></trkpt><trkpt lat="42.23493520193479" lon="13.817353223786915"><ele>321.0</ele><time>2026-04-27T17:15:53.001Z</time></trkpt><trkpt lat="42.234837212146275" lon="13.817523687846654"><ele>321.0</ele><time>2026-04-27T17:15:54.001Z</time></trkpt><trkpt lat="42.23472282669047" lon="13.817698498812904"><ele>321.0</ele><time>2026-04-27T17:15:55.001Z</time></trkpt><trkpt lat="42.23459842958589" lon="13.817865874728684"><ele>322.6666666666667</ele><time>2026-04-27T17:15:56.001Z</time></trkpt><trkpt lat="42.23446947023617" lon="13.81801371078109"><ele>324.33333333333337</ele><time>2026-04-27T17:15:57.001Z</time></trkpt><trkpt lat="42.23433185104481" lon="13.818148523278419"><ele>326.0</ele><time>2026-04-27T17:15:58.001Z</time></trkpt><trkpt lat="42.234179527742974" lon="13.81827048525356"><ele>326.0</ele><time>2026-04-27T17:15:59.001Z</time></trkpt><trkpt lat="42.23402619745228" lon="13.818373248220603"><ele>326.0</ele><time>2026-04-27T17:16:00.001Z</time></trkpt><trkpt lat="42.23386515322988" lon="13.818474000257943"><ele>326.0</ele><time>2026-04-27T17:16:01.001Z</time></trkpt><trkpt lat="42.23370359299135" lon="13.818575076656153"><ele>327.6666666666667</ele><time>2026-04-27T17:16:02.001Z</time></trkpt><trkpt lat="42.23354481543396" lon="13.818668615316536"><ele>329.3333333333333</ele><time>2026-04-27T17:16:03.001Z</time></trkpt><trkpt lat="42.233377278450995" lon="13.81875156541007"><ele>331.0</ele><time>2026-04-27T17:16:04.001Z</time></trkpt><trkpt lat="42.23320039264059" lon="13.818830539190241"><ele>327.66666666666663</ele><time>2026-04-27T17:16:05.001Z</time></trkpt><trkpt lat="42.23303177874248" lon="13.818913677224021"><ele>324.3333333333333</ele><time>2026-04-27T17:16:06.001Z</time></trkpt><trkpt lat="42.232862297173796" lon="13.818980110145468"><ele>321.0</ele><time>2026-04-27T17:16:07.001Z</time></trkpt><trkpt lat="42.23268796203354" lon="13.818998292886425"><ele>321.0</ele><time>2026-04-27T17:16:08.001Z</time></trkpt><trkpt lat="42.232514485972" lon="13.819009367467375"><ele>321.0</ele><time>2026-04-27T17:16:09.001Z</time></trkpt><trkpt lat="42.2323314808926" lon="13.819019290128669"><ele>321.0</ele><time>2026-04-27T17:16:10.001Z</time></trkpt><trkpt lat="42.23215020919205" lon="13.819026984073828"><ele>320.6666666666667</ele><time>2026-04-27T17:16:11.001Z</time></trkpt><trkpt lat="42.23196902036269" lon="13.819044544681933"><ele>320.33333333333337</ele><time>2026-04-27T17:16:12.001Z</time></trkpt><trkpt lat="42.2318001773596" lon="13.819070624452479"><ele>320.0</ele><time>2026-04-27T17:16:13.001Z</time></trkpt><trkpt lat="42.23163771762397" lon="13.819118047695882"><ele>320.0</ele><time>2026-04-27T17:16:14.001Z</time></trkpt><trkpt lat="42.23147768663007" lon="13.819206359388799"><ele>320.0</ele><time>2026-04-27T17:16:15.001Z</time></trkpt><trkpt lat="42.23132197075901" lon="13.819311124891662"><ele>320.0</ele><time>2026-04-27T17:16:16.001Z</time></trkpt><trkpt lat="42.23118149708743" lon="13.819406645368213"><ele>321.6666666666667</ele><time>2026-04-27T17:16:17.001Z</time></trkpt><trkpt lat="42.23103938049174" lon="13.819487495832611"><ele>323.3333333333333</ele><time>2026-04-27T17:16:18.001Z</time></trkpt><trkpt lat="42.23087335259525" lon="13.819543092336087"><ele>325.0</ele><time>2026-04-27T17:16:19.001Z</time></trkpt><trkpt lat="42.230710958676525" lon="13.81955167011552"><ele>322.66666666666663</ele><time>2026-04-27T17:16:20.001Z</time></trkpt><trkpt lat="42.230530588418844" lon="13.819567865411166"><ele>320.3333333333333</ele><time>2026-04-27T17:16:21.001Z</time></trkpt><trkpt lat="42.230352662361724" lon="13.819621481624518"><ele>318.0</ele><time>2026-04-27T17:16:22.001Z</time></trkpt><trkpt lat="42.23017205421819" lon="13.81965594977182"><ele>318.0</ele><time>2026-04-27T17:16:23.001Z</time></trkpt><trkpt lat="42.22999155286841" lon="13.819658642436364"><ele>318.0</ele><time>2026-04-27T17:16:24.001Z</time></trkpt><trkpt lat="42.22980674094616" lon="13.819656864473451"><ele>318.0</ele><time>2026-04-27T17:16:25.001Z</time></trkpt><trkpt lat="42.229623854155115" lon="13.81965920400809"><ele>318.0</ele><time>2026-04-27T17:16:26.001Z</time></trkpt><trkpt lat="42.22943961107538" lon="13.819670738553087"><ele>318.0</ele><time>2026-04-27T17:16:27.001Z</time></trkpt><trkpt lat="42.22924730969006" lon="13.81971248958817"><ele>318.0</ele><time>2026-04-27T17:16:28.001Z</time></trkpt><trkpt lat="42.22905892766898" lon="13.819712249559585"><ele>320.3333333333333</ele><time>2026-04-27T17:16:29.001Z</time></trkpt><trkpt lat="42.22886149941646" lon="13.819727578123212"><ele>322.66666666666663</ele><time>2026-04-27T17:16:30.001Z</time></trkpt><trkpt lat="42.22868533235059" lon="13.819734891438577"><ele>325.0</ele><time>2026-04-27T17:16:31.001Z</time></trkpt><trkpt lat="42.22850439601041" lon="13.819722835489989"><ele>325.0</ele><time>2026-04-27T17:16:32.001Z</time></trkpt><trkpt lat="42.22832540828588" lon="13.819681123847301"><ele>325.0</ele><time>2026-04-27T17:16:33.001Z</time></trkpt><trkpt lat="42.22815503169792" lon="13.8196192579388"><ele>325.0</ele><time>2026-04-27T17:16:34.001Z</time></trkpt><trkpt lat="42.227980222091944" lon="13.819565059464399"><ele>325.0</ele><time>2026-04-27T17:16:35.001Z</time></trkpt><trkpt lat="42.22781914338432" lon="13.81953284961182"><ele>325.0</ele><time>2026-04-27T17:16:36.001Z</time></trkpt><trkpt lat="42.227642805311994" lon="13.81952625813831"><ele>325.0</ele><time>2026-04-27T17:16:37.001Z</time></trkpt><trkpt lat="42.227465169371236" lon="13.819534771084548"><ele>324.3333333333333</ele><time>2026-04-27T17:16:38.001Z</time></trkpt><trkpt lat="42.227294405186626" lon="13.819550551209288"><ele>323.6666666666667</ele><time>2026-04-27T17:16:39.001Z</time></trkpt><trkpt lat="42.22712076863998" lon="13.819579480751537"><ele>323.0</ele><time>2026-04-27T17:16:40.001Z</time></trkpt><trkpt lat="42.226959796995416" lon="13.819629585044359"><ele>323.0</ele><time>2026-04-27T17:16:41.001Z</time></trkpt><trkpt lat="42.226798353405584" lon="13.819697497720682"><ele>323.0</ele><time>2026-04-27T17:16:42.001Z</time></trkpt><trkpt lat="42.22665212156235" lon="13.819789274408285"><ele>323.0</ele><time>2026-04-27T17:16:43.001Z</time></trkpt><trkpt lat="42.226518364614805" lon="13.819912712055817"><ele>321.33333333333337</ele><time>2026-04-27T17:16:44.001Z</time></trkpt><trkpt lat="42.226391958650716" lon="13.8200616883587"><ele>319.6666666666667</ele><time>2026-04-27T17:16:45.001Z</time></trkpt><trkpt lat="42.22627897464355" lon="13.820227294037798"><ele>318.0</ele><time>2026-04-27T17:16:46.001Z</time></trkpt><trkpt lat="42.22617575945473" lon="13.820411054414475"><ele>318.0</ele><time>2026-04-27T17:16:47.001Z</time></trkpt><trkpt lat="42.22607487927786" lon="13.8206115850233"><ele>318.0</ele><time>2026-04-27T17:16:48.001Z</time></trkpt><trkpt lat="42.225977254929596" lon="13.820816360065445"><ele>318.0</ele><time>2026-04-27T17:16:49.001Z</time></trkpt><trkpt lat="42.225879590954634" lon="13.821007617940511"><ele>318.3333333333333</ele><time>2026-04-27T17:16:50.001Z</time></trkpt><trkpt lat="42.22576227117025" lon="13.821180490653608"><ele>318.66666666666663</ele><time>2026-04-27T17:16:51.001Z</time></trkpt><trkpt lat="42.22562885082431" lon="13.821330256655303"><ele>319.0</ele><time>2026-04-27T17:16:52.001Z</time></trkpt><trkpt lat="42.22548512337708" lon="13.821437658731696"><ele>319.0</ele><time>2026-04-27T17:16:53.001Z</time></trkpt><trkpt lat="42.22531808439202" lon="13.82154265084899"><ele>319.0</ele><time>2026-04-27T17:16:54.001Z</time></trkpt><trkpt lat="42.225145437966255" lon="13.821610478441078"><ele>319.0</ele><time>2026-04-27T17:16:55.001Z</time></trkpt><trkpt lat="42.22497184517139" lon="13.821654458892343"><ele>318.66666666666663</ele><time>2026-04-27T17:16:56.001Z</time></trkpt><trkpt lat="42.224791731422044" lon="13.821700945469294"><ele>318.3333333333333</ele><time>2026-04-27T17:16:57.001Z</time></trkpt><trkpt lat="42.224623991858714" lon="13.821757970680094"><ele>318.0</ele><time>2026-04-27T17:16:58.001Z</time></trkpt><trkpt lat="42.22445973495372" lon="13.821840312214269"><ele>319.6666666666667</ele><time>2026-04-27T17:16:59.001Z</time></trkpt><trkpt lat="42.22430240975663" lon="13.82195292249779"><ele>321.33333333333337</ele><time>2026-04-27T17:17:00.001Z</time></trkpt><trkpt lat="42.224151505973204" lon="13.822065573638499"><ele>323.0</ele><time>2026-04-27T17:17:01.001Z</time></trkpt><trkpt lat="42.22401386119564" lon="13.82219507249501"><ele>322.0</ele><time>2026-04-27T17:17:02.001Z</time></trkpt><trkpt lat="42.22386078837892" lon="13.82231265252438"><ele>321.0</ele><time>2026-04-27T17:17:03.001Z</time></trkpt><trkpt lat="42.22371986491327" lon="13.822437137290049"><ele>320.0</ele><time>2026-04-27T17:17:04.001Z</time></trkpt><trkpt lat="42.223570269649436" lon="13.822549446499343"><ele>320.0</ele><time>2026-04-27T17:17:05.001Z</time></trkpt><trkpt lat="42.22341117307817" lon="13.822640583712102"><ele>320.0</ele><time>2026-04-27T17:17:06.001Z</time></trkpt><trkpt lat="42.223254029542886" lon="13.822703274319563"><ele>320.0</ele><time>2026-04-27T17:17:07.001Z</time></trkpt><trkpt lat="42.22309640673763" lon="13.822715190269724"><ele>320.0</ele><time>2026-04-27T17:17:08.001Z</time></trkpt><trkpt lat="42.222933486938906" lon="13.822688059234007"><ele>320.0</ele><time>2026-04-27T17:17:09.001Z</time></trkpt><trkpt lat="42.22276831052664" lon="13.822650346226888"><ele>320.0</ele><time>2026-04-27T17:17:10.001Z</time></trkpt><trkpt lat="42.222590362976135" lon="13.822604808965693"><ele>320.0</ele><time>2026-04-27T17:17:11.001Z</time></trkpt><trkpt lat="42.22241866134122" lon="13.822562174555541"><ele>320.0</ele><time>2026-04-27T17:17:12.001Z</time></trkpt><trkpt lat="42.22225332070978" lon="13.822519105138513"><ele>320.0</ele><time>2026-04-27T17:17:13.001Z</time></trkpt><trkpt lat="42.22208294126919" lon="13.822464617253662"><ele>322.0</ele><time>2026-04-27T17:17:14.001Z</time></trkpt><trkpt lat="42.221921569696796" lon="13.822427001012771"><ele>324.0</ele><time>2026-04-27T17:17:15.001Z</time></trkpt><trkpt lat="42.22176081396403" lon="13.822364396666107"><ele>326.0</ele><time>2026-04-27T17:17:16Z</time></trkpt><trkpt lat="42.221615987716994" lon="13.82228580341163"><ele>326.75</ele><time>2026-04-27T17:17:17Z</time></trkpt><trkpt lat="42.22147017888752" lon="13.822264483188968"><ele>327.5</ele><time>2026-04-27T17:17:18Z</time></trkpt><trkpt lat="42.22132482620788" lon="13.822237636344159"><ele>328.25</ele><time>2026-04-27T17:17:19Z</time></trkpt><trkpt lat="42.221169444194985" lon="13.822222058114967"><ele>329.0</ele><time>2026-04-27T17:17:20Z</time></trkpt><trkpt lat="42.22100893430235" lon="13.822216314493815"><ele>329.0</ele><time>2026-04-27T17:17:21Z</time></trkpt><trkpt lat="42.22087080186578" lon="13.822240915071403"><ele>329.0</ele><time>2026-04-27T17:17:22Z</time></trkpt><trkpt lat="42.220750776854956" lon="13.822281174791454"><ele>329.0</ele><time>2026-04-27T17:17:23Z</time></trkpt><trkpt lat="42.220641599636785" lon="13.82238080970036"><ele>329.0</ele><time>2026-04-27T17:17:24Z</time></trkpt><trkpt lat="42.220531718478355" lon="13.822521048443503"><ele>327.33333333333337</ele><time>2026-04-27T17:17:25Z</time></trkpt><trkpt lat="42.220414695965125" lon="13.822671379063905"><ele>325.6666666666667</ele><time>2026-04-27T17:17:26Z</time></trkpt><trkpt lat="42.22029290368917" lon="13.822830969130377"><ele>324.0</ele><time>2026-04-27T17:17:27Z</time></trkpt><trkpt lat="42.22017280791208" lon="13.82298238419992"><ele>324.0</ele><time>2026-04-27T17:17:28Z</time></trkpt><trkpt lat="42.220048332097875" lon="13.823102024325268"><ele>324.0</ele><time>2026-04-27T17:17:29Z</time></trkpt><trkpt lat="42.219908974204" lon="13.823253805516662"><ele>324.0</ele><time>2026-04-27T17:17:30Z</time></trkpt><trkpt lat="42.219791501350386" lon="13.823403409115757"><ele>323.0</ele><time>2026-04-27T17:17:31Z</time></trkpt><trkpt lat="42.2196848501996" lon="13.82357318478587"><ele>322.0</ele><time>2026-04-27T17:17:32Z</time></trkpt><trkpt lat="42.219542301964466" lon="13.823686131111547"><ele>321.0</ele><time>2026-04-27T17:17:33Z</time></trkpt><trkpt lat="42.219397441614156" lon="13.823774098074429"><ele>321.0</ele><time>2026-04-27T17:17:34Z</time></trkpt><trkpt lat="42.21924000492752" lon="13.823846384482513"><ele>321.0</ele><time>2026-04-27T17:17:35Z</time></trkpt><trkpt lat="42.2190807489082" lon="13.82391865692025"><ele>321.0</ele><time>2026-04-27T17:17:36Z</time></trkpt><trkpt lat="42.21893218465351" lon="13.823993539313186"><ele>321.3333333333333</ele><time>2026-04-27T17:17:37Z</time></trkpt><trkpt lat="42.218775179712964" lon="13.824073614311192"><ele>321.66666666666663</ele><time>2026-04-27T17:17:38Z</time></trkpt><trkpt lat="42.21861469460537" lon="13.824150562565316"><ele>322.0</ele><time>2026-04-27T17:17:39Z</time></trkpt><trkpt lat="42.21845597552375" lon="13.824219689688128"><ele>322.0</ele><time>2026-04-27T17:17:40Z</time></trkpt><trkpt lat="42.21830353731839" lon="13.824282288901903"><ele>322.0</ele><time>2026-04-27T17:17:41Z</time></trkpt><trkpt lat="42.21817043047525" lon="13.824335440254812"><ele>322.0</ele><time>2026-04-27T17:17:42Z</time></trkpt><trkpt lat="42.218058098361425" lon="13.824378806561104"><ele>322.0</ele><time>2026-04-27T17:17:43Z</time></trkpt><trkpt lat="42.21795011835559" lon="13.824416528745449"><ele>322.5</ele><time>2026-04-27T17:17:44Z</time></trkpt><trkpt lat="42.21783338261827" lon="13.824462502557152"><ele>323.0</ele><time>2026-04-27T17:17:45Z</time></trkpt><trkpt lat="42.21770697791232" lon="13.824527617025106"><ele>323.5</ele><time>2026-04-27T17:17:46Z</time></trkpt><trkpt lat="42.21757430643751" lon="13.824607398933567"><ele>324.0</ele><time>2026-04-27T17:17:47Z</time></trkpt><trkpt lat="42.21745704805966" lon="13.824681785659333"><ele>324.0</ele><time>2026-04-27T17:17:48Z</time></trkpt><trkpt lat="42.2173509195209" lon="13.824751047016655"><ele>324.0</ele><time>2026-04-27T17:17:49Z</time></trkpt><trkpt lat="42.2172581399919" lon="13.824834768276423"><ele>324.0</ele><time>2026-04-27T17:17:50Z</time></trkpt><trkpt lat="42.21716136331951" lon="13.8248833346406"><ele>324.0</ele><time>2026-04-27T17:17:51Z</time></trkpt><trkpt lat="42.217078462939234" lon="13.824902807587558"><ele>324.0</ele><time>2026-04-27T17:17:52Z</time></trkpt><trkpt lat="42.21701153978036" lon="13.824929733781486"><ele>323.5</ele><time>2026-04-27T17:17:53Z</time></trkpt><trkpt lat="42.21695916166725" lon="13.824739083874233"><ele>323.0</ele><time>2026-04-27T17:17:54Z</time></trkpt><trkpt lat="42.216893506528706" lon="13.824583857664768"><ele>322.5</ele><time>2026-04-27T17:17:55Z</time></trkpt><trkpt lat="42.21683311842744" lon="13.824453357174969"><ele>322.0</ele><time>2026-04-27T17:17:56Z</time></trkpt><trkpt lat="42.21676509217522" lon="13.824278661319505"><ele>321.25</ele><time>2026-04-27T17:17:57Z</time></trkpt><trkpt lat="42.21669458226958" lon="13.824106014143501"><ele>320.5</ele><time>2026-04-27T17:17:58Z</time></trkpt><trkpt lat="42.21662178300248" lon="13.823928302527754"><ele>319.75</ele><time>2026-04-27T17:17:59Z</time></trkpt><trkpt lat="42.21655334677327" lon="13.823780673044737"><ele>319.0</ele><time>2026-04-27T17:18:00Z</time></trkpt><trkpt lat="42.21649241014575" lon="13.82365322894714"><ele>317.75</ele><time>2026-04-27T17:18:01Z</time></trkpt><trkpt lat="42.2164373595156" lon="13.823539575146247"><ele>316.5</ele><time>2026-04-27T17:18:02Z</time></trkpt><trkpt lat="42.21636753316033" lon="13.823340627362846"><ele>315.25</ele><time>2026-04-27T17:18:03Z</time></trkpt><trkpt lat="42.216304478101165" lon="13.823184672539604"><ele>314.0</ele><time>2026-04-27T17:18:04Z</time></trkpt><trkpt lat="42.216238880317654" lon="13.823015611171705"><ele>313.8</ele><time>2026-04-27T17:18:04.999Z</time></trkpt><trkpt lat="42.21617956513837" lon="13.822869663019459"><ele>313.59999999999997</ele><time>2026-04-27T17:18:05.999Z</time></trkpt><trkpt lat="42.21612582546891" lon="13.822730416097247"><ele>313.4</ele><time>2026-04-27T17:18:06.999Z</time></trkpt><trkpt lat="42.21607192630085" lon="13.82260815205255"><ele>313.2</ele><time>2026-04-27T17:18:07.999Z</time></trkpt><trkpt lat="42.21601928831972" lon="13.82249390453696"><ele>313.0</ele><time>2026-04-27T17:18:08.999Z</time></trkpt><trkpt lat="42.215956287873894" lon="13.822378878145479"><ele>313.5</ele><time>2026-04-27T17:18:09.999Z</time></trkpt><trkpt lat="42.21585222689337" lon="13.822302721763112"><ele>314.0</ele><time>2026-04-27T17:18:10.999Z</time></trkpt><trkpt lat="42.21572829777522" lon="13.822262316158323"><ele>314.5</ele><time>2026-04-27T17:18:11.999Z</time></trkpt><trkpt lat="42.21559364978507" lon="13.822262485769059"><ele>315.0</ele><time>2026-04-27T17:18:12.999Z</time></trkpt><trkpt lat="42.215462684609214" lon="13.822298643195793"><ele>315.5</ele><time>2026-04-27T17:18:13.999Z</time></trkpt><trkpt lat="42.21533284996402" lon="13.822372306266113"><ele>316.0</ele><time>2026-04-27T17:18:14.999Z</time></trkpt><trkpt lat="42.215208514875016" lon="13.822454743843501"><ele>316.5</ele><time>2026-04-27T17:18:15.999Z</time></trkpt><trkpt lat="42.21508134737394" lon="13.822530495044141"><ele>317.0</ele><time>2026-04-27T17:18:16.999Z</time></trkpt><trkpt lat="42.214948396912085" lon="13.822608496358471"><ele>317.0</ele><time>2026-04-27T17:18:17.999Z</time></trkpt><trkpt lat="42.214815672012925" lon="13.822683504647223"><ele>317.0</ele><time>2026-04-27T17:18:18.999Z</time></trkpt><trkpt lat="42.21469314645526" lon="13.822756615483907"><ele>317.0</ele><time>2026-04-27T17:18:19.999Z</time></trkpt><trkpt lat="42.21458089130845" lon="13.822809766800333"><ele>317.0</ele><time>2026-04-27T17:18:20.999Z</time></trkpt><trkpt lat="42.214474537950444" lon="13.822817909260316"><ele>317.0</ele><time>2026-04-27T17:18:21.999Z</time></trkpt><trkpt lat="42.21437475753182" lon="13.822737740055803"><ele>317.0</ele><time>2026-04-27T17:18:22.999Z</time></trkpt><trkpt lat="42.214301057434795" lon="13.822643218066638"><ele>317.0</ele><time>2026-04-27T17:18:23.999Z</time></trkpt><trkpt lat="42.21421625641862" lon="13.82253806406801"><ele>317.0</ele><time>2026-04-27T17:18:24.999Z</time></trkpt><trkpt lat="42.21416096188507" lon="13.822442687092698"><ele>317.0</ele><time>2026-04-27T17:18:25.999Z</time></trkpt><trkpt lat="42.214105582249566" lon="13.822339274070503"><ele>317.0</ele><time>2026-04-27T17:18:26.999Z</time></trkpt><trkpt lat="42.21405974550939" lon="13.822249302053057"><ele>317.0</ele><time>2026-04-27T17:18:27.999Z</time></trkpt><trkpt lat="42.21402756183939" lon="13.82215606875281"><ele>317.0</ele><time>2026-04-27T17:18:29.999Z</time></trkpt><trkpt lat="42.214018940478034" lon="13.82206783539593"><ele>317.0</ele><time>2026-04-27T17:18:33.999Z</time></trkpt><trkpt lat="42.213992592488395" lon="13.821978608395668"><ele>317.0</ele><time>2026-04-27T17:18:35.999Z</time></trkpt><trkpt lat="42.21384312308796" lon="13.822046930607707"><ele>317.0</ele><time>2026-04-27T17:18:36.999Z</time></trkpt><trkpt lat="42.213777672834986" lon="13.821928755193994"><ele>317.0</ele><time>2026-04-27T17:18:38.999Z</time></trkpt><trkpt lat="42.21377440560278" lon="13.821834229191843"><ele>317.0</ele><time>2026-04-27T17:18:39.999Z</time></trkpt><trkpt lat="42.21378151507399" lon="13.821715454968528"><ele>317.0</ele><time>2026-04-27T17:18:40.999Z</time></trkpt><trkpt lat="42.21378133354554" lon="13.821590703338487"><ele>317.0</ele><time>2026-04-27T17:18:41.999Z</time></trkpt><trkpt lat="42.213773509416015" lon="13.821458655216341"><ele>317.2</ele><time>2026-04-27T17:18:42.999Z</time></trkpt><trkpt lat="42.213764871626935" lon="13.821317789801698"><ele>317.4</ele><time>2026-04-27T17:18:43.999Z</time></trkpt><trkpt lat="42.21376437500473" lon="13.821171863533484"><ele>317.6</ele><time>2026-04-27T17:18:44.999Z</time></trkpt><trkpt lat="42.21377608428463" lon="13.821024593551154"><ele>317.8</ele><time>2026-04-27T17:18:45.999Z</time></trkpt><trkpt lat="42.213794987388134" lon="13.820887722032237"><ele>318.0</ele><time>2026-04-27T17:18:46.999Z</time></trkpt><trkpt lat="42.213818524625594" lon="13.820751440898066"><ele>317.5</ele><time>2026-04-27T17:18:47.999Z</time></trkpt><trkpt lat="42.21384099505623" lon="13.820636758574251"><ele>317.0</ele><time>2026-04-27T17:18:48.999Z</time></trkpt><trkpt lat="42.21383934187556" lon="13.820533009915707"><ele>316.5</ele><time>2026-04-27T17:18:49.999Z</time></trkpt><trkpt lat="42.21388017817283" lon="13.820459900041692"><ele>316.0</ele><time>2026-04-27T17:18:50.999Z</time></trkpt><trkpt lat="42.21385221692609" lon="13.820372778179815"><ele>315.5</ele><time>2026-04-27T17:18:52.999Z</time></trkpt><trkpt lat="42.213829648155226" lon="13.820452131564121"><ele>315.0</ele><time>2026-04-27T17:19:02.999Z</time></trkpt><trkpt lat="42.213798870669216" lon="13.820624251510276"><ele>315.0</ele><time>2026-04-27T17:19:04.999Z</time></trkpt><trkpt lat="42.213683464851016" lon="13.820451951615974"><ele>315.0</ele><time>2026-04-27T17:19:05.999Z</time></trkpt><trkpt lat="42.21387313098565" lon="13.820832194159841"><ele>316.0</ele><time>2026-04-27T17:19:06.999Z</time></trkpt><trkpt lat="42.21373840411735" lon="13.821051097864657"><ele>317.0</ele><time>2026-04-27T17:19:07.999Z</time></trkpt><trkpt lat="42.213723042838616" lon="13.82121938256536"><ele>318.0</ele><time>2026-04-27T17:19:08.999Z</time></trkpt><trkpt lat="42.213738594301745" lon="13.821400350056921"><ele>318.0</ele><time>2026-04-27T17:19:09.999Z</time></trkpt><trkpt lat="42.21374909700128" lon="13.821581338988706"><ele>318.0</ele><time>2026-04-27T17:19:10.999Z</time></trkpt><trkpt lat="42.213743576462235" lon="13.821741545761121"><ele>318.0</ele><time>2026-04-27T17:19:11.999Z</time></trkpt><trkpt lat="42.2137516385834" lon="13.821886914711877"><ele>318.0</ele><time>2026-04-27T17:19:12.999Z</time></trkpt><trkpt lat="42.21376062561909" lon="13.821997700745678"><ele>318.0</ele><time>2026-04-27T17:19:13.999Z</time></trkpt><trkpt lat="42.21375472012226" lon="13.822122101709493"><ele>317.8</ele><time>2026-04-27T17:19:15.999Z</time></trkpt><trkpt lat="42.21363926679396" lon="13.82215096855479"><ele>317.6</ele><time>2026-04-27T17:19:17.999Z</time></trkpt><trkpt lat="42.21354833838744" lon="13.82216180210335"><ele>317.4</ele><time>2026-04-27T17:19:18.999Z</time></trkpt><trkpt lat="42.21344691986606" lon="13.8221961233929"><ele>317.2</ele><time>2026-04-27T17:19:19.999Z</time></trkpt><trkpt lat="42.21334329567842" lon="13.822237891677066"><ele>317.0</ele><time>2026-04-27T17:19:20.999Z</time></trkpt><trkpt lat="42.213257444747484" lon="13.822269068454853"><ele>317.0</ele><time>2026-04-27T17:19:21.999Z</time></trkpt><trkpt lat="42.213191008198706" lon="13.822278030093804"><ele>317.0</ele><time>2026-04-27T17:19:22.999Z</time></trkpt><trkpt lat="42.21312280582392" lon="13.822291494097753"><ele>317.0</ele><time>2026-04-27T17:19:23.999Z</time></trkpt><trkpt lat="42.21303606282912" lon="13.822325618498098"><ele>317.0</ele><time>2026-04-27T17:19:24.999Z</time></trkpt><trkpt lat="42.21293135522072" lon="13.82236698091495"><ele>317.0</ele><time>2026-04-27T17:19:25.999Z</time></trkpt><trkpt lat="42.21281638109427" lon="13.822413512713421"><ele>316.5</ele><time>2026-04-27T17:19:26.999Z</time></trkpt><trkpt lat="42.212703034231616" lon="13.822453691723926"><ele>316.0</ele><time>2026-04-27T17:19:27.999Z</time></trkpt><trkpt lat="42.212582517151375" lon="13.822485328565218"><ele>315.5</ele><time>2026-04-27T17:19:28.999Z</time></trkpt><trkpt lat="42.212450850612086" lon="13.822513646889291"><ele>315.0</ele><time>2026-04-27T17:19:30Z</time></trkpt><trkpt lat="42.212333332111974" lon="13.822573208386"><ele>315.0</ele><time>2026-04-27T17:19:31Z</time></trkpt><trkpt lat="42.212220020923" lon="13.822585934796226"><ele>315.0</ele><time>2026-04-27T17:19:32Z</time></trkpt><trkpt lat="42.21211588238187" lon="13.822619777713347"><ele>315.0</ele><time>2026-04-27T17:19:33Z</time></trkpt><trkpt lat="42.21202669735369" lon="13.822648761080963"><ele>315.0</ele><time>2026-04-27T17:19:34Z</time></trkpt><trkpt lat="42.21195647275817" lon="13.822692431066907"><ele>315.0</ele><time>2026-04-27T17:19:35Z</time></trkpt><trkpt lat="42.21188728241155" lon="13.822711420016363"><ele>314.8</ele><time>2026-04-27T17:19:36Z</time></trkpt><trkpt lat="42.211818282163556" lon="13.822734568937735"><ele>314.6</ele><time>2026-04-27T17:19:37Z</time></trkpt><trkpt lat="42.211735035693685" lon="13.822764968170848"><ele>314.4</ele><time>2026-04-27T17:19:38Z</time></trkpt><trkpt lat="42.211649912794954" lon="13.822788008689725"><ele>314.2</ele><time>2026-04-27T17:19:39Z</time></trkpt><trkpt lat="42.211580582656495" lon="13.822797424713292"><ele>314.0</ele><time>2026-04-27T17:19:40Z</time></trkpt><trkpt lat="42.211569762240686" lon="13.823063249733876"><ele>314.0</ele><time>2026-04-27T17:19:43Z</time></trkpt><trkpt lat="42.21160328522897" lon="13.823178380497682"><ele>314.0</ele><time>2026-04-27T17:19:44Z</time></trkpt><trkpt lat="42.21162854717127" lon="13.823306576034135"><ele>314.0</ele><time>2026-04-27T17:19:45Z</time></trkpt><trkpt lat="42.21165458366695" lon="13.8234479795671"><ele>314.0</ele><time>2026-04-27T17:19:46Z</time></trkpt><trkpt lat="42.2116849423691" lon="13.823596017438792"><ele>314.0</ele><time>2026-04-27T17:19:47Z</time></trkpt><trkpt lat="42.21171469056318" lon="13.823746029531657"><ele>314.4</ele><time>2026-04-27T17:19:48Z</time></trkpt><trkpt lat="42.21173863214341" lon="13.823894929694308"><ele>314.79999999999995</ele><time>2026-04-27T17:19:49Z</time></trkpt><trkpt lat="42.21175791840399" lon="13.824016981795888"><ele>315.20000000000005</ele><time>2026-04-27T17:19:50Z</time></trkpt><trkpt lat="42.21176898295928" lon="13.824138077799123"><ele>315.6</ele><time>2026-04-27T17:19:51Z</time></trkpt><trkpt lat="42.21180283034415" lon="13.82425832450974"><ele>316.0</ele><time>2026-04-27T17:19:53Z</time></trkpt><trkpt lat="42.21158252079896" lon="13.824129959225"><ele>316.0</ele><time>2026-04-27T17:19:54Z</time></trkpt><trkpt lat="42.21151618418253" lon="13.824180929359002"><ele>316.0</ele><time>2026-04-27T17:19:55Z</time></trkpt><trkpt lat="42.21143424973751" lon="13.824246461673125"><ele>311.0</ele><time>2026-04-27T17:19:57Z</time></trkpt></trkseg></trk></gpx>